<?xml version='1.0' encoding='UTF-8'?><gpx version="1.1" creator="JPX - https://github.com/jenetics/jpx" xmlns="http://www.topografix.com/GPX/1/1"><trk><trkseg><trkpt lat="44.3810161" lon="7.8137195"><ele>427.99999999999994</ele><time>2026-05-03T07:56:43.305Z</time></trkpt><trkpt lat="44.3810534" lon="7.8136101"><ele>428.0</ele><time>2026-05-03T07:56:45.311Z</time></trkpt><trkpt lat="44.3811027" lon="7.8134978"><ele>428.0</ele><time>2026-05-03T07:56:47.303Z</time></trkpt><trkpt lat="44.3811378" lon="7.8134243"><ele>428.0</ele><time>2026-05-03T07:56:48.315Z</time></trkpt><trkpt lat="44.3811771" lon="7.8133391"><ele>427.99999999999994</ele><time>2026-05-03T07:56:49.319Z</time></trkpt><trkpt lat="44.3812175" lon="7.8132544"><ele>428.0</ele><time>2026-05-03T07:56:50.31Z</time></trkpt><trkpt lat="44.3812569" lon="7.8131738"><ele>428.59999999999997</ele><time>2026-05-03T07:56:51.313Z</time></trkpt><trkpt lat="44.3813204" lon="7.8130533"><ele>429.19999999999993</ele><time>2026-05-03T07:56:53.308Z</time></trkpt><trkpt lat="44.3813696" lon="7.8129594"><ele>429.8</ele><time>2026-05-03T07:56:56.314Z</time></trkpt><trkpt lat="44.3813746" lon="7.812831"><ele>430.4</ele><time>2026-05-03T07:57:23.374Z</time></trkpt><trkpt lat="44.3812856" lon="7.812716"><ele>431.0</ele><time>2026-05-03T07:57:25.306Z</time></trkpt><trkpt lat="44.3812222" lon="7.8126557"><ele>431.0</ele><time>2026-05-03T07:57:26.31Z</time></trkpt><trkpt lat="44.3811518" lon="7.812588"><ele>431.0</ele><time>2026-05-03T07:57:27.313Z</time></trkpt><trkpt lat="44.3810777" lon="7.8125195"><ele>431.0</ele><time>2026-05-03T07:57:28.312Z</time></trkpt><trkpt lat="44.3809995" lon="7.8124473"><ele>431.0</ele><time>2026-05-03T07:57:29.317Z</time></trkpt><trkpt lat="44.3809172" lon="7.8123722"><ele>431.0</ele><time>2026-05-03T07:57:30.308Z</time></trkpt><trkpt lat="44.3808335" lon="7.8122956"><ele>431.0</ele><time>2026-05-03T07:57:31.309Z</time></trkpt><trkpt lat="44.3807493" lon="7.81222"><ele>431.0</ele><time>2026-05-03T07:57:32.307Z</time></trkpt><trkpt lat="44.3806607" lon="7.81214"><ele>431.0</ele><time>2026-05-03T07:57:33.308Z</time></trkpt><trkpt lat="44.380571" lon="7.812058"><ele>431.0</ele><time>2026-05-03T07:57:34.309Z</time></trkpt><trkpt lat="44.3804799" lon="7.8119728"><ele>431.0</ele><time>2026-05-03T07:57:35.314Z</time></trkpt><trkpt lat="44.3803877" lon="7.8118887"><ele>431.25</ele><time>2026-05-03T07:57:36.309Z</time></trkpt><trkpt lat="44.3802936" lon="7.8118061"><ele>431.5</ele><time>2026-05-03T07:57:37.314Z</time></trkpt><trkpt lat="44.3801962" lon="7.8117213"><ele>431.75</ele><time>2026-05-03T07:57:38.306Z</time></trkpt><trkpt lat="44.3800952" lon="7.811635"><ele>432.0</ele><time>2026-05-03T07:57:39.312Z</time></trkpt><trkpt lat="44.3799915" lon="7.8115482"><ele>432.0</ele><time>2026-05-03T07:57:40.31Z</time></trkpt><trkpt lat="44.3798861" lon="7.8114617"><ele>432.0</ele><time>2026-05-03T07:57:41.313Z</time></trkpt><trkpt lat="44.3797867" lon="7.8113793"><ele>432.0</ele><time>2026-05-03T07:57:42.304Z</time></trkpt><trkpt lat="44.3796907" lon="7.8112975"><ele>432.0</ele><time>2026-05-03T07:57:43.316Z</time></trkpt><trkpt lat="44.3795974" lon="7.8112149"><ele>432.0</ele><time>2026-05-03T07:57:44.309Z</time></trkpt><trkpt lat="44.3795071" lon="7.8111332"><ele>432.00000000000006</ele><time>2026-05-03T07:57:45.311Z</time></trkpt><trkpt lat="44.3794201" lon="7.8110529"><ele>432.00000000000006</ele><time>2026-05-03T07:57:46.32Z</time></trkpt><trkpt lat="44.3793409" lon="7.8109793"><ele>432.0</ele><time>2026-05-03T07:57:47.312Z</time></trkpt><trkpt lat="44.3792698" lon="7.8109147"><ele>432.0</ele><time>2026-05-03T07:57:48.311Z</time></trkpt><trkpt lat="44.379207" lon="7.8108602"><ele>432.6</ele><time>2026-05-03T07:57:49.308Z</time></trkpt><trkpt lat="44.3791254" lon="7.8107544"><ele>433.20000000000005</ele><time>2026-05-03T07:57:51.309Z</time></trkpt><trkpt lat="44.3791277" lon="7.8105932"><ele>433.8</ele><time>2026-05-03T07:57:53.31Z</time></trkpt><trkpt lat="44.3791556" lon="7.8104905"><ele>434.4</ele><time>2026-05-03T07:57:54.309Z</time></trkpt><trkpt lat="44.3791897" lon="7.810374"><ele>435.0</ele><time>2026-05-03T07:57:55.317Z</time></trkpt><trkpt lat="44.3792227" lon="7.8102427"><ele>435.2</ele><time>2026-05-03T07:57:56.311Z</time></trkpt><trkpt lat="44.3792498" lon="7.8100968"><ele>435.4</ele><time>2026-05-03T07:57:57.314Z</time></trkpt><trkpt lat="44.3792665" lon="7.8099411"><ele>435.6</ele><time>2026-05-03T07:57:58.319Z</time></trkpt><trkpt lat="44.3792762" lon="7.8097854"><ele>435.8</ele><time>2026-05-03T07:57:59.304Z</time></trkpt><trkpt lat="44.3792835" lon="7.8096359"><ele>436.0</ele><time>2026-05-03T07:58:00.309Z</time></trkpt><trkpt lat="44.3792914" lon="7.8094854"><ele>436.0</ele><time>2026-05-03T07:58:01.313Z</time></trkpt><trkpt lat="44.3793023" lon="7.8093343"><ele>436.0</ele><time>2026-05-03T07:58:02.311Z</time></trkpt><trkpt lat="44.3793137" lon="7.8091915"><ele>436.0</ele><time>2026-05-03T07:58:03.308Z</time></trkpt><trkpt lat="44.3793264" lon="7.8090317"><ele>436.0</ele><time>2026-05-03T07:58:04.308Z</time></trkpt><trkpt lat="44.379341" lon="7.8088651"><ele>436.0</ele><time>2026-05-03T07:58:05.304Z</time></trkpt><trkpt lat="44.3793613" lon="7.8086891"><ele>436.25</ele><time>2026-05-03T07:58:06.309Z</time></trkpt><trkpt lat="44.3793847" lon="7.8085049"><ele>436.5</ele><time>2026-05-03T07:58:07.305Z</time></trkpt><trkpt lat="44.3794117" lon="7.8083168"><ele>436.75</ele><time>2026-05-03T07:58:08.314Z</time></trkpt><trkpt lat="44.3794388" lon="7.8081257"><ele>437.0</ele><time>2026-05-03T07:58:09.308Z</time></trkpt><trkpt lat="44.3794667" lon="7.8079398"><ele>437.0</ele><time>2026-05-03T07:58:10.307Z</time></trkpt><trkpt lat="44.3794972" lon="7.8077523"><ele>437.0</ele><time>2026-05-03T07:58:11.309Z</time></trkpt><trkpt lat="44.3795273" lon="7.8075784"><ele>437.0</ele><time>2026-05-03T07:58:12.307Z</time></trkpt><trkpt lat="44.3795595" lon="7.8074112"><ele>437.0</ele><time>2026-05-03T07:58:13.314Z</time></trkpt><trkpt lat="44.3795942" lon="7.8072433"><ele>437.75</ele><time>2026-05-03T07:58:14.309Z</time></trkpt><trkpt lat="44.3796243" lon="7.8070707"><ele>438.5</ele><time>2026-05-03T07:58:15.311Z</time></trkpt><trkpt lat="44.3796428" lon="7.8068934"><ele>439.25</ele><time>2026-05-03T07:58:16.308Z</time></trkpt><trkpt lat="44.3796599" lon="7.8067178"><ele>440.0</ele><time>2026-05-03T07:58:17.309Z</time></trkpt><trkpt lat="44.3796576" lon="7.8065364"><ele>440.25</ele><time>2026-05-03T07:58:18.311Z</time></trkpt><trkpt lat="44.3796541" lon="7.8063534"><ele>440.5</ele><time>2026-05-03T07:58:19.336Z</time></trkpt><trkpt lat="44.3796487" lon="7.8061538"><ele>440.75</ele><time>2026-05-03T07:58:20.305Z</time></trkpt><trkpt lat="44.3796435" lon="7.8059578"><ele>441.0</ele><time>2026-05-03T07:58:21.309Z</time></trkpt><trkpt lat="44.3796392" lon="7.8057622"><ele>442.5</ele><time>2026-05-03T07:58:22.311Z</time></trkpt><trkpt lat="44.3796252" lon="7.8055752"><ele>444.0</ele><time>2026-05-03T07:58:23.31Z</time></trkpt><trkpt lat="44.3796044" lon="7.8053842"><ele>445.5</ele><time>2026-05-03T07:58:24.309Z</time></trkpt><trkpt lat="44.3795783" lon="7.8051946"><ele>447.0</ele><time>2026-05-03T07:58:25.305Z</time></trkpt><trkpt lat="44.3795492" lon="7.8050185"><ele>448.25</ele><time>2026-05-03T07:58:26.308Z</time></trkpt><trkpt lat="44.3795145" lon="7.8048431"><ele>449.5</ele><time>2026-05-03T07:58:27.305Z</time></trkpt><trkpt lat="44.3794749" lon="7.8046693"><ele>450.75</ele><time>2026-05-03T07:58:28.316Z</time></trkpt><trkpt lat="44.379431" lon="7.8044967"><ele>452.0</ele><time>2026-05-03T07:58:29.303Z</time></trkpt><trkpt lat="44.379382" lon="7.80432"><ele>452.75</ele><time>2026-05-03T07:58:30.305Z</time></trkpt><trkpt lat="44.3793313" lon="7.804137"><ele>453.5</ele><time>2026-05-03T07:58:31.314Z</time></trkpt><trkpt lat="44.3792844" lon="7.8039455"><ele>454.25</ele><time>2026-05-03T07:58:32.332Z</time></trkpt><trkpt lat="44.379244" lon="7.803747"><ele>455.0</ele><time>2026-05-03T07:58:33.312Z</time></trkpt><trkpt lat="44.3792013" lon="7.8035493"><ele>455.5</ele><time>2026-05-03T07:58:34.306Z</time></trkpt><trkpt lat="44.3791545" lon="7.8033483"><ele>456.0</ele><time>2026-05-03T07:58:35.304Z</time></trkpt><trkpt lat="44.3791057" lon="7.8031531"><ele>456.5</ele><time>2026-05-03T07:58:36.313Z</time></trkpt><trkpt lat="44.3790557" lon="7.8029667"><ele>457.0</ele><time>2026-05-03T07:58:37.313Z</time></trkpt><trkpt lat="44.3790027" lon="7.8027767"><ele>456.33333333333337</ele><time>2026-05-03T07:58:38.311Z</time></trkpt><trkpt lat="44.3789444" lon="7.8025868"><ele>455.66666666666663</ele><time>2026-05-03T07:58:39.311Z</time></trkpt><trkpt lat="44.3788838" lon="7.8023927"><ele>455.0</ele><time>2026-05-03T07:58:40.318Z</time></trkpt><trkpt lat="44.3788247" lon="7.8021934"><ele>454.0</ele><time>2026-05-03T07:58:41.305Z</time></trkpt><trkpt lat="44.3787686" lon="7.8019894"><ele>453.0</ele><time>2026-05-03T07:58:42.308Z</time></trkpt><trkpt lat="44.3787141" lon="7.8017918"><ele>452.0</ele><time>2026-05-03T07:58:43.308Z</time></trkpt><trkpt lat="44.3786526" lon="7.8016052"><ele>452.0</ele><time>2026-05-03T07:58:44.31Z</time></trkpt><trkpt lat="44.3785779" lon="7.8014316"><ele>452.0</ele><time>2026-05-03T07:58:45.306Z</time></trkpt><trkpt lat="44.3784922" lon="7.8012667"><ele>452.0</ele><time>2026-05-03T07:58:46.311Z</time></trkpt><trkpt lat="44.378395" lon="7.8011083"><ele>452.0</ele><time>2026-05-03T07:58:47.308Z</time></trkpt><trkpt lat="44.3782892" lon="7.8009571"><ele>453.66666666666663</ele><time>2026-05-03T07:58:48.315Z</time></trkpt><trkpt lat="44.3781793" lon="7.8008086"><ele>455.33333333333337</ele><time>2026-05-03T07:58:49.307Z</time></trkpt><trkpt lat="44.3780668" lon="7.8006628"><ele>457.0</ele><time>2026-05-03T07:58:50.311Z</time></trkpt><trkpt lat="44.3779557" lon="7.8005185"><ele>457.75</ele><time>2026-05-03T07:58:51.307Z</time></trkpt><trkpt lat="44.3778492" lon="7.8003754"><ele>458.5</ele><time>2026-05-03T07:58:52.314Z</time></trkpt><trkpt lat="44.3777523" lon="7.800225"><ele>459.25</ele><time>2026-05-03T07:58:53.309Z</time></trkpt><trkpt lat="44.3776638" lon="7.8000613"><ele>460.0</ele><time>2026-05-03T07:58:54.308Z</time></trkpt><trkpt lat="44.3775817" lon="7.799887"><ele>460.0</ele><time>2026-05-03T07:58:55.308Z</time></trkpt><trkpt lat="44.3775026" lon="7.7997062"><ele>460.0</ele><time>2026-05-03T07:58:56.317Z</time></trkpt><trkpt lat="44.3774236" lon="7.799522"><ele>460.0</ele><time>2026-05-03T07:58:57.314Z</time></trkpt><trkpt lat="44.3773424" lon="7.7993368"><ele>459.33333333333337</ele><time>2026-05-03T07:58:58.311Z</time></trkpt><trkpt lat="44.3772578" lon="7.79915"><ele>458.66666666666663</ele><time>2026-05-03T07:58:59.312Z</time></trkpt><trkpt lat="44.3771706" lon="7.7989615"><ele>458.0</ele><time>2026-05-03T07:59:00.305Z</time></trkpt><trkpt lat="44.3770803" lon="7.7987693"><ele>459.0</ele><time>2026-05-03T07:59:01.316Z</time></trkpt><trkpt lat="44.3769918" lon="7.7985698"><ele>460.0</ele><time>2026-05-03T07:59:02.307Z</time></trkpt><trkpt lat="44.3769051" lon="7.7983617"><ele>461.0</ele><time>2026-05-03T07:59:03.31Z</time></trkpt><trkpt lat="44.3768207" lon="7.7981482"><ele>461.0</ele><time>2026-05-03T07:59:04.31Z</time></trkpt><trkpt lat="44.3767388" lon="7.797934"><ele>461.0</ele><time>2026-05-03T07:59:05.312Z</time></trkpt><trkpt lat="44.3766583" lon="7.7977201"><ele>461.0</ele><time>2026-05-03T07:59:06.309Z</time></trkpt><trkpt lat="44.3765752" lon="7.7975142"><ele>461.0</ele><time>2026-05-03T07:59:07.305Z</time></trkpt><trkpt lat="44.3764946" lon="7.7972989"><ele>461.0</ele><time>2026-05-03T07:59:08.308Z</time></trkpt><trkpt lat="44.3764138" lon="7.7970907"><ele>461.0</ele><time>2026-05-03T07:59:09.31Z</time></trkpt><trkpt lat="44.376336" lon="7.7968823"><ele>461.3333333333333</ele><time>2026-05-03T07:59:10.311Z</time></trkpt><trkpt lat="44.3762567" lon="7.7966792"><ele>461.66666666666663</ele><time>2026-05-03T07:59:11.316Z</time></trkpt><trkpt lat="44.3761811" lon="7.7964746"><ele>462.0</ele><time>2026-05-03T07:59:12.313Z</time></trkpt><trkpt lat="44.3761214" lon="7.7962716"><ele>462.0</ele><time>2026-05-03T07:59:13.31Z</time></trkpt><trkpt lat="44.3760841" lon="7.7960779"><ele>462.0</ele><time>2026-05-03T07:59:14.313Z</time></trkpt><trkpt lat="44.3760649" lon="7.7958818"><ele>462.0</ele><time>2026-05-03T07:59:15.316Z</time></trkpt><trkpt lat="44.3760596" lon="7.7956789"><ele>462.0</ele><time>2026-05-03T07:59:16.305Z</time></trkpt><trkpt lat="44.3760668" lon="7.7954725"><ele>462.66666666666663</ele><time>2026-05-03T07:59:17.313Z</time></trkpt><trkpt lat="44.3760779" lon="7.7952591"><ele>463.3333333333333</ele><time>2026-05-03T07:59:18.317Z</time></trkpt><trkpt lat="44.3760921" lon="7.7950433"><ele>464.0</ele><time>2026-05-03T07:59:19.309Z</time></trkpt><trkpt lat="44.3761088" lon="7.7948247"><ele>464.0</ele><time>2026-05-03T07:59:20.316Z</time></trkpt><trkpt lat="44.3761266" lon="7.7946067"><ele>464.0</ele><time>2026-05-03T07:59:21.305Z</time></trkpt><trkpt lat="44.3761445" lon="7.7944026"><ele>464.0</ele><time>2026-05-03T07:59:22.311Z</time></trkpt><trkpt lat="44.3761615" lon="7.794215"><ele>464.0</ele><time>2026-05-03T07:59:23.304Z</time></trkpt><trkpt lat="44.3761799" lon="7.7940411"><ele>464.0</ele><time>2026-05-03T07:59:24.306Z</time></trkpt><trkpt lat="44.3762011" lon="7.7938765"><ele>464.0</ele><time>2026-05-03T07:59:25.31Z</time></trkpt><trkpt lat="44.3762228" lon="7.7937291"><ele>464.0</ele><time>2026-05-03T07:59:26.303Z</time></trkpt><trkpt lat="44.3762431" lon="7.7935939"><ele>464.0</ele><time>2026-05-03T07:59:27.308Z</time></trkpt><trkpt lat="44.3762624" lon="7.7934573"><ele>464.0</ele><time>2026-05-03T07:59:28.315Z</time></trkpt><trkpt lat="44.3762798" lon="7.7933145"><ele>464.25</ele><time>2026-05-03T07:59:29.305Z</time></trkpt><trkpt lat="44.3762917" lon="7.7931598"><ele>464.5</ele><time>2026-05-03T07:59:30.317Z</time></trkpt><trkpt lat="44.3763017" lon="7.7929943"><ele>464.75</ele><time>2026-05-03T07:59:31.314Z</time></trkpt><trkpt lat="44.3763143" lon="7.7928212"><ele>465.0</ele><time>2026-05-03T07:59:32.308Z</time></trkpt><trkpt lat="44.3763272" lon="7.7926402"><ele>465.0</ele><time>2026-05-03T07:59:33.311Z</time></trkpt><trkpt lat="44.3763385" lon="7.7924531"><ele>465.0</ele><time>2026-05-03T07:59:34.308Z</time></trkpt><trkpt lat="44.3763462" lon="7.7922635"><ele>465.0</ele><time>2026-05-03T07:59:35.308Z</time></trkpt><trkpt lat="44.3763505" lon="7.7920699"><ele>465.0</ele><time>2026-05-03T07:59:36.31Z</time></trkpt><trkpt lat="44.3763518" lon="7.7918698"><ele>465.0</ele><time>2026-05-03T07:59:37.313Z</time></trkpt><trkpt lat="44.376345" lon="7.7916618"><ele>465.0</ele><time>2026-05-03T07:59:38.317Z</time></trkpt><trkpt lat="44.3763301" lon="7.791446"><ele>465.0</ele><time>2026-05-03T07:59:39.32Z</time></trkpt><trkpt lat="44.3763117" lon="7.7912305"><ele>465.0</ele><time>2026-05-03T07:59:40.325Z</time></trkpt><trkpt lat="44.3762949" lon="7.7910292"><ele>465.0</ele><time>2026-05-03T07:59:41.313Z</time></trkpt><trkpt lat="44.3762823" lon="7.7908423"><ele>465.0</ele><time>2026-05-03T07:59:42.32Z</time></trkpt><trkpt lat="44.3762765" lon="7.7906664"><ele>465.0</ele><time>2026-05-03T07:59:43.321Z</time></trkpt><trkpt lat="44.3762775" lon="7.7904861"><ele>465.0</ele><time>2026-05-03T07:59:44.317Z</time></trkpt><trkpt lat="44.3762768" lon="7.7903089"><ele>465.0</ele><time>2026-05-03T07:59:45.311Z</time></trkpt><trkpt lat="44.3762864" lon="7.7901005"><ele>465.0</ele><time>2026-05-03T07:59:46.316Z</time></trkpt><trkpt lat="44.3763217" lon="7.7898937"><ele>465.0</ele><time>2026-05-03T07:59:47.349Z</time></trkpt><trkpt lat="44.3763557" lon="7.7896868"><ele>465.33333333333337</ele><time>2026-05-03T07:59:48.323Z</time></trkpt><trkpt lat="44.3763832" lon="7.7894701"><ele>465.6666666666667</ele><time>2026-05-03T07:59:49.326Z</time></trkpt><trkpt lat="44.3764026" lon="7.7892407"><ele>466.0</ele><time>2026-05-03T07:59:50.345Z</time></trkpt><trkpt lat="44.3764211" lon="7.789007"><ele>466.33333333333337</ele><time>2026-05-03T07:59:51.313Z</time></trkpt><trkpt lat="44.3764344" lon="7.7887754"><ele>466.66666666666663</ele><time>2026-05-03T07:59:52.323Z</time></trkpt><trkpt lat="44.3764507" lon="7.7885475"><ele>467.0</ele><time>2026-05-03T07:59:53.313Z</time></trkpt><trkpt lat="44.3764683" lon="7.7883312"><ele>467.0</ele><time>2026-05-03T07:59:54.35Z</time></trkpt><trkpt lat="44.3764854" lon="7.788124"><ele>467.0</ele><time>2026-05-03T07:59:55.32Z</time></trkpt><trkpt lat="44.3764922" lon="7.7879185"><ele>467.0</ele><time>2026-05-03T07:59:56.318Z</time></trkpt><trkpt lat="44.3764852" lon="7.7877089"><ele>467.0</ele><time>2026-05-03T07:59:57.319Z</time></trkpt><trkpt lat="44.3764723" lon="7.7875012"><ele>467.0</ele><time>2026-05-03T07:59:58.313Z</time></trkpt><trkpt lat="44.3764737" lon="7.787294"><ele>467.0</ele><time>2026-05-03T07:59:59.328Z</time></trkpt><trkpt lat="44.3764941" lon="7.787089"><ele>467.0</ele><time>2026-05-03T08:00:00.327Z</time></trkpt><trkpt lat="44.3765264" lon="7.7868867"><ele>467.0</ele><time>2026-05-03T08:00:01.324Z</time></trkpt><trkpt lat="44.3765623" lon="7.786686"><ele>467.0</ele><time>2026-05-03T08:00:02.316Z</time></trkpt><trkpt lat="44.3765981" lon="7.786481"><ele>467.0</ele><time>2026-05-03T08:00:03.313Z</time></trkpt><trkpt lat="44.3766335" lon="7.7862685"><ele>467.0</ele><time>2026-05-03T08:00:04.348Z</time></trkpt><trkpt lat="44.3766633" lon="7.7860538"><ele>467.0</ele><time>2026-05-03T08:00:05.326Z</time></trkpt><trkpt lat="44.3766836" lon="7.7858332"><ele>467.0</ele><time>2026-05-03T08:00:06.313Z</time></trkpt><trkpt lat="44.3766862" lon="7.7856047"><ele>467.0</ele><time>2026-05-03T08:00:07.322Z</time></trkpt><trkpt lat="44.3766693" lon="7.7853724"><ele>467.3333333333333</ele><time>2026-05-03T08:00:08.315Z</time></trkpt><trkpt lat="44.3766393" lon="7.785135"><ele>467.66666666666663</ele><time>2026-05-03T08:00:09.322Z</time></trkpt><trkpt lat="44.3766057" lon="7.7848945"><ele>468.0</ele><time>2026-05-03T08:00:10.318Z</time></trkpt><trkpt lat="44.3765707" lon="7.7846496"><ele>468.0</ele><time>2026-05-03T08:00:11.34Z</time></trkpt><trkpt lat="44.3765317" lon="7.7844054"><ele>468.0</ele><time>2026-05-03T08:00:12.33Z</time></trkpt><trkpt lat="44.3764886" lon="7.7841614"><ele>468.0</ele><time>2026-05-03T08:00:13.325Z</time></trkpt><trkpt lat="44.3764424" lon="7.7839182"><ele>467.66666666666663</ele><time>2026-05-03T08:00:14.323Z</time></trkpt><trkpt lat="44.376399" lon="7.7836689"><ele>467.3333333333333</ele><time>2026-05-03T08:00:15.32Z</time></trkpt><trkpt lat="44.3763571" lon="7.7834306"><ele>467.0</ele><time>2026-05-03T08:00:16.326Z</time></trkpt><trkpt lat="44.3763323" lon="7.7831776"><ele>467.0</ele><time>2026-05-03T08:00:17.318Z</time></trkpt><trkpt lat="44.3763042" lon="7.7829166"><ele>467.0</ele><time>2026-05-03T08:00:18.318Z</time></trkpt><trkpt lat="44.3762783" lon="7.7826691"><ele>467.0</ele><time>2026-05-03T08:00:19.324Z</time></trkpt><trkpt lat="44.3762411" lon="7.7824181"><ele>467.66666666666663</ele><time>2026-05-03T08:00:20.343Z</time></trkpt><trkpt lat="44.3762007" lon="7.7821663"><ele>468.33333333333337</ele><time>2026-05-03T08:00:21.33Z</time></trkpt><trkpt lat="44.3761656" lon="7.7819267"><ele>469.0</ele><time>2026-05-03T08:00:22.322Z</time></trkpt><trkpt lat="44.3761358" lon="7.7817035"><ele>469.5</ele><time>2026-05-03T08:00:23.315Z</time></trkpt><trkpt lat="44.376116" lon="7.7814981"><ele>470.0</ele><time>2026-05-03T08:00:24.315Z</time></trkpt><trkpt lat="44.3760966" lon="7.7813012"><ele>470.5</ele><time>2026-05-03T08:00:25.316Z</time></trkpt><trkpt lat="44.3760667" lon="7.781094"><ele>471.0</ele><time>2026-05-03T08:00:26.329Z</time></trkpt><trkpt lat="44.3760132" lon="7.7808874"><ele>471.5</ele><time>2026-05-03T08:00:27.325Z</time></trkpt><trkpt lat="44.3759446" lon="7.7806875"><ele>472.0</ele><time>2026-05-03T08:00:28.315Z</time></trkpt><trkpt lat="44.3758786" lon="7.7805029"><ele>472.5</ele><time>2026-05-03T08:00:29.318Z</time></trkpt><trkpt lat="44.3758236" lon="7.7803291"><ele>473.0</ele><time>2026-05-03T08:00:30.314Z</time></trkpt><trkpt lat="44.3757846" lon="7.7801568"><ele>473.0</ele><time>2026-05-03T08:00:31.319Z</time></trkpt><trkpt lat="44.3757663" lon="7.7799779"><ele>473.0</ele><time>2026-05-03T08:00:32.312Z</time></trkpt><trkpt lat="44.3757645" lon="7.7797926"><ele>473.0</ele><time>2026-05-03T08:00:33.324Z</time></trkpt><trkpt lat="44.3757712" lon="7.7795963"><ele>473.0</ele><time>2026-05-03T08:00:34.324Z</time></trkpt><trkpt lat="44.3757801" lon="7.7793857"><ele>473.66666666666663</ele><time>2026-05-03T08:00:35.318Z</time></trkpt><trkpt lat="44.3757866" lon="7.779164"><ele>474.33333333333337</ele><time>2026-05-03T08:00:36.317Z</time></trkpt><trkpt lat="44.3757917" lon="7.7789369"><ele>475.0</ele><time>2026-05-03T08:00:37.334Z</time></trkpt><trkpt lat="44.3757961" lon="7.778707"><ele>476.0</ele><time>2026-05-03T08:00:38.321Z</time></trkpt><trkpt lat="44.3758015" lon="7.7784784"><ele>477.0</ele><time>2026-05-03T08:00:39.319Z</time></trkpt><trkpt lat="44.3758093" lon="7.7782509"><ele>478.0</ele><time>2026-05-03T08:00:40.316Z</time></trkpt><trkpt lat="44.3758156" lon="7.7780255"><ele>478.0</ele><time>2026-05-03T08:00:41.318Z</time></trkpt><trkpt lat="44.3758172" lon="7.7778125"><ele>478.0</ele><time>2026-05-03T08:00:42.32Z</time></trkpt><trkpt lat="44.3758121" lon="7.7776088"><ele>478.0</ele><time>2026-05-03T08:00:43.382Z</time></trkpt><trkpt lat="44.3757954" lon="7.7774119"><ele>478.0</ele><time>2026-05-03T08:00:44.35Z</time></trkpt><trkpt lat="44.3757653" lon="7.7772251"><ele>479.5</ele><time>2026-05-03T08:00:45.309Z</time></trkpt><trkpt lat="44.3757249" lon="7.777043"><ele>481.0</ele><time>2026-05-03T08:00:46.328Z</time></trkpt><trkpt lat="44.375682" lon="7.7768606"><ele>482.5</ele><time>2026-05-03T08:00:47.321Z</time></trkpt><trkpt lat="44.375636" lon="7.7766701"><ele>484.0</ele><time>2026-05-03T08:00:48.318Z</time></trkpt><trkpt lat="44.3755935" lon="7.7764712"><ele>485.0</ele><time>2026-05-03T08:00:49.325Z</time></trkpt><trkpt lat="44.375559" lon="7.7762657"><ele>486.0</ele><time>2026-05-03T08:00:50.319Z</time></trkpt><trkpt lat="44.3755302" lon="7.7760554"><ele>487.0</ele><time>2026-05-03T08:00:51.331Z</time></trkpt><trkpt lat="44.3754985" lon="7.7758443"><ele>487.6666666666667</ele><time>2026-05-03T08:00:52.326Z</time></trkpt><trkpt lat="44.3754597" lon="7.775633"><ele>488.33333333333337</ele><time>2026-05-03T08:00:53.318Z</time></trkpt><trkpt lat="44.3754147" lon="7.7754217"><ele>489.0</ele><time>2026-05-03T08:00:54.343Z</time></trkpt><trkpt lat="44.3753643" lon="7.7752096"><ele>489.75</ele><time>2026-05-03T08:00:55.318Z</time></trkpt><trkpt lat="44.3753104" lon="7.7750021"><ele>490.5</ele><time>2026-05-03T08:00:56.315Z</time></trkpt><trkpt lat="44.3752591" lon="7.774816"><ele>491.25</ele><time>2026-05-03T08:00:57.313Z</time></trkpt><trkpt lat="44.3752169" lon="7.7746497"><ele>492.0</ele><time>2026-05-03T08:00:58.316Z</time></trkpt><trkpt lat="44.3751817" lon="7.7744996"><ele>492.0</ele><time>2026-05-03T08:00:59.317Z</time></trkpt><trkpt lat="44.3751494" lon="7.7743613"><ele>492.00000000000006</ele><time>2026-05-03T08:01:00.315Z</time></trkpt><trkpt lat="44.3751172" lon="7.774227"><ele>492.00000000000006</ele><time>2026-05-03T08:01:01.33Z</time></trkpt><trkpt lat="44.3750797" lon="7.774095"><ele>492.0</ele><time>2026-05-03T08:01:02.316Z</time></trkpt><trkpt lat="44.3750277" lon="7.7739694"><ele>492.0</ele><time>2026-05-03T08:01:03.317Z</time></trkpt><trkpt lat="44.3749615" lon="7.7738557"><ele>492.40000000000003</ele><time>2026-05-03T08:01:04.321Z</time></trkpt><trkpt lat="44.3748987" lon="7.7737577"><ele>492.80000000000007</ele><time>2026-05-03T08:01:05.311Z</time></trkpt><trkpt lat="44.374845" lon="7.7736739"><ele>493.2</ele><time>2026-05-03T08:01:06.313Z</time></trkpt><trkpt lat="44.3747966" lon="7.7736"><ele>493.6</ele><time>2026-05-03T08:01:07.322Z</time></trkpt><trkpt lat="44.3747168" lon="7.7734806"><ele>494.0</ele><time>2026-05-03T08:01:09.326Z</time></trkpt><trkpt lat="44.3746324" lon="7.7734256"><ele>494.2</ele><time>2026-05-03T08:01:11.316Z</time></trkpt><trkpt lat="44.374512" lon="7.773441"><ele>494.4</ele><time>2026-05-03T08:01:13.322Z</time></trkpt><trkpt lat="44.3744337" lon="7.7734657"><ele>494.6</ele><time>2026-05-03T08:01:14.319Z</time></trkpt><trkpt lat="44.3743449" lon="7.7734924"><ele>494.8</ele><time>2026-05-03T08:01:15.32Z</time></trkpt><trkpt lat="44.3742466" lon="7.773515"><ele>495.0</ele><time>2026-05-03T08:01:16.324Z</time></trkpt><trkpt lat="44.3741436" lon="7.7735292"><ele>495.0</ele><time>2026-05-03T08:01:17.324Z</time></trkpt><trkpt lat="44.374039" lon="7.7735378"><ele>495.0</ele><time>2026-05-03T08:01:18.317Z</time></trkpt><trkpt lat="44.3739393" lon="7.7735421"><ele>495.0</ele><time>2026-05-03T08:01:19.311Z</time></trkpt><trkpt lat="44.3738422" lon="7.773551"><ele>495.0</ele><time>2026-05-03T08:01:20.315Z</time></trkpt><trkpt lat="44.3737396" lon="7.7735647"><ele>495.0</ele><time>2026-05-03T08:01:21.321Z</time></trkpt><trkpt lat="44.3736359" lon="7.773573"><ele>495.0</ele><time>2026-05-03T08:01:22.33Z</time></trkpt><trkpt lat="44.373536" lon="7.7735785"><ele>495.0</ele><time>2026-05-03T08:01:23.312Z</time></trkpt><trkpt lat="44.3734404" lon="7.7735762"><ele>495.0</ele><time>2026-05-03T08:01:24.311Z</time></trkpt><trkpt lat="44.3733565" lon="7.7735706"><ele>495.0</ele><time>2026-05-03T08:01:25.328Z</time></trkpt><trkpt lat="44.3732579" lon="7.7735366"><ele>495.0</ele><time>2026-05-03T08:01:26.338Z</time></trkpt><trkpt lat="44.3731607" lon="7.7734998"><ele>494.75</ele><time>2026-05-03T08:01:27.327Z</time></trkpt><trkpt lat="44.3730424" lon="7.7734606"><ele>494.5</ele><time>2026-05-03T08:01:28.334Z</time></trkpt><trkpt lat="44.372927" lon="7.7734297"><ele>494.25</ele><time>2026-05-03T08:01:29.311Z</time></trkpt><trkpt lat="44.3727987" lon="7.7733946"><ele>494.0</ele><time>2026-05-03T08:01:30.327Z</time></trkpt><trkpt lat="44.372668" lon="7.7733737"><ele>494.5</ele><time>2026-05-03T08:01:31.332Z</time></trkpt><trkpt lat="44.3725256" lon="7.7733437"><ele>495.0</ele><time>2026-05-03T08:01:32.335Z</time></trkpt><trkpt lat="44.3723906" lon="7.7733134"><ele>495.5</ele><time>2026-05-03T08:01:33.324Z</time></trkpt><trkpt lat="44.3722593" lon="7.7732812"><ele>496.0</ele><time>2026-05-03T08:01:34.319Z</time></trkpt><trkpt lat="44.3721476" lon="7.7732522"><ele>496.25</ele><time>2026-05-03T08:01:35.334Z</time></trkpt><trkpt lat="44.3720358" lon="7.7732273"><ele>496.5</ele><time>2026-05-03T08:01:36.321Z</time></trkpt><trkpt lat="44.3719196" lon="7.7731939"><ele>496.75</ele><time>2026-05-03T08:01:37.337Z</time></trkpt><trkpt lat="44.371801" lon="7.7731717"><ele>497.0</ele><time>2026-05-03T08:01:38.321Z</time></trkpt><trkpt lat="44.37169" lon="7.7731496"><ele>497.0</ele><time>2026-05-03T08:01:39.323Z</time></trkpt><trkpt lat="44.3715691" lon="7.7731356"><ele>497.0</ele><time>2026-05-03T08:01:40.335Z</time></trkpt><trkpt lat="44.3714535" lon="7.7731316"><ele>497.0</ele><time>2026-05-03T08:01:41.318Z</time></trkpt><trkpt lat="44.371334" lon="7.7731305"><ele>497.0</ele><time>2026-05-03T08:01:42.316Z</time></trkpt><trkpt lat="44.3712083" lon="7.7731266"><ele>497.25</ele><time>2026-05-03T08:01:43.333Z</time></trkpt><trkpt lat="44.3710776" lon="7.7731268"><ele>497.5</ele><time>2026-05-03T08:01:44.318Z</time></trkpt><trkpt lat="44.3709507" lon="7.773135"><ele>497.75</ele><time>2026-05-03T08:01:45.314Z</time></trkpt><trkpt lat="44.3708212" lon="7.7731459"><ele>498.0</ele><time>2026-05-03T08:01:46.333Z</time></trkpt><trkpt lat="44.3706866" lon="7.7731386"><ele>498.0</ele><time>2026-05-03T08:01:47.317Z</time></trkpt><trkpt lat="44.3705644" lon="7.7731472"><ele>497.99999999999994</ele><time>2026-05-03T08:01:48.311Z</time></trkpt><trkpt lat="44.3704531" lon="7.7731536"><ele>497.99999999999994</ele><time>2026-05-03T08:01:49.342Z</time></trkpt><trkpt lat="44.3703476" lon="7.7731533"><ele>498.0</ele><time>2026-05-03T08:01:50.311Z</time></trkpt><trkpt lat="44.3702487" lon="7.7731583"><ele>498.0</ele><time>2026-05-03T08:01:51.317Z</time></trkpt><trkpt lat="44.3701585" lon="7.7731615"><ele>498.1666666666667</ele><time>2026-05-03T08:01:52.316Z</time></trkpt><trkpt lat="44.3700733" lon="7.7731602"><ele>498.33333333333337</ele><time>2026-05-03T08:01:53.308Z</time></trkpt><trkpt lat="44.36999" lon="7.7731589"><ele>498.5</ele><time>2026-05-03T08:01:54.322Z</time></trkpt><trkpt lat="44.3699037" lon="7.7731567"><ele>498.6666666666667</ele><time>2026-05-03T08:01:55.338Z</time></trkpt><trkpt lat="44.3698127" lon="7.7731557"><ele>498.83333333333337</ele><time>2026-05-03T08:01:56.315Z</time></trkpt><trkpt lat="44.3697213" lon="7.7731562"><ele>499.0</ele><time>2026-05-03T08:01:57.318Z</time></trkpt><trkpt lat="44.3696387" lon="7.7731546"><ele>499.1666666666667</ele><time>2026-05-03T08:01:58.321Z</time></trkpt><trkpt lat="44.3695683" lon="7.7731548"><ele>499.33333333333337</ele><time>2026-05-03T08:01:59.322Z</time></trkpt><trkpt lat="44.3695046" lon="7.7731596"><ele>499.5</ele><time>2026-05-03T08:02:00.33Z</time></trkpt><trkpt lat="44.3693909" lon="7.7731632"><ele>499.66666666666663</ele><time>2026-05-03T08:02:02.315Z</time></trkpt><trkpt lat="44.3692936" lon="7.7731608"><ele>499.8333333333333</ele><time>2026-05-03T08:02:04.319Z</time></trkpt><trkpt lat="44.3692082" lon="7.7731586"><ele>500.0</ele><time>2026-05-03T08:02:06.314Z</time></trkpt><trkpt lat="44.3691266" lon="7.7731577"><ele>499.99999999999994</ele><time>2026-05-03T08:02:08.322Z</time></trkpt><trkpt lat="44.3690498" lon="7.7731542"><ele>500.0</ele><time>2026-05-03T08:02:10.316Z</time></trkpt><trkpt lat="44.3689767" lon="7.7731504"><ele>500.0</ele><time>2026-05-03T08:02:12.322Z</time></trkpt><trkpt lat="44.368887" lon="7.7731477"><ele>500.0</ele><time>2026-05-03T08:02:14.31Z</time></trkpt><trkpt lat="44.3687798" lon="7.7731322"><ele>499.99999999999994</ele><time>2026-05-03T08:02:16.324Z</time></trkpt><trkpt lat="44.3687122" lon="7.7731246"><ele>500.0</ele><time>2026-05-03T08:02:17.319Z</time></trkpt><trkpt lat="44.3686332" lon="7.7731196"><ele>500.4</ele><time>2026-05-03T08:02:18.31Z</time></trkpt><trkpt lat="44.3685456" lon="7.7731101"><ele>500.8</ele><time>2026-05-03T08:02:19.319Z</time></trkpt><trkpt lat="44.3684547" lon="7.7731056"><ele>501.20000000000005</ele><time>2026-05-03T08:02:20.319Z</time></trkpt><trkpt lat="44.368359" lon="7.7731048"><ele>501.6</ele><time>2026-05-03T08:02:21.326Z</time></trkpt><trkpt lat="44.3682669" lon="7.7731031"><ele>502.0</ele><time>2026-05-03T08:02:22.32Z</time></trkpt><trkpt lat="44.36818" lon="7.7731021"><ele>502.00000000000006</ele><time>2026-05-03T08:02:23.328Z</time></trkpt><trkpt lat="44.3681036" lon="7.7731155"><ele>502.0</ele><time>2026-05-03T08:02:24.317Z</time></trkpt><trkpt lat="44.3680254" lon="7.7731117"><ele>502.0</ele><time>2026-05-03T08:02:25.318Z</time></trkpt><trkpt lat="44.3679366" lon="7.7731071"><ele>502.0</ele><time>2026-05-03T08:02:26.343Z</time></trkpt><trkpt lat="44.3678389" lon="7.7731096"><ele>502.00000000000006</ele><time>2026-05-03T08:02:27.318Z</time></trkpt><trkpt lat="44.3677479" lon="7.7731324"><ele>502.0</ele><time>2026-05-03T08:02:28.323Z</time></trkpt><trkpt lat="44.3676581" lon="7.7731458"><ele>502.0</ele><time>2026-05-03T08:02:29.342Z</time></trkpt><trkpt lat="44.3675575" lon="7.7731482"><ele>502.00000000000006</ele><time>2026-05-03T08:02:30.326Z</time></trkpt><trkpt lat="44.3674515" lon="7.7731429"><ele>502.00000000000006</ele><time>2026-05-03T08:02:31.316Z</time></trkpt><trkpt lat="44.3673367" lon="7.7731303"><ele>502.0</ele><time>2026-05-03T08:02:32.325Z</time></trkpt><trkpt lat="44.3672199" lon="7.7731093"><ele>502.0</ele><time>2026-05-03T08:02:33.316Z</time></trkpt><trkpt lat="44.3671008" lon="7.7730793"><ele>502.25</ele><time>2026-05-03T08:02:34.317Z</time></trkpt><trkpt lat="44.366977" lon="7.7730448"><ele>502.5</ele><time>2026-05-03T08:02:35.337Z</time></trkpt><trkpt lat="44.3668565" lon="7.7730036"><ele>502.75</ele><time>2026-05-03T08:02:36.32Z</time></trkpt><trkpt lat="44.366746" lon="7.7729553"><ele>503.0</ele><time>2026-05-03T08:02:37.311Z</time></trkpt><trkpt lat="44.3666429" lon="7.7729083"><ele>503.0</ele><time>2026-05-03T08:02:38.326Z</time></trkpt><trkpt lat="44.3665406" lon="7.7728596"><ele>502.99999999999994</ele><time>2026-05-03T08:02:39.328Z</time></trkpt><trkpt lat="44.3664392" lon="7.7728186"><ele>502.99999999999994</ele><time>2026-05-03T08:02:40.316Z</time></trkpt><trkpt lat="44.366351" lon="7.7727854"><ele>503.0</ele><time>2026-05-03T08:02:41.314Z</time></trkpt><trkpt lat="44.3662716" lon="7.7727744"><ele>503.0</ele><time>2026-05-03T08:02:42.317Z</time></trkpt><trkpt lat="44.3661902" lon="7.7727635"><ele>503.16666666666663</ele><time>2026-05-03T08:02:43.313Z</time></trkpt><trkpt lat="44.3661051" lon="7.7727583"><ele>503.3333333333333</ele><time>2026-05-03T08:02:44.312Z</time></trkpt><trkpt lat="44.3660179" lon="7.7727527"><ele>503.5</ele><time>2026-05-03T08:02:45.314Z</time></trkpt><trkpt lat="44.3659373" lon="7.7727603"><ele>503.66666666666663</ele><time>2026-05-03T08:02:46.321Z</time></trkpt><trkpt lat="44.3658574" lon="7.7727743"><ele>503.8333333333333</ele><time>2026-05-03T08:02:47.316Z</time></trkpt><trkpt lat="44.3657811" lon="7.7727934"><ele>504.0</ele><time>2026-05-03T08:02:48.318Z</time></trkpt><trkpt lat="44.3657082" lon="7.7728172"><ele>504.0</ele><time>2026-05-03T08:02:49.325Z</time></trkpt><trkpt lat="44.3656097" lon="7.7728407"><ele>504.0</ele><time>2026-05-03T08:02:50.322Z</time></trkpt><trkpt lat="44.3655009" lon="7.7728689"><ele>504.0</ele><time>2026-05-03T08:02:51.327Z</time></trkpt><trkpt lat="44.365391" lon="7.7728968"><ele>504.0</ele><time>2026-05-03T08:02:52.319Z</time></trkpt><trkpt lat="44.3652675" lon="7.7729265"><ele>504.0</ele><time>2026-05-03T08:02:53.32Z</time></trkpt><trkpt lat="44.3651299" lon="7.7729441"><ele>504.25</ele><time>2026-05-03T08:02:54.338Z</time></trkpt><trkpt lat="44.3650012" lon="7.7729728"><ele>504.5</ele><time>2026-05-03T08:02:55.405Z</time></trkpt><trkpt lat="44.3648829" lon="7.7729883"><ele>504.75</ele><time>2026-05-03T08:02:56.344Z</time></trkpt><trkpt lat="44.3647634" lon="7.7730057"><ele>505.0</ele><time>2026-05-03T08:02:57.323Z</time></trkpt><trkpt lat="44.3646452" lon="7.7730243"><ele>505.5</ele><time>2026-05-03T08:02:58.32Z</time></trkpt><trkpt lat="44.3645276" lon="7.7730478"><ele>506.0</ele><time>2026-05-03T08:02:59.358Z</time></trkpt><trkpt lat="44.3644136" lon="7.7730951"><ele>506.5</ele><time>2026-05-03T08:03:00.339Z</time></trkpt><trkpt lat="44.364289" lon="7.7731272"><ele>507.0</ele><time>2026-05-03T08:03:01.336Z</time></trkpt><trkpt lat="44.3641823" lon="7.7731488"><ele>507.0</ele><time>2026-05-03T08:03:02.316Z</time></trkpt><trkpt lat="44.3640934" lon="7.7731635"><ele>507.0</ele><time>2026-05-03T08:03:03.314Z</time></trkpt><trkpt lat="44.3640134" lon="7.7731713"><ele>507.0</ele><time>2026-05-03T08:03:04.321Z</time></trkpt><trkpt lat="44.3639388" lon="7.7731693"><ele>507.0</ele><time>2026-05-03T08:03:05.324Z</time></trkpt><trkpt lat="44.3638708" lon="7.7731664"><ele>507.0</ele><time>2026-05-03T08:03:06.311Z</time></trkpt><trkpt lat="44.3638067" lon="7.773165"><ele>507.0</ele><time>2026-05-03T08:03:07.314Z</time></trkpt><trkpt lat="44.3637404" lon="7.7731771"><ele>507.0</ele><time>2026-05-03T08:03:08.314Z</time></trkpt><trkpt lat="44.3636703" lon="7.7732098"><ele>507.0</ele><time>2026-05-03T08:03:09.332Z</time></trkpt><trkpt lat="44.3635912" lon="7.7732642"><ele>507.00000000000006</ele><time>2026-05-03T08:03:10.333Z</time></trkpt><trkpt lat="44.3635083" lon="7.7733348"><ele>507.00000000000006</ele><time>2026-05-03T08:03:11.335Z</time></trkpt><trkpt lat="44.3634176" lon="7.7734193"><ele>507.0</ele><time>2026-05-03T08:03:12.332Z</time></trkpt><trkpt lat="44.3633276" lon="7.7735008"><ele>507.0</ele><time>2026-05-03T08:03:13.324Z</time></trkpt><trkpt lat="44.3632325" lon="7.7735767"><ele>507.0</ele><time>2026-05-03T08:03:14.321Z</time></trkpt><trkpt lat="44.3631219" lon="7.773637"><ele>507.0</ele><time>2026-05-03T08:03:15.325Z</time></trkpt><trkpt lat="44.3630042" lon="7.7736916"><ele>507.0</ele><time>2026-05-03T08:03:16.32Z</time></trkpt><trkpt lat="44.3628917" lon="7.7737289"><ele>507.0</ele><time>2026-05-03T08:03:17.314Z</time></trkpt><trkpt lat="44.362793" lon="7.7737523"><ele>507.25</ele><time>2026-05-03T08:03:18.317Z</time></trkpt><trkpt lat="44.3626904" lon="7.7737757"><ele>507.5</ele><time>2026-05-03T08:03:19.317Z</time></trkpt><trkpt lat="44.3625753" lon="7.7738057"><ele>507.75</ele><time>2026-05-03T08:03:20.332Z</time></trkpt><trkpt lat="44.3624564" lon="7.7738372"><ele>508.0</ele><time>2026-05-03T08:03:21.319Z</time></trkpt><trkpt lat="44.3623301" lon="7.7738569"><ele>508.0</ele><time>2026-05-03T08:03:22.311Z</time></trkpt><trkpt lat="44.3622043" lon="7.7738732"><ele>508.0</ele><time>2026-05-03T08:03:23.319Z</time></trkpt><trkpt lat="44.3620803" lon="7.7738753"><ele>508.0</ele><time>2026-05-03T08:03:24.319Z</time></trkpt><trkpt lat="44.3619519" lon="7.7738568"><ele>508.0</ele><time>2026-05-03T08:03:25.322Z</time></trkpt><trkpt lat="44.3618195" lon="7.7738309"><ele>508.0</ele><time>2026-05-03T08:03:26.326Z</time></trkpt><trkpt lat="44.361683" lon="7.7738046"><ele>508.0</ele><time>2026-05-03T08:03:27.33Z</time></trkpt><trkpt lat="44.3615363" lon="7.7737763"><ele>508.0</ele><time>2026-05-03T08:03:28.316Z</time></trkpt><trkpt lat="44.3613918" lon="7.773746"><ele>508.0</ele><time>2026-05-03T08:03:29.336Z</time></trkpt><trkpt lat="44.3612535" lon="7.7737111"><ele>508.0</ele><time>2026-05-03T08:03:30.317Z</time></trkpt><trkpt lat="44.3611284" lon="7.7736719"><ele>508.0</ele><time>2026-05-03T08:03:31.316Z</time></trkpt><trkpt lat="44.3610026" lon="7.7736248"><ele>508.0</ele><time>2026-05-03T08:03:32.318Z</time></trkpt><trkpt lat="44.3608751" lon="7.7735793"><ele>508.0</ele><time>2026-05-03T08:03:33.361Z</time></trkpt><trkpt lat="44.3607542" lon="7.7735344"><ele>508.0</ele><time>2026-05-03T08:03:34.321Z</time></trkpt><trkpt lat="44.3606513" lon="7.7735016"><ele>507.99999999999994</ele><time>2026-05-03T08:03:35.312Z</time></trkpt><trkpt lat="44.360551" lon="7.7734679"><ele>507.99999999999994</ele><time>2026-05-03T08:03:36.312Z</time></trkpt><trkpt lat="44.3604515" lon="7.7734363"><ele>508.0</ele><time>2026-05-03T08:03:37.319Z</time></trkpt><trkpt lat="44.3603498" lon="7.7734091"><ele>508.0</ele><time>2026-05-03T08:03:38.312Z</time></trkpt><trkpt lat="44.3602545" lon="7.7733585"><ele>508.4</ele><time>2026-05-03T08:03:39.31Z</time></trkpt><trkpt lat="44.360163" lon="7.7733049"><ele>508.79999999999995</ele><time>2026-05-03T08:03:40.316Z</time></trkpt><trkpt lat="44.3600825" lon="7.7732462"><ele>509.2</ele><time>2026-05-03T08:03:41.321Z</time></trkpt><trkpt lat="44.3600098" lon="7.7731989"><ele>509.6</ele><time>2026-05-03T08:03:42.316Z</time></trkpt><trkpt lat="44.3599166" lon="7.7731478"><ele>510.0</ele><time>2026-05-03T08:03:44.312Z</time></trkpt><trkpt lat="44.3598388" lon="7.773112"><ele>510.0</ele><time>2026-05-03T08:04:16.322Z</time></trkpt><trkpt lat="44.3597301" lon="7.7730548"><ele>510.0</ele><time>2026-05-03T08:04:18.376Z</time></trkpt><trkpt lat="44.3596637" lon="7.7730068"><ele>510.0</ele><time>2026-05-03T08:04:19.359Z</time></trkpt><trkpt lat="44.3595946" lon="7.7729521"><ele>510.0</ele><time>2026-05-03T08:04:20.315Z</time></trkpt><trkpt lat="44.3595177" lon="7.7728969"><ele>510.0</ele><time>2026-05-03T08:04:21.321Z</time></trkpt><trkpt lat="44.3594311" lon="7.7728374"><ele>510.0</ele><time>2026-05-03T08:04:22.313Z</time></trkpt><trkpt lat="44.3593406" lon="7.7727708"><ele>510.0</ele><time>2026-05-03T08:04:23.309Z</time></trkpt><trkpt lat="44.3592436" lon="7.7727023"><ele>510.0</ele><time>2026-05-03T08:04:24.315Z</time></trkpt><trkpt lat="44.3591462" lon="7.7726321"><ele>510.0</ele><time>2026-05-03T08:04:25.31Z</time></trkpt><trkpt lat="44.3590495" lon="7.772564"><ele>510.0</ele><time>2026-05-03T08:04:26.314Z</time></trkpt><trkpt lat="44.3589561" lon="7.7724985"><ele>510.0</ele><time>2026-05-03T08:04:27.316Z</time></trkpt><trkpt lat="44.3588668" lon="7.7724367"><ele>510.0</ele><time>2026-05-03T08:04:28.312Z</time></trkpt><trkpt lat="44.3587734" lon="7.7723753"><ele>510.0</ele><time>2026-05-03T08:04:29.319Z</time></trkpt><trkpt lat="44.3586728" lon="7.7723228"><ele>510.0</ele><time>2026-05-03T08:04:30.31Z</time></trkpt><trkpt lat="44.358564" lon="7.7722862"><ele>510.0</ele><time>2026-05-03T08:04:31.311Z</time></trkpt><trkpt lat="44.3584468" lon="7.77226"><ele>510.0</ele><time>2026-05-03T08:04:32.311Z</time></trkpt><trkpt lat="44.3583232" lon="7.7722272"><ele>510.0</ele><time>2026-05-03T08:04:33.317Z</time></trkpt><trkpt lat="44.3581974" lon="7.7721852"><ele>510.0</ele><time>2026-05-03T08:04:34.31Z</time></trkpt><trkpt lat="44.3580643" lon="7.7721353"><ele>510.0</ele><time>2026-05-03T08:04:35.308Z</time></trkpt><trkpt lat="44.3579243" lon="7.772078"><ele>509.66666666666663</ele><time>2026-05-03T08:04:36.314Z</time></trkpt><trkpt lat="44.3577799" lon="7.7720164"><ele>509.3333333333333</ele><time>2026-05-03T08:04:37.319Z</time></trkpt><trkpt lat="44.3576312" lon="7.7719574"><ele>509.0</ele><time>2026-05-03T08:04:38.33Z</time></trkpt><trkpt lat="44.3574773" lon="7.7719062"><ele>509.0</ele><time>2026-05-03T08:04:39.314Z</time></trkpt><trkpt lat="44.3573236" lon="7.771865"><ele>509.0</ele><time>2026-05-03T08:04:40.314Z</time></trkpt><trkpt lat="44.3571701" lon="7.7718265"><ele>509.0</ele><time>2026-05-03T08:04:41.336Z</time></trkpt><trkpt lat="44.357018" lon="7.7717866"><ele>509.66666666666663</ele><time>2026-05-03T08:04:42.324Z</time></trkpt><trkpt lat="44.3568648" lon="7.7717508"><ele>510.33333333333337</ele><time>2026-05-03T08:04:43.329Z</time></trkpt><trkpt lat="44.3567102" lon="7.7717222"><ele>511.0</ele><time>2026-05-03T08:04:44.366Z</time></trkpt><trkpt lat="44.3565571" lon="7.7716987"><ele>512.0</ele><time>2026-05-03T08:04:45.432Z</time></trkpt><trkpt lat="44.3562639" lon="7.7716793"><ele>513.0</ele><time>2026-05-03T08:04:47.314Z</time></trkpt><trkpt lat="44.3561216" lon="7.7716785"><ele>514.0</ele><time>2026-05-03T08:04:48.316Z</time></trkpt><trkpt lat="44.3559791" lon="7.7716817"><ele>514.0</ele><time>2026-05-03T08:04:49.329Z</time></trkpt><trkpt lat="44.3558334" lon="7.7716808"><ele>514.0</ele><time>2026-05-03T08:04:50.31Z</time></trkpt><trkpt lat="44.3556862" lon="7.7716704"><ele>514.0</ele><time>2026-05-03T08:04:51.306Z</time></trkpt><trkpt lat="44.3555379" lon="7.7716466"><ele>514.0</ele><time>2026-05-03T08:04:52.326Z</time></trkpt><trkpt lat="44.355393" lon="7.7716076"><ele>514.0</ele><time>2026-05-03T08:04:53.318Z</time></trkpt><trkpt lat="44.355254" lon="7.7715538"><ele>514.0</ele><time>2026-05-03T08:04:54.316Z</time></trkpt><trkpt lat="44.3551251" lon="7.7714842"><ele>514.0</ele><time>2026-05-03T08:04:55.317Z</time></trkpt><trkpt lat="44.3550074" lon="7.7714061"><ele>514.0</ele><time>2026-05-03T08:04:56.31Z</time></trkpt><trkpt lat="44.3548947" lon="7.7713234"><ele>514.0</ele><time>2026-05-03T08:04:57.32Z</time></trkpt><trkpt lat="44.3547911" lon="7.7712464"><ele>514.0</ele><time>2026-05-03T08:04:58.314Z</time></trkpt><trkpt lat="44.3547002" lon="7.7711796"><ele>514.0</ele><time>2026-05-03T08:04:59.34Z</time></trkpt><trkpt lat="44.3546174" lon="7.7711207"><ele>514.0</ele><time>2026-05-03T08:05:00.319Z</time></trkpt><trkpt lat="44.3545351" lon="7.7710654"><ele>514.0</ele><time>2026-05-03T08:05:01.318Z</time></trkpt><trkpt lat="44.3544424" lon="7.7710125"><ele>514.75</ele><time>2026-05-03T08:05:02.318Z</time></trkpt><trkpt lat="44.3543384" lon="7.7709711"><ele>515.5</ele><time>2026-05-03T08:05:03.332Z</time></trkpt><trkpt lat="44.354221" lon="7.7709398"><ele>516.25</ele><time>2026-05-03T08:05:04.345Z</time></trkpt><trkpt lat="44.3540925" lon="7.7709141"><ele>517.0</ele><time>2026-05-03T08:05:05.32Z</time></trkpt><trkpt lat="44.353956" lon="7.7708852"><ele>516.0</ele><time>2026-05-03T08:05:06.354Z</time></trkpt><trkpt lat="44.3538133" lon="7.7708478"><ele>515.0</ele><time>2026-05-03T08:05:07.321Z</time></trkpt><trkpt lat="44.353673" lon="7.7708031"><ele>514.0</ele><time>2026-05-03T08:05:08.319Z</time></trkpt><trkpt lat="44.3535368" lon="7.7707434"><ele>513.0</ele><time>2026-05-03T08:05:09.318Z</time></trkpt><trkpt lat="44.3534002" lon="7.770666"><ele>513.0</ele><time>2026-05-03T08:05:10.327Z</time></trkpt><trkpt lat="44.3532633" lon="7.7705744"><ele>513.0</ele><time>2026-05-03T08:05:11.349Z</time></trkpt><trkpt lat="44.3531254" lon="7.7704721"><ele>513.0</ele><time>2026-05-03T08:05:12.34Z</time></trkpt><trkpt lat="44.3529877" lon="7.770363"><ele>513.3333333333334</ele><time>2026-05-03T08:05:13.317Z</time></trkpt><trkpt lat="44.3528534" lon="7.7702548"><ele>513.6666666666667</ele><time>2026-05-03T08:05:14.326Z</time></trkpt><trkpt lat="44.3527237" lon="7.7701505"><ele>514.0</ele><time>2026-05-03T08:05:15.44Z</time></trkpt><trkpt lat="44.3524716" lon="7.7699465"><ele>514.75</ele><time>2026-05-03T08:05:17.313Z</time></trkpt><trkpt lat="44.3523484" lon="7.7698452"><ele>515.5</ele><time>2026-05-03T08:05:18.333Z</time></trkpt><trkpt lat="44.3522253" lon="7.7697439"><ele>516.25</ele><time>2026-05-03T08:05:19.312Z</time></trkpt><trkpt lat="44.3521022" lon="7.7696433"><ele>517.0</ele><time>2026-05-03T08:05:20.325Z</time></trkpt><trkpt lat="44.3519792" lon="7.769542"><ele>517.0</ele><time>2026-05-03T08:05:21.329Z</time></trkpt><trkpt lat="44.3518568" lon="7.7694406"><ele>517.0</ele><time>2026-05-03T08:05:22.325Z</time></trkpt><trkpt lat="44.3517362" lon="7.7693413"><ele>517.0</ele><time>2026-05-03T08:05:23.315Z</time></trkpt><trkpt lat="44.3516209" lon="7.7692486"><ele>517.0</ele><time>2026-05-03T08:05:24.318Z</time></trkpt><trkpt lat="44.3515096" lon="7.7691611"><ele>517.75</ele><time>2026-05-03T08:05:25.315Z</time></trkpt><trkpt lat="44.3513971" lon="7.7690766"><ele>518.5</ele><time>2026-05-03T08:05:26.349Z</time></trkpt><trkpt lat="44.3512825" lon="7.7689982"><ele>519.25</ele><time>2026-05-03T08:05:27.314Z</time></trkpt><trkpt lat="44.351166" lon="7.7689253"><ele>520.0</ele><time>2026-05-03T08:05:28.318Z</time></trkpt><trkpt lat="44.3510497" lon="7.7688565"><ele>520.4</ele><time>2026-05-03T08:05:29.313Z</time></trkpt><trkpt lat="44.3509371" lon="7.7687932"><ele>520.8</ele><time>2026-05-03T08:05:30.313Z</time></trkpt><trkpt lat="44.3508367" lon="7.7687372"><ele>521.2</ele><time>2026-05-03T08:05:31.314Z</time></trkpt><trkpt lat="44.350743" lon="7.7686856"><ele>521.6</ele><time>2026-05-03T08:05:32.341Z</time></trkpt><trkpt lat="44.3506478" lon="7.768637"><ele>522.0</ele><time>2026-05-03T08:05:33.31Z</time></trkpt><trkpt lat="44.3505595" lon="7.76859"><ele>522.1666666666666</ele><time>2026-05-03T08:05:34.319Z</time></trkpt><trkpt lat="44.35048" lon="7.7685455"><ele>522.3333333333334</ele><time>2026-05-03T08:05:35.313Z</time></trkpt><trkpt lat="44.3504038" lon="7.7685036"><ele>522.5</ele><time>2026-05-03T08:05:36.32Z</time></trkpt><trkpt lat="44.3503299" lon="7.7684625"><ele>522.6666666666667</ele><time>2026-05-03T08:05:37.315Z</time></trkpt><trkpt lat="44.3502612" lon="7.7684243"><ele>522.8333333333334</ele><time>2026-05-03T08:05:38.313Z</time></trkpt><trkpt lat="44.3501542" lon="7.7683625"><ele>523.0</ele><time>2026-05-03T08:05:40.316Z</time></trkpt><trkpt lat="44.3500441" lon="7.7682995"><ele>523.6</ele><time>2026-05-03T08:05:42.31Z</time></trkpt><trkpt lat="44.3499515" lon="7.7682247"><ele>524.1999999999999</ele><time>2026-05-03T08:05:44.312Z</time></trkpt><trkpt lat="44.3498924" lon="7.7681096"><ele>524.8</ele><time>2026-05-03T08:05:46.314Z</time></trkpt><trkpt lat="44.3497993" lon="7.7680118"><ele>525.4</ele><time>2026-05-03T08:05:48.327Z</time></trkpt><trkpt lat="44.3497188" lon="7.7679914"><ele>526.0</ele><time>2026-05-03T08:05:49.316Z</time></trkpt><trkpt lat="44.3496248" lon="7.7679763"><ele>526.0</ele><time>2026-05-03T08:05:50.318Z</time></trkpt><trkpt lat="44.3495109" lon="7.7679501"><ele>526.0</ele><time>2026-05-03T08:05:51.318Z</time></trkpt><trkpt lat="44.3493855" lon="7.7679074"><ele>526.0</ele><time>2026-05-03T08:05:52.314Z</time></trkpt><trkpt lat="44.3492546" lon="7.7678433"><ele>526.0</ele><time>2026-05-03T08:05:53.321Z</time></trkpt><trkpt lat="44.3491286" lon="7.7677607"><ele>526.75</ele><time>2026-05-03T08:05:54.314Z</time></trkpt><trkpt lat="44.3490116" lon="7.7676646"><ele>527.5</ele><time>2026-05-03T08:05:55.315Z</time></trkpt><trkpt lat="44.3489034" lon="7.7675613"><ele>528.25</ele><time>2026-05-03T08:05:56.317Z</time></trkpt><trkpt lat="44.3488021" lon="7.7674539"><ele>529.0</ele><time>2026-05-03T08:05:57.322Z</time></trkpt><trkpt lat="44.3487089" lon="7.7673441"><ele>529.0</ele><time>2026-05-03T08:05:58.31Z</time></trkpt><trkpt lat="44.3486282" lon="7.7672345"><ele>529.0</ele><time>2026-05-03T08:05:59.323Z</time></trkpt><trkpt lat="44.3485608" lon="7.7671205"><ele>529.0</ele><time>2026-05-03T08:06:00.314Z</time></trkpt><trkpt lat="44.3485046" lon="7.7669904"><ele>529.0</ele><time>2026-05-03T08:06:01.313Z</time></trkpt><trkpt lat="44.3484613" lon="7.7668447"><ele>529.0</ele><time>2026-05-03T08:06:02.314Z</time></trkpt><trkpt lat="44.348429" lon="7.7666826"><ele>529.5</ele><time>2026-05-03T08:06:03.322Z</time></trkpt><trkpt lat="44.3484091" lon="7.76651"><ele>530.0</ele><time>2026-05-03T08:06:04.32Z</time></trkpt><trkpt lat="44.3484011" lon="7.7663444"><ele>530.5</ele><time>2026-05-03T08:06:05.313Z</time></trkpt><trkpt lat="44.3483989" lon="7.7661923"><ele>531.0</ele><time>2026-05-03T08:06:06.319Z</time></trkpt><trkpt lat="44.3484027" lon="7.7660411"><ele>531.5</ele><time>2026-05-03T08:06:07.316Z</time></trkpt><trkpt lat="44.3484236" lon="7.7658839"><ele>532.0</ele><time>2026-05-03T08:06:08.325Z</time></trkpt><trkpt lat="44.3484594" lon="7.765721"><ele>532.5</ele><time>2026-05-03T08:06:09.318Z</time></trkpt><trkpt lat="44.3484981" lon="7.7655424"><ele>533.0</ele><time>2026-05-03T08:06:10.325Z</time></trkpt><trkpt lat="44.3485353" lon="7.7653441"><ele>532.6666666666666</ele><time>2026-05-03T08:06:11.322Z</time></trkpt><trkpt lat="44.348571" lon="7.7651243"><ele>532.3333333333334</ele><time>2026-05-03T08:06:12.315Z</time></trkpt><trkpt lat="44.3486042" lon="7.7648955"><ele>532.0</ele><time>2026-05-03T08:06:13.319Z</time></trkpt><trkpt lat="44.3486374" lon="7.7646706"><ele>532.0</ele><time>2026-05-03T08:06:14.34Z</time></trkpt><trkpt lat="44.3486705" lon="7.7644547"><ele>532.0</ele><time>2026-05-03T08:06:15.315Z</time></trkpt><trkpt lat="44.3487028" lon="7.7642439"><ele>532.0</ele><time>2026-05-03T08:06:16.315Z</time></trkpt><trkpt lat="44.3487301" lon="7.7640366"><ele>532.5</ele><time>2026-05-03T08:06:17.32Z</time></trkpt><trkpt lat="44.3487492" lon="7.7638367"><ele>533.0</ele><time>2026-05-03T08:06:18.316Z</time></trkpt><trkpt lat="44.3487591" lon="7.7636399"><ele>533.5</ele><time>2026-05-03T08:06:19.317Z</time></trkpt><trkpt lat="44.3487576" lon="7.7634406"><ele>534.0</ele><time>2026-05-03T08:06:20.353Z</time></trkpt><trkpt lat="44.3487463" lon="7.7632452"><ele>534.5</ele><time>2026-05-03T08:06:21.323Z</time></trkpt><trkpt lat="44.3487261" lon="7.7630534"><ele>535.0</ele><time>2026-05-03T08:06:22.313Z</time></trkpt><trkpt lat="44.3486951" lon="7.7628642"><ele>535.5</ele><time>2026-05-03T08:06:23.313Z</time></trkpt><trkpt lat="44.3486518" lon="7.7626759"><ele>536.0</ele><time>2026-05-03T08:06:24.334Z</time></trkpt><trkpt lat="44.348595" lon="7.7624913"><ele>537.0</ele><time>2026-05-03T08:06:25.355Z</time></trkpt><trkpt lat="44.3485257" lon="7.7623121"><ele>538.0</ele><time>2026-05-03T08:06:26.314Z</time></trkpt><trkpt lat="44.3484459" lon="7.7621382"><ele>539.0</ele><time>2026-05-03T08:06:27.309Z</time></trkpt><trkpt lat="44.3483562" lon="7.7619711"><ele>540.0</ele><time>2026-05-03T08:06:28.326Z</time></trkpt><trkpt lat="44.3482558" lon="7.7618131"><ele>541.0</ele><time>2026-05-03T08:06:29.316Z</time></trkpt><trkpt lat="44.3481471" lon="7.7616682"><ele>542.0</ele><time>2026-05-03T08:06:30.309Z</time></trkpt><trkpt lat="44.3480308" lon="7.7615341"><ele>543.0</ele><time>2026-05-03T08:06:31.314Z</time></trkpt><trkpt lat="44.3479085" lon="7.7614063"><ele>543.0</ele><time>2026-05-03T08:06:32.34Z</time></trkpt><trkpt lat="44.3477829" lon="7.7612789"><ele>543.0</ele><time>2026-05-03T08:06:33.323Z</time></trkpt><trkpt lat="44.347656" lon="7.7611495"><ele>543.0</ele><time>2026-05-03T08:06:34.312Z</time></trkpt><trkpt lat="44.347527" lon="7.7610187"><ele>543.6666666666666</ele><time>2026-05-03T08:06:35.351Z</time></trkpt><trkpt lat="44.3473954" lon="7.7608862"><ele>544.3333333333333</ele><time>2026-05-03T08:06:36.322Z</time></trkpt><trkpt lat="44.3472585" lon="7.7607488"><ele>545.0</ele><time>2026-05-03T08:06:37.311Z</time></trkpt><trkpt lat="44.3471164" lon="7.7606061"><ele>545.0</ele><time>2026-05-03T08:06:38.327Z</time></trkpt><trkpt lat="44.3469695" lon="7.7604586"><ele>545.0</ele><time>2026-05-03T08:06:39.316Z</time></trkpt><trkpt lat="44.3468205" lon="7.760309"><ele>545.0</ele><time>2026-05-03T08:06:40.316Z</time></trkpt><trkpt lat="44.3466769" lon="7.7601589"><ele>545.0</ele><time>2026-05-03T08:06:41.327Z</time></trkpt><trkpt lat="44.3465462" lon="7.7600066"><ele>545.0</ele><time>2026-05-03T08:06:42.322Z</time></trkpt><trkpt lat="44.3464311" lon="7.7598439"><ele>545.0</ele><time>2026-05-03T08:06:43.316Z</time></trkpt><trkpt lat="44.34634" lon="7.759659"><ele>550.0</ele><time>2026-05-03T08:06:44.32Z</time></trkpt><trkpt lat="44.3462759" lon="7.7594492"><ele>555.0</ele><time>2026-05-03T08:06:45.326Z</time></trkpt><trkpt lat="44.3462384" lon="7.7592165"><ele>560.0</ele><time>2026-05-03T08:06:46.334Z</time></trkpt><trkpt lat="44.3462258" lon="7.7589666"><ele>561.3333333333333</ele><time>2026-05-03T08:06:47.321Z</time></trkpt><trkpt lat="44.3462317" lon="7.7587101"><ele>562.6666666666666</ele><time>2026-05-03T08:06:48.336Z</time></trkpt><trkpt lat="44.3462451" lon="7.7584521"><ele>564.0</ele><time>2026-05-03T08:06:49.324Z</time></trkpt><trkpt lat="44.3462578" lon="7.7581936"><ele>565.0</ele><time>2026-05-03T08:06:50.318Z</time></trkpt><trkpt lat="44.3462691" lon="7.7579353"><ele>566.0</ele><time>2026-05-03T08:06:51.32Z</time></trkpt><trkpt lat="44.3462806" lon="7.7576768"><ele>567.0</ele><time>2026-05-03T08:06:52.313Z</time></trkpt><trkpt lat="44.3462915" lon="7.7574176"><ele>568.6666666666666</ele><time>2026-05-03T08:06:53.326Z</time></trkpt><trkpt lat="44.3463013" lon="7.7571575"><ele>570.3333333333333</ele><time>2026-05-03T08:06:54.321Z</time></trkpt><trkpt lat="44.3463111" lon="7.7568985"><ele>572.0</ele><time>2026-05-03T08:06:55.312Z</time></trkpt><trkpt lat="44.3463229" lon="7.7566469"><ele>572.0</ele><time>2026-05-03T08:06:56.315Z</time></trkpt><trkpt lat="44.3463359" lon="7.7564105"><ele>572.0</ele><time>2026-05-03T08:06:57.323Z</time></trkpt><trkpt lat="44.3463487" lon="7.756191"><ele>572.0</ele><time>2026-05-03T08:06:58.321Z</time></trkpt><trkpt lat="44.346361" lon="7.7559826"><ele>572.5</ele><time>2026-05-03T08:06:59.332Z</time></trkpt><trkpt lat="44.3463745" lon="7.7557903"><ele>573.0</ele><time>2026-05-03T08:07:00.327Z</time></trkpt><trkpt lat="44.3463883" lon="7.7556082"><ele>573.5</ele><time>2026-05-03T08:07:01.31Z</time></trkpt><trkpt lat="44.3464009" lon="7.7554303"><ele>574.0</ele><time>2026-05-03T08:07:02.322Z</time></trkpt><trkpt lat="44.3464139" lon="7.7552481"><ele>571.25</ele><time>2026-05-03T08:07:03.314Z</time></trkpt><trkpt lat="44.3464272" lon="7.7550603"><ele>568.5</ele><time>2026-05-03T08:07:04.36Z</time></trkpt><trkpt lat="44.3464415" lon="7.754867"><ele>565.75</ele><time>2026-05-03T08:07:05.334Z</time></trkpt><trkpt lat="44.3464564" lon="7.7546718"><ele>563.0</ele><time>2026-05-03T08:07:06.32Z</time></trkpt><trkpt lat="44.3464702" lon="7.7544928"><ele>563.3333333333333</ele><time>2026-05-03T08:07:07.316Z</time></trkpt><trkpt lat="44.3464828" lon="7.7543367"><ele>563.6666666666666</ele><time>2026-05-03T08:07:08.319Z</time></trkpt><trkpt lat="44.3464951" lon="7.7541968"><ele>564.0</ele><time>2026-05-03T08:07:09.312Z</time></trkpt><trkpt lat="44.3465057" lon="7.7540757"><ele>564.3333333333334</ele><time>2026-05-03T08:07:10.311Z</time></trkpt><trkpt lat="44.3465136" lon="7.7539755"><ele>564.6666666666667</ele><time>2026-05-03T08:07:11.316Z</time></trkpt><trkpt lat="44.3465191" lon="7.7538853"><ele>565.0</ele><time>2026-05-03T08:07:12.31Z</time></trkpt><trkpt lat="44.346505" lon="7.7537266"><ele>565.0</ele><time>2026-05-03T08:07:14.315Z</time></trkpt><trkpt lat="44.3464153" lon="7.7536523"><ele>565.0</ele><time>2026-05-03T08:07:16.317Z</time></trkpt><trkpt lat="44.3463461" lon="7.7536604"><ele>565.0</ele><time>2026-05-03T08:07:17.355Z</time></trkpt><trkpt lat="44.3462576" lon="7.7536477"><ele>565.0</ele><time>2026-05-03T08:07:18.321Z</time></trkpt><trkpt lat="44.3461358" lon="7.7536382"><ele>565.0</ele><time>2026-05-03T08:07:19.334Z</time></trkpt><trkpt lat="44.3460253" lon="7.7536196"><ele>567.5</ele><time>2026-05-03T08:07:20.331Z</time></trkpt><trkpt lat="44.3459093" lon="7.7536053"><ele>570.0</ele><time>2026-05-03T08:07:21.318Z</time></trkpt><trkpt lat="44.3457858" lon="7.753596"><ele>572.5</ele><time>2026-05-03T08:07:22.324Z</time></trkpt><trkpt lat="44.3456571" lon="7.7535759"><ele>575.0</ele><time>2026-05-03T08:07:23.307Z</time></trkpt><trkpt lat="44.3455354" lon="7.7535475"><ele>575.75</ele><time>2026-05-03T08:07:24.315Z</time></trkpt><trkpt lat="44.345429" lon="7.7535085"><ele>576.5</ele><time>2026-05-03T08:07:25.313Z</time></trkpt><trkpt lat="44.3453236" lon="7.7534533"><ele>577.25</ele><time>2026-05-03T08:07:26.335Z</time></trkpt><trkpt lat="44.3452052" lon="7.7534027"><ele>578.0</ele><time>2026-05-03T08:07:27.326Z</time></trkpt><trkpt lat="44.3450666" lon="7.7533605"><ele>578.0</ele><time>2026-05-03T08:07:28.31Z</time></trkpt><trkpt lat="44.3449117" lon="7.7533343"><ele>578.0</ele><time>2026-05-03T08:07:29.328Z</time></trkpt><trkpt lat="44.3447473" lon="7.7533181"><ele>578.0</ele><time>2026-05-03T08:07:30.322Z</time></trkpt><trkpt lat="44.344589" lon="7.7533088"><ele>579.25</ele><time>2026-05-03T08:07:31.318Z</time></trkpt><trkpt lat="44.3444456" lon="7.753312"><ele>580.5</ele><time>2026-05-03T08:07:32.321Z</time></trkpt><trkpt lat="44.3443102" lon="7.7533317"><ele>581.75</ele><time>2026-05-03T08:07:33.316Z</time></trkpt><trkpt lat="44.3441777" lon="7.753365"><ele>583.0</ele><time>2026-05-03T08:07:34.314Z</time></trkpt><trkpt lat="44.3440468" lon="7.7533926"><ele>583.0</ele><time>2026-05-03T08:07:35.329Z</time></trkpt><trkpt lat="44.3439162" lon="7.7534089"><ele>583.0</ele><time>2026-05-03T08:07:36.337Z</time></trkpt><trkpt lat="44.3437825" lon="7.7533833"><ele>583.0</ele><time>2026-05-03T08:07:37.329Z</time></trkpt><trkpt lat="44.3436492" lon="7.7533561"><ele>583.0</ele><time>2026-05-03T08:07:38.329Z</time></trkpt><trkpt lat="44.3435303" lon="7.7533367"><ele>584.0</ele><time>2026-05-03T08:07:39.316Z</time></trkpt><trkpt lat="44.3434223" lon="7.7533241"><ele>585.0</ele><time>2026-05-03T08:07:40.314Z</time></trkpt><trkpt lat="44.3433297" lon="7.7533026"><ele>586.0</ele><time>2026-05-03T08:07:41.313Z</time></trkpt><trkpt lat="44.3432501" lon="7.7532676"><ele>587.0</ele><time>2026-05-03T08:07:42.304Z</time></trkpt><trkpt lat="44.3431873" lon="7.7532354"><ele>588.0</ele><time>2026-05-03T08:07:43.309Z</time></trkpt><trkpt lat="44.3430868" lon="7.7532009"><ele>589.6666666666666</ele><time>2026-05-03T08:07:45.317Z</time></trkpt><trkpt lat="44.3430185" lon="7.7531453"><ele>591.3333333333334</ele><time>2026-05-03T08:07:47.314Z</time></trkpt><trkpt lat="44.3429406" lon="7.7530539"><ele>593.0</ele><time>2026-05-03T08:07:49.33Z</time></trkpt><trkpt lat="44.3428834" lon="7.7529975"><ele>594.6666666666667</ele><time>2026-05-03T08:07:50.319Z</time></trkpt><trkpt lat="44.342816" lon="7.7529337"><ele>596.3333333333334</ele><time>2026-05-03T08:07:51.313Z</time></trkpt><trkpt lat="44.3427411" lon="7.7528676"><ele>598.0</ele><time>2026-05-03T08:07:52.32Z</time></trkpt><trkpt lat="44.3426549" lon="7.7528008"><ele>598.0</ele><time>2026-05-03T08:07:53.322Z</time></trkpt><trkpt lat="44.342566" lon="7.7527275"><ele>598.0</ele><time>2026-05-03T08:07:54.316Z</time></trkpt><trkpt lat="44.3424794" lon="7.7526721"><ele>598.0</ele><time>2026-05-03T08:07:55.332Z</time></trkpt><trkpt lat="44.3423824" lon="7.7526197"><ele>598.0</ele><time>2026-05-03T08:07:56.339Z</time></trkpt><trkpt lat="44.3422889" lon="7.7525681"><ele>598.0</ele><time>2026-05-03T08:07:57.332Z</time></trkpt><trkpt lat="44.3422074" lon="7.7525318"><ele>599.1999999999999</ele><time>2026-05-03T08:07:58.325Z</time></trkpt><trkpt lat="44.3421139" lon="7.7524846"><ele>600.4</ele><time>2026-05-03T08:07:59.322Z</time></trkpt><trkpt lat="44.3420271" lon="7.752436"><ele>601.5999999999999</ele><time>2026-05-03T08:08:00.319Z</time></trkpt><trkpt lat="44.3419456" lon="7.7523871"><ele>602.8</ele><time>2026-05-03T08:08:01.315Z</time></trkpt><trkpt lat="44.3418686" lon="7.7523273"><ele>604.0</ele><time>2026-05-03T08:08:02.328Z</time></trkpt><trkpt lat="44.3417826" lon="7.7522664"><ele>604.0</ele><time>2026-05-03T08:08:03.328Z</time></trkpt><trkpt lat="44.3416942" lon="7.7522061"><ele>604.0</ele><time>2026-05-03T08:08:04.32Z</time></trkpt><trkpt lat="44.3416061" lon="7.7521342"><ele>604.0</ele><time>2026-05-03T08:08:05.325Z</time></trkpt><trkpt lat="44.3415304" lon="7.7520714"><ele>604.0</ele><time>2026-05-03T08:08:06.314Z</time></trkpt><trkpt lat="44.3414633" lon="7.7520326"><ele>604.0</ele><time>2026-05-03T08:08:07.313Z</time></trkpt><trkpt lat="44.3413708" lon="7.75199"><ele>606.5</ele><time>2026-05-03T08:08:08.331Z</time></trkpt><trkpt lat="44.3412962" lon="7.7519432"><ele>609.0</ele><time>2026-05-03T08:08:09.311Z</time></trkpt><trkpt lat="44.3412242" lon="7.7518872"><ele>611.5</ele><time>2026-05-03T08:08:10.308Z</time></trkpt><trkpt lat="44.3411661" lon="7.7518265"><ele>614.0</ele><time>2026-05-03T08:08:11.33Z</time></trkpt><trkpt lat="44.3411179" lon="7.7517445"><ele>616.5</ele><time>2026-05-03T08:08:12.325Z</time></trkpt><trkpt lat="44.3410677" lon="7.7515909"><ele>619.0</ele><time>2026-05-03T08:08:14.324Z</time></trkpt><trkpt lat="44.3410431" lon="7.7514964"><ele>619.1666666666667</ele><time>2026-05-03T08:08:15.317Z</time></trkpt><trkpt lat="44.3410232" lon="7.7513974"><ele>619.3333333333334</ele><time>2026-05-03T08:08:16.313Z</time></trkpt><trkpt lat="44.3409708" lon="7.7512616"><ele>619.5</ele><time>2026-05-03T08:08:18.312Z</time></trkpt><trkpt lat="44.3410036" lon="7.7511653"><ele>619.6666666666666</ele><time>2026-05-03T08:08:55.317Z</time></trkpt><trkpt lat="44.3410498" lon="7.7510837"><ele>619.8333333333333</ele><time>2026-05-03T08:08:57.349Z</time></trkpt><trkpt lat="44.3411346" lon="7.7509957"><ele>620.0</ele><time>2026-05-03T08:08:59.311Z</time></trkpt><trkpt lat="44.341259" lon="7.750962"><ele>620.0</ele><time>2026-05-03T08:09:01.315Z</time></trkpt><trkpt lat="44.3413385" lon="7.7509603"><ele>620.0</ele><time>2026-05-03T08:09:02.311Z</time></trkpt><trkpt lat="44.3414204" lon="7.7509732"><ele>620.0</ele><time>2026-05-03T08:09:03.306Z</time></trkpt><trkpt lat="44.3414999" lon="7.7509963"><ele>620.0</ele><time>2026-05-03T08:09:04.348Z</time></trkpt><trkpt lat="44.341578" lon="7.7510223"><ele>620.0</ele><time>2026-05-03T08:09:05.312Z</time></trkpt><trkpt lat="44.3416599" lon="7.751037"><ele>620.0</ele><time>2026-05-03T08:09:06.311Z</time></trkpt><trkpt lat="44.3417248" lon="7.7510379"><ele>620.0</ele><time>2026-05-03T08:09:07.333Z</time></trkpt><trkpt lat="44.341803" lon="7.7510082"><ele>620.0</ele><time>2026-05-03T08:09:08.321Z</time></trkpt><trkpt lat="44.3418747" lon="7.750984"><ele>620.0</ele><time>2026-05-03T08:09:09.31Z</time></trkpt><trkpt lat="44.3419437" lon="7.7509483"><ele>620.0</ele><time>2026-05-03T08:09:10.345Z</time></trkpt><trkpt lat="44.3420079" lon="7.7509171"><ele>620.0</ele><time>2026-05-03T08:09:11.337Z</time></trkpt><trkpt lat="44.3420794" lon="7.7508857"><ele>620.0</ele><time>2026-05-03T08:09:12.32Z</time></trkpt><trkpt lat="44.3421706" lon="7.7508536"><ele>620.6</ele><time>2026-05-03T08:09:13.32Z</time></trkpt><trkpt lat="44.3422468" lon="7.7508046"><ele>621.2</ele><time>2026-05-03T08:09:14.312Z</time></trkpt><trkpt lat="44.3423175" lon="7.7507618"><ele>621.8</ele><time>2026-05-03T08:09:15.312Z</time></trkpt><trkpt lat="44.3424177" lon="7.7507017"><ele>622.4</ele><time>2026-05-03T08:09:17.334Z</time></trkpt><trkpt lat="44.3425086" lon="7.7505803"><ele>623.0</ele><time>2026-05-03T08:09:19.325Z</time></trkpt><trkpt lat="44.3425777" lon="7.7504361"><ele>623.0</ele><time>2026-05-03T08:09:21.33Z</time></trkpt><trkpt lat="44.3426019" lon="7.7503497"><ele>623.0</ele><time>2026-05-03T08:09:22.31Z</time></trkpt><trkpt lat="44.3426257" lon="7.7502619"><ele>623.0</ele><time>2026-05-03T08:09:23.33Z</time></trkpt><trkpt lat="44.3426472" lon="7.7501687"><ele>623.0</ele><time>2026-05-03T08:09:24.311Z</time></trkpt><trkpt lat="44.3426706" lon="7.7500646"><ele>623.0</ele><time>2026-05-03T08:09:25.312Z</time></trkpt><trkpt lat="44.34268" lon="7.7499495"><ele>623.0</ele><time>2026-05-03T08:09:26.321Z</time></trkpt><trkpt lat="44.3426834" lon="7.7498298"><ele>623.1666666666666</ele><time>2026-05-03T08:09:27.319Z</time></trkpt><trkpt lat="44.3426771" lon="7.7497082"><ele>623.3333333333333</ele><time>2026-05-03T08:09:28.317Z</time></trkpt><trkpt lat="44.3426639" lon="7.7495874"><ele>623.5</ele><time>2026-05-03T08:09:29.309Z</time></trkpt><trkpt lat="44.3426529" lon="7.7494707"><ele>623.6666666666666</ele><time>2026-05-03T08:09:30.34Z</time></trkpt><trkpt lat="44.3426405" lon="7.7493618"><ele>623.8333333333334</ele><time>2026-05-03T08:09:31.337Z</time></trkpt><trkpt lat="44.3426226" lon="7.7492576"><ele>624.0</ele><time>2026-05-03T08:09:32.327Z</time></trkpt><trkpt lat="44.3426009" lon="7.7491516"><ele>624.0</ele><time>2026-05-03T08:09:33.337Z</time></trkpt><trkpt lat="44.3425687" lon="7.7490375"><ele>624.0</ele><time>2026-05-03T08:09:34.337Z</time></trkpt><trkpt lat="44.3425303" lon="7.7489194"><ele>624.0</ele><time>2026-05-03T08:09:35.321Z</time></trkpt><trkpt lat="44.3424917" lon="7.7488142"><ele>624.0</ele><time>2026-05-03T08:09:36.319Z</time></trkpt><trkpt lat="44.3424486" lon="7.7487115"><ele>624.0</ele><time>2026-05-03T08:09:37.327Z</time></trkpt><trkpt lat="44.3424039" lon="7.7486078"><ele>624.0</ele><time>2026-05-03T08:09:38.327Z</time></trkpt><trkpt lat="44.3423585" lon="7.7485147"><ele>622.6666666666666</ele><time>2026-05-03T08:09:39.316Z</time></trkpt><trkpt lat="44.342308" lon="7.7484278"><ele>621.3333333333334</ele><time>2026-05-03T08:09:40.328Z</time></trkpt><trkpt lat="44.3422484" lon="7.7483424"><ele>620.0</ele><time>2026-05-03T08:09:41.329Z</time></trkpt><trkpt lat="44.3421897" lon="7.7482589"><ele>618.6666666666667</ele><time>2026-05-03T08:09:42.317Z</time></trkpt><trkpt lat="44.3421338" lon="7.7481733"><ele>617.3333333333334</ele><time>2026-05-03T08:09:43.318Z</time></trkpt><trkpt lat="44.3420757" lon="7.748081"><ele>616.0</ele><time>2026-05-03T08:09:44.315Z</time></trkpt><trkpt lat="44.3420278" lon="7.7479913"><ele>617.5714285714286</ele><time>2026-05-03T08:09:45.316Z</time></trkpt><trkpt lat="44.3419913" lon="7.7479027"><ele>619.1428571428571</ele><time>2026-05-03T08:09:46.313Z</time></trkpt><trkpt lat="44.3419565" lon="7.7478175"><ele>620.7142857142858</ele><time>2026-05-03T08:09:47.325Z</time></trkpt><trkpt lat="44.341957" lon="7.7477092"><ele>622.2857142857142</ele><time>2026-05-03T08:09:48.318Z</time></trkpt><trkpt lat="44.3419601" lon="7.7476113"><ele>623.8571428571429</ele><time>2026-05-03T08:09:49.322Z</time></trkpt><trkpt lat="44.3419976" lon="7.7475266"><ele>625.4285714285714</ele><time>2026-05-03T08:09:50.32Z</time></trkpt><trkpt lat="44.3420591" lon="7.7474454"><ele>627.0</ele><time>2026-05-03T08:09:51.336Z</time></trkpt><trkpt lat="44.3421245" lon="7.7473528"><ele>627.0</ele><time>2026-05-03T08:09:52.319Z</time></trkpt><trkpt lat="44.3421821" lon="7.7472505"><ele>627.0</ele><time>2026-05-03T08:09:53.316Z</time></trkpt><trkpt lat="44.3422364" lon="7.7471399"><ele>627.0</ele><time>2026-05-03T08:09:54.322Z</time></trkpt><trkpt lat="44.3422819" lon="7.7470509"><ele>627.0</ele><time>2026-05-03T08:09:55.34Z</time></trkpt><trkpt lat="44.3423325" lon="7.7469567"><ele>627.0</ele><time>2026-05-03T08:09:56.331Z</time></trkpt><trkpt lat="44.3423923" lon="7.7468686"><ele>627.0</ele><time>2026-05-03T08:09:57.337Z</time></trkpt><trkpt lat="44.3424536" lon="7.7467785"><ele>624.2</ele><time>2026-05-03T08:09:58.335Z</time></trkpt><trkpt lat="44.3425241" lon="7.7466847"><ele>621.4000000000001</ele><time>2026-05-03T08:09:59.325Z</time></trkpt><trkpt lat="44.3425783" lon="7.746591"><ele>618.5999999999999</ele><time>2026-05-03T08:10:00.319Z</time></trkpt><trkpt lat="44.3426322" lon="7.7464916"><ele>615.8</ele><time>2026-05-03T08:10:01.343Z</time></trkpt><trkpt lat="44.3426749" lon="7.7463673"><ele>613.0</ele><time>2026-05-03T08:10:02.345Z</time></trkpt><trkpt lat="44.342723" lon="7.7462376"><ele>613.0</ele><time>2026-05-03T08:10:03.325Z</time></trkpt><trkpt lat="44.3427744" lon="7.7461094"><ele>613.0</ele><time>2026-05-03T08:10:04.324Z</time></trkpt><trkpt lat="44.3428305" lon="7.7459867"><ele>613.0</ele><time>2026-05-03T08:10:05.34Z</time></trkpt><trkpt lat="44.342886" lon="7.7458681"><ele>613.0</ele><time>2026-05-03T08:10:06.32Z</time></trkpt><trkpt lat="44.3429364" lon="7.7457681"><ele>613.0</ele><time>2026-05-03T08:10:07.315Z</time></trkpt><trkpt lat="44.342985" lon="7.745682"><ele>613.8333333333334</ele><time>2026-05-03T08:10:08.324Z</time></trkpt><trkpt lat="44.3430325" lon="7.7456037"><ele>614.6666666666667</ele><time>2026-05-03T08:10:09.326Z</time></trkpt><trkpt lat="44.3430759" lon="7.7455322"><ele>615.5</ele><time>2026-05-03T08:10:10.323Z</time></trkpt><trkpt lat="44.3431299" lon="7.7453708"><ele>616.3333333333334</ele><time>2026-05-03T08:10:12.344Z</time></trkpt><trkpt lat="44.3431469" lon="7.745261"><ele>617.1666666666666</ele><time>2026-05-03T08:10:13.323Z</time></trkpt><trkpt lat="44.3431532" lon="7.7451661"><ele>618.0</ele><time>2026-05-03T08:10:14.319Z</time></trkpt><trkpt lat="44.34315" lon="7.7450781"><ele>618.3333333333334</ele><time>2026-05-03T08:10:15.337Z</time></trkpt><trkpt lat="44.3431332" lon="7.7449852"><ele>618.6666666666666</ele><time>2026-05-03T08:10:16.321Z</time></trkpt><trkpt lat="44.3431074" lon="7.7448763"><ele>619.0</ele><time>2026-05-03T08:10:17.321Z</time></trkpt><trkpt lat="44.3430754" lon="7.7447544"><ele>619.3333333333333</ele><time>2026-05-03T08:10:18.348Z</time></trkpt><trkpt lat="44.3430459" lon="7.7446271"><ele>619.6666666666666</ele><time>2026-05-03T08:10:19.334Z</time></trkpt><trkpt lat="44.3430224" lon="7.7445035"><ele>620.0</ele><time>2026-05-03T08:10:20.317Z</time></trkpt><trkpt lat="44.343008" lon="7.7443816"><ele>620.6</ele><time>2026-05-03T08:10:21.318Z</time></trkpt><trkpt lat="44.343001" lon="7.7442642"><ele>621.2</ele><time>2026-05-03T08:10:22.318Z</time></trkpt><trkpt lat="44.3429946" lon="7.7441524"><ele>621.8</ele><time>2026-05-03T08:10:23.339Z</time></trkpt><trkpt lat="44.343005" lon="7.7440345"><ele>622.4</ele><time>2026-05-03T08:10:24.314Z</time></trkpt><trkpt lat="44.343019" lon="7.7438926"><ele>623.0</ele><time>2026-05-03T08:10:25.325Z</time></trkpt><trkpt lat="44.3430308" lon="7.743737"><ele>623.0</ele><time>2026-05-03T08:10:26.318Z</time></trkpt><trkpt lat="44.3430267" lon="7.7435574"><ele>623.0</ele><time>2026-05-03T08:10:27.334Z</time></trkpt><trkpt lat="44.3430267" lon="7.7433916"><ele>623.0</ele><time>2026-05-03T08:10:28.339Z</time></trkpt><trkpt lat="44.343017" lon="7.7432258"><ele>623.0</ele><time>2026-05-03T08:10:29.336Z</time></trkpt><trkpt lat="44.3430063" lon="7.7430678"><ele>622.8333333333333</ele><time>2026-05-03T08:10:30.329Z</time></trkpt><trkpt lat="44.3429956" lon="7.7429226"><ele>622.6666666666666</ele><time>2026-05-03T08:10:31.329Z</time></trkpt><trkpt lat="44.3429805" lon="7.7427856"><ele>622.5</ele><time>2026-05-03T08:10:32.315Z</time></trkpt><trkpt lat="44.3429606" lon="7.7426663"><ele>622.3333333333334</ele><time>2026-05-03T08:10:33.322Z</time></trkpt><trkpt lat="44.342941" lon="7.7425645"><ele>622.1666666666667</ele><time>2026-05-03T08:10:34.31Z</time></trkpt><trkpt lat="44.3429225" lon="7.7424759"><ele>622.0</ele><time>2026-05-03T08:10:35.312Z</time></trkpt><trkpt lat="44.3428823" lon="7.7423408"><ele>620.1666666666667</ele><time>2026-05-03T08:10:37.318Z</time></trkpt><trkpt lat="44.3428398" lon="7.7422291"><ele>618.3333333333334</ele><time>2026-05-03T08:10:39.313Z</time></trkpt><trkpt lat="44.3427988" lon="7.7421548"><ele>616.5</ele><time>2026-05-03T08:10:40.31Z</time></trkpt><trkpt lat="44.3427355" lon="7.7420901"><ele>614.6666666666666</ele><time>2026-05-03T08:10:41.314Z</time></trkpt><trkpt lat="44.3426613" lon="7.7420409"><ele>612.8333333333333</ele><time>2026-05-03T08:10:42.321Z</time></trkpt><trkpt lat="44.3425821" lon="7.7419958"><ele>611.0</ele><time>2026-05-03T08:10:43.321Z</time></trkpt><trkpt lat="44.3425141" lon="7.7419554"><ele>611.0</ele><time>2026-05-03T08:10:44.313Z</time></trkpt><trkpt lat="44.3424325" lon="7.7419156"><ele>611.0</ele><time>2026-05-03T08:10:46.315Z</time></trkpt><trkpt lat="44.3423711" lon="7.7418597"><ele>611.0</ele><time>2026-05-03T08:10:58.315Z</time></trkpt><trkpt lat="44.3424412" lon="7.7417171"><ele>611.0</ele><time>2026-05-03T08:11:02.346Z</time></trkpt><trkpt lat="44.342537" lon="7.7416682"><ele>611.0</ele><time>2026-05-03T08:11:03.325Z</time></trkpt><trkpt lat="44.3426361" lon="7.7416157"><ele>608.0</ele><time>2026-05-03T08:11:04.313Z</time></trkpt><trkpt lat="44.3427508" lon="7.7415651"><ele>605.0</ele><time>2026-05-03T08:11:05.312Z</time></trkpt><trkpt lat="44.3428576" lon="7.741521"><ele>602.0</ele><time>2026-05-03T08:11:06.308Z</time></trkpt><trkpt lat="44.3429568" lon="7.7414872"><ele>599.0</ele><time>2026-05-03T08:11:07.306Z</time></trkpt><trkpt lat="44.3430448" lon="7.7414713"><ele>596.0</ele><time>2026-05-03T08:11:08.307Z</time></trkpt><trkpt lat="44.3431228" lon="7.7414685"><ele>595.0</ele><time>2026-05-03T08:11:09.309Z</time></trkpt><trkpt lat="44.3431927" lon="7.7414741"><ele>594.0</ele><time>2026-05-03T08:11:10.333Z</time></trkpt><trkpt lat="44.3432969" lon="7.7414995"><ele>593.0</ele><time>2026-05-03T08:11:12.307Z</time></trkpt><trkpt lat="44.3433724" lon="7.7415406"><ele>592.0</ele><time>2026-05-03T08:11:14.318Z</time></trkpt><trkpt lat="44.3434642" lon="7.7416704"><ele>591.0</ele><time>2026-05-03T08:11:16.315Z</time></trkpt><trkpt lat="44.343519" lon="7.7417634"><ele>591.0</ele><time>2026-05-03T08:11:17.318Z</time></trkpt><trkpt lat="44.3435713" lon="7.741849"><ele>591.0</ele><time>2026-05-03T08:11:18.312Z</time></trkpt><trkpt lat="44.3436519" lon="7.7419397"><ele>591.0</ele><time>2026-05-03T08:11:20.312Z</time></trkpt><trkpt lat="44.3437155" lon="7.741938"><ele>591.0</ele><time>2026-05-03T08:11:22.313Z</time></trkpt><trkpt lat="44.3437645" lon="7.7418553"><ele>591.0</ele><time>2026-05-03T08:11:24.313Z</time></trkpt><trkpt lat="44.3437629" lon="7.7416672"><ele>591.0</ele><time>2026-05-03T08:11:26.319Z</time></trkpt><trkpt lat="44.3437399" lon="7.7415461"><ele>591.0</ele><time>2026-05-03T08:11:27.322Z</time></trkpt><trkpt lat="44.3437093" lon="7.7414153"><ele>591.0</ele><time>2026-05-03T08:11:28.32Z</time></trkpt><trkpt lat="44.3436867" lon="7.7413027"><ele>591.0</ele><time>2026-05-03T08:11:29.314Z</time></trkpt><trkpt lat="44.3436676" lon="7.7412089"><ele>591.0</ele><time>2026-05-03T08:11:30.314Z</time></trkpt><trkpt lat="44.343681" lon="7.7410945"><ele>591.0</ele><time>2026-05-03T08:11:32.314Z</time></trkpt><trkpt lat="44.3437749" lon="7.7410087"><ele>590.5</ele><time>2026-05-03T08:11:34.312Z</time></trkpt><trkpt lat="44.3438365" lon="7.7409601"><ele>590.0</ele><time>2026-05-03T08:11:35.317Z</time></trkpt><trkpt lat="44.3439144" lon="7.7408996"><ele>589.5</ele><time>2026-05-03T08:11:36.311Z</time></trkpt><trkpt lat="44.3439921" lon="7.7408308"><ele>589.0</ele><time>2026-05-03T08:11:37.319Z</time></trkpt><trkpt lat="44.3440794" lon="7.7407566"><ele>588.5</ele><time>2026-05-03T08:11:38.309Z</time></trkpt><trkpt lat="44.3441578" lon="7.7407005"><ele>588.0</ele><time>2026-05-03T08:11:39.313Z</time></trkpt><trkpt lat="44.3442225" lon="7.7406592"><ele>588.0</ele><time>2026-05-03T08:11:40.312Z</time></trkpt><trkpt lat="44.3443337" lon="7.7406104"><ele>588.0</ele><time>2026-05-03T08:11:42.306Z</time></trkpt><trkpt lat="44.3444221" lon="7.7406506"><ele>588.0</ele><time>2026-05-03T08:11:43.317Z</time></trkpt><trkpt lat="44.3445147" lon="7.7407129"><ele>588.0</ele><time>2026-05-03T08:11:44.306Z</time></trkpt><trkpt lat="44.3446073" lon="7.7408003"><ele>588.0</ele><time>2026-05-03T08:11:45.31Z</time></trkpt><trkpt lat="44.344705" lon="7.7408993"><ele>588.4</ele><time>2026-05-03T08:11:46.312Z</time></trkpt><trkpt lat="44.344797" lon="7.7410159"><ele>588.8</ele><time>2026-05-03T08:11:47.318Z</time></trkpt><trkpt lat="44.3448825" lon="7.7411363"><ele>589.2</ele><time>2026-05-03T08:11:48.312Z</time></trkpt><trkpt lat="44.3449603" lon="7.741236"><ele>589.6</ele><time>2026-05-03T08:11:49.316Z</time></trkpt><trkpt lat="44.3450406" lon="7.7413082"><ele>590.0</ele><time>2026-05-03T08:11:50.31Z</time></trkpt><trkpt lat="44.3451193" lon="7.7413584"><ele>590.4</ele><time>2026-05-03T08:11:51.318Z</time></trkpt><trkpt lat="44.3451853" lon="7.7414072"><ele>590.8</ele><time>2026-05-03T08:11:52.314Z</time></trkpt><trkpt lat="44.3452473" lon="7.7414485"><ele>591.2</ele><time>2026-05-03T08:11:53.307Z</time></trkpt><trkpt lat="44.3453431" lon="7.741462"><ele>591.6</ele><time>2026-05-03T08:11:55.313Z</time></trkpt><trkpt lat="44.3454438" lon="7.7414088"><ele>592.0</ele><time>2026-05-03T08:11:57.332Z</time></trkpt><trkpt lat="44.345541" lon="7.7413265"><ele>593.8000000000001</ele><time>2026-05-03T08:11:59.317Z</time></trkpt><trkpt lat="44.3456239" lon="7.7413332"><ele>595.6</ele><time>2026-05-03T08:12:01.321Z</time></trkpt><trkpt lat="44.3457115" lon="7.7414597"><ele>597.4000000000001</ele><time>2026-05-03T08:12:03.329Z</time></trkpt><trkpt lat="44.3457685" lon="7.741543"><ele>599.2</ele><time>2026-05-03T08:12:04.322Z</time></trkpt><trkpt lat="44.3458235" lon="7.7416236"><ele>601.0</ele><time>2026-05-03T08:12:05.314Z</time></trkpt><trkpt lat="44.3458779" lon="7.7417057"><ele>601.0</ele><time>2026-05-03T08:12:06.329Z</time></trkpt><trkpt lat="44.3459363" lon="7.7417902"><ele>601.0</ele><time>2026-05-03T08:12:07.316Z</time></trkpt><trkpt lat="44.3459962" lon="7.7418772"><ele>601.0</ele><time>2026-05-03T08:12:08.311Z</time></trkpt><trkpt lat="44.3460537" lon="7.7419557"><ele>601.0</ele><time>2026-05-03T08:12:09.313Z</time></trkpt><trkpt lat="44.3461126" lon="7.7420351"><ele>601.0</ele><time>2026-05-03T08:12:10.321Z</time></trkpt><trkpt lat="44.3461804" lon="7.7421174"><ele>601.0</ele><time>2026-05-03T08:12:11.329Z</time></trkpt><trkpt lat="44.3462484" lon="7.7421943"><ele>601.2</ele><time>2026-05-03T08:12:12.314Z</time></trkpt><trkpt lat="44.3463231" lon="7.7422633"><ele>601.4000000000001</ele><time>2026-05-03T08:12:13.312Z</time></trkpt><trkpt lat="44.346403" lon="7.7423401"><ele>601.6</ele><time>2026-05-03T08:12:14.32Z</time></trkpt><trkpt lat="44.3464901" lon="7.7424163"><ele>601.8000000000001</ele><time>2026-05-03T08:12:15.372Z</time></trkpt><trkpt lat="44.3465788" lon="7.7424921"><ele>602.0</ele><time>2026-05-03T08:12:16.321Z</time></trkpt><trkpt lat="44.346657" lon="7.7425601"><ele>602.0</ele><time>2026-05-03T08:12:17.315Z</time></trkpt><trkpt lat="44.3467248" lon="7.7426192"><ele>602.0</ele><time>2026-05-03T08:12:18.31Z</time></trkpt><trkpt lat="44.346795" lon="7.7426659"><ele>602.0</ele><time>2026-05-03T08:12:19.309Z</time></trkpt><trkpt lat="44.3468675" lon="7.7427075"><ele>602.0</ele><time>2026-05-03T08:12:20.318Z</time></trkpt><trkpt lat="44.3469502" lon="7.7427634"><ele>602.0</ele><time>2026-05-03T08:12:21.328Z</time></trkpt><trkpt lat="44.3470419" lon="7.7428265"><ele>602.0</ele><time>2026-05-03T08:12:22.324Z</time></trkpt><trkpt lat="44.3471414" lon="7.7428877"><ele>601.25</ele><time>2026-05-03T08:12:23.321Z</time></trkpt><trkpt lat="44.3472418" lon="7.7429564"><ele>600.5</ele><time>2026-05-03T08:12:24.317Z</time></trkpt><trkpt lat="44.3473561" lon="7.7430112"><ele>599.75</ele><time>2026-05-03T08:12:25.327Z</time></trkpt><trkpt lat="44.3474812" lon="7.7430495"><ele>599.0</ele><time>2026-05-03T08:12:26.315Z</time></trkpt><trkpt lat="44.3476035" lon="7.7430867"><ele>599.0</ele><time>2026-05-03T08:12:27.326Z</time></trkpt><trkpt lat="44.3477165" lon="7.743116"><ele>599.0</ele><time>2026-05-03T08:12:28.324Z</time></trkpt><trkpt lat="44.3478305" lon="7.7431557"><ele>599.0</ele><time>2026-05-03T08:12:29.316Z</time></trkpt><trkpt lat="44.3479545" lon="7.7431936"><ele>599.0</ele><time>2026-05-03T08:12:30.32Z</time></trkpt><trkpt lat="44.3480835" lon="7.7432153"><ele>599.0</ele><time>2026-05-03T08:12:31.33Z</time></trkpt><trkpt lat="44.3482147" lon="7.743228"><ele>599.0</ele><time>2026-05-03T08:12:32.321Z</time></trkpt><trkpt lat="44.3483439" lon="7.7432337"><ele>599.0</ele><time>2026-05-03T08:12:33.315Z</time></trkpt><trkpt lat="44.3484599" lon="7.7432403"><ele>599.0</ele><time>2026-05-03T08:12:34.322Z</time></trkpt><trkpt lat="44.3485658" lon="7.7432452"><ele>599.0</ele><time>2026-05-03T08:12:35.317Z</time></trkpt><trkpt lat="44.3486523" lon="7.7432444"><ele>599.0</ele><time>2026-05-03T08:12:36.319Z</time></trkpt><trkpt lat="44.3487316" lon="7.7432288"><ele>599.0</ele><time>2026-05-03T08:12:37.315Z</time></trkpt><trkpt lat="44.3488084" lon="7.7431873"><ele>599.0</ele><time>2026-05-03T08:12:38.314Z</time></trkpt><trkpt lat="44.3488897" lon="7.7431203"><ele>599.0</ele><time>2026-05-03T08:12:39.331Z</time></trkpt><trkpt lat="44.3489785" lon="7.7430372"><ele>598.75</ele><time>2026-05-03T08:12:40.336Z</time></trkpt><trkpt lat="44.3490697" lon="7.7429524"><ele>598.5</ele><time>2026-05-03T08:12:41.315Z</time></trkpt><trkpt lat="44.3491784" lon="7.7428612"><ele>598.25</ele><time>2026-05-03T08:12:42.344Z</time></trkpt><trkpt lat="44.3492974" lon="7.7427605"><ele>598.0</ele><time>2026-05-03T08:12:43.321Z</time></trkpt><trkpt lat="44.3494159" lon="7.7426603"><ele>598.0</ele><time>2026-05-03T08:12:44.325Z</time></trkpt><trkpt lat="44.3495289" lon="7.7425596"><ele>598.0</ele><time>2026-05-03T08:12:45.32Z</time></trkpt><trkpt lat="44.3496412" lon="7.7424627"><ele>598.0</ele><time>2026-05-03T08:12:46.335Z</time></trkpt><trkpt lat="44.3497503" lon="7.7423722"><ele>598.0</ele><time>2026-05-03T08:12:47.323Z</time></trkpt><trkpt lat="44.3498482" lon="7.7422868"><ele>597.6</ele><time>2026-05-03T08:12:48.321Z</time></trkpt><trkpt lat="44.3499425" lon="7.7422107"><ele>597.1999999999999</ele><time>2026-05-03T08:12:49.319Z</time></trkpt><trkpt lat="44.350026" lon="7.7421263"><ele>596.8</ele><time>2026-05-03T08:12:50.323Z</time></trkpt><trkpt lat="44.3501055" lon="7.7420331"><ele>596.4</ele><time>2026-05-03T08:12:51.333Z</time></trkpt><trkpt lat="44.3501854" lon="7.7419352"><ele>596.0</ele><time>2026-05-03T08:12:52.311Z</time></trkpt><trkpt lat="44.3502645" lon="7.7418451"><ele>595.5</ele><time>2026-05-03T08:12:53.322Z</time></trkpt><trkpt lat="44.3503409" lon="7.7417695"><ele>595.0</ele><time>2026-05-03T08:12:54.315Z</time></trkpt><trkpt lat="44.3504081" lon="7.7417146"><ele>594.5</ele><time>2026-05-03T08:12:55.321Z</time></trkpt><trkpt lat="44.350466" lon="7.7416769"><ele>594.0</ele><time>2026-05-03T08:12:56.315Z</time></trkpt><trkpt lat="44.3505841" lon="7.7416472"><ele>593.5</ele><time>2026-05-03T08:12:58.316Z</time></trkpt><trkpt lat="44.3506464" lon="7.7416657"><ele>593.0</ele><time>2026-05-03T08:12:59.314Z</time></trkpt><trkpt lat="44.3507179" lon="7.7417097"><ele>592.5</ele><time>2026-05-03T08:13:00.331Z</time></trkpt><trkpt lat="44.3508005" lon="7.7417608"><ele>592.0</ele><time>2026-05-03T08:13:01.335Z</time></trkpt><trkpt lat="44.3508982" lon="7.7418383"><ele>591.5</ele><time>2026-05-03T08:13:02.331Z</time></trkpt><trkpt lat="44.351009" lon="7.7419259"><ele>591.0</ele><time>2026-05-03T08:13:03.321Z</time></trkpt><trkpt lat="44.3511137" lon="7.742012"><ele>590.8333333333334</ele><time>2026-05-03T08:13:04.311Z</time></trkpt><trkpt lat="44.3512085" lon="7.7420934"><ele>590.6666666666666</ele><time>2026-05-03T08:13:05.315Z</time></trkpt><trkpt lat="44.3512914" lon="7.7421652"><ele>590.5</ele><time>2026-05-03T08:13:06.319Z</time></trkpt><trkpt lat="44.3513614" lon="7.7422308"><ele>590.3333333333333</ele><time>2026-05-03T08:13:07.32Z</time></trkpt><trkpt lat="44.3514243" lon="7.7422904"><ele>590.1666666666666</ele><time>2026-05-03T08:13:08.314Z</time></trkpt><trkpt lat="44.3514806" lon="7.7423635"><ele>590.0</ele><time>2026-05-03T08:13:09.324Z</time></trkpt><trkpt lat="44.351547" lon="7.74244"><ele>590.0</ele><time>2026-05-03T08:13:10.313Z</time></trkpt><trkpt lat="44.351629" lon="7.7425046"><ele>590.0</ele><time>2026-05-03T08:13:11.313Z</time></trkpt><trkpt lat="44.351715" lon="7.7425555"><ele>590.0</ele><time>2026-05-03T08:13:12.323Z</time></trkpt><trkpt lat="44.3517979" lon="7.7426072"><ele>590.0</ele><time>2026-05-03T08:13:13.315Z</time></trkpt><trkpt lat="44.3518725" lon="7.7426513"><ele>590.0</ele><time>2026-05-03T08:13:14.326Z</time></trkpt><trkpt lat="44.3519366" lon="7.7426756"><ele>590.0</ele><time>2026-05-03T08:13:15.327Z</time></trkpt><trkpt lat="44.352048" lon="7.7426368"><ele>590.0</ele><time>2026-05-03T08:13:17.312Z</time></trkpt><trkpt lat="44.3520988" lon="7.7425796"><ele>590.0</ele><time>2026-05-03T08:13:18.321Z</time></trkpt><trkpt lat="44.3521477" lon="7.7425034"><ele>590.0</ele><time>2026-05-03T08:13:19.312Z</time></trkpt><trkpt lat="44.3521984" lon="7.7424174"><ele>590.0</ele><time>2026-05-03T08:13:20.31Z</time></trkpt><trkpt lat="44.352251" lon="7.7423395"><ele>590.0</ele><time>2026-05-03T08:13:21.315Z</time></trkpt><trkpt lat="44.3523039" lon="7.7422789"><ele>590.0</ele><time>2026-05-03T08:13:22.311Z</time></trkpt><trkpt lat="44.3524122" lon="7.7422202"><ele>589.6</ele><time>2026-05-03T08:13:24.329Z</time></trkpt><trkpt lat="44.3525007" lon="7.7422619"><ele>589.2</ele><time>2026-05-03T08:13:26.312Z</time></trkpt><trkpt lat="44.3525471" lon="7.7423316"><ele>588.8</ele><time>2026-05-03T08:13:27.316Z</time></trkpt><trkpt lat="44.3525984" lon="7.7424282"><ele>588.4</ele><time>2026-05-03T08:13:28.315Z</time></trkpt><trkpt lat="44.3526612" lon="7.7425429"><ele>588.0</ele><time>2026-05-03T08:13:29.319Z</time></trkpt><trkpt lat="44.3527434" lon="7.7426662"><ele>587.0</ele><time>2026-05-03T08:13:30.349Z</time></trkpt><trkpt lat="44.3528319" lon="7.7427812"><ele>586.0</ele><time>2026-05-03T08:13:31.315Z</time></trkpt><trkpt lat="44.3529185" lon="7.7428751"><ele>585.0</ele><time>2026-05-03T08:13:32.322Z</time></trkpt><trkpt lat="44.3530038" lon="7.7429439"><ele>584.0</ele><time>2026-05-03T08:13:33.32Z</time></trkpt><trkpt lat="44.3530948" lon="7.7429732"><ele>583.0</ele><time>2026-05-03T08:13:34.32Z</time></trkpt><trkpt lat="44.3532029" lon="7.7429618"><ele>581.6</ele><time>2026-05-03T08:13:35.32Z</time></trkpt><trkpt lat="44.3533159" lon="7.7429277"><ele>580.1999999999999</ele><time>2026-05-03T08:13:36.323Z</time></trkpt><trkpt lat="44.3534225" lon="7.7428959"><ele>578.8</ele><time>2026-05-03T08:13:37.32Z</time></trkpt><trkpt lat="44.3535121" lon="7.7428776"><ele>577.4</ele><time>2026-05-03T08:13:38.311Z</time></trkpt><trkpt lat="44.3535857" lon="7.7428662"><ele>576.0</ele><time>2026-05-03T08:13:39.315Z</time></trkpt><trkpt lat="44.3536786" lon="7.7428412"><ele>576.0</ele><time>2026-05-03T08:13:41.314Z</time></trkpt><trkpt lat="44.3536155" lon="7.7427571"><ele>576.0</ele><time>2026-05-03T08:13:45.342Z</time></trkpt><trkpt lat="44.3535511" lon="7.7427237"><ele>576.0</ele><time>2026-05-03T08:13:47.311Z</time></trkpt><trkpt lat="44.3534881" lon="7.742629"><ele>576.0</ele><time>2026-05-03T08:13:49.31Z</time></trkpt><trkpt lat="44.3534213" lon="7.7424865"><ele>576.0</ele><time>2026-05-03T08:13:51.323Z</time></trkpt><trkpt lat="44.3533986" lon="7.7423154"><ele>575.6</ele><time>2026-05-03T08:13:53.313Z</time></trkpt><trkpt lat="44.3534035" lon="7.7422034"><ele>575.2</ele><time>2026-05-03T08:13:54.319Z</time></trkpt><trkpt lat="44.3534279" lon="7.7421053"><ele>574.8</ele><time>2026-05-03T08:13:55.317Z</time></trkpt><trkpt lat="44.3534563" lon="7.7419851"><ele>574.4</ele><time>2026-05-03T08:13:56.312Z</time></trkpt><trkpt lat="44.3534874" lon="7.7418426"><ele>574.0</ele><time>2026-05-03T08:13:57.321Z</time></trkpt><trkpt lat="44.3535129" lon="7.741707"><ele>574.0</ele><time>2026-05-03T08:13:58.311Z</time></trkpt><trkpt lat="44.3535375" lon="7.7415923"><ele>574.0</ele><time>2026-05-03T08:13:59.319Z</time></trkpt><trkpt lat="44.3535756" lon="7.7414926"><ele>574.0</ele><time>2026-05-03T08:14:00.325Z</time></trkpt><trkpt lat="44.3536253" lon="7.7414066"><ele>574.0</ele><time>2026-05-03T08:14:01.316Z</time></trkpt><trkpt lat="44.353671" lon="7.7413188"><ele>574.0</ele><time>2026-05-03T08:14:02.311Z</time></trkpt><trkpt lat="44.3537047" lon="7.7412266"><ele>574.0</ele><time>2026-05-03T08:14:03.317Z</time></trkpt><trkpt lat="44.353749" lon="7.7411317"><ele>574.8333333333334</ele><time>2026-05-03T08:14:04.317Z</time></trkpt><trkpt lat="44.3537957" lon="7.7410444"><ele>575.6666666666667</ele><time>2026-05-03T08:14:05.321Z</time></trkpt><trkpt lat="44.353844" lon="7.7409728"><ele>576.5</ele><time>2026-05-03T08:14:06.321Z</time></trkpt><trkpt lat="44.3538854" lon="7.7408988"><ele>577.3333333333334</ele><time>2026-05-03T08:14:07.322Z</time></trkpt><trkpt lat="44.3539251" lon="7.7407908"><ele>578.1666666666666</ele><time>2026-05-03T08:14:08.326Z</time></trkpt><trkpt lat="44.3539366" lon="7.7406728"><ele>579.0</ele><time>2026-05-03T08:14:09.345Z</time></trkpt><trkpt lat="44.3539415" lon="7.7405422"><ele>576.6666666666666</ele><time>2026-05-03T08:14:10.323Z</time></trkpt><trkpt lat="44.3539388" lon="7.7404179"><ele>574.3333333333334</ele><time>2026-05-03T08:14:11.305Z</time></trkpt><trkpt lat="44.3539405" lon="7.7403076"><ele>572.0</ele><time>2026-05-03T08:14:12.308Z</time></trkpt><trkpt lat="44.3539507" lon="7.7401999"><ele>569.6666666666667</ele><time>2026-05-03T08:14:13.321Z</time></trkpt><trkpt lat="44.353991" lon="7.7400693"><ele>567.3333333333334</ele><time>2026-05-03T08:14:14.318Z</time></trkpt><trkpt lat="44.3540384" lon="7.7399528"><ele>565.0</ele><time>2026-05-03T08:14:15.32Z</time></trkpt><trkpt lat="44.3540916" lon="7.7398356"><ele>565.0</ele><time>2026-05-03T08:14:16.314Z</time></trkpt><trkpt lat="44.3541341" lon="7.7397179"><ele>565.0</ele><time>2026-05-03T08:14:17.311Z</time></trkpt><trkpt lat="44.3541722" lon="7.7395856"><ele>565.0</ele><time>2026-05-03T08:14:18.314Z</time></trkpt><trkpt lat="44.3542118" lon="7.7394549"><ele>565.0</ele><time>2026-05-03T08:14:19.321Z</time></trkpt><trkpt lat="44.3542643" lon="7.7393461"><ele>565.0</ele><time>2026-05-03T08:14:20.316Z</time></trkpt><trkpt lat="44.3543271" lon="7.7392246"><ele>565.75</ele><time>2026-05-03T08:14:21.307Z</time></trkpt><trkpt lat="44.3543913" lon="7.7390978"><ele>566.5</ele><time>2026-05-03T08:14:22.319Z</time></trkpt><trkpt lat="44.3544648" lon="7.7389398"><ele>567.25</ele><time>2026-05-03T08:14:23.324Z</time></trkpt><trkpt lat="44.3545407" lon="7.7387865"><ele>568.0</ele><time>2026-05-03T08:14:24.321Z</time></trkpt><trkpt lat="44.3546246" lon="7.7386664"><ele>570.1999999999999</ele><time>2026-05-03T08:14:25.327Z</time></trkpt><trkpt lat="44.3547011" lon="7.738548"><ele>572.4</ele><time>2026-05-03T08:14:26.307Z</time></trkpt><trkpt lat="44.3547807" lon="7.7384332"><ele>574.5999999999999</ele><time>2026-05-03T08:14:27.328Z</time></trkpt><trkpt lat="44.3548498" lon="7.7383323"><ele>576.8</ele><time>2026-05-03T08:14:28.335Z</time></trkpt><trkpt lat="44.354911" lon="7.738236"><ele>579.0</ele><time>2026-05-03T08:14:29.325Z</time></trkpt><trkpt lat="44.3549627" lon="7.7381514"><ele>574.5</ele><time>2026-05-03T08:14:30.311Z</time></trkpt><trkpt lat="44.3550106" lon="7.7380657"><ele>570.0</ele><time>2026-05-03T08:14:31.306Z</time></trkpt><trkpt lat="44.3550577" lon="7.7379655"><ele>565.5</ele><time>2026-05-03T08:14:32.323Z</time></trkpt><trkpt lat="44.35509" lon="7.7378531"><ele>561.0</ele><time>2026-05-03T08:14:33.326Z</time></trkpt><trkpt lat="44.3551114" lon="7.7377363"><ele>556.5</ele><time>2026-05-03T08:14:34.34Z</time></trkpt><trkpt lat="44.355107" lon="7.7375875"><ele>552.0</ele><time>2026-05-03T08:14:35.308Z</time></trkpt><trkpt lat="44.3551051" lon="7.7374484"><ele>552.0</ele><time>2026-05-03T08:14:36.326Z</time></trkpt><trkpt lat="44.3550856" lon="7.7373196"><ele>552.0</ele><time>2026-05-03T08:14:37.343Z</time></trkpt><trkpt lat="44.3550494" lon="7.7372062"><ele>552.0</ele><time>2026-05-03T08:14:38.323Z</time></trkpt><trkpt lat="44.3550024" lon="7.7371001"><ele>552.0</ele><time>2026-05-03T08:14:39.31Z</time></trkpt><trkpt lat="44.3549577" lon="7.7370023"><ele>552.0</ele><time>2026-05-03T08:14:40.328Z</time></trkpt><trkpt lat="44.354913" lon="7.7369124"><ele>552.0</ele><time>2026-05-03T08:14:41.309Z</time></trkpt><trkpt lat="44.3548602" lon="7.7368292"><ele>550.1666666666666</ele><time>2026-05-03T08:14:42.318Z</time></trkpt><trkpt lat="44.3547987" lon="7.7367467"><ele>548.3333333333334</ele><time>2026-05-03T08:14:43.341Z</time></trkpt><trkpt lat="44.3547417" lon="7.736685"><ele>546.5</ele><time>2026-05-03T08:14:44.313Z</time></trkpt><trkpt lat="44.354675" lon="7.7366122"><ele>544.6666666666667</ele><time>2026-05-03T08:14:45.319Z</time></trkpt><trkpt lat="44.3546061" lon="7.7365497"><ele>542.8333333333334</ele><time>2026-05-03T08:14:46.323Z</time></trkpt><trkpt lat="44.3545209" lon="7.7364913"><ele>541.0</ele><time>2026-05-03T08:14:47.336Z</time></trkpt><trkpt lat="44.3544222" lon="7.736427"><ele>545.4</ele><time>2026-05-03T08:14:48.318Z</time></trkpt><trkpt lat="44.3543212" lon="7.7363556"><ele>549.8</ele><time>2026-05-03T08:14:49.307Z</time></trkpt><trkpt lat="44.3542218" lon="7.7362845"><ele>554.1999999999999</ele><time>2026-05-03T08:14:50.31Z</time></trkpt><trkpt lat="44.3541292" lon="7.7362189"><ele>558.6</ele><time>2026-05-03T08:14:51.321Z</time></trkpt><trkpt lat="44.3540317" lon="7.7361487"><ele>563.0</ele><time>2026-05-03T08:14:52.335Z</time></trkpt><trkpt lat="44.3539402" lon="7.7360762"><ele>559.5</ele><time>2026-05-03T08:14:53.322Z</time></trkpt><trkpt lat="44.3538548" lon="7.7359996"><ele>556.0</ele><time>2026-05-03T08:14:54.312Z</time></trkpt><trkpt lat="44.353788" lon="7.7359344"><ele>552.5</ele><time>2026-05-03T08:14:55.318Z</time></trkpt><trkpt lat="44.3537208" lon="7.7358782"><ele>549.0</ele><time>2026-05-03T08:14:56.309Z</time></trkpt><trkpt lat="44.3536386" lon="7.7358078"><ele>545.5</ele><time>2026-05-03T08:14:57.31Z</time></trkpt><trkpt lat="44.3535678" lon="7.7357506"><ele>542.0</ele><time>2026-05-03T08:14:58.314Z</time></trkpt><trkpt lat="44.3535073" lon="7.7357213"><ele>542.0</ele><time>2026-05-03T08:14:59.311Z</time></trkpt><trkpt lat="44.3533832" lon="7.7357213"><ele>542.0</ele><time>2026-05-03T08:15:01.317Z</time></trkpt><trkpt lat="44.3532789" lon="7.7357249"><ele>542.0</ele><time>2026-05-03T08:15:03.315Z</time></trkpt><trkpt lat="44.3532226" lon="7.7356774"><ele>542.0</ele><time>2026-05-03T08:15:04.343Z</time></trkpt><trkpt lat="44.3531634" lon="7.7356187"><ele>542.0</ele><time>2026-05-03T08:15:05.312Z</time></trkpt><trkpt lat="44.3531137" lon="7.7355415"><ele>542.0</ele><time>2026-05-03T08:15:06.312Z</time></trkpt><trkpt lat="44.3530784" lon="7.7354487"><ele>542.0</ele><time>2026-05-03T08:15:07.306Z</time></trkpt><trkpt lat="44.3530417" lon="7.7353519"><ele>542.0</ele><time>2026-05-03T08:15:08.306Z</time></trkpt><trkpt lat="44.353019" lon="7.7352176"><ele>542.0</ele><time>2026-05-03T08:15:09.335Z</time></trkpt><trkpt lat="44.3530038" lon="7.7350878"><ele>542.0</ele><time>2026-05-03T08:15:10.316Z</time></trkpt><trkpt lat="44.3530003" lon="7.7349714"><ele>542.0</ele><time>2026-05-03T08:15:11.305Z</time></trkpt><trkpt lat="44.3530122" lon="7.7348675"><ele>542.0</ele><time>2026-05-03T08:15:12.318Z</time></trkpt><trkpt lat="44.3530269" lon="7.7347723"><ele>540.0</ele><time>2026-05-03T08:15:13.312Z</time></trkpt><trkpt lat="44.3530965" lon="7.7346572"><ele>538.0</ele><time>2026-05-03T08:15:15.31Z</time></trkpt><trkpt lat="44.3531979" lon="7.7345864"><ele>536.0</ele><time>2026-05-03T08:15:17.309Z</time></trkpt><trkpt lat="44.3532605" lon="7.7345644"><ele>534.0</ele><time>2026-05-03T08:15:18.309Z</time></trkpt><trkpt lat="44.3533292" lon="7.7345245"><ele>532.0</ele><time>2026-05-03T08:15:19.312Z</time></trkpt><trkpt lat="44.3534124" lon="7.7344753"><ele>532.0</ele><time>2026-05-03T08:15:21.306Z</time></trkpt><trkpt lat="44.3535038" lon="7.7345473"><ele>532.0</ele><time>2026-05-03T08:15:23.316Z</time></trkpt><trkpt lat="44.3535702" lon="7.734616"><ele>532.0</ele><time>2026-05-03T08:15:24.316Z</time></trkpt><trkpt lat="44.3536414" lon="7.7346836"><ele>532.0</ele><time>2026-05-03T08:15:25.316Z</time></trkpt><trkpt lat="44.3537123" lon="7.7347542"><ele>532.0</ele><time>2026-05-03T08:15:26.323Z</time></trkpt><trkpt lat="44.3537894" lon="7.7348255"><ele>532.0</ele><time>2026-05-03T08:15:27.308Z</time></trkpt><trkpt lat="44.3538659" lon="7.7348979"><ele>532.0</ele><time>2026-05-03T08:15:28.318Z</time></trkpt><trkpt lat="44.3539449" lon="7.7349864"><ele>532.0</ele><time>2026-05-03T08:15:29.304Z</time></trkpt><trkpt lat="44.3540273" lon="7.7350718"><ele>532.0</ele><time>2026-05-03T08:15:30.312Z</time></trkpt><trkpt lat="44.3541082" lon="7.7351547"><ele>532.0</ele><time>2026-05-03T08:15:31.326Z</time></trkpt><trkpt lat="44.3541965" lon="7.7352165"><ele>533.2</ele><time>2026-05-03T08:15:32.314Z</time></trkpt><trkpt lat="44.3542924" lon="7.7352865"><ele>534.4000000000001</ele><time>2026-05-03T08:15:33.311Z</time></trkpt><trkpt lat="44.3543812" lon="7.7353491"><ele>535.5999999999999</ele><time>2026-05-03T08:15:34.328Z</time></trkpt><trkpt lat="44.3544546" lon="7.7354296"><ele>536.8</ele><time>2026-05-03T08:15:35.31Z</time></trkpt><trkpt lat="44.3545247" lon="7.7354918"><ele>538.0</ele><time>2026-05-03T08:15:36.312Z</time></trkpt><trkpt lat="44.3546032" lon="7.7355475"><ele>538.0</ele><time>2026-05-03T08:15:37.313Z</time></trkpt><trkpt lat="44.3546705" lon="7.7355999"><ele>538.0</ele><time>2026-05-03T08:15:38.322Z</time></trkpt><trkpt lat="44.3547339" lon="7.7356639"><ele>538.0</ele><time>2026-05-03T08:15:39.315Z</time></trkpt><trkpt lat="44.354802" lon="7.7357237"><ele>538.0</ele><time>2026-05-03T08:15:40.315Z</time></trkpt><trkpt lat="44.3548826" lon="7.7357698"><ele>538.0</ele><time>2026-05-03T08:15:41.327Z</time></trkpt><trkpt lat="44.3549538" lon="7.7358117"><ele>538.0</ele><time>2026-05-03T08:15:42.306Z</time></trkpt><trkpt lat="44.355026" lon="7.7358312"><ele>536.8333333333334</ele><time>2026-05-03T08:15:43.304Z</time></trkpt><trkpt lat="44.355089" lon="7.7358416"><ele>535.6666666666667</ele><time>2026-05-03T08:15:44.313Z</time></trkpt><trkpt lat="44.3551754" lon="7.7358595"><ele>534.5</ele><time>2026-05-03T08:15:45.318Z</time></trkpt><trkpt lat="44.3552598" lon="7.7358733"><ele>533.3333333333334</ele><time>2026-05-03T08:15:46.309Z</time></trkpt><trkpt lat="44.3553468" lon="7.735889"><ele>532.1666666666666</ele><time>2026-05-03T08:15:47.305Z</time></trkpt><trkpt lat="44.3554226" lon="7.7358943"><ele>531.0</ele><time>2026-05-03T08:15:48.312Z</time></trkpt><trkpt lat="44.3554927" lon="7.7358913"><ele>531.0</ele><time>2026-05-03T08:15:49.311Z</time></trkpt><trkpt lat="44.3555713" lon="7.7358796"><ele>531.0</ele><time>2026-05-03T08:15:50.308Z</time></trkpt><trkpt lat="44.3556538" lon="7.7358655"><ele>531.0</ele><time>2026-05-03T08:15:51.302Z</time></trkpt><trkpt lat="44.3557436" lon="7.73584"><ele>531.0</ele><time>2026-05-03T08:15:52.313Z</time></trkpt><trkpt lat="44.3558304" lon="7.7358152"><ele>531.0</ele><time>2026-05-03T08:15:53.319Z</time></trkpt><trkpt lat="44.355898" lon="7.7358125"><ele>531.0</ele><time>2026-05-03T08:15:54.306Z</time></trkpt><trkpt lat="44.3559936" lon="7.7358332"><ele>531.0</ele><time>2026-05-03T08:15:56.305Z</time></trkpt><trkpt lat="44.3560522" lon="7.7358785"><ele>531.0</ele><time>2026-05-03T08:15:58.312Z</time></trkpt><trkpt lat="44.3561238" lon="7.7359129"><ele>531.0</ele><time>2026-05-03T08:16:00.315Z</time></trkpt><trkpt lat="44.3561969" lon="7.7358795"><ele>531.0</ele><time>2026-05-03T08:16:02.311Z</time></trkpt><trkpt lat="44.3562432" lon="7.7358093"><ele>531.0</ele><time>2026-05-03T08:16:04.311Z</time></trkpt><trkpt lat="44.3562571" lon="7.7356937"><ele>531.0</ele><time>2026-05-03T08:16:06.389Z</time></trkpt><trkpt lat="44.3562473" lon="7.7355153"><ele>531.0</ele><time>2026-05-03T08:16:08.314Z</time></trkpt><trkpt lat="44.3562455" lon="7.7353655"><ele>531.0</ele><time>2026-05-03T08:16:10.314Z</time></trkpt><trkpt lat="44.3562408" lon="7.7352468"><ele>531.0</ele><time>2026-05-03T08:16:12.312Z</time></trkpt><trkpt lat="44.3562369" lon="7.7351218"><ele>531.0</ele><time>2026-05-03T08:16:14.312Z</time></trkpt><trkpt lat="44.3562208" lon="7.7349954"><ele>531.0</ele><time>2026-05-03T08:16:16.307Z</time></trkpt><trkpt lat="44.3562788" lon="7.7350311"><ele>531.0</ele><time>2026-05-03T08:16:21.318Z</time></trkpt><trkpt lat="44.3563162" lon="7.7351683"><ele>531.0</ele><time>2026-05-03T08:16:23.313Z</time></trkpt><trkpt lat="44.3563504" lon="7.7352956"><ele>531.0</ele><time>2026-05-03T08:16:25.314Z</time></trkpt><trkpt lat="44.3564038" lon="7.7354169"><ele>531.0</ele><time>2026-05-03T08:16:27.31Z</time></trkpt><trkpt lat="44.3564885" lon="7.7355431"><ele>531.0</ele><time>2026-05-03T08:16:29.309Z</time></trkpt><trkpt lat="44.35654" lon="7.7356081"><ele>531.0</ele><time>2026-05-03T08:16:30.306Z</time></trkpt><trkpt lat="44.3565986" lon="7.7356842"><ele>530.0</ele><time>2026-05-03T08:16:31.312Z</time></trkpt><trkpt lat="44.3566714" lon="7.7357667"><ele>529.0</ele><time>2026-05-03T08:16:33.31Z</time></trkpt><trkpt lat="44.3567926" lon="7.7358993"><ele>528.0</ele><time>2026-05-03T08:16:47.316Z</time></trkpt><trkpt lat="44.3567916" lon="7.7357986"><ele>527.0</ele><time>2026-05-03T08:16:50.324Z</time></trkpt><trkpt lat="44.3567641" lon="7.7356599"><ele>526.0</ele><time>2026-05-03T08:16:52.319Z</time></trkpt><trkpt lat="44.3567255" lon="7.7354818"><ele>526.0</ele><time>2026-05-03T08:16:54.322Z</time></trkpt><trkpt lat="44.3567021" lon="7.7353769"><ele>526.0</ele><time>2026-05-03T08:16:55.337Z</time></trkpt><trkpt lat="44.3566824" lon="7.735264"><ele>526.0</ele><time>2026-05-03T08:16:56.307Z</time></trkpt><trkpt lat="44.3566587" lon="7.735144"><ele>526.0</ele><time>2026-05-03T08:16:57.314Z</time></trkpt><trkpt lat="44.3566355" lon="7.7350269"><ele>526.0</ele><time>2026-05-03T08:16:58.318Z</time></trkpt><trkpt lat="44.3566126" lon="7.7349209"><ele>526.0</ele><time>2026-05-03T08:16:59.312Z</time></trkpt><trkpt lat="44.3565905" lon="7.7348235"><ele>527.6666666666667</ele><time>2026-05-03T08:17:00.314Z</time></trkpt><trkpt lat="44.3565721" lon="7.7347382"><ele>529.3333333333334</ele><time>2026-05-03T08:17:01.304Z</time></trkpt><trkpt lat="44.3565442" lon="7.7345705"><ele>531.0</ele><time>2026-05-03T08:17:03.311Z</time></trkpt><trkpt lat="44.3565415" lon="7.7344748"><ele>532.6666666666666</ele><time>2026-05-03T08:17:04.312Z</time></trkpt><trkpt lat="44.3565351" lon="7.7343721"><ele>534.3333333333333</ele><time>2026-05-03T08:17:05.32Z</time></trkpt><trkpt lat="44.3565282" lon="7.7342716"><ele>536.0</ele><time>2026-05-03T08:17:06.317Z</time></trkpt><trkpt lat="44.3565164" lon="7.7341169"><ele>538.0</ele><time>2026-05-03T08:17:08.314Z</time></trkpt><trkpt lat="44.3565407" lon="7.734001"><ele>540.0</ele><time>2026-05-03T08:17:10.32Z</time></trkpt><trkpt lat="44.3566109" lon="7.7338421"><ele>542.0</ele><time>2026-05-03T08:17:12.322Z</time></trkpt><trkpt lat="44.3566385" lon="7.7337333"><ele>544.0</ele><time>2026-05-03T08:17:13.308Z</time></trkpt><trkpt lat="44.3566621" lon="7.7336417"><ele>546.0</ele><time>2026-05-03T08:17:14.314Z</time></trkpt><trkpt lat="44.3567288" lon="7.7335296"><ele>546.3333333333334</ele><time>2026-05-03T08:17:16.33Z</time></trkpt><trkpt lat="44.3567777" lon="7.7334727"><ele>546.6666666666666</ele><time>2026-05-03T08:17:17.35Z</time></trkpt><trkpt lat="44.3568452" lon="7.7334078"><ele>547.0</ele><time>2026-05-03T08:17:18.311Z</time></trkpt><trkpt lat="44.3569105" lon="7.7333399"><ele>547.3333333333333</ele><time>2026-05-03T08:17:19.309Z</time></trkpt><trkpt lat="44.3569769" lon="7.7332732"><ele>547.6666666666666</ele><time>2026-05-03T08:17:20.318Z</time></trkpt><trkpt lat="44.3570282" lon="7.7332211"><ele>548.0</ele><time>2026-05-03T08:17:21.323Z</time></trkpt><trkpt lat="44.3571252" lon="7.73311"><ele>548.0</ele><time>2026-05-03T08:17:23.317Z</time></trkpt><trkpt lat="44.3571996" lon="7.7330064"><ele>548.0</ele><time>2026-05-03T08:17:25.318Z</time></trkpt><trkpt lat="44.3572339" lon="7.7329279"><ele>548.0</ele><time>2026-05-03T08:17:26.328Z</time></trkpt><trkpt lat="44.3572372" lon="7.7328338"><ele>548.0</ele><time>2026-05-03T08:17:27.318Z</time></trkpt><trkpt lat="44.3572429" lon="7.7327424"><ele>548.0</ele><time>2026-05-03T08:17:28.31Z</time></trkpt><trkpt lat="44.357281" lon="7.7325991"><ele>548.0</ele><time>2026-05-03T08:17:30.314Z</time></trkpt><trkpt lat="44.3573624" lon="7.7324918"><ele>552.1999999999999</ele><time>2026-05-03T08:17:32.329Z</time></trkpt><trkpt lat="44.3574755" lon="7.7323972"><ele>556.4</ele><time>2026-05-03T08:17:34.311Z</time></trkpt><trkpt lat="44.3575313" lon="7.7323297"><ele>560.5999999999999</ele><time>2026-05-03T08:17:35.322Z</time></trkpt><trkpt lat="44.3575749" lon="7.7322617"><ele>564.8</ele><time>2026-05-03T08:17:36.333Z</time></trkpt><trkpt lat="44.3576593" lon="7.7321651"><ele>569.0</ele><time>2026-05-03T08:17:38.315Z</time></trkpt><trkpt lat="44.3577429" lon="7.7320738"><ele>569.0</ele><time>2026-05-03T08:17:40.335Z</time></trkpt><trkpt lat="44.3578119" lon="7.7319738"><ele>569.0</ele><time>2026-05-03T08:17:42.311Z</time></trkpt><trkpt lat="44.3578604" lon="7.7319027"><ele>569.0</ele><time>2026-05-03T08:17:43.33Z</time></trkpt><trkpt lat="44.3579358" lon="7.731813"><ele>569.0</ele><time>2026-05-03T08:17:45.313Z</time></trkpt><trkpt lat="44.3580343" lon="7.7317067"><ele>569.0</ele><time>2026-05-03T08:17:47.326Z</time></trkpt><trkpt lat="44.3580878" lon="7.7316322"><ele>571.0000000000001</ele><time>2026-05-03T08:17:48.309Z</time></trkpt><trkpt lat="44.3581434" lon="7.7315536"><ele>573.0</ele><time>2026-05-03T08:17:49.316Z</time></trkpt><trkpt lat="44.3581885" lon="7.73148"><ele>575.0</ele><time>2026-05-03T08:17:50.327Z</time></trkpt><trkpt lat="44.3582241" lon="7.7313923"><ele>577.0</ele><time>2026-05-03T08:17:51.309Z</time></trkpt><trkpt lat="44.3582521" lon="7.7312884"><ele>579.0</ele><time>2026-05-03T08:17:52.338Z</time></trkpt><trkpt lat="44.3582754" lon="7.7311998"><ele>581.0000000000001</ele><time>2026-05-03T08:17:53.324Z</time></trkpt><trkpt lat="44.3583014" lon="7.7310993"><ele>583.0</ele><time>2026-05-03T08:17:54.328Z</time></trkpt><trkpt lat="44.3583397" lon="7.7310039"><ele>585.6</ele><time>2026-05-03T08:17:55.316Z</time></trkpt><trkpt lat="44.3583758" lon="7.7309143"><ele>588.1999999999999</ele><time>2026-05-03T08:17:56.316Z</time></trkpt><trkpt lat="44.3584088" lon="7.7307997"><ele>590.8</ele><time>2026-05-03T08:17:57.312Z</time></trkpt><trkpt lat="44.3584416" lon="7.7306554"><ele>593.4</ele><time>2026-05-03T08:17:58.318Z</time></trkpt><trkpt lat="44.3584539" lon="7.7305234"><ele>596.0</ele><time>2026-05-03T08:17:59.321Z</time></trkpt><trkpt lat="44.3584673" lon="7.7303994"><ele>596.0</ele><time>2026-05-03T08:18:00.326Z</time></trkpt><trkpt lat="44.3584792" lon="7.7302635"><ele>596.0</ele><time>2026-05-03T08:18:01.332Z</time></trkpt><trkpt lat="44.3584925" lon="7.7301446"><ele>596.0</ele><time>2026-05-03T08:18:02.314Z</time></trkpt><trkpt lat="44.3585086" lon="7.7300342"><ele>596.0</ele><time>2026-05-03T08:18:03.323Z</time></trkpt><trkpt lat="44.3585317" lon="7.7299443"><ele>596.0</ele><time>2026-05-03T08:18:04.321Z</time></trkpt><trkpt lat="44.3585619" lon="7.7298542"><ele>596.0</ele><time>2026-05-03T08:18:05.312Z</time></trkpt><trkpt lat="44.3585882" lon="7.7297157"><ele>597.6</ele><time>2026-05-03T08:18:07.324Z</time></trkpt><trkpt lat="44.3585104" lon="7.7296013"><ele>599.2</ele><time>2026-05-03T08:18:09.311Z</time></trkpt><trkpt lat="44.3584716" lon="7.7294783"><ele>600.8</ele><time>2026-05-03T08:18:11.31Z</time></trkpt><trkpt lat="44.3584055" lon="7.7293987"><ele>602.4</ele><time>2026-05-03T08:18:13.315Z</time></trkpt><trkpt lat="44.3583503" lon="7.7292953"><ele>604.0</ele><time>2026-05-03T08:18:15.311Z</time></trkpt><trkpt lat="44.3582924" lon="7.7291986"><ele>604.0</ele><time>2026-05-03T08:18:17.315Z</time></trkpt><trkpt lat="44.3581502" lon="7.7291656"><ele>604.0</ele><time>2026-05-03T08:18:19.342Z</time></trkpt><trkpt lat="44.3580729" lon="7.7291437"><ele>604.0</ele><time>2026-05-03T08:18:20.316Z</time></trkpt><trkpt lat="44.3580131" lon="7.7291121"><ele>604.0</ele><time>2026-05-03T08:18:21.31Z</time></trkpt><trkpt lat="44.3579155" lon="7.7290136"><ele>604.0</ele><time>2026-05-03T08:18:23.319Z</time></trkpt><trkpt lat="44.3578591" lon="7.7289189"><ele>605.5</ele><time>2026-05-03T08:18:25.326Z</time></trkpt><trkpt lat="44.3578019" lon="7.7288336"><ele>607.0</ele><time>2026-05-03T08:18:27.318Z</time></trkpt><trkpt lat="44.3577297" lon="7.7288193"><ele>608.5</ele><time>2026-05-03T08:18:29.321Z</time></trkpt><trkpt lat="44.3576609" lon="7.7287193"><ele>610.0</ele><time>2026-05-03T08:18:32.308Z</time></trkpt><trkpt lat="44.3576187" lon="7.7286473"><ele>611.5</ele><time>2026-05-03T08:18:33.31Z</time></trkpt><trkpt lat="44.3575756" lon="7.7285706"><ele>613.0</ele><time>2026-05-03T08:18:35.315Z</time></trkpt><trkpt lat="44.3575404" lon="7.7284365"><ele>613.0</ele><time>2026-05-03T08:19:15.312Z</time></trkpt><trkpt lat="44.3575271" lon="7.7283489"><ele>613.0</ele><time>2026-05-03T08:21:54.313Z</time></trkpt><trkpt lat="44.3575766" lon="7.7281869"><ele>613.0</ele><time>2026-05-03T08:21:56.322Z</time></trkpt><trkpt lat="44.3575991" lon="7.7280622"><ele>613.0</ele><time>2026-05-03T08:21:58.31Z</time></trkpt><trkpt lat="44.3576192" lon="7.7279277"><ele>613.0</ele><time>2026-05-03T08:22:00.349Z</time></trkpt><trkpt lat="44.3576625" lon="7.7277813"><ele>611.4</ele><time>2026-05-03T08:22:02.309Z</time></trkpt><trkpt lat="44.3576915" lon="7.7276867"><ele>609.8</ele><time>2026-05-03T08:22:03.314Z</time></trkpt><trkpt lat="44.357736" lon="7.7275579"><ele>608.2</ele><time>2026-05-03T08:22:05.308Z</time></trkpt><trkpt lat="44.357782" lon="7.7274121"><ele>606.6</ele><time>2026-05-03T08:22:07.313Z</time></trkpt><trkpt lat="44.3578398" lon="7.7272901"><ele>605.0</ele><time>2026-05-03T08:22:09.31Z</time></trkpt><trkpt lat="44.3578943" lon="7.7272094"><ele>605.0</ele><time>2026-05-03T08:22:11.319Z</time></trkpt><trkpt lat="44.3579647" lon="7.7271102"><ele>605.0</ele><time>2026-05-03T08:22:53.324Z</time></trkpt><trkpt lat="44.3579913" lon="7.7270039"><ele>605.0</ele><time>2026-05-03T08:22:56.313Z</time></trkpt><trkpt lat="44.3580203" lon="7.7268707"><ele>605.0</ele><time>2026-05-03T08:22:58.309Z</time></trkpt><trkpt lat="44.3580454" lon="7.7267864"><ele>605.0</ele><time>2026-05-03T08:22:59.346Z</time></trkpt><trkpt lat="44.3580845" lon="7.7266982"><ele>605.0</ele><time>2026-05-03T08:23:00.315Z</time></trkpt><trkpt lat="44.3581333" lon="7.7266249"><ele>603.3333333333333</ele><time>2026-05-03T08:23:01.318Z</time></trkpt><trkpt lat="44.3582063" lon="7.7265134"><ele>601.6666666666666</ele><time>2026-05-03T08:23:03.316Z</time></trkpt><trkpt lat="44.3582585" lon="7.7264507"><ele>600.0</ele><time>2026-05-03T08:23:05.322Z</time></trkpt><trkpt lat="44.3583294" lon="7.7264473"><ele>598.3333333333334</ele><time>2026-05-03T08:23:08.319Z</time></trkpt><trkpt lat="44.358402" lon="7.7265225"><ele>596.6666666666667</ele><time>2026-05-03T08:23:10.313Z</time></trkpt><trkpt lat="44.3584489" lon="7.7265882"><ele>595.0</ele><time>2026-05-03T08:23:11.322Z</time></trkpt><trkpt lat="44.358524" lon="7.7266847"><ele>595.0</ele><time>2026-05-03T08:23:13.319Z</time></trkpt><trkpt lat="44.3585755" lon="7.726737"><ele>595.0</ele><time>2026-05-03T08:23:15.318Z</time></trkpt><trkpt lat="44.358652" lon="7.7268017"><ele>595.0</ele><time>2026-05-03T08:23:18.313Z</time></trkpt><trkpt lat="44.3587175" lon="7.7268823"><ele>595.0</ele><time>2026-05-03T08:23:20.319Z</time></trkpt><trkpt lat="44.3587929" lon="7.7269605"><ele>595.0</ele><time>2026-05-03T08:23:22.312Z</time></trkpt><trkpt lat="44.3588747" lon="7.7270177"><ele>595.0</ele><time>2026-05-03T08:23:24.312Z</time></trkpt><trkpt lat="44.3589633" lon="7.727072"><ele>593.0</ele><time>2026-05-03T08:23:26.32Z</time></trkpt><trkpt lat="44.3590607" lon="7.7271241"><ele>591.0</ele><time>2026-05-03T08:23:28.305Z</time></trkpt><trkpt lat="44.3591518" lon="7.7271639"><ele>589.0</ele><time>2026-05-03T08:23:30.313Z</time></trkpt><trkpt lat="44.3592349" lon="7.7272029"><ele>587.0</ele><time>2026-05-03T08:23:32.32Z</time></trkpt><trkpt lat="44.3593041" lon="7.7272312"><ele>585.0</ele><time>2026-05-03T08:23:34.307Z</time></trkpt><trkpt lat="44.3593735" lon="7.7272656"><ele>583.0</ele><time>2026-05-03T08:23:36.318Z</time></trkpt><trkpt lat="44.3594521" lon="7.7273042"><ele>583.0</ele><time>2026-05-03T08:23:38.309Z</time></trkpt><trkpt lat="44.3595688" lon="7.7273383"><ele>583.0</ele><time>2026-05-03T08:23:46.399Z</time></trkpt><trkpt lat="44.3596288" lon="7.7272926"><ele>583.0</ele><time>2026-05-03T08:24:10.335Z</time></trkpt><trkpt lat="44.359668" lon="7.7271975"><ele>583.0</ele><time>2026-05-03T08:24:12.327Z</time></trkpt><trkpt lat="44.3597156" lon="7.7270358"><ele>583.0</ele><time>2026-05-03T08:24:14.305Z</time></trkpt><trkpt lat="44.3597381" lon="7.7269311"><ele>580.1666666666667</ele><time>2026-05-03T08:24:15.309Z</time></trkpt><trkpt lat="44.3597634" lon="7.7268211"><ele>577.3333333333334</ele><time>2026-05-03T08:24:16.322Z</time></trkpt><trkpt lat="44.3597904" lon="7.7267297"><ele>574.5</ele><time>2026-05-03T08:24:17.314Z</time></trkpt><trkpt lat="44.3598479" lon="7.7265823"><ele>571.6666666666666</ele><time>2026-05-03T08:24:19.318Z</time></trkpt><trkpt lat="44.3598858" lon="7.7265087"><ele>568.8333333333333</ele><time>2026-05-03T08:24:20.33Z</time></trkpt><trkpt lat="44.3599278" lon="7.7264276"><ele>566.0</ele><time>2026-05-03T08:24:21.313Z</time></trkpt><trkpt lat="44.3599664" lon="7.7263447"><ele>566.0</ele><time>2026-05-03T08:24:22.31Z</time></trkpt><trkpt lat="44.3600263" lon="7.7262082"><ele>566.0</ele><time>2026-05-03T08:24:24.312Z</time></trkpt><trkpt lat="44.3600798" lon="7.7260903"><ele>566.0</ele><time>2026-05-03T08:24:26.316Z</time></trkpt><trkpt lat="44.3601379" lon="7.7259778"><ele>566.0</ele><time>2026-05-03T08:24:28.312Z</time></trkpt><trkpt lat="44.3601858" lon="7.7258675"><ele>566.0</ele><time>2026-05-03T08:24:30.314Z</time></trkpt><trkpt lat="44.3602033" lon="7.7257639"><ele>564.6</ele><time>2026-05-03T08:24:32.324Z</time></trkpt><trkpt lat="44.3602099" lon="7.7256651"><ele>563.2</ele><time>2026-05-03T08:24:34.308Z</time></trkpt><trkpt lat="44.3602029" lon="7.725539"><ele>561.8</ele><time>2026-05-03T08:24:37.321Z</time></trkpt><trkpt lat="44.3601758" lon="7.7254183"><ele>560.4</ele><time>2026-05-03T08:24:39.315Z</time></trkpt><trkpt lat="44.3601231" lon="7.7252802"><ele>559.0</ele><time>2026-05-03T08:24:41.317Z</time></trkpt><trkpt lat="44.3600652" lon="7.7251547"><ele>557.4</ele><time>2026-05-03T08:24:43.317Z</time></trkpt><trkpt lat="44.3600942" lon="7.7250281"><ele>555.8</ele><time>2026-05-03T08:24:46.315Z</time></trkpt><trkpt lat="44.3601823" lon="7.724909"><ele>554.2</ele><time>2026-05-03T08:24:48.322Z</time></trkpt><trkpt lat="44.3602669" lon="7.7248251"><ele>552.6</ele><time>2026-05-03T08:24:50.313Z</time></trkpt><trkpt lat="44.360356" lon="7.7247947"><ele>551.0</ele><time>2026-05-03T08:24:52.314Z</time></trkpt><trkpt lat="44.3604447" lon="7.7247833"><ele>549.6</ele><time>2026-05-03T08:24:54.309Z</time></trkpt><trkpt lat="44.3605439" lon="7.7248275"><ele>548.2</ele><time>2026-05-03T08:24:56.311Z</time></trkpt><trkpt lat="44.3606389" lon="7.7249407"><ele>546.8</ele><time>2026-05-03T08:24:58.307Z</time></trkpt><trkpt lat="44.3607145" lon="7.7250236"><ele>545.4</ele><time>2026-05-03T08:25:00.322Z</time></trkpt><trkpt lat="44.3607804" lon="7.7250574"><ele>544.0</ele><time>2026-05-03T08:25:02.324Z</time></trkpt><trkpt lat="44.3608633" lon="7.7250288"><ele>544.0</ele><time>2026-05-03T08:25:04.316Z</time></trkpt><trkpt lat="44.36095" lon="7.7249386"><ele>544.0</ele><time>2026-05-03T08:25:06.322Z</time></trkpt><trkpt lat="44.3610345" lon="7.7249053"><ele>544.0</ele><time>2026-05-03T08:25:08.321Z</time></trkpt><trkpt lat="44.361117" lon="7.7248831"><ele>544.0</ele><time>2026-05-03T08:25:10.306Z</time></trkpt><trkpt lat="44.3612044" lon="7.7248584"><ele>544.0</ele><time>2026-05-03T08:25:12.31Z</time></trkpt><trkpt lat="44.361303" lon="7.7247894"><ele>544.0</ele><time>2026-05-03T08:25:14.316Z</time></trkpt><trkpt lat="44.3613585" lon="7.7247439"><ele>544.0</ele><time>2026-05-03T08:25:15.306Z</time></trkpt><trkpt lat="44.3614288" lon="7.7246653"><ele>544.0</ele><time>2026-05-03T08:25:17.319Z</time></trkpt><trkpt lat="44.361474" lon="7.7245661"><ele>544.0</ele><time>2026-05-03T08:25:19.316Z</time></trkpt><trkpt lat="44.3615183" lon="7.7244086"><ele>544.0</ele><time>2026-05-03T08:25:21.318Z</time></trkpt><trkpt lat="44.3615504" lon="7.7243259"><ele>544.0</ele><time>2026-05-03T08:25:22.315Z</time></trkpt><trkpt lat="44.3615947" lon="7.7241884"><ele>541.3333333333334</ele><time>2026-05-03T08:25:24.316Z</time></trkpt><trkpt lat="44.3616211" lon="7.7240829"><ele>538.6666666666667</ele><time>2026-05-03T08:25:26.32Z</time></trkpt><trkpt lat="44.3616059" lon="7.7239553"><ele>536.0</ele><time>2026-05-03T08:25:29.324Z</time></trkpt><trkpt lat="44.3615397" lon="7.7238651"><ele>533.3333333333334</ele><time>2026-05-03T08:25:31.393Z</time></trkpt><trkpt lat="44.361546" lon="7.7237752"><ele>530.6666666666666</ele><time>2026-05-03T08:25:33.315Z</time></trkpt><trkpt lat="44.3615938" lon="7.7236343"><ele>528.0</ele><time>2026-05-03T08:25:35.319Z</time></trkpt><trkpt lat="44.3616459" lon="7.7235711"><ele>526.6666666666666</ele><time>2026-05-03T08:25:37.31Z</time></trkpt><trkpt lat="44.3617432" lon="7.7235508"><ele>525.3333333333334</ele><time>2026-05-03T08:25:40.306Z</time></trkpt><trkpt lat="44.3618191" lon="7.7234887"><ele>524.0</ele><time>2026-05-03T08:25:42.306Z</time></trkpt><trkpt lat="44.3618295" lon="7.7233832"><ele>522.6666666666667</ele><time>2026-05-03T08:25:44.316Z</time></trkpt><trkpt lat="44.3617356" lon="7.7233237"><ele>521.3333333333334</ele><time>2026-05-03T08:25:46.309Z</time></trkpt><trkpt lat="44.3616707" lon="7.723278"><ele>520.0</ele><time>2026-05-03T08:25:47.311Z</time></trkpt><trkpt lat="44.3616009" lon="7.7232379"><ele>520.0</ele><time>2026-05-03T08:25:48.308Z</time></trkpt><trkpt lat="44.3615037" lon="7.7232148"><ele>520.0</ele><time>2026-05-03T08:25:50.308Z</time></trkpt><trkpt lat="44.3614383" lon="7.7231983"><ele>520.0</ele><time>2026-05-03T08:25:52.308Z</time></trkpt><trkpt lat="44.3613823" lon="7.7231338"><ele>520.0</ele><time>2026-05-03T08:25:54.31Z</time></trkpt><trkpt lat="44.361404" lon="7.7230128"><ele>520.0</ele><time>2026-05-03T08:25:56.316Z</time></trkpt><trkpt lat="44.3614596" lon="7.7229634"><ele>520.0</ele><time>2026-05-03T08:25:57.319Z</time></trkpt><trkpt lat="44.3615245" lon="7.7229309"><ele>520.0</ele><time>2026-05-03T08:25:58.311Z</time></trkpt><trkpt lat="44.3615993" lon="7.7229252"><ele>520.0</ele><time>2026-05-03T08:25:59.323Z</time></trkpt><trkpt lat="44.3616694" lon="7.7229214"><ele>520.0</ele><time>2026-05-03T08:26:00.313Z</time></trkpt><trkpt lat="44.3617389" lon="7.7229029"><ele>520.0</ele><time>2026-05-03T08:26:01.312Z</time></trkpt><trkpt lat="44.361806" lon="7.7228785"><ele>520.0</ele><time>2026-05-03T08:26:02.312Z</time></trkpt><trkpt lat="44.3618718" lon="7.7228511"><ele>520.0</ele><time>2026-05-03T08:26:03.323Z</time></trkpt><trkpt lat="44.3619907" lon="7.7227944"><ele>520.0</ele><time>2026-05-03T08:26:05.321Z</time></trkpt><trkpt lat="44.3620804" lon="7.7227705"><ele>520.0</ele><time>2026-05-03T08:26:06.31Z</time></trkpt><trkpt lat="44.3621527" lon="7.7227526"><ele>520.0</ele><time>2026-05-03T08:26:07.313Z</time></trkpt><trkpt lat="44.3622666" lon="7.7227581"><ele>520.0</ele><time>2026-05-03T08:26:09.318Z</time></trkpt><trkpt lat="44.3623781" lon="7.7228159"><ele>520.0</ele><time>2026-05-03T08:26:11.317Z</time></trkpt><trkpt lat="44.3624821" lon="7.7228736"><ele>518.2</ele><time>2026-05-03T08:26:13.307Z</time></trkpt><trkpt lat="44.362584" lon="7.7228371"><ele>516.4</ele><time>2026-05-03T08:26:15.318Z</time></trkpt><trkpt lat="44.3626411" lon="7.7227969"><ele>514.6</ele><time>2026-05-03T08:26:16.314Z</time></trkpt><trkpt lat="44.3627363" lon="7.7226767"><ele>512.8</ele><time>2026-05-03T08:26:18.318Z</time></trkpt><trkpt lat="44.362776" lon="7.722593"><ele>511.0</ele><time>2026-05-03T08:26:19.316Z</time></trkpt><trkpt lat="44.3628059" lon="7.7224763"><ele>509.00000000000006</ele><time>2026-05-03T08:26:20.313Z</time></trkpt><trkpt lat="44.3628286" lon="7.7223798"><ele>507.0</ele><time>2026-05-03T08:26:21.308Z</time></trkpt><trkpt lat="44.3628727" lon="7.7222402"><ele>505.0</ele><time>2026-05-03T08:26:23.319Z</time></trkpt><trkpt lat="44.3629287" lon="7.7221894"><ele>503.0</ele><time>2026-05-03T08:26:24.318Z</time></trkpt><trkpt lat="44.3629866" lon="7.7221439"><ele>501.00000000000006</ele><time>2026-05-03T08:26:25.307Z</time></trkpt><trkpt lat="44.3630607" lon="7.7221209"><ele>499.0</ele><time>2026-05-03T08:26:26.319Z</time></trkpt><trkpt lat="44.3631377" lon="7.7220935"><ele>497.79999999999995</ele><time>2026-05-03T08:26:27.313Z</time></trkpt><trkpt lat="44.3632304" lon="7.722076"><ele>496.59999999999997</ele><time>2026-05-03T08:26:28.325Z</time></trkpt><trkpt lat="44.3633261" lon="7.7220579"><ele>495.4</ele><time>2026-05-03T08:26:29.311Z</time></trkpt><trkpt lat="44.3634184" lon="7.7220453"><ele>494.2</ele><time>2026-05-03T08:26:30.318Z</time></trkpt><trkpt lat="44.3635135" lon="7.7220379"><ele>493.0</ele><time>2026-05-03T08:26:31.312Z</time></trkpt><trkpt lat="44.363604" lon="7.7220405"><ele>493.00000000000006</ele><time>2026-05-03T08:26:32.311Z</time></trkpt><trkpt lat="44.3636924" lon="7.722039"><ele>493.0</ele><time>2026-05-03T08:26:33.312Z</time></trkpt><trkpt lat="44.3637762" lon="7.7220355"><ele>493.0</ele><time>2026-05-03T08:26:34.307Z</time></trkpt><trkpt lat="44.3638612" lon="7.7220139"><ele>493.0</ele><time>2026-05-03T08:26:35.313Z</time></trkpt><trkpt lat="44.3639403" lon="7.7219838"><ele>493.00000000000006</ele><time>2026-05-03T08:26:36.362Z</time></trkpt><trkpt lat="44.364003" lon="7.7219508"><ele>493.0</ele><time>2026-05-03T08:26:37.313Z</time></trkpt><trkpt lat="44.3641012" lon="7.7218899"><ele>494.6666666666667</ele><time>2026-05-03T08:26:39.31Z</time></trkpt><trkpt lat="44.3641588" lon="7.7217839"><ele>496.33333333333337</ele><time>2026-05-03T08:26:41.319Z</time></trkpt><trkpt lat="44.3641642" lon="7.7216584"><ele>498.0</ele><time>2026-05-03T08:26:43.31Z</time></trkpt><trkpt lat="44.3641358" lon="7.721551"><ele>499.66666666666663</ele><time>2026-05-03T08:26:45.362Z</time></trkpt><trkpt lat="44.3640787" lon="7.7215133"><ele>501.3333333333333</ele><time>2026-05-03T08:26:46.32Z</time></trkpt><trkpt lat="44.3639962" lon="7.7214596"><ele>503.0</ele><time>2026-05-03T08:26:47.316Z</time></trkpt><trkpt lat="44.3638978" lon="7.7213736"><ele>502.4</ele><time>2026-05-03T08:26:48.336Z</time></trkpt><trkpt lat="44.3638079" lon="7.72128"><ele>501.79999999999995</ele><time>2026-05-03T08:26:49.313Z</time></trkpt><trkpt lat="44.3637243" lon="7.7211807"><ele>501.2</ele><time>2026-05-03T08:26:50.312Z</time></trkpt><trkpt lat="44.363654" lon="7.7210951"><ele>500.6</ele><time>2026-05-03T08:26:51.313Z</time></trkpt><trkpt lat="44.3635884" lon="7.7210206"><ele>500.0</ele><time>2026-05-03T08:26:52.314Z</time></trkpt><trkpt lat="44.3635391" lon="7.7209578"><ele>501.16666666666663</ele><time>2026-05-03T08:26:53.319Z</time></trkpt><trkpt lat="44.3634659" lon="7.7208317"><ele>502.3333333333333</ele><time>2026-05-03T08:26:55.314Z</time></trkpt><trkpt lat="44.3634362" lon="7.7207524"><ele>503.5</ele><time>2026-05-03T08:26:56.303Z</time></trkpt><trkpt lat="44.3634065" lon="7.7206605"><ele>504.66666666666663</ele><time>2026-05-03T08:26:57.309Z</time></trkpt><trkpt lat="44.3633828" lon="7.7205674"><ele>505.8333333333333</ele><time>2026-05-03T08:26:58.311Z</time></trkpt><trkpt lat="44.3633595" lon="7.7204763"><ele>507.0</ele><time>2026-05-03T08:26:59.318Z</time></trkpt><trkpt lat="44.3633217" lon="7.7203146"><ele>507.20000000000005</ele><time>2026-05-03T08:27:01.318Z</time></trkpt><trkpt lat="44.3632886" lon="7.720163"><ele>507.40000000000003</ele><time>2026-05-03T08:27:03.327Z</time></trkpt><trkpt lat="44.3633137" lon="7.7200027"><ele>507.59999999999997</ele><time>2026-05-03T08:27:05.315Z</time></trkpt><trkpt lat="44.3633526" lon="7.7199023"><ele>507.79999999999995</ele><time>2026-05-03T08:27:06.328Z</time></trkpt><trkpt lat="44.3633967" lon="7.719783"><ele>508.0</ele><time>2026-05-03T08:27:07.319Z</time></trkpt><trkpt lat="44.3634463" lon="7.7196435"><ele>508.0</ele><time>2026-05-03T08:27:08.313Z</time></trkpt><trkpt lat="44.3635" lon="7.7194843"><ele>508.0</ele><time>2026-05-03T08:27:09.323Z</time></trkpt><trkpt lat="44.363554" lon="7.7193157"><ele>508.0</ele><time>2026-05-03T08:27:10.311Z</time></trkpt><trkpt lat="44.3636083" lon="7.7191431"><ele>508.0</ele><time>2026-05-03T08:27:11.313Z</time></trkpt><trkpt lat="44.363661" lon="7.7189783"><ele>507.75</ele><time>2026-05-03T08:27:12.314Z</time></trkpt><trkpt lat="44.3637112" lon="7.7188212"><ele>507.5</ele><time>2026-05-03T08:27:13.328Z</time></trkpt><trkpt lat="44.3637577" lon="7.7186648"><ele>507.25</ele><time>2026-05-03T08:27:14.309Z</time></trkpt><trkpt lat="44.3638023" lon="7.71851"><ele>507.0</ele><time>2026-05-03T08:27:15.311Z</time></trkpt><trkpt lat="44.36385" lon="7.7183658"><ele>506.20000000000005</ele><time>2026-05-03T08:27:16.319Z</time></trkpt><trkpt lat="44.3639042" lon="7.718238"><ele>505.40000000000003</ele><time>2026-05-03T08:27:17.316Z</time></trkpt><trkpt lat="44.3639643" lon="7.7181262"><ele>504.59999999999997</ele><time>2026-05-03T08:27:18.311Z</time></trkpt><trkpt lat="44.364033" lon="7.7180302"><ele>503.79999999999995</ele><time>2026-05-03T08:27:19.315Z</time></trkpt><trkpt lat="44.3641102" lon="7.7179442"><ele>503.0</ele><time>2026-05-03T08:27:20.33Z</time></trkpt><trkpt lat="44.3641911" lon="7.7178793"><ele>503.0</ele><time>2026-05-03T08:27:21.314Z</time></trkpt><trkpt lat="44.3642715" lon="7.7178428"><ele>502.99999999999994</ele><time>2026-05-03T08:27:22.311Z</time></trkpt><trkpt lat="44.3643558" lon="7.7178369"><ele>502.99999999999994</ele><time>2026-05-03T08:27:23.316Z</time></trkpt><trkpt lat="44.3644478" lon="7.7178595"><ele>503.0</ele><time>2026-05-03T08:27:24.313Z</time></trkpt><trkpt lat="44.3645457" lon="7.7179107"><ele>503.0</ele><time>2026-05-03T08:27:25.31Z</time></trkpt><trkpt lat="44.3646497" lon="7.717985"><ele>502.75</ele><time>2026-05-03T08:27:26.312Z</time></trkpt><trkpt lat="44.3647593" lon="7.7180746"><ele>502.5</ele><time>2026-05-03T08:27:27.322Z</time></trkpt><trkpt lat="44.3648739" lon="7.7181723"><ele>502.25</ele><time>2026-05-03T08:27:28.319Z</time></trkpt><trkpt lat="44.3649932" lon="7.7182708"><ele>502.0</ele><time>2026-05-03T08:27:29.313Z</time></trkpt><trkpt lat="44.3651143" lon="7.7183737"><ele>502.0</ele><time>2026-05-03T08:27:30.312Z</time></trkpt><trkpt lat="44.3652349" lon="7.7184793"><ele>502.0</ele><time>2026-05-03T08:27:31.316Z</time></trkpt><trkpt lat="44.3653554" lon="7.7185841"><ele>502.0</ele><time>2026-05-03T08:27:32.321Z</time></trkpt><trkpt lat="44.3654793" lon="7.7186901"><ele>502.0</ele><time>2026-05-03T08:27:33.313Z</time></trkpt><trkpt lat="44.3656048" lon="7.7187976"><ele>502.0</ele><time>2026-05-03T08:27:34.315Z</time></trkpt><trkpt lat="44.3657328" lon="7.7189031"><ele>502.0</ele><time>2026-05-03T08:27:35.32Z</time></trkpt><trkpt lat="44.3658652" lon="7.7189986"><ele>502.0</ele><time>2026-05-03T08:27:36.31Z</time></trkpt><trkpt lat="44.3659984" lon="7.7190845"><ele>502.0</ele><time>2026-05-03T08:27:37.317Z</time></trkpt><trkpt lat="44.366127" lon="7.7191663"><ele>502.0</ele><time>2026-05-03T08:27:38.315Z</time></trkpt><trkpt lat="44.3662514" lon="7.7192463"><ele>502.0</ele><time>2026-05-03T08:27:39.333Z</time></trkpt><trkpt lat="44.3663713" lon="7.719326"><ele>502.0</ele><time>2026-05-03T08:27:40.353Z</time></trkpt><trkpt lat="44.3664825" lon="7.7194105"><ele>502.0</ele><time>2026-05-03T08:27:41.319Z</time></trkpt><trkpt lat="44.3665816" lon="7.7195004"><ele>501.33333333333337</ele><time>2026-05-03T08:27:42.316Z</time></trkpt><trkpt lat="44.3666645" lon="7.7195809"><ele>500.6666666666667</ele><time>2026-05-03T08:27:43.317Z</time></trkpt><trkpt lat="44.3667376" lon="7.7196466"><ele>500.0</ele><time>2026-05-03T08:27:44.311Z</time></trkpt><trkpt lat="44.366807" lon="7.7196913"><ele>499.33333333333337</ele><time>2026-05-03T08:27:45.313Z</time></trkpt><trkpt lat="44.3668751" lon="7.7197165"><ele>498.6666666666667</ele><time>2026-05-03T08:27:46.317Z</time></trkpt><trkpt lat="44.3669373" lon="7.719731"><ele>498.0</ele><time>2026-05-03T08:27:47.314Z</time></trkpt><trkpt lat="44.3670322" lon="7.7197557"><ele>498.0</ele><time>2026-05-03T08:27:49.314Z</time></trkpt><trkpt lat="44.3670985" lon="7.7197718"><ele>498.0</ele><time>2026-05-03T08:27:52.311Z</time></trkpt><trkpt lat="44.3671678" lon="7.7198725"><ele>498.0</ele><time>2026-05-03T08:28:15.375Z</time></trkpt><trkpt lat="44.3672042" lon="7.719965"><ele>498.0</ele><time>2026-05-03T08:28:16.331Z</time></trkpt><trkpt lat="44.3672403" lon="7.7200806"><ele>498.0</ele><time>2026-05-03T08:28:17.318Z</time></trkpt><trkpt lat="44.3672828" lon="7.7202127"><ele>498.0</ele><time>2026-05-03T08:28:18.312Z</time></trkpt><trkpt lat="44.3673352" lon="7.7203559"><ele>496.75</ele><time>2026-05-03T08:28:19.317Z</time></trkpt><trkpt lat="44.3673946" lon="7.7205092"><ele>495.5</ele><time>2026-05-03T08:28:20.309Z</time></trkpt><trkpt lat="44.36746" lon="7.7206725"><ele>494.25</ele><time>2026-05-03T08:28:21.312Z</time></trkpt><trkpt lat="44.3675325" lon="7.7208511"><ele>493.0</ele><time>2026-05-03T08:28:22.312Z</time></trkpt><trkpt lat="44.3676095" lon="7.721043"><ele>492.0</ele><time>2026-05-03T08:28:23.322Z</time></trkpt><trkpt lat="44.3676922" lon="7.7212465"><ele>491.0</ele><time>2026-05-03T08:28:24.314Z</time></trkpt><trkpt lat="44.3677782" lon="7.7214573"><ele>490.0</ele><time>2026-05-03T08:28:25.312Z</time></trkpt><trkpt lat="44.3678651" lon="7.7216694"><ele>490.0</ele><time>2026-05-03T08:28:26.313Z</time></trkpt><trkpt lat="44.3679498" lon="7.7218796"><ele>490.0</ele><time>2026-05-03T08:28:27.314Z</time></trkpt><trkpt lat="44.3680246" lon="7.7220814"><ele>490.0</ele><time>2026-05-03T08:28:28.308Z</time></trkpt><trkpt lat="44.3680853" lon="7.7222798"><ele>487.33333333333337</ele><time>2026-05-03T08:28:29.309Z</time></trkpt><trkpt lat="44.3681299" lon="7.7224787"><ele>484.66666666666663</ele><time>2026-05-03T08:28:30.318Z</time></trkpt><trkpt lat="44.3681579" lon="7.7226933"><ele>482.0</ele><time>2026-05-03T08:28:31.338Z</time></trkpt><trkpt lat="44.3681701" lon="7.7229214"><ele>482.0</ele><time>2026-05-03T08:28:32.352Z</time></trkpt><trkpt lat="44.368173" lon="7.7231592"><ele>482.0</ele><time>2026-05-03T08:28:33.33Z</time></trkpt><trkpt lat="44.3681735" lon="7.7234024"><ele>482.0</ele><time>2026-05-03T08:28:34.308Z</time></trkpt><trkpt lat="44.3681745" lon="7.7236475"><ele>482.3333333333333</ele><time>2026-05-03T08:28:35.307Z</time></trkpt><trkpt lat="44.3681768" lon="7.723894"><ele>482.66666666666663</ele><time>2026-05-03T08:28:36.354Z</time></trkpt><trkpt lat="44.3681793" lon="7.7241342"><ele>483.0</ele><time>2026-05-03T08:28:37.308Z</time></trkpt><trkpt lat="44.3681785" lon="7.7243564"><ele>484.25</ele><time>2026-05-03T08:28:38.306Z</time></trkpt><trkpt lat="44.3681729" lon="7.7245582"><ele>485.5</ele><time>2026-05-03T08:28:39.304Z</time></trkpt><trkpt lat="44.3681602" lon="7.7247523"><ele>486.75</ele><time>2026-05-03T08:28:40.311Z</time></trkpt><trkpt lat="44.3681359" lon="7.7249385"><ele>488.0</ele><time>2026-05-03T08:28:41.325Z</time></trkpt><trkpt lat="44.3680961" lon="7.7251187"><ele>487.75</ele><time>2026-05-03T08:28:42.307Z</time></trkpt><trkpt lat="44.3680363" lon="7.7252887"><ele>487.5</ele><time>2026-05-03T08:28:43.31Z</time></trkpt><trkpt lat="44.3679569" lon="7.7254469"><ele>487.25</ele><time>2026-05-03T08:28:44.332Z</time></trkpt><trkpt lat="44.3678618" lon="7.7255926"><ele>487.0</ele><time>2026-05-03T08:28:45.308Z</time></trkpt><trkpt lat="44.3677528" lon="7.7257265"><ele>487.0</ele><time>2026-05-03T08:28:46.308Z</time></trkpt><trkpt lat="44.3676346" lon="7.7258559"><ele>487.0</ele><time>2026-05-03T08:28:47.305Z</time></trkpt><trkpt lat="44.367513" lon="7.7259902"><ele>487.0</ele><time>2026-05-03T08:28:48.337Z</time></trkpt><trkpt lat="44.3673874" lon="7.7261281"><ele>487.6666666666667</ele><time>2026-05-03T08:28:49.324Z</time></trkpt><trkpt lat="44.3672578" lon="7.7262679"><ele>488.33333333333337</ele><time>2026-05-03T08:28:50.308Z</time></trkpt><trkpt lat="44.367125" lon="7.7264116"><ele>489.0</ele><time>2026-05-03T08:28:51.309Z</time></trkpt><trkpt lat="44.3669897" lon="7.72656"><ele>489.0</ele><time>2026-05-03T08:28:52.423Z</time></trkpt><trkpt lat="44.3667127" lon="7.7268636"><ele>489.0</ele><time>2026-05-03T08:28:54.311Z</time></trkpt><trkpt lat="44.3665745" lon="7.7270152"><ele>489.33333333333337</ele><time>2026-05-03T08:28:55.303Z</time></trkpt><trkpt lat="44.3664409" lon="7.7271709"><ele>489.6666666666667</ele><time>2026-05-03T08:28:56.308Z</time></trkpt><trkpt lat="44.3663172" lon="7.7273387"><ele>490.0</ele><time>2026-05-03T08:28:57.312Z</time></trkpt><trkpt lat="44.3662089" lon="7.7275201"><ele>490.0</ele><time>2026-05-03T08:28:58.31Z</time></trkpt><trkpt lat="44.3661126" lon="7.7277164"><ele>490.0</ele><time>2026-05-03T08:28:59.308Z</time></trkpt><trkpt lat="44.3660268" lon="7.7279225"><ele>490.0</ele><time>2026-05-03T08:29:00.337Z</time></trkpt><trkpt lat="44.3659492" lon="7.7281345"><ele>491.6666666666667</ele><time>2026-05-03T08:29:01.308Z</time></trkpt><trkpt lat="44.3658789" lon="7.7283438"><ele>493.33333333333337</ele><time>2026-05-03T08:29:02.308Z</time></trkpt><trkpt lat="44.3658155" lon="7.7285424"><ele>495.0</ele><time>2026-05-03T08:29:03.334Z</time></trkpt><trkpt lat="44.3657507" lon="7.7287433"><ele>497.33333333333337</ele><time>2026-05-03T08:29:04.307Z</time></trkpt><trkpt lat="44.3656858" lon="7.7289458"><ele>499.6666666666667</ele><time>2026-05-03T08:29:05.318Z</time></trkpt><trkpt lat="44.3656211" lon="7.7291528"><ele>502.0</ele><time>2026-05-03T08:29:06.314Z</time></trkpt><trkpt lat="44.3655568" lon="7.729366"><ele>499.6666666666667</ele><time>2026-05-03T08:29:07.321Z</time></trkpt><trkpt lat="44.3654927" lon="7.7295838"><ele>497.33333333333337</ele><time>2026-05-03T08:29:08.31Z</time></trkpt><trkpt lat="44.3654251" lon="7.729802"><ele>495.0</ele><time>2026-05-03T08:29:09.305Z</time></trkpt><trkpt lat="44.3653483" lon="7.730016"><ele>495.0</ele><time>2026-05-03T08:29:10.309Z</time></trkpt><trkpt lat="44.3652606" lon="7.7302227"><ele>495.0</ele><time>2026-05-03T08:29:11.307Z</time></trkpt><trkpt lat="44.3651649" lon="7.7304243"><ele>495.0</ele><time>2026-05-03T08:29:12.319Z</time></trkpt><trkpt lat="44.3650641" lon="7.7306231"><ele>497.33333333333337</ele><time>2026-05-03T08:29:13.302Z</time></trkpt><trkpt lat="44.3649626" lon="7.7308233"><ele>499.6666666666667</ele><time>2026-05-03T08:29:14.311Z</time></trkpt><trkpt lat="44.3648602" lon="7.7310242"><ele>502.0</ele><time>2026-05-03T08:29:15.314Z</time></trkpt><trkpt lat="44.3647555" lon="7.7312245"><ele>502.33333333333337</ele><time>2026-05-03T08:29:16.322Z</time></trkpt><trkpt lat="44.3646494" lon="7.7314244"><ele>502.66666666666663</ele><time>2026-05-03T08:29:17.321Z</time></trkpt><trkpt lat="44.3645431" lon="7.7316235"><ele>503.0</ele><time>2026-05-03T08:29:18.315Z</time></trkpt><trkpt lat="44.3644383" lon="7.7318251"><ele>505.3333333333333</ele><time>2026-05-03T08:29:19.312Z</time></trkpt><trkpt lat="44.3643345" lon="7.7320296"><ele>507.66666666666663</ele><time>2026-05-03T08:29:20.322Z</time></trkpt><trkpt lat="44.3642307" lon="7.7322358"><ele>510.0</ele><time>2026-05-03T08:29:21.327Z</time></trkpt><trkpt lat="44.3641265" lon="7.7324441"><ele>510.0</ele><time>2026-05-03T08:29:22.334Z</time></trkpt><trkpt lat="44.3640178" lon="7.7326529"><ele>510.0</ele><time>2026-05-03T08:29:23.327Z</time></trkpt><trkpt lat="44.3638996" lon="7.7328583"><ele>510.0</ele><time>2026-05-03T08:29:24.307Z</time></trkpt><trkpt lat="44.3637699" lon="7.7330545"><ele>509.66666666666663</ele><time>2026-05-03T08:29:25.333Z</time></trkpt><trkpt lat="44.3636252" lon="7.7332417"><ele>509.3333333333333</ele><time>2026-05-03T08:29:26.311Z</time></trkpt><trkpt lat="44.3634685" lon="7.7334226"><ele>509.0</ele><time>2026-05-03T08:29:27.327Z</time></trkpt><trkpt lat="44.3633039" lon="7.7335965"><ele>510.3333333333333</ele><time>2026-05-03T08:29:28.317Z</time></trkpt><trkpt lat="44.3631365" lon="7.7337634"><ele>511.66666666666663</ele><time>2026-05-03T08:29:29.327Z</time></trkpt><trkpt lat="44.3629704" lon="7.7339246"><ele>513.0</ele><time>2026-05-03T08:29:30.311Z</time></trkpt><trkpt lat="44.3628097" lon="7.7340804"><ele>513.0</ele><time>2026-05-03T08:29:31.321Z</time></trkpt><trkpt lat="44.3626558" lon="7.7342369"><ele>513.0</ele><time>2026-05-03T08:29:32.325Z</time></trkpt><trkpt lat="44.3625131" lon="7.7344021"><ele>513.0</ele><time>2026-05-03T08:29:33.314Z</time></trkpt><trkpt lat="44.3623815" lon="7.7345711"><ele>513.5</ele><time>2026-05-03T08:29:34.307Z</time></trkpt><trkpt lat="44.3622665" lon="7.7347294"><ele>514.0</ele><time>2026-05-03T08:29:35.307Z</time></trkpt><trkpt lat="44.362169" lon="7.7348685"><ele>514.5</ele><time>2026-05-03T08:29:36.315Z</time></trkpt><trkpt lat="44.3620806" lon="7.7349921"><ele>515.0</ele><time>2026-05-03T08:29:37.304Z</time></trkpt><trkpt lat="44.3619984" lon="7.7351072"><ele>515.0</ele><time>2026-05-03T08:29:38.303Z</time></trkpt><trkpt lat="44.3619175" lon="7.7352205"><ele>515.0</ele><time>2026-05-03T08:29:39.385Z</time></trkpt><trkpt lat="44.3618336" lon="7.7353358"><ele>515.0</ele><time>2026-05-03T08:29:40.324Z</time></trkpt><trkpt lat="44.3617463" lon="7.7354496"><ele>515.0</ele><time>2026-05-03T08:29:41.313Z</time></trkpt><trkpt lat="44.3616577" lon="7.7355605"><ele>515.6</ele><time>2026-05-03T08:29:42.317Z</time></trkpt><trkpt lat="44.3615722" lon="7.7356651"><ele>516.2</ele><time>2026-05-03T08:29:43.307Z</time></trkpt><trkpt lat="44.3614918" lon="7.7357591"><ele>516.8</ele><time>2026-05-03T08:29:44.311Z</time></trkpt><trkpt lat="44.3614124" lon="7.7358495"><ele>517.4</ele><time>2026-05-03T08:29:45.312Z</time></trkpt><trkpt lat="44.3613304" lon="7.7359419"><ele>518.0</ele><time>2026-05-03T08:29:46.315Z</time></trkpt><trkpt lat="44.3612478" lon="7.7360329"><ele>521.0</ele><time>2026-05-03T08:29:47.31Z</time></trkpt><trkpt lat="44.3611691" lon="7.7361031"><ele>524.0</ele><time>2026-05-03T08:29:48.309Z</time></trkpt><trkpt lat="44.3610826" lon="7.736188"><ele>527.0</ele><time>2026-05-03T08:29:49.316Z</time></trkpt><trkpt lat="44.3609936" lon="7.7362744"><ele>530.0</ele><time>2026-05-03T08:29:50.304Z</time></trkpt><trkpt lat="44.3609122" lon="7.7363531"><ele>533.0</ele><time>2026-05-03T08:29:51.309Z</time></trkpt><trkpt lat="44.3608407" lon="7.7364188"><ele>533.0</ele><time>2026-05-03T08:29:52.313Z</time></trkpt><trkpt lat="44.3607809" lon="7.7364765"><ele>533.0</ele><time>2026-05-03T08:29:53.309Z</time></trkpt><trkpt lat="44.3607278" lon="7.7365262"><ele>533.0</ele><time>2026-05-03T08:29:54.305Z</time></trkpt><trkpt lat="44.3606274" lon="7.7366065"><ele>533.0</ele><time>2026-05-03T08:29:56.305Z</time></trkpt><trkpt lat="44.3605119" lon="7.736658"><ele>533.0</ele><time>2026-05-03T08:29:58.311Z</time></trkpt><trkpt lat="44.3604508" lon="7.7366813"><ele>533.0</ele><time>2026-05-03T08:29:59.309Z</time></trkpt><trkpt lat="44.3603261" lon="7.7367271"><ele>531.7142857142857</ele><time>2026-05-03T08:30:01.33Z</time></trkpt><trkpt lat="44.3602561" lon="7.7367552"><ele>530.4285714285713</ele><time>2026-05-03T08:30:02.305Z</time></trkpt><trkpt lat="44.360192" lon="7.7367782"><ele>529.1428571428571</ele><time>2026-05-03T08:30:03.307Z</time></trkpt><trkpt lat="44.3601258" lon="7.7367796"><ele>527.8571428571429</ele><time>2026-05-03T08:30:04.308Z</time></trkpt><trkpt lat="44.3600546" lon="7.7367798"><ele>526.5714285714287</ele><time>2026-05-03T08:30:05.313Z</time></trkpt><trkpt lat="44.3599811" lon="7.7367702"><ele>525.2857142857143</ele><time>2026-05-03T08:30:06.314Z</time></trkpt><trkpt lat="44.3598895" lon="7.7367493"><ele>524.0</ele><time>2026-05-03T08:30:07.306Z</time></trkpt><trkpt lat="44.3598093" lon="7.7367569"><ele>524.0</ele><time>2026-05-03T08:30:08.31Z</time></trkpt><trkpt lat="44.3597332" lon="7.7367807"><ele>524.0</ele><time>2026-05-03T08:30:09.33Z</time></trkpt><trkpt lat="44.3596626" lon="7.7368177"><ele>524.0</ele><time>2026-05-03T08:30:10.306Z</time></trkpt><trkpt lat="44.3595863" lon="7.736854"><ele>524.0</ele><time>2026-05-03T08:30:11.306Z</time></trkpt><trkpt lat="44.3595104" lon="7.7368408"><ele>524.0</ele><time>2026-05-03T08:30:12.311Z</time></trkpt><trkpt lat="44.3594453" lon="7.7368297"><ele>524.0</ele><time>2026-05-03T08:30:13.31Z</time></trkpt><trkpt lat="44.3593516" lon="7.7368683"><ele>525.2</ele><time>2026-05-03T08:30:15.316Z</time></trkpt><trkpt lat="44.3592781" lon="7.7369885"><ele>526.4</ele><time>2026-05-03T08:30:17.306Z</time></trkpt><trkpt lat="44.3592088" lon="7.7370633"><ele>527.6</ele><time>2026-05-03T08:30:19.307Z</time></trkpt><trkpt lat="44.3591367" lon="7.7370696"><ele>528.8</ele><time>2026-05-03T08:30:21.304Z</time></trkpt><trkpt lat="44.3590146" lon="7.7369835"><ele>530.0</ele><time>2026-05-03T08:30:23.312Z</time></trkpt><trkpt lat="44.3589497" lon="7.7369053"><ele>529.5714285714286</ele><time>2026-05-03T08:30:24.311Z</time></trkpt><trkpt lat="44.3588826" lon="7.7368253"><ele>529.1428571428571</ele><time>2026-05-03T08:30:25.309Z</time></trkpt><trkpt lat="44.3588334" lon="7.736765"><ele>528.7142857142858</ele><time>2026-05-03T08:30:26.311Z</time></trkpt><trkpt lat="44.3587384" lon="7.736729"><ele>528.2857142857142</ele><time>2026-05-03T08:30:28.309Z</time></trkpt><trkpt lat="44.358675" lon="7.7367407"><ele>527.8571428571429</ele><time>2026-05-03T08:30:29.311Z</time></trkpt><trkpt lat="44.358613" lon="7.7367637"><ele>527.4285714285714</ele><time>2026-05-03T08:30:30.315Z</time></trkpt><trkpt lat="44.3585491" lon="7.7367869"><ele>527.0</ele><time>2026-05-03T08:30:31.306Z</time></trkpt><trkpt lat="44.3584389" lon="7.7368099"><ele>527.0</ele><time>2026-05-03T08:30:33.312Z</time></trkpt><trkpt lat="44.3583574" lon="7.7368224"><ele>527.0</ele><time>2026-05-03T08:30:34.312Z</time></trkpt><trkpt lat="44.3582366" lon="7.7367564"><ele>527.0</ele><time>2026-05-03T08:30:36.304Z</time></trkpt><trkpt lat="44.3581201" lon="7.7366815"><ele>527.0</ele><time>2026-05-03T08:30:38.346Z</time></trkpt><trkpt lat="44.3580597" lon="7.7366207"><ele>527.0</ele><time>2026-05-03T08:30:39.315Z</time></trkpt><trkpt lat="44.3579977" lon="7.7365664"><ele>526.6666666666666</ele><time>2026-05-03T08:30:40.303Z</time></trkpt><trkpt lat="44.3579278" lon="7.7364919"><ele>526.3333333333333</ele><time>2026-05-03T08:30:41.313Z</time></trkpt><trkpt lat="44.3578667" lon="7.7364278"><ele>526.0</ele><time>2026-05-03T08:30:42.323Z</time></trkpt><trkpt lat="44.357793" lon="7.736376"><ele>525.6666666666666</ele><time>2026-05-03T08:30:43.336Z</time></trkpt><trkpt lat="44.3576921" lon="7.7363544"><ele>525.3333333333334</ele><time>2026-05-03T08:30:44.308Z</time></trkpt><trkpt lat="44.3576012" lon="7.7363581"><ele>525.0</ele><time>2026-05-03T08:30:45.31Z</time></trkpt><trkpt lat="44.3575228" lon="7.7363907"><ele>525.0</ele><time>2026-05-03T08:30:46.312Z</time></trkpt><trkpt lat="44.357443" lon="7.7364178"><ele>525.0</ele><time>2026-05-03T08:30:47.324Z</time></trkpt><trkpt lat="44.3573763" lon="7.7364331"><ele>525.0</ele><time>2026-05-03T08:30:48.312Z</time></trkpt><trkpt lat="44.3572629" lon="7.7364382"><ele>525.0</ele><time>2026-05-03T08:30:50.303Z</time></trkpt><trkpt lat="44.3571546" lon="7.7364336"><ele>525.0</ele><time>2026-05-03T08:30:52.31Z</time></trkpt><trkpt lat="44.35707" lon="7.7363579"><ele>525.1666666666666</ele><time>2026-05-03T08:30:54.311Z</time></trkpt><trkpt lat="44.3570123" lon="7.7362997"><ele>525.3333333333334</ele><time>2026-05-03T08:30:55.313Z</time></trkpt><trkpt lat="44.356941" lon="7.7362801"><ele>525.5</ele><time>2026-05-03T08:30:56.306Z</time></trkpt><trkpt lat="44.3568488" lon="7.7362572"><ele>525.6666666666667</ele><time>2026-05-03T08:30:58.318Z</time></trkpt><trkpt lat="44.3568069" lon="7.7361521"><ele>525.8333333333334</ele><time>2026-05-03T08:31:01.33Z</time></trkpt><trkpt lat="44.3567969" lon="7.736048"><ele>526.0</ele><time>2026-05-03T08:31:03.331Z</time></trkpt><trkpt lat="44.3568065" lon="7.7359497"><ele>526.0</ele><time>2026-05-03T08:31:05.312Z</time></trkpt><trkpt lat="44.3567395" lon="7.7359278"><ele>526.0</ele><time>2026-05-03T08:32:15.356Z</time></trkpt><trkpt lat="44.3566804" lon="7.7358948"><ele>526.0</ele><time>2026-05-03T08:32:18.566Z</time></trkpt><trkpt lat="44.3566247" lon="7.7358114"><ele>526.0</ele><time>2026-05-03T08:32:21.327Z</time></trkpt><trkpt lat="44.3565441" lon="7.7356835"><ele>526.0</ele><time>2026-05-03T08:32:23.318Z</time></trkpt><trkpt lat="44.3564938" lon="7.735612"><ele>526.0</ele><time>2026-05-03T08:32:24.309Z</time></trkpt><trkpt lat="44.3564497" lon="7.735539"><ele>526.0</ele><time>2026-05-03T08:32:25.317Z</time></trkpt><trkpt lat="44.3564119" lon="7.7354622"><ele>526.0</ele><time>2026-05-03T08:32:26.326Z</time></trkpt><trkpt lat="44.3563824" lon="7.7353812"><ele>526.0</ele><time>2026-05-03T08:32:27.305Z</time></trkpt><trkpt lat="44.3563671" lon="7.7352926"><ele>526.0</ele><time>2026-05-03T08:32:28.317Z</time></trkpt><trkpt lat="44.3563589" lon="7.7351962"><ele>526.0</ele><time>2026-05-03T08:32:29.321Z</time></trkpt><trkpt lat="44.3563529" lon="7.7350988"><ele>526.0</ele><time>2026-05-03T08:32:30.305Z</time></trkpt><trkpt lat="44.3563284" lon="7.7349671"><ele>526.0</ele><time>2026-05-03T08:32:32.316Z</time></trkpt><trkpt lat="44.3563034" lon="7.7351018"><ele>527.0</ele><time>2026-05-03T08:32:36.358Z</time></trkpt><trkpt lat="44.3563051" lon="7.7351941"><ele>528.0</ele><time>2026-05-03T08:32:37.312Z</time></trkpt><trkpt lat="44.3562916" lon="7.7352811"><ele>529.0</ele><time>2026-05-03T08:32:38.309Z</time></trkpt><trkpt lat="44.3562716" lon="7.7354166"><ele>530.0</ele><time>2026-05-03T08:32:40.316Z</time></trkpt><trkpt lat="44.3562714" lon="7.7355671"><ele>531.0</ele><time>2026-05-03T08:32:42.341Z</time></trkpt><trkpt lat="44.3562785" lon="7.7357277"><ele>531.0</ele><time>2026-05-03T08:32:44.308Z</time></trkpt><trkpt lat="44.3562571" lon="7.7358361"><ele>531.0</ele><time>2026-05-03T08:32:47.313Z</time></trkpt><trkpt lat="44.3561641" lon="7.7358999"><ele>531.0</ele><time>2026-05-03T08:32:49.314Z</time></trkpt><trkpt lat="44.356075" lon="7.7358732"><ele>531.0</ele><time>2026-05-03T08:32:52.32Z</time></trkpt><trkpt lat="44.3559853" lon="7.7358323"><ele>531.0</ele><time>2026-05-03T08:32:54.335Z</time></trkpt><trkpt lat="44.3558614" lon="7.7358439"><ele>531.0</ele><time>2026-05-03T08:32:56.322Z</time></trkpt><trkpt lat="44.3557728" lon="7.7358553"><ele>531.0</ele><time>2026-05-03T08:32:57.312Z</time></trkpt><trkpt lat="44.3556865" lon="7.7358777"><ele>531.0</ele><time>2026-05-03T08:32:58.32Z</time></trkpt><trkpt lat="44.3556126" lon="7.7358983"><ele>531.0</ele><time>2026-05-03T08:32:59.311Z</time></trkpt><trkpt lat="44.3555457" lon="7.7359095"><ele>531.0</ele><time>2026-05-03T08:33:00.309Z</time></trkpt><trkpt lat="44.3554804" lon="7.7359119"><ele>531.0</ele><time>2026-05-03T08:33:01.325Z</time></trkpt><trkpt lat="44.3554027" lon="7.7358983"><ele>531.0</ele><time>2026-05-03T08:33:02.304Z</time></trkpt><trkpt lat="44.3553221" lon="7.7358812"><ele>531.0</ele><time>2026-05-03T08:33:03.303Z</time></trkpt><trkpt lat="44.3552417" lon="7.7358668"><ele>531.0</ele><time>2026-05-03T08:33:04.308Z</time></trkpt><trkpt lat="44.3551675" lon="7.7358505"><ele>531.0</ele><time>2026-05-03T08:33:05.309Z</time></trkpt><trkpt lat="44.355096" lon="7.7358382"><ele>531.0</ele><time>2026-05-03T08:33:06.316Z</time></trkpt><trkpt lat="44.3550282" lon="7.7358193"><ele>531.0</ele><time>2026-05-03T08:33:07.309Z</time></trkpt><trkpt lat="44.3549481" lon="7.7357893"><ele>531.0</ele><time>2026-05-03T08:33:08.309Z</time></trkpt><trkpt lat="44.354865" lon="7.7357406"><ele>531.0</ele><time>2026-05-03T08:33:09.315Z</time></trkpt><trkpt lat="44.3547976" lon="7.735683"><ele>531.0</ele><time>2026-05-03T08:33:10.305Z</time></trkpt><trkpt lat="44.3547295" lon="7.7356208"><ele>531.0</ele><time>2026-05-03T08:33:11.313Z</time></trkpt><trkpt lat="44.3546591" lon="7.7355617"><ele>531.0</ele><time>2026-05-03T08:33:12.308Z</time></trkpt><trkpt lat="44.3545813" lon="7.7354962"><ele>531.0</ele><time>2026-05-03T08:33:13.31Z</time></trkpt><trkpt lat="44.3544974" lon="7.735425"><ele>532.4</ele><time>2026-05-03T08:33:14.343Z</time></trkpt><trkpt lat="44.3544116" lon="7.735351"><ele>533.8</ele><time>2026-05-03T08:33:15.328Z</time></trkpt><trkpt lat="44.354327" lon="7.7352799"><ele>535.1999999999999</ele><time>2026-05-03T08:33:16.314Z</time></trkpt><trkpt lat="44.3542421" lon="7.7352183"><ele>536.6</ele><time>2026-05-03T08:33:17.323Z</time></trkpt><trkpt lat="44.3541445" lon="7.7351462"><ele>538.0</ele><time>2026-05-03T08:33:18.324Z</time></trkpt><trkpt lat="44.3540431" lon="7.735061"><ele>538.4</ele><time>2026-05-03T08:33:19.318Z</time></trkpt><trkpt lat="44.3539391" lon="7.7349626"><ele>538.8</ele><time>2026-05-03T08:33:20.313Z</time></trkpt><trkpt lat="44.3538409" lon="7.7348691"><ele>539.2</ele><time>2026-05-03T08:33:21.315Z</time></trkpt><trkpt lat="44.3537507" lon="7.7347858"><ele>539.6</ele><time>2026-05-03T08:33:22.329Z</time></trkpt><trkpt lat="44.3536708" lon="7.7347135"><ele>540.0</ele><time>2026-05-03T08:33:23.307Z</time></trkpt><trkpt lat="44.353604" lon="7.7346409"><ele>540.3333333333334</ele><time>2026-05-03T08:33:24.307Z</time></trkpt><trkpt lat="44.3535327" lon="7.7345481"><ele>540.6666666666666</ele><time>2026-05-03T08:33:26.306Z</time></trkpt><trkpt lat="44.3534983" lon="7.7344491"><ele>541.0</ele><time>2026-05-03T08:33:46.314Z</time></trkpt><trkpt lat="44.3534953" lon="7.7343476"><ele>541.3333333333333</ele><time>2026-05-03T08:33:48.384Z</time></trkpt><trkpt lat="44.3535087" lon="7.7342235"><ele>541.6666666666666</ele><time>2026-05-03T08:33:50.307Z</time></trkpt><trkpt lat="44.3535202" lon="7.7341069"><ele>542.0</ele><time>2026-05-03T08:33:52.323Z</time></trkpt><trkpt lat="44.3534774" lon="7.7340168"><ele>542.0</ele><time>2026-05-03T08:33:54.321Z</time></trkpt><trkpt lat="44.3534187" lon="7.7339367"><ele>542.0</ele><time>2026-05-03T08:33:56.325Z</time></trkpt><trkpt lat="44.3534032" lon="7.7338486"><ele>542.0</ele><time>2026-05-03T08:33:58.306Z</time></trkpt><trkpt lat="44.3534093" lon="7.7337242"><ele>542.0</ele><time>2026-05-03T08:34:00.341Z</time></trkpt><trkpt lat="44.3534323" lon="7.7335562"><ele>542.0</ele><time>2026-05-03T08:34:02.318Z</time></trkpt><trkpt lat="44.3534376" lon="7.7333812"><ele>544.2</ele><time>2026-05-03T08:34:04.309Z</time></trkpt><trkpt lat="44.3534285" lon="7.733291"><ele>546.4000000000001</ele><time>2026-05-03T08:34:05.313Z</time></trkpt><trkpt lat="44.3534168" lon="7.7331638"><ele>548.5999999999999</ele><time>2026-05-03T08:34:07.311Z</time></trkpt><trkpt lat="44.3534177" lon="7.7330481"><ele>550.8</ele><time>2026-05-03T08:34:09.304Z</time></trkpt><trkpt lat="44.3534483" lon="7.7329294"><ele>553.0</ele><time>2026-05-03T08:34:11.322Z</time></trkpt><trkpt lat="44.3534816" lon="7.7327655"><ele>553.6666666666667</ele><time>2026-05-03T08:34:13.322Z</time></trkpt><trkpt lat="44.3534983" lon="7.7326621"><ele>554.3333333333334</ele><time>2026-05-03T08:34:14.323Z</time></trkpt><trkpt lat="44.3535214" lon="7.7325643"><ele>555.0</ele><time>2026-05-03T08:34:15.32Z</time></trkpt><trkpt lat="44.3535422" lon="7.7324685"><ele>555.6666666666666</ele><time>2026-05-03T08:34:16.326Z</time></trkpt><trkpt lat="44.3535679" lon="7.7323597"><ele>556.3333333333333</ele><time>2026-05-03T08:34:17.308Z</time></trkpt><trkpt lat="44.3535906" lon="7.732274"><ele>557.0</ele><time>2026-05-03T08:34:18.31Z</time></trkpt><trkpt lat="44.353639" lon="7.7321014"><ele>557.0</ele><time>2026-05-03T08:34:20.304Z</time></trkpt><trkpt lat="44.3536786" lon="7.7320052"><ele>557.0</ele><time>2026-05-03T08:34:21.311Z</time></trkpt><trkpt lat="44.3537325" lon="7.7319336"><ele>557.0</ele><time>2026-05-03T08:34:22.319Z</time></trkpt><trkpt lat="44.3538007" lon="7.731849"><ele>557.0</ele><time>2026-05-03T08:34:24.302Z</time></trkpt><trkpt lat="44.353837" lon="7.7317637"><ele>557.0</ele><time>2026-05-03T08:34:26.314Z</time></trkpt><trkpt lat="44.3538133" lon="7.7316673"><ele>557.0</ele><time>2026-05-03T08:34:28.317Z</time></trkpt><trkpt lat="44.3536892" lon="7.7315378"><ele>558.3333333333333</ele><time>2026-05-03T08:34:30.311Z</time></trkpt><trkpt lat="44.3536332" lon="7.7314408"><ele>559.6666666666666</ele><time>2026-05-03T08:34:31.342Z</time></trkpt><trkpt lat="44.3535967" lon="7.7313571"><ele>561.0</ele><time>2026-05-03T08:34:32.316Z</time></trkpt><trkpt lat="44.3535691" lon="7.7312044"><ele>562.3333333333334</ele><time>2026-05-03T08:34:34.329Z</time></trkpt><trkpt lat="44.3535896" lon="7.7310967"><ele>563.6666666666667</ele><time>2026-05-03T08:34:35.305Z</time></trkpt><trkpt lat="44.3536419" lon="7.7309932"><ele>565.0</ele><time>2026-05-03T08:34:36.305Z</time></trkpt><trkpt lat="44.3537074" lon="7.7308893"><ele>566.0</ele><time>2026-05-03T08:34:37.324Z</time></trkpt><trkpt lat="44.3537724" lon="7.7307898"><ele>567.0</ele><time>2026-05-03T08:34:38.319Z</time></trkpt><trkpt lat="44.3538237" lon="7.7306987"><ele>568.0</ele><time>2026-05-03T08:34:39.312Z</time></trkpt><trkpt lat="44.3538589" lon="7.7306032"><ele>569.0</ele><time>2026-05-03T08:34:40.316Z</time></trkpt><trkpt lat="44.3538899" lon="7.7304987"><ele>570.0</ele><time>2026-05-03T08:34:41.324Z</time></trkpt><trkpt lat="44.3539286" lon="7.7303953"><ele>571.0</ele><time>2026-05-03T08:34:42.325Z</time></trkpt><trkpt lat="44.3539723" lon="7.7302999"><ele>573.0</ele><time>2026-05-03T08:34:43.306Z</time></trkpt><trkpt lat="44.3540073" lon="7.7301573"><ele>575.0</ele><time>2026-05-03T08:34:45.343Z</time></trkpt><trkpt lat="44.3539744" lon="7.7300796"><ele>577.0</ele><time>2026-05-03T08:34:48.33Z</time></trkpt><trkpt lat="44.3538715" lon="7.7300721"><ele>579.0</ele><time>2026-05-03T08:34:50.338Z</time></trkpt><trkpt lat="44.3538042" lon="7.7300761"><ele>581.0</ele><time>2026-05-03T08:34:51.329Z</time></trkpt><trkpt lat="44.3537381" lon="7.7300682"><ele>583.0</ele><time>2026-05-03T08:34:52.318Z</time></trkpt><trkpt lat="44.3536453" lon="7.7300319"><ele>583.0</ele><time>2026-05-03T08:34:53.323Z</time></trkpt><trkpt lat="44.3535515" lon="7.7299739"><ele>583.0</ele><time>2026-05-03T08:34:54.33Z</time></trkpt><trkpt lat="44.3534705" lon="7.7299192"><ele>583.0</ele><time>2026-05-03T08:34:55.325Z</time></trkpt><trkpt lat="44.3534056" lon="7.7298786"><ele>583.0</ele><time>2026-05-03T08:34:56.307Z</time></trkpt><trkpt lat="44.3533299" lon="7.7298056"><ele>583.0</ele><time>2026-05-03T08:34:58.319Z</time></trkpt><trkpt lat="44.3532671" lon="7.7296926"><ele>583.0</ele><time>2026-05-03T08:35:00.322Z</time></trkpt><trkpt lat="44.3532711" lon="7.7295536"><ele>583.0</ele><time>2026-05-03T08:35:02.319Z</time></trkpt><trkpt lat="44.3532926" lon="7.7293869"><ele>583.0</ele><time>2026-05-03T08:35:04.311Z</time></trkpt><trkpt lat="44.3533266" lon="7.7293058"><ele>583.0</ele><time>2026-05-03T08:35:05.305Z</time></trkpt><trkpt lat="44.353359" lon="7.7292289"><ele>583.0</ele><time>2026-05-03T08:35:06.309Z</time></trkpt><trkpt lat="44.3533733" lon="7.7291036"><ele>583.0</ele><time>2026-05-03T08:35:08.321Z</time></trkpt><trkpt lat="44.3533688" lon="7.7290128"><ele>584.1666666666667</ele><time>2026-05-03T08:35:10.305Z</time></trkpt><trkpt lat="44.3533605" lon="7.7288936"><ele>585.3333333333334</ele><time>2026-05-03T08:35:22.307Z</time></trkpt><trkpt lat="44.3533238" lon="7.728774"><ele>586.5</ele><time>2026-05-03T08:35:39.311Z</time></trkpt><trkpt lat="44.3532851" lon="7.7286972"><ele>587.6666666666666</ele><time>2026-05-03T08:35:41.371Z</time></trkpt><trkpt lat="44.353229" lon="7.7286133"><ele>588.8333333333333</ele><time>2026-05-03T08:35:43.308Z</time></trkpt><trkpt lat="44.3531718" lon="7.7285459"><ele>590.0</ele><time>2026-05-03T08:35:45.34Z</time></trkpt><trkpt lat="44.3530784" lon="7.7284109"><ele>590.6</ele><time>2026-05-03T08:35:47.32Z</time></trkpt><trkpt lat="44.3530323" lon="7.728325"><ele>591.2</ele><time>2026-05-03T08:35:48.307Z</time></trkpt><trkpt lat="44.3529903" lon="7.728215"><ele>591.8</ele><time>2026-05-03T08:35:49.337Z</time></trkpt><trkpt lat="44.3529481" lon="7.7280635"><ele>592.4</ele><time>2026-05-03T08:35:50.311Z</time></trkpt><trkpt lat="44.3529078" lon="7.727917"><ele>593.0</ele><time>2026-05-03T08:35:51.323Z</time></trkpt><trkpt lat="44.3528539" lon="7.7277839"><ele>593.4</ele><time>2026-05-03T08:35:52.304Z</time></trkpt><trkpt lat="44.3528183" lon="7.7276757"><ele>593.8</ele><time>2026-05-03T08:35:53.314Z</time></trkpt><trkpt lat="44.3527917" lon="7.7275426"><ele>594.2</ele><time>2026-05-03T08:35:54.307Z</time></trkpt><trkpt lat="44.3527692" lon="7.7274022"><ele>594.6</ele><time>2026-05-03T08:35:55.316Z</time></trkpt><trkpt lat="44.3527479" lon="7.7272578"><ele>595.0</ele><time>2026-05-03T08:35:56.304Z</time></trkpt><trkpt lat="44.3527339" lon="7.7271171"><ele>595.0</ele><time>2026-05-03T08:35:57.31Z</time></trkpt><trkpt lat="44.3527194" lon="7.7269928"><ele>595.0</ele><time>2026-05-03T08:35:58.316Z</time></trkpt><trkpt lat="44.3527008" lon="7.7268485"><ele>595.0</ele><time>2026-05-03T08:35:59.309Z</time></trkpt><trkpt lat="44.3526902" lon="7.7267211"><ele>595.0</ele><time>2026-05-03T08:36:00.315Z</time></trkpt><trkpt lat="44.3526824" lon="7.7265882"><ele>595.0</ele><time>2026-05-03T08:36:01.316Z</time></trkpt><trkpt lat="44.3526735" lon="7.7264885"><ele>594.8</ele><time>2026-05-03T08:36:02.306Z</time></trkpt><trkpt lat="44.3526657" lon="7.7263895"><ele>594.6</ele><time>2026-05-03T08:36:03.311Z</time></trkpt><trkpt lat="44.3526515" lon="7.7262545"><ele>594.4</ele><time>2026-05-03T08:36:05.313Z</time></trkpt><trkpt lat="44.3526134" lon="7.7261188"><ele>594.2</ele><time>2026-05-03T08:36:07.32Z</time></trkpt><trkpt lat="44.3525982" lon="7.7260322"><ele>594.0</ele><time>2026-05-03T08:36:08.307Z</time></trkpt><trkpt lat="44.3525613" lon="7.7258647"><ele>593.4</ele><time>2026-05-03T08:36:10.312Z</time></trkpt><trkpt lat="44.3525516" lon="7.7257756"><ele>592.8</ele><time>2026-05-03T08:36:11.306Z</time></trkpt><trkpt lat="44.3525303" lon="7.7256302"><ele>592.2</ele><time>2026-05-03T08:36:13.314Z</time></trkpt><trkpt lat="44.3525187" lon="7.7255319"><ele>591.6</ele><time>2026-05-03T08:36:15.307Z</time></trkpt><trkpt lat="44.3525523" lon="7.725357"><ele>591.0</ele><time>2026-05-03T08:36:17.336Z</time></trkpt><trkpt lat="44.352571" lon="7.7251929"><ele>590.5</ele><time>2026-05-03T08:36:18.311Z</time></trkpt><trkpt lat="44.3525922" lon="7.7250828"><ele>590.0</ele><time>2026-05-03T08:36:19.308Z</time></trkpt><trkpt lat="44.3526215" lon="7.7249726"><ele>589.5</ele><time>2026-05-03T08:36:20.304Z</time></trkpt><trkpt lat="44.3526257" lon="7.7248675"><ele>589.0</ele><time>2026-05-03T08:36:21.316Z</time></trkpt><trkpt lat="44.3526184" lon="7.7247495"><ele>588.5</ele><time>2026-05-03T08:36:22.32Z</time></trkpt><trkpt lat="44.3526166" lon="7.7246588"><ele>588.0</ele><time>2026-05-03T08:36:23.313Z</time></trkpt><trkpt lat="44.3526373" lon="7.7245027"><ele>588.4</ele><time>2026-05-03T08:36:25.311Z</time></trkpt><trkpt lat="44.3526231" lon="7.724341"><ele>588.8</ele><time>2026-05-03T08:36:27.315Z</time></trkpt><trkpt lat="44.3525969" lon="7.7242152"><ele>589.2</ele><time>2026-05-03T08:36:29.318Z</time></trkpt><trkpt lat="44.3526034" lon="7.7241263"><ele>589.6</ele><time>2026-05-03T08:45:38.338Z</time></trkpt><trkpt lat="44.3525282" lon="7.7240267"><ele>590.0</ele><time>2026-05-03T08:45:46.369Z</time></trkpt><trkpt lat="44.352452" lon="7.723907"><ele>590.0</ele><time>2026-05-03T08:45:48.443Z</time></trkpt><trkpt lat="44.3523463" lon="7.7237772"><ele>590.0</ele><time>2026-05-03T08:45:50.309Z</time></trkpt><trkpt lat="44.3522934" lon="7.7237218"><ele>590.0</ele><time>2026-05-03T08:45:51.314Z</time></trkpt><trkpt lat="44.3522171" lon="7.7236388"><ele>590.0</ele><time>2026-05-03T08:45:53.309Z</time></trkpt><trkpt lat="44.3521624" lon="7.7235404"><ele>590.0</ele><time>2026-05-03T08:45:55.305Z</time></trkpt><trkpt lat="44.352108" lon="7.7234372"><ele>592.6</ele><time>2026-05-03T08:45:57.308Z</time></trkpt><trkpt lat="44.352031" lon="7.7233496"><ele>595.2</ele><time>2026-05-03T08:45:59.32Z</time></trkpt><trkpt lat="44.3519372" lon="7.7232631"><ele>597.8</ele><time>2026-05-03T08:46:01.309Z</time></trkpt><trkpt lat="44.3518543" lon="7.7231638"><ele>600.4</ele><time>2026-05-03T08:46:03.32Z</time></trkpt><trkpt lat="44.3517956" lon="7.7230385"><ele>603.0</ele><time>2026-05-03T08:46:05.317Z</time></trkpt><trkpt lat="44.3517604" lon="7.7228974"><ele>603.0</ele><time>2026-05-03T08:46:07.311Z</time></trkpt><trkpt lat="44.3517247" lon="7.7227874"><ele>603.0</ele><time>2026-05-03T08:46:09.313Z</time></trkpt><trkpt lat="44.3516929" lon="7.722679"><ele>603.0</ele><time>2026-05-03T08:46:11.308Z</time></trkpt><trkpt lat="44.3516325" lon="7.7225438"><ele>603.0</ele><time>2026-05-03T08:46:13.313Z</time></trkpt><trkpt lat="44.3515897" lon="7.7224609"><ele>603.0</ele><time>2026-05-03T08:46:14.305Z</time></trkpt><trkpt lat="44.3515435" lon="7.722375"><ele>603.0</ele><time>2026-05-03T08:46:15.31Z</time></trkpt><trkpt lat="44.3514592" lon="7.7222131"><ele>603.1999999999999</ele><time>2026-05-03T08:46:17.306Z</time></trkpt><trkpt lat="44.3514242" lon="7.7221337"><ele>603.4</ele><time>2026-05-03T08:46:18.308Z</time></trkpt><trkpt lat="44.3513953" lon="7.7220432"><ele>603.5999999999999</ele><time>2026-05-03T08:46:19.308Z</time></trkpt><trkpt lat="44.3513837" lon="7.7218779"><ele>603.8</ele><time>2026-05-03T08:46:21.311Z</time></trkpt><trkpt lat="44.3513483" lon="7.7217385"><ele>604.0</ele><time>2026-05-03T08:46:23.35Z</time></trkpt><trkpt lat="44.3512791" lon="7.7216285"><ele>601.0</ele><time>2026-05-03T08:46:26.313Z</time></trkpt><trkpt lat="44.3511906" lon="7.72155"><ele>598.0</ele><time>2026-05-03T08:46:28.307Z</time></trkpt><trkpt lat="44.3511206" lon="7.7215156"><ele>595.0</ele><time>2026-05-03T08:46:30.312Z</time></trkpt><trkpt lat="44.3510418" lon="7.7214567"><ele>592.0</ele><time>2026-05-03T08:46:32.31Z</time></trkpt><trkpt lat="44.3509513" lon="7.7213991"><ele>589.0</ele><time>2026-05-03T08:46:34.306Z</time></trkpt><trkpt lat="44.3508775" lon="7.7213303"><ele>589.0</ele><time>2026-05-03T08:46:37.309Z</time></trkpt><trkpt lat="44.3507929" lon="7.7212684"><ele>589.0</ele><time>2026-05-03T08:46:39.319Z</time></trkpt><trkpt lat="44.3506832" lon="7.7211589"><ele>589.0</ele><time>2026-05-03T08:46:41.312Z</time></trkpt><trkpt lat="44.3506173" lon="7.7210881"><ele>589.0</ele><time>2026-05-03T08:46:42.313Z</time></trkpt><trkpt lat="44.3505333" lon="7.7209974"><ele>589.0</ele><time>2026-05-03T08:46:43.305Z</time></trkpt><trkpt lat="44.3504548" lon="7.720921"><ele>590.0</ele><time>2026-05-03T08:46:44.309Z</time></trkpt><trkpt lat="44.350339" lon="7.7208459"><ele>591.0</ele><time>2026-05-03T08:46:46.316Z</time></trkpt><trkpt lat="44.3502021" lon="7.7208149"><ele>592.0</ele><time>2026-05-03T08:46:48.313Z</time></trkpt><trkpt lat="44.350135" lon="7.7208136"><ele>593.0</ele><time>2026-05-03T08:46:49.31Z</time></trkpt><trkpt lat="44.3500665" lon="7.7208239"><ele>594.0</ele><time>2026-05-03T08:46:50.306Z</time></trkpt><trkpt lat="44.3500005" lon="7.720855"><ele>594.0</ele><time>2026-05-03T08:46:51.312Z</time></trkpt><trkpt lat="44.3499425" lon="7.7209017"><ele>594.0</ele><time>2026-05-03T08:46:52.317Z</time></trkpt><trkpt lat="44.3498745" lon="7.7209524"><ele>594.0</ele><time>2026-05-03T08:46:53.307Z</time></trkpt><trkpt lat="44.349809" lon="7.7209978"><ele>594.0</ele><time>2026-05-03T08:46:54.312Z</time></trkpt><trkpt lat="44.3497382" lon="7.7210383"><ele>594.0</ele><time>2026-05-03T08:46:55.305Z</time></trkpt><trkpt lat="44.3496628" lon="7.7210446"><ele>594.0</ele><time>2026-05-03T08:46:56.308Z</time></trkpt><trkpt lat="44.3495857" lon="7.7210795"><ele>594.4</ele><time>2026-05-03T08:46:57.316Z</time></trkpt><trkpt lat="44.3495102" lon="7.7211223"><ele>594.8</ele><time>2026-05-03T08:46:58.313Z</time></trkpt><trkpt lat="44.3494395" lon="7.721154"><ele>595.2</ele><time>2026-05-03T08:46:59.315Z</time></trkpt><trkpt lat="44.3493057" lon="7.7211722"><ele>595.6</ele><time>2026-05-03T08:47:01.309Z</time></trkpt><trkpt lat="44.3492112" lon="7.7211897"><ele>596.0</ele><time>2026-05-03T08:47:02.298Z</time></trkpt><trkpt lat="44.3491075" lon="7.7212032"><ele>596.0</ele><time>2026-05-03T08:47:03.311Z</time></trkpt><trkpt lat="44.3490062" lon="7.721232"><ele>596.0</ele><time>2026-05-03T08:47:04.301Z</time></trkpt><trkpt lat="44.3489096" lon="7.7212647"><ele>596.0</ele><time>2026-05-03T08:47:05.307Z</time></trkpt><trkpt lat="44.3488149" lon="7.7212862"><ele>596.0</ele><time>2026-05-03T08:47:06.326Z</time></trkpt><trkpt lat="44.3487438" lon="7.7212948"><ele>596.0</ele><time>2026-05-03T08:47:07.308Z</time></trkpt><trkpt lat="44.3486406" lon="7.7212996"><ele>596.3333333333333</ele><time>2026-05-03T08:47:09.314Z</time></trkpt><trkpt lat="44.3485261" lon="7.7212704"><ele>596.6666666666666</ele><time>2026-05-03T08:47:11.321Z</time></trkpt><trkpt lat="44.3484566" lon="7.7212377"><ele>597.0</ele><time>2026-05-03T08:47:12.333Z</time></trkpt><trkpt lat="44.3483861" lon="7.7212043"><ele>597.3333333333334</ele><time>2026-05-03T08:47:13.304Z</time></trkpt><trkpt lat="44.3483263" lon="7.7211745"><ele>597.6666666666667</ele><time>2026-05-03T08:47:14.309Z</time></trkpt><trkpt lat="44.3482613" lon="7.7211423"><ele>598.0</ele><time>2026-05-03T08:47:15.307Z</time></trkpt><trkpt lat="44.3481824" lon="7.7211111"><ele>598.0</ele><time>2026-05-03T08:47:16.31Z</time></trkpt><trkpt lat="44.3481085" lon="7.7210785"><ele>598.0</ele><time>2026-05-03T08:47:17.309Z</time></trkpt><trkpt lat="44.3480018" lon="7.7210155"><ele>598.0</ele><time>2026-05-03T08:47:19.307Z</time></trkpt><trkpt lat="44.3479452" lon="7.7209586"><ele>598.0</ele><time>2026-05-03T08:47:20.309Z</time></trkpt><trkpt lat="44.3478694" lon="7.7208858"><ele>598.0</ele><time>2026-05-03T08:47:21.31Z</time></trkpt><trkpt lat="44.3477849" lon="7.7208015"><ele>598.4</ele><time>2026-05-03T08:47:22.314Z</time></trkpt><trkpt lat="44.3476985" lon="7.7207351"><ele>598.8</ele><time>2026-05-03T08:47:23.311Z</time></trkpt><trkpt lat="44.3476137" lon="7.7206697"><ele>599.2</ele><time>2026-05-03T08:47:24.307Z</time></trkpt><trkpt lat="44.347538" lon="7.7205996"><ele>599.6</ele><time>2026-05-03T08:47:25.31Z</time></trkpt><trkpt lat="44.3474593" lon="7.7205099"><ele>600.0</ele><time>2026-05-03T08:47:26.314Z</time></trkpt><trkpt lat="44.3474052" lon="7.7204369"><ele>600.0</ele><time>2026-05-03T08:47:27.311Z</time></trkpt><trkpt lat="44.3473597" lon="7.7203707"><ele>600.0</ele><time>2026-05-03T08:47:28.306Z</time></trkpt><trkpt lat="44.3473063" lon="7.7203129"><ele>600.0</ele><time>2026-05-03T08:47:29.326Z</time></trkpt><trkpt lat="44.3472386" lon="7.7202643"><ele>600.0</ele><time>2026-05-03T08:47:30.318Z</time></trkpt><trkpt lat="44.3471772" lon="7.7202378"><ele>600.0</ele><time>2026-05-03T08:47:31.307Z</time></trkpt><trkpt lat="44.347062" lon="7.7202351"><ele>600.0</ele><time>2026-05-03T08:47:33.314Z</time></trkpt><trkpt lat="44.3469896" lon="7.720205"><ele>601.1666666666666</ele><time>2026-05-03T08:47:34.311Z</time></trkpt><trkpt lat="44.3469109" lon="7.7201663"><ele>602.3333333333334</ele><time>2026-05-03T08:47:35.309Z</time></trkpt><trkpt lat="44.346831" lon="7.7201299"><ele>603.5</ele><time>2026-05-03T08:47:36.311Z</time></trkpt><trkpt lat="44.3467565" lon="7.7200925"><ele>604.6666666666667</ele><time>2026-05-03T08:47:37.309Z</time></trkpt><trkpt lat="44.3466805" lon="7.7200495"><ele>605.8333333333334</ele><time>2026-05-03T08:47:38.299Z</time></trkpt><trkpt lat="44.3465898" lon="7.7199963"><ele>607.0</ele><time>2026-05-03T08:47:40.305Z</time></trkpt><trkpt lat="44.3464807" lon="7.7199896"><ele>607.0</ele><time>2026-05-03T08:47:42.313Z</time></trkpt><trkpt lat="44.3463553" lon="7.720017"><ele>607.0</ele><time>2026-05-03T08:47:44.315Z</time></trkpt><trkpt lat="44.3462855" lon="7.7200226"><ele>607.0</ele><time>2026-05-03T08:47:45.32Z</time></trkpt><trkpt lat="44.3461912" lon="7.7200032"><ele>607.0</ele><time>2026-05-03T08:47:46.324Z</time></trkpt><trkpt lat="44.3460938" lon="7.7199826"><ele>607.0</ele><time>2026-05-03T08:47:47.319Z</time></trkpt><trkpt lat="44.3459942" lon="7.7199578"><ele>607.0</ele><time>2026-05-03T08:47:48.314Z</time></trkpt><trkpt lat="44.3458998" lon="7.719929"><ele>607.0</ele><time>2026-05-03T08:47:49.329Z</time></trkpt><trkpt lat="44.3458231" lon="7.7198974"><ele>607.0</ele><time>2026-05-03T08:47:50.309Z</time></trkpt><trkpt lat="44.3457322" lon="7.7198832"><ele>607.0</ele><time>2026-05-03T08:47:51.317Z</time></trkpt><trkpt lat="44.3456488" lon="7.7198647"><ele>607.0</ele><time>2026-05-03T08:47:52.311Z</time></trkpt><trkpt lat="44.3455785" lon="7.7198404"><ele>607.0</ele><time>2026-05-03T08:47:53.315Z</time></trkpt><trkpt lat="44.3455194" lon="7.7198082"><ele>606.5714285714286</ele><time>2026-05-03T08:47:54.311Z</time></trkpt><trkpt lat="44.34546" lon="7.7197726"><ele>606.1428571428571</ele><time>2026-05-03T08:47:55.308Z</time></trkpt><trkpt lat="44.3454043" lon="7.7197077"><ele>605.7142857142858</ele><time>2026-05-03T08:47:56.321Z</time></trkpt><trkpt lat="44.3453445" lon="7.7196368"><ele>605.2857142857142</ele><time>2026-05-03T08:47:57.313Z</time></trkpt><trkpt lat="44.3452905" lon="7.7195517"><ele>604.8571428571429</ele><time>2026-05-03T08:47:58.308Z</time></trkpt><trkpt lat="44.345243" lon="7.7194719"><ele>604.4285714285714</ele><time>2026-05-03T08:47:59.316Z</time></trkpt><trkpt lat="44.3452018" lon="7.7193992"><ele>604.0</ele><time>2026-05-03T08:48:00.325Z</time></trkpt><trkpt lat="44.3451628" lon="7.7193233"><ele>604.0000000000001</ele><time>2026-05-03T08:48:01.305Z</time></trkpt><trkpt lat="44.3451245" lon="7.7192426"><ele>604.0</ele><time>2026-05-03T08:48:02.303Z</time></trkpt><trkpt lat="44.3450861" lon="7.7191544"><ele>604.0</ele><time>2026-05-03T08:48:03.316Z</time></trkpt><trkpt lat="44.3450505" lon="7.7190652"><ele>604.0</ele><time>2026-05-03T08:48:04.306Z</time></trkpt><trkpt lat="44.3450256" lon="7.7189729"><ele>604.0</ele><time>2026-05-03T08:48:05.306Z</time></trkpt><trkpt lat="44.3450041" lon="7.7188841"><ele>604.0000000000001</ele><time>2026-05-03T08:48:06.321Z</time></trkpt><trkpt lat="44.3449822" lon="7.7187926"><ele>604.0</ele><time>2026-05-03T08:48:07.312Z</time></trkpt><trkpt lat="44.3449422" lon="7.7186946"><ele>604.0</ele><time>2026-05-03T08:48:08.312Z</time></trkpt><trkpt lat="44.3448996" lon="7.718614"><ele>604.0</ele><time>2026-05-03T08:48:09.314Z</time></trkpt><trkpt lat="44.3448273" lon="7.71849"><ele>604.0</ele><time>2026-05-03T08:48:11.301Z</time></trkpt><trkpt lat="44.3447672" lon="7.7184123"><ele>604.0</ele><time>2026-05-03T08:48:13.311Z</time></trkpt><trkpt lat="44.3447186" lon="7.718352"><ele>604.0</ele><time>2026-05-03T08:48:32.313Z</time></trkpt><trkpt lat="44.3447713" lon="7.7182564"><ele>604.0</ele><time>2026-05-03T08:48:35.313Z</time></trkpt><trkpt lat="44.3448235" lon="7.7181921"><ele>604.1666666666667</ele><time>2026-05-03T08:48:37.316Z</time></trkpt><trkpt lat="44.3448775" lon="7.7181025"><ele>604.3333333333334</ele><time>2026-05-03T08:48:39.312Z</time></trkpt><trkpt lat="44.3449203" lon="7.7179848"><ele>604.5</ele><time>2026-05-03T08:48:41.323Z</time></trkpt><trkpt lat="44.3449579" lon="7.7178799"><ele>604.6666666666666</ele><time>2026-05-03T08:48:43.305Z</time></trkpt><trkpt lat="44.3449865" lon="7.7177998"><ele>604.8333333333333</ele><time>2026-05-03T08:48:45.317Z</time></trkpt><trkpt lat="44.3450291" lon="7.7176847"><ele>605.0</ele><time>2026-05-03T08:48:47.308Z</time></trkpt><trkpt lat="44.3450641" lon="7.7175762"><ele>604.6</ele><time>2026-05-03T08:48:49.317Z</time></trkpt><trkpt lat="44.3451146" lon="7.7174342"><ele>604.2</ele><time>2026-05-03T08:48:51.309Z</time></trkpt><trkpt lat="44.3451708" lon="7.7172873"><ele>603.8</ele><time>2026-05-03T08:48:53.309Z</time></trkpt><trkpt lat="44.3451925" lon="7.7172033"><ele>603.4</ele><time>2026-05-03T08:48:54.321Z</time></trkpt><trkpt lat="44.3452025" lon="7.7171131"><ele>603.0</ele><time>2026-05-03T08:48:55.317Z</time></trkpt><trkpt lat="44.3452075" lon="7.7169606"><ele>601.6666666666666</ele><time>2026-05-03T08:48:57.309Z</time></trkpt><trkpt lat="44.3452024" lon="7.7168703"><ele>600.3333333333334</ele><time>2026-05-03T08:48:58.313Z</time></trkpt><trkpt lat="44.3452069" lon="7.7167777"><ele>599.0</ele><time>2026-05-03T08:48:59.303Z</time></trkpt><trkpt lat="44.3452281" lon="7.7166166"><ele>597.6666666666667</ele><time>2026-05-03T08:49:01.32Z</time></trkpt><trkpt lat="44.3452567" lon="7.716451"><ele>596.3333333333334</ele><time>2026-05-03T08:49:03.31Z</time></trkpt><trkpt lat="44.3452733" lon="7.7163473"><ele>595.0</ele><time>2026-05-03T08:49:04.31Z</time></trkpt><trkpt lat="44.3452874" lon="7.7162413"><ele>595.0</ele><time>2026-05-03T08:49:05.309Z</time></trkpt><trkpt lat="44.3453052" lon="7.7161478"><ele>595.0</ele><time>2026-05-03T08:49:06.315Z</time></trkpt><trkpt lat="44.3453294" lon="7.7160458"><ele>595.0</ele><time>2026-05-03T08:49:07.307Z</time></trkpt><trkpt lat="44.3453497" lon="7.7159614"><ele>595.0</ele><time>2026-05-03T08:49:08.31Z</time></trkpt><trkpt lat="44.3453971" lon="7.7158485"><ele>595.0</ele><time>2026-05-03T08:49:10.31Z</time></trkpt><trkpt lat="44.3454743" lon="7.7157869"><ele>595.0</ele><time>2026-05-03T08:49:13.314Z</time></trkpt><trkpt lat="44.3455727" lon="7.7157954"><ele>594.8</ele><time>2026-05-03T08:49:15.31Z</time></trkpt><trkpt lat="44.3456851" lon="7.7158001"><ele>594.6</ele><time>2026-05-03T08:49:17.31Z</time></trkpt><trkpt lat="44.3457725" lon="7.7157725"><ele>594.4</ele><time>2026-05-03T08:49:19.307Z</time></trkpt><trkpt lat="44.3458349" lon="7.7157424"><ele>594.2</ele><time>2026-05-03T08:49:21.32Z</time></trkpt><trkpt lat="44.3459105" lon="7.715689"><ele>594.0</ele><time>2026-05-03T08:49:24.311Z</time></trkpt><trkpt lat="44.3459884" lon="7.7156014"><ele>594.0</ele><time>2026-05-03T08:49:27.311Z</time></trkpt><trkpt lat="44.3460881" lon="7.7155697"><ele>594.0</ele><time>2026-05-03T08:49:29.304Z</time></trkpt><trkpt lat="44.3461892" lon="7.7155336"><ele>594.0</ele><time>2026-05-03T08:49:31.312Z</time></trkpt><trkpt lat="44.3462423" lon="7.7154848"><ele>594.0</ele><time>2026-05-03T08:49:32.307Z</time></trkpt><trkpt lat="44.3463032" lon="7.7154289"><ele>594.0</ele><time>2026-05-03T08:49:33.308Z</time></trkpt><trkpt lat="44.3463681" lon="7.7153804"><ele>594.0</ele><time>2026-05-03T08:49:34.313Z</time></trkpt><trkpt lat="44.3464302" lon="7.7153222"><ele>594.0</ele><time>2026-05-03T08:49:35.305Z</time></trkpt><trkpt lat="44.3464907" lon="7.7152694"><ele>594.0</ele><time>2026-05-03T08:49:36.31Z</time></trkpt><trkpt lat="44.3465873" lon="7.7151977"><ele>594.0</ele><time>2026-05-03T08:49:38.306Z</time></trkpt><trkpt lat="44.3467035" lon="7.7151472"><ele>594.0</ele><time>2026-05-03T08:49:40.305Z</time></trkpt><trkpt lat="44.3467836" lon="7.715107"><ele>594.0</ele><time>2026-05-03T08:49:41.312Z</time></trkpt><trkpt lat="44.3468533" lon="7.7150538"><ele>594.6666666666666</ele><time>2026-05-03T08:49:42.307Z</time></trkpt><trkpt lat="44.3469203" lon="7.7150006"><ele>595.3333333333334</ele><time>2026-05-03T08:49:43.312Z</time></trkpt><trkpt lat="44.3469833" lon="7.7149448"><ele>596.0</ele><time>2026-05-03T08:49:44.308Z</time></trkpt><trkpt lat="44.3470564" lon="7.7148918"><ele>596.6666666666667</ele><time>2026-05-03T08:49:45.312Z</time></trkpt><trkpt lat="44.3471126" lon="7.7148403"><ele>597.3333333333334</ele><time>2026-05-03T08:49:46.317Z</time></trkpt><trkpt lat="44.34722" lon="7.7147776"><ele>598.0</ele><time>2026-05-03T08:49:48.316Z</time></trkpt><trkpt lat="44.3473" lon="7.7147425"><ele>595.4</ele><time>2026-05-03T08:49:49.316Z</time></trkpt><trkpt lat="44.3474045" lon="7.7146588"><ele>592.8</ele><time>2026-05-03T08:49:51.314Z</time></trkpt><trkpt lat="44.3474697" lon="7.7146158"><ele>590.2</ele><time>2026-05-03T08:49:53.32Z</time></trkpt><trkpt lat="44.3475949" lon="7.7146326"><ele>587.6</ele><time>2026-05-03T08:50:16.313Z</time></trkpt><trkpt lat="44.3476024" lon="7.7147345"><ele>585.0</ele><time>2026-05-03T08:50:18.313Z</time></trkpt><trkpt lat="44.347632" lon="7.7148199"><ele>585.0</ele><time>2026-05-03T08:50:20.31Z</time></trkpt><trkpt lat="44.3477199" lon="7.7147826"><ele>585.0</ele><time>2026-05-03T08:50:22.311Z</time></trkpt><trkpt lat="44.3477928" lon="7.7147084"><ele>585.0</ele><time>2026-05-03T08:50:24.312Z</time></trkpt><trkpt lat="44.3478855" lon="7.7146516"><ele>585.0</ele><time>2026-05-03T08:50:26.314Z</time></trkpt><trkpt lat="44.3479798" lon="7.7145409"><ele>585.0</ele><time>2026-05-03T08:50:28.309Z</time></trkpt><trkpt lat="44.3480486" lon="7.7144447"><ele>585.8</ele><time>2026-05-03T08:50:30.31Z</time></trkpt><trkpt lat="44.3481021" lon="7.7143668"><ele>586.6</ele><time>2026-05-03T08:50:32.315Z</time></trkpt><trkpt lat="44.3481833" lon="7.7142598"><ele>587.4</ele><time>2026-05-03T08:50:34.305Z</time></trkpt><trkpt lat="44.3482986" lon="7.7141973"><ele>588.2</ele><time>2026-05-03T08:50:36.316Z</time></trkpt><trkpt lat="44.3483943" lon="7.7141376"><ele>589.0</ele><time>2026-05-03T08:50:38.306Z</time></trkpt><trkpt lat="44.3484648" lon="7.7141323"><ele>589.0</ele><time>2026-05-03T08:50:40.311Z</time></trkpt><trkpt lat="44.3485546" lon="7.714214"><ele>589.0</ele><time>2026-05-03T08:50:42.302Z</time></trkpt><trkpt lat="44.3486067" lon="7.7142748"><ele>589.0</ele><time>2026-05-03T08:50:43.302Z</time></trkpt><trkpt lat="44.3486578" lon="7.7143347"><ele>589.0</ele><time>2026-05-03T08:50:44.307Z</time></trkpt><trkpt lat="44.3487629" lon="7.714389"><ele>589.0</ele><time>2026-05-03T08:50:46.311Z</time></trkpt><trkpt lat="44.3488281" lon="7.714398"><ele>589.0</ele><time>2026-05-03T08:50:47.313Z</time></trkpt><trkpt lat="44.3489595" lon="7.7144053"><ele>590.5</ele><time>2026-05-03T08:50:49.302Z</time></trkpt><trkpt lat="44.3490345" lon="7.7143997"><ele>592.0</ele><time>2026-05-03T08:50:50.322Z</time></trkpt><trkpt lat="44.3491145" lon="7.7143925"><ele>593.5</ele><time>2026-05-03T08:50:51.318Z</time></trkpt><trkpt lat="44.3491814" lon="7.7143836"><ele>595.0</ele><time>2026-05-03T08:50:52.317Z</time></trkpt><trkpt lat="44.3492603" lon="7.7143769"><ele>596.5</ele><time>2026-05-03T08:50:53.307Z</time></trkpt><trkpt lat="44.3493493" lon="7.7143829"><ele>598.0</ele><time>2026-05-03T08:50:54.31Z</time></trkpt><trkpt lat="44.3494444" lon="7.7143752"><ele>598.0</ele><time>2026-05-03T08:50:55.327Z</time></trkpt><trkpt lat="44.349528" lon="7.7143684"><ele>598.0</ele><time>2026-05-03T08:50:56.305Z</time></trkpt><trkpt lat="44.3496043" lon="7.7143684"><ele>598.0</ele><time>2026-05-03T08:50:57.312Z</time></trkpt><trkpt lat="44.349675" lon="7.7143699"><ele>598.0</ele><time>2026-05-03T08:50:58.307Z</time></trkpt><trkpt lat="44.3497407" lon="7.7143708"><ele>598.0</ele><time>2026-05-03T08:50:59.313Z</time></trkpt><trkpt lat="44.3498746" lon="7.7143493"><ele>598.0</ele><time>2026-05-03T08:51:01.312Z</time></trkpt><trkpt lat="44.3499955" lon="7.7142735"><ele>599.1666666666667</ele><time>2026-05-03T08:51:03.312Z</time></trkpt><trkpt lat="44.3500502" lon="7.714199"><ele>600.3333333333334</ele><time>2026-05-03T08:51:04.327Z</time></trkpt><trkpt lat="44.3501188" lon="7.7141013"><ele>601.5</ele><time>2026-05-03T08:51:05.325Z</time></trkpt><trkpt lat="44.3501863" lon="7.7140092"><ele>602.6666666666666</ele><time>2026-05-03T08:51:06.304Z</time></trkpt><trkpt lat="44.3502373" lon="7.713933"><ele>603.8333333333333</ele><time>2026-05-03T08:51:07.306Z</time></trkpt><trkpt lat="44.3502835" lon="7.7138651"><ele>605.0</ele><time>2026-05-03T08:51:08.317Z</time></trkpt><trkpt lat="44.3503352" lon="7.7137916"><ele>605.0</ele><time>2026-05-03T08:51:09.309Z</time></trkpt><trkpt lat="44.3503861" lon="7.7137196"><ele>605.0</ele><time>2026-05-03T08:51:10.318Z</time></trkpt><trkpt lat="44.3504381" lon="7.7136483"><ele>605.0</ele><time>2026-05-03T08:51:11.328Z</time></trkpt><trkpt lat="44.3504889" lon="7.7135879"><ele>605.0</ele><time>2026-05-03T08:51:12.314Z</time></trkpt><trkpt lat="44.3505402" lon="7.7135337"><ele>605.0</ele><time>2026-05-03T08:51:13.316Z</time></trkpt><trkpt lat="44.3505988" lon="7.7134954"><ele>605.0</ele><time>2026-05-03T08:51:14.306Z</time></trkpt><trkpt lat="44.3506644" lon="7.7134475"><ele>605.0</ele><time>2026-05-03T08:51:15.306Z</time></trkpt><trkpt lat="44.3507261" lon="7.7134064"><ele>606.3333333333333</ele><time>2026-05-03T08:51:16.306Z</time></trkpt><trkpt lat="44.3508444" lon="7.713318"><ele>607.6666666666666</ele><time>2026-05-03T08:51:18.307Z</time></trkpt><trkpt lat="44.350909" lon="7.7132452"><ele>609.0</ele><time>2026-05-03T08:51:19.307Z</time></trkpt><trkpt lat="44.3509631" lon="7.7131696"><ele>610.3333333333334</ele><time>2026-05-03T08:51:20.329Z</time></trkpt><trkpt lat="44.3510172" lon="7.7130924"><ele>611.6666666666667</ele><time>2026-05-03T08:51:21.305Z</time></trkpt><trkpt lat="44.3510773" lon="7.7130294"><ele>613.0</ele><time>2026-05-03T08:51:22.314Z</time></trkpt><trkpt lat="44.3511324" lon="7.7129797"><ele>613.0</ele><time>2026-05-03T08:51:23.318Z</time></trkpt><trkpt lat="44.3512047" lon="7.7129393"><ele>613.0</ele><time>2026-05-03T08:51:24.313Z</time></trkpt><trkpt lat="44.3512731" lon="7.7129034"><ele>613.0</ele><time>2026-05-03T08:51:25.312Z</time></trkpt><trkpt lat="44.3513843" lon="7.7128568"><ele>613.0</ele><time>2026-05-03T08:51:27.314Z</time></trkpt><trkpt lat="44.351495" lon="7.7128489"><ele>613.0</ele><time>2026-05-03T08:51:29.308Z</time></trkpt><trkpt lat="44.3516078" lon="7.7128689"><ele>613.5</ele><time>2026-05-03T08:51:31.308Z</time></trkpt><trkpt lat="44.351674" lon="7.7128904"><ele>614.0</ele><time>2026-05-03T08:51:32.32Z</time></trkpt><trkpt lat="44.3517501" lon="7.7129287"><ele>614.5</ele><time>2026-05-03T08:51:33.307Z</time></trkpt><trkpt lat="44.3518367" lon="7.7129759"><ele>615.0</ele><time>2026-05-03T08:51:34.302Z</time></trkpt><trkpt lat="44.3519087" lon="7.7130218"><ele>615.5</ele><time>2026-05-03T08:51:35.324Z</time></trkpt><trkpt lat="44.3519992" lon="7.7130835"><ele>616.0</ele><time>2026-05-03T08:51:37.319Z</time></trkpt><trkpt lat="44.3520732" lon="7.713121"><ele>616.0</ele><time>2026-05-03T08:51:40.314Z</time></trkpt><trkpt lat="44.3521432" lon="7.7131838"><ele>616.0</ele><time>2026-05-03T08:51:43.31Z</time></trkpt><trkpt lat="44.3522224" lon="7.7132613"><ele>616.0</ele><time>2026-05-03T08:51:45.317Z</time></trkpt><trkpt lat="44.3523232" lon="7.7132672"><ele>616.0</ele><time>2026-05-03T08:51:47.315Z</time></trkpt><trkpt lat="44.352459" lon="7.7132192"><ele>616.0</ele><time>2026-05-03T08:51:49.314Z</time></trkpt><trkpt lat="44.3525438" lon="7.7131897"><ele>617.6</ele><time>2026-05-03T08:51:50.314Z</time></trkpt><trkpt lat="44.352613" lon="7.7131652"><ele>619.2</ele><time>2026-05-03T08:51:51.318Z</time></trkpt><trkpt lat="44.3527278" lon="7.7131548"><ele>620.8</ele><time>2026-05-03T08:51:53.319Z</time></trkpt><trkpt lat="44.3527954" lon="7.7131657"><ele>622.4</ele><time>2026-05-03T08:51:54.309Z</time></trkpt><trkpt lat="44.352888" lon="7.7132021"><ele>624.0</ele><time>2026-05-03T08:51:55.331Z</time></trkpt><trkpt lat="44.3529834" lon="7.7132404"><ele>623.25</ele><time>2026-05-03T08:51:56.314Z</time></trkpt><trkpt lat="44.3530925" lon="7.7132902"><ele>622.5</ele><time>2026-05-03T08:51:57.308Z</time></trkpt><trkpt lat="44.3532143" lon="7.7133469"><ele>621.75</ele><time>2026-05-03T08:51:58.31Z</time></trkpt><trkpt lat="44.3533322" lon="7.7133909"><ele>621.0</ele><time>2026-05-03T08:51:59.312Z</time></trkpt><trkpt lat="44.3534384" lon="7.7134208"><ele>621.0</ele><time>2026-05-03T08:52:00.317Z</time></trkpt><trkpt lat="44.3535447" lon="7.7134504"><ele>621.0</ele><time>2026-05-03T08:52:01.308Z</time></trkpt><trkpt lat="44.3536544" lon="7.7134629"><ele>621.0</ele><time>2026-05-03T08:52:02.304Z</time></trkpt><trkpt lat="44.3537574" lon="7.7134838"><ele>621.0</ele><time>2026-05-03T08:52:03.315Z</time></trkpt><trkpt lat="44.3538532" lon="7.7135051"><ele>621.0</ele><time>2026-05-03T08:52:04.314Z</time></trkpt><trkpt lat="44.3539516" lon="7.7135428"><ele>619.6</ele><time>2026-05-03T08:52:05.309Z</time></trkpt><trkpt lat="44.3540383" lon="7.7135692"><ele>618.2</ele><time>2026-05-03T08:52:06.315Z</time></trkpt><trkpt lat="44.3541416" lon="7.7135908"><ele>616.8</ele><time>2026-05-03T08:52:08.312Z</time></trkpt><trkpt lat="44.3542221" lon="7.7135764"><ele>615.4</ele><time>2026-05-03T08:52:10.316Z</time></trkpt><trkpt lat="44.3543275" lon="7.7134954"><ele>614.0</ele><time>2026-05-03T08:52:12.314Z</time></trkpt><trkpt lat="44.3543838" lon="7.7134558"><ele>614.0</ele><time>2026-05-03T08:52:13.319Z</time></trkpt><trkpt lat="44.3544654" lon="7.7134072"><ele>614.0</ele><time>2026-05-03T08:52:15.317Z</time></trkpt><trkpt lat="44.3545601" lon="7.7133862"><ele>614.0</ele><time>2026-05-03T08:52:18.314Z</time></trkpt><trkpt lat="44.3546394" lon="7.7133639"><ele>614.0</ele><time>2026-05-03T08:52:21.317Z</time></trkpt><trkpt lat="44.3547123" lon="7.7133581"><ele>614.0</ele><time>2026-05-03T08:52:46.318Z</time></trkpt><trkpt lat="44.3547851" lon="7.7134088"><ele>614.0</ele><time>2026-05-03T08:52:48.305Z</time></trkpt><trkpt lat="44.3548576" lon="7.7134457"><ele>612.0</ele><time>2026-05-03T08:52:50.306Z</time></trkpt><trkpt lat="44.3549369" lon="7.7135423"><ele>610.0</ele><time>2026-05-03T08:52:52.312Z</time></trkpt><trkpt lat="44.3549959" lon="7.7136603"><ele>608.0</ele><time>2026-05-03T08:52:54.31Z</time></trkpt><trkpt lat="44.3550448" lon="7.7137593"><ele>606.0</ele><time>2026-05-03T08:52:56.31Z</time></trkpt><trkpt lat="44.3551178" lon="7.7138403"><ele>604.0</ele><time>2026-05-03T08:52:58.308Z</time></trkpt><trkpt lat="44.3552462" lon="7.7139218"><ele>604.0</ele><time>2026-05-03T08:53:00.314Z</time></trkpt><trkpt lat="44.355304" lon="7.7139842"><ele>604.0</ele><time>2026-05-03T08:53:01.321Z</time></trkpt><trkpt lat="44.355356" lon="7.7140353"><ele>604.0</ele><time>2026-05-03T08:53:02.317Z</time></trkpt><trkpt lat="44.3554281" lon="7.7141061"><ele>604.0</ele><time>2026-05-03T08:53:04.307Z</time></trkpt><trkpt lat="44.3554927" lon="7.7141629"><ele>604.0</ele><time>2026-05-03T08:53:06.319Z</time></trkpt><trkpt lat="44.3555902" lon="7.7141561"><ele>604.0</ele><time>2026-05-03T08:53:09.308Z</time></trkpt><trkpt lat="44.3556609" lon="7.7140566"><ele>604.0</ele><time>2026-05-03T08:53:11.31Z</time></trkpt><trkpt lat="44.3556909" lon="7.7139609"><ele>604.0</ele><time>2026-05-03T08:53:13.317Z</time></trkpt><trkpt lat="44.3556626" lon="7.7138705"><ele>604.0</ele><time>2026-05-03T08:53:15.308Z</time></trkpt><trkpt lat="44.3555869" lon="7.713768"><ele>604.0</ele><time>2026-05-03T08:53:17.311Z</time></trkpt><trkpt lat="44.3555413" lon="7.7136832"><ele>604.0</ele><time>2026-05-03T08:53:18.31Z</time></trkpt><trkpt lat="44.3554861" lon="7.7135943"><ele>604.0</ele><time>2026-05-03T08:53:19.306Z</time></trkpt><trkpt lat="44.3554395" lon="7.7135177"><ele>604.0000000000001</ele><time>2026-05-03T08:53:20.301Z</time></trkpt><trkpt lat="44.3553963" lon="7.7134224"><ele>604.0</ele><time>2026-05-03T08:53:21.304Z</time></trkpt><trkpt lat="44.355366" lon="7.7133243"><ele>604.0</ele><time>2026-05-03T08:53:22.318Z</time></trkpt><trkpt lat="44.3553507" lon="7.7132285"><ele>604.0</ele><time>2026-05-03T08:53:23.313Z</time></trkpt><trkpt lat="44.3553461" lon="7.7131393"><ele>604.0</ele><time>2026-05-03T08:53:24.315Z</time></trkpt><trkpt lat="44.3553586" lon="7.71305"><ele>604.0000000000001</ele><time>2026-05-03T08:53:25.32Z</time></trkpt><trkpt lat="44.3553836" lon="7.7129449"><ele>604.0</ele><time>2026-05-03T08:53:26.322Z</time></trkpt><trkpt lat="44.3554175" lon="7.7128558"><ele>601.2</ele><time>2026-05-03T08:53:27.32Z</time></trkpt><trkpt lat="44.3554767" lon="7.7127328"><ele>598.4</ele><time>2026-05-03T08:53:29.315Z</time></trkpt><trkpt lat="44.355535" lon="7.7126612"><ele>595.6</ele><time>2026-05-03T08:53:31.307Z</time></trkpt><trkpt lat="44.3555952" lon="7.7125961"><ele>592.8</ele><time>2026-05-03T08:53:33.318Z</time></trkpt><trkpt lat="44.3556729" lon="7.7125356"><ele>590.0</ele><time>2026-05-03T08:53:35.306Z</time></trkpt><trkpt lat="44.3557656" lon="7.7124702"><ele>587.6</ele><time>2026-05-03T08:53:37.314Z</time></trkpt><trkpt lat="44.3558627" lon="7.7123998"><ele>585.2</ele><time>2026-05-03T08:53:39.329Z</time></trkpt><trkpt lat="44.3559814" lon="7.7123375"><ele>582.8</ele><time>2026-05-03T08:53:41.302Z</time></trkpt><trkpt lat="44.3560468" lon="7.7123122"><ele>580.4</ele><time>2026-05-03T08:53:42.306Z</time></trkpt><trkpt lat="44.3561127" lon="7.7122962"><ele>578.0</ele><time>2026-05-03T08:53:43.31Z</time></trkpt><trkpt lat="44.3562237" lon="7.7122743"><ele>578.0</ele><time>2026-05-03T08:53:45.307Z</time></trkpt><trkpt lat="44.3563473" lon="7.7122837"><ele>578.0</ele><time>2026-05-03T08:53:47.308Z</time></trkpt><trkpt lat="44.3564126" lon="7.712295"><ele>578.0</ele><time>2026-05-03T08:53:48.31Z</time></trkpt><trkpt lat="44.3564822" lon="7.7122993"><ele>578.0</ele><time>2026-05-03T08:53:49.319Z</time></trkpt><trkpt lat="44.3565932" lon="7.7122858"><ele>578.0</ele><time>2026-05-03T08:53:51.307Z</time></trkpt><trkpt lat="44.3566946" lon="7.7122781"><ele>575.25</ele><time>2026-05-03T08:53:53.314Z</time></trkpt><trkpt lat="44.3569099" lon="7.712332"><ele>572.5</ele><time>2026-05-03T08:53:55.307Z</time></trkpt><trkpt lat="44.3569751" lon="7.7123649"><ele>569.75</ele><time>2026-05-03T08:53:56.306Z</time></trkpt><trkpt lat="44.3570963" lon="7.7123802"><ele>567.0</ele><time>2026-05-03T08:53:58.316Z</time></trkpt><trkpt lat="44.3571888" lon="7.7123877"><ele>565.0</ele><time>2026-05-03T08:54:00.309Z</time></trkpt><trkpt lat="44.3573112" lon="7.7123927"><ele>563.0</ele><time>2026-05-03T08:54:02.311Z</time></trkpt><trkpt lat="44.3574124" lon="7.7123723"><ele>561.0</ele><time>2026-05-03T08:54:04.322Z</time></trkpt><trkpt lat="44.357497" lon="7.7122773"><ele>559.0</ele><time>2026-05-03T08:54:06.305Z</time></trkpt><trkpt lat="44.357556" lon="7.7121839"><ele>557.0</ele><time>2026-05-03T08:54:08.314Z</time></trkpt><trkpt lat="44.3576193" lon="7.71217"><ele>557.0</ele><time>2026-05-03T08:54:10.313Z</time></trkpt><trkpt lat="44.3577146" lon="7.7122029"><ele>557.0</ele><time>2026-05-03T08:54:12.314Z</time></trkpt><trkpt lat="44.3577849" lon="7.7121641"><ele>557.0</ele><time>2026-05-03T08:54:14.318Z</time></trkpt><trkpt lat="44.3578649" lon="7.7121024"><ele>557.0</ele><time>2026-05-03T08:54:16.315Z</time></trkpt><trkpt lat="44.3578473" lon="7.7119986"><ele>557.0</ele><time>2026-05-03T08:54:18.306Z</time></trkpt><trkpt lat="44.3578276" lon="7.711841"><ele>556.1666666666666</ele><time>2026-05-03T08:54:20.306Z</time></trkpt><trkpt lat="44.3578204" lon="7.7117511"><ele>555.3333333333333</ele><time>2026-05-03T08:54:21.309Z</time></trkpt><trkpt lat="44.357815" lon="7.7115774"><ele>554.5</ele><time>2026-05-03T08:54:23.31Z</time></trkpt><trkpt lat="44.3578019" lon="7.7114805"><ele>553.6666666666666</ele><time>2026-05-03T08:54:24.303Z</time></trkpt><trkpt lat="44.3577809" lon="7.7113962"><ele>552.8333333333334</ele><time>2026-05-03T08:54:25.312Z</time></trkpt><trkpt lat="44.357738" lon="7.7112775"><ele>552.0</ele><time>2026-05-03T08:54:27.305Z</time></trkpt><trkpt lat="44.3577406" lon="7.7111705"><ele>552.0</ele><time>2026-05-03T08:54:30.309Z</time></trkpt><trkpt lat="44.3578468" lon="7.7111763"><ele>552.0</ele><time>2026-05-03T08:54:33.305Z</time></trkpt><trkpt lat="44.3579321" lon="7.711218"><ele>552.0</ele><time>2026-05-03T08:54:35.314Z</time></trkpt><trkpt lat="44.3580021" lon="7.7112202"><ele>552.0</ele><time>2026-05-03T08:54:37.319Z</time></trkpt><trkpt lat="44.3580696" lon="7.7111511"><ele>552.0</ele><time>2026-05-03T08:54:39.305Z</time></trkpt><trkpt lat="44.3581404" lon="7.7110376"><ele>547.4</ele><time>2026-05-03T08:54:41.316Z</time></trkpt><trkpt lat="44.3582007" lon="7.71094"><ele>542.8000000000001</ele><time>2026-05-03T08:54:43.324Z</time></trkpt><trkpt lat="44.3582777" lon="7.710912"><ele>538.2</ele><time>2026-05-03T08:54:46.325Z</time></trkpt><trkpt lat="44.3584208" lon="7.7109447"><ele>533.6</ele><time>2026-05-03T08:54:48.311Z</time></trkpt><trkpt lat="44.3584986" lon="7.7109636"><ele>529.0</ele><time>2026-05-03T08:54:49.323Z</time></trkpt><trkpt lat="44.3585739" lon="7.7109748"><ele>529.0</ele><time>2026-05-03T08:54:50.314Z</time></trkpt><trkpt lat="44.3586478" lon="7.7110058"><ele>529.0</ele><time>2026-05-03T08:54:51.308Z</time></trkpt><trkpt lat="44.3587156" lon="7.7110365"><ele>529.0</ele><time>2026-05-03T08:54:52.301Z</time></trkpt><trkpt lat="44.3587913" lon="7.7110793"><ele>529.0</ele><time>2026-05-03T08:54:53.301Z</time></trkpt><trkpt lat="44.3588699" lon="7.7111142"><ele>529.0</ele><time>2026-05-03T08:54:54.304Z</time></trkpt><trkpt lat="44.3589338" lon="7.7111447"><ele>529.0</ele><time>2026-05-03T08:54:55.313Z</time></trkpt><trkpt lat="44.3590407" lon="7.7112376"><ele>528.8333333333334</ele><time>2026-05-03T08:54:57.308Z</time></trkpt><trkpt lat="44.3590949" lon="7.7113045"><ele>528.6666666666667</ele><time>2026-05-03T08:54:58.31Z</time></trkpt><trkpt lat="44.359144" lon="7.7113945"><ele>528.5</ele><time>2026-05-03T08:54:59.313Z</time></trkpt><trkpt lat="44.3591854" lon="7.7114921"><ele>528.3333333333334</ele><time>2026-05-03T08:55:00.309Z</time></trkpt><trkpt lat="44.3592209" lon="7.7115697"><ele>528.1666666666666</ele><time>2026-05-03T08:55:01.321Z</time></trkpt><trkpt lat="44.3593049" lon="7.7116482"><ele>528.0</ele><time>2026-05-03T08:55:03.306Z</time></trkpt><trkpt lat="44.3593726" lon="7.7116233"><ele>528.0</ele><time>2026-05-03T08:55:05.329Z</time></trkpt><trkpt lat="44.3594695" lon="7.7115252"><ele>528.0</ele><time>2026-05-03T08:55:07.302Z</time></trkpt><trkpt lat="44.3595293" lon="7.7114626"><ele>528.0</ele><time>2026-05-03T08:55:08.31Z</time></trkpt><trkpt lat="44.3595904" lon="7.7113971"><ele>528.0</ele><time>2026-05-03T08:55:09.315Z</time></trkpt><trkpt lat="44.3596497" lon="7.7113303"><ele>528.0</ele><time>2026-05-03T08:55:10.312Z</time></trkpt><trkpt lat="44.3597102" lon="7.7112546"><ele>528.0</ele><time>2026-05-03T08:55:11.316Z</time></trkpt><trkpt lat="44.3597745" lon="7.7111771"><ele>525.4</ele><time>2026-05-03T08:55:12.309Z</time></trkpt><trkpt lat="44.359835" lon="7.7110996"><ele>522.8</ele><time>2026-05-03T08:55:13.303Z</time></trkpt><trkpt lat="44.3598833" lon="7.7110342"><ele>520.2</ele><time>2026-05-03T08:55:14.316Z</time></trkpt><trkpt lat="44.3599554" lon="7.7109196"><ele>517.6</ele><time>2026-05-03T08:55:16.31Z</time></trkpt><trkpt lat="44.3600037" lon="7.7108115"><ele>515.0</ele><time>2026-05-03T08:55:18.31Z</time></trkpt><trkpt lat="44.3600546" lon="7.7106702"><ele>515.0</ele><time>2026-05-03T08:55:20.313Z</time></trkpt><trkpt lat="44.3600812" lon="7.7105887"><ele>515.0</ele><time>2026-05-03T08:55:21.308Z</time></trkpt><trkpt lat="44.3601132" lon="7.7105052"><ele>515.0</ele><time>2026-05-03T08:55:22.316Z</time></trkpt><trkpt lat="44.3601479" lon="7.710374"><ele>515.0</ele><time>2026-05-03T08:55:24.31Z</time></trkpt><trkpt lat="44.3601092" lon="7.7102596"><ele>515.0</ele><time>2026-05-03T08:55:26.353Z</time></trkpt><trkpt lat="44.3600601" lon="7.7102032"><ele>515.0</ele><time>2026-05-03T08:55:27.312Z</time></trkpt><trkpt lat="44.3600011" lon="7.7101395"><ele>514.8</ele><time>2026-05-03T08:55:28.309Z</time></trkpt><trkpt lat="44.359933" lon="7.710067"><ele>514.6</ele><time>2026-05-03T08:55:29.309Z</time></trkpt><trkpt lat="44.3598589" lon="7.7099944"><ele>514.4</ele><time>2026-05-03T08:55:30.318Z</time></trkpt><trkpt lat="44.3597782" lon="7.7099201"><ele>514.2</ele><time>2026-05-03T08:55:31.311Z</time></trkpt><trkpt lat="44.3596904" lon="7.7098404"><ele>514.0</ele><time>2026-05-03T08:55:32.304Z</time></trkpt><trkpt lat="44.3596036" lon="7.7097617"><ele>514.5</ele><time>2026-05-03T08:55:33.313Z</time></trkpt><trkpt lat="44.3595231" lon="7.7096875"><ele>515.0</ele><time>2026-05-03T08:55:34.31Z</time></trkpt><trkpt lat="44.3594495" lon="7.7096247"><ele>515.5</ele><time>2026-05-03T08:55:35.311Z</time></trkpt><trkpt lat="44.3593818" lon="7.7095685"><ele>516.0</ele><time>2026-05-03T08:55:36.305Z</time></trkpt><trkpt lat="44.3593197" lon="7.7095076"><ele>516.5</ele><time>2026-05-03T08:55:37.313Z</time></trkpt><trkpt lat="44.3592678" lon="7.7094341"><ele>517.0</ele><time>2026-05-03T08:55:38.316Z</time></trkpt><trkpt lat="44.3592289" lon="7.7093529"><ele>517.0</ele><time>2026-05-03T08:55:39.303Z</time></trkpt><trkpt lat="44.359198" lon="7.7092649"><ele>517.0</ele><time>2026-05-03T08:55:40.311Z</time></trkpt><trkpt lat="44.3591817" lon="7.7091684"><ele>517.0</ele><time>2026-05-03T08:55:41.323Z</time></trkpt><trkpt lat="44.3591883" lon="7.7090667"><ele>517.0</ele><time>2026-05-03T08:55:42.314Z</time></trkpt><trkpt lat="44.3592108" lon="7.708959"><ele>517.0</ele><time>2026-05-03T08:55:43.305Z</time></trkpt><trkpt lat="44.3592406" lon="7.7088432"><ele>517.0</ele><time>2026-05-03T08:55:44.313Z</time></trkpt><trkpt lat="44.3592714" lon="7.7087179"><ele>517.0</ele><time>2026-05-03T08:55:45.326Z</time></trkpt><trkpt lat="44.3593033" lon="7.7085833"><ele>517.0</ele><time>2026-05-03T08:55:46.313Z</time></trkpt><trkpt lat="44.3593369" lon="7.7084393"><ele>517.0</ele><time>2026-05-03T08:55:47.309Z</time></trkpt><trkpt lat="44.3593722" lon="7.7082888"><ele>517.0</ele><time>2026-05-03T08:55:48.309Z</time></trkpt><trkpt lat="44.3594147" lon="7.708134"><ele>517.0</ele><time>2026-05-03T08:55:49.316Z</time></trkpt><trkpt lat="44.3594643" lon="7.7079776"><ele>517.25</ele><time>2026-05-03T08:55:50.329Z</time></trkpt><trkpt lat="44.3595183" lon="7.7078197"><ele>517.5</ele><time>2026-05-03T08:55:51.32Z</time></trkpt><trkpt lat="44.3595739" lon="7.7076587"><ele>517.75</ele><time>2026-05-03T08:55:52.308Z</time></trkpt><trkpt lat="44.3596289" lon="7.7074962"><ele>518.0</ele><time>2026-05-03T08:55:53.314Z</time></trkpt><trkpt lat="44.3596846" lon="7.7073337"><ele>517.5</ele><time>2026-05-03T08:55:54.314Z</time></trkpt><trkpt lat="44.3597436" lon="7.7071672"><ele>517.0</ele><time>2026-05-03T08:55:55.316Z</time></trkpt><trkpt lat="44.3598065" lon="7.7069969"><ele>516.5</ele><time>2026-05-03T08:55:56.311Z</time></trkpt><trkpt lat="44.359874" lon="7.7068236"><ele>516.0</ele><time>2026-05-03T08:55:57.317Z</time></trkpt><trkpt lat="44.3599445" lon="7.7066547"><ele>516.0</ele><time>2026-05-03T08:55:58.314Z</time></trkpt><trkpt lat="44.360012" lon="7.7065"><ele>516.0</ele><time>2026-05-03T08:55:59.314Z</time></trkpt><trkpt lat="44.3600733" lon="7.7063533"><ele>516.0</ele><time>2026-05-03T08:56:00.313Z</time></trkpt><trkpt lat="44.3601278" lon="7.7062027"><ele>516.0</ele><time>2026-05-03T08:56:01.319Z</time></trkpt><trkpt lat="44.3601777" lon="7.7060504"><ele>516.2</ele><time>2026-05-03T08:56:02.314Z</time></trkpt><trkpt lat="44.3602218" lon="7.7059085"><ele>516.4000000000001</ele><time>2026-05-03T08:56:03.304Z</time></trkpt><trkpt lat="44.360261" lon="7.7057779"><ele>516.6</ele><time>2026-05-03T08:56:04.313Z</time></trkpt><trkpt lat="44.3602948" lon="7.7056671"><ele>516.8000000000001</ele><time>2026-05-03T08:56:05.309Z</time></trkpt><trkpt lat="44.3603225" lon="7.7055728"><ele>517.0</ele><time>2026-05-03T08:56:06.311Z</time></trkpt><trkpt lat="44.3603557" lon="7.7054327"><ele>517.0</ele><time>2026-05-03T08:56:08.312Z</time></trkpt><trkpt lat="44.3603746" lon="7.7053327"><ele>517.0</ele><time>2026-05-03T08:56:11.311Z</time></trkpt><trkpt lat="44.3603307" lon="7.7051923"><ele>517.0</ele><time>2026-05-03T08:56:25.349Z</time></trkpt><trkpt lat="44.3602084" lon="7.7051013"><ele>517.0</ele><time>2026-05-03T08:56:27.302Z</time></trkpt><trkpt lat="44.3601219" lon="7.7050532"><ele>517.0</ele><time>2026-05-03T08:56:28.303Z</time></trkpt><trkpt lat="44.3600291" lon="7.7050009"><ele>517.0</ele><time>2026-05-03T08:56:29.309Z</time></trkpt><trkpt lat="44.3599257" lon="7.7049433"><ele>517.0</ele><time>2026-05-03T08:56:30.314Z</time></trkpt><trkpt lat="44.3598142" lon="7.7048819"><ele>517.0</ele><time>2026-05-03T08:56:31.31Z</time></trkpt><trkpt lat="44.3596947" lon="7.7048175"><ele>517.0</ele><time>2026-05-03T08:56:32.308Z</time></trkpt><trkpt lat="44.3595685" lon="7.7047526"><ele>517.75</ele><time>2026-05-03T08:56:33.316Z</time></trkpt><trkpt lat="44.3594382" lon="7.7046974"><ele>518.5</ele><time>2026-05-03T08:56:34.312Z</time></trkpt><trkpt lat="44.3593099" lon="7.7046593"><ele>519.25</ele><time>2026-05-03T08:56:35.328Z</time></trkpt><trkpt lat="44.3591831" lon="7.7046354"><ele>520.0</ele><time>2026-05-03T08:56:36.326Z</time></trkpt><trkpt lat="44.3590599" lon="7.7046179"><ele>520.0</ele><time>2026-05-03T08:56:37.317Z</time></trkpt><trkpt lat="44.3589375" lon="7.7045944"><ele>520.0</ele><time>2026-05-03T08:56:38.303Z</time></trkpt><trkpt lat="44.3588143" lon="7.704561"><ele>520.0</ele><time>2026-05-03T08:56:39.317Z</time></trkpt><trkpt lat="44.3586909" lon="7.704523"><ele>520.0</ele><time>2026-05-03T08:56:40.315Z</time></trkpt><trkpt lat="44.3585683" lon="7.7044805"><ele>520.0</ele><time>2026-05-03T08:56:41.309Z</time></trkpt><trkpt lat="44.3584456" lon="7.7044343"><ele>520.0</ele><time>2026-05-03T08:56:42.317Z</time></trkpt><trkpt lat="44.3583225" lon="7.704385"><ele>520.0</ele><time>2026-05-03T08:56:43.315Z</time></trkpt><trkpt lat="44.3581984" lon="7.7043357"><ele>520.0</ele><time>2026-05-03T08:56:44.307Z</time></trkpt><trkpt lat="44.3580724" lon="7.7042872"><ele>520.25</ele><time>2026-05-03T08:56:45.317Z</time></trkpt><trkpt lat="44.3579493" lon="7.7042386"><ele>520.5</ele><time>2026-05-03T08:56:46.312Z</time></trkpt><trkpt lat="44.3578306" lon="7.7041898"><ele>520.75</ele><time>2026-05-03T08:56:47.311Z</time></trkpt><trkpt lat="44.3577202" lon="7.7041449"><ele>521.0</ele><time>2026-05-03T08:56:48.316Z</time></trkpt><trkpt lat="44.3576168" lon="7.7041061"><ele>521.0</ele><time>2026-05-03T08:56:49.31Z</time></trkpt><trkpt lat="44.3575151" lon="7.7040713"><ele>521.0</ele><time>2026-05-03T08:56:50.31Z</time></trkpt><trkpt lat="44.3574115" lon="7.7040406"><ele>521.0</ele><time>2026-05-03T08:56:51.308Z</time></trkpt><trkpt lat="44.3573052" lon="7.7040186"><ele>521.0</ele><time>2026-05-03T08:56:52.316Z</time></trkpt><trkpt lat="44.3571989" lon="7.7040056"><ele>521.0</ele><time>2026-05-03T08:56:53.308Z</time></trkpt><trkpt lat="44.3571007" lon="7.7039951"><ele>521.5</ele><time>2026-05-03T08:56:54.314Z</time></trkpt><trkpt lat="44.3570093" lon="7.7039832"><ele>522.0</ele><time>2026-05-03T08:56:55.314Z</time></trkpt><trkpt lat="44.3569172" lon="7.7039703"><ele>522.5</ele><time>2026-05-03T08:56:56.317Z</time></trkpt><trkpt lat="44.3568309" lon="7.7039525"><ele>523.0</ele><time>2026-05-03T08:56:57.305Z</time></trkpt><trkpt lat="44.3567588" lon="7.7039396"><ele>523.5</ele><time>2026-05-03T08:56:58.307Z</time></trkpt><trkpt lat="44.3566929" lon="7.7039374"><ele>524.0</ele><time>2026-05-03T08:56:59.303Z</time></trkpt><trkpt lat="44.3565759" lon="7.7039581"><ele>524.0</ele><time>2026-05-03T08:57:01.311Z</time></trkpt><trkpt lat="44.3564439" lon="7.7040028"><ele>524.0</ele><time>2026-05-03T08:57:03.363Z</time></trkpt><trkpt lat="44.3563645" lon="7.7040512"><ele>524.0</ele><time>2026-05-03T08:57:04.318Z</time></trkpt><trkpt lat="44.3562807" lon="7.7041119"><ele>524.0</ele><time>2026-05-03T08:57:05.309Z</time></trkpt><trkpt lat="44.3561927" lon="7.704171"><ele>524.0</ele><time>2026-05-03T08:57:06.312Z</time></trkpt><trkpt lat="44.3560989" lon="7.704221"><ele>524.1666666666666</ele><time>2026-05-03T08:57:07.309Z</time></trkpt><trkpt lat="44.3560081" lon="7.7042601"><ele>524.3333333333333</ele><time>2026-05-03T08:57:08.303Z</time></trkpt><trkpt lat="44.355925" lon="7.7042945"><ele>524.5</ele><time>2026-05-03T08:57:09.316Z</time></trkpt><trkpt lat="44.3558482" lon="7.7043248"><ele>524.6666666666666</ele><time>2026-05-03T08:57:10.314Z</time></trkpt><trkpt lat="44.3557718" lon="7.7043542"><ele>524.8333333333334</ele><time>2026-05-03T08:57:11.313Z</time></trkpt><trkpt lat="44.355696" lon="7.7043851"><ele>525.0</ele><time>2026-05-03T08:57:12.309Z</time></trkpt><trkpt lat="44.3556195" lon="7.7044157"><ele>525.4</ele><time>2026-05-03T08:57:13.315Z</time></trkpt><trkpt lat="44.3555367" lon="7.7044403"><ele>525.8</ele><time>2026-05-03T08:57:14.318Z</time></trkpt><trkpt lat="44.3554472" lon="7.7044578"><ele>526.2</ele><time>2026-05-03T08:57:15.318Z</time></trkpt><trkpt lat="44.3553517" lon="7.704473"><ele>526.6</ele><time>2026-05-03T08:57:16.327Z</time></trkpt><trkpt lat="44.3552551" lon="7.7044897"><ele>527.0</ele><time>2026-05-03T08:57:17.312Z</time></trkpt><trkpt lat="44.3551638" lon="7.7045071"><ele>527.0</ele><time>2026-05-03T08:57:18.309Z</time></trkpt><trkpt lat="44.3550834" lon="7.7045295"><ele>527.0</ele><time>2026-05-03T08:57:19.306Z</time></trkpt><trkpt lat="44.3550105" lon="7.7045672"><ele>527.0</ele><time>2026-05-03T08:57:20.311Z</time></trkpt><trkpt lat="44.3549386" lon="7.7046066"><ele>527.0</ele><time>2026-05-03T08:57:21.314Z</time></trkpt><trkpt lat="44.3548764" lon="7.7046783"><ele>527.0</ele><time>2026-05-03T08:57:22.308Z</time></trkpt><trkpt lat="44.3548145" lon="7.7047669"><ele>527.0</ele><time>2026-05-03T08:57:23.318Z</time></trkpt><trkpt lat="44.3547493" lon="7.7048656"><ele>527.6</ele><time>2026-05-03T08:57:24.308Z</time></trkpt><trkpt lat="44.3546863" lon="7.7049649"><ele>528.2</ele><time>2026-05-03T08:57:25.31Z</time></trkpt><trkpt lat="44.3546213" lon="7.7050668"><ele>528.8</ele><time>2026-05-03T08:57:26.308Z</time></trkpt><trkpt lat="44.3545548" lon="7.7051708"><ele>529.4</ele><time>2026-05-03T08:57:27.309Z</time></trkpt><trkpt lat="44.3544809" lon="7.7052665"><ele>530.0</ele><time>2026-05-03T08:57:28.314Z</time></trkpt><trkpt lat="44.3544032" lon="7.7053496"><ele>530.0</ele><time>2026-05-03T08:57:29.3Z</time></trkpt><trkpt lat="44.3543252" lon="7.705423"><ele>530.0</ele><time>2026-05-03T08:57:30.302Z</time></trkpt><trkpt lat="44.3542508" lon="7.7054839"><ele>530.0</ele><time>2026-05-03T08:57:31.307Z</time></trkpt><trkpt lat="44.3541731" lon="7.7055307"><ele>530.0</ele><time>2026-05-03T08:57:32.31Z</time></trkpt><trkpt lat="44.3540894" lon="7.7055642"><ele>530.0</ele><time>2026-05-03T08:57:33.311Z</time></trkpt><trkpt lat="44.3539999" lon="7.7055893"><ele>530.0</ele><time>2026-05-03T08:57:34.306Z</time></trkpt><trkpt lat="44.3539035" lon="7.7056071"><ele>532.25</ele><time>2026-05-03T08:57:35.3Z</time></trkpt><trkpt lat="44.3537965" lon="7.7056341"><ele>534.5</ele><time>2026-05-03T08:57:36.31Z</time></trkpt><trkpt lat="44.3536817" lon="7.7056724"><ele>536.75</ele><time>2026-05-03T08:57:37.304Z</time></trkpt><trkpt lat="44.3535598" lon="7.7057222"><ele>539.0</ele><time>2026-05-03T08:57:38.305Z</time></trkpt><trkpt lat="44.3534324" lon="7.7057817"><ele>539.0</ele><time>2026-05-03T08:57:39.304Z</time></trkpt><trkpt lat="44.3533004" lon="7.7058438"><ele>539.0</ele><time>2026-05-03T08:57:40.303Z</time></trkpt><trkpt lat="44.3531656" lon="7.7059083"><ele>539.0</ele><time>2026-05-03T08:57:41.314Z</time></trkpt><trkpt lat="44.353035" lon="7.7059777"><ele>539.0</ele><time>2026-05-03T08:57:42.308Z</time></trkpt><trkpt lat="44.3529156" lon="7.7060502"><ele>538.0</ele><time>2026-05-03T08:57:43.302Z</time></trkpt><trkpt lat="44.3528094" lon="7.7061159"><ele>537.0</ele><time>2026-05-03T08:57:44.307Z</time></trkpt><trkpt lat="44.3527106" lon="7.7061702"><ele>536.0</ele><time>2026-05-03T08:57:45.305Z</time></trkpt><trkpt lat="44.3526101" lon="7.7062073"><ele>535.0</ele><time>2026-05-03T08:57:46.298Z</time></trkpt><trkpt lat="44.3525047" lon="7.7062319"><ele>534.0</ele><time>2026-05-03T08:57:47.302Z</time></trkpt><trkpt lat="44.3523958" lon="7.7062689"><ele>534.0</ele><time>2026-05-03T08:57:48.313Z</time></trkpt><trkpt lat="44.352289" lon="7.7063345"><ele>534.0</ele><time>2026-05-03T08:57:49.3Z</time></trkpt><trkpt lat="44.3521901" lon="7.7064271"><ele>534.0</ele><time>2026-05-03T08:57:50.307Z</time></trkpt><trkpt lat="44.3520949" lon="7.7065156"><ele>534.0</ele><time>2026-05-03T08:57:51.305Z</time></trkpt><trkpt lat="44.352007" lon="7.7066087"><ele>535.5</ele><time>2026-05-03T08:57:52.305Z</time></trkpt><trkpt lat="44.3519154" lon="7.7066966"><ele>537.0</ele><time>2026-05-03T08:57:53.306Z</time></trkpt><trkpt lat="44.3518202" lon="7.7067802"><ele>538.5</ele><time>2026-05-03T08:57:54.304Z</time></trkpt><trkpt lat="44.3517162" lon="7.706858"><ele>540.0</ele><time>2026-05-03T08:57:55.31Z</time></trkpt><trkpt lat="44.351611" lon="7.7069316"><ele>540.0</ele><time>2026-05-03T08:57:56.312Z</time></trkpt><trkpt lat="44.3515046" lon="7.7070064"><ele>540.0</ele><time>2026-05-03T08:57:57.305Z</time></trkpt><trkpt lat="44.3514014" lon="7.7070885"><ele>540.0</ele><time>2026-05-03T08:57:58.305Z</time></trkpt><trkpt lat="44.351304" lon="7.7071744"><ele>540.0</ele><time>2026-05-03T08:57:59.308Z</time></trkpt><trkpt lat="44.3512164" lon="7.7072619"><ele>542.6</ele><time>2026-05-03T08:58:00.311Z</time></trkpt><trkpt lat="44.3511403" lon="7.707342"><ele>545.2</ele><time>2026-05-03T08:58:01.31Z</time></trkpt><trkpt lat="44.3510598" lon="7.7074057"><ele>547.8</ele><time>2026-05-03T08:58:02.311Z</time></trkpt><trkpt lat="44.350968" lon="7.7074452"><ele>550.4</ele><time>2026-05-03T08:58:03.312Z</time></trkpt><trkpt lat="44.3508658" lon="7.7074705"><ele>553.0</ele><time>2026-05-03T08:58:04.31Z</time></trkpt><trkpt lat="44.3507567" lon="7.7074969"><ele>553.0</ele><time>2026-05-03T08:58:05.31Z</time></trkpt><trkpt lat="44.3506468" lon="7.7075281"><ele>553.0</ele><time>2026-05-03T08:58:06.313Z</time></trkpt><trkpt lat="44.3505347" lon="7.7075589"><ele>553.0</ele><time>2026-05-03T08:58:07.313Z</time></trkpt><trkpt lat="44.3504214" lon="7.707586"><ele>553.0</ele><time>2026-05-03T08:58:08.31Z</time></trkpt><trkpt lat="44.3503075" lon="7.7076089"><ele>555.25</ele><time>2026-05-03T08:58:09.306Z</time></trkpt><trkpt lat="44.3501905" lon="7.707635"><ele>557.5</ele><time>2026-05-03T08:58:10.306Z</time></trkpt><trkpt lat="44.3500697" lon="7.7076735"><ele>559.75</ele><time>2026-05-03T08:58:11.306Z</time></trkpt><trkpt lat="44.3499406" lon="7.7077128"><ele>562.0</ele><time>2026-05-03T08:58:12.31Z</time></trkpt><trkpt lat="44.3498027" lon="7.7077426"><ele>562.0</ele><time>2026-05-03T08:58:13.31Z</time></trkpt><trkpt lat="44.3496708" lon="7.7077606"><ele>562.0</ele><time>2026-05-03T08:58:14.313Z</time></trkpt><trkpt lat="44.3495607" lon="7.7077633"><ele>562.0</ele><time>2026-05-03T08:58:15.364Z</time></trkpt><trkpt lat="44.3494699" lon="7.7077483"><ele>562.0</ele><time>2026-05-03T08:58:16.304Z</time></trkpt><trkpt lat="44.3493939" lon="7.7077077"><ele>562.0</ele><time>2026-05-03T08:58:17.307Z</time></trkpt><trkpt lat="44.3493239" lon="7.7076381"><ele>562.0</ele><time>2026-05-03T08:58:18.307Z</time></trkpt><trkpt lat="44.3492537" lon="7.7075562"><ele>562.0</ele><time>2026-05-03T08:58:19.303Z</time></trkpt><trkpt lat="44.3491724" lon="7.7074937"><ele>562.0</ele><time>2026-05-03T08:58:20.302Z</time></trkpt><trkpt lat="44.3490804" lon="7.7074612"><ele>562.0</ele><time>2026-05-03T08:58:21.306Z</time></trkpt><trkpt lat="44.3489829" lon="7.7074605"><ele>562.0</ele><time>2026-05-03T08:58:22.307Z</time></trkpt><trkpt lat="44.3488825" lon="7.7074853"><ele>564.0</ele><time>2026-05-03T08:58:23.336Z</time></trkpt><trkpt lat="44.3487798" lon="7.7075204"><ele>566.0</ele><time>2026-05-03T08:58:24.31Z</time></trkpt><trkpt lat="44.3486731" lon="7.7075583"><ele>568.0</ele><time>2026-05-03T08:58:25.306Z</time></trkpt><trkpt lat="44.3485629" lon="7.7075987"><ele>570.0</ele><time>2026-05-03T08:58:26.307Z</time></trkpt><trkpt lat="44.3484518" lon="7.7076445"><ele>572.0</ele><time>2026-05-03T08:58:27.31Z</time></trkpt><trkpt lat="44.3483449" lon="7.7077075"><ele>571.75</ele><time>2026-05-03T08:58:28.305Z</time></trkpt><trkpt lat="44.3482452" lon="7.7077941"><ele>571.5</ele><time>2026-05-03T08:58:29.303Z</time></trkpt><trkpt lat="44.3481494" lon="7.7078947"><ele>571.25</ele><time>2026-05-03T08:58:30.303Z</time></trkpt><trkpt lat="44.3480607" lon="7.7080003"><ele>571.0</ele><time>2026-05-03T08:58:31.309Z</time></trkpt><trkpt lat="44.3479785" lon="7.7080984"><ele>571.0</ele><time>2026-05-03T08:58:32.316Z</time></trkpt><trkpt lat="44.3479145" lon="7.7081996"><ele>571.0</ele><time>2026-05-03T08:58:33.307Z</time></trkpt><trkpt lat="44.3478483" lon="7.7082838"><ele>571.0</ele><time>2026-05-03T08:58:34.305Z</time></trkpt><trkpt lat="44.3477739" lon="7.7083487"><ele>571.0</ele><time>2026-05-03T08:58:35.303Z</time></trkpt><trkpt lat="44.3476878" lon="7.7083944"><ele>571.0</ele><time>2026-05-03T08:58:36.302Z</time></trkpt><trkpt lat="44.3476007" lon="7.7084305"><ele>571.0</ele><time>2026-05-03T08:58:37.306Z</time></trkpt><trkpt lat="44.347524" lon="7.7084547"><ele>571.0</ele><time>2026-05-03T08:58:38.306Z</time></trkpt><trkpt lat="44.3474221" lon="7.7084989"><ele>571.0</ele><time>2026-05-03T08:58:40.3Z</time></trkpt><trkpt lat="44.3473824" lon="7.7085744"><ele>571.0</ele><time>2026-05-03T08:58:42.301Z</time></trkpt><trkpt lat="44.347264" lon="7.708506"><ele>571.0</ele><time>2026-05-03T09:00:34.31Z</time></trkpt><trkpt lat="44.3471909" lon="7.7084658"><ele>570.3333333333334</ele><time>2026-05-03T09:00:35.307Z</time></trkpt><trkpt lat="44.3471165" lon="7.7084238"><ele>569.6666666666667</ele><time>2026-05-03T09:00:36.308Z</time></trkpt><trkpt lat="44.3470442" lon="7.7083545"><ele>569.0</ele><time>2026-05-03T09:00:37.31Z</time></trkpt><trkpt lat="44.3469806" lon="7.7082788"><ele>568.3333333333334</ele><time>2026-05-03T09:00:38.315Z</time></trkpt><trkpt lat="44.3469156" lon="7.7081987"><ele>567.6666666666666</ele><time>2026-05-03T09:00:39.312Z</time></trkpt><trkpt lat="44.3468557" lon="7.7081095"><ele>567.0</ele><time>2026-05-03T09:00:40.307Z</time></trkpt><trkpt lat="44.3468065" lon="7.7080121"><ele>567.0</ele><time>2026-05-03T09:00:41.307Z</time></trkpt><trkpt lat="44.3467691" lon="7.7078949"><ele>567.0</ele><time>2026-05-03T09:00:42.312Z</time></trkpt><trkpt lat="44.3467411" lon="7.7077834"><ele>567.0</ele><time>2026-05-03T09:00:43.302Z</time></trkpt><trkpt lat="44.3467039" lon="7.7076929"><ele>567.0</ele><time>2026-05-03T09:00:44.305Z</time></trkpt><trkpt lat="44.346656" lon="7.707627"><ele>567.0</ele><time>2026-05-03T09:00:45.312Z</time></trkpt><trkpt lat="44.3465957" lon="7.7075796"><ele>567.0</ele><time>2026-05-03T09:00:46.307Z</time></trkpt><trkpt lat="44.3465201" lon="7.7075377"><ele>569.2</ele><time>2026-05-03T09:00:47.309Z</time></trkpt><trkpt lat="44.3464316" lon="7.7074862"><ele>571.4000000000001</ele><time>2026-05-03T09:00:48.309Z</time></trkpt><trkpt lat="44.3463357" lon="7.7074308"><ele>573.5999999999999</ele><time>2026-05-03T09:00:49.309Z</time></trkpt><trkpt lat="44.3462359" lon="7.7073638"><ele>575.8</ele><time>2026-05-03T09:00:50.308Z</time></trkpt><trkpt lat="44.3461409" lon="7.7073119"><ele>578.0</ele><time>2026-05-03T09:00:51.302Z</time></trkpt><trkpt lat="44.3460556" lon="7.7072809"><ele>578.0</ele><time>2026-05-03T09:00:52.308Z</time></trkpt><trkpt lat="44.3459869" lon="7.7072756"><ele>578.0</ele><time>2026-05-03T09:00:53.303Z</time></trkpt><trkpt lat="44.3458906" lon="7.7073389"><ele>578.0</ele><time>2026-05-03T09:00:55.36Z</time></trkpt><trkpt lat="44.3458468" lon="7.70743"><ele>578.0</ele><time>2026-05-03T09:00:57.322Z</time></trkpt><trkpt lat="44.3459007" lon="7.7075514"><ele>578.0</ele><time>2026-05-03T09:00:59.31Z</time></trkpt><trkpt lat="44.3459451" lon="7.7076298"><ele>578.0</ele><time>2026-05-03T09:01:00.309Z</time></trkpt><trkpt lat="44.3460005" lon="7.7077201"><ele>578.4</ele><time>2026-05-03T09:01:01.303Z</time></trkpt><trkpt lat="44.3460573" lon="7.7078359"><ele>578.8</ele><time>2026-05-03T09:01:02.307Z</time></trkpt><trkpt lat="44.3461123" lon="7.7079713"><ele>579.2</ele><time>2026-05-03T09:01:03.3Z</time></trkpt><trkpt lat="44.3461544" lon="7.7081247"><ele>579.6</ele><time>2026-05-03T09:01:04.31Z</time></trkpt><trkpt lat="44.34619" lon="7.708282"><ele>580.0</ele><time>2026-05-03T09:01:05.303Z</time></trkpt><trkpt lat="44.3462277" lon="7.7084355"><ele>579.8</ele><time>2026-05-03T09:01:06.309Z</time></trkpt><trkpt lat="44.3462634" lon="7.7085772"><ele>579.6</ele><time>2026-05-03T09:01:07.303Z</time></trkpt><trkpt lat="44.3462919" lon="7.7086974"><ele>579.4</ele><time>2026-05-03T09:01:08.307Z</time></trkpt><trkpt lat="44.3463133" lon="7.7088"><ele>579.2</ele><time>2026-05-03T09:01:09.303Z</time></trkpt><trkpt lat="44.3463206" lon="7.7089352"><ele>579.0</ele><time>2026-05-03T09:01:11.309Z</time></trkpt><trkpt lat="44.3462365" lon="7.709079"><ele>579.0</ele><time>2026-05-03T09:01:13.301Z</time></trkpt><trkpt lat="44.3461639" lon="7.7091703"><ele>579.0</ele><time>2026-05-03T09:01:14.305Z</time></trkpt><trkpt lat="44.3460774" lon="7.7092833"><ele>579.0</ele><time>2026-05-03T09:01:15.308Z</time></trkpt><trkpt lat="44.3459778" lon="7.7094021"><ele>579.0</ele><time>2026-05-03T09:01:16.299Z</time></trkpt><trkpt lat="44.3458895" lon="7.7095131"><ele>580.6</ele><time>2026-05-03T09:01:17.31Z</time></trkpt><trkpt lat="44.3458167" lon="7.7095739"><ele>582.2</ele><time>2026-05-03T09:01:18.304Z</time></trkpt><trkpt lat="44.3457478" lon="7.7096341"><ele>583.8000000000001</ele><time>2026-05-03T09:01:19.309Z</time></trkpt><trkpt lat="44.3456212" lon="7.7096322"><ele>585.4</ele><time>2026-05-03T09:01:21.311Z</time></trkpt><trkpt lat="44.3455527" lon="7.709612"><ele>587.0</ele><time>2026-05-03T09:01:22.304Z</time></trkpt><trkpt lat="44.3454428" lon="7.7095973"><ele>587.0</ele><time>2026-05-03T09:01:24.309Z</time></trkpt><trkpt lat="44.345378" lon="7.7096507"><ele>587.0</ele><time>2026-05-03T09:01:26.306Z</time></trkpt><trkpt lat="44.3454029" lon="7.7097928"><ele>587.0</ele><time>2026-05-03T09:01:28.305Z</time></trkpt><trkpt lat="44.3454299" lon="7.7099013"><ele>587.0</ele><time>2026-05-03T09:01:29.304Z</time></trkpt><trkpt lat="44.3454624" lon="7.7100347"><ele>587.0</ele><time>2026-05-03T09:01:30.305Z</time></trkpt><trkpt lat="44.3454775" lon="7.7101595"><ele>584.0</ele><time>2026-05-03T09:01:31.303Z</time></trkpt><trkpt lat="44.3454841" lon="7.7102577"><ele>581.0</ele><time>2026-05-03T09:01:32.301Z</time></trkpt><trkpt lat="44.345441" lon="7.7103898"><ele>578.0</ele><time>2026-05-03T09:01:34.3Z</time></trkpt><trkpt lat="44.3453828" lon="7.7104515"><ele>575.0</ele><time>2026-05-03T09:01:35.305Z</time></trkpt><trkpt lat="44.3453102" lon="7.7105258"><ele>572.0</ele><time>2026-05-03T09:01:36.303Z</time></trkpt><trkpt lat="44.3452433" lon="7.710602"><ele>569.0</ele><time>2026-05-03T09:01:37.313Z</time></trkpt><trkpt lat="44.3451874" lon="7.7106765"><ele>569.0</ele><time>2026-05-03T09:01:38.304Z</time></trkpt><trkpt lat="44.3451386" lon="7.7107393"><ele>569.0</ele><time>2026-05-03T09:01:39.31Z</time></trkpt><trkpt lat="44.3450835" lon="7.7107943"><ele>569.0</ele><time>2026-05-03T09:01:40.3Z</time></trkpt><trkpt lat="44.3449567" lon="7.7107895"><ele>569.0</ele><time>2026-05-03T09:01:42.312Z</time></trkpt><trkpt lat="44.3448711" lon="7.7107569"><ele>569.0</ele><time>2026-05-03T09:01:43.31Z</time></trkpt><trkpt lat="44.3447816" lon="7.710705"><ele>569.0</ele><time>2026-05-03T09:01:44.312Z</time></trkpt><trkpt lat="44.3446863" lon="7.7106484"><ele>569.2</ele><time>2026-05-03T09:01:45.311Z</time></trkpt><trkpt lat="44.3445908" lon="7.7106194"><ele>569.4</ele><time>2026-05-03T09:01:46.311Z</time></trkpt><trkpt lat="44.3444894" lon="7.7106089"><ele>569.6</ele><time>2026-05-03T09:01:47.321Z</time></trkpt><trkpt lat="44.3443842" lon="7.7106036"><ele>569.8</ele><time>2026-05-03T09:01:48.308Z</time></trkpt><trkpt lat="44.3442849" lon="7.7106002"><ele>570.0</ele><time>2026-05-03T09:01:49.307Z</time></trkpt><trkpt lat="44.3441902" lon="7.7105973"><ele>570.0</ele><time>2026-05-03T09:01:50.311Z</time></trkpt><trkpt lat="44.3441091" lon="7.7105929"><ele>570.0</ele><time>2026-05-03T09:01:51.305Z</time></trkpt><trkpt lat="44.3440362" lon="7.7105887"><ele>570.0</ele><time>2026-05-03T09:01:52.317Z</time></trkpt><trkpt lat="44.3439246" lon="7.7105576"><ele>570.0</ele><time>2026-05-03T09:01:54.303Z</time></trkpt><trkpt lat="44.343835" lon="7.7104416"><ele>570.0</ele><time>2026-05-03T09:01:56.311Z</time></trkpt><trkpt lat="44.3437552" lon="7.7102858"><ele>570.8333333333334</ele><time>2026-05-03T09:01:58.3Z</time></trkpt><trkpt lat="44.3437156" lon="7.7102102"><ele>571.6666666666666</ele><time>2026-05-03T09:01:59.312Z</time></trkpt><trkpt lat="44.3436666" lon="7.7101206"><ele>572.5</ele><time>2026-05-03T09:02:00.321Z</time></trkpt><trkpt lat="44.3436103" lon="7.7100247"><ele>573.3333333333333</ele><time>2026-05-03T09:02:01.303Z</time></trkpt><trkpt lat="44.3435572" lon="7.7099325"><ele>574.1666666666666</ele><time>2026-05-03T09:02:02.298Z</time></trkpt><trkpt lat="44.3434893" lon="7.7098368"><ele>575.0</ele><time>2026-05-03T09:02:03.333Z</time></trkpt><trkpt lat="44.3434241" lon="7.709749"><ele>575.0</ele><time>2026-05-03T09:02:04.305Z</time></trkpt><trkpt lat="44.3433489" lon="7.7096831"><ele>575.0</ele><time>2026-05-03T09:02:05.31Z</time></trkpt><trkpt lat="44.3432724" lon="7.7096345"><ele>575.0</ele><time>2026-05-03T09:02:06.307Z</time></trkpt><trkpt lat="44.3431925" lon="7.7095858"><ele>575.0</ele><time>2026-05-03T09:02:07.307Z</time></trkpt><trkpt lat="44.3431152" lon="7.7095397"><ele>575.0</ele><time>2026-05-03T09:02:08.298Z</time></trkpt><trkpt lat="44.343034" lon="7.7094823"><ele>575.0</ele><time>2026-05-03T09:02:09.304Z</time></trkpt><trkpt lat="44.3429688" lon="7.7094114"><ele>575.8</ele><time>2026-05-03T09:02:10.312Z</time></trkpt><trkpt lat="44.342905" lon="7.7093329"><ele>576.6</ele><time>2026-05-03T09:02:11.307Z</time></trkpt><trkpt lat="44.3428431" lon="7.7092548"><ele>577.4</ele><time>2026-05-03T09:02:12.308Z</time></trkpt><trkpt lat="44.3427867" lon="7.7091932"><ele>578.2</ele><time>2026-05-03T09:02:13.31Z</time></trkpt><trkpt lat="44.3426919" lon="7.7091185"><ele>579.0</ele><time>2026-05-03T09:02:15.311Z</time></trkpt><trkpt lat="44.342579" lon="7.7090423"><ele>579.0</ele><time>2026-05-03T09:02:17.316Z</time></trkpt><trkpt lat="44.3424935" lon="7.7089672"><ele>579.0</ele><time>2026-05-03T09:02:19.309Z</time></trkpt><trkpt lat="44.3424083" lon="7.7088378"><ele>579.0</ele><time>2026-05-03T09:02:21.313Z</time></trkpt><trkpt lat="44.3423609" lon="7.7087452"><ele>579.0</ele><time>2026-05-03T09:02:22.307Z</time></trkpt><trkpt lat="44.3423081" lon="7.7086544"><ele>579.0</ele><time>2026-05-03T09:02:23.302Z</time></trkpt><trkpt lat="44.3422585" lon="7.7085647"><ele>579.5</ele><time>2026-05-03T09:02:24.304Z</time></trkpt><trkpt lat="44.3422073" lon="7.7084623"><ele>580.0</ele><time>2026-05-03T09:02:25.304Z</time></trkpt><trkpt lat="44.3421594" lon="7.7083552"><ele>580.5</ele><time>2026-05-03T09:02:26.309Z</time></trkpt><trkpt lat="44.3421191" lon="7.7082633"><ele>581.0</ele><time>2026-05-03T09:02:27.308Z</time></trkpt><trkpt lat="44.3420876" lon="7.7081837"><ele>581.5</ele><time>2026-05-03T09:02:28.297Z</time></trkpt><trkpt lat="44.3420449" lon="7.7080418"><ele>582.0</ele><time>2026-05-03T09:02:30.31Z</time></trkpt><trkpt lat="44.3420231" lon="7.7078866"><ele>582.0</ele><time>2026-05-03T09:02:32.306Z</time></trkpt><trkpt lat="44.3420141" lon="7.7077424"><ele>582.0</ele><time>2026-05-03T09:02:34.309Z</time></trkpt><trkpt lat="44.3419857" lon="7.7075924"><ele>582.0</ele><time>2026-05-03T09:02:48.337Z</time></trkpt><trkpt lat="44.3419336" lon="7.7076641"><ele>582.0</ele><time>2026-05-03T09:02:51.318Z</time></trkpt><trkpt lat="44.3418694" lon="7.707764"><ele>582.0</ele><time>2026-05-03T09:02:53.313Z</time></trkpt><trkpt lat="44.3417628" lon="7.7078141"><ele>582.0</ele><time>2026-05-03T09:02:55.31Z</time></trkpt><trkpt lat="44.3416955" lon="7.7078111"><ele>582.0</ele><time>2026-05-03T09:02:56.312Z</time></trkpt><trkpt lat="44.3416272" lon="7.7077992"><ele>582.0</ele><time>2026-05-03T09:02:57.32Z</time></trkpt><trkpt lat="44.3415612" lon="7.7077657"><ele>582.0</ele><time>2026-05-03T09:02:58.306Z</time></trkpt><trkpt lat="44.3414494" lon="7.7077048"><ele>582.0</ele><time>2026-05-03T09:03:00.313Z</time></trkpt><trkpt lat="44.3413497" lon="7.7076216"><ele>582.0</ele><time>2026-05-03T09:03:02.306Z</time></trkpt><trkpt lat="44.3412888" lon="7.7075739"><ele>584.6</ele><time>2026-05-03T09:03:03.309Z</time></trkpt><trkpt lat="44.3412137" lon="7.7075457"><ele>587.2</ele><time>2026-05-03T09:03:04.3Z</time></trkpt><trkpt lat="44.3411228" lon="7.707519"><ele>589.8</ele><time>2026-05-03T09:03:05.302Z</time></trkpt><trkpt lat="44.3410252" lon="7.7074793"><ele>592.4</ele><time>2026-05-03T09:03:06.315Z</time></trkpt><trkpt lat="44.3409309" lon="7.7074543"><ele>595.0</ele><time>2026-05-03T09:03:07.298Z</time></trkpt><trkpt lat="44.3408435" lon="7.7074266"><ele>595.0</ele><time>2026-05-03T09:03:08.299Z</time></trkpt><trkpt lat="44.3407707" lon="7.7073988"><ele>595.0</ele><time>2026-05-03T09:03:09.309Z</time></trkpt><trkpt lat="44.3406979" lon="7.707368"><ele>595.0</ele><time>2026-05-03T09:03:10.314Z</time></trkpt><trkpt lat="44.3405866" lon="7.7073212"><ele>595.0</ele><time>2026-05-03T09:03:12.306Z</time></trkpt><trkpt lat="44.3404826" lon="7.7072201"><ele>595.0</ele><time>2026-05-03T09:03:14.312Z</time></trkpt><trkpt lat="44.3404028" lon="7.7071204"><ele>595.8</ele><time>2026-05-03T09:03:16.311Z</time></trkpt><trkpt lat="44.3403662" lon="7.7070215"><ele>596.6</ele><time>2026-05-03T09:03:18.31Z</time></trkpt><trkpt lat="44.3403331" lon="7.7068786"><ele>597.4</ele><time>2026-05-03T09:03:20.312Z</time></trkpt><trkpt lat="44.3402683" lon="7.7067279"><ele>598.2</ele><time>2026-05-03T09:03:22.307Z</time></trkpt><trkpt lat="44.3402077" lon="7.7066433"><ele>599.0</ele><time>2026-05-03T09:03:23.322Z</time></trkpt><trkpt lat="44.3401318" lon="7.7065597"><ele>601.3333333333333</ele><time>2026-05-03T09:03:24.315Z</time></trkpt><trkpt lat="44.3400564" lon="7.7064848"><ele>603.6666666666666</ele><time>2026-05-03T09:03:25.302Z</time></trkpt><trkpt lat="44.3399864" lon="7.7063985"><ele>606.0</ele><time>2026-05-03T09:03:26.3Z</time></trkpt><trkpt lat="44.3399235" lon="7.7063192"><ele>608.3333333333334</ele><time>2026-05-03T09:03:27.313Z</time></trkpt><trkpt lat="44.3398699" lon="7.7062335"><ele>610.6666666666667</ele><time>2026-05-03T09:03:28.307Z</time></trkpt><trkpt lat="44.3398248" lon="7.7061696"><ele>613.0</ele><time>2026-05-03T09:03:29.304Z</time></trkpt><trkpt lat="44.3397496" lon="7.7061079"><ele>614.1999999999999</ele><time>2026-05-03T09:03:31.312Z</time></trkpt><trkpt lat="44.3396877" lon="7.7061299"><ele>615.4</ele><time>2026-05-03T09:03:33.325Z</time></trkpt><trkpt lat="44.3396144" lon="7.7061552"><ele>616.5999999999999</ele><time>2026-05-03T09:03:35.309Z</time></trkpt><trkpt lat="44.3395202" lon="7.7061759"><ele>617.8</ele><time>2026-05-03T09:03:37.305Z</time></trkpt><trkpt lat="44.3394012" lon="7.7061698"><ele>619.0</ele><time>2026-05-03T09:03:39.312Z</time></trkpt><trkpt lat="44.3393058" lon="7.7061535"><ele>619.0</ele><time>2026-05-03T09:03:41.316Z</time></trkpt><trkpt lat="44.3391888" lon="7.7060978"><ele>619.0</ele><time>2026-05-03T09:03:43.312Z</time></trkpt><trkpt lat="44.3391247" lon="7.7060717"><ele>619.0</ele><time>2026-05-03T09:03:44.309Z</time></trkpt><trkpt lat="44.3390518" lon="7.7060724"><ele>619.0</ele><time>2026-05-03T09:03:45.317Z</time></trkpt><trkpt lat="44.3389825" lon="7.7060931"><ele>619.0</ele><time>2026-05-03T09:03:46.312Z</time></trkpt><trkpt lat="44.3388713" lon="7.7061147"><ele>619.0</ele><time>2026-05-03T09:03:48.307Z</time></trkpt><trkpt lat="44.3387628" lon="7.7061213"><ele>619.8333333333334</ele><time>2026-05-03T09:03:50.31Z</time></trkpt><trkpt lat="44.3386456" lon="7.7061563"><ele>620.6666666666667</ele><time>2026-05-03T09:03:52.32Z</time></trkpt><trkpt lat="44.338553" lon="7.7061835"><ele>621.5</ele><time>2026-05-03T09:03:53.312Z</time></trkpt><trkpt lat="44.3384779" lon="7.7062112"><ele>622.3333333333334</ele><time>2026-05-03T09:03:54.309Z</time></trkpt><trkpt lat="44.3384086" lon="7.7062358"><ele>623.1666666666666</ele><time>2026-05-03T09:03:55.315Z</time></trkpt><trkpt lat="44.3383431" lon="7.7062498"><ele>624.0</ele><time>2026-05-03T09:03:56.309Z</time></trkpt><trkpt lat="44.3382696" lon="7.7062881"><ele>624.0</ele><time>2026-05-03T09:03:57.317Z</time></trkpt><trkpt lat="44.3382005" lon="7.7063277"><ele>624.0</ele><time>2026-05-03T09:03:58.313Z</time></trkpt><trkpt lat="44.3381373" lon="7.7063828"><ele>624.0</ele><time>2026-05-03T09:03:59.314Z</time></trkpt><trkpt lat="44.3380807" lon="7.7064518"><ele>624.0</ele><time>2026-05-03T09:04:00.325Z</time></trkpt><trkpt lat="44.3379922" lon="7.7065638"><ele>624.0</ele><time>2026-05-03T09:04:02.308Z</time></trkpt><trkpt lat="44.3379054" lon="7.7066871"><ele>624.1428571428572</ele><time>2026-05-03T09:04:04.312Z</time></trkpt><trkpt lat="44.3378599" lon="7.7067644"><ele>624.2857142857142</ele><time>2026-05-03T09:04:05.304Z</time></trkpt><trkpt lat="44.3378165" lon="7.7068323"><ele>624.4285714285714</ele><time>2026-05-03T09:04:06.314Z</time></trkpt><trkpt lat="44.337773" lon="7.7069048"><ele>624.5714285714287</ele><time>2026-05-03T09:04:07.308Z</time></trkpt><trkpt lat="44.3377395" lon="7.7069855"><ele>624.7142857142858</ele><time>2026-05-03T09:04:08.307Z</time></trkpt><trkpt lat="44.3377058" lon="7.7070665"><ele>624.8571428571429</ele><time>2026-05-03T09:04:09.307Z</time></trkpt><trkpt lat="44.3376752" lon="7.7071455"><ele>625.0</ele><time>2026-05-03T09:04:10.304Z</time></trkpt><trkpt lat="44.3376347" lon="7.7072339"><ele>625.1666666666667</ele><time>2026-05-03T09:04:11.305Z</time></trkpt><trkpt lat="44.3375902" lon="7.7073152"><ele>625.3333333333334</ele><time>2026-05-03T09:04:12.303Z</time></trkpt><trkpt lat="44.3375389" lon="7.7073936"><ele>625.5</ele><time>2026-05-03T09:04:13.307Z</time></trkpt><trkpt lat="44.337486" lon="7.7074643"><ele>625.6666666666666</ele><time>2026-05-03T09:04:14.308Z</time></trkpt><trkpt lat="44.3374386" lon="7.7075319"><ele>625.8333333333333</ele><time>2026-05-03T09:04:15.311Z</time></trkpt><trkpt lat="44.3373475" lon="7.7076739"><ele>626.0</ele><time>2026-05-03T09:04:17.303Z</time></trkpt><trkpt lat="44.3373007" lon="7.7077504"><ele>626.0</ele><time>2026-05-03T09:04:18.31Z</time></trkpt><trkpt lat="44.3372297" lon="7.707846"><ele>626.0</ele><time>2026-05-03T09:04:20.306Z</time></trkpt><trkpt lat="44.3371559" lon="7.7079524"><ele>626.0</ele><time>2026-05-03T09:04:22.324Z</time></trkpt><trkpt lat="44.3370903" lon="7.7080416"><ele>626.0</ele><time>2026-05-03T09:04:24.33Z</time></trkpt><trkpt lat="44.3370219" lon="7.708117"><ele>626.0</ele><time>2026-05-03T09:04:26.307Z</time></trkpt><trkpt lat="44.3369344" lon="7.7081728"><ele>629.6</ele><time>2026-05-03T09:04:28.332Z</time></trkpt><trkpt lat="44.3368475" lon="7.7082025"><ele>633.2</ele><time>2026-05-03T09:04:30.312Z</time></trkpt><trkpt lat="44.3367516" lon="7.7082476"><ele>636.8000000000001</ele><time>2026-05-03T09:04:32.315Z</time></trkpt><trkpt lat="44.3366664" lon="7.7082656"><ele>640.4000000000001</ele><time>2026-05-03T09:04:34.311Z</time></trkpt><trkpt lat="44.3365855" lon="7.7083074"><ele>644.0</ele><time>2026-05-03T09:04:36.343Z</time></trkpt><trkpt lat="44.3365222" lon="7.7084657"><ele>644.0</ele><time>2026-05-03T09:04:38.3Z</time></trkpt><trkpt lat="44.336497" lon="7.7085541"><ele>644.0</ele><time>2026-05-03T09:04:39.31Z</time></trkpt><trkpt lat="44.3364664" lon="7.7086485"><ele>644.0</ele><time>2026-05-03T09:04:40.304Z</time></trkpt><trkpt lat="44.3364381" lon="7.7087352"><ele>644.0</ele><time>2026-05-03T09:04:41.3Z</time></trkpt><trkpt lat="44.3363878" lon="7.7088732"><ele>644.0</ele><time>2026-05-03T09:04:43.307Z</time></trkpt><trkpt lat="44.3363166" lon="7.7090086"><ele>644.0</ele><time>2026-05-03T09:04:45.307Z</time></trkpt><trkpt lat="44.3362725" lon="7.7091363"><ele>647.0</ele><time>2026-05-03T09:04:47.308Z</time></trkpt><trkpt lat="44.3362581" lon="7.7092577"><ele>650.0</ele><time>2026-05-03T09:04:49.318Z</time></trkpt><trkpt lat="44.3362522" lon="7.7094139"><ele>653.0</ele><time>2026-05-03T09:04:51.307Z</time></trkpt><trkpt lat="44.3362554" lon="7.7095025"><ele>656.0</ele><time>2026-05-03T09:04:52.306Z</time></trkpt><trkpt lat="44.3362523" lon="7.7095978"><ele>659.0</ele><time>2026-05-03T09:04:53.317Z</time></trkpt><trkpt lat="44.3362456" lon="7.709708"><ele>662.0</ele><time>2026-05-03T09:04:55.309Z</time></trkpt><trkpt lat="44.336226" lon="7.7098204"><ele>663.3333333333333</ele><time>2026-05-03T09:04:57.32Z</time></trkpt><trkpt lat="44.3361772" lon="7.7099246"><ele>664.6666666666666</ele><time>2026-05-03T09:04:59.322Z</time></trkpt><trkpt lat="44.3361077" lon="7.7100557"><ele>666.0</ele><time>2026-05-03T09:05:01.302Z</time></trkpt><trkpt lat="44.3360762" lon="7.7101486"><ele>667.3333333333334</ele><time>2026-05-03T09:05:02.329Z</time></trkpt><trkpt lat="44.3360522" lon="7.7102336"><ele>668.6666666666667</ele><time>2026-05-03T09:05:03.309Z</time></trkpt><trkpt lat="44.3360197" lon="7.7103249"><ele>670.0</ele><time>2026-05-03T09:05:04.326Z</time></trkpt><trkpt lat="44.3359796" lon="7.7104098"><ele>670.0</ele><time>2026-05-03T09:05:05.314Z</time></trkpt><trkpt lat="44.3359389" lon="7.7105027"><ele>670.0</ele><time>2026-05-03T09:05:06.322Z</time></trkpt><trkpt lat="44.3359059" lon="7.7105854"><ele>670.0</ele><time>2026-05-03T09:05:07.31Z</time></trkpt><trkpt lat="44.3358541" lon="7.7106942"><ele>670.0</ele><time>2026-05-03T09:05:08.315Z</time></trkpt><trkpt lat="44.3357867" lon="7.7107944"><ele>670.0</ele><time>2026-05-03T09:05:09.31Z</time></trkpt><trkpt lat="44.3357247" lon="7.7108724"><ele>670.0</ele><time>2026-05-03T09:05:10.322Z</time></trkpt><trkpt lat="44.3356568" lon="7.7109732"><ele>670.0</ele><time>2026-05-03T09:05:12.311Z</time></trkpt><trkpt lat="44.3355987" lon="7.7110241"><ele>670.0</ele><time>2026-05-03T09:05:33.314Z</time></trkpt><trkpt lat="44.3355457" lon="7.7110913"><ele>670.0</ele><time>2026-05-03T09:05:35.305Z</time></trkpt><trkpt lat="44.3354878" lon="7.7111391"><ele>670.0</ele><time>2026-05-03T09:05:37.314Z</time></trkpt><trkpt lat="44.3354164" lon="7.711175"><ele>670.0</ele><time>2026-05-03T09:05:39.318Z</time></trkpt><trkpt lat="44.3353073" lon="7.711144"><ele>670.0</ele><time>2026-05-03T09:05:41.314Z</time></trkpt><trkpt lat="44.3351907" lon="7.7111007"><ele>674.8</ele><time>2026-05-03T09:05:43.314Z</time></trkpt><trkpt lat="44.3350799" lon="7.7110903"><ele>679.6</ele><time>2026-05-03T09:05:45.333Z</time></trkpt><trkpt lat="44.335009" lon="7.7111881"><ele>684.4000000000001</ele><time>2026-05-03T09:05:47.307Z</time></trkpt><trkpt lat="44.3349194" lon="7.7112681"><ele>689.2</ele><time>2026-05-03T09:05:49.313Z</time></trkpt><trkpt lat="44.3348326" lon="7.7112894"><ele>694.0</ele><time>2026-05-03T09:05:51.307Z</time></trkpt><trkpt lat="44.3347238" lon="7.7112419"><ele>696.2</ele><time>2026-05-03T09:05:53.307Z</time></trkpt><trkpt lat="44.3346129" lon="7.7111548"><ele>698.4000000000001</ele><time>2026-05-03T09:05:55.311Z</time></trkpt><trkpt lat="44.3344854" lon="7.7111025"><ele>700.6</ele><time>2026-05-03T09:05:57.312Z</time></trkpt><trkpt lat="44.334408" lon="7.7110964"><ele>702.8</ele><time>2026-05-03T09:05:58.3Z</time></trkpt><trkpt lat="44.3343403" lon="7.711089"><ele>705.0</ele><time>2026-05-03T09:05:59.303Z</time></trkpt><trkpt lat="44.334241" lon="7.7110855"><ele>705.0</ele><time>2026-05-03T09:06:01.309Z</time></trkpt><trkpt lat="44.334157" lon="7.7111177"><ele>705.0</ele><time>2026-05-03T09:06:03.318Z</time></trkpt><trkpt lat="44.3340958" lon="7.7111583"><ele>705.0</ele><time>2026-05-03T09:06:05.306Z</time></trkpt><trkpt lat="44.3340289" lon="7.7111892"><ele>705.0</ele><time>2026-05-03T09:06:07.317Z</time></trkpt><trkpt lat="44.3339369" lon="7.7112074"><ele>705.0</ele><time>2026-05-03T09:06:09.302Z</time></trkpt><trkpt lat="44.3338661" lon="7.7112343"><ele>705.0</ele><time>2026-05-03T09:06:10.309Z</time></trkpt><trkpt lat="44.3337902" lon="7.7112693"><ele>704.6666666666666</ele><time>2026-05-03T09:06:11.306Z</time></trkpt><trkpt lat="44.3337208" lon="7.7112955"><ele>704.3333333333334</ele><time>2026-05-03T09:06:12.305Z</time></trkpt><trkpt lat="44.3336261" lon="7.7113269"><ele>704.0</ele><time>2026-05-03T09:06:14.306Z</time></trkpt><trkpt lat="44.3335591" lon="7.7113678"><ele>703.6666666666667</ele><time>2026-05-03T09:06:16.312Z</time></trkpt><trkpt lat="44.3335383" lon="7.7114883"><ele>703.3333333333334</ele><time>2026-05-03T09:06:19.316Z</time></trkpt><trkpt lat="44.3334675" lon="7.7116137"><ele>703.0</ele><time>2026-05-03T09:06:21.313Z</time></trkpt><trkpt lat="44.3333907" lon="7.7117196"><ele>703.0</ele><time>2026-05-03T09:06:23.31Z</time></trkpt><trkpt lat="44.3333334" lon="7.711819"><ele>703.0</ele><time>2026-05-03T09:06:25.311Z</time></trkpt><trkpt lat="44.333256" lon="7.7119134"><ele>703.0</ele><time>2026-05-03T09:06:52.311Z</time></trkpt><trkpt lat="44.3332336" lon="7.7120186"><ele>703.0</ele><time>2026-05-03T09:06:55.333Z</time></trkpt><trkpt lat="44.3332116" lon="7.7121269"><ele>703.0</ele><time>2026-05-03T09:06:58.309Z</time></trkpt><trkpt lat="44.3331131" lon="7.7122785"><ele>702.8333333333334</ele><time>2026-05-03T09:07:00.323Z</time></trkpt><trkpt lat="44.3330412" lon="7.7123735"><ele>702.6666666666667</ele><time>2026-05-03T09:07:01.302Z</time></trkpt><trkpt lat="44.3329733" lon="7.7124536"><ele>702.5</ele><time>2026-05-03T09:07:02.308Z</time></trkpt><trkpt lat="44.3328984" lon="7.7125294"><ele>702.3333333333334</ele><time>2026-05-03T09:07:03.309Z</time></trkpt><trkpt lat="44.3328415" lon="7.7125838"><ele>702.1666666666666</ele><time>2026-05-03T09:07:04.311Z</time></trkpt><trkpt lat="44.3327616" lon="7.7126531"><ele>702.0</ele><time>2026-05-03T09:07:06.32Z</time></trkpt><trkpt lat="44.3326854" lon="7.7127045"><ele>698.2</ele><time>2026-05-03T09:07:08.306Z</time></trkpt><trkpt lat="44.3326275" lon="7.7127527"><ele>694.4000000000001</ele><time>2026-05-03T09:07:10.307Z</time></trkpt><trkpt lat="44.3325547" lon="7.7127877"><ele>690.5999999999999</ele><time>2026-05-03T09:07:12.316Z</time></trkpt><trkpt lat="44.3324214" lon="7.7128274"><ele>686.8</ele><time>2026-05-03T09:07:14.302Z</time></trkpt><trkpt lat="44.3323325" lon="7.7128581"><ele>683.0</ele><time>2026-05-03T09:07:15.31Z</time></trkpt><trkpt lat="44.3322467" lon="7.7128886"><ele>684.3333333333333</ele><time>2026-05-03T09:07:16.306Z</time></trkpt><trkpt lat="44.332166" lon="7.7129161"><ele>685.6666666666666</ele><time>2026-05-03T09:07:17.3Z</time></trkpt><trkpt lat="44.3320988" lon="7.712936"><ele>687.0</ele><time>2026-05-03T09:07:18.298Z</time></trkpt><trkpt lat="44.3320366" lon="7.7129498"><ele>688.3333333333334</ele><time>2026-05-03T09:07:19.312Z</time></trkpt><trkpt lat="44.3319326" lon="7.7130046"><ele>689.6666666666667</ele><time>2026-05-03T09:07:21.303Z</time></trkpt><trkpt lat="44.33186" lon="7.7130872"><ele>691.0</ele><time>2026-05-03T09:07:23.317Z</time></trkpt><trkpt lat="44.3317912" lon="7.7131999"><ele>691.0</ele><time>2026-05-03T09:07:25.305Z</time></trkpt><trkpt lat="44.331741" lon="7.7132682"><ele>691.0</ele><time>2026-05-03T09:07:26.312Z</time></trkpt><trkpt lat="44.3316771" lon="7.713362"><ele>691.0</ele><time>2026-05-03T09:07:27.308Z</time></trkpt><trkpt lat="44.3315911" lon="7.7134519"><ele>691.0</ele><time>2026-05-03T09:07:28.301Z</time></trkpt><trkpt lat="44.3315182" lon="7.7135186"><ele>691.0</ele><time>2026-05-03T09:07:29.304Z</time></trkpt><trkpt lat="44.3314623" lon="7.7135613"><ele>691.0</ele><time>2026-05-03T09:07:30.297Z</time></trkpt><trkpt lat="44.3313585" lon="7.713616"><ele>694.1666666666667</ele><time>2026-05-03T09:07:31.308Z</time></trkpt><trkpt lat="44.3312601" lon="7.7136531"><ele>697.3333333333334</ele><time>2026-05-03T09:07:32.311Z</time></trkpt><trkpt lat="44.3311738" lon="7.7136862"><ele>700.5</ele><time>2026-05-03T09:07:33.305Z</time></trkpt><trkpt lat="44.3311014" lon="7.7137103"><ele>703.6666666666666</ele><time>2026-05-03T09:07:34.301Z</time></trkpt><trkpt lat="44.3310159" lon="7.7137789"><ele>706.8333333333333</ele><time>2026-05-03T09:07:36.331Z</time></trkpt><trkpt lat="44.3309759" lon="7.7138571"><ele>710.0</ele><time>2026-05-03T09:07:38.308Z</time></trkpt><trkpt lat="44.3310568" lon="7.7138677"><ele>710.0</ele><time>2026-05-03T09:07:44.308Z</time></trkpt><trkpt lat="44.3311307" lon="7.7138596"><ele>710.0</ele><time>2026-05-03T09:07:46.314Z</time></trkpt><trkpt lat="44.3312512" lon="7.7138836"><ele>710.0</ele><time>2026-05-03T09:07:48.306Z</time></trkpt><trkpt lat="44.3313182" lon="7.7139014"><ele>710.0</ele><time>2026-05-03T09:07:49.306Z</time></trkpt><trkpt lat="44.3313953" lon="7.713943"><ele>710.0</ele><time>2026-05-03T09:07:50.318Z</time></trkpt><trkpt lat="44.3314737" lon="7.7139823"><ele>710.0</ele><time>2026-05-03T09:07:51.305Z</time></trkpt><trkpt lat="44.3315625" lon="7.7140302"><ele>708.6</ele><time>2026-05-03T09:07:52.301Z</time></trkpt><trkpt lat="44.331633" lon="7.7140793"><ele>707.2</ele><time>2026-05-03T09:07:53.306Z</time></trkpt><trkpt lat="44.3316897" lon="7.7141369"><ele>705.8</ele><time>2026-05-03T09:07:54.31Z</time></trkpt><trkpt lat="44.3317329" lon="7.7142542"><ele>704.4</ele><time>2026-05-03T09:07:56.316Z</time></trkpt><trkpt lat="44.3317196" lon="7.7144024"><ele>703.0</ele><time>2026-05-03T09:07:58.313Z</time></trkpt><trkpt lat="44.3317504" lon="7.7145522"><ele>703.0</ele><time>2026-05-03T09:08:00.318Z</time></trkpt><trkpt lat="44.3318183" lon="7.7146386"><ele>703.0</ele><time>2026-05-03T09:08:02.31Z</time></trkpt><trkpt lat="44.3318932" lon="7.71475"><ele>703.0</ele><time>2026-05-03T09:08:04.317Z</time></trkpt><trkpt lat="44.3319478" lon="7.7148164"><ele>703.0</ele><time>2026-05-03T09:08:05.302Z</time></trkpt><trkpt lat="44.3320138" lon="7.7149008"><ele>703.0</ele><time>2026-05-03T09:08:06.313Z</time></trkpt><trkpt lat="44.3320917" lon="7.7149994"><ele>703.0</ele><time>2026-05-03T09:08:07.304Z</time></trkpt><trkpt lat="44.3321649" lon="7.7150937"><ele>703.0</ele><time>2026-05-03T09:08:08.308Z</time></trkpt><trkpt lat="44.3322368" lon="7.715203"><ele>703.0</ele><time>2026-05-03T09:08:09.297Z</time></trkpt><trkpt lat="44.3323027" lon="7.7153207"><ele>703.0</ele><time>2026-05-03T09:08:10.307Z</time></trkpt><trkpt lat="44.3323732" lon="7.7154451"><ele>703.0</ele><time>2026-05-03T09:08:11.314Z</time></trkpt><trkpt lat="44.3324205" lon="7.7155512"><ele>703.8</ele><time>2026-05-03T09:08:12.31Z</time></trkpt><trkpt lat="44.3324634" lon="7.7156418"><ele>704.5999999999999</ele><time>2026-05-03T09:08:13.299Z</time></trkpt><trkpt lat="44.3325083" lon="7.715811"><ele>705.4000000000001</ele><time>2026-05-03T09:08:15.312Z</time></trkpt><trkpt lat="44.3325273" lon="7.7159132"><ele>706.2</ele><time>2026-05-03T09:08:16.309Z</time></trkpt><trkpt lat="44.3325354" lon="7.7160149"><ele>707.0</ele><time>2026-05-03T09:08:17.302Z</time></trkpt><trkpt lat="44.3325677" lon="7.7161697"><ele>707.0</ele><time>2026-05-03T09:08:19.303Z</time></trkpt><trkpt lat="44.3326339" lon="7.716314"><ele>707.0</ele><time>2026-05-03T09:08:21.318Z</time></trkpt><trkpt lat="44.3326775" lon="7.7163888"><ele>707.0</ele><time>2026-05-03T09:08:22.326Z</time></trkpt><trkpt lat="44.3327209" lon="7.7164858"><ele>707.0</ele><time>2026-05-03T09:08:23.301Z</time></trkpt><trkpt lat="44.3327667" lon="7.7165912"><ele>707.0</ele><time>2026-05-03T09:08:24.303Z</time></trkpt><trkpt lat="44.3328213" lon="7.7167026"><ele>707.0</ele><time>2026-05-03T09:08:25.313Z</time></trkpt><trkpt lat="44.332872" lon="7.716824"><ele>707.0</ele><time>2026-05-03T09:08:26.307Z</time></trkpt><trkpt lat="44.3329177" lon="7.7169327"><ele>707.0</ele><time>2026-05-03T09:08:27.304Z</time></trkpt><trkpt lat="44.3329619" lon="7.7170257"><ele>707.0</ele><time>2026-05-03T09:08:28.305Z</time></trkpt><trkpt lat="44.3330064" lon="7.7171014"><ele>707.0</ele><time>2026-05-03T09:08:29.315Z</time></trkpt><trkpt lat="44.3330663" lon="7.7172201"><ele>707.0</ele><time>2026-05-03T09:08:31.299Z</time></trkpt><trkpt lat="44.3330862" lon="7.7173421"><ele>706.3333333333333</ele><time>2026-05-03T09:08:33.315Z</time></trkpt><trkpt lat="44.3330665" lon="7.71744"><ele>705.6666666666666</ele><time>2026-05-03T09:08:34.3Z</time></trkpt><trkpt lat="44.3330493" lon="7.7175588"><ele>705.0</ele><time>2026-05-03T09:08:35.31Z</time></trkpt><trkpt lat="44.3330407" lon="7.7176749"><ele>704.3333333333334</ele><time>2026-05-03T09:08:36.316Z</time></trkpt><trkpt lat="44.3330325" lon="7.717788"><ele>703.6666666666667</ele><time>2026-05-03T09:08:37.312Z</time></trkpt><trkpt lat="44.3330462" lon="7.7178809"><ele>703.0</ele><time>2026-05-03T09:08:38.305Z</time></trkpt><trkpt lat="44.3330808" lon="7.7180105"><ele>703.0</ele><time>2026-05-03T09:08:40.304Z</time></trkpt><trkpt lat="44.3331379" lon="7.7181059"><ele>703.0</ele><time>2026-05-03T09:08:42.314Z</time></trkpt><trkpt lat="44.3332229" lon="7.7181325"><ele>703.0</ele><time>2026-05-03T09:08:44.304Z</time></trkpt><trkpt lat="44.3333351" lon="7.7180972"><ele>703.0</ele><time>2026-05-03T09:08:46.316Z</time></trkpt><trkpt lat="44.3334577" lon="7.7180991"><ele>703.0</ele><time>2026-05-03T09:08:48.307Z</time></trkpt><trkpt lat="44.3335806" lon="7.7181406"><ele>703.0</ele><time>2026-05-03T09:08:50.305Z</time></trkpt><trkpt lat="44.3336452" lon="7.7181829"><ele>703.0</ele><time>2026-05-03T09:08:51.305Z</time></trkpt><trkpt lat="44.3337119" lon="7.7182319"><ele>703.0</ele><time>2026-05-03T09:08:52.322Z</time></trkpt><trkpt lat="44.3338106" lon="7.7182813"><ele>703.0</ele><time>2026-05-03T09:08:53.309Z</time></trkpt><trkpt lat="44.3339027" lon="7.7183019"><ele>703.0</ele><time>2026-05-03T09:08:54.3Z</time></trkpt><trkpt lat="44.3339778" lon="7.7183221"><ele>703.0</ele><time>2026-05-03T09:08:55.305Z</time></trkpt><trkpt lat="44.3340778" lon="7.718388"><ele>701.5</ele><time>2026-05-03T09:08:57.314Z</time></trkpt><trkpt lat="44.3341278" lon="7.7184545"><ele>700.0</ele><time>2026-05-03T09:08:58.306Z</time></trkpt><trkpt lat="44.334174" lon="7.7185361"><ele>698.5</ele><time>2026-05-03T09:08:59.311Z</time></trkpt><trkpt lat="44.334213" lon="7.7186304"><ele>697.0</ele><time>2026-05-03T09:09:00.307Z</time></trkpt><trkpt lat="44.3342414" lon="7.7187204"><ele>695.5</ele><time>2026-05-03T09:09:01.316Z</time></trkpt><trkpt lat="44.3342786" lon="7.7188808"><ele>694.0</ele><time>2026-05-03T09:09:03.306Z</time></trkpt><trkpt lat="44.3342844" lon="7.7190638"><ele>694.0</ele><time>2026-05-03T09:09:05.303Z</time></trkpt><trkpt lat="44.3342823" lon="7.7191645"><ele>694.0</ele><time>2026-05-03T09:09:06.317Z</time></trkpt><trkpt lat="44.3342928" lon="7.7192607"><ele>694.0</ele><time>2026-05-03T09:09:07.306Z</time></trkpt><trkpt lat="44.334315" lon="7.7193574"><ele>694.0</ele><time>2026-05-03T09:09:08.299Z</time></trkpt><trkpt lat="44.3343418" lon="7.7194504"><ele>694.0</ele><time>2026-05-03T09:09:09.306Z</time></trkpt><trkpt lat="44.3343649" lon="7.7195338"><ele>694.0</ele><time>2026-05-03T09:09:10.303Z</time></trkpt><trkpt lat="44.3343874" lon="7.7196752"><ele>693.6</ele><time>2026-05-03T09:09:12.31Z</time></trkpt><trkpt lat="44.3343957" lon="7.7198056"><ele>693.2</ele><time>2026-05-03T09:09:14.312Z</time></trkpt><trkpt lat="44.3343984" lon="7.7199196"><ele>692.8000000000001</ele><time>2026-05-03T09:09:16.311Z</time></trkpt><trkpt lat="44.3343906" lon="7.720055"><ele>692.4000000000001</ele><time>2026-05-03T09:09:18.308Z</time></trkpt><trkpt lat="44.3343584" lon="7.7202149"><ele>692.0</ele><time>2026-05-03T09:09:20.307Z</time></trkpt><trkpt lat="44.3342685" lon="7.72033"><ele>690.8333333333333</ele><time>2026-05-03T09:09:22.316Z</time></trkpt><trkpt lat="44.3341993" lon="7.7204476"><ele>689.6666666666666</ele><time>2026-05-03T09:09:24.305Z</time></trkpt><trkpt lat="44.3341867" lon="7.7205929"><ele>688.5</ele><time>2026-05-03T09:09:26.322Z</time></trkpt><trkpt lat="44.3342103" lon="7.7206835"><ele>687.3333333333334</ele><time>2026-05-03T09:09:27.3Z</time></trkpt><trkpt lat="44.3342337" lon="7.7207758"><ele>686.1666666666667</ele><time>2026-05-03T09:09:28.305Z</time></trkpt><trkpt lat="44.3342468" lon="7.7208636"><ele>685.0</ele><time>2026-05-03T09:09:29.302Z</time></trkpt><trkpt lat="44.3342425" lon="7.7210008"><ele>684.0</ele><time>2026-05-03T09:09:31.308Z</time></trkpt><trkpt lat="44.3341995" lon="7.721115"><ele>683.0</ele><time>2026-05-03T09:09:33.311Z</time></trkpt><trkpt lat="44.3341658" lon="7.7211923"><ele>682.0</ele><time>2026-05-03T09:09:34.305Z</time></trkpt><trkpt lat="44.3341243" lon="7.721286"><ele>681.0</ele><time>2026-05-03T09:09:35.303Z</time></trkpt><trkpt lat="44.3340807" lon="7.7214075"><ele>680.0</ele><time>2026-05-03T09:09:36.312Z</time></trkpt><trkpt lat="44.3340448" lon="7.7215218"><ele>679.0</ele><time>2026-05-03T09:09:37.301Z</time></trkpt><trkpt lat="44.3340095" lon="7.721627"><ele>679.0</ele><time>2026-05-03T09:09:38.307Z</time></trkpt><trkpt lat="44.3339722" lon="7.7217218"><ele>679.0</ele><time>2026-05-03T09:09:39.311Z</time></trkpt><trkpt lat="44.3339299" lon="7.721817"><ele>679.0</ele><time>2026-05-03T09:09:40.309Z</time></trkpt><trkpt lat="44.3338802" lon="7.7218987"><ele>679.0</ele><time>2026-05-03T09:09:41.307Z</time></trkpt><trkpt lat="44.3338085" lon="7.7219899"><ele>679.0</ele><time>2026-05-03T09:09:42.305Z</time></trkpt><trkpt lat="44.3337397" lon="7.7220564"><ele>679.0</ele><time>2026-05-03T09:09:43.31Z</time></trkpt><trkpt lat="44.3336696" lon="7.7221175"><ele>680.0</ele><time>2026-05-03T09:09:44.304Z</time></trkpt><trkpt lat="44.3336031" lon="7.7221589"><ele>681.0</ele><time>2026-05-03T09:09:45.307Z</time></trkpt><trkpt lat="44.3335317" lon="7.7221914"><ele>682.0</ele><time>2026-05-03T09:09:46.31Z</time></trkpt><trkpt lat="44.3334599" lon="7.7222044"><ele>683.0</ele><time>2026-05-03T09:09:47.302Z</time></trkpt><trkpt lat="44.3333772" lon="7.7222108"><ele>684.0</ele><time>2026-05-03T09:09:48.305Z</time></trkpt><trkpt lat="44.3332902" lon="7.7222181"><ele>685.0</ele><time>2026-05-03T09:09:49.308Z</time></trkpt><trkpt lat="44.3332024" lon="7.7222324"><ele>685.0</ele><time>2026-05-03T09:09:50.306Z</time></trkpt><trkpt lat="44.3331075" lon="7.7222525"><ele>685.0</ele><time>2026-05-03T09:09:51.3Z</time></trkpt><trkpt lat="44.3330279" lon="7.7222897"><ele>685.0</ele><time>2026-05-03T09:09:52.31Z</time></trkpt><trkpt lat="44.332963" lon="7.7223161"><ele>685.0</ele><time>2026-05-03T09:09:53.313Z</time></trkpt><trkpt lat="44.3328826" lon="7.7223428"><ele>685.0</ele><time>2026-05-03T09:09:55.314Z</time></trkpt><trkpt lat="44.3328261" lon="7.7223818"><ele>685.0</ele><time>2026-05-03T09:10:36.321Z</time></trkpt><trkpt lat="44.3328892" lon="7.7224756"><ele>685.0</ele><time>2026-05-03T09:10:43.326Z</time></trkpt><trkpt lat="44.3329575" lon="7.7224937"><ele>685.0</ele><time>2026-05-03T09:10:44.32Z</time></trkpt><trkpt lat="44.3330532" lon="7.7225228"><ele>685.0</ele><time>2026-05-03T09:10:45.306Z</time></trkpt><trkpt lat="44.3331934" lon="7.7225594"><ele>685.0</ele><time>2026-05-03T09:10:46.315Z</time></trkpt><trkpt lat="44.3333275" lon="7.7225961"><ele>685.0</ele><time>2026-05-03T09:10:47.304Z</time></trkpt><trkpt lat="44.3334621" lon="7.7226195"><ele>685.0</ele><time>2026-05-03T09:10:48.307Z</time></trkpt><trkpt lat="44.3335932" lon="7.7226429"><ele>685.0</ele><time>2026-05-03T09:10:49.311Z</time></trkpt><trkpt lat="44.3337127" lon="7.7226566"><ele>685.0</ele><time>2026-05-03T09:10:50.307Z</time></trkpt><trkpt lat="44.333821" lon="7.7226647"><ele>685.0</ele><time>2026-05-03T09:10:51.304Z</time></trkpt><trkpt lat="44.3339203" lon="7.7226627"><ele>682.2</ele><time>2026-05-03T09:10:52.308Z</time></trkpt><trkpt lat="44.3340154" lon="7.7226585"><ele>679.4</ele><time>2026-05-03T09:10:53.304Z</time></trkpt><trkpt lat="44.334106" lon="7.7226209"><ele>676.5999999999999</ele><time>2026-05-03T09:10:54.305Z</time></trkpt><trkpt lat="44.3341893" lon="7.7225653"><ele>673.8</ele><time>2026-05-03T09:10:55.303Z</time></trkpt><trkpt lat="44.3342701" lon="7.7224985"><ele>671.0</ele><time>2026-05-03T09:10:56.31Z</time></trkpt><trkpt lat="44.3343438" lon="7.7224166"><ele>671.0</ele><time>2026-05-03T09:10:57.31Z</time></trkpt><trkpt lat="44.3344141" lon="7.7223387"><ele>671.0</ele><time>2026-05-03T09:10:58.309Z</time></trkpt><trkpt lat="44.3344663" lon="7.7222426"><ele>671.0</ele><time>2026-05-03T09:10:59.304Z</time></trkpt><trkpt lat="44.334503" lon="7.7221164"><ele>671.0</ele><time>2026-05-03T09:11:00.306Z</time></trkpt><trkpt lat="44.3345609" lon="7.7219696"><ele>671.0</ele><time>2026-05-03T09:11:01.333Z</time></trkpt><trkpt lat="44.3346132" lon="7.7218307"><ele>672.3333333333333</ele><time>2026-05-03T09:11:02.312Z</time></trkpt><trkpt lat="44.3346852" lon="7.7217153"><ele>673.6666666666666</ele><time>2026-05-03T09:11:03.297Z</time></trkpt><trkpt lat="44.3347517" lon="7.7216099"><ele>675.0</ele><time>2026-05-03T09:11:04.313Z</time></trkpt><trkpt lat="44.3348129" lon="7.721538"><ele>676.3333333333334</ele><time>2026-05-03T09:11:05.309Z</time></trkpt><trkpt lat="44.3348663" lon="7.7214558"><ele>677.6666666666667</ele><time>2026-05-03T09:11:06.301Z</time></trkpt><trkpt lat="44.3349064" lon="7.721364"><ele>679.0</ele><time>2026-05-03T09:11:07.314Z</time></trkpt><trkpt lat="44.3349476" lon="7.7212659"><ele>675.3333333333334</ele><time>2026-05-03T09:11:08.305Z</time></trkpt><trkpt lat="44.3349728" lon="7.7211525"><ele>671.6666666666667</ele><time>2026-05-03T09:11:09.297Z</time></trkpt><trkpt lat="44.3349786" lon="7.7210247"><ele>668.0</ele><time>2026-05-03T09:11:10.315Z</time></trkpt><trkpt lat="44.3349845" lon="7.7209017"><ele>664.3333333333334</ele><time>2026-05-03T09:11:11.306Z</time></trkpt><trkpt lat="44.334989" lon="7.7208023"><ele>660.6666666666666</ele><time>2026-05-03T09:11:12.309Z</time></trkpt><trkpt lat="44.3350137" lon="7.7206542"><ele>657.0</ele><time>2026-05-03T09:11:14.303Z</time></trkpt><trkpt lat="44.3351293" lon="7.7205798"><ele>657.0</ele><time>2026-05-03T09:11:16.306Z</time></trkpt><trkpt lat="44.3352158" lon="7.720592"><ele>657.0</ele><time>2026-05-03T09:11:17.306Z</time></trkpt><trkpt lat="44.3353054" lon="7.7206022"><ele>657.0</ele><time>2026-05-03T09:11:18.31Z</time></trkpt><trkpt lat="44.3353959" lon="7.7205815"><ele>657.0</ele><time>2026-05-03T09:11:19.305Z</time></trkpt><trkpt lat="44.3354901" lon="7.7205363"><ele>657.0</ele><time>2026-05-03T09:11:20.302Z</time></trkpt><trkpt lat="44.3355861" lon="7.7204863"><ele>654.5</ele><time>2026-05-03T09:11:21.308Z</time></trkpt><trkpt lat="44.3356687" lon="7.7204079"><ele>652.0</ele><time>2026-05-03T09:11:22.305Z</time></trkpt><trkpt lat="44.335755" lon="7.7203105"><ele>649.5</ele><time>2026-05-03T09:11:23.324Z</time></trkpt><trkpt lat="44.335849" lon="7.7201993"><ele>647.0</ele><time>2026-05-03T09:11:24.305Z</time></trkpt><trkpt lat="44.3359881" lon="7.7200963"><ele>647.0</ele><time>2026-05-03T09:11:25.308Z</time></trkpt><trkpt lat="44.3361419" lon="7.7199934"><ele>647.0</ele><time>2026-05-03T09:11:26.319Z</time></trkpt><trkpt lat="44.3362777" lon="7.7199048"><ele>647.0</ele><time>2026-05-03T09:11:27.32Z</time></trkpt><trkpt lat="44.336402" lon="7.7198163"><ele>642.0</ele><time>2026-05-03T09:11:28.311Z</time></trkpt><trkpt lat="44.3365194" lon="7.7197269"><ele>637.0</ele><time>2026-05-03T09:11:29.318Z</time></trkpt><trkpt lat="44.3366355" lon="7.7196396"><ele>632.0</ele><time>2026-05-03T09:11:30.313Z</time></trkpt><trkpt lat="44.336746" lon="7.7195494"><ele>627.0</ele><time>2026-05-03T09:11:31.306Z</time></trkpt><trkpt lat="44.336852" lon="7.7194628"><ele>625.5</ele><time>2026-05-03T09:11:32.317Z</time></trkpt><trkpt lat="44.3369617" lon="7.7193981"><ele>624.0</ele><time>2026-05-03T09:11:33.31Z</time></trkpt><trkpt lat="44.3370753" lon="7.7193594"><ele>622.5</ele><time>2026-05-03T09:11:34.309Z</time></trkpt><trkpt lat="44.3371879" lon="7.7193368"><ele>621.0</ele><time>2026-05-03T09:11:35.311Z</time></trkpt><trkpt lat="44.3372963" lon="7.7193212"><ele>621.0</ele><time>2026-05-03T09:11:36.311Z</time></trkpt><trkpt lat="44.3374013" lon="7.7193067"><ele>621.0</ele><time>2026-05-03T09:11:37.312Z</time></trkpt><trkpt lat="44.3375034" lon="7.719292"><ele>621.0</ele><time>2026-05-03T09:11:38.305Z</time></trkpt><trkpt lat="44.337598" lon="7.7192841"><ele>621.0</ele><time>2026-05-03T09:11:39.301Z</time></trkpt><trkpt lat="44.3376888" lon="7.7192752"><ele>621.0</ele><time>2026-05-03T09:11:40.304Z</time></trkpt><trkpt lat="44.3377667" lon="7.7192689"><ele>621.0</ele><time>2026-05-03T09:11:41.306Z</time></trkpt><trkpt lat="44.3378898" lon="7.7192353"><ele>621.0</ele><time>2026-05-03T09:11:43.305Z</time></trkpt><trkpt lat="44.3379792" lon="7.7191304"><ele>621.0</ele><time>2026-05-03T09:11:45.31Z</time></trkpt><trkpt lat="44.3380059" lon="7.7190322"><ele>621.0</ele><time>2026-05-03T09:11:46.305Z</time></trkpt><trkpt lat="44.3380303" lon="7.7189184"><ele>621.0</ele><time>2026-05-03T09:11:47.309Z</time></trkpt><trkpt lat="44.3380676" lon="7.7188083"><ele>620.3333333333334</ele><time>2026-05-03T09:11:48.311Z</time></trkpt><trkpt lat="44.3381063" lon="7.7187075"><ele>619.6666666666666</ele><time>2026-05-03T09:11:49.311Z</time></trkpt><trkpt lat="44.3381347" lon="7.7186125"><ele>619.0</ele><time>2026-05-03T09:11:50.31Z</time></trkpt><trkpt lat="44.3381481" lon="7.7185224"><ele>618.3333333333333</ele><time>2026-05-03T09:11:51.304Z</time></trkpt><trkpt lat="44.3381515" lon="7.7184345"><ele>617.6666666666666</ele><time>2026-05-03T09:11:52.305Z</time></trkpt><trkpt lat="44.3381654" lon="7.7182824"><ele>617.0</ele><time>2026-05-03T09:11:54.311Z</time></trkpt><trkpt lat="44.3382238" lon="7.7181937"><ele>617.0</ele><time>2026-05-03T09:11:56.317Z</time></trkpt><trkpt lat="44.3383404" lon="7.7181686"><ele>617.0</ele><time>2026-05-03T09:11:58.328Z</time></trkpt><trkpt lat="44.3384074" lon="7.7181948"><ele>617.0</ele><time>2026-05-03T09:11:59.317Z</time></trkpt><trkpt lat="44.3384713" lon="7.718256"><ele>617.0</ele><time>2026-05-03T09:12:00.309Z</time></trkpt><trkpt lat="44.3385386" lon="7.7183292"><ele>617.0</ele><time>2026-05-03T09:12:01.309Z</time></trkpt><trkpt lat="44.3386152" lon="7.7183874"><ele>617.0</ele><time>2026-05-03T09:12:02.325Z</time></trkpt><trkpt lat="44.3387061" lon="7.7184329"><ele>617.0</ele><time>2026-05-03T09:12:03.309Z</time></trkpt><trkpt lat="44.3388053" lon="7.7184705"><ele>617.0</ele><time>2026-05-03T09:12:04.312Z</time></trkpt><trkpt lat="44.3389119" lon="7.7185064"><ele>617.0</ele><time>2026-05-03T09:12:05.305Z</time></trkpt><trkpt lat="44.3390265" lon="7.7185364"><ele>617.0</ele><time>2026-05-03T09:12:06.309Z</time></trkpt><trkpt lat="44.3391476" lon="7.7185538"><ele>616.0</ele><time>2026-05-03T09:12:07.315Z</time></trkpt><trkpt lat="44.3392786" lon="7.7185615"><ele>615.0</ele><time>2026-05-03T09:12:08.314Z</time></trkpt><trkpt lat="44.3394127" lon="7.7185688"><ele>614.0</ele><time>2026-05-03T09:12:09.31Z</time></trkpt><trkpt lat="44.3395493" lon="7.7185693"><ele>613.0</ele><time>2026-05-03T09:12:10.315Z</time></trkpt><trkpt lat="44.3396757" lon="7.7185517"><ele>612.4</ele><time>2026-05-03T09:12:11.316Z</time></trkpt><trkpt lat="44.3397883" lon="7.7185138"><ele>611.8</ele><time>2026-05-03T09:12:12.312Z</time></trkpt><trkpt lat="44.3398878" lon="7.7184678"><ele>611.2</ele><time>2026-05-03T09:12:13.316Z</time></trkpt><trkpt lat="44.3399764" lon="7.7184267"><ele>610.6</ele><time>2026-05-03T09:12:14.316Z</time></trkpt><trkpt lat="44.3400487" lon="7.7184005"><ele>610.0</ele><time>2026-05-03T09:12:15.315Z</time></trkpt><trkpt lat="44.3401108" lon="7.7183793"><ele>610.0</ele><time>2026-05-03T09:12:16.31Z</time></trkpt><trkpt lat="44.3402219" lon="7.7183622"><ele>610.0</ele><time>2026-05-03T09:12:18.312Z</time></trkpt><trkpt lat="44.3403038" lon="7.7183597"><ele>610.0</ele><time>2026-05-03T09:12:20.317Z</time></trkpt><trkpt lat="44.3403712" lon="7.7183445"><ele>610.0</ele><time>2026-05-03T09:12:23.317Z</time></trkpt><trkpt lat="44.3403828" lon="7.7182256"><ele>610.0</ele><time>2026-05-03T09:12:47.323Z</time></trkpt><trkpt lat="44.3403703" lon="7.7181134"><ele>610.0</ele><time>2026-05-03T09:12:49.328Z</time></trkpt><trkpt lat="44.3403615" lon="7.7180043"><ele>610.0</ele><time>2026-05-03T09:12:51.31Z</time></trkpt><trkpt lat="44.3403471" lon="7.7178913"><ele>610.0</ele><time>2026-05-03T09:12:54.313Z</time></trkpt><trkpt lat="44.3403432" lon="7.7178014"><ele>610.0</ele><time>2026-05-03T09:12:57.308Z</time></trkpt><trkpt lat="44.3404142" lon="7.7177124"><ele>610.0</ele><time>2026-05-03T09:13:00.351Z</time></trkpt><trkpt lat="44.3404452" lon="7.7176254"><ele>610.0</ele><time>2026-05-03T09:13:03.315Z</time></trkpt><trkpt lat="44.3404005" lon="7.7175287"><ele>610.0</ele><time>2026-05-03T09:13:06.308Z</time></trkpt><trkpt lat="44.3403216" lon="7.7174758"><ele>608.6666666666667</ele><time>2026-05-03T09:13:09.303Z</time></trkpt><trkpt lat="44.3402441" lon="7.7174359"><ele>607.3333333333334</ele><time>2026-05-03T09:13:12.302Z</time></trkpt><trkpt lat="44.3401785" lon="7.7173864"><ele>606.0</ele><time>2026-05-03T09:13:15.317Z</time></trkpt><trkpt lat="44.3401447" lon="7.7173057"><ele>604.6666666666666</ele><time>2026-05-03T09:13:19.34Z</time></trkpt><trkpt lat="44.3400885" lon="7.7172236"><ele>603.3333333333333</ele><time>2026-05-03T09:13:21.309Z</time></trkpt><trkpt lat="44.3400488" lon="7.7171289"><ele>602.0</ele><time>2026-05-03T09:13:23.314Z</time></trkpt><trkpt lat="44.3400214" lon="7.7170196"><ele>602.0</ele><time>2026-05-03T09:13:25.32Z</time></trkpt><trkpt lat="44.3399902" lon="7.7169222"><ele>602.0</ele><time>2026-05-03T09:13:27.305Z</time></trkpt><trkpt lat="44.3399861" lon="7.7167847"><ele>602.0</ele><time>2026-05-03T09:13:30.323Z</time></trkpt><trkpt lat="44.3399982" lon="7.7166259"><ele>602.0</ele><time>2026-05-03T09:13:32.307Z</time></trkpt><trkpt lat="44.3399937" lon="7.7165276"><ele>602.0</ele><time>2026-05-03T09:13:33.313Z</time></trkpt><trkpt lat="44.3399881" lon="7.7164182"><ele>602.0</ele><time>2026-05-03T09:13:34.327Z</time></trkpt><trkpt lat="44.3399769" lon="7.7163238"><ele>600.0</ele><time>2026-05-03T09:13:35.307Z</time></trkpt><trkpt lat="44.3399537" lon="7.7161859"><ele>598.0</ele><time>2026-05-03T09:13:37.308Z</time></trkpt><trkpt lat="44.3399271" lon="7.7160717"><ele>596.0</ele><time>2026-05-03T09:13:48.388Z</time></trkpt><trkpt lat="44.3399368" lon="7.7159737"><ele>594.0</ele><time>2026-05-03T09:13:50.306Z</time></trkpt><trkpt lat="44.3400325" lon="7.7158814"><ele>592.0</ele><time>2026-05-03T09:13:52.32Z</time></trkpt><trkpt lat="44.3401111" lon="7.7158321"><ele>591.8000000000001</ele><time>2026-05-03T09:13:53.325Z</time></trkpt><trkpt lat="44.3401917" lon="7.7157808"><ele>591.6</ele><time>2026-05-03T09:13:54.306Z</time></trkpt><trkpt lat="44.3402631" lon="7.7157401"><ele>591.4000000000001</ele><time>2026-05-03T09:13:55.299Z</time></trkpt><trkpt lat="44.3403235" lon="7.7157076"><ele>591.2</ele><time>2026-05-03T09:13:56.31Z</time></trkpt><trkpt lat="44.3404223" lon="7.7156405"><ele>591.0</ele><time>2026-05-03T09:13:58.302Z</time></trkpt><trkpt lat="44.3405015" lon="7.7155256"><ele>591.0</ele><time>2026-05-03T09:14:00.338Z</time></trkpt><trkpt lat="44.3405389" lon="7.7154367"><ele>591.0</ele><time>2026-05-03T09:14:01.302Z</time></trkpt><trkpt lat="44.3405879" lon="7.7153229"><ele>591.0</ele><time>2026-05-03T09:14:02.304Z</time></trkpt><trkpt lat="44.3406321" lon="7.7152149"><ele>591.0</ele><time>2026-05-03T09:14:03.313Z</time></trkpt><trkpt lat="44.3406673" lon="7.7151103"><ele>591.0</ele><time>2026-05-03T09:14:04.304Z</time></trkpt><trkpt lat="44.3407054" lon="7.715012"><ele>591.0</ele><time>2026-05-03T09:14:05.305Z</time></trkpt><trkpt lat="44.3407368" lon="7.7149212"><ele>588.8</ele><time>2026-05-03T09:14:06.307Z</time></trkpt><trkpt lat="44.3407688" lon="7.7148416"><ele>586.6</ele><time>2026-05-03T09:14:07.31Z</time></trkpt><trkpt lat="44.3408339" lon="7.7147251"><ele>584.4</ele><time>2026-05-03T09:14:09.311Z</time></trkpt><trkpt lat="44.340947" lon="7.7146167"><ele>582.2</ele><time>2026-05-03T09:14:11.306Z</time></trkpt><trkpt lat="44.3410112" lon="7.7145294"><ele>580.0</ele><time>2026-05-03T09:14:12.307Z</time></trkpt><trkpt lat="44.3410929" lon="7.7144527"><ele>581.3333333333334</ele><time>2026-05-03T09:14:13.303Z</time></trkpt><trkpt lat="44.3411726" lon="7.7143811"><ele>582.6666666666667</ele><time>2026-05-03T09:14:14.306Z</time></trkpt><trkpt lat="44.3412463" lon="7.7143265"><ele>584.0</ele><time>2026-05-03T09:14:15.313Z</time></trkpt><trkpt lat="44.3413098" lon="7.7142658"><ele>585.3333333333334</ele><time>2026-05-03T09:14:16.316Z</time></trkpt><trkpt lat="44.3413667" lon="7.7142117"><ele>586.6666666666666</ele><time>2026-05-03T09:14:17.31Z</time></trkpt><trkpt lat="44.341411" lon="7.7140556"><ele>588.0</ele><time>2026-05-03T09:14:19.308Z</time></trkpt><trkpt lat="44.3414436" lon="7.7138977"><ele>584.6</ele><time>2026-05-03T09:14:21.301Z</time></trkpt><trkpt lat="44.3415203" lon="7.7138428"><ele>581.1999999999999</ele><time>2026-05-03T09:14:23.308Z</time></trkpt><trkpt lat="44.3416498" lon="7.7138093"><ele>577.8</ele><time>2026-05-03T09:14:25.31Z</time></trkpt><trkpt lat="44.3417195" lon="7.71379"><ele>574.4</ele><time>2026-05-03T09:14:26.304Z</time></trkpt><trkpt lat="44.341823" lon="7.7137171"><ele>571.0</ele><time>2026-05-03T09:14:28.307Z</time></trkpt><trkpt lat="44.341874" lon="7.7136431"><ele>572.8</ele><time>2026-05-03T09:14:29.31Z</time></trkpt><trkpt lat="44.3419255" lon="7.7135627"><ele>574.6</ele><time>2026-05-03T09:14:30.305Z</time></trkpt><trkpt lat="44.3419689" lon="7.7134412"><ele>576.4</ele><time>2026-05-03T09:14:31.303Z</time></trkpt><trkpt lat="44.342023" lon="7.7133122"><ele>578.2</ele><time>2026-05-03T09:14:32.306Z</time></trkpt><trkpt lat="44.342082" lon="7.713187"><ele>580.0</ele><time>2026-05-03T09:14:33.307Z</time></trkpt><trkpt lat="44.3421462" lon="7.7130767"><ele>580.0</ele><time>2026-05-03T09:14:34.313Z</time></trkpt><trkpt lat="44.3422053" lon="7.7129854"><ele>580.0</ele><time>2026-05-03T09:14:35.318Z</time></trkpt><trkpt lat="44.3422567" lon="7.712913"><ele>580.0</ele><time>2026-05-03T09:14:36.308Z</time></trkpt><trkpt lat="44.3423096" lon="7.7128623"><ele>580.0</ele><time>2026-05-03T09:14:37.319Z</time></trkpt><trkpt lat="44.3423763" lon="7.7128293"><ele>580.0</ele><time>2026-05-03T09:14:38.308Z</time></trkpt><trkpt lat="44.3424441" lon="7.7127981"><ele>580.0</ele><time>2026-05-03T09:14:39.305Z</time></trkpt><trkpt lat="44.342549" lon="7.7127257"><ele>578.8</ele><time>2026-05-03T09:14:41.306Z</time></trkpt><trkpt lat="44.3426234" lon="7.7126442"><ele>577.6</ele><time>2026-05-03T09:14:43.308Z</time></trkpt><trkpt lat="44.3426347" lon="7.712497"><ele>576.4</ele><time>2026-05-03T09:14:45.309Z</time></trkpt><trkpt lat="44.342677" lon="7.7124071"><ele>575.2</ele><time>2026-05-03T09:14:47.318Z</time></trkpt><trkpt lat="44.3427545" lon="7.7124133"><ele>574.0</ele><time>2026-05-03T09:14:49.332Z</time></trkpt><trkpt lat="44.3428653" lon="7.7125104"><ele>574.0</ele><time>2026-05-03T09:14:51.306Z</time></trkpt><trkpt lat="44.3429289" lon="7.7125508"><ele>574.0</ele><time>2026-05-03T09:14:52.307Z</time></trkpt><trkpt lat="44.3429869" lon="7.7125863"><ele>574.0</ele><time>2026-05-03T09:14:53.305Z</time></trkpt><trkpt lat="44.3430509" lon="7.7125857"><ele>574.0</ele><time>2026-05-03T09:14:54.317Z</time></trkpt><trkpt lat="44.34312" lon="7.7125609"><ele>574.0</ele><time>2026-05-03T09:14:55.321Z</time></trkpt><trkpt lat="44.3431969" lon="7.7125268"><ele>574.0</ele><time>2026-05-03T09:14:56.309Z</time></trkpt><trkpt lat="44.3432769" lon="7.712477"><ele>574.0</ele><time>2026-05-03T09:14:57.303Z</time></trkpt><trkpt lat="44.3433558" lon="7.7124165"><ele>572.6</ele><time>2026-05-03T09:14:58.306Z</time></trkpt><trkpt lat="44.3434387" lon="7.7123541"><ele>571.2</ele><time>2026-05-03T09:14:59.312Z</time></trkpt><trkpt lat="44.3435285" lon="7.7122898"><ele>569.8000000000001</ele><time>2026-05-03T09:15:00.301Z</time></trkpt><trkpt lat="44.3436238" lon="7.7122229"><ele>568.4</ele><time>2026-05-03T09:15:01.312Z</time></trkpt><trkpt lat="44.343718" lon="7.7121455"><ele>567.0</ele><time>2026-05-03T09:15:02.304Z</time></trkpt><trkpt lat="44.3438159" lon="7.7120797"><ele>567.1666666666666</ele><time>2026-05-03T09:15:03.305Z</time></trkpt><trkpt lat="44.3438954" lon="7.712026"><ele>567.3333333333334</ele><time>2026-05-03T09:15:04.316Z</time></trkpt><trkpt lat="44.3439612" lon="7.7119837"><ele>567.5</ele><time>2026-05-03T09:15:05.315Z</time></trkpt><trkpt lat="44.3440296" lon="7.7119322"><ele>567.6666666666667</ele><time>2026-05-03T09:15:06.326Z</time></trkpt><trkpt lat="44.344095" lon="7.7118669"><ele>567.8333333333334</ele><time>2026-05-03T09:15:07.323Z</time></trkpt><trkpt lat="44.344154" lon="7.7118032"><ele>568.0</ele><time>2026-05-03T09:15:08.314Z</time></trkpt><trkpt lat="44.3442143" lon="7.7117387"><ele>568.0</ele><time>2026-05-03T09:15:09.303Z</time></trkpt><trkpt lat="44.3442747" lon="7.7116216"><ele>568.0</ele><time>2026-05-03T09:15:11.312Z</time></trkpt><trkpt lat="44.3442617" lon="7.7114959"><ele>568.0</ele><time>2026-05-03T09:15:13.315Z</time></trkpt><trkpt lat="44.3441584" lon="7.7113827"><ele>568.0</ele><time>2026-05-03T09:15:15.314Z</time></trkpt><trkpt lat="44.3440833" lon="7.7113194"><ele>568.0</ele><time>2026-05-03T09:15:16.31Z</time></trkpt><trkpt lat="44.3440113" lon="7.7112643"><ele>568.0</ele><time>2026-05-03T09:15:17.315Z</time></trkpt><trkpt lat="44.3439391" lon="7.7112088"><ele>568.0</ele><time>2026-05-03T09:15:18.31Z</time></trkpt><trkpt lat="44.3438593" lon="7.7111546"><ele>568.0</ele><time>2026-05-03T09:15:19.305Z</time></trkpt><trkpt lat="44.3437737" lon="7.7111"><ele>568.0</ele><time>2026-05-03T09:15:20.302Z</time></trkpt><trkpt lat="44.3437058" lon="7.7110613"><ele>568.0</ele><time>2026-05-03T09:15:21.305Z</time></trkpt><trkpt lat="44.3436372" lon="7.7110162"><ele>568.0</ele><time>2026-05-03T09:15:22.321Z</time></trkpt><trkpt lat="44.3435734" lon="7.7109589"><ele>570.0</ele><time>2026-05-03T09:15:23.313Z</time></trkpt><trkpt lat="44.3435206" lon="7.7108907"><ele>572.0</ele><time>2026-05-03T09:15:24.305Z</time></trkpt><trkpt lat="44.3434777" lon="7.7108068"><ele>574.0</ele><time>2026-05-03T09:15:25.31Z</time></trkpt><trkpt lat="44.3434412" lon="7.7107236"><ele>576.0</ele><time>2026-05-03T09:15:26.301Z</time></trkpt><trkpt lat="44.3434038" lon="7.7106515"><ele>578.0</ele><time>2026-05-03T09:15:27.309Z</time></trkpt><trkpt lat="44.3433491" lon="7.7105865"><ele>580.0</ele><time>2026-05-03T09:15:28.31Z</time></trkpt><trkpt lat="44.34329" lon="7.7105179"><ele>582.0</ele><time>2026-05-03T09:15:29.308Z</time></trkpt><trkpt lat="44.3432134" lon="7.7104488"><ele>582.0</ele><time>2026-05-03T09:15:30.306Z</time></trkpt><trkpt lat="44.343137" lon="7.7103609"><ele>582.0</ele><time>2026-05-03T09:15:31.308Z</time></trkpt><trkpt lat="44.3430558" lon="7.7102698"><ele>582.0</ele><time>2026-05-03T09:15:32.306Z</time></trkpt><trkpt lat="44.3429763" lon="7.7101789"><ele>582.0</ele><time>2026-05-03T09:15:33.304Z</time></trkpt><trkpt lat="44.3429032" lon="7.710094"><ele>582.0</ele><time>2026-05-03T09:15:34.308Z</time></trkpt><trkpt lat="44.3428359" lon="7.7100124"><ele>582.5</ele><time>2026-05-03T09:15:35.313Z</time></trkpt><trkpt lat="44.3427702" lon="7.7099331"><ele>583.0</ele><time>2026-05-03T09:15:36.307Z</time></trkpt><trkpt lat="44.3427116" lon="7.7098541"><ele>583.5</ele><time>2026-05-03T09:15:37.318Z</time></trkpt><trkpt lat="44.342665" lon="7.7097907"><ele>584.0</ele><time>2026-05-03T09:15:38.306Z</time></trkpt><trkpt lat="44.3426516" lon="7.7096559"><ele>584.5</ele><time>2026-05-03T09:15:40.305Z</time></trkpt><trkpt lat="44.3426886" lon="7.7094996"><ele>585.0</ele><time>2026-05-03T09:15:42.303Z</time></trkpt><trkpt lat="44.342728" lon="7.7093549"><ele>584.0</ele><time>2026-05-03T09:15:44.312Z</time></trkpt><trkpt lat="44.3427485" lon="7.7092646"><ele>583.0</ele><time>2026-05-03T09:15:46.312Z</time></trkpt><trkpt lat="44.342772" lon="7.7091793"><ele>582.0</ele><time>2026-05-03T09:16:39.32Z</time></trkpt><trkpt lat="44.3427162" lon="7.7091242"><ele>581.0</ele><time>2026-05-03T09:16:41.311Z</time></trkpt><trkpt lat="44.3426077" lon="7.7090754"><ele>580.0</ele><time>2026-05-03T09:16:43.332Z</time></trkpt><trkpt lat="44.3425039" lon="7.7089817"><ele>579.0</ele><time>2026-05-03T09:16:45.307Z</time></trkpt><trkpt lat="44.3424486" lon="7.7089052"><ele>579.0</ele><time>2026-05-03T09:16:46.312Z</time></trkpt><trkpt lat="44.3423926" lon="7.7088164"><ele>579.0</ele><time>2026-05-03T09:16:47.311Z</time></trkpt><trkpt lat="44.3423307" lon="7.7087269"><ele>579.0</ele><time>2026-05-03T09:16:48.314Z</time></trkpt><trkpt lat="44.3422666" lon="7.7086258"><ele>579.0</ele><time>2026-05-03T09:16:49.306Z</time></trkpt><trkpt lat="44.3422132" lon="7.708515"><ele>579.0</ele><time>2026-05-03T09:16:50.309Z</time></trkpt><trkpt lat="44.3421612" lon="7.7084153"><ele>579.5</ele><time>2026-05-03T09:16:51.308Z</time></trkpt><trkpt lat="44.3421244" lon="7.7083368"><ele>580.0</ele><time>2026-05-03T09:16:52.308Z</time></trkpt><trkpt lat="44.3420872" lon="7.7082482"><ele>580.5</ele><time>2026-05-03T09:16:53.301Z</time></trkpt><trkpt lat="44.3420412" lon="7.7081047"><ele>581.0</ele><time>2026-05-03T09:16:55.326Z</time></trkpt><trkpt lat="44.3420222" lon="7.7080165"><ele>581.5</ele><time>2026-05-03T09:16:56.314Z</time></trkpt><trkpt lat="44.34201" lon="7.7078527"><ele>582.0</ele><time>2026-05-03T09:16:58.314Z</time></trkpt><trkpt lat="44.3420162" lon="7.7077523"><ele>583.8000000000001</ele><time>2026-05-03T09:16:59.308Z</time></trkpt><trkpt lat="44.3420296" lon="7.707632"><ele>585.6</ele><time>2026-05-03T09:17:00.306Z</time></trkpt><trkpt lat="44.3420579" lon="7.7074882"><ele>587.4000000000001</ele><time>2026-05-03T09:17:01.306Z</time></trkpt><trkpt lat="44.3420821" lon="7.7073588"><ele>589.2</ele><time>2026-05-03T09:17:02.309Z</time></trkpt><trkpt lat="44.3420987" lon="7.7072123"><ele>591.0</ele><time>2026-05-03T09:17:03.303Z</time></trkpt><trkpt lat="44.3421263" lon="7.7071324"><ele>591.0</ele><time>2026-05-03T09:17:04.305Z</time></trkpt><trkpt lat="44.3421615" lon="7.7069778"><ele>591.0</ele><time>2026-05-03T09:17:06.327Z</time></trkpt><trkpt lat="44.3421903" lon="7.7068261"><ele>591.0</ele><time>2026-05-03T09:17:08.306Z</time></trkpt><trkpt lat="44.3422022" lon="7.7067307"><ele>591.0</ele><time>2026-05-03T09:17:09.304Z</time></trkpt><trkpt lat="44.3422079" lon="7.7066337"><ele>591.0</ele><time>2026-05-03T09:17:10.309Z</time></trkpt><trkpt lat="44.3422141" lon="7.7065073"><ele>591.1666666666666</ele><time>2026-05-03T09:17:12.309Z</time></trkpt><trkpt lat="44.3422009" lon="7.7063904"><ele>591.3333333333334</ele><time>2026-05-03T09:17:14.305Z</time></trkpt><trkpt lat="44.3421872" lon="7.7063043"><ele>591.5</ele><time>2026-05-03T09:17:15.309Z</time></trkpt><trkpt lat="44.3421361" lon="7.7061172"><ele>591.6666666666667</ele><time>2026-05-03T09:17:17.304Z</time></trkpt><trkpt lat="44.3420943" lon="7.706037"><ele>591.8333333333334</ele><time>2026-05-03T09:17:18.311Z</time></trkpt><trkpt lat="44.3420509" lon="7.7059729"><ele>592.0</ele><time>2026-05-03T09:17:19.305Z</time></trkpt><trkpt lat="44.3419841" lon="7.7059169"><ele>590.6</ele><time>2026-05-03T09:17:20.312Z</time></trkpt><trkpt lat="44.3418963" lon="7.7058682"><ele>589.2</ele><time>2026-05-03T09:17:21.306Z</time></trkpt><trkpt lat="44.3418196" lon="7.7058058"><ele>587.8</ele><time>2026-05-03T09:17:22.306Z</time></trkpt><trkpt lat="44.3417596" lon="7.7057398"><ele>586.4</ele><time>2026-05-03T09:17:23.305Z</time></trkpt><trkpt lat="44.341698" lon="7.7055777"><ele>585.0</ele><time>2026-05-03T09:17:25.31Z</time></trkpt><trkpt lat="44.3416815" lon="7.7054225"><ele>584.4</ele><time>2026-05-03T09:17:27.302Z</time></trkpt><trkpt lat="44.3416852" lon="7.7052009"><ele>583.8</ele><time>2026-05-03T09:17:29.319Z</time></trkpt><trkpt lat="44.3417242" lon="7.7051014"><ele>583.2</ele><time>2026-05-03T09:17:30.314Z</time></trkpt><trkpt lat="44.3417857" lon="7.7049863"><ele>582.6</ele><time>2026-05-03T09:17:32.319Z</time></trkpt><trkpt lat="44.3418117" lon="7.7048539"><ele>582.0</ele><time>2026-05-03T09:17:34.298Z</time></trkpt><trkpt lat="44.341777" lon="7.7047359"><ele>582.0</ele><time>2026-05-03T09:17:36.305Z</time></trkpt><trkpt lat="44.3417257" lon="7.7045957"><ele>582.0</ele><time>2026-05-03T09:17:38.309Z</time></trkpt><trkpt lat="44.3417296" lon="7.704437"><ele>582.0</ele><time>2026-05-03T09:17:40.313Z</time></trkpt><trkpt lat="44.3417679" lon="7.7043624"><ele>582.0</ele><time>2026-05-03T09:17:41.308Z</time></trkpt><trkpt lat="44.3418115" lon="7.7042588"><ele>582.0</ele><time>2026-05-03T09:17:42.317Z</time></trkpt><trkpt lat="44.3418803" lon="7.7041996"><ele>582.6</ele><time>2026-05-03T09:17:43.307Z</time></trkpt><trkpt lat="44.3419575" lon="7.7041345"><ele>583.2</ele><time>2026-05-03T09:17:44.309Z</time></trkpt><trkpt lat="44.3420391" lon="7.7040699"><ele>583.8</ele><time>2026-05-03T09:17:45.303Z</time></trkpt><trkpt lat="44.342124" lon="7.7040046"><ele>584.4</ele><time>2026-05-03T09:17:46.302Z</time></trkpt><trkpt lat="44.3422013" lon="7.7039486"><ele>585.0</ele><time>2026-05-03T09:17:47.312Z</time></trkpt><trkpt lat="44.3422794" lon="7.7038937"><ele>582.5</ele><time>2026-05-03T09:17:48.305Z</time></trkpt><trkpt lat="44.3423559" lon="7.703844"><ele>580.0</ele><time>2026-05-03T09:17:49.308Z</time></trkpt><trkpt lat="44.3424405" lon="7.7038067"><ele>577.5</ele><time>2026-05-03T09:17:50.314Z</time></trkpt><trkpt lat="44.3425226" lon="7.7037815"><ele>575.0</ele><time>2026-05-03T09:17:51.308Z</time></trkpt><trkpt lat="44.3426403" lon="7.703744"><ele>572.5</ele><time>2026-05-03T09:17:53.313Z</time></trkpt><trkpt lat="44.3427003" lon="7.7036973"><ele>570.0</ele><time>2026-05-03T09:17:54.313Z</time></trkpt><trkpt lat="44.3427581" lon="7.7036385"><ele>571.0</ele><time>2026-05-03T09:17:55.303Z</time></trkpt><trkpt lat="44.3428364" lon="7.7035559"><ele>572.0</ele><time>2026-05-03T09:17:56.325Z</time></trkpt><trkpt lat="44.3428871" lon="7.7034917"><ele>573.0</ele><time>2026-05-03T09:17:57.35Z</time></trkpt><trkpt lat="44.3429565" lon="7.7034158"><ele>574.0</ele><time>2026-05-03T09:17:58.31Z</time></trkpt><trkpt lat="44.3430262" lon="7.7033364"><ele>575.0</ele><time>2026-05-03T09:17:59.304Z</time></trkpt><trkpt lat="44.3430987" lon="7.703213"><ele>572.4</ele><time>2026-05-03T09:18:01.311Z</time></trkpt><trkpt lat="44.3431554" lon="7.7030213"><ele>569.8</ele><time>2026-05-03T09:18:03.303Z</time></trkpt><trkpt lat="44.3431728" lon="7.7029205"><ele>567.2</ele><time>2026-05-03T09:18:04.324Z</time></trkpt><trkpt lat="44.3431822" lon="7.7028257"><ele>564.6</ele><time>2026-05-03T09:18:05.306Z</time></trkpt><trkpt lat="44.3431865" lon="7.7026702"><ele>562.0</ele><time>2026-05-03T09:18:07.311Z</time></trkpt><trkpt lat="44.3431661" lon="7.7024935"><ele>562.0</ele><time>2026-05-03T09:18:09.315Z</time></trkpt><trkpt lat="44.343117" lon="7.7023288"><ele>562.0</ele><time>2026-05-03T09:18:11.313Z</time></trkpt><trkpt lat="44.3430963" lon="7.7022399"><ele>562.0</ele><time>2026-05-03T09:18:12.312Z</time></trkpt><trkpt lat="44.3430872" lon="7.702147"><ele>562.0</ele><time>2026-05-03T09:18:13.3Z</time></trkpt><trkpt lat="44.3430774" lon="7.7019706"><ele>562.0</ele><time>2026-05-03T09:18:15.308Z</time></trkpt><trkpt lat="44.3430766" lon="7.7018321"><ele>562.8000000000001</ele><time>2026-05-03T09:18:16.301Z</time></trkpt><trkpt lat="44.3430639" lon="7.7017076"><ele>563.6</ele><time>2026-05-03T09:18:17.31Z</time></trkpt><trkpt lat="44.3430301" lon="7.7015702"><ele>564.4000000000001</ele><time>2026-05-03T09:18:19.309Z</time></trkpt><trkpt lat="44.3429866" lon="7.7014674"><ele>565.2</ele><time>2026-05-03T09:18:20.308Z</time></trkpt><trkpt lat="44.342934" lon="7.7013514"><ele>566.0</ele><time>2026-05-03T09:18:21.314Z</time></trkpt><trkpt lat="44.3428842" lon="7.7012332"><ele>566.0</ele><time>2026-05-03T09:18:22.303Z</time></trkpt><trkpt lat="44.3428407" lon="7.7011054"><ele>566.0</ele><time>2026-05-03T09:18:23.313Z</time></trkpt><trkpt lat="44.3427979" lon="7.7010232"><ele>566.0</ele><time>2026-05-03T09:18:24.314Z</time></trkpt><trkpt lat="44.3427512" lon="7.700954"><ele>566.0</ele><time>2026-05-03T09:18:25.304Z</time></trkpt><trkpt lat="44.3426961" lon="7.7008784"><ele>566.0</ele><time>2026-05-03T09:18:26.305Z</time></trkpt><trkpt lat="44.3426417" lon="7.7008341"><ele>566.0</ele><time>2026-05-03T09:18:27.303Z</time></trkpt><trkpt lat="44.3425735" lon="7.7008095"><ele>563.8</ele><time>2026-05-03T09:18:28.314Z</time></trkpt><trkpt lat="44.3424591" lon="7.7007756"><ele>561.6</ele><time>2026-05-03T09:18:30.305Z</time></trkpt><trkpt lat="44.3423462" lon="7.7008056"><ele>559.4</ele><time>2026-05-03T09:18:32.328Z</time></trkpt><trkpt lat="44.3422801" lon="7.7008414"><ele>557.2</ele><time>2026-05-03T09:18:33.33Z</time></trkpt><trkpt lat="44.3422074" lon="7.7008865"><ele>555.0</ele><time>2026-05-03T09:18:34.305Z</time></trkpt><trkpt lat="44.3421289" lon="7.7009325"><ele>555.0000000000001</ele><time>2026-05-03T09:18:35.306Z</time></trkpt><trkpt lat="44.3420447" lon="7.7009654"><ele>555.0</ele><time>2026-05-03T09:18:36.307Z</time></trkpt><trkpt lat="44.3419716" lon="7.7009976"><ele>555.0</ele><time>2026-05-03T09:18:37.312Z</time></trkpt><trkpt lat="44.3419087" lon="7.7010273"><ele>555.0</ele><time>2026-05-03T09:18:38.305Z</time></trkpt><trkpt lat="44.3418441" lon="7.7010462"><ele>555.0</ele><time>2026-05-03T09:18:39.311Z</time></trkpt><trkpt lat="44.3417701" lon="7.7010731"><ele>555.0000000000001</ele><time>2026-05-03T09:18:41.308Z</time></trkpt><trkpt lat="44.3417026" lon="7.7010803"><ele>555.0</ele><time>2026-05-03T09:18:43.311Z</time></trkpt><trkpt lat="44.3416231" lon="7.7010254"><ele>555.0</ele><time>2026-05-03T09:18:46.315Z</time></trkpt><trkpt lat="44.3415897" lon="7.7008975"><ele>555.0</ele><time>2026-05-03T09:18:49.308Z</time></trkpt><trkpt lat="44.3416158" lon="7.7007785"><ele>555.0</ele><time>2026-05-03T09:18:51.311Z</time></trkpt><trkpt lat="44.3416702" lon="7.7006913"><ele>555.0</ele><time>2026-05-03T09:18:53.308Z</time></trkpt><trkpt lat="44.3417157" lon="7.7006146"><ele>555.0</ele><time>2026-05-03T09:19:08.316Z</time></trkpt><trkpt lat="44.3417789" lon="7.7004961"><ele>555.0</ele><time>2026-05-03T09:19:10.315Z</time></trkpt><trkpt lat="44.3418211" lon="7.700419"><ele>555.0</ele><time>2026-05-03T09:19:11.323Z</time></trkpt><trkpt lat="44.3418623" lon="7.7003406"><ele>555.0</ele><time>2026-05-03T09:19:12.306Z</time></trkpt><trkpt lat="44.3419108" lon="7.7002504"><ele>555.0</ele><time>2026-05-03T09:19:13.317Z</time></trkpt><trkpt lat="44.3419607" lon="7.7001668"><ele>555.0</ele><time>2026-05-03T09:19:14.314Z</time></trkpt><trkpt lat="44.3420201" lon="7.7000746"><ele>555.0</ele><time>2026-05-03T09:19:15.314Z</time></trkpt><trkpt lat="44.342081" lon="7.699972"><ele>555.0</ele><time>2026-05-03T09:19:16.308Z</time></trkpt><trkpt lat="44.3421493" lon="7.6998564"><ele>554.0</ele><time>2026-05-03T09:19:17.312Z</time></trkpt><trkpt lat="44.342213" lon="7.6997205"><ele>553.0</ele><time>2026-05-03T09:19:18.309Z</time></trkpt><trkpt lat="44.3422626" lon="7.6995763"><ele>552.0</ele><time>2026-05-03T09:19:19.299Z</time></trkpt><trkpt lat="44.3423088" lon="7.6994268"><ele>551.0</ele><time>2026-05-03T09:19:20.311Z</time></trkpt><trkpt lat="44.3423475" lon="7.6992914"><ele>551.0</ele><time>2026-05-03T09:19:21.307Z</time></trkpt><trkpt lat="44.342384" lon="7.6991519"><ele>551.0</ele><time>2026-05-03T09:19:22.307Z</time></trkpt><trkpt lat="44.3424063" lon="7.6990061"><ele>551.0</ele><time>2026-05-03T09:19:23.32Z</time></trkpt><trkpt lat="44.3424163" lon="7.6988465"><ele>551.0</ele><time>2026-05-03T09:19:24.317Z</time></trkpt><trkpt lat="44.3424346" lon="7.6986617"><ele>552.0</ele><time>2026-05-03T09:19:25.301Z</time></trkpt><trkpt lat="44.3424518" lon="7.6984804"><ele>553.0</ele><time>2026-05-03T09:19:26.318Z</time></trkpt><trkpt lat="44.3424771" lon="7.698331"><ele>554.0</ele><time>2026-05-03T09:19:27.312Z</time></trkpt><trkpt lat="44.3424993" lon="7.6982041"><ele>555.0</ele><time>2026-05-03T09:19:28.312Z</time></trkpt><trkpt lat="44.3425153" lon="7.6980929"><ele>556.0</ele><time>2026-05-03T09:19:29.316Z</time></trkpt><trkpt lat="44.3425193" lon="7.6979996"><ele>556.0</ele><time>2026-05-03T09:19:30.322Z</time></trkpt><trkpt lat="44.34252" lon="7.6979071"><ele>556.0</ele><time>2026-05-03T09:19:31.329Z</time></trkpt><trkpt lat="44.3425072" lon="7.697805"><ele>556.0</ele><time>2026-05-03T09:19:32.322Z</time></trkpt><trkpt lat="44.3424863" lon="7.6976816"><ele>556.0</ele><time>2026-05-03T09:19:33.308Z</time></trkpt><trkpt lat="44.3424529" lon="7.6975427"><ele>556.0</ele><time>2026-05-03T09:19:34.308Z</time></trkpt><trkpt lat="44.3424025" lon="7.6973929"><ele>555.5</ele><time>2026-05-03T09:19:35.321Z</time></trkpt><trkpt lat="44.3423435" lon="7.6972338"><ele>555.0</ele><time>2026-05-03T09:19:36.31Z</time></trkpt><trkpt lat="44.3422763" lon="7.697067"><ele>554.5</ele><time>2026-05-03T09:19:37.299Z</time></trkpt><trkpt lat="44.3421996" lon="7.69691"><ele>554.0</ele><time>2026-05-03T09:19:38.322Z</time></trkpt><trkpt lat="44.3421251" lon="7.696764"><ele>554.0</ele><time>2026-05-03T09:19:39.311Z</time></trkpt><trkpt lat="44.3420563" lon="7.6966234"><ele>554.0</ele><time>2026-05-03T09:19:40.31Z</time></trkpt><trkpt lat="44.341995" lon="7.6964994"><ele>554.0</ele><time>2026-05-03T09:19:41.329Z</time></trkpt><trkpt lat="44.3419406" lon="7.6963917"><ele>554.0</ele><time>2026-05-03T09:19:42.309Z</time></trkpt><trkpt lat="44.3418945" lon="7.6962944"><ele>554.0</ele><time>2026-05-03T09:19:43.312Z</time></trkpt><trkpt lat="44.3418492" lon="7.696205"><ele>554.0</ele><time>2026-05-03T09:19:44.313Z</time></trkpt><trkpt lat="44.3418034" lon="7.6961206"><ele>554.0</ele><time>2026-05-03T09:19:45.314Z</time></trkpt><trkpt lat="44.3417416" lon="7.696055"><ele>554.0</ele><time>2026-05-03T09:19:46.306Z</time></trkpt><trkpt lat="44.3416519" lon="7.6959901"><ele>554.0</ele><time>2026-05-03T09:19:47.31Z</time></trkpt><trkpt lat="44.3415633" lon="7.6959424"><ele>554.0</ele><time>2026-05-03T09:19:48.307Z</time></trkpt><trkpt lat="44.3414917" lon="7.6959077"><ele>554.0</ele><time>2026-05-03T09:19:49.304Z</time></trkpt><trkpt lat="44.3414205" lon="7.6958831"><ele>551.8</ele><time>2026-05-03T09:19:50.314Z</time></trkpt><trkpt lat="44.3413014" lon="7.6958958"><ele>549.5999999999999</ele><time>2026-05-03T09:19:52.303Z</time></trkpt><trkpt lat="44.3411862" lon="7.6958956"><ele>547.4</ele><time>2026-05-03T09:19:54.314Z</time></trkpt><trkpt lat="44.3411347" lon="7.695831"><ele>545.1999999999999</ele><time>2026-05-03T09:19:56.307Z</time></trkpt><trkpt lat="44.3411375" lon="7.695709"><ele>543.0</ele><time>2026-05-03T09:19:58.323Z</time></trkpt><trkpt lat="44.3411698" lon="7.6956098"><ele>543.0</ele><time>2026-05-03T09:19:59.311Z</time></trkpt><trkpt lat="44.341205" lon="7.6955046"><ele>543.0</ele><time>2026-05-03T09:20:00.31Z</time></trkpt><trkpt lat="44.3412333" lon="7.6953827"><ele>543.0</ele><time>2026-05-03T09:20:01.307Z</time></trkpt><trkpt lat="44.3412548" lon="7.695256"><ele>543.0</ele><time>2026-05-03T09:20:02.31Z</time></trkpt><trkpt lat="44.3412639" lon="7.6951254"><ele>543.0</ele><time>2026-05-03T09:20:03.313Z</time></trkpt><trkpt lat="44.3412704" lon="7.6949898"><ele>543.4</ele><time>2026-05-03T09:20:04.316Z</time></trkpt><trkpt lat="44.3412676" lon="7.6948468"><ele>543.8</ele><time>2026-05-03T09:20:05.314Z</time></trkpt><trkpt lat="44.3412669" lon="7.6947189"><ele>544.2</ele><time>2026-05-03T09:20:06.308Z</time></trkpt><trkpt lat="44.3412687" lon="7.6945948"><ele>544.6</ele><time>2026-05-03T09:20:07.307Z</time></trkpt><trkpt lat="44.3412772" lon="7.6944695"><ele>545.0</ele><time>2026-05-03T09:20:08.304Z</time></trkpt><trkpt lat="44.341294" lon="7.6943492"><ele>545.0</ele><time>2026-05-03T09:20:09.305Z</time></trkpt><trkpt lat="44.3413259" lon="7.6942214"><ele>545.0</ele><time>2026-05-03T09:20:10.31Z</time></trkpt><trkpt lat="44.3413628" lon="7.6941129"><ele>545.0</ele><time>2026-05-03T09:20:11.31Z</time></trkpt><trkpt lat="44.341395" lon="7.694017"><ele>545.0</ele><time>2026-05-03T09:20:12.303Z</time></trkpt><trkpt lat="44.3414459" lon="7.6938965"><ele>545.0</ele><time>2026-05-03T09:20:14.31Z</time></trkpt><trkpt lat="44.3414799" lon="7.6938063"><ele>545.0</ele><time>2026-05-03T09:20:16.308Z</time></trkpt><trkpt lat="44.3415229" lon="7.6936655"><ele>543.0</ele><time>2026-05-03T09:20:18.31Z</time></trkpt><trkpt lat="44.3415733" lon="7.6935289"><ele>541.0</ele><time>2026-05-03T09:20:20.311Z</time></trkpt><trkpt lat="44.341618" lon="7.693426"><ele>539.0</ele><time>2026-05-03T09:20:22.308Z</time></trkpt><trkpt lat="44.3416457" lon="7.6933408"><ele>537.0</ele><time>2026-05-03T09:20:25.325Z</time></trkpt><trkpt lat="44.341615" lon="7.6932553"><ele>535.0</ele><time>2026-05-03T09:20:47.344Z</time></trkpt><trkpt lat="44.3414907" lon="7.6932349"><ele>535.0</ele><time>2026-05-03T09:20:49.3Z</time></trkpt><trkpt lat="44.3414065" lon="7.6932255"><ele>535.0</ele><time>2026-05-03T09:20:50.327Z</time></trkpt><trkpt lat="44.3413082" lon="7.693213"><ele>535.0</ele><time>2026-05-03T09:20:51.311Z</time></trkpt><trkpt lat="44.3412001" lon="7.6931999"><ele>535.0</ele><time>2026-05-03T09:20:52.312Z</time></trkpt><trkpt lat="44.3410852" lon="7.6931883"><ele>535.0</ele><time>2026-05-03T09:20:53.319Z</time></trkpt><trkpt lat="44.3409628" lon="7.6931775"><ele>535.75</ele><time>2026-05-03T09:20:54.307Z</time></trkpt><trkpt lat="44.3408331" lon="7.6931635"><ele>536.5</ele><time>2026-05-03T09:20:55.309Z</time></trkpt><trkpt lat="44.3406943" lon="7.6931466"><ele>537.25</ele><time>2026-05-03T09:20:56.325Z</time></trkpt><trkpt lat="44.3405505" lon="7.6931267"><ele>538.0</ele><time>2026-05-03T09:20:57.314Z</time></trkpt><trkpt lat="44.3404006" lon="7.6931068"><ele>539.0</ele><time>2026-05-03T09:20:58.31Z</time></trkpt><trkpt lat="44.3402465" lon="7.6930871"><ele>540.0</ele><time>2026-05-03T09:20:59.332Z</time></trkpt><trkpt lat="44.3400917" lon="7.6930647"><ele>541.0</ele><time>2026-05-03T09:21:00.317Z</time></trkpt><trkpt lat="44.3399389" lon="7.6930406"><ele>541.0</ele><time>2026-05-03T09:21:01.304Z</time></trkpt><trkpt lat="44.3397854" lon="7.6930136"><ele>541.0</ele><time>2026-05-03T09:21:02.303Z</time></trkpt><trkpt lat="44.3396317" lon="7.6929778"><ele>541.0</ele><time>2026-05-03T09:21:03.314Z</time></trkpt><trkpt lat="44.3394776" lon="7.6929284"><ele>539.6666666666667</ele><time>2026-05-03T09:21:04.317Z</time></trkpt><trkpt lat="44.3393265" lon="7.6928686"><ele>538.3333333333334</ele><time>2026-05-03T09:21:05.396Z</time></trkpt><trkpt lat="44.3391789" lon="7.6928055"><ele>537.0</ele><time>2026-05-03T09:21:06.335Z</time></trkpt><trkpt lat="44.3390326" lon="7.6927403"><ele>537.0</ele><time>2026-05-03T09:21:07.31Z</time></trkpt><trkpt lat="44.338888" lon="7.6926732"><ele>537.0</ele><time>2026-05-03T09:21:08.312Z</time></trkpt><trkpt lat="44.3387458" lon="7.6926066"><ele>537.0</ele><time>2026-05-03T09:21:09.323Z</time></trkpt><trkpt lat="44.338606" lon="7.6925412"><ele>537.25</ele><time>2026-05-03T09:21:10.309Z</time></trkpt><trkpt lat="44.3384645" lon="7.6924775"><ele>537.5</ele><time>2026-05-03T09:21:11.316Z</time></trkpt><trkpt lat="44.3383234" lon="7.6924122"><ele>537.75</ele><time>2026-05-03T09:21:12.31Z</time></trkpt><trkpt lat="44.3381827" lon="7.692344"><ele>538.0</ele><time>2026-05-03T09:21:13.302Z</time></trkpt><trkpt lat="44.3380414" lon="7.6922762"><ele>539.25</ele><time>2026-05-03T09:21:14.305Z</time></trkpt><trkpt lat="44.3378992" lon="7.6922122"><ele>540.5</ele><time>2026-05-03T09:21:15.314Z</time></trkpt><trkpt lat="44.3377583" lon="7.6921506"><ele>541.75</ele><time>2026-05-03T09:21:16.317Z</time></trkpt><trkpt lat="44.3376184" lon="7.6920884"><ele>543.0</ele><time>2026-05-03T09:21:17.312Z</time></trkpt><trkpt lat="44.3374787" lon="7.6920244"><ele>543.0</ele><time>2026-05-03T09:21:18.311Z</time></trkpt><trkpt lat="44.3373386" lon="7.6919607"><ele>543.0</ele><time>2026-05-03T09:21:19.311Z</time></trkpt><trkpt lat="44.3371978" lon="7.6918973"><ele>543.0</ele><time>2026-05-03T09:21:20.307Z</time></trkpt><trkpt lat="44.3370565" lon="7.6918331"><ele>543.0</ele><time>2026-05-03T09:21:21.308Z</time></trkpt><trkpt lat="44.3369132" lon="7.6917676"><ele>542.3333333333334</ele><time>2026-05-03T09:21:22.313Z</time></trkpt><trkpt lat="44.3367679" lon="7.6917026"><ele>541.6666666666667</ele><time>2026-05-03T09:21:23.31Z</time></trkpt><trkpt lat="44.3366208" lon="7.691636"><ele>541.0</ele><time>2026-05-03T09:21:24.31Z</time></trkpt><trkpt lat="44.3364725" lon="7.6915689"><ele>542.6666666666667</ele><time>2026-05-03T09:21:25.308Z</time></trkpt><trkpt lat="44.3363228" lon="7.6915005"><ele>544.3333333333334</ele><time>2026-05-03T09:21:26.313Z</time></trkpt><trkpt lat="44.3361723" lon="7.6914256"><ele>546.0</ele><time>2026-05-03T09:21:27.311Z</time></trkpt><trkpt lat="44.3360222" lon="7.6913443"><ele>546.0</ele><time>2026-05-03T09:21:28.314Z</time></trkpt><trkpt lat="44.3358717" lon="7.6912554"><ele>546.0</ele><time>2026-05-03T09:21:29.312Z</time></trkpt><trkpt lat="44.3357199" lon="7.6911603"><ele>546.0</ele><time>2026-05-03T09:21:30.306Z</time></trkpt><trkpt lat="44.3355622" lon="7.6910579"><ele>545.3333333333334</ele><time>2026-05-03T09:21:31.315Z</time></trkpt><trkpt lat="44.3354006" lon="7.6909507"><ele>544.6666666666667</ele><time>2026-05-03T09:21:32.312Z</time></trkpt><trkpt lat="44.3352357" lon="7.6908383"><ele>544.0</ele><time>2026-05-03T09:21:33.311Z</time></trkpt><trkpt lat="44.3350656" lon="7.6907203"><ele>544.0</ele><time>2026-05-03T09:21:34.318Z</time></trkpt><trkpt lat="44.3348905" lon="7.690598"><ele>544.0</ele><time>2026-05-03T09:21:35.314Z</time></trkpt><trkpt lat="44.3347105" lon="7.6904725"><ele>544.0</ele><time>2026-05-03T09:21:36.315Z</time></trkpt><trkpt lat="44.3345265" lon="7.690342"><ele>544.6666666666667</ele><time>2026-05-03T09:21:37.313Z</time></trkpt><trkpt lat="44.3343391" lon="7.6902091"><ele>545.3333333333334</ele><time>2026-05-03T09:21:38.312Z</time></trkpt><trkpt lat="44.3341478" lon="7.6900755"><ele>546.0</ele><time>2026-05-03T09:21:39.314Z</time></trkpt><trkpt lat="44.3339543" lon="7.6899402"><ele>548.0</ele><time>2026-05-03T09:21:40.319Z</time></trkpt><trkpt lat="44.3337584" lon="7.6898038"><ele>550.0</ele><time>2026-05-03T09:21:41.309Z</time></trkpt><trkpt lat="44.3335599" lon="7.6896662"><ele>552.0</ele><time>2026-05-03T09:21:42.309Z</time></trkpt><trkpt lat="44.3333613" lon="7.6895277"><ele>550.0</ele><time>2026-05-03T09:21:43.309Z</time></trkpt><trkpt lat="44.333164" lon="7.6893871"><ele>548.0</ele><time>2026-05-03T09:21:44.314Z</time></trkpt><trkpt lat="44.3329702" lon="7.6892404"><ele>546.0</ele><time>2026-05-03T09:21:45.314Z</time></trkpt><trkpt lat="44.3327823" lon="7.6890859"><ele>547.0</ele><time>2026-05-03T09:21:46.316Z</time></trkpt><trkpt lat="44.3326009" lon="7.6889224"><ele>548.0</ele><time>2026-05-03T09:21:47.308Z</time></trkpt><trkpt lat="44.3324251" lon="7.6887496"><ele>549.0</ele><time>2026-05-03T09:21:48.315Z</time></trkpt><trkpt lat="44.3322531" lon="7.6885707"><ele>550.6666666666666</ele><time>2026-05-03T09:21:49.315Z</time></trkpt><trkpt lat="44.3320835" lon="7.6883866"><ele>552.3333333333333</ele><time>2026-05-03T09:21:50.313Z</time></trkpt><trkpt lat="44.3319148" lon="7.688199"><ele>554.0</ele><time>2026-05-03T09:21:51.315Z</time></trkpt><trkpt lat="44.3317464" lon="7.6880095"><ele>554.0</ele><time>2026-05-03T09:21:52.31Z</time></trkpt><trkpt lat="44.3315771" lon="7.6878191"><ele>554.0</ele><time>2026-05-03T09:21:53.304Z</time></trkpt><trkpt lat="44.3314089" lon="7.6876245"><ele>554.0</ele><time>2026-05-03T09:21:54.314Z</time></trkpt><trkpt lat="44.3312429" lon="7.6874229"><ele>554.0</ele><time>2026-05-03T09:21:55.308Z</time></trkpt><trkpt lat="44.3310784" lon="7.687214"><ele>554.0</ele><time>2026-05-03T09:21:56.309Z</time></trkpt><trkpt lat="44.3309156" lon="7.6869964"><ele>554.0</ele><time>2026-05-03T09:21:57.304Z</time></trkpt><trkpt lat="44.3307534" lon="7.6867664"><ele>554.5</ele><time>2026-05-03T09:21:58.315Z</time></trkpt><trkpt lat="44.3305911" lon="7.686524"><ele>555.0</ele><time>2026-05-03T09:21:59.313Z</time></trkpt><trkpt lat="44.3304284" lon="7.6862713"><ele>556.0</ele><time>2026-05-03T09:22:00.314Z</time></trkpt><trkpt lat="44.3302653" lon="7.6860103"><ele>557.0</ele><time>2026-05-03T09:22:01.313Z</time></trkpt><trkpt lat="44.3301048" lon="7.6857446"><ele>557.0</ele><time>2026-05-03T09:22:02.312Z</time></trkpt><trkpt lat="44.3299446" lon="7.6854745"><ele>557.0</ele><time>2026-05-03T09:22:03.308Z</time></trkpt><trkpt lat="44.3297805" lon="7.6851991"><ele>559.0</ele><time>2026-05-03T09:22:04.318Z</time></trkpt><trkpt lat="44.3296123" lon="7.6849217"><ele>561.0</ele><time>2026-05-03T09:22:05.305Z</time></trkpt><trkpt lat="44.329445" lon="7.6846472"><ele>560.0</ele><time>2026-05-03T09:22:06.326Z</time></trkpt><trkpt lat="44.3292804" lon="7.684375"><ele>559.0</ele><time>2026-05-03T09:22:07.307Z</time></trkpt><trkpt lat="44.3291159" lon="7.6841064"><ele>559.0</ele><time>2026-05-03T09:22:08.313Z</time></trkpt><trkpt lat="44.3289522" lon="7.6838405"><ele>559.0</ele><time>2026-05-03T09:22:09.304Z</time></trkpt><trkpt lat="44.3287909" lon="7.683576"><ele>563.5</ele><time>2026-05-03T09:22:10.312Z</time></trkpt><trkpt lat="44.3286362" lon="7.6833217"><ele>568.0</ele><time>2026-05-03T09:22:11.307Z</time></trkpt><trkpt lat="44.3284954" lon="7.6830941"><ele>568.0</ele><time>2026-05-03T09:22:12.313Z</time></trkpt><trkpt lat="44.3283723" lon="7.6828969"><ele>568.0</ele><time>2026-05-03T09:22:13.304Z</time></trkpt><trkpt lat="44.3282627" lon="7.6827181"><ele>568.0</ele><time>2026-05-03T09:22:14.311Z</time></trkpt><trkpt lat="44.3281604" lon="7.6825474"><ele>578.3333333333334</ele><time>2026-05-03T09:22:15.314Z</time></trkpt><trkpt lat="44.3280582" lon="7.6823804"><ele>588.6666666666666</ele><time>2026-05-03T09:22:16.308Z</time></trkpt><trkpt lat="44.3279554" lon="7.6822116"><ele>599.0</ele><time>2026-05-03T09:22:17.302Z</time></trkpt><trkpt lat="44.3278522" lon="7.6820387"><ele>593.3333333333333</ele><time>2026-05-03T09:22:18.312Z</time></trkpt><trkpt lat="44.3277495" lon="7.6818661"><ele>587.6666666666666</ele><time>2026-05-03T09:22:19.306Z</time></trkpt><trkpt lat="44.327653" lon="7.681704"><ele>582.0</ele><time>2026-05-03T09:22:20.306Z</time></trkpt><trkpt lat="44.3275586" lon="7.6815473"><ele>582.0</ele><time>2026-05-03T09:22:21.309Z</time></trkpt><trkpt lat="44.3274652" lon="7.6813947"><ele>582.0</ele><time>2026-05-03T09:22:22.31Z</time></trkpt><trkpt lat="44.3273747" lon="7.681251"><ele>582.0</ele><time>2026-05-03T09:22:23.312Z</time></trkpt><trkpt lat="44.3272846" lon="7.681116"><ele>582.0</ele><time>2026-05-03T09:22:24.303Z</time></trkpt><trkpt lat="44.3271974" lon="7.6809964"><ele>583.0</ele><time>2026-05-03T09:22:25.308Z</time></trkpt><trkpt lat="44.3271135" lon="7.6808901"><ele>584.0</ele><time>2026-05-03T09:22:26.329Z</time></trkpt><trkpt lat="44.3270342" lon="7.680794"><ele>585.0</ele><time>2026-05-03T09:22:27.309Z</time></trkpt><trkpt lat="44.3269619" lon="7.6807071"><ele>586.0</ele><time>2026-05-03T09:22:28.311Z</time></trkpt><trkpt lat="44.3268943" lon="7.6806305"><ele>587.0</ele><time>2026-05-03T09:22:29.316Z</time></trkpt><trkpt lat="44.3268302" lon="7.680564"><ele>587.0</ele><time>2026-05-03T09:22:30.306Z</time></trkpt><trkpt lat="44.3267676" lon="7.6805033"><ele>587.0</ele><time>2026-05-03T09:22:31.302Z</time></trkpt><trkpt lat="44.3267085" lon="7.6804419"><ele>587.0</ele><time>2026-05-03T09:22:32.306Z</time></trkpt><trkpt lat="44.3266581" lon="7.6803854"><ele>587.0</ele><time>2026-05-03T09:22:33.308Z</time></trkpt><trkpt lat="44.3265955" lon="7.6803174"><ele>587.0</ele><time>2026-05-03T09:22:35.301Z</time></trkpt><trkpt lat="44.3265194" lon="7.6802434"><ele>587.0</ele><time>2026-05-03T09:23:03.351Z</time></trkpt><trkpt lat="44.3264037" lon="7.6801942"><ele>587.0</ele><time>2026-05-03T09:23:05.389Z</time></trkpt><trkpt lat="44.3263247" lon="7.6801592"><ele>587.0</ele><time>2026-05-03T09:23:06.312Z</time></trkpt><trkpt lat="44.3262405" lon="7.6801103"><ele>587.0</ele><time>2026-05-03T09:23:07.305Z</time></trkpt><trkpt lat="44.3261505" lon="7.6800519"><ele>587.0</ele><time>2026-05-03T09:23:08.309Z</time></trkpt><trkpt lat="44.3260523" lon="7.6799919"><ele>587.0</ele><time>2026-05-03T09:23:09.314Z</time></trkpt><trkpt lat="44.3259451" lon="7.6799363"><ele>587.0</ele><time>2026-05-03T09:23:10.3Z</time></trkpt><trkpt lat="44.3258282" lon="7.6798908"><ele>587.0</ele><time>2026-05-03T09:23:11.31Z</time></trkpt><trkpt lat="44.3257042" lon="7.679861"><ele>587.0</ele><time>2026-05-03T09:23:12.311Z</time></trkpt><trkpt lat="44.3255706" lon="7.6798464"><ele>587.0</ele><time>2026-05-03T09:23:13.31Z</time></trkpt><trkpt lat="44.3254318" lon="7.6798459"><ele>586.0</ele><time>2026-05-03T09:23:14.315Z</time></trkpt><trkpt lat="44.3252929" lon="7.6798565"><ele>585.0</ele><time>2026-05-03T09:23:15.321Z</time></trkpt><trkpt lat="44.3251603" lon="7.6798785"><ele>584.0</ele><time>2026-05-03T09:23:16.309Z</time></trkpt><trkpt lat="44.3250355" lon="7.679915"><ele>583.0</ele><time>2026-05-03T09:23:17.307Z</time></trkpt><trkpt lat="44.3249199" lon="7.6799675"><ele>583.0</ele><time>2026-05-03T09:23:18.298Z</time></trkpt><trkpt lat="44.3248146" lon="7.680039"><ele>583.0</ele><time>2026-05-03T09:23:19.309Z</time></trkpt><trkpt lat="44.3247175" lon="7.6801371"><ele>583.0</ele><time>2026-05-03T09:23:20.31Z</time></trkpt><trkpt lat="44.3246315" lon="7.6802661"><ele>583.0</ele><time>2026-05-03T09:23:21.312Z</time></trkpt><trkpt lat="44.3245405" lon="7.6804112"><ele>583.25</ele><time>2026-05-03T09:23:22.312Z</time></trkpt><trkpt lat="44.3244642" lon="7.6805783"><ele>583.5</ele><time>2026-05-03T09:23:23.304Z</time></trkpt><trkpt lat="44.3243847" lon="7.6807423"><ele>583.75</ele><time>2026-05-03T09:23:24.319Z</time></trkpt><trkpt lat="44.3243071" lon="7.6809117"><ele>584.0</ele><time>2026-05-03T09:23:25.305Z</time></trkpt><trkpt lat="44.324227" lon="7.6810768"><ele>591.0</ele><time>2026-05-03T09:23:26.307Z</time></trkpt><trkpt lat="44.3241404" lon="7.6812414"><ele>598.0</ele><time>2026-05-03T09:23:27.304Z</time></trkpt><trkpt lat="44.3240375" lon="7.6813943"><ele>605.0</ele><time>2026-05-03T09:23:28.305Z</time></trkpt><trkpt lat="44.3239212" lon="7.6815358"><ele>604.0</ele><time>2026-05-03T09:23:29.306Z</time></trkpt><trkpt lat="44.3238032" lon="7.6816749"><ele>603.0</ele><time>2026-05-03T09:23:30.31Z</time></trkpt><trkpt lat="44.3236712" lon="7.6818052"><ele>602.0</ele><time>2026-05-03T09:23:31.356Z</time></trkpt><trkpt lat="44.3235331" lon="7.6819441"><ele>602.0</ele><time>2026-05-03T09:23:32.339Z</time></trkpt><trkpt lat="44.3233924" lon="7.6820771"><ele>602.0</ele><time>2026-05-03T09:23:33.324Z</time></trkpt><trkpt lat="44.3232517" lon="7.6822069"><ele>602.0</ele><time>2026-05-03T09:23:34.307Z</time></trkpt><trkpt lat="44.323115" lon="7.682342"><ele>595.0</ele><time>2026-05-03T09:23:35.307Z</time></trkpt><trkpt lat="44.3229772" lon="7.682479"><ele>588.0</ele><time>2026-05-03T09:23:36.304Z</time></trkpt><trkpt lat="44.3228425" lon="7.6826064"><ele>581.0</ele><time>2026-05-03T09:23:37.305Z</time></trkpt><trkpt lat="44.3227096" lon="7.6827358"><ele>590.0</ele><time>2026-05-03T09:23:38.302Z</time></trkpt><trkpt lat="44.3225861" lon="7.6828586"><ele>599.0</ele><time>2026-05-03T09:23:39.304Z</time></trkpt><trkpt lat="44.3224595" lon="7.6829811"><ele>608.0</ele><time>2026-05-03T09:23:40.305Z</time></trkpt><trkpt lat="44.3223272" lon="7.6831001"><ele>601.0</ele><time>2026-05-03T09:23:41.298Z</time></trkpt><trkpt lat="44.322191" lon="7.6832222"><ele>594.0</ele><time>2026-05-03T09:23:42.302Z</time></trkpt><trkpt lat="44.3220607" lon="7.6833334"><ele>587.0</ele><time>2026-05-03T09:23:43.314Z</time></trkpt><trkpt lat="44.3219386" lon="7.6834296"><ele>587.0</ele><time>2026-05-03T09:23:44.306Z</time></trkpt><trkpt lat="44.3218168" lon="7.6835186"><ele>587.0</ele><time>2026-05-03T09:23:45.299Z</time></trkpt><trkpt lat="44.3216927" lon="7.683602"><ele>587.0</ele><time>2026-05-03T09:23:46.307Z</time></trkpt><trkpt lat="44.3215658" lon="7.6836806"><ele>587.0</ele><time>2026-05-03T09:23:47.307Z</time></trkpt><trkpt lat="44.3214379" lon="7.6837608"><ele>588.25</ele><time>2026-05-03T09:23:48.303Z</time></trkpt><trkpt lat="44.3213084" lon="7.6838423"><ele>589.5</ele><time>2026-05-03T09:23:49.299Z</time></trkpt><trkpt lat="44.3211768" lon="7.6839226"><ele>590.75</ele><time>2026-05-03T09:23:50.302Z</time></trkpt><trkpt lat="44.3210438" lon="7.6840002"><ele>592.0</ele><time>2026-05-03T09:23:51.308Z</time></trkpt><trkpt lat="44.32091" lon="7.6840704"><ele>592.0</ele><time>2026-05-03T09:23:52.306Z</time></trkpt><trkpt lat="44.3207732" lon="7.6841416"><ele>592.0</ele><time>2026-05-03T09:23:53.302Z</time></trkpt><trkpt lat="44.3206376" lon="7.6842258"><ele>592.0</ele><time>2026-05-03T09:23:54.3Z</time></trkpt><trkpt lat="44.3205078" lon="7.6843265"><ele>592.0</ele><time>2026-05-03T09:23:55.309Z</time></trkpt><trkpt lat="44.3203855" lon="7.6844457"><ele>592.75</ele><time>2026-05-03T09:23:56.308Z</time></trkpt><trkpt lat="44.3202693" lon="7.6845725"><ele>593.5</ele><time>2026-05-03T09:23:57.309Z</time></trkpt><trkpt lat="44.3201652" lon="7.6846933"><ele>594.25</ele><time>2026-05-03T09:23:58.301Z</time></trkpt><trkpt lat="44.3200664" lon="7.6848075"><ele>595.0</ele><time>2026-05-03T09:23:59.303Z</time></trkpt><trkpt lat="44.3199649" lon="7.6849202"><ele>595.0</ele><time>2026-05-03T09:24:00.307Z</time></trkpt><trkpt lat="44.3198604" lon="7.6850282"><ele>595.0</ele><time>2026-05-03T09:24:01.305Z</time></trkpt><trkpt lat="44.3197518" lon="7.6851336"><ele>595.0</ele><time>2026-05-03T09:24:02.301Z</time></trkpt><trkpt lat="44.319635" lon="7.6852387"><ele>595.0</ele><time>2026-05-03T09:24:03.312Z</time></trkpt><trkpt lat="44.3195141" lon="7.6853434"><ele>597.75</ele><time>2026-05-03T09:24:04.31Z</time></trkpt><trkpt lat="44.3194011" lon="7.6854364"><ele>600.5</ele><time>2026-05-03T09:24:05.311Z</time></trkpt><trkpt lat="44.3192973" lon="7.6855198"><ele>603.25</ele><time>2026-05-03T09:24:06.312Z</time></trkpt><trkpt lat="44.3191996" lon="7.6855956"><ele>606.0</ele><time>2026-05-03T09:24:07.311Z</time></trkpt><trkpt lat="44.319111" lon="7.6856606"><ele>606.0</ele><time>2026-05-03T09:24:08.306Z</time></trkpt><trkpt lat="44.3190359" lon="7.6857169"><ele>606.0</ele><time>2026-05-03T09:24:09.314Z</time></trkpt><trkpt lat="44.3189691" lon="7.6857676"><ele>606.0</ele><time>2026-05-03T09:24:10.305Z</time></trkpt><trkpt lat="44.3189036" lon="7.6858164"><ele>606.0</ele><time>2026-05-03T09:24:11.31Z</time></trkpt><trkpt lat="44.318838" lon="7.6858639"><ele>606.0</ele><time>2026-05-03T09:24:12.309Z</time></trkpt><trkpt lat="44.3187732" lon="7.6859099"><ele>606.0</ele><time>2026-05-03T09:24:13.314Z</time></trkpt><trkpt lat="44.3186864" lon="7.6859854"><ele>605.0</ele><time>2026-05-03T09:24:15.311Z</time></trkpt><trkpt lat="44.318735" lon="7.6860857"><ele>604.0</ele><time>2026-05-03T09:24:18.305Z</time></trkpt><trkpt lat="44.3188558" lon="7.6861361"><ele>603.0</ele><time>2026-05-03T09:24:20.304Z</time></trkpt><trkpt lat="44.3189241" lon="7.6861609"><ele>602.0</ele><time>2026-05-03T09:24:21.301Z</time></trkpt><trkpt lat="44.3190039" lon="7.6861696"><ele>601.0</ele><time>2026-05-03T09:24:22.307Z</time></trkpt><trkpt lat="44.319091" lon="7.686167"><ele>607.4</ele><time>2026-05-03T09:24:23.3Z</time></trkpt><trkpt lat="44.3191755" lon="7.686167"><ele>613.8</ele><time>2026-05-03T09:24:24.305Z</time></trkpt><trkpt lat="44.3192698" lon="7.686182"><ele>620.1999999999999</ele><time>2026-05-03T09:24:25.308Z</time></trkpt><trkpt lat="44.3193712" lon="7.6862001"><ele>626.6</ele><time>2026-05-03T09:24:26.305Z</time></trkpt><trkpt lat="44.3194706" lon="7.6862266"><ele>633.0</ele><time>2026-05-03T09:24:27.311Z</time></trkpt><trkpt lat="44.3195659" lon="7.6862394"><ele>633.0</ele><time>2026-05-03T09:24:28.306Z</time></trkpt><trkpt lat="44.3196529" lon="7.6862417"><ele>633.0</ele><time>2026-05-03T09:24:29.306Z</time></trkpt><trkpt lat="44.3197455" lon="7.6862163"><ele>633.0</ele><time>2026-05-03T09:24:30.308Z</time></trkpt><trkpt lat="44.3198361" lon="7.6861879"><ele>633.0</ele><time>2026-05-03T09:24:31.311Z</time></trkpt><trkpt lat="44.3199043" lon="7.6861598"><ele>633.0</ele><time>2026-05-03T09:24:32.307Z</time></trkpt><trkpt lat="44.3200279" lon="7.6861863"><ele>634.5</ele><time>2026-05-03T09:24:34.313Z</time></trkpt><trkpt lat="44.3201013" lon="7.6862486"><ele>636.0</ele><time>2026-05-03T09:24:35.306Z</time></trkpt><trkpt lat="44.320168" lon="7.6862673"><ele>637.5</ele><time>2026-05-03T09:24:36.303Z</time></trkpt><trkpt lat="44.3202817" lon="7.6862273"><ele>639.0</ele><time>2026-05-03T09:24:38.307Z</time></trkpt><trkpt lat="44.3203494" lon="7.6861991"><ele>640.5</ele><time>2026-05-03T09:24:39.307Z</time></trkpt><trkpt lat="44.3204177" lon="7.6861825"><ele>642.0</ele><time>2026-05-03T09:24:40.3Z</time></trkpt><trkpt lat="44.3205105" lon="7.6861434"><ele>640.0</ele><time>2026-05-03T09:24:41.306Z</time></trkpt><trkpt lat="44.3205933" lon="7.686091"><ele>638.0</ele><time>2026-05-03T09:24:42.322Z</time></trkpt><trkpt lat="44.3206633" lon="7.6860452"><ele>636.0</ele><time>2026-05-03T09:24:43.307Z</time></trkpt><trkpt lat="44.3207296" lon="7.6859964"><ele>634.0</ele><time>2026-05-03T09:24:44.299Z</time></trkpt><trkpt lat="44.3208017" lon="7.6859474"><ele>632.0</ele><time>2026-05-03T09:24:45.31Z</time></trkpt><trkpt lat="44.3208665" lon="7.6858876"><ele>630.0</ele><time>2026-05-03T09:24:46.299Z</time></trkpt><trkpt lat="44.32093" lon="7.6858442"><ele>630.0</ele><time>2026-05-03T09:24:47.306Z</time></trkpt><trkpt lat="44.3209907" lon="7.6858159"><ele>630.0</ele><time>2026-05-03T09:24:48.306Z</time></trkpt><trkpt lat="44.3210523" lon="7.6857965"><ele>630.0</ele><time>2026-05-03T09:24:49.305Z</time></trkpt><trkpt lat="44.3211311" lon="7.6857447"><ele>630.0</ele><time>2026-05-03T09:24:50.298Z</time></trkpt><trkpt lat="44.3211997" lon="7.6857136"><ele>630.0</ele><time>2026-05-03T09:24:51.307Z</time></trkpt><trkpt lat="44.3212867" lon="7.6856839"><ele>630.0</ele><time>2026-05-03T09:24:52.309Z</time></trkpt><trkpt lat="44.3213644" lon="7.6856535"><ele>633.5</ele><time>2026-05-03T09:24:53.309Z</time></trkpt><trkpt lat="44.32145" lon="7.6856462"><ele>637.0</ele><time>2026-05-03T09:24:54.307Z</time></trkpt><trkpt lat="44.3215273" lon="7.6856522"><ele>640.5</ele><time>2026-05-03T09:24:55.303Z</time></trkpt><trkpt lat="44.321598" lon="7.6856625"><ele>644.0</ele><time>2026-05-03T09:24:56.307Z</time></trkpt><trkpt lat="44.3217165" lon="7.6856348"><ele>647.5</ele><time>2026-05-03T09:24:58.312Z</time></trkpt><trkpt lat="44.3217758" lon="7.6855843"><ele>651.0</ele><time>2026-05-03T09:24:59.306Z</time></trkpt><trkpt lat="44.321844" lon="7.6854925"><ele>651.0</ele><time>2026-05-03T09:25:00.318Z</time></trkpt><trkpt lat="44.3219043" lon="7.6854035"><ele>651.0</ele><time>2026-05-03T09:25:01.305Z</time></trkpt><trkpt lat="44.3219677" lon="7.6853185"><ele>651.0</ele><time>2026-05-03T09:25:02.309Z</time></trkpt><trkpt lat="44.3220322" lon="7.6852251"><ele>651.0</ele><time>2026-05-03T09:25:03.317Z</time></trkpt><trkpt lat="44.3220923" lon="7.6851316"><ele>651.0</ele><time>2026-05-03T09:25:04.309Z</time></trkpt><trkpt lat="44.322154" lon="7.6850696"><ele>651.0</ele><time>2026-05-03T09:25:05.297Z</time></trkpt><trkpt lat="44.3222187" lon="7.6850174"><ele>651.5</ele><time>2026-05-03T09:25:06.308Z</time></trkpt><trkpt lat="44.3222886" lon="7.6849803"><ele>652.0</ele><time>2026-05-03T09:25:07.299Z</time></trkpt><trkpt lat="44.3223731" lon="7.6849422"><ele>652.5</ele><time>2026-05-03T09:25:08.307Z</time></trkpt><trkpt lat="44.322442" lon="7.6849032"><ele>653.0</ele><time>2026-05-03T09:25:09.317Z</time></trkpt><trkpt lat="44.3225172" lon="7.6848848"><ele>653.5</ele><time>2026-05-03T09:25:10.305Z</time></trkpt><trkpt lat="44.3226353" lon="7.6848563"><ele>654.0</ele><time>2026-05-03T09:25:12.311Z</time></trkpt><trkpt lat="44.3227046" lon="7.6848739"><ele>654.0</ele><time>2026-05-03T09:25:13.303Z</time></trkpt><trkpt lat="44.32283" lon="7.6849292"><ele>654.0</ele><time>2026-05-03T09:25:15.304Z</time></trkpt><trkpt lat="44.322923" lon="7.6850338"><ele>654.0</ele><time>2026-05-03T09:25:16.31Z</time></trkpt><trkpt lat="44.3230033" lon="7.6851076"><ele>654.0</ele><time>2026-05-03T09:25:17.312Z</time></trkpt><trkpt lat="44.3230771" lon="7.6851886"><ele>654.0</ele><time>2026-05-03T09:25:18.304Z</time></trkpt><trkpt lat="44.3231605" lon="7.685266"><ele>660.6</ele><time>2026-05-03T09:25:19.31Z</time></trkpt><trkpt lat="44.323248" lon="7.6853521"><ele>667.2</ele><time>2026-05-03T09:25:20.308Z</time></trkpt><trkpt lat="44.3233197" lon="7.685401"><ele>673.8000000000001</ele><time>2026-05-03T09:25:21.312Z</time></trkpt><trkpt lat="44.323418" lon="7.6854671"><ele>680.4000000000001</ele><time>2026-05-03T09:25:22.318Z</time></trkpt><trkpt lat="44.3235088" lon="7.6854888"><ele>687.0</ele><time>2026-05-03T09:25:23.311Z</time></trkpt><trkpt lat="44.3236019" lon="7.6855111"><ele>687.0</ele><time>2026-05-03T09:25:24.308Z</time></trkpt><trkpt lat="44.323684" lon="7.6855381"><ele>687.0</ele><time>2026-05-03T09:25:25.309Z</time></trkpt><trkpt lat="44.3237577" lon="7.6855494"><ele>687.0</ele><time>2026-05-03T09:25:26.307Z</time></trkpt><trkpt lat="44.323861" lon="7.6855242"><ele>687.0</ele><time>2026-05-03T09:25:28.303Z</time></trkpt><trkpt lat="44.323903" lon="7.6854287"><ele>687.0</ele><time>2026-05-03T09:25:31.311Z</time></trkpt><trkpt lat="44.323869" lon="7.6853302"><ele>687.0</ele><time>2026-05-03T09:25:33.307Z</time></trkpt><trkpt lat="44.3238142" lon="7.6851588"><ele>684.1666666666666</ele><time>2026-05-03T09:25:35.31Z</time></trkpt><trkpt lat="44.323773" lon="7.685053"><ele>681.3333333333334</ele><time>2026-05-03T09:25:36.307Z</time></trkpt><trkpt lat="44.3237316" lon="7.68494"><ele>678.5</ele><time>2026-05-03T09:25:37.298Z</time></trkpt><trkpt lat="44.3236931" lon="7.6848339"><ele>675.6666666666667</ele><time>2026-05-03T09:25:38.301Z</time></trkpt><trkpt lat="44.3236631" lon="7.6847338"><ele>672.8333333333334</ele><time>2026-05-03T09:25:39.306Z</time></trkpt><trkpt lat="44.3236538" lon="7.6846012"><ele>670.0</ele><time>2026-05-03T09:25:40.305Z</time></trkpt><trkpt lat="44.3236516" lon="7.6844887"><ele>667.6</ele><time>2026-05-03T09:25:41.313Z</time></trkpt><trkpt lat="44.3236514" lon="7.684372"><ele>665.2</ele><time>2026-05-03T09:25:42.306Z</time></trkpt><trkpt lat="44.3236507" lon="7.6842121"><ele>662.8</ele><time>2026-05-03T09:25:44.305Z</time></trkpt><trkpt lat="44.3236867" lon="7.6841143"><ele>660.4</ele><time>2026-05-03T09:25:46.318Z</time></trkpt><trkpt lat="44.3237786" lon="7.68406"><ele>658.0</ele><time>2026-05-03T09:25:48.314Z</time></trkpt><trkpt lat="44.3238769" lon="7.6840282"><ele>662.4285714285714</ele><time>2026-05-03T09:25:50.3Z</time></trkpt><trkpt lat="44.3239531" lon="7.6840291"><ele>666.8571428571429</ele><time>2026-05-03T09:25:51.304Z</time></trkpt><trkpt lat="44.3240223" lon="7.6840323"><ele>671.2857142857142</ele><time>2026-05-03T09:25:52.305Z</time></trkpt><trkpt lat="44.324088" lon="7.6840261"><ele>675.7142857142858</ele><time>2026-05-03T09:25:53.308Z</time></trkpt><trkpt lat="44.3241565" lon="7.684011"><ele>680.1428571428571</ele><time>2026-05-03T09:25:54.304Z</time></trkpt><trkpt lat="44.3242286" lon="7.6839914"><ele>684.5714285714286</ele><time>2026-05-03T09:25:55.303Z</time></trkpt><trkpt lat="44.3243176" lon="7.6839805"><ele>689.0</ele><time>2026-05-03T09:25:56.319Z</time></trkpt><trkpt lat="44.3244007" lon="7.6839661"><ele>689.0</ele><time>2026-05-03T09:25:57.309Z</time></trkpt><trkpt lat="44.3244774" lon="7.6839747"><ele>689.0</ele><time>2026-05-03T09:25:58.301Z</time></trkpt><trkpt lat="44.3245564" lon="7.683991"><ele>689.0</ele><time>2026-05-03T09:25:59.308Z</time></trkpt><trkpt lat="44.324626" lon="7.6840057"><ele>689.0</ele><time>2026-05-03T09:26:00.306Z</time></trkpt><trkpt lat="44.3247431" lon="7.6840364"><ele>689.0</ele><time>2026-05-03T09:26:02.302Z</time></trkpt><trkpt lat="44.3248476" lon="7.6841406"><ele>695.25</ele><time>2026-05-03T09:26:04.309Z</time></trkpt><trkpt lat="44.3248985" lon="7.6842092"><ele>701.5</ele><time>2026-05-03T09:26:05.305Z</time></trkpt><trkpt lat="44.3249815" lon="7.6842956"><ele>707.75</ele><time>2026-05-03T09:26:07.305Z</time></trkpt><trkpt lat="44.3251181" lon="7.6842075"><ele>714.0</ele><time>2026-05-03T09:26:12.314Z</time></trkpt><trkpt lat="44.3251925" lon="7.6840509"><ele>714.0</ele><time>2026-05-03T09:26:14.312Z</time></trkpt><trkpt lat="44.3252389" lon="7.6839619"><ele>714.0</ele><time>2026-05-03T09:26:15.305Z</time></trkpt><trkpt lat="44.3252646" lon="7.6838755"><ele>714.0</ele><time>2026-05-03T09:26:16.304Z</time></trkpt><trkpt lat="44.325261" lon="7.6837141"><ele>714.0</ele><time>2026-05-03T09:26:18.313Z</time></trkpt><trkpt lat="44.3252798" lon="7.6835641"><ele>714.0</ele><time>2026-05-03T09:26:20.306Z</time></trkpt><trkpt lat="44.3253124" lon="7.6834034"><ele>712.0</ele><time>2026-05-03T09:26:22.305Z</time></trkpt><trkpt lat="44.3253388" lon="7.6832511"><ele>710.0</ele><time>2026-05-03T09:26:24.305Z</time></trkpt><trkpt lat="44.3253408" lon="7.6830945"><ele>708.0</ele><time>2026-05-03T09:26:26.306Z</time></trkpt><trkpt lat="44.3253158" lon="7.6829431"><ele>706.0</ele><time>2026-05-03T09:26:28.309Z</time></trkpt><trkpt lat="44.3252945" lon="7.6828174"><ele>704.0</ele><time>2026-05-03T09:26:30.311Z</time></trkpt><trkpt lat="44.3252919" lon="7.6826758"><ele>705.0</ele><time>2026-05-03T09:26:32.311Z</time></trkpt><trkpt lat="44.3253059" lon="7.6825822"><ele>706.0</ele><time>2026-05-03T09:26:33.303Z</time></trkpt><trkpt lat="44.3253309" lon="7.682435"><ele>707.0</ele><time>2026-05-03T09:26:35.302Z</time></trkpt><trkpt lat="44.3253321" lon="7.6823221"><ele>708.0</ele><time>2026-05-03T09:26:38.307Z</time></trkpt><trkpt lat="44.3254074" lon="7.6821963"><ele>709.0</ele><time>2026-05-03T09:26:50.325Z</time></trkpt><trkpt lat="44.3254505" lon="7.6821293"><ele>710.0</ele><time>2026-05-03T09:28:41.313Z</time></trkpt><trkpt lat="44.3255787" lon="7.6820827"><ele>706.1666666666666</ele><time>2026-05-03T09:41:53.297Z</time></trkpt><trkpt lat="44.3255063" lon="7.6820515"><ele>702.3333333333333</ele><time>2026-05-03T09:42:20.358Z</time></trkpt><trkpt lat="44.3254538" lon="7.682102"><ele>698.5</ele><time>2026-05-03T09:42:26.314Z</time></trkpt><trkpt lat="44.3254637" lon="7.6822413"><ele>694.6666666666666</ele><time>2026-05-03T09:42:29.314Z</time></trkpt><trkpt lat="44.3254368" lon="7.6823807"><ele>690.8333333333334</ele><time>2026-05-03T09:42:31.304Z</time></trkpt><trkpt lat="44.3254216" lon="7.6824863"><ele>687.0</ele><time>2026-05-03T09:42:33.315Z</time></trkpt><trkpt lat="44.3254378" lon="7.6826015"><ele>687.0</ele><time>2026-05-03T09:42:36.31Z</time></trkpt><trkpt lat="44.3254561" lon="7.6827064"><ele>687.0</ele><time>2026-05-03T09:42:38.309Z</time></trkpt><trkpt lat="44.3254746" lon="7.682806"><ele>687.0</ele><time>2026-05-03T09:42:55.317Z</time></trkpt><trkpt lat="44.3255164" lon="7.6829393"><ele>687.0</ele><time>2026-05-03T09:43:03.306Z</time></trkpt><trkpt lat="44.3255362" lon="7.6830376"><ele>687.0</ele><time>2026-05-03T09:43:05.31Z</time></trkpt><trkpt lat="44.3255165" lon="7.6831232"><ele>687.0</ele><time>2026-05-03T09:43:07.314Z</time></trkpt><trkpt lat="44.3254789" lon="7.6832465"><ele>690.4000000000001</ele><time>2026-05-03T09:43:09.313Z</time></trkpt><trkpt lat="44.3254418" lon="7.683378"><ele>693.8000000000001</ele><time>2026-05-03T09:43:11.311Z</time></trkpt><trkpt lat="44.3254234" lon="7.6834632"><ele>697.2</ele><time>2026-05-03T09:43:13.305Z</time></trkpt><trkpt lat="44.3254061" lon="7.6836123"><ele>700.6</ele><time>2026-05-03T09:43:15.308Z</time></trkpt><trkpt lat="44.325388" lon="7.6837606"><ele>704.0</ele><time>2026-05-03T09:43:17.308Z</time></trkpt><trkpt lat="44.3253596" lon="7.6838659"><ele>705.6666666666666</ele><time>2026-05-03T09:43:19.308Z</time></trkpt><trkpt lat="44.3253168" lon="7.6839833"><ele>707.3333333333333</ele><time>2026-05-03T09:43:21.315Z</time></trkpt><trkpt lat="44.3252651" lon="7.6841294"><ele>709.0</ele><time>2026-05-03T09:43:23.308Z</time></trkpt><trkpt lat="44.3252431" lon="7.6842319"><ele>710.6666666666666</ele><time>2026-05-03T09:43:26.31Z</time></trkpt><trkpt lat="44.3252524" lon="7.6843417"><ele>712.3333333333334</ele><time>2026-05-03T09:43:29.32Z</time></trkpt><trkpt lat="44.3252897" lon="7.6844208"><ele>714.0</ele><time>2026-05-03T09:43:31.315Z</time></trkpt><trkpt lat="44.3253754" lon="7.6845037"><ele>716.2</ele><time>2026-05-03T09:43:33.323Z</time></trkpt><trkpt lat="44.3254713" lon="7.6845652"><ele>718.4000000000001</ele><time>2026-05-03T09:43:35.304Z</time></trkpt><trkpt lat="44.3255669" lon="7.6846309"><ele>720.6</ele><time>2026-05-03T09:43:37.307Z</time></trkpt><trkpt lat="44.3256578" lon="7.684656"><ele>722.8</ele><time>2026-05-03T09:43:39.322Z</time></trkpt><trkpt lat="44.3257744" lon="7.684648"><ele>725.0</ele><time>2026-05-03T09:43:41.306Z</time></trkpt><trkpt lat="44.3258923" lon="7.6846034"><ele>726.3333333333333</ele><time>2026-05-03T09:43:43.304Z</time></trkpt><trkpt lat="44.3259593" lon="7.6846014"><ele>727.6666666666666</ele><time>2026-05-03T09:43:46.313Z</time></trkpt><trkpt lat="44.3260072" lon="7.6846683"><ele>729.0</ele><time>2026-05-03T09:44:00.309Z</time></trkpt><trkpt lat="44.3260809" lon="7.6847472"><ele>730.3333333333334</ele><time>2026-05-03T09:44:31.287Z</time></trkpt><trkpt lat="44.3261311" lon="7.6848323"><ele>731.6666666666667</ele><time>2026-05-03T09:44:33.307Z</time></trkpt><trkpt lat="44.3262033" lon="7.6849776"><ele>733.0</ele><time>2026-05-03T09:44:35.304Z</time></trkpt><trkpt lat="44.3262573" lon="7.6850722"><ele>733.0</ele><time>2026-05-03T09:44:36.311Z</time></trkpt><trkpt lat="44.3263063" lon="7.6851728"><ele>733.0</ele><time>2026-05-03T09:44:37.306Z</time></trkpt><trkpt lat="44.3263535" lon="7.685246"><ele>733.0</ele><time>2026-05-03T09:44:38.32Z</time></trkpt><trkpt lat="44.3264026" lon="7.6853013"><ele>733.0</ele><time>2026-05-03T09:44:39.327Z</time></trkpt><trkpt lat="44.3264678" lon="7.6854073"><ele>733.0</ele><time>2026-05-03T09:44:40.318Z</time></trkpt><trkpt lat="44.3265211" lon="7.685516"><ele>733.0</ele><time>2026-05-03T09:44:41.304Z</time></trkpt><trkpt lat="44.326571" lon="7.6856128"><ele>731.0</ele><time>2026-05-03T09:44:42.311Z</time></trkpt><trkpt lat="44.3266194" lon="7.6857094"><ele>729.0</ele><time>2026-05-03T09:44:44.313Z</time></trkpt><trkpt lat="44.3266383" lon="7.6858069"><ele>727.0</ele><time>2026-05-03T09:44:47.306Z</time></trkpt><trkpt lat="44.3266044" lon="7.6858835"><ele>725.0</ele><time>2026-05-03T09:44:49.307Z</time></trkpt><trkpt lat="44.3265962" lon="7.6860302"><ele>723.0</ele><time>2026-05-03T09:44:51.313Z</time></trkpt><trkpt lat="44.3265889" lon="7.6863928"><ele>723.0</ele><time>2026-05-03T09:44:53.311Z</time></trkpt><trkpt lat="44.3266317" lon="7.6865286"><ele>723.0</ele><time>2026-05-03T09:44:55.322Z</time></trkpt><trkpt lat="44.326672" lon="7.6866723"><ele>723.0</ele><time>2026-05-03T09:44:56.31Z</time></trkpt><trkpt lat="44.3267099" lon="7.6867489"><ele>723.0</ele><time>2026-05-03T09:44:57.323Z</time></trkpt><trkpt lat="44.3267851" lon="7.6868854"><ele>723.0</ele><time>2026-05-03T09:44:59.312Z</time></trkpt><trkpt lat="44.3268284" lon="7.686963"><ele>726.4</ele><time>2026-05-03T09:45:00.319Z</time></trkpt><trkpt lat="44.3268913" lon="7.6870961"><ele>729.8</ele><time>2026-05-03T09:45:02.316Z</time></trkpt><trkpt lat="44.3269064" lon="7.687215"><ele>733.2</ele><time>2026-05-03T09:45:04.298Z</time></trkpt><trkpt lat="44.3269136" lon="7.687326"><ele>736.6</ele><time>2026-05-03T09:45:06.313Z</time></trkpt><trkpt lat="44.3269314" lon="7.6874756"><ele>740.0</ele><time>2026-05-03T09:45:08.301Z</time></trkpt><trkpt lat="44.3269494" lon="7.6875982"><ele>740.0</ele><time>2026-05-03T09:45:10.319Z</time></trkpt><trkpt lat="44.3269776" lon="7.6877158"><ele>740.0</ele><time>2026-05-03T09:45:12.31Z</time></trkpt><trkpt lat="44.3270366" lon="7.6878453"><ele>740.0</ele><time>2026-05-03T09:45:14.311Z</time></trkpt><trkpt lat="44.3270836" lon="7.6879106"><ele>740.0</ele><time>2026-05-03T09:45:15.306Z</time></trkpt><trkpt lat="44.3271631" lon="7.6880536"><ele>740.0</ele><time>2026-05-03T09:45:17.311Z</time></trkpt><trkpt lat="44.3272081" lon="7.6881465"><ele>734.6</ele><time>2026-05-03T09:45:18.328Z</time></trkpt><trkpt lat="44.3272703" lon="7.6882702"><ele>729.2</ele><time>2026-05-03T09:45:20.306Z</time></trkpt><trkpt lat="44.3273022" lon="7.688349"><ele>723.8</ele><time>2026-05-03T09:45:21.309Z</time></trkpt><trkpt lat="44.3273511" lon="7.6884932"><ele>718.4</ele><time>2026-05-03T09:45:23.311Z</time></trkpt><trkpt lat="44.3273828" lon="7.6886766"><ele>713.0</ele><time>2026-05-03T09:45:25.308Z</time></trkpt><trkpt lat="44.3273969" lon="7.6888159"><ele>713.0</ele><time>2026-05-03T09:45:27.305Z</time></trkpt><trkpt lat="44.3274067" lon="7.6889578"><ele>713.0</ele><time>2026-05-03T09:45:29.311Z</time></trkpt><trkpt lat="44.327387" lon="7.6890634"><ele>713.0</ele><time>2026-05-03T09:45:31.325Z</time></trkpt><trkpt lat="44.3273654" lon="7.6891513"><ele>713.0</ele><time>2026-05-03T09:45:32.309Z</time></trkpt><trkpt lat="44.3273444" lon="7.6892422"><ele>713.0</ele><time>2026-05-03T09:45:33.31Z</time></trkpt><trkpt lat="44.3273326" lon="7.6893368"><ele>713.0</ele><time>2026-05-03T09:45:34.309Z</time></trkpt><trkpt lat="44.3273253" lon="7.6894319"><ele>713.5999999999999</ele><time>2026-05-03T09:45:35.31Z</time></trkpt><trkpt lat="44.3273205" lon="7.6895376"><ele>714.1999999999999</ele><time>2026-05-03T09:45:36.305Z</time></trkpt><trkpt lat="44.3273267" lon="7.6896319"><ele>714.8</ele><time>2026-05-03T09:45:37.314Z</time></trkpt><trkpt lat="44.327331" lon="7.6897986"><ele>715.4</ele><time>2026-05-03T09:45:39.303Z</time></trkpt><trkpt lat="44.3273185" lon="7.6899752"><ele>716.0</ele><time>2026-05-03T09:45:41.31Z</time></trkpt><trkpt lat="44.3273544" lon="7.6900973"><ele>716.0</ele><time>2026-05-03T09:45:43.312Z</time></trkpt><trkpt lat="44.3273484" lon="7.6902109"><ele>716.0</ele><time>2026-05-03T09:45:46.313Z</time></trkpt><trkpt lat="44.3272995" lon="7.6903347"><ele>716.0</ele><time>2026-05-03T09:45:49.307Z</time></trkpt><trkpt lat="44.3272108" lon="7.6904509"><ele>716.0</ele><time>2026-05-03T09:45:51.314Z</time></trkpt><trkpt lat="44.3271192" lon="7.6905543"><ele>716.0</ele><time>2026-05-03T09:45:53.303Z</time></trkpt><trkpt lat="44.3270477" lon="7.6906912"><ele>716.8</ele><time>2026-05-03T09:45:55.309Z</time></trkpt><trkpt lat="44.3269892" lon="7.6908443"><ele>717.5999999999999</ele><time>2026-05-03T09:45:57.298Z</time></trkpt><trkpt lat="44.3269182" lon="7.6909736"><ele>718.4</ele><time>2026-05-03T09:45:59.318Z</time></trkpt><trkpt lat="44.3268699" lon="7.6910512"><ele>719.2</ele><time>2026-05-03T09:46:00.313Z</time></trkpt><trkpt lat="44.3268057" lon="7.6911517"><ele>720.0</ele><time>2026-05-03T09:46:02.314Z</time></trkpt><trkpt lat="44.3267599" lon="7.6912156"><ele>720.0</ele><time>2026-05-03T09:46:04.3Z</time></trkpt><trkpt lat="44.3267056" lon="7.6912726"><ele>720.0</ele><time>2026-05-03T09:46:05.305Z</time></trkpt><trkpt lat="44.3266145" lon="7.6913151"><ele>720.0</ele><time>2026-05-03T09:46:07.306Z</time></trkpt><trkpt lat="44.3265392" lon="7.6913384"><ele>720.0</ele><time>2026-05-03T09:46:09.308Z</time></trkpt><trkpt lat="44.3264657" lon="7.6913549"><ele>720.0</ele><time>2026-05-03T09:46:11.306Z</time></trkpt><trkpt lat="44.3263811" lon="7.691436"><ele>720.0</ele><time>2026-05-03T09:46:38.31Z</time></trkpt><trkpt lat="44.3263342" lon="7.6915372"><ele>717.8333333333334</ele><time>2026-05-03T09:46:39.314Z</time></trkpt><trkpt lat="44.3262672" lon="7.6916009"><ele>715.6666666666666</ele><time>2026-05-03T09:46:42.332Z</time></trkpt><trkpt lat="44.3261875" lon="7.6917012"><ele>713.5</ele><time>2026-05-03T09:46:44.307Z</time></trkpt><trkpt lat="44.3261142" lon="7.6917732"><ele>711.3333333333333</ele><time>2026-05-03T09:46:46.313Z</time></trkpt><trkpt lat="44.3260649" lon="7.6918289"><ele>709.1666666666666</ele><time>2026-05-03T09:46:47.308Z</time></trkpt><trkpt lat="44.3259963" lon="7.6918815"><ele>707.0</ele><time>2026-05-03T09:46:48.303Z</time></trkpt><trkpt lat="44.3259197" lon="7.6919254"><ele>707.0</ele><time>2026-05-03T09:46:49.308Z</time></trkpt><trkpt lat="44.3258574" lon="7.6919735"><ele>707.0</ele><time>2026-05-03T09:46:50.305Z</time></trkpt><trkpt lat="44.3257972" lon="7.6920231"><ele>707.0</ele><time>2026-05-03T09:46:51.299Z</time></trkpt><trkpt lat="44.3257457" lon="7.6921244"><ele>707.0</ele><time>2026-05-03T09:46:52.342Z</time></trkpt><trkpt lat="44.3256918" lon="7.6922296"><ele>707.0</ele><time>2026-05-03T09:46:53.304Z</time></trkpt><trkpt lat="44.3255521" lon="7.6924834"><ele>706.3333333333333</ele><time>2026-05-03T09:46:54.301Z</time></trkpt><trkpt lat="44.3255066" lon="7.6925721"><ele>705.6666666666666</ele><time>2026-05-03T09:46:55.319Z</time></trkpt><trkpt lat="44.3254471" lon="7.6926609"><ele>705.0</ele><time>2026-05-03T09:46:56.302Z</time></trkpt><trkpt lat="44.3254013" lon="7.6927257"><ele>704.3333333333334</ele><time>2026-05-03T09:46:57.302Z</time></trkpt><trkpt lat="44.3253468" lon="7.6928573"><ele>703.6666666666667</ele><time>2026-05-03T09:46:59.306Z</time></trkpt><trkpt lat="44.3252965" lon="7.6929705"><ele>703.0</ele><time>2026-05-03T09:47:01.308Z</time></trkpt><trkpt lat="44.3252196" lon="7.6931623"><ele>703.0</ele><time>2026-05-03T09:47:02.304Z</time></trkpt><trkpt lat="44.325161" lon="7.6932654"><ele>703.0</ele><time>2026-05-03T09:47:03.304Z</time></trkpt><trkpt lat="44.3251115" lon="7.6933525"><ele>703.0</ele><time>2026-05-03T09:47:04.313Z</time></trkpt><trkpt lat="44.32504" lon="7.6934578"><ele>703.0</ele><time>2026-05-03T09:47:05.306Z</time></trkpt><trkpt lat="44.3249672" lon="7.6935425"><ele>703.0</ele><time>2026-05-03T09:47:06.303Z</time></trkpt><trkpt lat="44.3249027" lon="7.6936084"><ele>702.4285714285714</ele><time>2026-05-03T09:47:07.301Z</time></trkpt><trkpt lat="44.3248359" lon="7.6936648"><ele>701.8571428571429</ele><time>2026-05-03T09:47:08.304Z</time></trkpt><trkpt lat="44.3247732" lon="7.6937214"><ele>701.2857142857142</ele><time>2026-05-03T09:47:09.3Z</time></trkpt><trkpt lat="44.3247104" lon="7.6937541"><ele>700.7142857142858</ele><time>2026-05-03T09:47:10.299Z</time></trkpt><trkpt lat="44.3246336" lon="7.6937853"><ele>700.1428571428572</ele><time>2026-05-03T09:47:11.306Z</time></trkpt><trkpt lat="44.3245575" lon="7.6938093"><ele>699.5714285714286</ele><time>2026-05-03T09:47:12.321Z</time></trkpt><trkpt lat="44.3244871" lon="7.6938232"><ele>699.0</ele><time>2026-05-03T09:47:13.309Z</time></trkpt><trkpt lat="44.3243935" lon="7.6938381"><ele>699.0</ele><time>2026-05-03T09:47:14.301Z</time></trkpt><trkpt lat="44.3243174" lon="7.6938368"><ele>699.0</ele><time>2026-05-03T09:47:15.312Z</time></trkpt><trkpt lat="44.3242204" lon="7.6939434"><ele>699.0</ele><time>2026-05-03T09:47:16.311Z</time></trkpt><trkpt lat="44.3241405" lon="7.6939468"><ele>699.0</ele><time>2026-05-03T09:47:17.301Z</time></trkpt><trkpt lat="44.3240148" lon="7.6939507"><ele>699.0</ele><time>2026-05-03T09:47:19.296Z</time></trkpt><trkpt lat="44.3239436" lon="7.6940047"><ele>700.5</ele><time>2026-05-03T09:47:20.302Z</time></trkpt><trkpt lat="44.32387" lon="7.6940444"><ele>702.0</ele><time>2026-05-03T09:47:21.309Z</time></trkpt><trkpt lat="44.3237886" lon="7.6940916"><ele>703.5</ele><time>2026-05-03T09:47:22.318Z</time></trkpt><trkpt lat="44.323714" lon="7.6941484"><ele>705.0</ele><time>2026-05-03T09:47:23.308Z</time></trkpt><trkpt lat="44.3236438" lon="7.6941819"><ele>706.5</ele><time>2026-05-03T09:47:24.3Z</time></trkpt><trkpt lat="44.3235488" lon="7.6942283"><ele>708.0</ele><time>2026-05-03T09:47:26.301Z</time></trkpt><trkpt lat="44.3234512" lon="7.6942552"><ele>708.0</ele><time>2026-05-03T09:47:28.321Z</time></trkpt><trkpt lat="44.323328" lon="7.6942217"><ele>708.0</ele><time>2026-05-03T09:47:30.308Z</time></trkpt><trkpt lat="44.3232596" lon="7.6942305"><ele>708.0</ele><time>2026-05-03T09:47:31.302Z</time></trkpt><trkpt lat="44.3231815" lon="7.6942511"><ele>708.0</ele><time>2026-05-03T09:47:33.306Z</time></trkpt><trkpt lat="44.3231049" lon="7.6943077"><ele>708.0</ele><time>2026-05-03T09:47:35.309Z</time></trkpt><trkpt lat="44.3230516" lon="7.6944305"><ele>705.0</ele><time>2026-05-03T09:47:37.305Z</time></trkpt><trkpt lat="44.3229843" lon="7.6945527"><ele>702.0</ele><time>2026-05-03T09:47:39.31Z</time></trkpt><trkpt lat="44.3228902" lon="7.6946541"><ele>699.0</ele><time>2026-05-03T09:47:41.3Z</time></trkpt><trkpt lat="44.3228143" lon="7.6947236"><ele>696.0</ele><time>2026-05-03T09:47:42.314Z</time></trkpt><trkpt lat="44.3226763" lon="7.6947857"><ele>696.0</ele><time>2026-05-03T09:47:43.307Z</time></trkpt><trkpt lat="44.3225795" lon="7.6948511"><ele>696.0</ele><time>2026-05-03T09:47:44.304Z</time></trkpt><trkpt lat="44.3225102" lon="7.6949179"><ele>696.0</ele><time>2026-05-03T09:47:45.305Z</time></trkpt><trkpt lat="44.3224506" lon="7.6949704"><ele>696.0</ele><time>2026-05-03T09:47:46.299Z</time></trkpt><trkpt lat="44.3223986" lon="7.6950268"><ele>696.0</ele><time>2026-05-03T09:47:47.3Z</time></trkpt><trkpt lat="44.3223279" lon="7.6950774"><ele>696.0</ele><time>2026-05-03T09:47:48.299Z</time></trkpt><trkpt lat="44.322273" lon="7.6951501"><ele>695.5999999999999</ele><time>2026-05-03T09:47:49.302Z</time></trkpt><trkpt lat="44.3221879" lon="7.6952417"><ele>695.2</ele><time>2026-05-03T09:47:51.307Z</time></trkpt><trkpt lat="44.3220525" lon="7.6952795"><ele>694.8</ele><time>2026-05-03T09:47:53.304Z</time></trkpt><trkpt lat="44.3219762" lon="7.6952812"><ele>694.4000000000001</ele><time>2026-05-03T09:47:54.298Z</time></trkpt><trkpt lat="44.3219033" lon="7.6952791"><ele>694.0</ele><time>2026-05-03T09:47:55.317Z</time></trkpt><trkpt lat="44.3218215" lon="7.6952882"><ele>694.0</ele><time>2026-05-03T09:47:56.306Z</time></trkpt><trkpt lat="44.3217216" lon="7.6953132"><ele>694.0</ele><time>2026-05-03T09:47:57.302Z</time></trkpt><trkpt lat="44.3216262" lon="7.6953146"><ele>694.0</ele><time>2026-05-03T09:47:58.308Z</time></trkpt><trkpt lat="44.3215191" lon="7.6953188"><ele>694.0</ele><time>2026-05-03T09:47:59.304Z</time></trkpt><trkpt lat="44.3214124" lon="7.6953088"><ele>694.0</ele><time>2026-05-03T09:48:00.312Z</time></trkpt><trkpt lat="44.3212995" lon="7.695295"><ele>693.0</ele><time>2026-05-03T09:48:01.305Z</time></trkpt><trkpt lat="44.3211938" lon="7.6952592"><ele>692.0</ele><time>2026-05-03T09:48:02.305Z</time></trkpt><trkpt lat="44.3210444" lon="7.6952565"><ele>691.0</ele><time>2026-05-03T09:48:03.346Z</time></trkpt><trkpt lat="44.3209447" lon="7.6952232"><ele>690.0</ele><time>2026-05-03T09:48:04.311Z</time></trkpt><trkpt lat="44.3208409" lon="7.6951845"><ele>693.4</ele><time>2026-05-03T09:48:05.305Z</time></trkpt><trkpt lat="44.3207349" lon="7.6951568"><ele>696.8</ele><time>2026-05-03T09:48:06.305Z</time></trkpt><trkpt lat="44.3206278" lon="7.6951373"><ele>700.2</ele><time>2026-05-03T09:48:07.32Z</time></trkpt><trkpt lat="44.3205333" lon="7.695096"><ele>703.6</ele><time>2026-05-03T09:48:08.302Z</time></trkpt><trkpt lat="44.3204468" lon="7.6950258"><ele>707.0</ele><time>2026-05-03T09:48:09.306Z</time></trkpt><trkpt lat="44.3203607" lon="7.694967"><ele>707.2</ele><time>2026-05-03T09:48:10.31Z</time></trkpt><trkpt lat="44.3202821" lon="7.6949195"><ele>707.4000000000001</ele><time>2026-05-03T09:48:11.316Z</time></trkpt><trkpt lat="44.3201931" lon="7.6948988"><ele>707.5999999999999</ele><time>2026-05-03T09:48:12.303Z</time></trkpt><trkpt lat="44.3200948" lon="7.694914"><ele>707.8</ele><time>2026-05-03T09:48:13.303Z</time></trkpt><trkpt lat="44.3199886" lon="7.6949386"><ele>708.0</ele><time>2026-05-03T09:48:14.304Z</time></trkpt><trkpt lat="44.3198816" lon="7.6949559"><ele>708.0</ele><time>2026-05-03T09:48:15.303Z</time></trkpt><trkpt lat="44.3197812" lon="7.6949588"><ele>708.0</ele><time>2026-05-03T09:48:16.309Z</time></trkpt><trkpt lat="44.3196707" lon="7.6949558"><ele>708.0</ele><time>2026-05-03T09:48:17.31Z</time></trkpt><trkpt lat="44.3195626" lon="7.6949369"><ele>708.0</ele><time>2026-05-03T09:48:18.305Z</time></trkpt><trkpt lat="44.3194489" lon="7.6949267"><ele>708.0</ele><time>2026-05-03T09:48:19.302Z</time></trkpt><trkpt lat="44.3193251" lon="7.694909"><ele>708.0</ele><time>2026-05-03T09:48:20.299Z</time></trkpt><trkpt lat="44.3192011" lon="7.6949055"><ele>708.0</ele><time>2026-05-03T09:48:21.311Z</time></trkpt><trkpt lat="44.3190862" lon="7.6949023"><ele>708.0</ele><time>2026-05-03T09:48:22.313Z</time></trkpt><trkpt lat="44.3189967" lon="7.694896"><ele>708.0</ele><time>2026-05-03T09:48:23.299Z</time></trkpt><trkpt lat="44.3189046" lon="7.6948947"><ele>708.0</ele><time>2026-05-03T09:48:25.308Z</time></trkpt><trkpt lat="44.318841" lon="7.6948947"><ele>708.0</ele><time>2026-05-03T09:48:28.304Z</time></trkpt><trkpt lat="44.3188982" lon="7.6949402"><ele>708.0</ele><time>2026-05-03T09:48:53.334Z</time></trkpt><trkpt lat="44.3189256" lon="7.6950352"><ele>708.0</ele><time>2026-05-03T09:48:58.308Z</time></trkpt><trkpt lat="44.3188795" lon="7.6951171"><ele>708.0</ele><time>2026-05-03T09:49:00.31Z</time></trkpt><trkpt lat="44.318809" lon="7.6951967"><ele>708.0</ele><time>2026-05-03T09:49:02.308Z</time></trkpt><trkpt lat="44.318734" lon="7.6953134"><ele>708.0</ele><time>2026-05-03T09:49:04.302Z</time></trkpt><trkpt lat="44.3187101" lon="7.6954496"><ele>708.7142857142858</ele><time>2026-05-03T09:49:06.311Z</time></trkpt><trkpt lat="44.3186973" lon="7.6955413"><ele>709.4285714285713</ele><time>2026-05-03T09:49:07.303Z</time></trkpt><trkpt lat="44.3186865" lon="7.6956364"><ele>710.1428571428571</ele><time>2026-05-03T09:49:08.321Z</time></trkpt><trkpt lat="44.3186753" lon="7.6957267"><ele>710.8571428571429</ele><time>2026-05-03T09:49:09.308Z</time></trkpt><trkpt lat="44.3186592" lon="7.6958257"><ele>711.5714285714287</ele><time>2026-05-03T09:49:10.319Z</time></trkpt><trkpt lat="44.3186384" lon="7.695928"><ele>712.2857142857142</ele><time>2026-05-03T09:49:11.32Z</time></trkpt><trkpt lat="44.3186188" lon="7.6960298"><ele>713.0</ele><time>2026-05-03T09:49:12.317Z</time></trkpt><trkpt lat="44.3186054" lon="7.6961305"><ele>713.5</ele><time>2026-05-03T09:49:13.317Z</time></trkpt><trkpt lat="44.3185876" lon="7.6962229"><ele>714.0</ele><time>2026-05-03T09:49:14.308Z</time></trkpt><trkpt lat="44.3185677" lon="7.6963111"><ele>714.5</ele><time>2026-05-03T09:49:15.307Z</time></trkpt><trkpt lat="44.3185418" lon="7.6964066"><ele>715.0</ele><time>2026-05-03T09:49:16.324Z</time></trkpt><trkpt lat="44.3185147" lon="7.6965"><ele>715.5</ele><time>2026-05-03T09:49:17.304Z</time></trkpt><trkpt lat="44.318459" lon="7.6966487"><ele>716.0</ele><time>2026-05-03T09:49:19.313Z</time></trkpt><trkpt lat="44.3184161" lon="7.6967941"><ele>716.0</ele><time>2026-05-03T09:49:21.307Z</time></trkpt><trkpt lat="44.3184276" lon="7.6969154"><ele>716.0</ele><time>2026-05-03T09:49:23.318Z</time></trkpt><trkpt lat="44.3184541" lon="7.6970284"><ele>716.0</ele><time>2026-05-03T09:49:25.31Z</time></trkpt><trkpt lat="44.3184354" lon="7.6971595"><ele>716.0</ele><time>2026-05-03T09:49:27.313Z</time></trkpt><trkpt lat="44.3184131" lon="7.6973053"><ele>716.0</ele><time>2026-05-03T09:49:29.305Z</time></trkpt><trkpt lat="44.3184388" lon="7.6974213"><ele>715.6666666666666</ele><time>2026-05-03T09:49:31.33Z</time></trkpt><trkpt lat="44.3184464" lon="7.6975364"><ele>715.3333333333333</ele><time>2026-05-03T09:49:34.307Z</time></trkpt><trkpt lat="44.3183965" lon="7.697652"><ele>715.0</ele><time>2026-05-03T09:49:37.308Z</time></trkpt><trkpt lat="44.3183332" lon="7.6976997"><ele>714.6666666666666</ele><time>2026-05-03T09:49:38.305Z</time></trkpt><trkpt lat="44.318252" lon="7.6977595"><ele>714.3333333333334</ele><time>2026-05-03T09:49:39.311Z</time></trkpt><trkpt lat="44.3181837" lon="7.6978012"><ele>714.0</ele><time>2026-05-03T09:49:40.308Z</time></trkpt><trkpt lat="44.3180984" lon="7.6978988"><ele>712.6666666666666</ele><time>2026-05-03T09:49:42.311Z</time></trkpt><trkpt lat="44.3180204" lon="7.6979922"><ele>711.3333333333334</ele><time>2026-05-03T09:49:44.319Z</time></trkpt><trkpt lat="44.3179619" lon="7.6980406"><ele>710.0</ele><time>2026-05-03T09:49:46.304Z</time></trkpt><trkpt lat="44.3178993" lon="7.6980505"><ele>708.6666666666667</ele><time>2026-05-03T09:49:48.318Z</time></trkpt><trkpt lat="44.3178308" lon="7.6980814"><ele>707.3333333333334</ele><time>2026-05-03T09:49:49.305Z</time></trkpt><trkpt lat="44.3177321" lon="7.6980582"><ele>706.0</ele><time>2026-05-03T09:49:51.307Z</time></trkpt><trkpt lat="44.3176529" lon="7.6980398"><ele>706.0</ele><time>2026-05-03T09:49:54.304Z</time></trkpt><trkpt lat="44.3176057" lon="7.6979494"><ele>706.0</ele><time>2026-05-03T09:49:57.313Z</time></trkpt><trkpt lat="44.3174507" lon="7.6979223"><ele>706.0</ele><time>2026-05-03T09:49:59.308Z</time></trkpt><trkpt lat="44.3173755" lon="7.6979035"><ele>706.0</ele><time>2026-05-03T09:50:00.306Z</time></trkpt><trkpt lat="44.3172541" lon="7.6979253"><ele>706.0</ele><time>2026-05-03T09:50:02.31Z</time></trkpt><trkpt lat="44.3171911" lon="7.697941"><ele>706.3333333333334</ele><time>2026-05-03T09:50:03.308Z</time></trkpt><trkpt lat="44.3171262" lon="7.6979608"><ele>706.6666666666667</ele><time>2026-05-03T09:50:04.305Z</time></trkpt><trkpt lat="44.3170034" lon="7.6980125"><ele>707.0</ele><time>2026-05-03T09:50:06.304Z</time></trkpt><trkpt lat="44.31694" lon="7.6980379"><ele>707.3333333333334</ele><time>2026-05-03T09:50:07.31Z</time></trkpt><trkpt lat="44.3168737" lon="7.6980559"><ele>707.6666666666666</ele><time>2026-05-03T09:50:08.303Z</time></trkpt><trkpt lat="44.3168059" lon="7.6980795"><ele>708.0</ele><time>2026-05-03T09:50:09.311Z</time></trkpt><trkpt lat="44.3166972" lon="7.6981257"><ele>708.0</ele><time>2026-05-03T09:50:11.306Z</time></trkpt><trkpt lat="44.3166331" lon="7.6981607"><ele>708.0</ele><time>2026-05-03T09:50:13.309Z</time></trkpt><trkpt lat="44.316571" lon="7.6982106"><ele>708.0</ele><time>2026-05-03T09:50:15.305Z</time></trkpt><trkpt lat="44.3165174" lon="7.6982815"><ele>708.0</ele><time>2026-05-03T09:50:17.324Z</time></trkpt><trkpt lat="44.3164742" lon="7.6983593"><ele>708.0</ele><time>2026-05-03T09:50:19.311Z</time></trkpt><trkpt lat="44.3164441" lon="7.6984486"><ele>708.0</ele><time>2026-05-03T09:50:21.304Z</time></trkpt><trkpt lat="44.3163607" lon="7.698528"><ele>713.1666666666666</ele><time>2026-05-03T09:50:23.313Z</time></trkpt><trkpt lat="44.3163046" lon="7.6985703"><ele>718.3333333333334</ele><time>2026-05-03T09:50:24.31Z</time></trkpt><trkpt lat="44.3162551" lon="7.698647"><ele>723.5</ele><time>2026-05-03T09:50:26.366Z</time></trkpt><trkpt lat="44.3162391" lon="7.6987597"><ele>728.6666666666667</ele><time>2026-05-03T09:50:28.31Z</time></trkpt><trkpt lat="44.3162349" lon="7.698878"><ele>733.8333333333334</ele><time>2026-05-03T09:50:32.306Z</time></trkpt><trkpt lat="44.3161755" lon="7.6989723"><ele>739.0</ele><time>2026-05-03T09:50:35.313Z</time></trkpt><trkpt lat="44.3161273" lon="7.6990451"><ele>739.0</ele><time>2026-05-03T09:50:37.316Z</time></trkpt><trkpt lat="44.3160578" lon="7.6991067"><ele>739.0</ele><time>2026-05-03T09:50:39.307Z</time></trkpt><trkpt lat="44.315985" lon="7.6991598"><ele>739.0</ele><time>2026-05-03T09:50:41.313Z</time></trkpt><trkpt lat="44.3159331" lon="7.699223"><ele>739.0</ele><time>2026-05-03T09:50:45.302Z</time></trkpt><trkpt lat="44.3158515" lon="7.699272"><ele>739.0</ele><time>2026-05-03T09:50:48.312Z</time></trkpt><trkpt lat="44.3157177" lon="7.6992769"><ele>739.0</ele><time>2026-05-03T09:50:52.307Z</time></trkpt><trkpt lat="44.3156449" lon="7.6993073"><ele>739.0</ele><time>2026-05-03T09:50:54.399Z</time></trkpt><trkpt lat="44.3155314" lon="7.6993935"><ele>739.0</ele><time>2026-05-03T09:50:56.328Z</time></trkpt><trkpt lat="44.3154623" lon="7.699444"><ele>739.0</ele><time>2026-05-03T09:50:57.317Z</time></trkpt><trkpt lat="44.3153993" lon="7.6994998"><ele>739.0</ele><time>2026-05-03T09:50:58.306Z</time></trkpt><trkpt lat="44.3152745" lon="7.6995771"><ele>739.1666666666667</ele><time>2026-05-03T09:51:00.304Z</time></trkpt><trkpt lat="44.3151953" lon="7.6996414"><ele>739.3333333333334</ele><time>2026-05-03T09:51:02.306Z</time></trkpt><trkpt lat="44.3151279" lon="7.6996728"><ele>739.5</ele><time>2026-05-03T09:51:04.3Z</time></trkpt><trkpt lat="44.3150504" lon="7.6997406"><ele>739.6666666666666</ele><time>2026-05-03T09:51:07.31Z</time></trkpt><trkpt lat="44.3149452" lon="7.6997673"><ele>739.8333333333333</ele><time>2026-05-03T09:51:09.312Z</time></trkpt><trkpt lat="44.3148664" lon="7.6997924"><ele>740.0</ele><time>2026-05-03T09:51:11.311Z</time></trkpt><trkpt lat="44.3148175" lon="7.6998931"><ele>740.0</ele><time>2026-05-03T09:51:13.318Z</time></trkpt><trkpt lat="44.3147662" lon="7.7000278"><ele>740.0</ele><time>2026-05-03T09:51:15.301Z</time></trkpt><trkpt lat="44.3147368" lon="7.7001561"><ele>740.0</ele><time>2026-05-03T09:51:17.308Z</time></trkpt><trkpt lat="44.314699" lon="7.7002472"><ele>740.0</ele><time>2026-05-03T09:51:18.304Z</time></trkpt><trkpt lat="44.3147057" lon="7.7003908"><ele>740.0</ele><time>2026-05-03T09:51:20.357Z</time></trkpt><trkpt lat="44.314737" lon="7.7005282"><ele>739.8333333333333</ele><time>2026-05-03T09:51:22.307Z</time></trkpt><trkpt lat="44.3147659" lon="7.7006521"><ele>739.6666666666666</ele><time>2026-05-03T09:51:25.308Z</time></trkpt><trkpt lat="44.3147759" lon="7.7007466"><ele>739.5</ele><time>2026-05-03T09:51:27.31Z</time></trkpt><trkpt lat="44.3147781" lon="7.7008669"><ele>739.3333333333334</ele><time>2026-05-03T09:51:30.303Z</time></trkpt><trkpt lat="44.3147746" lon="7.7010224"><ele>739.1666666666667</ele><time>2026-05-03T09:51:32.313Z</time></trkpt><trkpt lat="44.3147787" lon="7.701139"><ele>739.0</ele><time>2026-05-03T09:51:35.314Z</time></trkpt><trkpt lat="44.3147757" lon="7.7012289"><ele>740.3333333333334</ele><time>2026-05-03T09:51:37.309Z</time></trkpt><trkpt lat="44.314771" lon="7.7013519"><ele>741.6666666666667</ele><time>2026-05-03T09:51:39.306Z</time></trkpt><trkpt lat="44.3147774" lon="7.7014481"><ele>743.0</ele><time>2026-05-03T09:51:42.302Z</time></trkpt><trkpt lat="44.3147391" lon="7.7015302"><ele>744.3333333333334</ele><time>2026-05-03T09:51:51.382Z</time></trkpt><trkpt lat="44.3146811" lon="7.7016346"><ele>745.6666666666666</ele><time>2026-05-03T09:51:55.314Z</time></trkpt><trkpt lat="44.3146872" lon="7.7017379"><ele>747.0</ele><time>2026-05-03T09:51:58.323Z</time></trkpt><trkpt lat="44.3147229" lon="7.7018449"><ele>746.6666666666666</ele><time>2026-05-03T09:52:01.32Z</time></trkpt><trkpt lat="44.314737" lon="7.7019684"><ele>746.3333333333334</ele><time>2026-05-03T09:52:03.304Z</time></trkpt><trkpt lat="44.3147545" lon="7.7020677"><ele>746.0</ele><time>2026-05-03T09:52:05.302Z</time></trkpt><trkpt lat="44.314795" lon="7.7021493"><ele>745.6666666666667</ele><time>2026-05-03T09:52:07.313Z</time></trkpt><trkpt lat="44.3148281" lon="7.7022629"><ele>745.3333333333334</ele><time>2026-05-03T09:52:09.301Z</time></trkpt><trkpt lat="44.3148215" lon="7.7023773"><ele>745.0</ele><time>2026-05-03T09:52:11.331Z</time></trkpt><trkpt lat="44.3147709" lon="7.702561"><ele>746.0</ele><time>2026-05-03T09:52:13.302Z</time></trkpt><trkpt lat="44.3147505" lon="7.702729"><ele>747.0</ele><time>2026-05-03T09:52:15.314Z</time></trkpt><trkpt lat="44.3147447" lon="7.7029955"><ele>748.0</ele><time>2026-05-03T09:52:18.299Z</time></trkpt><trkpt lat="44.3147403" lon="7.7031267"><ele>749.0</ele><time>2026-05-03T09:52:20.31Z</time></trkpt><trkpt lat="44.3146958" lon="7.7033535"><ele>748.6666666666666</ele><time>2026-05-03T09:52:23.303Z</time></trkpt><trkpt lat="44.3146988" lon="7.7034465"><ele>748.3333333333333</ele><time>2026-05-03T09:52:24.305Z</time></trkpt><trkpt lat="44.3147216" lon="7.7035418"><ele>748.0</ele><time>2026-05-03T09:52:25.302Z</time></trkpt><trkpt lat="44.3147456" lon="7.7036551"><ele>747.6666666666666</ele><time>2026-05-03T09:52:26.308Z</time></trkpt><trkpt lat="44.3147828" lon="7.703746"><ele>747.3333333333334</ele><time>2026-05-03T09:52:27.3Z</time></trkpt><trkpt lat="44.3148299" lon="7.7038465"><ele>747.0</ele><time>2026-05-03T09:52:28.305Z</time></trkpt><trkpt lat="44.3148773" lon="7.7039291"><ele>747.0</ele><time>2026-05-03T09:52:29.307Z</time></trkpt><trkpt lat="44.3149259" lon="7.7040372"><ele>747.0</ele><time>2026-05-03T09:52:30.304Z</time></trkpt><trkpt lat="44.3150226" lon="7.7041935"><ele>747.0</ele><time>2026-05-03T09:52:32.306Z</time></trkpt><trkpt lat="44.3151377" lon="7.7043122"><ele>747.0</ele><time>2026-05-03T09:52:34.301Z</time></trkpt><trkpt lat="44.3152041" lon="7.7043329"><ele>747.0</ele><time>2026-05-03T09:52:35.306Z</time></trkpt><trkpt lat="44.3153166" lon="7.704386"><ele>747.0</ele><time>2026-05-03T09:52:37.305Z</time></trkpt><trkpt lat="44.3153703" lon="7.704438"><ele>747.0</ele><time>2026-05-03T09:52:38.31Z</time></trkpt><trkpt lat="44.3154213" lon="7.7045166"><ele>747.0</ele><time>2026-05-03T09:52:39.306Z</time></trkpt><trkpt lat="44.3154736" lon="7.7046104"><ele>747.0</ele><time>2026-05-03T09:52:40.303Z</time></trkpt><trkpt lat="44.3155149" lon="7.7046999"><ele>747.0</ele><time>2026-05-03T09:52:41.314Z</time></trkpt><trkpt lat="44.3155608" lon="7.7047943"><ele>751.5</ele><time>2026-05-03T09:52:42.318Z</time></trkpt><trkpt lat="44.3156122" lon="7.7051682"><ele>756.0</ele><time>2026-05-03T09:52:45.306Z</time></trkpt><trkpt lat="44.315598" lon="7.7054202"><ele>756.0</ele><time>2026-05-03T09:52:46.301Z</time></trkpt><trkpt lat="44.3155925" lon="7.7056132"><ele>756.0</ele><time>2026-05-03T09:52:47.311Z</time></trkpt><trkpt lat="44.315591" lon="7.7057953"><ele>756.0</ele><time>2026-05-03T09:52:48.306Z</time></trkpt><trkpt lat="44.3155874" lon="7.7059537"><ele>756.0</ele><time>2026-05-03T09:52:49.312Z</time></trkpt><trkpt lat="44.3155971" lon="7.7060805"><ele>754.6666666666666</ele><time>2026-05-03T09:52:50.314Z</time></trkpt><trkpt lat="44.3156103" lon="7.7062117"><ele>753.3333333333334</ele><time>2026-05-03T09:52:51.331Z</time></trkpt><trkpt lat="44.3156326" lon="7.7063302"><ele>752.0</ele><time>2026-05-03T09:52:52.302Z</time></trkpt><trkpt lat="44.3156577" lon="7.7064429"><ele>750.6666666666667</ele><time>2026-05-03T09:52:53.303Z</time></trkpt><trkpt lat="44.3156947" lon="7.7065505"><ele>749.3333333333334</ele><time>2026-05-03T09:52:54.309Z</time></trkpt><trkpt lat="44.3157427" lon="7.7066468"><ele>748.0</ele><time>2026-05-03T09:52:55.303Z</time></trkpt><trkpt lat="44.3157984" lon="7.7067344"><ele>748.0</ele><time>2026-05-03T09:52:56.309Z</time></trkpt><trkpt lat="44.3158587" lon="7.7068161"><ele>748.0</ele><time>2026-05-03T09:52:57.309Z</time></trkpt><trkpt lat="44.3159305" lon="7.7068947"><ele>748.0</ele><time>2026-05-03T09:52:58.311Z</time></trkpt><trkpt lat="44.3160038" lon="7.7069741"><ele>748.0</ele><time>2026-05-03T09:52:59.302Z</time></trkpt><trkpt lat="44.3160908" lon="7.7070566"><ele>748.0</ele><time>2026-05-03T09:53:00.309Z</time></trkpt><trkpt lat="44.316166" lon="7.7071334"><ele>745.8333333333334</ele><time>2026-05-03T09:53:01.304Z</time></trkpt><trkpt lat="44.3162234" lon="7.7072078"><ele>743.6666666666667</ele><time>2026-05-03T09:53:02.303Z</time></trkpt><trkpt lat="44.3162792" lon="7.7072816"><ele>741.5</ele><time>2026-05-03T09:53:03.307Z</time></trkpt><trkpt lat="44.3163155" lon="7.707379"><ele>739.3333333333334</ele><time>2026-05-03T09:53:04.307Z</time></trkpt><trkpt lat="44.3163436" lon="7.7074868"><ele>737.1666666666666</ele><time>2026-05-03T09:53:05.306Z</time></trkpt><trkpt lat="44.31636" lon="7.7075996"><ele>735.0</ele><time>2026-05-03T09:53:06.306Z</time></trkpt><trkpt lat="44.3163689" lon="7.707713"><ele>734.8333333333334</ele><time>2026-05-03T09:53:07.304Z</time></trkpt><trkpt lat="44.3163737" lon="7.707818"><ele>734.6666666666666</ele><time>2026-05-03T09:53:08.303Z</time></trkpt><trkpt lat="44.3163822" lon="7.7079103"><ele>734.5</ele><time>2026-05-03T09:53:09.323Z</time></trkpt><trkpt lat="44.316402" lon="7.7079945"><ele>734.3333333333333</ele><time>2026-05-03T09:53:10.302Z</time></trkpt><trkpt lat="44.3164588" lon="7.7081505"><ele>734.1666666666666</ele><time>2026-05-03T09:53:12.315Z</time></trkpt><trkpt lat="44.3164772" lon="7.7082479"><ele>734.0</ele><time>2026-05-03T09:53:13.309Z</time></trkpt><trkpt lat="44.3164952" lon="7.7083453"><ele>735.4000000000001</ele><time>2026-05-03T09:53:14.304Z</time></trkpt><trkpt lat="44.3165104" lon="7.7084802"><ele>736.8</ele><time>2026-05-03T09:53:15.31Z</time></trkpt><trkpt lat="44.3165353" lon="7.708636"><ele>738.2</ele><time>2026-05-03T09:53:16.307Z</time></trkpt><trkpt lat="44.3165739" lon="7.7087903"><ele>739.5999999999999</ele><time>2026-05-03T09:53:17.304Z</time></trkpt><trkpt lat="44.3166223" lon="7.7089266"><ele>741.0</ele><time>2026-05-03T09:53:18.308Z</time></trkpt><trkpt lat="44.3166678" lon="7.7090492"><ele>741.0</ele><time>2026-05-03T09:53:19.31Z</time></trkpt><trkpt lat="44.3167285" lon="7.7091174"><ele>741.0</ele><time>2026-05-03T09:53:20.323Z</time></trkpt><trkpt lat="44.3167766" lon="7.7091743"><ele>741.0</ele><time>2026-05-03T09:53:21.317Z</time></trkpt><trkpt lat="44.3168613" lon="7.7092808"><ele>741.0</ele><time>2026-05-03T09:53:23.313Z</time></trkpt><trkpt lat="44.3169153" lon="7.7093341"><ele>741.0</ele><time>2026-05-03T09:53:42.302Z</time></trkpt><trkpt lat="44.3169858" lon="7.7094229"><ele>741.0</ele><time>2026-05-03T09:53:44.363Z</time></trkpt><trkpt lat="44.3170317" lon="7.7095067"><ele>740.1999999999999</ele><time>2026-05-03T09:53:45.297Z</time></trkpt><trkpt lat="44.3170776" lon="7.7096064"><ele>739.4</ele><time>2026-05-03T09:53:46.3Z</time></trkpt><trkpt lat="44.3171262" lon="7.7096991"><ele>738.6</ele><time>2026-05-03T09:53:47.327Z</time></trkpt><trkpt lat="44.3171697" lon="7.709781"><ele>737.8</ele><time>2026-05-03T09:53:48.301Z</time></trkpt><trkpt lat="44.3172476" lon="7.7098736"><ele>737.0</ele><time>2026-05-03T09:53:50.304Z</time></trkpt><trkpt lat="44.3173228" lon="7.7100151"><ele>737.7142857142858</ele><time>2026-05-03T09:53:52.301Z</time></trkpt><trkpt lat="44.3173527" lon="7.7100975"><ele>738.4285714285714</ele><time>2026-05-03T09:53:53.31Z</time></trkpt><trkpt lat="44.3173875" lon="7.7101909"><ele>739.1428571428571</ele><time>2026-05-03T09:53:54.313Z</time></trkpt><trkpt lat="44.3174275" lon="7.710278"><ele>739.8571428571429</ele><time>2026-05-03T09:53:55.31Z</time></trkpt><trkpt lat="44.3174701" lon="7.7103584"><ele>740.5714285714286</ele><time>2026-05-03T09:53:56.306Z</time></trkpt><trkpt lat="44.3175242" lon="7.71043"><ele>741.2857142857143</ele><time>2026-05-03T09:53:57.303Z</time></trkpt><trkpt lat="44.3175868" lon="7.7104828"><ele>742.0</ele><time>2026-05-03T09:53:58.311Z</time></trkpt><trkpt lat="44.3176578" lon="7.7105117"><ele>742.0</ele><time>2026-05-03T09:53:59.307Z</time></trkpt><trkpt lat="44.317732" lon="7.7105399"><ele>742.0</ele><time>2026-05-03T09:54:00.307Z</time></trkpt><trkpt lat="44.3178107" lon="7.7105876"><ele>742.0</ele><time>2026-05-03T09:54:01.309Z</time></trkpt><trkpt lat="44.3178817" lon="7.7106367"><ele>742.0</ele><time>2026-05-03T09:54:02.307Z</time></trkpt><trkpt lat="44.3179395" lon="7.7106862"><ele>742.0</ele><time>2026-05-03T09:54:03.303Z</time></trkpt><trkpt lat="44.3179869" lon="7.7107462"><ele>742.0</ele><time>2026-05-03T09:54:04.308Z</time></trkpt><trkpt lat="44.3180746" lon="7.7108618"><ele>742.4000000000001</ele><time>2026-05-03T09:54:06.307Z</time></trkpt><trkpt lat="44.3181369" lon="7.7109675"><ele>742.8000000000001</ele><time>2026-05-03T09:54:08.306Z</time></trkpt><trkpt lat="44.3181631" lon="7.7110833"><ele>743.2</ele><time>2026-05-03T09:54:10.303Z</time></trkpt><trkpt lat="44.3182235" lon="7.7112207"><ele>743.6</ele><time>2026-05-03T09:54:12.304Z</time></trkpt><trkpt lat="44.3182806" lon="7.7113027"><ele>744.0</ele><time>2026-05-03T09:54:13.302Z</time></trkpt><trkpt lat="44.3183514" lon="7.7114082"><ele>743.1666666666666</ele><time>2026-05-03T09:54:14.309Z</time></trkpt><trkpt lat="44.3184242" lon="7.7115205"><ele>742.3333333333334</ele><time>2026-05-03T09:54:15.312Z</time></trkpt><trkpt lat="44.3184848" lon="7.7116302"><ele>741.5</ele><time>2026-05-03T09:54:16.306Z</time></trkpt><trkpt lat="44.3185396" lon="7.711726"><ele>740.6666666666667</ele><time>2026-05-03T09:54:17.304Z</time></trkpt><trkpt lat="44.3185845" lon="7.7117995"><ele>739.8333333333334</ele><time>2026-05-03T09:54:18.306Z</time></trkpt><trkpt lat="44.3186213" lon="7.7118754"><ele>739.0</ele><time>2026-05-03T09:54:19.31Z</time></trkpt><trkpt lat="44.3186963" lon="7.7120096"><ele>738.0</ele><time>2026-05-03T09:54:21.314Z</time></trkpt><trkpt lat="44.3187624" lon="7.7121445"><ele>737.0</ele><time>2026-05-03T09:54:23.311Z</time></trkpt><trkpt lat="44.3188311" lon="7.7122143"><ele>736.0</ele><time>2026-05-03T09:54:25.304Z</time></trkpt><trkpt lat="44.3189104" lon="7.7121629"><ele>735.0</ele><time>2026-05-03T09:54:27.33Z</time></trkpt><trkpt lat="44.3189712" lon="7.7120427"><ele>734.0</ele><time>2026-05-03T09:54:29.309Z</time></trkpt><trkpt lat="44.3190401" lon="7.7119784"><ele>734.0</ele><time>2026-05-03T09:54:31.306Z</time></trkpt><trkpt lat="44.3191143" lon="7.7120183"><ele>734.0</ele><time>2026-05-03T09:54:33.309Z</time></trkpt><trkpt lat="44.3191567" lon="7.7121373"><ele>734.0</ele><time>2026-05-03T09:54:35.329Z</time></trkpt><trkpt lat="44.3191824" lon="7.7122853"><ele>734.0</ele><time>2026-05-03T09:54:37.302Z</time></trkpt><trkpt lat="44.3192012" lon="7.7123771"><ele>734.0</ele><time>2026-05-03T09:54:39.308Z</time></trkpt><trkpt lat="44.3192656" lon="7.7124309"><ele>734.0</ele><time>2026-05-03T09:54:42.307Z</time></trkpt><trkpt lat="44.3193295" lon="7.7124522"><ele>734.0</ele><time>2026-05-03T09:55:04.374Z</time></trkpt><trkpt lat="44.3194145" lon="7.712411"><ele>734.0</ele><time>2026-05-03T09:55:06.346Z</time></trkpt><trkpt lat="44.3195107" lon="7.7123242"><ele>734.0</ele><time>2026-05-03T09:55:08.309Z</time></trkpt><trkpt lat="44.3195786" lon="7.7122732"><ele>734.0</ele><time>2026-05-03T09:55:09.3Z</time></trkpt><trkpt lat="44.3196425" lon="7.7122199"><ele>734.0</ele><time>2026-05-03T09:55:10.308Z</time></trkpt><trkpt lat="44.3197016" lon="7.7121702"><ele>734.0</ele><time>2026-05-03T09:55:11.305Z</time></trkpt><trkpt lat="44.3198205" lon="7.7121055"><ele>733.8333333333333</ele><time>2026-05-03T09:55:13.302Z</time></trkpt><trkpt lat="44.319887" lon="7.7120429"><ele>733.6666666666666</ele><time>2026-05-03T09:55:14.308Z</time></trkpt><trkpt lat="44.3199545" lon="7.7119717"><ele>733.5</ele><time>2026-05-03T09:55:15.303Z</time></trkpt><trkpt lat="44.3200122" lon="7.7119119"><ele>733.3333333333334</ele><time>2026-05-03T09:55:16.308Z</time></trkpt><trkpt lat="44.3201147" lon="7.7118225"><ele>733.1666666666667</ele><time>2026-05-03T09:55:18.307Z</time></trkpt><trkpt lat="44.320179" lon="7.7117929"><ele>733.0</ele><time>2026-05-03T09:55:19.307Z</time></trkpt><trkpt lat="44.3202443" lon="7.7117565"><ele>733.0</ele><time>2026-05-03T09:55:20.304Z</time></trkpt><trkpt lat="44.3203093" lon="7.7117207"><ele>733.0</ele><time>2026-05-03T09:55:21.304Z</time></trkpt><trkpt lat="44.3203694" lon="7.7116939"><ele>733.0</ele><time>2026-05-03T09:55:22.308Z</time></trkpt><trkpt lat="44.3204425" lon="7.7116774"><ele>733.0</ele><time>2026-05-03T09:55:24.3Z</time></trkpt><trkpt lat="44.3205243" lon="7.711688"><ele>733.0</ele><time>2026-05-03T09:55:26.303Z</time></trkpt><trkpt lat="44.3206197" lon="7.7117072"><ele>733.0</ele><time>2026-05-03T09:55:28.299Z</time></trkpt><trkpt lat="44.3206811" lon="7.711681"><ele>736.3333333333334</ele><time>2026-05-03T09:55:31.309Z</time></trkpt><trkpt lat="44.3206749" lon="7.7115895"><ele>739.6666666666667</ele><time>2026-05-03T09:55:35.307Z</time></trkpt><trkpt lat="44.3206461" lon="7.7114467"><ele>743.0</ele><time>2026-05-03T09:55:38.299Z</time></trkpt><trkpt lat="44.320595" lon="7.7113297"><ele>746.3333333333334</ele><time>2026-05-03T09:55:40.304Z</time></trkpt><trkpt lat="44.3205926" lon="7.7111987"><ele>749.6666666666666</ele><time>2026-05-03T09:55:42.31Z</time></trkpt><trkpt lat="44.3205922" lon="7.7111009"><ele>753.0</ele><time>2026-05-03T09:55:43.312Z</time></trkpt><trkpt lat="44.3205913" lon="7.7109928"><ele>753.0</ele><time>2026-05-03T09:55:44.315Z</time></trkpt><trkpt lat="44.3205698" lon="7.7108988"><ele>753.0</ele><time>2026-05-03T09:55:45.301Z</time></trkpt><trkpt lat="44.3205507" lon="7.7107487"><ele>753.0</ele><time>2026-05-03T09:55:47.301Z</time></trkpt><trkpt lat="44.3205798" lon="7.710603"><ele>753.0</ele><time>2026-05-03T09:55:49.31Z</time></trkpt><trkpt lat="44.3206572" lon="7.7104952"><ele>753.0</ele><time>2026-05-03T09:55:51.297Z</time></trkpt><trkpt lat="44.3207182" lon="7.7104399"><ele>753.0</ele><time>2026-05-03T09:55:52.301Z</time></trkpt><trkpt lat="44.3207841" lon="7.7104107"><ele>753.0</ele><time>2026-05-03T09:55:53.307Z</time></trkpt><trkpt lat="44.3208475" lon="7.7103821"><ele>753.0</ele><time>2026-05-03T09:55:54.317Z</time></trkpt><trkpt lat="44.3209225" lon="7.7102709"><ele>753.0</ele><time>2026-05-03T09:55:56.305Z</time></trkpt><trkpt lat="44.3209742" lon="7.7101877"><ele>753.0</ele><time>2026-05-03T09:55:58.301Z</time></trkpt><trkpt lat="44.3210931" lon="7.7100599"><ele>752.1666666666666</ele><time>2026-05-03T09:56:00.312Z</time></trkpt><trkpt lat="44.3211646" lon="7.7099853"><ele>751.3333333333334</ele><time>2026-05-03T09:56:01.308Z</time></trkpt><trkpt lat="44.3212356" lon="7.709931"><ele>750.5</ele><time>2026-05-03T09:56:02.3Z</time></trkpt><trkpt lat="44.3213071" lon="7.7098642"><ele>749.6666666666667</ele><time>2026-05-03T09:56:03.307Z</time></trkpt><trkpt lat="44.3213685" lon="7.7097792"><ele>748.8333333333334</ele><time>2026-05-03T09:56:04.297Z</time></trkpt><trkpt lat="44.3214155" lon="7.7096897"><ele>748.0</ele><time>2026-05-03T09:56:05.294Z</time></trkpt><trkpt lat="44.3214494" lon="7.7096009"><ele>748.8</ele><time>2026-05-03T09:56:06.306Z</time></trkpt><trkpt lat="44.3215217" lon="7.7094859"><ele>749.5999999999999</ele><time>2026-05-03T09:56:08.31Z</time></trkpt><trkpt lat="44.3216262" lon="7.7094406"><ele>750.4000000000001</ele><time>2026-05-03T09:56:10.304Z</time></trkpt><trkpt lat="44.3216973" lon="7.7094112"><ele>751.2</ele><time>2026-05-03T09:56:11.303Z</time></trkpt><trkpt lat="44.3217786" lon="7.7093835"><ele>752.0</ele><time>2026-05-03T09:56:12.3Z</time></trkpt><trkpt lat="44.3218753" lon="7.7093641"><ele>752.0</ele><time>2026-05-03T09:56:13.317Z</time></trkpt><trkpt lat="44.3219636" lon="7.7093577"><ele>752.0</ele><time>2026-05-03T09:56:14.312Z</time></trkpt><trkpt lat="44.3220331" lon="7.7093522"><ele>752.0</ele><time>2026-05-03T09:56:15.302Z</time></trkpt><trkpt lat="44.3221001" lon="7.7093471"><ele>752.0</ele><time>2026-05-03T09:56:16.311Z</time></trkpt><trkpt lat="44.3222199" lon="7.7093752"><ele>752.0</ele><time>2026-05-03T09:56:18.296Z</time></trkpt><trkpt lat="44.3222908" lon="7.7093866"><ele>752.0</ele><time>2026-05-03T09:56:19.307Z</time></trkpt><trkpt lat="44.3223654" lon="7.7093905"><ele>753.4000000000001</ele><time>2026-05-03T09:56:20.31Z</time></trkpt><trkpt lat="44.3224424" lon="7.7094029"><ele>754.8000000000001</ele><time>2026-05-03T09:56:21.303Z</time></trkpt><trkpt lat="44.3225107" lon="7.709411"><ele>756.2</ele><time>2026-05-03T09:56:22.299Z</time></trkpt><trkpt lat="44.3225802" lon="7.7094194"><ele>757.6</ele><time>2026-05-03T09:56:23.308Z</time></trkpt><trkpt lat="44.3226525" lon="7.7094315"><ele>759.0</ele><time>2026-05-03T09:56:24.311Z</time></trkpt><trkpt lat="44.3228651" lon="7.709354"><ele>759.0</ele><time>2026-05-03T09:56:27.311Z</time></trkpt><trkpt lat="44.3229266" lon="7.7093123"><ele>759.0</ele><time>2026-05-03T09:56:28.312Z</time></trkpt><trkpt lat="44.3230372" lon="7.7093278"><ele>759.0</ele><time>2026-05-03T09:56:30.301Z</time></trkpt><trkpt lat="44.3231145" lon="7.7093967"><ele>759.0</ele><time>2026-05-03T09:56:32.301Z</time></trkpt><trkpt lat="44.3231352" lon="7.7094831"><ele>759.0</ele><time>2026-05-03T09:56:33.303Z</time></trkpt><trkpt lat="44.323193" lon="7.7095857"><ele>759.0</ele><time>2026-05-03T09:56:35.311Z</time></trkpt><trkpt lat="44.3232812" lon="7.7096559"><ele>763.1666666666666</ele><time>2026-05-03T09:56:37.336Z</time></trkpt><trkpt lat="44.3233481" lon="7.7096945"><ele>767.3333333333333</ele><time>2026-05-03T09:56:38.322Z</time></trkpt><trkpt lat="44.3234135" lon="7.7097224"><ele>771.5</ele><time>2026-05-03T09:56:39.303Z</time></trkpt><trkpt lat="44.3234925" lon="7.7097655"><ele>775.6666666666666</ele><time>2026-05-03T09:56:41.305Z</time></trkpt><trkpt lat="44.323585" lon="7.7098436"><ele>779.8333333333333</ele><time>2026-05-03T09:56:43.304Z</time></trkpt><trkpt lat="44.323648" lon="7.7098986"><ele>784.0</ele><time>2026-05-03T09:56:44.307Z</time></trkpt><trkpt lat="44.3237078" lon="7.7099326"><ele>783.9999999999999</ele><time>2026-05-03T09:56:45.309Z</time></trkpt><trkpt lat="44.3238309" lon="7.7099305"><ele>784.0</ele><time>2026-05-03T09:56:47.335Z</time></trkpt><trkpt lat="44.323895" lon="7.7099284"><ele>784.0</ele><time>2026-05-03T09:56:48.304Z</time></trkpt><trkpt lat="44.3239729" lon="7.7099343"><ele>784.0</ele><time>2026-05-03T09:56:49.299Z</time></trkpt><trkpt lat="44.3240536" lon="7.7099279"><ele>783.9999999999999</ele><time>2026-05-03T09:56:50.302Z</time></trkpt><trkpt lat="44.3241362" lon="7.7099292"><ele>784.0</ele><time>2026-05-03T09:56:51.313Z</time></trkpt><trkpt lat="44.3242205" lon="7.7099411"><ele>782.1666666666666</ele><time>2026-05-03T09:56:52.305Z</time></trkpt><trkpt lat="44.3243016" lon="7.7099612"><ele>780.3333333333333</ele><time>2026-05-03T09:56:53.302Z</time></trkpt><trkpt lat="44.3243801" lon="7.7099784"><ele>778.5</ele><time>2026-05-03T09:56:54.306Z</time></trkpt><trkpt lat="44.3244496" lon="7.7099864"><ele>776.6666666666667</ele><time>2026-05-03T09:56:55.299Z</time></trkpt><trkpt lat="44.3245164" lon="7.7099941"><ele>774.8333333333334</ele><time>2026-05-03T09:56:56.308Z</time></trkpt><trkpt lat="44.3246466" lon="7.7099895"><ele>773.0</ele><time>2026-05-03T09:56:58.309Z</time></trkpt><trkpt lat="44.32474" lon="7.7100118"><ele>770.8</ele><time>2026-05-03T09:57:00.324Z</time></trkpt><trkpt lat="44.3248356" lon="7.7100983"><ele>768.5999999999999</ele><time>2026-05-03T09:57:02.296Z</time></trkpt><trkpt lat="44.3248542" lon="7.7101837"><ele>766.4000000000001</ele><time>2026-05-03T09:57:03.296Z</time></trkpt><trkpt lat="44.32488" lon="7.7103322"><ele>764.2</ele><time>2026-05-03T09:57:05.309Z</time></trkpt><trkpt lat="44.3249364" lon="7.7104699"><ele>762.0</ele><time>2026-05-03T09:57:07.299Z</time></trkpt><trkpt lat="44.3249614" lon="7.7105575"><ele>762.0</ele><time>2026-05-03T09:57:08.306Z</time></trkpt><trkpt lat="44.3249896" lon="7.7106878"><ele>762.0</ele><time>2026-05-03T09:57:10.299Z</time></trkpt><trkpt lat="44.3249941" lon="7.7108131"><ele>762.0</ele><time>2026-05-03T09:57:12.314Z</time></trkpt><trkpt lat="44.3249863" lon="7.7109189"><ele>762.0</ele><time>2026-05-03T09:57:14.305Z</time></trkpt><trkpt lat="44.3249671" lon="7.7110283"><ele>762.0</ele><time>2026-05-03T09:57:16.315Z</time></trkpt><trkpt lat="44.3249308" lon="7.7111367"><ele>762.0</ele><time>2026-05-03T09:57:18.304Z</time></trkpt><trkpt lat="44.3248995" lon="7.7113736"><ele>763.4000000000001</ele><time>2026-05-03T09:57:22.3Z</time></trkpt><trkpt lat="44.3249865" lon="7.711369"><ele>764.8000000000001</ele><time>2026-05-03T09:57:25.319Z</time></trkpt><trkpt lat="44.3251025" lon="7.7113589"><ele>766.2</ele><time>2026-05-03T09:57:27.314Z</time></trkpt><trkpt lat="44.3252124" lon="7.7113834"><ele>767.6</ele><time>2026-05-03T09:57:29.307Z</time></trkpt><trkpt lat="44.3253311" lon="7.71144"><ele>769.0</ele><time>2026-05-03T09:57:31.312Z</time></trkpt><trkpt lat="44.325385" lon="7.7114963"><ele>768.9999999999999</ele><time>2026-05-03T09:57:32.317Z</time></trkpt><trkpt lat="44.3254202" lon="7.7115696"><ele>769.0</ele><time>2026-05-03T09:57:33.308Z</time></trkpt><trkpt lat="44.3254538" lon="7.7116899"><ele>769.0</ele><time>2026-05-03T09:57:35.347Z</time></trkpt><trkpt lat="44.3254716" lon="7.7118146"><ele>769.0</ele><time>2026-05-03T09:57:37.307Z</time></trkpt><trkpt lat="44.3254697" lon="7.7119217"><ele>768.9999999999999</ele><time>2026-05-03T09:57:39.311Z</time></trkpt><trkpt lat="44.3254704" lon="7.7120319"><ele>769.0</ele><time>2026-05-03T09:57:41.315Z</time></trkpt><trkpt lat="44.3255385" lon="7.712104"><ele>765.2</ele><time>2026-05-03T09:57:44.309Z</time></trkpt><trkpt lat="44.3256243" lon="7.7121884"><ele>761.4000000000001</ele><time>2026-05-03T09:57:46.311Z</time></trkpt><trkpt lat="44.3256839" lon="7.7122349"><ele>757.6</ele><time>2026-05-03T09:57:47.307Z</time></trkpt><trkpt lat="44.3257629" lon="7.7123261"><ele>753.8</ele><time>2026-05-03T09:57:49.321Z</time></trkpt><trkpt lat="44.3258334" lon="7.7124435"><ele>750.0</ele><time>2026-05-03T09:57:51.328Z</time></trkpt><trkpt lat="44.3258742" lon="7.7125404"><ele>750.0</ele><time>2026-05-03T09:57:53.304Z</time></trkpt><trkpt lat="44.3259448" lon="7.7126218"><ele>750.0</ele><time>2026-05-03T09:57:55.31Z</time></trkpt><trkpt lat="44.3260389" lon="7.7127352"><ele>750.0</ele><time>2026-05-03T09:57:57.322Z</time></trkpt><trkpt lat="44.3261098" lon="7.7128375"><ele>750.0</ele><time>2026-05-03T09:57:59.301Z</time></trkpt><trkpt lat="44.3261814" lon="7.7129732"><ele>750.0</ele><time>2026-05-03T09:58:01.312Z</time></trkpt><trkpt lat="44.32622" lon="7.7130534"><ele>751.5</ele><time>2026-05-03T09:58:02.298Z</time></trkpt><trkpt lat="44.3262565" lon="7.7131742"><ele>753.0</ele><time>2026-05-03T09:58:04.299Z</time></trkpt><trkpt lat="44.326251" lon="7.7132626"><ele>754.5</ele><time>2026-05-03T09:58:06.309Z</time></trkpt><trkpt lat="44.3262299" lon="7.7133897"><ele>756.0</ele><time>2026-05-03T09:58:07.306Z</time></trkpt><trkpt lat="44.3262334" lon="7.7134886"><ele>757.5</ele><time>2026-05-03T09:58:09.298Z</time></trkpt><trkpt lat="44.3262749" lon="7.7135568"><ele>759.0</ele><time>2026-05-03T09:58:11.32Z</time></trkpt><trkpt lat="44.3263625" lon="7.7135915"><ele>757.4000000000001</ele><time>2026-05-03T09:58:13.304Z</time></trkpt><trkpt lat="44.3264433" lon="7.7135435"><ele>755.8</ele><time>2026-05-03T09:58:16.318Z</time></trkpt><trkpt lat="44.3265211" lon="7.7134513"><ele>754.2</ele><time>2026-05-03T09:58:18.307Z</time></trkpt><trkpt lat="44.3265787" lon="7.7133084"><ele>752.5999999999999</ele><time>2026-05-03T09:58:20.307Z</time></trkpt><trkpt lat="44.3266053" lon="7.7131714"><ele>751.0</ele><time>2026-05-03T09:58:22.315Z</time></trkpt><trkpt lat="44.3266533" lon="7.7130053"><ele>751.0</ele><time>2026-05-03T09:58:24.299Z</time></trkpt><trkpt lat="44.3267254" lon="7.7128835"><ele>751.0</ele><time>2026-05-03T09:58:26.342Z</time></trkpt><trkpt lat="44.326786" lon="7.7128146"><ele>751.0</ele><time>2026-05-03T09:58:28.307Z</time></trkpt><trkpt lat="44.3268574" lon="7.7127693"><ele>751.0</ele><time>2026-05-03T09:58:30.317Z</time></trkpt><trkpt lat="44.3269676" lon="7.7127442"><ele>751.0</ele><time>2026-05-03T09:58:32.296Z</time></trkpt><trkpt lat="44.3270408" lon="7.7127328"><ele>749.3333333333334</ele><time>2026-05-03T09:58:33.306Z</time></trkpt><trkpt lat="44.3271279" lon="7.7127222"><ele>747.6666666666667</ele><time>2026-05-03T09:58:34.305Z</time></trkpt><trkpt lat="44.3272086" lon="7.712709"><ele>746.0</ele><time>2026-05-03T09:58:35.314Z</time></trkpt><trkpt lat="44.3272815" lon="7.7127027"><ele>744.3333333333334</ele><time>2026-05-03T09:58:36.337Z</time></trkpt><trkpt lat="44.3273662" lon="7.7126944"><ele>742.6666666666666</ele><time>2026-05-03T09:58:37.31Z</time></trkpt><trkpt lat="44.3274358" lon="7.712683"><ele>741.0</ele><time>2026-05-03T09:58:38.302Z</time></trkpt><trkpt lat="44.3275009" lon="7.7126907"><ele>741.0</ele><time>2026-05-03T09:58:39.308Z</time></trkpt><trkpt lat="44.3275761" lon="7.7127013"><ele>741.0</ele><time>2026-05-03T09:58:40.301Z</time></trkpt><trkpt lat="44.3277847" lon="7.7126293"><ele>741.0</ele><time>2026-05-03T09:58:44.307Z</time></trkpt><trkpt lat="44.3278573" lon="7.7126223"><ele>741.0</ele><time>2026-05-03T09:58:45.301Z</time></trkpt><trkpt lat="44.3279242" lon="7.7126211"><ele>741.0</ele><time>2026-05-03T09:58:46.301Z</time></trkpt><trkpt lat="44.3279944" lon="7.7126126"><ele>743.4</ele><time>2026-05-03T09:58:47.296Z</time></trkpt><trkpt lat="44.3281017" lon="7.7125723"><ele>745.8</ele><time>2026-05-03T09:58:49.306Z</time></trkpt><trkpt lat="44.3282049" lon="7.7125165"><ele>748.1999999999999</ele><time>2026-05-03T09:58:51.309Z</time></trkpt><trkpt lat="44.3282869" lon="7.7124791"><ele>750.5999999999999</ele><time>2026-05-03T09:58:53.315Z</time></trkpt><trkpt lat="44.3283643" lon="7.7124474"><ele>753.0</ele><time>2026-05-03T09:58:55.303Z</time></trkpt><trkpt lat="44.3284529" lon="7.7124288"><ele>753.0</ele><time>2026-05-03T09:58:57.309Z</time></trkpt><trkpt lat="44.3285799" lon="7.7124581"><ele>753.0</ele><time>2026-05-03T09:58:59.306Z</time></trkpt><trkpt lat="44.3286457" lon="7.7124776"><ele>753.0</ele><time>2026-05-03T09:59:00.312Z</time></trkpt><trkpt lat="44.3287262" lon="7.7124804"><ele>753.0</ele><time>2026-05-03T09:59:02.301Z</time></trkpt><trkpt lat="44.3288163" lon="7.7124884"><ele>753.0</ele><time>2026-05-03T09:59:31.307Z</time></trkpt><trkpt lat="44.3289041" lon="7.7125194"><ele>753.6666666666666</ele><time>2026-05-03T09:59:33.299Z</time></trkpt><trkpt lat="44.3289672" lon="7.7125506"><ele>754.3333333333334</ele><time>2026-05-03T09:59:35.31Z</time></trkpt><trkpt lat="44.3290079" lon="7.7126181"><ele>755.0</ele><time>2026-05-03T09:59:37.31Z</time></trkpt><trkpt lat="44.3290398" lon="7.712715"><ele>755.6666666666667</ele><time>2026-05-03T09:59:39.315Z</time></trkpt><trkpt lat="44.3291049" lon="7.7128524"><ele>756.3333333333334</ele><time>2026-05-03T09:59:41.304Z</time></trkpt><trkpt lat="44.3291514" lon="7.7129859"><ele>757.0</ele><time>2026-05-03T09:59:43.304Z</time></trkpt><trkpt lat="44.3291876" lon="7.7130825"><ele>757.2</ele><time>2026-05-03T09:59:46.307Z</time></trkpt><trkpt lat="44.3292327" lon="7.7131777"><ele>757.4000000000001</ele><time>2026-05-03T09:59:48.308Z</time></trkpt><trkpt lat="44.3292886" lon="7.7132879"><ele>757.5999999999999</ele><time>2026-05-03T09:59:50.308Z</time></trkpt><trkpt lat="44.3293202" lon="7.713422"><ele>757.8</ele><time>2026-05-03T09:59:52.306Z</time></trkpt><trkpt lat="44.3293748" lon="7.7135549"><ele>758.0</ele><time>2026-05-03T09:59:54.309Z</time></trkpt><trkpt lat="44.3294236" lon="7.7136815"><ele>757.5</ele><time>2026-05-03T09:59:56.304Z</time></trkpt><trkpt lat="44.329467" lon="7.7138502"><ele>757.0</ele><time>2026-05-03T09:59:58.303Z</time></trkpt><trkpt lat="44.3294891" lon="7.7139566"><ele>756.5</ele><time>2026-05-03T10:00:00.319Z</time></trkpt><trkpt lat="44.3294618" lon="7.7140524"><ele>756.0</ele><time>2026-05-03T10:00:02.304Z</time></trkpt><trkpt lat="44.3294422" lon="7.7141417"><ele>755.5</ele><time>2026-05-03T10:00:03.307Z</time></trkpt><trkpt lat="44.329396" lon="7.7142572"><ele>755.0</ele><time>2026-05-03T10:00:05.3Z</time></trkpt><trkpt lat="44.3293749" lon="7.7143568"><ele>756.6</ele><time>2026-05-03T10:00:06.313Z</time></trkpt><trkpt lat="44.3293725" lon="7.714471"><ele>758.2</ele><time>2026-05-03T10:00:09.308Z</time></trkpt><trkpt lat="44.329347" lon="7.7146365"><ele>759.8</ele><time>2026-05-03T10:00:10.309Z</time></trkpt><trkpt lat="44.3293764" lon="7.7147792"><ele>761.4</ele><time>2026-05-03T10:00:14.303Z</time></trkpt><trkpt lat="44.329439" lon="7.7147991"><ele>763.0</ele><time>2026-05-03T10:00:16.31Z</time></trkpt><trkpt lat="44.3295213" lon="7.7148285"><ele>763.0</ele><time>2026-05-03T10:00:18.302Z</time></trkpt><trkpt lat="44.3296024" lon="7.714858"><ele>763.0</ele><time>2026-05-03T10:00:20.309Z</time></trkpt><trkpt lat="44.3296862" lon="7.7148792"><ele>763.0</ele><time>2026-05-03T10:00:23.302Z</time></trkpt><trkpt lat="44.329823" lon="7.7148878"><ele>763.0</ele><time>2026-05-03T10:00:27.312Z</time></trkpt><trkpt lat="44.3299239" lon="7.7148988"><ele>763.0</ele><time>2026-05-03T10:00:34.303Z</time></trkpt><trkpt lat="44.3300228" lon="7.7148809"><ele>762.6666666666667</ele><time>2026-05-03T10:00:37.327Z</time></trkpt><trkpt lat="44.3301425" lon="7.7149278"><ele>762.3333333333334</ele><time>2026-05-03T10:00:39.301Z</time></trkpt><trkpt lat="44.3301975" lon="7.7149787"><ele>762.0</ele><time>2026-05-03T10:00:40.369Z</time></trkpt><trkpt lat="44.3302642" lon="7.7150381"><ele>761.6666666666666</ele><time>2026-05-03T10:00:41.304Z</time></trkpt><trkpt lat="44.3303187" lon="7.7151071"><ele>761.3333333333333</ele><time>2026-05-03T10:00:42.306Z</time></trkpt><trkpt lat="44.3303511" lon="7.7152009"><ele>761.0</ele><time>2026-05-03T10:00:43.3Z</time></trkpt><trkpt lat="44.3303839" lon="7.7153247"><ele>761.0</ele><time>2026-05-03T10:00:44.3Z</time></trkpt><trkpt lat="44.3304341" lon="7.7154514"><ele>761.0</ele><time>2026-05-03T10:00:45.302Z</time></trkpt><trkpt lat="44.330492" lon="7.7155617"><ele>761.0</ele><time>2026-05-03T10:00:46.301Z</time></trkpt><trkpt lat="44.3305441" lon="7.7156618"><ele>761.0</ele><time>2026-05-03T10:00:47.303Z</time></trkpt><trkpt lat="44.3305997" lon="7.7157746"><ele>761.0</ele><time>2026-05-03T10:00:48.298Z</time></trkpt><trkpt lat="44.3306521" lon="7.7158771"><ele>759.5714285714286</ele><time>2026-05-03T10:00:49.299Z</time></trkpt><trkpt lat="44.3306858" lon="7.7159677"><ele>758.1428571428571</ele><time>2026-05-03T10:00:50.309Z</time></trkpt><trkpt lat="44.3307235" lon="7.7160413"><ele>756.7142857142858</ele><time>2026-05-03T10:00:51.301Z</time></trkpt><trkpt lat="44.3307659" lon="7.7161104"><ele>755.2857142857142</ele><time>2026-05-03T10:00:52.299Z</time></trkpt><trkpt lat="44.3308143" lon="7.7161714"><ele>753.8571428571429</ele><time>2026-05-03T10:00:53.298Z</time></trkpt><trkpt lat="44.3308852" lon="7.7162139"><ele>752.4285714285714</ele><time>2026-05-03T10:00:54.306Z</time></trkpt><trkpt lat="44.3309474" lon="7.7162595"><ele>751.0</ele><time>2026-05-03T10:00:55.302Z</time></trkpt><trkpt lat="44.3310044" lon="7.7163059"><ele>751.0</ele><time>2026-05-03T10:00:56.301Z</time></trkpt><trkpt lat="44.331066" lon="7.7163592"><ele>751.0</ele><time>2026-05-03T10:00:57.304Z</time></trkpt><trkpt lat="44.3311253" lon="7.7164191"><ele>751.0</ele><time>2026-05-03T10:00:58.301Z</time></trkpt><trkpt lat="44.3311871" lon="7.7164845"><ele>751.0</ele><time>2026-05-03T10:00:59.3Z</time></trkpt><trkpt lat="44.3312502" lon="7.7165467"><ele>751.0</ele><time>2026-05-03T10:01:00.312Z</time></trkpt><trkpt lat="44.3313125" lon="7.7166235"><ele>751.0</ele><time>2026-05-03T10:01:01.3Z</time></trkpt><trkpt lat="44.331379" lon="7.7167141"><ele>749.1999999999999</ele><time>2026-05-03T10:01:02.298Z</time></trkpt><trkpt lat="44.3314325" lon="7.7167908"><ele>747.4</ele><time>2026-05-03T10:01:03.308Z</time></trkpt><trkpt lat="44.3314944" lon="7.7168961"><ele>745.6</ele><time>2026-05-03T10:01:05.302Z</time></trkpt><trkpt lat="44.3315575" lon="7.7170075"><ele>743.8</ele><time>2026-05-03T10:01:07.306Z</time></trkpt><trkpt lat="44.3315939" lon="7.7171447"><ele>742.0</ele><time>2026-05-03T10:01:09.314Z</time></trkpt><trkpt lat="44.3316339" lon="7.7172852"><ele>742.0</ele><time>2026-05-03T10:01:11.304Z</time></trkpt><trkpt lat="44.3316657" lon="7.717381"><ele>742.0</ele><time>2026-05-03T10:01:12.321Z</time></trkpt><trkpt lat="44.331693" lon="7.7174656"><ele>742.0</ele><time>2026-05-03T10:01:13.299Z</time></trkpt><trkpt lat="44.3317144" lon="7.717555"><ele>742.0</ele><time>2026-05-03T10:01:14.304Z</time></trkpt><trkpt lat="44.3317428" lon="7.7176709"><ele>742.0</ele><time>2026-05-03T10:01:15.304Z</time></trkpt><trkpt lat="44.3317723" lon="7.7177908"><ele>742.0</ele><time>2026-05-03T10:01:16.304Z</time></trkpt><trkpt lat="44.3317996" lon="7.7179061"><ele>742.6666666666667</ele><time>2026-05-03T10:01:17.304Z</time></trkpt><trkpt lat="44.3318169" lon="7.7180009"><ele>743.3333333333334</ele><time>2026-05-03T10:01:18.303Z</time></trkpt><trkpt lat="44.3318266" lon="7.7180887"><ele>744.0</ele><time>2026-05-03T10:01:19.309Z</time></trkpt><trkpt lat="44.3318179" lon="7.7182381"><ele>744.6666666666666</ele><time>2026-05-03T10:01:21.307Z</time></trkpt><trkpt lat="44.3317968" lon="7.7183316"><ele>745.3333333333333</ele><time>2026-05-03T10:01:22.302Z</time></trkpt><trkpt lat="44.3317678" lon="7.718441"><ele>746.0</ele><time>2026-05-03T10:01:23.295Z</time></trkpt><trkpt lat="44.3317402" lon="7.718555"><ele>745.5</ele><time>2026-05-03T10:01:24.312Z</time></trkpt><trkpt lat="44.3317178" lon="7.7186477"><ele>745.0</ele><time>2026-05-03T10:01:25.3Z</time></trkpt><trkpt lat="44.3317081" lon="7.7187407"><ele>744.5</ele><time>2026-05-03T10:01:26.301Z</time></trkpt><trkpt lat="44.3316939" lon="7.7188509"><ele>744.0</ele><time>2026-05-03T10:01:27.307Z</time></trkpt><trkpt lat="44.3316749" lon="7.7189572"><ele>743.5</ele><time>2026-05-03T10:01:28.302Z</time></trkpt><trkpt lat="44.3316517" lon="7.7190482"><ele>743.0</ele><time>2026-05-03T10:01:29.306Z</time></trkpt><trkpt lat="44.3316245" lon="7.7192085"><ele>743.0</ele><time>2026-05-03T10:01:31.305Z</time></trkpt><trkpt lat="44.3316327" lon="7.7193564"><ele>743.0</ele><time>2026-05-03T10:01:33.31Z</time></trkpt><trkpt lat="44.3316784" lon="7.7194749"><ele>743.0</ele><time>2026-05-03T10:01:35.307Z</time></trkpt><trkpt lat="44.3317732" lon="7.7195764"><ele>743.0</ele><time>2026-05-03T10:01:37.305Z</time></trkpt><trkpt lat="44.3318368" lon="7.7196433"><ele>743.0</ele><time>2026-05-03T10:01:38.305Z</time></trkpt><trkpt lat="44.3318971" lon="7.7197181"><ele>743.2</ele><time>2026-05-03T10:01:39.303Z</time></trkpt><trkpt lat="44.3319723" lon="7.7198191"><ele>743.4</ele><time>2026-05-03T10:01:40.31Z</time></trkpt><trkpt lat="44.3320289" lon="7.7199324"><ele>743.6</ele><time>2026-05-03T10:01:41.304Z</time></trkpt><trkpt lat="44.3320565" lon="7.7200185"><ele>743.8000000000001</ele><time>2026-05-03T10:01:42.304Z</time></trkpt><trkpt lat="44.3320673" lon="7.7201684"><ele>744.0</ele><time>2026-05-03T10:01:44.305Z</time></trkpt><trkpt lat="44.3320563" lon="7.7202767"><ele>742.5</ele><time>2026-05-03T10:01:45.31Z</time></trkpt><trkpt lat="44.3320375" lon="7.7203966"><ele>741.0</ele><time>2026-05-03T10:01:46.302Z</time></trkpt><trkpt lat="44.3320097" lon="7.7205147"><ele>739.5</ele><time>2026-05-03T10:01:47.294Z</time></trkpt><trkpt lat="44.3319757" lon="7.7206007"><ele>738.0</ele><time>2026-05-03T10:01:48.306Z</time></trkpt><trkpt lat="44.3319205" lon="7.7206849"><ele>736.5</ele><time>2026-05-03T10:01:49.311Z</time></trkpt><trkpt lat="44.3318469" lon="7.7207597"><ele>735.0</ele><time>2026-05-03T10:01:50.298Z</time></trkpt><trkpt lat="44.331779" lon="7.7208244"><ele>735.0</ele><time>2026-05-03T10:01:51.315Z</time></trkpt><trkpt lat="44.3317203" lon="7.720898"><ele>735.0</ele><time>2026-05-03T10:01:52.31Z</time></trkpt><trkpt lat="44.3316659" lon="7.7209772"><ele>735.0</ele><time>2026-05-03T10:01:53.304Z</time></trkpt><trkpt lat="44.3316145" lon="7.7210554"><ele>735.0</ele><time>2026-05-03T10:01:54.303Z</time></trkpt><trkpt lat="44.33156" lon="7.7211426"><ele>735.0</ele><time>2026-05-03T10:01:55.301Z</time></trkpt><trkpt lat="44.3315197" lon="7.7212341"><ele>735.0</ele><time>2026-05-03T10:01:56.304Z</time></trkpt><trkpt lat="44.3314891" lon="7.7213271"><ele>732.2</ele><time>2026-05-03T10:01:57.308Z</time></trkpt><trkpt lat="44.3314692" lon="7.7214822"><ele>729.4</ele><time>2026-05-03T10:01:59.306Z</time></trkpt><trkpt lat="44.3315184" lon="7.7216263"><ele>726.5999999999999</ele><time>2026-05-03T10:02:01.303Z</time></trkpt><trkpt lat="44.3315718" lon="7.7217553"><ele>723.8</ele><time>2026-05-03T10:02:02.312Z</time></trkpt><trkpt lat="44.3316367" lon="7.7218813"><ele>721.0</ele><time>2026-05-03T10:02:03.304Z</time></trkpt><trkpt lat="44.3316934" lon="7.721981"><ele>721.0</ele><time>2026-05-03T10:02:04.303Z</time></trkpt><trkpt lat="44.3317463" lon="7.7220927"><ele>721.0</ele><time>2026-05-03T10:02:05.302Z</time></trkpt><trkpt lat="44.3317952" lon="7.7222135"><ele>721.0</ele><time>2026-05-03T10:02:06.308Z</time></trkpt><trkpt lat="44.3318431" lon="7.7223342"><ele>721.0</ele><time>2026-05-03T10:02:07.308Z</time></trkpt><trkpt lat="44.3318944" lon="7.7224598"><ele>721.0</ele><time>2026-05-03T10:02:08.299Z</time></trkpt><trkpt lat="44.3319533" lon="7.7225876"><ele>721.0</ele><time>2026-05-03T10:02:09.302Z</time></trkpt><trkpt lat="44.3320128" lon="7.7227195"><ele>721.0</ele><time>2026-05-03T10:02:10.303Z</time></trkpt><trkpt lat="44.3320419" lon="7.7228483"><ele>721.0</ele><time>2026-05-03T10:02:11.303Z</time></trkpt><trkpt lat="44.3320716" lon="7.7229719"><ele>721.0</ele><time>2026-05-03T10:02:12.303Z</time></trkpt><trkpt lat="44.3321045" lon="7.7230961"><ele>721.0</ele><time>2026-05-03T10:02:13.313Z</time></trkpt><trkpt lat="44.3321227" lon="7.7232288"><ele>720.5999999999999</ele><time>2026-05-03T10:02:14.309Z</time></trkpt><trkpt lat="44.3321377" lon="7.7233451"><ele>720.2</ele><time>2026-05-03T10:02:15.306Z</time></trkpt><trkpt lat="44.3321525" lon="7.7234489"><ele>719.8</ele><time>2026-05-03T10:02:16.306Z</time></trkpt><trkpt lat="44.3321666" lon="7.7236057"><ele>719.4000000000001</ele><time>2026-05-03T10:02:18.305Z</time></trkpt><trkpt lat="44.3321457" lon="7.7237681"><ele>719.0</ele><time>2026-05-03T10:02:20.306Z</time></trkpt><trkpt lat="44.3321339" lon="7.7238604"><ele>717.8333333333333</ele><time>2026-05-03T10:02:21.314Z</time></trkpt><trkpt lat="44.33212" lon="7.7240108"><ele>716.6666666666666</ele><time>2026-05-03T10:02:23.297Z</time></trkpt><trkpt lat="44.3320905" lon="7.7241331"><ele>715.5</ele><time>2026-05-03T10:02:25.299Z</time></trkpt><trkpt lat="44.3320539" lon="7.72421"><ele>714.3333333333334</ele><time>2026-05-03T10:02:26.299Z</time></trkpt><trkpt lat="44.332015" lon="7.7242868"><ele>713.1666666666667</ele><time>2026-05-03T10:02:27.309Z</time></trkpt><trkpt lat="44.3319615" lon="7.7244087"><ele>712.0</ele><time>2026-05-03T10:02:29.308Z</time></trkpt><trkpt lat="44.3319537" lon="7.724501"><ele>711.6</ele><time>2026-05-03T10:02:31.307Z</time></trkpt><trkpt lat="44.3319152" lon="7.7246378"><ele>711.2</ele><time>2026-05-03T10:02:42.306Z</time></trkpt><trkpt lat="44.3318739" lon="7.7247696"><ele>710.8</ele><time>2026-05-03T10:03:25.325Z</time></trkpt><trkpt lat="44.3318665" lon="7.7249022"><ele>710.4</ele><time>2026-05-03T10:03:27.313Z</time></trkpt><trkpt lat="44.3319256" lon="7.7249804"><ele>710.0</ele><time>2026-05-03T10:03:29.302Z</time></trkpt><trkpt lat="44.3320539" lon="7.7249504"><ele>710.0</ele><time>2026-05-03T10:03:31.307Z</time></trkpt><trkpt lat="44.3321377" lon="7.7249226"><ele>710.0</ele><time>2026-05-03T10:03:32.3Z</time></trkpt><trkpt lat="44.3322264" lon="7.7249104"><ele>710.0</ele><time>2026-05-03T10:03:33.312Z</time></trkpt><trkpt lat="44.3323155" lon="7.7249183"><ele>710.0</ele><time>2026-05-03T10:03:34.31Z</time></trkpt><trkpt lat="44.3324036" lon="7.7249279"><ele>710.0</ele><time>2026-05-03T10:03:35.3Z</time></trkpt><trkpt lat="44.3324912" lon="7.7249787"><ele>710.0</ele><time>2026-05-03T10:03:36.304Z</time></trkpt><trkpt lat="44.3325809" lon="7.7250273"><ele>708.0</ele><time>2026-05-03T10:03:37.302Z</time></trkpt><trkpt lat="44.332675" lon="7.7250818"><ele>706.0</ele><time>2026-05-03T10:03:38.305Z</time></trkpt><trkpt lat="44.3327695" lon="7.7251345"><ele>704.0</ele><time>2026-05-03T10:03:39.305Z</time></trkpt><trkpt lat="44.332868" lon="7.7251898"><ele>702.0</ele><time>2026-05-03T10:03:40.307Z</time></trkpt><trkpt lat="44.3329661" lon="7.7252262"><ele>700.0</ele><time>2026-05-03T10:03:41.309Z</time></trkpt><trkpt lat="44.3330568" lon="7.7252676"><ele>700.0</ele><time>2026-05-03T10:03:42.306Z</time></trkpt><trkpt lat="44.3331367" lon="7.7253026"><ele>700.0</ele><time>2026-05-03T10:03:43.302Z</time></trkpt><trkpt lat="44.3332052" lon="7.7253428"><ele>700.0</ele><time>2026-05-03T10:03:44.307Z</time></trkpt><trkpt lat="44.3332898" lon="7.7254033"><ele>700.0</ele><time>2026-05-03T10:03:46.305Z</time></trkpt><trkpt lat="44.3333172" lon="7.7254937"><ele>700.0</ele><time>2026-05-03T10:03:48.318Z</time></trkpt><trkpt lat="44.3333048" lon="7.7255987"><ele>700.0</ele><time>2026-05-03T10:03:50.308Z</time></trkpt><trkpt lat="44.3332855" lon="7.7257156"><ele>700.0</ele><time>2026-05-03T10:04:12.305Z</time></trkpt><trkpt lat="44.3333312" lon="7.7258788"><ele>700.0</ele><time>2026-05-03T10:04:14.316Z</time></trkpt><trkpt lat="44.3333766" lon="7.7259759"><ele>700.0</ele><time>2026-05-03T10:04:15.298Z</time></trkpt><trkpt lat="44.3334397" lon="7.7260684"><ele>700.0</ele><time>2026-05-03T10:04:16.306Z</time></trkpt><trkpt lat="44.3335271" lon="7.7261629"><ele>700.0</ele><time>2026-05-03T10:04:17.299Z</time></trkpt><trkpt lat="44.3336313" lon="7.726262"><ele>700.0</ele><time>2026-05-03T10:04:18.301Z</time></trkpt><trkpt lat="44.3337364" lon="7.7263615"><ele>700.0</ele><time>2026-05-03T10:04:19.303Z</time></trkpt><trkpt lat="44.3338329" lon="7.7264643"><ele>700.0</ele><time>2026-05-03T10:04:20.306Z</time></trkpt><trkpt lat="44.3339247" lon="7.7265671"><ele>700.0</ele><time>2026-05-03T10:04:21.303Z</time></trkpt><trkpt lat="44.3340116" lon="7.7266725"><ele>698.8</ele><time>2026-05-03T10:04:22.305Z</time></trkpt><trkpt lat="44.3340958" lon="7.7267849"><ele>697.6</ele><time>2026-05-03T10:04:23.304Z</time></trkpt><trkpt lat="44.3341706" lon="7.7269016"><ele>696.4000000000001</ele><time>2026-05-03T10:04:24.301Z</time></trkpt><trkpt lat="44.3342444" lon="7.7270184"><ele>695.2</ele><time>2026-05-03T10:04:25.304Z</time></trkpt><trkpt lat="44.3343113" lon="7.7271356"><ele>694.0</ele><time>2026-05-03T10:04:26.3Z</time></trkpt><trkpt lat="44.3343707" lon="7.7272694"><ele>690.8000000000001</ele><time>2026-05-03T10:04:27.31Z</time></trkpt><trkpt lat="44.3344232" lon="7.727401"><ele>687.6</ele><time>2026-05-03T10:04:28.301Z</time></trkpt><trkpt lat="44.3344685" lon="7.7275351"><ele>684.4</ele><time>2026-05-03T10:04:29.311Z</time></trkpt><trkpt lat="44.334508" lon="7.7276696"><ele>681.2</ele><time>2026-05-03T10:04:30.324Z</time></trkpt><trkpt lat="44.3345452" lon="7.7278035"><ele>678.0</ele><time>2026-05-03T10:04:31.302Z</time></trkpt><trkpt lat="44.3345762" lon="7.7279442"><ele>676.5999999999999</ele><time>2026-05-03T10:04:32.298Z</time></trkpt><trkpt lat="44.3346042" lon="7.7280819"><ele>675.1999999999999</ele><time>2026-05-03T10:04:33.302Z</time></trkpt><trkpt lat="44.3346286" lon="7.7282124"><ele>673.8</ele><time>2026-05-03T10:04:34.302Z</time></trkpt><trkpt lat="44.3346523" lon="7.7283308"><ele>672.4</ele><time>2026-05-03T10:04:35.308Z</time></trkpt><trkpt lat="44.3346806" lon="7.7284447"><ele>671.0</ele><time>2026-05-03T10:04:36.298Z</time></trkpt><trkpt lat="44.3347087" lon="7.7285578"><ele>668.0</ele><time>2026-05-03T10:04:37.311Z</time></trkpt><trkpt lat="44.334767" lon="7.7286542"><ele>665.0</ele><time>2026-05-03T10:04:38.301Z</time></trkpt><trkpt lat="44.334846" lon="7.7287326"><ele>662.0</ele><time>2026-05-03T10:04:39.297Z</time></trkpt><trkpt lat="44.3349408" lon="7.7288161"><ele>659.0</ele><time>2026-05-03T10:04:40.302Z</time></trkpt><trkpt lat="44.3350371" lon="7.7289008"><ele>656.0</ele><time>2026-05-03T10:04:41.301Z</time></trkpt><trkpt lat="44.3351306" lon="7.7289869"><ele>656.0</ele><time>2026-05-03T10:04:42.302Z</time></trkpt><trkpt lat="44.3352177" lon="7.7290693"><ele>656.0</ele><time>2026-05-03T10:04:43.303Z</time></trkpt><trkpt lat="44.335304" lon="7.7291489"><ele>656.0</ele><time>2026-05-03T10:04:44.299Z</time></trkpt><trkpt lat="44.3353894" lon="7.7292327"><ele>656.0</ele><time>2026-05-03T10:04:45.327Z</time></trkpt><trkpt lat="44.3354696" lon="7.7293193"><ele>656.0</ele><time>2026-05-03T10:04:46.301Z</time></trkpt><trkpt lat="44.3355444" lon="7.7293944"><ele>654.5</ele><time>2026-05-03T10:04:47.305Z</time></trkpt><trkpt lat="44.3356143" lon="7.7294587"><ele>653.0</ele><time>2026-05-03T10:04:48.309Z</time></trkpt><trkpt lat="44.3356777" lon="7.7295059"><ele>651.5</ele><time>2026-05-03T10:04:49.306Z</time></trkpt><trkpt lat="44.3357705" lon="7.7295396"><ele>650.0</ele><time>2026-05-03T10:04:51.306Z</time></trkpt><trkpt lat="44.3357383" lon="7.729647"><ele>648.5</ele><time>2026-05-03T10:04:55.323Z</time></trkpt><trkpt lat="44.3356748" lon="7.7296604"><ele>647.0</ele><time>2026-05-03T10:04:56.33Z</time></trkpt><trkpt lat="44.3355881" lon="7.7296572"><ele>648.75</ele><time>2026-05-03T10:04:57.325Z</time></trkpt><trkpt lat="44.3354811" lon="7.7296316"><ele>650.5</ele><time>2026-05-03T10:04:58.298Z</time></trkpt><trkpt lat="44.3353592" lon="7.7295939"><ele>652.25</ele><time>2026-05-03T10:04:59.3Z</time></trkpt><trkpt lat="44.3352429" lon="7.7295556"><ele>654.0</ele><time>2026-05-03T10:05:00.3Z</time></trkpt><trkpt lat="44.3351404" lon="7.7295281"><ele>654.0</ele><time>2026-05-03T10:05:01.303Z</time></trkpt><trkpt lat="44.3350485" lon="7.7295193"><ele>654.0</ele><time>2026-05-03T10:05:02.302Z</time></trkpt><trkpt lat="44.3349694" lon="7.7295131"><ele>654.0</ele><time>2026-05-03T10:05:03.305Z</time></trkpt><trkpt lat="44.3348975" lon="7.7295057"><ele>654.0</ele><time>2026-05-03T10:05:04.303Z</time></trkpt><trkpt lat="44.3348257" lon="7.7294865"><ele>654.0</ele><time>2026-05-03T10:05:05.304Z</time></trkpt><trkpt lat="44.3347415" lon="7.7294699"><ele>654.0</ele><time>2026-05-03T10:05:06.296Z</time></trkpt><trkpt lat="44.3346536" lon="7.7294521"><ele>655.6666666666666</ele><time>2026-05-03T10:05:07.305Z</time></trkpt><trkpt lat="44.3345576" lon="7.7294393"><ele>657.3333333333334</ele><time>2026-05-03T10:05:08.303Z</time></trkpt><trkpt lat="44.3344653" lon="7.729429"><ele>659.0</ele><time>2026-05-03T10:05:09.299Z</time></trkpt><trkpt lat="44.3343846" lon="7.7294246"><ele>660.6666666666667</ele><time>2026-05-03T10:05:10.299Z</time></trkpt><trkpt lat="44.3343048" lon="7.7294205"><ele>662.3333333333334</ele><time>2026-05-03T10:05:11.302Z</time></trkpt><trkpt lat="44.3342282" lon="7.7294319"><ele>664.0</ele><time>2026-05-03T10:05:12.301Z</time></trkpt><trkpt lat="44.3341493" lon="7.729453"><ele>664.0</ele><time>2026-05-03T10:05:13.304Z</time></trkpt><trkpt lat="44.3340769" lon="7.7294724"><ele>664.0</ele><time>2026-05-03T10:05:14.306Z</time></trkpt><trkpt lat="44.3340104" lon="7.7294971"><ele>664.0</ele><time>2026-05-03T10:05:15.309Z</time></trkpt><trkpt lat="44.3339275" lon="7.7295132"><ele>664.0</ele><time>2026-05-03T10:05:16.304Z</time></trkpt><trkpt lat="44.3338439" lon="7.7295225"><ele>664.0</ele><time>2026-05-03T10:05:17.3Z</time></trkpt><trkpt lat="44.3337603" lon="7.7295199"><ele>664.0</ele><time>2026-05-03T10:05:18.304Z</time></trkpt><trkpt lat="44.3336777" lon="7.7295494"><ele>665.3333333333334</ele><time>2026-05-03T10:05:19.312Z</time></trkpt><trkpt lat="44.3335944" lon="7.7295961"><ele>666.6666666666667</ele><time>2026-05-03T10:05:20.31Z</time></trkpt><trkpt lat="44.3335171" lon="7.7296385"><ele>668.0</ele><time>2026-05-03T10:05:21.301Z</time></trkpt><trkpt lat="44.3334525" lon="7.7296929"><ele>669.3333333333334</ele><time>2026-05-03T10:05:22.344Z</time></trkpt><trkpt lat="44.3333336" lon="7.7297566"><ele>670.6666666666666</ele><time>2026-05-03T10:05:24.301Z</time></trkpt><trkpt lat="44.3332633" lon="7.7297514"><ele>672.0</ele><time>2026-05-03T10:05:25.317Z</time></trkpt><trkpt lat="44.3331133" lon="7.7297695"><ele>672.0</ele><time>2026-05-03T10:05:27.3Z</time></trkpt><trkpt lat="44.3330071" lon="7.7298166"><ele>672.0</ele><time>2026-05-03T10:05:28.302Z</time></trkpt><trkpt lat="44.3329022" lon="7.7298485"><ele>672.0</ele><time>2026-05-03T10:05:29.299Z</time></trkpt><trkpt lat="44.3328054" lon="7.7298501"><ele>672.0</ele><time>2026-05-03T10:05:30.301Z</time></trkpt><trkpt lat="44.3327222" lon="7.7298492"><ele>672.0</ele><time>2026-05-03T10:05:31.303Z</time></trkpt><trkpt lat="44.3326495" lon="7.7298489"><ele>672.0</ele><time>2026-05-03T10:05:32.301Z</time></trkpt><trkpt lat="44.3325779" lon="7.7298428"><ele>672.0</ele><time>2026-05-03T10:05:33.302Z</time></trkpt><trkpt lat="44.3324963" lon="7.7298097"><ele>672.0</ele><time>2026-05-03T10:05:34.304Z</time></trkpt><trkpt lat="44.3324218" lon="7.7297744"><ele>672.0</ele><time>2026-05-03T10:05:35.306Z</time></trkpt><trkpt lat="44.3323496" lon="7.7297433"><ele>672.0</ele><time>2026-05-03T10:05:36.303Z</time></trkpt><trkpt lat="44.3322739" lon="7.7297226"><ele>672.0</ele><time>2026-05-03T10:05:37.296Z</time></trkpt><trkpt lat="44.3321909" lon="7.7297154"><ele>673.0</ele><time>2026-05-03T10:05:38.303Z</time></trkpt><trkpt lat="44.3321144" lon="7.7297289"><ele>674.0</ele><time>2026-05-03T10:05:39.308Z</time></trkpt><trkpt lat="44.3320464" lon="7.7297388"><ele>675.0</ele><time>2026-05-03T10:05:40.303Z</time></trkpt><trkpt lat="44.3319071" lon="7.7297744"><ele>676.0</ele><time>2026-05-03T10:05:42.302Z</time></trkpt><trkpt lat="44.3318393" lon="7.7298069"><ele>677.0</ele><time>2026-05-03T10:05:43.306Z</time></trkpt><trkpt lat="44.3317751" lon="7.7298455"><ele>678.0</ele><time>2026-05-03T10:05:44.305Z</time></trkpt><trkpt lat="44.3316804" lon="7.7299042"><ele>678.0</ele><time>2026-05-03T10:05:46.31Z</time></trkpt><trkpt lat="44.331576" lon="7.7299751"><ele>678.0</ele><time>2026-05-03T10:05:48.305Z</time></trkpt><trkpt lat="44.3314843" lon="7.7300266"><ele>678.0</ele><time>2026-05-03T10:05:50.303Z</time></trkpt><trkpt lat="44.3313948" lon="7.7300177"><ele>678.0</ele><time>2026-05-03T10:05:52.314Z</time></trkpt><trkpt lat="44.3313192" lon="7.7300192"><ele>678.0</ele><time>2026-05-03T10:05:54.298Z</time></trkpt><trkpt lat="44.3312302" lon="7.7300722"><ele>679.0</ele><time>2026-05-03T10:05:57.302Z</time></trkpt><trkpt lat="44.3311594" lon="7.7301271"><ele>680.0</ele><time>2026-05-03T10:05:59.306Z</time></trkpt><trkpt lat="44.3310912" lon="7.730158"><ele>681.0</ele><time>2026-05-03T10:06:00.299Z</time></trkpt><trkpt lat="44.3310307" lon="7.7301836"><ele>682.0</ele><time>2026-05-03T10:06:01.305Z</time></trkpt><trkpt lat="44.3309397" lon="7.7302354"><ele>683.0</ele><time>2026-05-03T10:06:03.307Z</time></trkpt><trkpt lat="44.330844" lon="7.7302499"><ele>684.0</ele><time>2026-05-03T10:06:05.318Z</time></trkpt><trkpt lat="44.3307724" lon="7.7302274"><ele>684.0</ele><time>2026-05-03T10:06:06.298Z</time></trkpt><trkpt lat="44.3306925" lon="7.7302091"><ele>684.0</ele><time>2026-05-03T10:06:07.301Z</time></trkpt><trkpt lat="44.3306018" lon="7.7301775"><ele>684.0</ele><time>2026-05-03T10:06:08.311Z</time></trkpt><trkpt lat="44.3305092" lon="7.7301413"><ele>684.0</ele><time>2026-05-03T10:06:09.303Z</time></trkpt><trkpt lat="44.3304246" lon="7.7300974"><ele>684.0</ele><time>2026-05-03T10:06:10.302Z</time></trkpt><trkpt lat="44.3303108" lon="7.7300142"><ele>684.4000000000001</ele><time>2026-05-03T10:06:11.302Z</time></trkpt><trkpt lat="44.3301847" lon="7.7299935"><ele>684.8</ele><time>2026-05-03T10:06:13.304Z</time></trkpt><trkpt lat="44.3301198" lon="7.7299888"><ele>685.2</ele><time>2026-05-03T10:06:14.298Z</time></trkpt><trkpt lat="44.330004" lon="7.7300075"><ele>685.5999999999999</ele><time>2026-05-03T10:06:16.309Z</time></trkpt><trkpt lat="44.3299163" lon="7.7300425"><ele>686.0</ele><time>2026-05-03T10:06:18.302Z</time></trkpt><trkpt lat="44.3298146" lon="7.7300783"><ele>687.0</ele><time>2026-05-03T10:06:20.31Z</time></trkpt><trkpt lat="44.3297112" lon="7.7300609"><ele>688.0</ele><time>2026-05-03T10:06:22.299Z</time></trkpt><trkpt lat="44.3295991" lon="7.7300855"><ele>689.0</ele><time>2026-05-03T10:06:24.309Z</time></trkpt><trkpt lat="44.3294805" lon="7.7301396"><ele>690.0</ele><time>2026-05-03T10:06:26.303Z</time></trkpt><trkpt lat="44.3294053" lon="7.7301485"><ele>691.0</ele><time>2026-05-03T10:06:27.343Z</time></trkpt><trkpt lat="44.3293404" lon="7.7301668"><ele>691.0</ele><time>2026-05-03T10:06:28.308Z</time></trkpt><trkpt lat="44.3292477" lon="7.7301942"><ele>691.0</ele><time>2026-05-03T10:06:30.309Z</time></trkpt><trkpt lat="44.3291769" lon="7.7302626"><ele>691.0</ele><time>2026-05-03T10:06:32.352Z</time></trkpt><trkpt lat="44.3291791" lon="7.7303709"><ele>691.0</ele><time>2026-05-03T10:06:34.312Z</time></trkpt><trkpt lat="44.3291774" lon="7.7304803"><ele>691.0</ele><time>2026-05-03T10:06:37.302Z</time></trkpt><trkpt lat="44.3291155" lon="7.7305055"><ele>691.0</ele><time>2026-05-03T10:06:40.31Z</time></trkpt><trkpt lat="44.3290336" lon="7.730464"><ele>692.1666666666667</ele><time>2026-05-03T10:06:42.309Z</time></trkpt><trkpt lat="44.3289324" lon="7.7304779"><ele>693.3333333333334</ele><time>2026-05-03T10:06:44.317Z</time></trkpt><trkpt lat="44.3288609" lon="7.7305058"><ele>694.5</ele><time>2026-05-03T10:06:46.305Z</time></trkpt><trkpt lat="44.3288002" lon="7.7305499"><ele>695.6666666666666</ele><time>2026-05-03T10:06:48.303Z</time></trkpt><trkpt lat="44.3287448" lon="7.7305945"><ele>696.8333333333333</ele><time>2026-05-03T10:06:50.306Z</time></trkpt><trkpt lat="44.3286818" lon="7.7306489"><ele>698.0</ele><time>2026-05-03T10:06:52.31Z</time></trkpt><trkpt lat="44.3286101" lon="7.730707"><ele>700.25</ele><time>2026-05-03T10:06:54.304Z</time></trkpt><trkpt lat="44.3285112" lon="7.7307454"><ele>702.5</ele><time>2026-05-03T10:06:56.307Z</time></trkpt><trkpt lat="44.3284049" lon="7.7307586"><ele>704.75</ele><time>2026-05-03T10:06:58.311Z</time></trkpt><trkpt lat="44.3282994" lon="7.7308255"><ele>707.0</ele><time>2026-05-03T10:07:00.3Z</time></trkpt><trkpt lat="44.3281774" lon="7.7308631"><ele>707.0</ele><time>2026-05-03T10:07:02.305Z</time></trkpt><trkpt lat="44.3281046" lon="7.7308784"><ele>707.0</ele><time>2026-05-03T10:07:03.302Z</time></trkpt><trkpt lat="44.328003" lon="7.7309114"><ele>707.0</ele><time>2026-05-03T10:07:05.308Z</time></trkpt><trkpt lat="44.3279069" lon="7.7308693"><ele>707.0</ele><time>2026-05-03T10:07:14.298Z</time></trkpt><trkpt lat="44.3278346" lon="7.7308751"><ele>707.0</ele><time>2026-05-03T10:07:16.337Z</time></trkpt><trkpt lat="44.3277486" lon="7.7308791"><ele>707.0</ele><time>2026-05-03T10:07:18.303Z</time></trkpt><trkpt lat="44.3276621" lon="7.7308762"><ele>710.4000000000001</ele><time>2026-05-03T10:07:20.312Z</time></trkpt><trkpt lat="44.3275472" lon="7.7308602"><ele>713.8000000000001</ele><time>2026-05-03T10:07:22.304Z</time></trkpt><trkpt lat="44.3274499" lon="7.7308421"><ele>717.2</ele><time>2026-05-03T10:07:24.298Z</time></trkpt><trkpt lat="44.3273601" lon="7.7308336"><ele>720.6</ele><time>2026-05-03T10:07:26.305Z</time></trkpt><trkpt lat="44.3272646" lon="7.7308129"><ele>724.0</ele><time>2026-05-03T10:07:28.313Z</time></trkpt><trkpt lat="44.3271699" lon="7.730748"><ele>727.0</ele><time>2026-05-03T10:07:30.296Z</time></trkpt><trkpt lat="44.3271295" lon="7.7306787"><ele>730.0</ele><time>2026-05-03T10:07:31.309Z</time></trkpt><trkpt lat="44.3270684" lon="7.730605"><ele>733.0</ele><time>2026-05-03T10:07:32.298Z</time></trkpt><trkpt lat="44.3269899" lon="7.7305578"><ele>736.0</ele><time>2026-05-03T10:07:33.338Z</time></trkpt><trkpt lat="44.3269197" lon="7.7305348"><ele>739.0</ele><time>2026-05-03T10:07:34.312Z</time></trkpt><trkpt lat="44.3268544" lon="7.7304803"><ele>742.0</ele><time>2026-05-03T10:07:35.305Z</time></trkpt><trkpt lat="44.3267803" lon="7.7304148"><ele>742.0</ele><time>2026-05-03T10:07:36.297Z</time></trkpt><trkpt lat="44.3266966" lon="7.7303468"><ele>742.0</ele><time>2026-05-03T10:07:37.304Z</time></trkpt><trkpt lat="44.326581" lon="7.7302987"><ele>742.0</ele><time>2026-05-03T10:07:39.316Z</time></trkpt><trkpt lat="44.3265166" lon="7.7303179"><ele>742.0</ele><time>2026-05-03T10:07:40.302Z</time></trkpt><trkpt lat="44.3264539" lon="7.7303643"><ele>742.0</ele><time>2026-05-03T10:07:41.303Z</time></trkpt><trkpt lat="44.3263921" lon="7.7304111"><ele>742.0</ele><time>2026-05-03T10:07:42.304Z</time></trkpt><trkpt lat="44.3263274" lon="7.7304523"><ele>741.75</ele><time>2026-05-03T10:07:43.303Z</time></trkpt><trkpt lat="44.3262141" lon="7.730449"><ele>741.5</ele><time>2026-05-03T10:07:45.321Z</time></trkpt><trkpt lat="44.3261112" lon="7.7303326"><ele>741.25</ele><time>2026-05-03T10:07:47.309Z</time></trkpt><trkpt lat="44.3260577" lon="7.7302566"><ele>741.0</ele><time>2026-05-03T10:07:48.321Z</time></trkpt><trkpt lat="44.3259465" lon="7.7301662"><ele>741.0</ele><time>2026-05-03T10:07:50.299Z</time></trkpt><trkpt lat="44.3258736" lon="7.7301346"><ele>741.0</ele><time>2026-05-03T10:07:51.301Z</time></trkpt><trkpt lat="44.3257991" lon="7.730109"><ele>741.0</ele><time>2026-05-03T10:07:52.31Z</time></trkpt><trkpt lat="44.3257316" lon="7.7301097"><ele>741.0</ele><time>2026-05-03T10:07:53.303Z</time></trkpt><trkpt lat="44.3256597" lon="7.7301244"><ele>741.0</ele><time>2026-05-03T10:07:54.309Z</time></trkpt><trkpt lat="44.3255828" lon="7.7301243"><ele>741.0</ele><time>2026-05-03T10:07:55.306Z</time></trkpt><trkpt lat="44.3255039" lon="7.7301143"><ele>741.0</ele><time>2026-05-03T10:07:56.314Z</time></trkpt><trkpt lat="44.3254138" lon="7.7301016"><ele>742.3333333333334</ele><time>2026-05-03T10:07:57.303Z</time></trkpt><trkpt lat="44.3253312" lon="7.7300869"><ele>743.6666666666666</ele><time>2026-05-03T10:07:58.312Z</time></trkpt><trkpt lat="44.3252518" lon="7.7300863"><ele>745.0</ele><time>2026-05-03T10:07:59.309Z</time></trkpt><trkpt lat="44.3251706" lon="7.7300936"><ele>746.3333333333333</ele><time>2026-05-03T10:08:00.305Z</time></trkpt><trkpt lat="44.32509" lon="7.7301083"><ele>747.6666666666666</ele><time>2026-05-03T10:08:01.308Z</time></trkpt><trkpt lat="44.3250138" lon="7.7301359"><ele>749.0</ele><time>2026-05-03T10:08:02.307Z</time></trkpt><trkpt lat="44.3249349" lon="7.7301606"><ele>749.0</ele><time>2026-05-03T10:08:03.312Z</time></trkpt><trkpt lat="44.3248617" lon="7.7301863"><ele>749.0</ele><time>2026-05-03T10:08:04.296Z</time></trkpt><trkpt lat="44.3247856" lon="7.7302465"><ele>749.0</ele><time>2026-05-03T10:08:05.303Z</time></trkpt><trkpt lat="44.3247223" lon="7.7302867"><ele>749.0</ele><time>2026-05-03T10:08:06.309Z</time></trkpt><trkpt lat="44.3246179" lon="7.7303279"><ele>749.0</ele><time>2026-05-03T10:08:08.314Z</time></trkpt><trkpt lat="44.3245495" lon="7.7304007"><ele>749.0</ele><time>2026-05-03T10:08:10.303Z</time></trkpt><trkpt lat="44.3244892" lon="7.7305332"><ele>750.1666666666666</ele><time>2026-05-03T10:08:12.304Z</time></trkpt><trkpt lat="44.3244333" lon="7.7306311"><ele>751.3333333333333</ele><time>2026-05-03T10:08:14.303Z</time></trkpt><trkpt lat="44.3243796" lon="7.7306965"><ele>752.5</ele><time>2026-05-03T10:08:15.3Z</time></trkpt><trkpt lat="44.3242595" lon="7.7307053"><ele>753.6666666666666</ele><time>2026-05-03T10:08:17.301Z</time></trkpt><trkpt lat="44.3241803" lon="7.7306882"><ele>754.8333333333334</ele><time>2026-05-03T10:08:18.303Z</time></trkpt><trkpt lat="44.3241089" lon="7.730678"><ele>756.0</ele><time>2026-05-03T10:08:19.3Z</time></trkpt><trkpt lat="44.3240355" lon="7.730692"><ele>756.0</ele><time>2026-05-03T10:08:20.309Z</time></trkpt><trkpt lat="44.3239555" lon="7.730724"><ele>756.0</ele><time>2026-05-03T10:08:21.314Z</time></trkpt><trkpt lat="44.3238928" lon="7.7307823"><ele>756.0</ele><time>2026-05-03T10:08:22.294Z</time></trkpt><trkpt lat="44.3238496" lon="7.7308476"><ele>756.0</ele><time>2026-05-03T10:08:23.299Z</time></trkpt><trkpt lat="44.3238006" lon="7.7309095"><ele>756.0</ele><time>2026-05-03T10:08:24.304Z</time></trkpt><trkpt lat="44.3237345" lon="7.7309658"><ele>756.0</ele><time>2026-05-03T10:08:25.302Z</time></trkpt><trkpt lat="44.3236736" lon="7.731014"><ele>756.0</ele><time>2026-05-03T10:08:26.299Z</time></trkpt><trkpt lat="44.3236131" lon="7.7310403"><ele>756.8333333333334</ele><time>2026-05-03T10:08:27.298Z</time></trkpt><trkpt lat="44.3235425" lon="7.7310509"><ele>757.6666666666666</ele><time>2026-05-03T10:08:28.298Z</time></trkpt><trkpt lat="44.3234704" lon="7.7310269"><ele>758.5</ele><time>2026-05-03T10:08:29.298Z</time></trkpt><trkpt lat="44.3233988" lon="7.730975"><ele>759.3333333333333</ele><time>2026-05-03T10:08:30.297Z</time></trkpt><trkpt lat="44.3233356" lon="7.7309327"><ele>760.1666666666666</ele><time>2026-05-03T10:08:31.306Z</time></trkpt><trkpt lat="44.323265" lon="7.7309166"><ele>761.0</ele><time>2026-05-03T10:08:32.323Z</time></trkpt><trkpt lat="44.3231765" lon="7.7309232"><ele>761.0</ele><time>2026-05-03T10:08:33.308Z</time></trkpt><trkpt lat="44.3231079" lon="7.7309341"><ele>761.0</ele><time>2026-05-03T10:08:34.302Z</time></trkpt><trkpt lat="44.3230387" lon="7.7309532"><ele>761.0</ele><time>2026-05-03T10:08:35.312Z</time></trkpt><trkpt lat="44.3229768" lon="7.7309799"><ele>761.0</ele><time>2026-05-03T10:08:36.308Z</time></trkpt><trkpt lat="44.3228515" lon="7.7310195"><ele>761.0</ele><time>2026-05-03T10:08:38.315Z</time></trkpt><trkpt lat="44.3227885" lon="7.7310415"><ele>761.0</ele><time>2026-05-03T10:08:39.305Z</time></trkpt><trkpt lat="44.322705" lon="7.7311006"><ele>762.5</ele><time>2026-05-03T10:08:41.307Z</time></trkpt><trkpt lat="44.3226544" lon="7.7312028"><ele>764.0</ele><time>2026-05-03T10:08:43.314Z</time></trkpt><trkpt lat="44.3225735" lon="7.7313143"><ele>765.5</ele><time>2026-05-03T10:08:45.305Z</time></trkpt><trkpt lat="44.3225372" lon="7.7314217"><ele>767.0</ele><time>2026-05-03T10:08:47.384Z</time></trkpt><trkpt lat="44.3225035" lon="7.7315127"><ele>768.5000000000001</ele><time>2026-05-03T10:09:03.346Z</time></trkpt><trkpt lat="44.3225747" lon="7.7315713"><ele>770.0</ele><time>2026-05-03T10:09:08.298Z</time></trkpt><trkpt lat="44.3226478" lon="7.7317088"><ele>770.0000000000001</ele><time>2026-05-03T10:09:10.296Z</time></trkpt><trkpt lat="44.3226868" lon="7.7317864"><ele>770.0</ele><time>2026-05-03T10:09:11.302Z</time></trkpt><trkpt lat="44.3227243" lon="7.7318637"><ele>770.0</ele><time>2026-05-03T10:09:12.304Z</time></trkpt><trkpt lat="44.3227639" lon="7.7319482"><ele>770.0</ele><time>2026-05-03T10:09:13.306Z</time></trkpt><trkpt lat="44.3228096" lon="7.7320424"><ele>770.0000000000001</ele><time>2026-05-03T10:09:14.3Z</time></trkpt><trkpt lat="44.322861" lon="7.7321417"><ele>770.0</ele><time>2026-05-03T10:09:15.308Z</time></trkpt><trkpt lat="44.3229058" lon="7.7322573"><ele>770.8</ele><time>2026-05-03T10:09:16.306Z</time></trkpt><trkpt lat="44.3229496" lon="7.7323768"><ele>771.6</ele><time>2026-05-03T10:09:17.3Z</time></trkpt><trkpt lat="44.3229885" lon="7.7324935"><ele>772.4000000000001</ele><time>2026-05-03T10:09:18.304Z</time></trkpt><trkpt lat="44.3230277" lon="7.7326199"><ele>773.2</ele><time>2026-05-03T10:09:19.308Z</time></trkpt><trkpt lat="44.3230835" lon="7.7327164"><ele>774.0</ele><time>2026-05-03T10:09:20.305Z</time></trkpt><trkpt lat="44.3231559" lon="7.7328134"><ele>776.6</ele><time>2026-05-03T10:09:21.305Z</time></trkpt><trkpt lat="44.323215" lon="7.7329177"><ele>779.2</ele><time>2026-05-03T10:09:22.31Z</time></trkpt><trkpt lat="44.3232763" lon="7.7330126"><ele>781.8000000000001</ele><time>2026-05-03T10:09:23.306Z</time></trkpt><trkpt lat="44.323341" lon="7.7330985"><ele>784.4000000000001</ele><time>2026-05-03T10:09:24.308Z</time></trkpt><trkpt lat="44.3234154" lon="7.7331787"><ele>787.0</ele><time>2026-05-03T10:09:25.312Z</time></trkpt><trkpt lat="44.3234829" lon="7.7332457"><ele>786.9999999999999</ele><time>2026-05-03T10:09:26.309Z</time></trkpt><trkpt lat="44.3235608" lon="7.7333187"><ele>787.0</ele><time>2026-05-03T10:09:27.311Z</time></trkpt><trkpt lat="44.3236359" lon="7.7333829"><ele>787.0</ele><time>2026-05-03T10:09:28.301Z</time></trkpt><trkpt lat="44.3237122" lon="7.7334474"><ele>787.0</ele><time>2026-05-03T10:09:29.297Z</time></trkpt><trkpt lat="44.3237829" lon="7.7335098"><ele>786.9999999999999</ele><time>2026-05-03T10:09:30.298Z</time></trkpt><trkpt lat="44.3238531" lon="7.7335642"><ele>787.0</ele><time>2026-05-03T10:09:31.297Z</time></trkpt><trkpt lat="44.3239384" lon="7.7336335"><ele>788.3333333333333</ele><time>2026-05-03T10:09:32.293Z</time></trkpt><trkpt lat="44.3240209" lon="7.7337045"><ele>789.6666666666666</ele><time>2026-05-03T10:09:33.298Z</time></trkpt><trkpt lat="44.3240902" lon="7.7337551"><ele>791.0</ele><time>2026-05-03T10:09:34.294Z</time></trkpt><trkpt lat="44.3241657" lon="7.7338028"><ele>792.3333333333333</ele><time>2026-05-03T10:09:35.301Z</time></trkpt><trkpt lat="44.3242418" lon="7.7338476"><ele>793.6666666666666</ele><time>2026-05-03T10:09:36.301Z</time></trkpt><trkpt lat="44.3243201" lon="7.7339059"><ele>795.0</ele><time>2026-05-03T10:09:37.301Z</time></trkpt><trkpt lat="44.3243891" lon="7.7339644"><ele>795.0</ele><time>2026-05-03T10:09:38.302Z</time></trkpt><trkpt lat="44.3244723" lon="7.7340436"><ele>795.0</ele><time>2026-05-03T10:09:39.307Z</time></trkpt><trkpt lat="44.3245382" lon="7.7341244"><ele>795.0</ele><time>2026-05-03T10:09:40.305Z</time></trkpt><trkpt lat="44.3245969" lon="7.734207"><ele>795.0</ele><time>2026-05-03T10:09:41.298Z</time></trkpt><trkpt lat="44.3246585" lon="7.7342863"><ele>795.0</ele><time>2026-05-03T10:09:42.301Z</time></trkpt><trkpt lat="44.324715" lon="7.734362"><ele>795.0</ele><time>2026-05-03T10:09:43.308Z</time></trkpt><trkpt lat="44.324777" lon="7.7344319"><ele>796.5</ele><time>2026-05-03T10:09:44.311Z</time></trkpt><trkpt lat="44.32484" lon="7.7344986"><ele>798.0</ele><time>2026-05-03T10:09:45.302Z</time></trkpt><trkpt lat="44.3248958" lon="7.7345786"><ele>799.5</ele><time>2026-05-03T10:09:46.309Z</time></trkpt><trkpt lat="44.3249383" lon="7.7346698"><ele>801.0</ele><time>2026-05-03T10:09:47.302Z</time></trkpt><trkpt lat="44.3249768" lon="7.7347775"><ele>802.5</ele><time>2026-05-03T10:09:48.306Z</time></trkpt><trkpt lat="44.3250166" lon="7.7348742"><ele>804.0</ele><time>2026-05-03T10:09:49.302Z</time></trkpt><trkpt lat="44.3250609" lon="7.7349692"><ele>804.0</ele><time>2026-05-03T10:09:50.309Z</time></trkpt><trkpt lat="44.3251202" lon="7.7350575"><ele>804.0</ele><time>2026-05-03T10:09:51.305Z</time></trkpt><trkpt lat="44.3251863" lon="7.7350952"><ele>804.0</ele><time>2026-05-03T10:09:52.312Z</time></trkpt><trkpt lat="44.3252631" lon="7.7351158"><ele>804.0</ele><time>2026-05-03T10:09:53.299Z</time></trkpt><trkpt lat="44.3253495" lon="7.7351329"><ele>804.0</ele><time>2026-05-03T10:09:54.314Z</time></trkpt><trkpt lat="44.3254288" lon="7.7351614"><ele>804.0</ele><time>2026-05-03T10:09:55.299Z</time></trkpt><trkpt lat="44.3255017" lon="7.7351885"><ele>804.6</ele><time>2026-05-03T10:09:56.299Z</time></trkpt><trkpt lat="44.3256071" lon="7.7352574"><ele>805.2</ele><time>2026-05-03T10:09:58.306Z</time></trkpt><trkpt lat="44.3257157" lon="7.7353817"><ele>805.8000000000001</ele><time>2026-05-03T10:10:00.304Z</time></trkpt><trkpt lat="44.3257798" lon="7.7354693"><ele>806.4000000000001</ele><time>2026-05-03T10:10:01.3Z</time></trkpt><trkpt lat="44.3258346" lon="7.7355461"><ele>807.0</ele><time>2026-05-03T10:10:02.315Z</time></trkpt><trkpt lat="44.3258867" lon="7.7356132"><ele>807.0</ele><time>2026-05-03T10:10:03.308Z</time></trkpt><trkpt lat="44.3259719" lon="7.7357428"><ele>807.0</ele><time>2026-05-03T10:10:05.321Z</time></trkpt><trkpt lat="44.3260102" lon="7.7358214"><ele>807.0</ele><time>2026-05-03T10:10:06.307Z</time></trkpt><trkpt lat="44.3260545" lon="7.7359197"><ele>807.0</ele><time>2026-05-03T10:10:07.306Z</time></trkpt><trkpt lat="44.3261059" lon="7.7360217"><ele>807.0</ele><time>2026-05-03T10:10:08.308Z</time></trkpt><trkpt lat="44.326159" lon="7.7361099"><ele>807.0</ele><time>2026-05-03T10:10:09.309Z</time></trkpt><trkpt lat="44.3262171" lon="7.7362052"><ele>807.0</ele><time>2026-05-03T10:10:10.312Z</time></trkpt><trkpt lat="44.3262781" lon="7.7363122"><ele>807.0</ele><time>2026-05-03T10:10:11.313Z</time></trkpt><trkpt lat="44.3263444" lon="7.7364187"><ele>807.0</ele><time>2026-05-03T10:10:12.305Z</time></trkpt><trkpt lat="44.3264006" lon="7.73652"><ele>807.0</ele><time>2026-05-03T10:10:13.311Z</time></trkpt><trkpt lat="44.3264503" lon="7.7366175"><ele>807.0</ele><time>2026-05-03T10:10:14.307Z</time></trkpt><trkpt lat="44.3264976" lon="7.7367095"><ele>806.0</ele><time>2026-05-03T10:10:15.315Z</time></trkpt><trkpt lat="44.3265402" lon="7.7368072"><ele>805.0</ele><time>2026-05-03T10:10:16.313Z</time></trkpt><trkpt lat="44.3265834" lon="7.736893"><ele>804.0</ele><time>2026-05-03T10:10:17.309Z</time></trkpt><trkpt lat="44.3266954" lon="7.7369928"><ele>803.0</ele><time>2026-05-03T10:10:19.305Z</time></trkpt><trkpt lat="44.326763" lon="7.7370342"><ele>802.0</ele><time>2026-05-03T10:10:20.308Z</time></trkpt><trkpt lat="44.326822" lon="7.7370661"><ele>801.0</ele><time>2026-05-03T10:10:21.32Z</time></trkpt><trkpt lat="44.3268974" lon="7.737096"><ele>801.0</ele><time>2026-05-03T10:10:22.296Z</time></trkpt><trkpt lat="44.3269733" lon="7.7371155"><ele>801.0</ele><time>2026-05-03T10:10:23.311Z</time></trkpt><trkpt lat="44.3270456" lon="7.7371541"><ele>801.0</ele><time>2026-05-03T10:10:24.308Z</time></trkpt><trkpt lat="44.3271614" lon="7.7372219"><ele>801.0</ele><time>2026-05-03T10:10:26.297Z</time></trkpt><trkpt lat="44.3272103" lon="7.7372895"><ele>801.0</ele><time>2026-05-03T10:10:27.316Z</time></trkpt><trkpt lat="44.3272929" lon="7.737377"><ele>801.1999999999999</ele><time>2026-05-03T10:10:28.297Z</time></trkpt><trkpt lat="44.3273872" lon="7.7374774"><ele>801.4</ele><time>2026-05-03T10:10:29.306Z</time></trkpt><trkpt lat="44.327477" lon="7.7375671"><ele>801.6</ele><time>2026-05-03T10:10:30.298Z</time></trkpt><trkpt lat="44.327576" lon="7.7376389"><ele>801.8</ele><time>2026-05-03T10:10:31.311Z</time></trkpt><trkpt lat="44.3276672" lon="7.7377056"><ele>802.0</ele><time>2026-05-03T10:10:32.306Z</time></trkpt><trkpt lat="44.327766" lon="7.7377674"><ele>802.0</ele><time>2026-05-03T10:10:33.308Z</time></trkpt><trkpt lat="44.3278634" lon="7.7378316"><ele>802.0</ele><time>2026-05-03T10:10:34.308Z</time></trkpt><trkpt lat="44.3279712" lon="7.7378752"><ele>802.0</ele><time>2026-05-03T10:10:35.304Z</time></trkpt><trkpt lat="44.3280848" lon="7.7379078"><ele>802.0</ele><time>2026-05-03T10:10:36.308Z</time></trkpt><trkpt lat="44.3281866" lon="7.7379674"><ele>802.0</ele><time>2026-05-03T10:10:37.308Z</time></trkpt><trkpt lat="44.3282783" lon="7.738014"><ele>803.8333333333333</ele><time>2026-05-03T10:10:38.301Z</time></trkpt><trkpt lat="44.3283597" lon="7.7380512"><ele>805.6666666666666</ele><time>2026-05-03T10:10:39.307Z</time></trkpt><trkpt lat="44.328433" lon="7.7381048"><ele>807.5</ele><time>2026-05-03T10:10:40.299Z</time></trkpt><trkpt lat="44.3284949" lon="7.7381467"><ele>809.3333333333333</ele><time>2026-05-03T10:10:41.305Z</time></trkpt><trkpt lat="44.3285505" lon="7.7381949"><ele>811.1666666666666</ele><time>2026-05-03T10:10:42.298Z</time></trkpt><trkpt lat="44.3286071" lon="7.7382628"><ele>813.0</ele><time>2026-05-03T10:10:43.308Z</time></trkpt><trkpt lat="44.3286431" lon="7.7383624"><ele>813.0</ele><time>2026-05-03T10:10:44.314Z</time></trkpt><trkpt lat="44.3286529" lon="7.7385022"><ele>813.0</ele><time>2026-05-03T10:10:45.301Z</time></trkpt><trkpt lat="44.3286593" lon="7.7386473"><ele>813.0</ele><time>2026-05-03T10:10:46.298Z</time></trkpt><trkpt lat="44.3286751" lon="7.7387957"><ele>813.0</ele><time>2026-05-03T10:10:47.302Z</time></trkpt><trkpt lat="44.3286844" lon="7.7389169"><ele>813.0</ele><time>2026-05-03T10:10:48.303Z</time></trkpt><trkpt lat="44.3286937" lon="7.7390263"><ele>813.1666666666666</ele><time>2026-05-03T10:10:49.3Z</time></trkpt><trkpt lat="44.3287487" lon="7.7391317"><ele>813.3333333333333</ele><time>2026-05-03T10:10:51.305Z</time></trkpt><trkpt lat="44.3288125" lon="7.7391573"><ele>813.5</ele><time>2026-05-03T10:10:53.312Z</time></trkpt><trkpt lat="44.3288979" lon="7.7391887"><ele>813.6666666666666</ele><time>2026-05-03T10:11:07.305Z</time></trkpt><trkpt lat="44.3290095" lon="7.7392001"><ele>813.8333333333333</ele><time>2026-05-03T10:11:09.33Z</time></trkpt><trkpt lat="44.3290965" lon="7.7392155"><ele>814.0</ele><time>2026-05-03T10:11:10.306Z</time></trkpt><trkpt lat="44.3291832" lon="7.7392346"><ele>813.9999999999999</ele><time>2026-05-03T10:11:11.308Z</time></trkpt><trkpt lat="44.3292675" lon="7.7392497"><ele>814.0</ele><time>2026-05-03T10:11:12.307Z</time></trkpt><trkpt lat="44.3293565" lon="7.7392575"><ele>814.0</ele><time>2026-05-03T10:11:13.3Z</time></trkpt><trkpt lat="44.3294537" lon="7.7392625"><ele>814.0</ele><time>2026-05-03T10:11:14.312Z</time></trkpt><trkpt lat="44.3295374" lon="7.7392661"><ele>813.9999999999999</ele><time>2026-05-03T10:11:15.305Z</time></trkpt><trkpt lat="44.3296229" lon="7.7392915"><ele>814.0</ele><time>2026-05-03T10:11:16.306Z</time></trkpt><trkpt lat="44.3297135" lon="7.7393502"><ele>814.8333333333333</ele><time>2026-05-03T10:11:17.311Z</time></trkpt><trkpt lat="44.3297974" lon="7.7393799"><ele>815.6666666666666</ele><time>2026-05-03T10:11:18.319Z</time></trkpt><trkpt lat="44.3298619" lon="7.7394046"><ele>816.5</ele><time>2026-05-03T10:11:19.314Z</time></trkpt><trkpt lat="44.3299403" lon="7.7394353"><ele>817.3333333333333</ele><time>2026-05-03T10:11:20.303Z</time></trkpt><trkpt lat="44.33002" lon="7.7394676"><ele>818.1666666666666</ele><time>2026-05-03T10:11:21.302Z</time></trkpt><trkpt lat="44.3300939" lon="7.7395059"><ele>819.0</ele><time>2026-05-03T10:11:22.3Z</time></trkpt><trkpt lat="44.3301775" lon="7.739553"><ele>818.6666666666666</ele><time>2026-05-03T10:11:23.304Z</time></trkpt><trkpt lat="44.330258" lon="7.7396148"><ele>818.3333333333333</ele><time>2026-05-03T10:11:24.332Z</time></trkpt><trkpt lat="44.3303333" lon="7.7396875"><ele>818.0</ele><time>2026-05-03T10:11:25.3Z</time></trkpt><trkpt lat="44.3303849" lon="7.739749"><ele>817.6666666666666</ele><time>2026-05-03T10:11:26.303Z</time></trkpt><trkpt lat="44.3304684" lon="7.7398084"><ele>817.3333333333333</ele><time>2026-05-03T10:11:28.31Z</time></trkpt><trkpt lat="44.3305572" lon="7.7397835"><ele>817.0</ele><time>2026-05-03T10:11:30.317Z</time></trkpt><trkpt lat="44.3306397" lon="7.7396356"><ele>817.0</ele><time>2026-05-03T10:11:32.302Z</time></trkpt><trkpt lat="44.3307165" lon="7.7395176"><ele>817.0</ele><time>2026-05-03T10:11:34.302Z</time></trkpt><trkpt lat="44.3308109" lon="7.7394535"><ele>817.0</ele><time>2026-05-03T10:11:36.314Z</time></trkpt><trkpt lat="44.3308997" lon="7.7394688"><ele>817.0</ele><time>2026-05-03T10:11:38.306Z</time></trkpt><trkpt lat="44.3309681" lon="7.7395092"><ele>817.0</ele><time>2026-05-03T10:11:40.302Z</time></trkpt><trkpt lat="44.331047" lon="7.7395481"><ele>816.9999999999999</ele><time>2026-05-03T10:11:45.308Z</time></trkpt><trkpt lat="44.3310168" lon="7.7394493"><ele>817.0</ele><time>2026-05-03T10:11:52.307Z</time></trkpt><trkpt lat="44.3309654" lon="7.7393916"><ele>817.0</ele><time>2026-05-03T10:11:53.338Z</time></trkpt><trkpt lat="44.3309176" lon="7.7393242"><ele>817.0</ele><time>2026-05-03T10:11:54.31Z</time></trkpt><trkpt lat="44.3308682" lon="7.7392353"><ele>816.9999999999999</ele><time>2026-05-03T10:11:55.309Z</time></trkpt><trkpt lat="44.3308175" lon="7.7391332"><ele>817.0</ele><time>2026-05-03T10:11:56.31Z</time></trkpt><trkpt lat="44.3307679" lon="7.7390193"><ele>818.4999999999999</ele><time>2026-05-03T10:11:57.305Z</time></trkpt><trkpt lat="44.33072" lon="7.7389029"><ele>820.0</ele><time>2026-05-03T10:11:58.307Z</time></trkpt><trkpt lat="44.3306715" lon="7.7387916"><ele>821.5</ele><time>2026-05-03T10:11:59.302Z</time></trkpt><trkpt lat="44.3306273" lon="7.7386967"><ele>823.0</ele><time>2026-05-03T10:12:00.317Z</time></trkpt><trkpt lat="44.3305764" lon="7.7386107"><ele>824.4999999999999</ele><time>2026-05-03T10:12:01.308Z</time></trkpt><trkpt lat="44.3305141" lon="7.7385327"><ele>826.0</ele><time>2026-05-03T10:12:02.303Z</time></trkpt><trkpt lat="44.3304445" lon="7.7384586"><ele>825.9999999999999</ele><time>2026-05-03T10:12:03.314Z</time></trkpt><trkpt lat="44.330373" lon="7.7384018"><ele>826.0</ele><time>2026-05-03T10:12:04.307Z</time></trkpt><trkpt lat="44.3302997" lon="7.7383617"><ele>826.0</ele><time>2026-05-03T10:12:05.305Z</time></trkpt><trkpt lat="44.3302319" lon="7.7383208"><ele>826.0</ele><time>2026-05-03T10:12:06.317Z</time></trkpt><trkpt lat="44.3301326" lon="7.738246"><ele>825.9999999999999</ele><time>2026-05-03T10:12:08.309Z</time></trkpt><trkpt lat="44.3300721" lon="7.7381841"><ele>826.0</ele><time>2026-05-03T10:12:10.303Z</time></trkpt><trkpt lat="44.3300443" lon="7.7380853"><ele>825.9999999999999</ele><time>2026-05-03T10:12:13.305Z</time></trkpt><trkpt lat="44.3300538" lon="7.7379688"><ele>826.0</ele><time>2026-05-03T10:12:16.306Z</time></trkpt><trkpt lat="44.3300235" lon="7.7378876"><ele>826.0</ele><time>2026-05-03T10:12:19.302Z</time></trkpt><trkpt lat="44.3299661" lon="7.7378359"><ele>826.0</ele><time>2026-05-03T10:12:22.305Z</time></trkpt><trkpt lat="44.329895" lon="7.7378098"><ele>825.9999999999999</ele><time>2026-05-03T10:12:26.31Z</time></trkpt><trkpt lat="44.3298203" lon="7.7378676"><ele>826.0</ele><time>2026-05-03T10:14:12.326Z</time></trkpt><trkpt lat="44.3297384" lon="7.737856"><ele>826.0</ele><time>2026-05-03T10:14:17.331Z</time></trkpt><trkpt lat="44.3296722" lon="7.7378448"><ele>820.0</ele><time>2026-05-03T10:14:25.317Z</time></trkpt><trkpt lat="44.329605" lon="7.7378518"><ele>820.0</ele><time>2026-05-03T10:14:34.401Z</time></trkpt></trkseg><trkseg><trkpt lat="44.3297847" lon="7.7378742"><ele>825.9999999999999</ele><time>2026-05-03T10:58:35.763Z</time></trkpt><trkpt lat="44.3297934" lon="7.737787"><ele>826.0</ele><time>2026-05-03T10:58:39.758Z</time></trkpt><trkpt lat="44.3298584" lon="7.7378154"><ele>826.0</ele><time>2026-05-03T10:58:41.762Z</time></trkpt><trkpt lat="44.3299501" lon="7.7378734"><ele>826.0</ele><time>2026-05-03T10:58:43.764Z</time></trkpt><trkpt lat="44.3300242" lon="7.7379366"><ele>825.9999999999999</ele><time>2026-05-03T10:58:45.775Z</time></trkpt><trkpt lat="44.3300591" lon="7.7380444"><ele>826.0</ele><time>2026-05-03T10:58:47.758Z</time></trkpt><trkpt lat="44.3300736" lon="7.7381575"><ele>826.0</ele><time>2026-05-03T10:58:49.761Z</time></trkpt><trkpt lat="44.3301178" lon="7.7382419"><ele>826.0</ele><time>2026-05-03T10:58:51.76Z</time></trkpt><trkpt lat="44.330229" lon="7.738329"><ele>826.0</ele><time>2026-05-03T10:58:53.756Z</time></trkpt><trkpt lat="44.3303091" lon="7.7383693"><ele>826.0</ele><time>2026-05-03T10:58:54.751Z</time></trkpt><trkpt lat="44.33039" lon="7.7384088"><ele>826.0</ele><time>2026-05-03T10:58:55.758Z</time></trkpt><trkpt lat="44.3304621" lon="7.7384627"><ele>825.9999999999999</ele><time>2026-05-03T10:58:56.753Z</time></trkpt><trkpt lat="44.3305267" lon="7.7385376"><ele>826.0</ele><time>2026-05-03T10:58:57.751Z</time></trkpt><trkpt lat="44.3305851" lon="7.7386215"><ele>826.0</ele><time>2026-05-03T10:58:58.76Z</time></trkpt><trkpt lat="44.3306303" lon="7.7387096"><ele>826.0</ele><time>2026-05-03T10:58:59.763Z</time></trkpt><trkpt lat="44.3306704" lon="7.738803"><ele>825.9999999999999</ele><time>2026-05-03T10:59:00.757Z</time></trkpt><trkpt lat="44.330711" lon="7.7388973"><ele>826.0</ele><time>2026-05-03T10:59:01.763Z</time></trkpt><trkpt lat="44.3307516" lon="7.7390014"><ele>826.1999999999999</ele><time>2026-05-03T10:59:02.777Z</time></trkpt><trkpt lat="44.3307955" lon="7.7391056"><ele>826.4</ele><time>2026-05-03T10:59:03.76Z</time></trkpt><trkpt lat="44.3308314" lon="7.7391923"><ele>826.6</ele><time>2026-05-03T10:59:04.758Z</time></trkpt><trkpt lat="44.3308964" lon="7.739308"><ele>826.8</ele><time>2026-05-03T10:59:06.756Z</time></trkpt><trkpt lat="44.3309828" lon="7.739391"><ele>827.0</ele><time>2026-05-03T10:59:08.761Z</time></trkpt><trkpt lat="44.3310872" lon="7.7394801"><ele>826.0000000000001</ele><time>2026-05-03T10:59:10.761Z</time></trkpt><trkpt lat="44.3311523" lon="7.7395516"><ele>825.0</ele><time>2026-05-03T10:59:11.757Z</time></trkpt><trkpt lat="44.331222" lon="7.7396419"><ele>824.0</ele><time>2026-05-03T10:59:12.755Z</time></trkpt><trkpt lat="44.3312871" lon="7.7397492"><ele>823.0</ele><time>2026-05-03T10:59:13.757Z</time></trkpt><trkpt lat="44.3313251" lon="7.7398254"><ele>822.0000000000001</ele><time>2026-05-03T10:59:14.757Z</time></trkpt><trkpt lat="44.3313555" lon="7.7399335"><ele>821.0</ele><time>2026-05-03T10:59:16.756Z</time></trkpt><trkpt lat="44.3314011" lon="7.7400121"><ele>821.0</ele><time>2026-05-03T10:59:20.759Z</time></trkpt><trkpt lat="44.3314663" lon="7.7399096"><ele>821.0</ele><time>2026-05-03T10:59:24.758Z</time></trkpt><trkpt lat="44.3315447" lon="7.739781"><ele>821.0</ele><time>2026-05-03T10:59:26.754Z</time></trkpt><trkpt lat="44.3315921" lon="7.7397103"><ele>821.0</ele><time>2026-05-03T10:59:27.754Z</time></trkpt><trkpt lat="44.3316393" lon="7.739642"><ele>821.0</ele><time>2026-05-03T10:59:28.766Z</time></trkpt><trkpt lat="44.3317211" lon="7.7395425"><ele>821.0</ele><time>2026-05-03T10:59:30.762Z</time></trkpt><trkpt lat="44.3318656" lon="7.7394433"><ele>821.0</ele><time>2026-05-03T10:59:32.758Z</time></trkpt><trkpt lat="44.3319743" lon="7.7393976"><ele>821.0</ele><time>2026-05-03T10:59:34.77Z</time></trkpt><trkpt lat="44.3320985" lon="7.7393772"><ele>821.0</ele><time>2026-05-03T10:59:36.76Z</time></trkpt><trkpt lat="44.3321765" lon="7.7393784"><ele>821.5000000000001</ele><time>2026-05-03T10:59:37.759Z</time></trkpt><trkpt lat="44.3322529" lon="7.7393756"><ele>822.0</ele><time>2026-05-03T10:59:38.757Z</time></trkpt><trkpt lat="44.3323209" lon="7.7393567"><ele>822.5</ele><time>2026-05-03T10:59:39.753Z</time></trkpt><trkpt lat="44.33244" lon="7.7393225"><ele>823.0</ele><time>2026-05-03T10:59:41.754Z</time></trkpt><trkpt lat="44.332504" lon="7.739305"><ele>823.5000000000001</ele><time>2026-05-03T10:59:42.757Z</time></trkpt><trkpt lat="44.3325904" lon="7.7392741"><ele>824.0</ele><time>2026-05-03T10:59:43.757Z</time></trkpt><trkpt lat="44.3326531" lon="7.7392513"><ele>824.0000000000001</ele><time>2026-05-03T10:59:44.756Z</time></trkpt><trkpt lat="44.3327395" lon="7.7392294"><ele>824.0</ele><time>2026-05-03T10:59:47.758Z</time></trkpt><trkpt lat="44.3328177" lon="7.7392144"><ele>824.0</ele><time>2026-05-03T10:59:49.759Z</time></trkpt><trkpt lat="44.332915" lon="7.7391701"><ele>824.0</ele><time>2026-05-03T10:59:51.76Z</time></trkpt><trkpt lat="44.3329796" lon="7.7391269"><ele>824.0000000000001</ele><time>2026-05-03T10:59:52.762Z</time></trkpt><trkpt lat="44.3330549" lon="7.7390691"><ele>824.0</ele><time>2026-05-03T10:59:53.764Z</time></trkpt><trkpt lat="44.3331337" lon="7.7390127"><ele>820.3333333333334</ele><time>2026-05-03T10:59:54.758Z</time></trkpt><trkpt lat="44.3332104" lon="7.7389472"><ele>816.6666666666667</ele><time>2026-05-03T10:59:55.756Z</time></trkpt><trkpt lat="44.3332736" lon="7.7388713"><ele>813.0</ele><time>2026-05-03T10:59:56.756Z</time></trkpt><trkpt lat="44.3333255" lon="7.7387928"><ele>809.3333333333333</ele><time>2026-05-03T10:59:57.757Z</time></trkpt><trkpt lat="44.3333774" lon="7.7387213"><ele>805.6666666666666</ele><time>2026-05-03T10:59:58.756Z</time></trkpt><trkpt lat="44.3334343" lon="7.7386463"><ele>802.0</ele><time>2026-05-03T10:59:59.757Z</time></trkpt><trkpt lat="44.3334983" lon="7.7385657"><ele>805.8333333333333</ele><time>2026-05-03T11:00:00.761Z</time></trkpt><trkpt lat="44.333557" lon="7.738488"><ele>809.6666666666666</ele><time>2026-05-03T11:00:01.755Z</time></trkpt><trkpt lat="44.3335995" lon="7.7384092"><ele>813.5</ele><time>2026-05-03T11:00:02.764Z</time></trkpt><trkpt lat="44.3336423" lon="7.7383327"><ele>817.3333333333333</ele><time>2026-05-03T11:00:03.755Z</time></trkpt><trkpt lat="44.333729" lon="7.7382115"><ele>821.1666666666666</ele><time>2026-05-03T11:00:05.758Z</time></trkpt><trkpt lat="44.3337917" lon="7.7381605"><ele>825.0</ele><time>2026-05-03T11:00:06.759Z</time></trkpt><trkpt lat="44.3338599" lon="7.7381062"><ele>819.1666666666666</ele><time>2026-05-03T11:00:07.759Z</time></trkpt><trkpt lat="44.3339226" lon="7.7380412"><ele>813.3333333333333</ele><time>2026-05-03T11:00:08.755Z</time></trkpt><trkpt lat="44.3339669" lon="7.737967"><ele>807.5</ele><time>2026-05-03T11:00:09.752Z</time></trkpt><trkpt lat="44.3340008" lon="7.7378919"><ele>801.6666666666666</ele><time>2026-05-03T11:00:10.764Z</time></trkpt><trkpt lat="44.3340327" lon="7.7377293"><ele>795.8333333333333</ele><time>2026-05-03T11:00:12.757Z</time></trkpt><trkpt lat="44.3340433" lon="7.7376385"><ele>790.0</ele><time>2026-05-03T11:00:13.761Z</time></trkpt><trkpt lat="44.3340898" lon="7.7374891"><ele>789.9999999999999</ele><time>2026-05-03T11:00:15.761Z</time></trkpt><trkpt lat="44.3341766" lon="7.7373892"><ele>790.0</ele><time>2026-05-03T11:00:17.76Z</time></trkpt><trkpt lat="44.3342569" lon="7.7372911"><ele>790.0</ele><time>2026-05-03T11:00:19.773Z</time></trkpt><trkpt lat="44.3342978" lon="7.7372125"><ele>790.0</ele><time>2026-05-03T11:00:20.763Z</time></trkpt><trkpt lat="44.3343396" lon="7.7371239"><ele>789.9999999999999</ele><time>2026-05-03T11:00:21.759Z</time></trkpt><trkpt lat="44.334388" lon="7.7370397"><ele>790.0</ele><time>2026-05-03T11:00:22.758Z</time></trkpt><trkpt lat="44.3344419" lon="7.7369548"><ele>790.4</ele><time>2026-05-03T11:00:23.763Z</time></trkpt><trkpt lat="44.3344971" lon="7.7368564"><ele>790.8</ele><time>2026-05-03T11:00:24.757Z</time></trkpt><trkpt lat="44.3345423" lon="7.7367667"><ele>791.2</ele><time>2026-05-03T11:00:25.758Z</time></trkpt><trkpt lat="44.3346066" lon="7.7366293"><ele>791.6</ele><time>2026-05-03T11:00:27.759Z</time></trkpt><trkpt lat="44.3346568" lon="7.7365239"><ele>792.0</ele><time>2026-05-03T11:00:29.759Z</time></trkpt><trkpt lat="44.3346999" lon="7.7364134"><ele>787.5</ele><time>2026-05-03T11:00:31.763Z</time></trkpt><trkpt lat="44.334735" lon="7.736315"><ele>783.0</ele><time>2026-05-03T11:00:33.762Z</time></trkpt><trkpt lat="44.3347792" lon="7.7362453"><ele>778.5</ele><time>2026-05-03T11:00:35.766Z</time></trkpt><trkpt lat="44.3348268" lon="7.7361822"><ele>774.0</ele><time>2026-05-03T11:00:37.763Z</time></trkpt><trkpt lat="44.334884" lon="7.7360712"><ele>769.5</ele><time>2026-05-03T11:00:40.761Z</time></trkpt><trkpt lat="44.3349215" lon="7.7359615"><ele>765.0</ele><time>2026-05-03T11:00:42.764Z</time></trkpt><trkpt lat="44.3349604" lon="7.7358384"><ele>765.0</ele><time>2026-05-03T11:00:44.76Z</time></trkpt><trkpt lat="44.3349962" lon="7.7357249"><ele>765.0</ele><time>2026-05-03T11:00:46.759Z</time></trkpt><trkpt lat="44.3350496" lon="7.7356701"><ele>765.0</ele><time>2026-05-03T11:00:48.761Z</time></trkpt><trkpt lat="44.3351318" lon="7.7357315"><ele>765.0</ele><time>2026-05-03T11:00:51.764Z</time></trkpt><trkpt lat="44.3351946" lon="7.7358338"><ele>765.0</ele><time>2026-05-03T11:00:54.762Z</time></trkpt><trkpt lat="44.3352468" lon="7.7359591"><ele>765.0</ele><time>2026-05-03T11:00:56.755Z</time></trkpt><trkpt lat="44.3352727" lon="7.7360922"><ele>765.0</ele><time>2026-05-03T11:00:58.759Z</time></trkpt><trkpt lat="44.335281" lon="7.7362481"><ele>765.0</ele><time>2026-05-03T11:01:00.759Z</time></trkpt><trkpt lat="44.3352842" lon="7.7363927"><ele>765.0</ele><time>2026-05-03T11:01:02.76Z</time></trkpt><trkpt lat="44.3352772" lon="7.7365192"><ele>765.0</ele><time>2026-05-03T11:01:04.759Z</time></trkpt><trkpt lat="44.3352744" lon="7.7366616"><ele>765.0</ele><time>2026-05-03T11:01:06.76Z</time></trkpt><trkpt lat="44.3352723" lon="7.7368032"><ele>765.0</ele><time>2026-05-03T11:01:08.789Z</time></trkpt><trkpt lat="44.3352838" lon="7.7369191"><ele>765.0</ele><time>2026-05-03T11:01:10.76Z</time></trkpt><trkpt lat="44.3353582" lon="7.7369796"><ele>765.0</ele><time>2026-05-03T11:01:13.773Z</time></trkpt><trkpt lat="44.3354219" lon="7.7369161"><ele>765.0</ele><time>2026-05-03T11:01:15.761Z</time></trkpt><trkpt lat="44.3354975" lon="7.7368279"><ele>765.0</ele><time>2026-05-03T11:01:17.762Z</time></trkpt><trkpt lat="44.335524" lon="7.7367431"><ele>765.0</ele><time>2026-05-03T11:01:19.76Z</time></trkpt><trkpt lat="44.3355594" lon="7.7366499"><ele>759.8333333333334</ele><time>2026-05-03T11:01:21.761Z</time></trkpt><trkpt lat="44.3356092" lon="7.7365429"><ele>754.6666666666666</ele><time>2026-05-03T11:01:23.761Z</time></trkpt><trkpt lat="44.3356585" lon="7.7364466"><ele>749.5</ele><time>2026-05-03T11:01:25.761Z</time></trkpt><trkpt lat="44.3357066" lon="7.7363506"><ele>744.3333333333333</ele><time>2026-05-03T11:01:27.762Z</time></trkpt><trkpt lat="44.3357634" lon="7.7362597"><ele>739.1666666666666</ele><time>2026-05-03T11:01:29.764Z</time></trkpt><trkpt lat="44.335803" lon="7.7361842"><ele>734.0</ele><time>2026-05-03T11:01:31.76Z</time></trkpt><trkpt lat="44.3358401" lon="7.7360939"><ele>734.0</ele><time>2026-05-03T11:01:33.762Z</time></trkpt><trkpt lat="44.3359038" lon="7.7360816"><ele>734.0</ele><time>2026-05-03T11:01:36.757Z</time></trkpt><trkpt lat="44.3359235" lon="7.736212"><ele>734.0</ele><time>2026-05-03T11:01:40.77Z</time></trkpt><trkpt lat="44.3359347" lon="7.7363683"><ele>734.0</ele><time>2026-05-03T11:01:42.765Z</time></trkpt><trkpt lat="44.3359474" lon="7.736506"><ele>734.0</ele><time>2026-05-03T11:01:44.769Z</time></trkpt><trkpt lat="44.3359611" lon="7.7366848"><ele>734.0</ele><time>2026-05-03T11:01:46.754Z</time></trkpt><trkpt lat="44.3359596" lon="7.7368564"><ele>734.0</ele><time>2026-05-03T11:01:48.766Z</time></trkpt><trkpt lat="44.335941" lon="7.7370053"><ele>734.0</ele><time>2026-05-03T11:01:50.762Z</time></trkpt><trkpt lat="44.335926" lon="7.7370998"><ele>734.0</ele><time>2026-05-03T11:01:51.76Z</time></trkpt><trkpt lat="44.3359129" lon="7.737195"><ele>734.0</ele><time>2026-05-03T11:01:52.764Z</time></trkpt><trkpt lat="44.3358953" lon="7.7372965"><ele>734.0</ele><time>2026-05-03T11:01:53.767Z</time></trkpt><trkpt lat="44.3358812" lon="7.7374519"><ele>733.4000000000001</ele><time>2026-05-03T11:01:55.762Z</time></trkpt><trkpt lat="44.335886" lon="7.7376204"><ele>732.8</ele><time>2026-05-03T11:01:57.765Z</time></trkpt><trkpt lat="44.33591" lon="7.7377486"><ele>732.2</ele><time>2026-05-03T11:01:59.759Z</time></trkpt><trkpt lat="44.3359628" lon="7.7378353"><ele>731.5999999999999</ele><time>2026-05-03T11:02:01.764Z</time></trkpt><trkpt lat="44.3360376" lon="7.7379545"><ele>731.0</ele><time>2026-05-03T11:02:03.764Z</time></trkpt><trkpt lat="44.3361012" lon="7.7380879"><ele>730.75</ele><time>2026-05-03T11:02:05.767Z</time></trkpt><trkpt lat="44.3361636" lon="7.7382305"><ele>730.5</ele><time>2026-05-03T11:02:07.763Z</time></trkpt><trkpt lat="44.3362092" lon="7.7383986"><ele>730.25</ele><time>2026-05-03T11:02:09.763Z</time></trkpt><trkpt lat="44.3362013" lon="7.7385632"><ele>730.0</ele><time>2026-05-03T11:02:11.767Z</time></trkpt><trkpt lat="44.3361814" lon="7.7387406"><ele>729.0</ele><time>2026-05-03T11:02:13.768Z</time></trkpt><trkpt lat="44.3361521" lon="7.7389117"><ele>728.0</ele><time>2026-05-03T11:02:15.769Z</time></trkpt><trkpt lat="44.3361373" lon="7.7390097"><ele>727.0</ele><time>2026-05-03T11:02:16.769Z</time></trkpt><trkpt lat="44.3361316" lon="7.7391064"><ele>726.0</ele><time>2026-05-03T11:02:17.771Z</time></trkpt><trkpt lat="44.3361425" lon="7.7392492"><ele>725.0</ele><time>2026-05-03T11:02:19.771Z</time></trkpt><trkpt lat="44.3361765" lon="7.7393663"><ele>722.6</ele><time>2026-05-03T11:02:21.772Z</time></trkpt><trkpt lat="44.3362187" lon="7.739506"><ele>720.2</ele><time>2026-05-03T11:02:23.771Z</time></trkpt><trkpt lat="44.3362523" lon="7.7396604"><ele>717.8</ele><time>2026-05-03T11:02:25.772Z</time></trkpt><trkpt lat="44.3362718" lon="7.7398253"><ele>715.4</ele><time>2026-05-03T11:02:27.773Z</time></trkpt><trkpt lat="44.3362814" lon="7.7399707"><ele>713.0</ele><time>2026-05-03T11:02:29.768Z</time></trkpt><trkpt lat="44.3362702" lon="7.7401275"><ele>708.25</ele><time>2026-05-03T11:02:31.771Z</time></trkpt><trkpt lat="44.336225" lon="7.7402775"><ele>703.5</ele><time>2026-05-03T11:02:33.762Z</time></trkpt><trkpt lat="44.3361636" lon="7.7404142"><ele>698.75</ele><time>2026-05-03T11:02:35.775Z</time></trkpt><trkpt lat="44.3360887" lon="7.7405361"><ele>694.0</ele><time>2026-05-03T11:02:37.766Z</time></trkpt><trkpt lat="44.3359903" lon="7.7406521"><ele>694.0</ele><time>2026-05-03T11:02:39.759Z</time></trkpt><trkpt lat="44.335935" lon="7.7407248"><ele>694.0</ele><time>2026-05-03T11:02:40.76Z</time></trkpt><trkpt lat="44.3358826" lon="7.740785"><ele>694.0</ele><time>2026-05-03T11:02:41.767Z</time></trkpt><trkpt lat="44.3358331" lon="7.7408395"><ele>694.0</ele><time>2026-05-03T11:02:42.759Z</time></trkpt><trkpt lat="44.3357832" lon="7.7409053"><ele>694.0</ele><time>2026-05-03T11:02:43.766Z</time></trkpt><trkpt lat="44.3357328" lon="7.7409871"><ele>694.0</ele><time>2026-05-03T11:02:44.765Z</time></trkpt><trkpt lat="44.3356897" lon="7.7410709"><ele>694.0</ele><time>2026-05-03T11:02:45.766Z</time></trkpt><trkpt lat="44.3356302" lon="7.7411894"><ele>691.0</ele><time>2026-05-03T11:02:47.769Z</time></trkpt><trkpt lat="44.3355827" lon="7.7412836"><ele>688.0</ele><time>2026-05-03T11:02:49.765Z</time></trkpt><trkpt lat="44.3355852" lon="7.7414445"><ele>685.0</ele><time>2026-05-03T11:02:51.764Z</time></trkpt><trkpt lat="44.3356357" lon="7.7415802"><ele>682.0</ele><time>2026-05-03T11:02:53.763Z</time></trkpt><trkpt lat="44.3356664" lon="7.7417157"><ele>679.0</ele><time>2026-05-03T11:02:55.765Z</time></trkpt><trkpt lat="44.3356834" lon="7.7418477"><ele>679.0</ele><time>2026-05-03T11:02:58.767Z</time></trkpt><trkpt lat="44.3357231" lon="7.7419335"><ele>679.0</ele><time>2026-05-03T11:03:00.771Z</time></trkpt><trkpt lat="44.3358191" lon="7.7418546"><ele>679.0</ele><time>2026-05-03T11:03:03.771Z</time></trkpt><trkpt lat="44.3359052" lon="7.7417781"><ele>679.0</ele><time>2026-05-03T11:03:05.771Z</time></trkpt><trkpt lat="44.3359828" lon="7.7417572"><ele>679.0</ele><time>2026-05-03T11:03:07.768Z</time></trkpt><trkpt lat="44.3360648" lon="7.7417565"><ele>679.0</ele><time>2026-05-03T11:03:09.77Z</time></trkpt><trkpt lat="44.3361217" lon="7.7417969"><ele>679.0</ele><time>2026-05-03T11:03:11.771Z</time></trkpt><trkpt lat="44.3361986" lon="7.7418625"><ele>679.0</ele><time>2026-05-03T11:03:13.769Z</time></trkpt><trkpt lat="44.336271" lon="7.7418886"><ele>679.0</ele><time>2026-05-03T11:03:15.77Z</time></trkpt><trkpt lat="44.3363517" lon="7.7418875"><ele>679.0</ele><time>2026-05-03T11:03:17.765Z</time></trkpt><trkpt lat="44.3364381" lon="7.741887"><ele>679.0</ele><time>2026-05-03T11:03:19.768Z</time></trkpt><trkpt lat="44.3365158" lon="7.7418272"><ele>679.0</ele><time>2026-05-03T11:03:21.77Z</time></trkpt><trkpt lat="44.3365757" lon="7.7417641"><ele>676.0</ele><time>2026-05-03T11:03:23.767Z</time></trkpt><trkpt lat="44.3367133" lon="7.7418136"><ele>673.0</ele><time>2026-05-03T11:03:27.767Z</time></trkpt><trkpt lat="44.3367397" lon="7.7419305"><ele>670.0</ele><time>2026-05-03T11:03:30.771Z</time></trkpt><trkpt lat="44.3368468" lon="7.7419499"><ele>667.0</ele><time>2026-05-03T11:03:33.776Z</time></trkpt><trkpt lat="44.3369494" lon="7.7419346"><ele>664.0</ele><time>2026-05-03T11:03:35.76Z</time></trkpt><trkpt lat="44.3370161" lon="7.7419463"><ele>664.0</ele><time>2026-05-03T11:03:36.76Z</time></trkpt><trkpt lat="44.337076" lon="7.7419751"><ele>664.0</ele><time>2026-05-03T11:03:38.764Z</time></trkpt><trkpt lat="44.3371284" lon="7.7420329"><ele>664.0</ele><time>2026-05-03T11:03:39.768Z</time></trkpt><trkpt lat="44.3371801" lon="7.7421157"><ele>664.0</ele><time>2026-05-03T11:03:41.767Z</time></trkpt><trkpt lat="44.3372498" lon="7.7420768"><ele>664.0</ele><time>2026-05-03T11:03:44.765Z</time></trkpt><trkpt lat="44.3372945" lon="7.7419847"><ele>664.0</ele><time>2026-05-03T11:03:46.766Z</time></trkpt><trkpt lat="44.3373513" lon="7.7419371"><ele>664.0</ele><time>2026-05-03T11:03:48.771Z</time></trkpt><trkpt lat="44.3374558" lon="7.7419492"><ele>662.2</ele><time>2026-05-03T11:03:50.771Z</time></trkpt><trkpt lat="44.3375805" lon="7.7419769"><ele>660.4000000000001</ele><time>2026-05-03T11:03:52.76Z</time></trkpt><trkpt lat="44.3376818" lon="7.7419803"><ele>658.6</ele><time>2026-05-03T11:03:54.781Z</time></trkpt><trkpt lat="44.3377454" lon="7.7418807"><ele>656.8</ele><time>2026-05-03T11:03:56.763Z</time></trkpt><trkpt lat="44.3377657" lon="7.7417748"><ele>655.0</ele><time>2026-05-03T11:03:58.765Z</time></trkpt><trkpt lat="44.3378545" lon="7.7417181"><ele>652.1666666666667</ele><time>2026-05-03T11:04:00.763Z</time></trkpt><trkpt lat="44.3379237" lon="7.7416804"><ele>649.3333333333334</ele><time>2026-05-03T11:04:01.778Z</time></trkpt><trkpt lat="44.3380181" lon="7.7416427"><ele>646.5</ele><time>2026-05-03T11:04:02.761Z</time></trkpt><trkpt lat="44.3381062" lon="7.7416109"><ele>643.6666666666666</ele><time>2026-05-03T11:04:03.76Z</time></trkpt><trkpt lat="44.3381834" lon="7.7415861"><ele>640.8333333333333</ele><time>2026-05-03T11:04:04.768Z</time></trkpt><trkpt lat="44.3382819" lon="7.7415557"><ele>638.0</ele><time>2026-05-03T11:04:06.765Z</time></trkpt><trkpt lat="44.3383869" lon="7.7415533"><ele>636.8333333333333</ele><time>2026-05-03T11:04:08.769Z</time></trkpt><trkpt lat="44.3385299" lon="7.7415449"><ele>635.6666666666666</ele><time>2026-05-03T11:04:10.764Z</time></trkpt><trkpt lat="44.3385975" lon="7.7415476"><ele>634.5</ele><time>2026-05-03T11:04:11.764Z</time></trkpt><trkpt lat="44.3386688" lon="7.7415454"><ele>633.3333333333334</ele><time>2026-05-03T11:04:12.768Z</time></trkpt><trkpt lat="44.3387451" lon="7.7415525"><ele>632.1666666666667</ele><time>2026-05-03T11:04:13.765Z</time></trkpt><trkpt lat="44.3388161" lon="7.741568"><ele>631.0</ele><time>2026-05-03T11:04:14.763Z</time></trkpt><trkpt lat="44.3389356" lon="7.7415882"><ele>629.0</ele><time>2026-05-03T11:04:16.768Z</time></trkpt><trkpt lat="44.3390024" lon="7.7415989"><ele>627.0</ele><time>2026-05-03T11:04:17.764Z</time></trkpt><trkpt lat="44.3390871" lon="7.7416222"><ele>625.0</ele><time>2026-05-03T11:04:18.769Z</time></trkpt><trkpt lat="44.339153" lon="7.7416413"><ele>623.0</ele><time>2026-05-03T11:04:19.759Z</time></trkpt><trkpt lat="44.339279" lon="7.7416894"><ele>621.0</ele><time>2026-05-03T11:04:21.762Z</time></trkpt><trkpt lat="44.3393675" lon="7.7417448"><ele>619.0</ele><time>2026-05-03T11:04:23.767Z</time></trkpt><trkpt lat="44.3394523" lon="7.7418644"><ele>620.0</ele><time>2026-05-03T11:04:25.77Z</time></trkpt><trkpt lat="44.3395285" lon="7.7419644"><ele>621.0</ele><time>2026-05-03T11:04:27.772Z</time></trkpt><trkpt lat="44.3396355" lon="7.7420153"><ele>622.0</ele><time>2026-05-03T11:04:29.77Z</time></trkpt><trkpt lat="44.3397445" lon="7.7420222"><ele>623.0</ele><time>2026-05-03T11:04:31.78Z</time></trkpt><trkpt lat="44.3398699" lon="7.7420215"><ele>623.0</ele><time>2026-05-03T11:04:33.765Z</time></trkpt><trkpt lat="44.3399452" lon="7.742032"><ele>623.0</ele><time>2026-05-03T11:04:34.763Z</time></trkpt><trkpt lat="44.3400199" lon="7.7420424"><ele>623.0</ele><time>2026-05-03T11:04:35.765Z</time></trkpt><trkpt lat="44.3400918" lon="7.7420575"><ele>623.0</ele><time>2026-05-03T11:04:36.763Z</time></trkpt><trkpt lat="44.3401619" lon="7.74207"><ele>623.0</ele><time>2026-05-03T11:04:37.763Z</time></trkpt><trkpt lat="44.34026" lon="7.7420684"><ele>623.0</ele><time>2026-05-03T11:04:39.762Z</time></trkpt><trkpt lat="44.3403329" lon="7.7420415"><ele>623.0</ele><time>2026-05-03T11:04:41.764Z</time></trkpt><trkpt lat="44.3404539" lon="7.7420207"><ele>623.0</ele><time>2026-05-03T11:04:43.766Z</time></trkpt><trkpt lat="44.340542" lon="7.7420601"><ele>623.0</ele><time>2026-05-03T11:04:44.771Z</time></trkpt><trkpt lat="44.3406366" lon="7.7421003"><ele>623.0</ele><time>2026-05-03T11:04:45.762Z</time></trkpt><trkpt lat="44.3407436" lon="7.7421335"><ele>623.0</ele><time>2026-05-03T11:04:46.769Z</time></trkpt><trkpt lat="44.340862" lon="7.7421576"><ele>621.25</ele><time>2026-05-03T11:04:47.771Z</time></trkpt><trkpt lat="44.3409868" lon="7.7421781"><ele>619.5</ele><time>2026-05-03T11:04:48.765Z</time></trkpt><trkpt lat="44.341113" lon="7.7422005"><ele>617.75</ele><time>2026-05-03T11:04:49.772Z</time></trkpt><trkpt lat="44.3412425" lon="7.7422163"><ele>616.0</ele><time>2026-05-03T11:04:50.766Z</time></trkpt><trkpt lat="44.3413681" lon="7.7422339"><ele>615.0</ele><time>2026-05-03T11:04:51.773Z</time></trkpt><trkpt lat="44.3414879" lon="7.7422433"><ele>614.0</ele><time>2026-05-03T11:04:52.764Z</time></trkpt><trkpt lat="44.3415967" lon="7.7422353"><ele>613.0</ele><time>2026-05-03T11:04:53.772Z</time></trkpt><trkpt lat="44.3416968" lon="7.7422108"><ele>612.0</ele><time>2026-05-03T11:04:54.761Z</time></trkpt><trkpt lat="44.3417942" lon="7.7421666"><ele>611.0</ele><time>2026-05-03T11:04:55.765Z</time></trkpt><trkpt lat="44.3418813" lon="7.742112"><ele>611.0</ele><time>2026-05-03T11:04:56.762Z</time></trkpt><trkpt lat="44.3419624" lon="7.7420561"><ele>611.0</ele><time>2026-05-03T11:04:57.766Z</time></trkpt><trkpt lat="44.3420419" lon="7.7420106"><ele>611.0</ele><time>2026-05-03T11:04:58.764Z</time></trkpt><trkpt lat="44.3421199" lon="7.7419786"><ele>611.0</ele><time>2026-05-03T11:04:59.765Z</time></trkpt><trkpt lat="44.3421913" lon="7.7419486"><ele>611.0</ele><time>2026-05-03T11:05:00.765Z</time></trkpt><trkpt lat="44.3422604" lon="7.7419089"><ele>611.0</ele><time>2026-05-03T11:05:01.763Z</time></trkpt><trkpt lat="44.3423215" lon="7.7418655"><ele>608.5</ele><time>2026-05-03T11:05:02.767Z</time></trkpt><trkpt lat="44.342413" lon="7.7417893"><ele>606.0</ele><time>2026-05-03T11:05:04.766Z</time></trkpt><trkpt lat="44.3424722" lon="7.7417394"><ele>603.5</ele><time>2026-05-03T11:05:05.766Z</time></trkpt><trkpt lat="44.3425309" lon="7.7416879"><ele>601.0</ele><time>2026-05-03T11:05:06.772Z</time></trkpt><trkpt lat="44.342602" lon="7.7416372"><ele>598.5</ele><time>2026-05-03T11:05:07.772Z</time></trkpt><trkpt lat="44.3426903" lon="7.7415909"><ele>596.0</ele><time>2026-05-03T11:05:08.772Z</time></trkpt><trkpt lat="44.3427861" lon="7.7415493"><ele>596.0</ele><time>2026-05-03T11:05:09.766Z</time></trkpt><trkpt lat="44.3428743" lon="7.7415188"><ele>596.0</ele><time>2026-05-03T11:05:10.771Z</time></trkpt><trkpt lat="44.3429626" lon="7.741493"><ele>596.0</ele><time>2026-05-03T11:05:11.778Z</time></trkpt><trkpt lat="44.3430441" lon="7.7414724"><ele>596.0</ele><time>2026-05-03T11:05:12.771Z</time></trkpt><trkpt lat="44.3431226" lon="7.741467"><ele>596.0</ele><time>2026-05-03T11:05:13.766Z</time></trkpt><trkpt lat="44.3431928" lon="7.7414702"><ele>596.0</ele><time>2026-05-03T11:05:14.764Z</time></trkpt><trkpt lat="44.3432989" lon="7.7414779"><ele>596.0</ele><time>2026-05-03T11:05:16.77Z</time></trkpt><trkpt lat="44.3433801" lon="7.7415167"><ele>596.0</ele><time>2026-05-03T11:05:18.776Z</time></trkpt><trkpt lat="44.3434718" lon="7.7416477"><ele>596.0</ele><time>2026-05-03T11:05:20.778Z</time></trkpt><trkpt lat="44.3435185" lon="7.7417356"><ele>596.0</ele><time>2026-05-03T11:05:21.767Z</time></trkpt><trkpt lat="44.3435644" lon="7.7418302"><ele>596.0</ele><time>2026-05-03T11:05:22.762Z</time></trkpt><trkpt lat="44.3436145" lon="7.7419276"><ele>596.0</ele><time>2026-05-03T11:05:23.774Z</time></trkpt><trkpt lat="44.3436648" lon="7.7420343"><ele>596.0</ele><time>2026-05-03T11:05:24.765Z</time></trkpt><trkpt lat="44.3437173" lon="7.7421572"><ele>596.0</ele><time>2026-05-03T11:05:25.762Z</time></trkpt><trkpt lat="44.3437642" lon="7.7422976"><ele>596.0</ele><time>2026-05-03T11:05:26.769Z</time></trkpt><trkpt lat="44.3437994" lon="7.7424577"><ele>596.0</ele><time>2026-05-03T11:05:27.774Z</time></trkpt><trkpt lat="44.3438258" lon="7.7426314"><ele>596.5</ele><time>2026-05-03T11:05:28.766Z</time></trkpt><trkpt lat="44.3438493" lon="7.7428155"><ele>597.0</ele><time>2026-05-03T11:05:29.767Z</time></trkpt><trkpt lat="44.3438748" lon="7.7430065"><ele>597.5</ele><time>2026-05-03T11:05:30.776Z</time></trkpt><trkpt lat="44.3439053" lon="7.7432121"><ele>598.0</ele><time>2026-05-03T11:05:31.768Z</time></trkpt><trkpt lat="44.3439469" lon="7.7434333"><ele>595.0</ele><time>2026-05-03T11:05:32.769Z</time></trkpt><trkpt lat="44.3439967" lon="7.7436608"><ele>592.0</ele><time>2026-05-03T11:05:33.771Z</time></trkpt><trkpt lat="44.3440541" lon="7.7438892"><ele>589.0</ele><time>2026-05-03T11:05:34.769Z</time></trkpt><trkpt lat="44.3441205" lon="7.7441123"><ele>589.0</ele><time>2026-05-03T11:05:35.767Z</time></trkpt><trkpt lat="44.3441923" lon="7.744328"><ele>589.0</ele><time>2026-05-03T11:05:36.767Z</time></trkpt><trkpt lat="44.3442677" lon="7.7445243"><ele>589.0</ele><time>2026-05-03T11:05:37.765Z</time></trkpt><trkpt lat="44.344346" lon="7.7447042"><ele>589.5</ele><time>2026-05-03T11:05:38.77Z</time></trkpt><trkpt lat="44.3444291" lon="7.7448728"><ele>590.0</ele><time>2026-05-03T11:05:39.791Z</time></trkpt><trkpt lat="44.3445133" lon="7.7450333"><ele>590.5</ele><time>2026-05-03T11:05:40.766Z</time></trkpt><trkpt lat="44.3445977" lon="7.7451886"><ele>591.0</ele><time>2026-05-03T11:05:41.767Z</time></trkpt><trkpt lat="44.34468" lon="7.7453394"><ele>590.75</ele><time>2026-05-03T11:05:42.768Z</time></trkpt><trkpt lat="44.3447582" lon="7.7454922"><ele>590.5</ele><time>2026-05-03T11:05:43.771Z</time></trkpt><trkpt lat="44.3448335" lon="7.745651"><ele>590.25</ele><time>2026-05-03T11:05:44.766Z</time></trkpt><trkpt lat="44.3448989" lon="7.7458166"><ele>590.0</ele><time>2026-05-03T11:05:45.787Z</time></trkpt><trkpt lat="44.3449494" lon="7.7459929"><ele>590.25</ele><time>2026-05-03T11:05:46.773Z</time></trkpt><trkpt lat="44.3449799" lon="7.7461729"><ele>590.5</ele><time>2026-05-03T11:05:47.767Z</time></trkpt><trkpt lat="44.344996" lon="7.7463516"><ele>590.75</ele><time>2026-05-03T11:05:48.772Z</time></trkpt><trkpt lat="44.3450061" lon="7.746525"><ele>591.0</ele><time>2026-05-03T11:05:49.768Z</time></trkpt><trkpt lat="44.3450173" lon="7.7466887"><ele>591.0</ele><time>2026-05-03T11:05:50.767Z</time></trkpt><trkpt lat="44.3450359" lon="7.7468474"><ele>591.0</ele><time>2026-05-03T11:05:51.771Z</time></trkpt><trkpt lat="44.3450687" lon="7.7470096"><ele>591.0</ele><time>2026-05-03T11:05:52.775Z</time></trkpt><trkpt lat="44.3451206" lon="7.7471699"><ele>591.0</ele><time>2026-05-03T11:05:53.769Z</time></trkpt><trkpt lat="44.3451873" lon="7.7473264"><ele>591.25</ele><time>2026-05-03T11:05:54.77Z</time></trkpt><trkpt lat="44.3452563" lon="7.7474876"><ele>591.5</ele><time>2026-05-03T11:05:55.768Z</time></trkpt><trkpt lat="44.34532" lon="7.747651"><ele>591.75</ele><time>2026-05-03T11:05:56.769Z</time></trkpt><trkpt lat="44.3453747" lon="7.7478035"><ele>592.0</ele><time>2026-05-03T11:05:57.765Z</time></trkpt><trkpt lat="44.3454231" lon="7.7479383"><ele>592.0</ele><time>2026-05-03T11:05:58.766Z</time></trkpt><trkpt lat="44.3454684" lon="7.7480577"><ele>592.0</ele><time>2026-05-03T11:05:59.768Z</time></trkpt><trkpt lat="44.3455168" lon="7.7481622"><ele>592.0</ele><time>2026-05-03T11:06:00.777Z</time></trkpt><trkpt lat="44.3455678" lon="7.7482604"><ele>592.0</ele><time>2026-05-03T11:06:01.765Z</time></trkpt><trkpt lat="44.3456218" lon="7.7483649"><ele>592.0</ele><time>2026-05-03T11:06:02.77Z</time></trkpt><trkpt lat="44.3456778" lon="7.7484781"><ele>591.6</ele><time>2026-05-03T11:06:03.772Z</time></trkpt><trkpt lat="44.3457317" lon="7.7486008"><ele>591.2</ele><time>2026-05-03T11:06:04.767Z</time></trkpt><trkpt lat="44.3457824" lon="7.7487352"><ele>590.8</ele><time>2026-05-03T11:06:05.765Z</time></trkpt><trkpt lat="44.345831" lon="7.7488753"><ele>590.4</ele><time>2026-05-03T11:06:06.769Z</time></trkpt><trkpt lat="44.345878" lon="7.749039"><ele>590.0</ele><time>2026-05-03T11:06:07.77Z</time></trkpt><trkpt lat="44.3459066" lon="7.7492029"><ele>590.0</ele><time>2026-05-03T11:06:08.765Z</time></trkpt><trkpt lat="44.3459231" lon="7.7493693"><ele>590.0</ele><time>2026-05-03T11:06:09.769Z</time></trkpt><trkpt lat="44.3459338" lon="7.7495498"><ele>590.0</ele><time>2026-05-03T11:06:10.765Z</time></trkpt><trkpt lat="44.3459331" lon="7.7497315"><ele>590.0</ele><time>2026-05-03T11:06:11.765Z</time></trkpt><trkpt lat="44.345934" lon="7.7499217"><ele>589.25</ele><time>2026-05-03T11:06:12.766Z</time></trkpt><trkpt lat="44.3459496" lon="7.7501136"><ele>588.5</ele><time>2026-05-03T11:06:13.776Z</time></trkpt><trkpt lat="44.3459718" lon="7.7503042"><ele>587.75</ele><time>2026-05-03T11:06:14.776Z</time></trkpt><trkpt lat="44.3460088" lon="7.7504872"><ele>587.0</ele><time>2026-05-03T11:06:15.77Z</time></trkpt><trkpt lat="44.3460591" lon="7.7506707"><ele>587.0</ele><time>2026-05-03T11:06:16.767Z</time></trkpt><trkpt lat="44.3461127" lon="7.7508625"><ele>587.0</ele><time>2026-05-03T11:06:17.777Z</time></trkpt><trkpt lat="44.3461622" lon="7.7510603"><ele>587.0</ele><time>2026-05-03T11:06:18.775Z</time></trkpt><trkpt lat="44.3461973" lon="7.7512513"><ele>587.0</ele><time>2026-05-03T11:06:19.766Z</time></trkpt><trkpt lat="44.3462235" lon="7.7514365"><ele>586.75</ele><time>2026-05-03T11:06:20.771Z</time></trkpt><trkpt lat="44.3462489" lon="7.7516125"><ele>586.5</ele><time>2026-05-03T11:06:21.772Z</time></trkpt><trkpt lat="44.3462768" lon="7.7517814"><ele>586.25</ele><time>2026-05-03T11:06:22.769Z</time></trkpt><trkpt lat="44.3463121" lon="7.7519475"><ele>586.0</ele><time>2026-05-03T11:06:23.767Z</time></trkpt><trkpt lat="44.3463542" lon="7.7521273"><ele>580.3333333333334</ele><time>2026-05-03T11:06:24.777Z</time></trkpt><trkpt lat="44.346391" lon="7.7523228"><ele>574.6666666666666</ele><time>2026-05-03T11:06:25.768Z</time></trkpt><trkpt lat="44.34643" lon="7.7525339"><ele>569.0</ele><time>2026-05-03T11:06:26.77Z</time></trkpt><trkpt lat="44.3464697" lon="7.7527482"><ele>568.6666666666666</ele><time>2026-05-03T11:06:27.766Z</time></trkpt><trkpt lat="44.3465047" lon="7.7529606"><ele>568.3333333333334</ele><time>2026-05-03T11:06:28.773Z</time></trkpt><trkpt lat="44.3465291" lon="7.7531798"><ele>568.0</ele><time>2026-05-03T11:06:29.775Z</time></trkpt><trkpt lat="44.3465347" lon="7.753406"><ele>567.0</ele><time>2026-05-03T11:06:30.809Z</time></trkpt><trkpt lat="44.3465217" lon="7.7536344"><ele>566.0</ele><time>2026-05-03T11:06:31.769Z</time></trkpt><trkpt lat="44.3465012" lon="7.7538619"><ele>565.0</ele><time>2026-05-03T11:06:32.781Z</time></trkpt><trkpt lat="44.3464807" lon="7.7540917"><ele>565.0</ele><time>2026-05-03T11:06:33.766Z</time></trkpt><trkpt lat="44.34646" lon="7.7543123"><ele>565.0</ele><time>2026-05-03T11:06:34.773Z</time></trkpt><trkpt lat="44.3464402" lon="7.7545294"><ele>565.0</ele><time>2026-05-03T11:06:35.771Z</time></trkpt><trkpt lat="44.3464228" lon="7.7547457"><ele>564.3333333333334</ele><time>2026-05-03T11:06:36.771Z</time></trkpt><trkpt lat="44.346407" lon="7.7549609"><ele>563.6666666666666</ele><time>2026-05-03T11:06:37.762Z</time></trkpt><trkpt lat="44.3463929" lon="7.7551739"><ele>563.0</ele><time>2026-05-03T11:06:38.766Z</time></trkpt><trkpt lat="44.3463772" lon="7.7553806"><ele>565.25</ele><time>2026-05-03T11:06:39.766Z</time></trkpt><trkpt lat="44.3463602" lon="7.7555871"><ele>567.5</ele><time>2026-05-03T11:06:40.766Z</time></trkpt><trkpt lat="44.3463444" lon="7.7557935"><ele>569.75</ele><time>2026-05-03T11:06:41.765Z</time></trkpt><trkpt lat="44.3463289" lon="7.7560051"><ele>572.0</ele><time>2026-05-03T11:06:42.77Z</time></trkpt><trkpt lat="44.3463155" lon="7.7562189"><ele>572.0</ele><time>2026-05-03T11:06:43.772Z</time></trkpt><trkpt lat="44.3463026" lon="7.7564392"><ele>572.0</ele><time>2026-05-03T11:06:44.77Z</time></trkpt><trkpt lat="44.3462912" lon="7.7566655"><ele>572.0</ele><time>2026-05-03T11:06:45.769Z</time></trkpt><trkpt lat="44.3462809" lon="7.7568948"><ele>572.0</ele><time>2026-05-03T11:06:46.765Z</time></trkpt><trkpt lat="44.3462706" lon="7.7571256"><ele>572.0</ele><time>2026-05-03T11:06:47.776Z</time></trkpt><trkpt lat="44.3462602" lon="7.7573602"><ele>572.0</ele><time>2026-05-03T11:06:48.769Z</time></trkpt><trkpt lat="44.3462511" lon="7.7575969"><ele>570.3333333333333</ele><time>2026-05-03T11:06:49.771Z</time></trkpt><trkpt lat="44.3462428" lon="7.757836"><ele>568.6666666666666</ele><time>2026-05-03T11:06:50.772Z</time></trkpt><trkpt lat="44.3462338" lon="7.7580766"><ele>567.0</ele><time>2026-05-03T11:06:51.77Z</time></trkpt><trkpt lat="44.3462231" lon="7.7583193"><ele>566.0</ele><time>2026-05-03T11:06:52.772Z</time></trkpt><trkpt lat="44.3462107" lon="7.7585566"><ele>565.0</ele><time>2026-05-03T11:06:53.769Z</time></trkpt><trkpt lat="44.3461997" lon="7.7587804"><ele>564.0</ele><time>2026-05-03T11:06:54.771Z</time></trkpt><trkpt lat="44.3461925" lon="7.7589895"><ele>564.0</ele><time>2026-05-03T11:06:55.769Z</time></trkpt><trkpt lat="44.3461952" lon="7.7591858"><ele>564.0</ele><time>2026-05-03T11:06:56.772Z</time></trkpt><trkpt lat="44.3462131" lon="7.7593776"><ele>564.0</ele><time>2026-05-03T11:06:57.769Z</time></trkpt><trkpt lat="44.3462532" lon="7.7595702"><ele>564.0</ele><time>2026-05-03T11:06:58.767Z</time></trkpt><trkpt lat="44.3463198" lon="7.7597601"><ele>557.6666666666666</ele><time>2026-05-03T11:06:59.77Z</time></trkpt><trkpt lat="44.3464135" lon="7.7599368"><ele>551.3333333333333</ele><time>2026-05-03T11:07:00.77Z</time></trkpt><trkpt lat="44.3465267" lon="7.7600918"><ele>545.0</ele><time>2026-05-03T11:07:01.77Z</time></trkpt><trkpt lat="44.3466503" lon="7.760229"><ele>545.0</ele><time>2026-05-03T11:07:02.773Z</time></trkpt><trkpt lat="44.3467733" lon="7.7603538"><ele>545.0</ele><time>2026-05-03T11:07:03.785Z</time></trkpt><trkpt lat="44.346892" lon="7.7604733"><ele>545.0</ele><time>2026-05-03T11:07:04.771Z</time></trkpt><trkpt lat="44.3470056" lon="7.7605895"><ele>545.0</ele><time>2026-05-03T11:07:05.77Z</time></trkpt><trkpt lat="44.3471203" lon="7.7607067"><ele>544.5</ele><time>2026-05-03T11:07:06.761Z</time></trkpt><trkpt lat="44.3472378" lon="7.7608264"><ele>544.0</ele><time>2026-05-03T11:07:07.767Z</time></trkpt><trkpt lat="44.3473592" lon="7.7609499"><ele>543.5</ele><time>2026-05-03T11:07:08.77Z</time></trkpt><trkpt lat="44.3474826" lon="7.7610785"><ele>543.0</ele><time>2026-05-03T11:07:09.774Z</time></trkpt><trkpt lat="44.3476107" lon="7.7612099"><ele>543.0</ele><time>2026-05-03T11:07:10.765Z</time></trkpt><trkpt lat="44.3477429" lon="7.7613438"><ele>543.0</ele><time>2026-05-03T11:07:11.772Z</time></trkpt><trkpt lat="44.3478766" lon="7.7614804"><ele>543.0</ele><time>2026-05-03T11:07:12.767Z</time></trkpt><trkpt lat="44.3480075" lon="7.7616221"><ele>543.0</ele><time>2026-05-03T11:07:13.77Z</time></trkpt><trkpt lat="44.3481361" lon="7.7617735"><ele>543.0</ele><time>2026-05-03T11:07:14.768Z</time></trkpt><trkpt lat="44.3482552" lon="7.7619413"><ele>543.0</ele><time>2026-05-03T11:07:15.772Z</time></trkpt><trkpt lat="44.3483603" lon="7.7621235"><ele>542.0</ele><time>2026-05-03T11:07:16.814Z</time></trkpt><trkpt lat="44.3484499" lon="7.7623097"><ele>541.0</ele><time>2026-05-03T11:07:17.772Z</time></trkpt><trkpt lat="44.3485261" lon="7.7624988"><ele>540.0</ele><time>2026-05-03T11:07:18.772Z</time></trkpt><trkpt lat="44.3485898" lon="7.7626936"><ele>539.0</ele><time>2026-05-03T11:07:19.774Z</time></trkpt><trkpt lat="44.3486399" lon="7.7628908"><ele>538.0</ele><time>2026-05-03T11:07:20.775Z</time></trkpt><trkpt lat="44.3486757" lon="7.7630874"><ele>537.0</ele><time>2026-05-03T11:07:21.768Z</time></trkpt><trkpt lat="44.3486983" lon="7.7632846"><ele>536.0</ele><time>2026-05-03T11:07:22.765Z</time></trkpt><trkpt lat="44.34871" lon="7.7634834"><ele>535.5</ele><time>2026-05-03T11:07:23.766Z</time></trkpt><trkpt lat="44.3487127" lon="7.7636856"><ele>535.0</ele><time>2026-05-03T11:07:24.773Z</time></trkpt><trkpt lat="44.3487055" lon="7.7638895"><ele>534.5</ele><time>2026-05-03T11:07:25.769Z</time></trkpt><trkpt lat="44.3486868" lon="7.7640912"><ele>534.0</ele><time>2026-05-03T11:07:26.767Z</time></trkpt><trkpt lat="44.3486655" lon="7.7642692"><ele>533.5</ele><time>2026-05-03T11:07:27.768Z</time></trkpt><trkpt lat="44.3486386" lon="7.7644611"><ele>533.0</ele><time>2026-05-03T11:07:28.769Z</time></trkpt><trkpt lat="44.3486168" lon="7.7646473"><ele>532.5</ele><time>2026-05-03T11:07:29.774Z</time></trkpt><trkpt lat="44.3485914" lon="7.7648281"><ele>532.0</ele><time>2026-05-03T11:07:30.766Z</time></trkpt><trkpt lat="44.3485605" lon="7.7650073"><ele>532.0</ele><time>2026-05-03T11:07:31.773Z</time></trkpt><trkpt lat="44.3485311" lon="7.7651692"><ele>532.0</ele><time>2026-05-03T11:07:32.769Z</time></trkpt><trkpt lat="44.3485074" lon="7.7653117"><ele>532.0</ele><time>2026-05-03T11:07:33.775Z</time></trkpt><trkpt lat="44.3484835" lon="7.7654308"><ele>532.0</ele><time>2026-05-03T11:07:34.768Z</time></trkpt><trkpt lat="44.3484572" lon="7.7655354"><ele>532.0</ele><time>2026-05-03T11:07:35.765Z</time></trkpt><trkpt lat="44.3484184" lon="7.7656224"><ele>532.2</ele><time>2026-05-03T11:07:36.766Z</time></trkpt><trkpt lat="44.3483725" lon="7.7657126"><ele>532.4000000000001</ele><time>2026-05-03T11:07:37.768Z</time></trkpt><trkpt lat="44.3483428" lon="7.7658203"><ele>532.5999999999999</ele><time>2026-05-03T11:07:38.764Z</time></trkpt><trkpt lat="44.348339" lon="7.7659487"><ele>532.8</ele><time>2026-05-03T11:07:39.765Z</time></trkpt><trkpt lat="44.3483485" lon="7.7660972"><ele>533.0</ele><time>2026-05-03T11:07:40.77Z</time></trkpt><trkpt lat="44.348356" lon="7.7662589"><ele>532.5</ele><time>2026-05-03T11:07:41.767Z</time></trkpt><trkpt lat="44.3483575" lon="7.7664225"><ele>532.0</ele><time>2026-05-03T11:07:42.767Z</time></trkpt><trkpt lat="44.3483543" lon="7.7665807"><ele>531.5</ele><time>2026-05-03T11:07:43.771Z</time></trkpt><trkpt lat="44.3483409" lon="7.7667403"><ele>531.0</ele><time>2026-05-03T11:07:44.768Z</time></trkpt><trkpt lat="44.3483113" lon="7.7669057"><ele>530.5</ele><time>2026-05-03T11:07:45.77Z</time></trkpt><trkpt lat="44.3482691" lon="7.7670735"><ele>530.0</ele><time>2026-05-03T11:07:46.769Z</time></trkpt><trkpt lat="44.348218" lon="7.7672471"><ele>529.5</ele><time>2026-05-03T11:07:47.773Z</time></trkpt><trkpt lat="44.3481697" lon="7.7674348"><ele>529.0</ele><time>2026-05-03T11:07:48.764Z</time></trkpt><trkpt lat="44.3481313" lon="7.7676443"><ele>527.6666666666667</ele><time>2026-05-03T11:07:49.765Z</time></trkpt><trkpt lat="44.3480975" lon="7.7678621"><ele>526.3333333333334</ele><time>2026-05-03T11:07:50.767Z</time></trkpt><trkpt lat="44.3480648" lon="7.7680718"><ele>525.0</ele><time>2026-05-03T11:07:51.77Z</time></trkpt><trkpt lat="44.3480326" lon="7.7682741"><ele>524.5</ele><time>2026-05-03T11:07:52.773Z</time></trkpt><trkpt lat="44.3480011" lon="7.7684706"><ele>524.0</ele><time>2026-05-03T11:07:53.766Z</time></trkpt><trkpt lat="44.3479703" lon="7.7686708"><ele>523.5</ele><time>2026-05-03T11:07:54.771Z</time></trkpt><trkpt lat="44.3479395" lon="7.7688727"><ele>523.0</ele><time>2026-05-03T11:07:55.766Z</time></trkpt><trkpt lat="44.3479084" lon="7.7690684"><ele>522.0</ele><time>2026-05-03T11:07:56.814Z</time></trkpt><trkpt lat="44.3478813" lon="7.7692532"><ele>521.0</ele><time>2026-05-03T11:07:57.767Z</time></trkpt><trkpt lat="44.3478557" lon="7.7694256"><ele>520.0</ele><time>2026-05-03T11:07:58.776Z</time></trkpt><trkpt lat="44.3478338" lon="7.7695839"><ele>519.0</ele><time>2026-05-03T11:07:59.775Z</time></trkpt><trkpt lat="44.3478122" lon="7.769724"><ele>518.5</ele><time>2026-05-03T11:08:00.764Z</time></trkpt><trkpt lat="44.3477832" lon="7.7698503"><ele>518.0</ele><time>2026-05-03T11:08:01.77Z</time></trkpt><trkpt lat="44.3477386" lon="7.7699511"><ele>517.5</ele><time>2026-05-03T11:08:02.766Z</time></trkpt><trkpt lat="44.3476747" lon="7.7700298"><ele>517.0</ele><time>2026-05-03T11:08:03.769Z</time></trkpt><trkpt lat="44.3476021" lon="7.7700968"><ele>516.5</ele><time>2026-05-03T11:08:04.776Z</time></trkpt><trkpt lat="44.3475419" lon="7.7701706"><ele>516.0</ele><time>2026-05-03T11:08:05.776Z</time></trkpt><trkpt lat="44.3475035" lon="7.7702628"><ele>515.5</ele><time>2026-05-03T11:08:06.771Z</time></trkpt><trkpt lat="44.3474974" lon="7.7703686"><ele>515.0</ele><time>2026-05-03T11:08:07.768Z</time></trkpt><trkpt lat="44.3475014" lon="7.7704749"><ele>514.5</ele><time>2026-05-03T11:08:08.767Z</time></trkpt><trkpt lat="44.3475597" lon="7.7705695"><ele>514.0</ele><time>2026-05-03T11:08:09.769Z</time></trkpt><trkpt lat="44.347625" lon="7.7706571"><ele>513.5</ele><time>2026-05-03T11:08:10.786Z</time></trkpt><trkpt lat="44.3476779" lon="7.770758"><ele>513.0</ele><time>2026-05-03T11:08:11.771Z</time></trkpt><trkpt lat="44.3477154" lon="7.7708732"><ele>513.0</ele><time>2026-05-03T11:08:12.769Z</time></trkpt><trkpt lat="44.3477509" lon="7.7709841"><ele>513.0</ele><time>2026-05-03T11:08:13.773Z</time></trkpt><trkpt lat="44.347759" lon="7.7711187"><ele>513.0</ele><time>2026-05-03T11:08:14.768Z</time></trkpt><trkpt lat="44.3477484" lon="7.7712696"><ele>513.0</ele><time>2026-05-03T11:08:15.77Z</time></trkpt><trkpt lat="44.3477252" lon="7.7714376"><ele>513.0</ele><time>2026-05-03T11:08:16.769Z</time></trkpt><trkpt lat="44.3476864" lon="7.7716265"><ele>511.66666666666663</ele><time>2026-05-03T11:08:17.769Z</time></trkpt><trkpt lat="44.3476333" lon="7.7718318"><ele>510.3333333333333</ele><time>2026-05-03T11:08:18.765Z</time></trkpt><trkpt lat="44.3475765" lon="7.772046"><ele>509.0</ele><time>2026-05-03T11:08:19.766Z</time></trkpt><trkpt lat="44.3475179" lon="7.7722711"><ele>508.66666666666663</ele><time>2026-05-03T11:08:20.767Z</time></trkpt><trkpt lat="44.3474614" lon="7.7724966"><ele>508.33333333333337</ele><time>2026-05-03T11:08:21.765Z</time></trkpt><trkpt lat="44.3474019" lon="7.7727268"><ele>508.0</ele><time>2026-05-03T11:08:22.767Z</time></trkpt><trkpt lat="44.3473416" lon="7.7729534"><ele>507.6666666666667</ele><time>2026-05-03T11:08:23.778Z</time></trkpt><trkpt lat="44.34728" lon="7.7731752"><ele>507.33333333333337</ele><time>2026-05-03T11:08:24.766Z</time></trkpt><trkpt lat="44.3472187" lon="7.7733976"><ele>507.0</ele><time>2026-05-03T11:08:25.767Z</time></trkpt><trkpt lat="44.3471569" lon="7.7736177"><ele>507.66666666666663</ele><time>2026-05-03T11:08:26.812Z</time></trkpt><trkpt lat="44.3470948" lon="7.7738301"><ele>508.3333333333333</ele><time>2026-05-03T11:08:27.771Z</time></trkpt><trkpt lat="44.3470254" lon="7.7740383"><ele>509.0</ele><time>2026-05-03T11:08:28.767Z</time></trkpt><trkpt lat="44.3469471" lon="7.7742415"><ele>508.3333333333333</ele><time>2026-05-03T11:08:29.767Z</time></trkpt><trkpt lat="44.3468611" lon="7.7744308"><ele>507.66666666666663</ele><time>2026-05-03T11:08:30.764Z</time></trkpt><trkpt lat="44.3467691" lon="7.774608"><ele>507.0</ele><time>2026-05-03T11:08:31.77Z</time></trkpt><trkpt lat="44.3466731" lon="7.7747791"><ele>507.0</ele><time>2026-05-03T11:08:32.766Z</time></trkpt><trkpt lat="44.3465718" lon="7.7749472"><ele>507.0</ele><time>2026-05-03T11:08:33.769Z</time></trkpt><trkpt lat="44.3464638" lon="7.7751142"><ele>507.0</ele><time>2026-05-03T11:08:34.77Z</time></trkpt><trkpt lat="44.3463476" lon="7.775275"><ele>507.33333333333337</ele><time>2026-05-03T11:08:35.77Z</time></trkpt><trkpt lat="44.3462251" lon="7.7754237"><ele>507.6666666666667</ele><time>2026-05-03T11:08:36.762Z</time></trkpt><trkpt lat="44.3460971" lon="7.7755654"><ele>508.0</ele><time>2026-05-03T11:08:37.768Z</time></trkpt><trkpt lat="44.3459656" lon="7.7757014"><ele>508.0</ele><time>2026-05-03T11:08:38.767Z</time></trkpt><trkpt lat="44.3458313" lon="7.7758339"><ele>508.0</ele><time>2026-05-03T11:08:39.764Z</time></trkpt><trkpt lat="44.345695" lon="7.7759613"><ele>508.0</ele><time>2026-05-03T11:08:40.766Z</time></trkpt><trkpt lat="44.345564" lon="7.7760783"><ele>507.33333333333337</ele><time>2026-05-03T11:08:41.763Z</time></trkpt><trkpt lat="44.3454329" lon="7.7761912"><ele>506.66666666666663</ele><time>2026-05-03T11:08:42.765Z</time></trkpt><trkpt lat="44.3452984" lon="7.7763052"><ele>506.0</ele><time>2026-05-03T11:08:43.774Z</time></trkpt><trkpt lat="44.345165" lon="7.7764166"><ele>506.0</ele><time>2026-05-03T11:08:44.765Z</time></trkpt><trkpt lat="44.3450337" lon="7.7765233"><ele>506.0</ele><time>2026-05-03T11:08:45.76Z</time></trkpt><trkpt lat="44.3449022" lon="7.7766274"><ele>506.0</ele><time>2026-05-03T11:08:46.772Z</time></trkpt><trkpt lat="44.3447702" lon="7.7767277"><ele>504.66666666666663</ele><time>2026-05-03T11:08:47.768Z</time></trkpt><trkpt lat="44.344634" lon="7.7768249"><ele>503.33333333333337</ele><time>2026-05-03T11:08:48.772Z</time></trkpt><trkpt lat="44.344493" lon="7.7769171"><ele>502.0</ele><time>2026-05-03T11:08:49.764Z</time></trkpt><trkpt lat="44.3443481" lon="7.7770037"><ele>500.6666666666667</ele><time>2026-05-03T11:08:50.773Z</time></trkpt><trkpt lat="44.3442012" lon="7.7770849"><ele>499.33333333333337</ele><time>2026-05-03T11:08:51.769Z</time></trkpt><trkpt lat="44.3440529" lon="7.7771611"><ele>498.0</ele><time>2026-05-03T11:08:52.768Z</time></trkpt><trkpt lat="44.3439033" lon="7.7772273"><ele>497.0</ele><time>2026-05-03T11:08:53.767Z</time></trkpt><trkpt lat="44.3437522" lon="7.7772858"><ele>496.0</ele><time>2026-05-03T11:08:54.767Z</time></trkpt><trkpt lat="44.3435973" lon="7.7773386"><ele>495.0</ele><time>2026-05-03T11:08:55.767Z</time></trkpt><trkpt lat="44.3434387" lon="7.7773813"><ele>495.0</ele><time>2026-05-03T11:08:56.77Z</time></trkpt><trkpt lat="44.3432731" lon="7.777416"><ele>495.0</ele><time>2026-05-03T11:08:57.767Z</time></trkpt><trkpt lat="44.3431007" lon="7.777447"><ele>495.0</ele><time>2026-05-03T11:08:58.767Z</time></trkpt><trkpt lat="44.3429216" lon="7.7774761"><ele>495.33333333333337</ele><time>2026-05-03T11:08:59.772Z</time></trkpt><trkpt lat="44.3427396" lon="7.7775045"><ele>495.6666666666667</ele><time>2026-05-03T11:09:00.768Z</time></trkpt><trkpt lat="44.3425574" lon="7.7775313"><ele>496.0</ele><time>2026-05-03T11:09:01.765Z</time></trkpt><trkpt lat="44.342375" lon="7.7775568"><ele>495.0</ele><time>2026-05-03T11:09:02.769Z</time></trkpt><trkpt lat="44.3421958" lon="7.7775831"><ele>494.0</ele><time>2026-05-03T11:09:03.769Z</time></trkpt><trkpt lat="44.3420236" lon="7.777609"><ele>493.0</ele><time>2026-05-03T11:09:04.766Z</time></trkpt><trkpt lat="44.3418583" lon="7.7776347"><ele>493.0</ele><time>2026-05-03T11:09:05.768Z</time></trkpt><trkpt lat="44.3416972" lon="7.7776597"><ele>493.0</ele><time>2026-05-03T11:09:06.769Z</time></trkpt><trkpt lat="44.3415393" lon="7.7776822"><ele>493.0</ele><time>2026-05-03T11:09:07.759Z</time></trkpt><trkpt lat="44.3413856" lon="7.7777034"><ele>492.0</ele><time>2026-05-03T11:09:08.762Z</time></trkpt><trkpt lat="44.3412367" lon="7.7777248"><ele>491.0</ele><time>2026-05-03T11:09:09.765Z</time></trkpt><trkpt lat="44.3410916" lon="7.7777479"><ele>490.0</ele><time>2026-05-03T11:09:10.77Z</time></trkpt><trkpt lat="44.3409513" lon="7.7777695"><ele>489.0</ele><time>2026-05-03T11:09:11.766Z</time></trkpt><trkpt lat="44.3408215" lon="7.7777893"><ele>489.0</ele><time>2026-05-03T11:09:12.765Z</time></trkpt><trkpt lat="44.3406985" lon="7.7778113"><ele>489.0</ele><time>2026-05-03T11:09:13.775Z</time></trkpt><trkpt lat="44.3405789" lon="7.7778344"><ele>489.0</ele><time>2026-05-03T11:09:14.774Z</time></trkpt><trkpt lat="44.3404613" lon="7.7778591"><ele>489.0</ele><time>2026-05-03T11:09:15.768Z</time></trkpt><trkpt lat="44.3403521" lon="7.7778826"><ele>489.6</ele><time>2026-05-03T11:09:16.773Z</time></trkpt><trkpt lat="44.3402458" lon="7.7779059"><ele>490.2</ele><time>2026-05-03T11:09:17.765Z</time></trkpt><trkpt lat="44.3401402" lon="7.7779252"><ele>490.80000000000007</ele><time>2026-05-03T11:09:18.771Z</time></trkpt><trkpt lat="44.3400376" lon="7.7779373"><ele>491.40000000000003</ele><time>2026-05-03T11:09:19.773Z</time></trkpt><trkpt lat="44.3399414" lon="7.7779396"><ele>492.0</ele><time>2026-05-03T11:09:20.763Z</time></trkpt><trkpt lat="44.3398586" lon="7.7779435"><ele>492.0</ele><time>2026-05-03T11:09:21.77Z</time></trkpt><trkpt lat="44.3397904" lon="7.7779706"><ele>492.0</ele><time>2026-05-03T11:09:22.77Z</time></trkpt><trkpt lat="44.33974" lon="7.7780282"><ele>492.0</ele><time>2026-05-03T11:09:23.767Z</time></trkpt><trkpt lat="44.3397251" lon="7.7782004"><ele>492.0</ele><time>2026-05-03T11:09:25.771Z</time></trkpt><trkpt lat="44.3397651" lon="7.7782978"><ele>492.0</ele><time>2026-05-03T11:09:26.773Z</time></trkpt><trkpt lat="44.3398286" lon="7.7783931"><ele>492.0</ele><time>2026-05-03T11:09:27.768Z</time></trkpt><trkpt lat="44.3399004" lon="7.7784979"><ele>492.0</ele><time>2026-05-03T11:09:28.767Z</time></trkpt><trkpt lat="44.3399728" lon="7.7786246"><ele>492.0</ele><time>2026-05-03T11:09:29.767Z</time></trkpt><trkpt lat="44.3400469" lon="7.7787684"><ele>492.0</ele><time>2026-05-03T11:09:30.772Z</time></trkpt><trkpt lat="44.3401268" lon="7.7789216"><ele>492.0</ele><time>2026-05-03T11:09:31.773Z</time></trkpt><trkpt lat="44.3402104" lon="7.7790776"><ele>492.0</ele><time>2026-05-03T11:09:32.766Z</time></trkpt><trkpt lat="44.3402973" lon="7.7792384"><ele>492.0</ele><time>2026-05-03T11:09:33.763Z</time></trkpt><trkpt lat="44.3403868" lon="7.7794058"><ele>492.0</ele><time>2026-05-03T11:09:34.762Z</time></trkpt><trkpt lat="44.3404791" lon="7.7795812"><ele>492.0</ele><time>2026-05-03T11:09:35.768Z</time></trkpt><trkpt lat="44.340574" lon="7.7797609"><ele>491.33333333333337</ele><time>2026-05-03T11:09:36.77Z</time></trkpt><trkpt lat="44.3406702" lon="7.7799417"><ele>490.6666666666667</ele><time>2026-05-03T11:09:37.769Z</time></trkpt><trkpt lat="44.340765" lon="7.7801197"><ele>490.0</ele><time>2026-05-03T11:09:38.767Z</time></trkpt><trkpt lat="44.3408568" lon="7.7802932"><ele>490.0</ele><time>2026-05-03T11:09:39.769Z</time></trkpt><trkpt lat="44.340948" lon="7.7804643"><ele>490.0</ele><time>2026-05-03T11:09:40.801Z</time></trkpt><trkpt lat="44.3410379" lon="7.7806336"><ele>490.0</ele><time>2026-05-03T11:09:41.765Z</time></trkpt><trkpt lat="44.3411269" lon="7.7808015"><ele>490.0</ele><time>2026-05-03T11:09:42.771Z</time></trkpt><trkpt lat="44.3412153" lon="7.7809695"><ele>490.0</ele><time>2026-05-03T11:09:43.768Z</time></trkpt><trkpt lat="44.3413037" lon="7.7811388"><ele>490.0</ele><time>2026-05-03T11:09:44.764Z</time></trkpt><trkpt lat="44.3413934" lon="7.7813077"><ele>490.33333333333337</ele><time>2026-05-03T11:09:45.762Z</time></trkpt><trkpt lat="44.341485" lon="7.781478"><ele>490.66666666666663</ele><time>2026-05-03T11:09:46.763Z</time></trkpt><trkpt lat="44.3415787" lon="7.7816514"><ele>491.0</ele><time>2026-05-03T11:09:47.761Z</time></trkpt><trkpt lat="44.3416736" lon="7.7818297"><ele>491.0</ele><time>2026-05-03T11:09:48.776Z</time></trkpt><trkpt lat="44.3417696" lon="7.7820147"><ele>491.0</ele><time>2026-05-03T11:09:49.773Z</time></trkpt><trkpt lat="44.3418669" lon="7.7822048"><ele>491.0</ele><time>2026-05-03T11:09:50.771Z</time></trkpt><trkpt lat="44.3419684" lon="7.7823992"><ele>491.0</ele><time>2026-05-03T11:09:51.769Z</time></trkpt><trkpt lat="44.3420747" lon="7.7825981"><ele>491.0</ele><time>2026-05-03T11:09:52.768Z</time></trkpt><trkpt lat="44.3421835" lon="7.7828015"><ele>491.0</ele><time>2026-05-03T11:09:53.768Z</time></trkpt><trkpt lat="44.3422927" lon="7.7830061"><ele>490.66666666666663</ele><time>2026-05-03T11:09:54.768Z</time></trkpt><trkpt lat="44.3424039" lon="7.7832154"><ele>490.33333333333337</ele><time>2026-05-03T11:09:55.772Z</time></trkpt><trkpt lat="44.3425176" lon="7.7834287"><ele>490.0</ele><time>2026-05-03T11:09:56.772Z</time></trkpt><trkpt lat="44.3426332" lon="7.7836452"><ele>489.33333333333337</ele><time>2026-05-03T11:09:57.763Z</time></trkpt><trkpt lat="44.34275" lon="7.783865"><ele>488.66666666666663</ele><time>2026-05-03T11:09:58.762Z</time></trkpt><trkpt lat="44.3428685" lon="7.7840887"><ele>488.0</ele><time>2026-05-03T11:09:59.766Z</time></trkpt><trkpt lat="44.3429887" lon="7.7843161"><ele>487.66666666666663</ele><time>2026-05-03T11:10:00.771Z</time></trkpt><trkpt lat="44.3431106" lon="7.784547"><ele>487.33333333333337</ele><time>2026-05-03T11:10:01.763Z</time></trkpt><trkpt lat="44.3432353" lon="7.7847814"><ele>487.0</ele><time>2026-05-03T11:10:02.763Z</time></trkpt><trkpt lat="44.3433622" lon="7.7850198"><ele>486.6666666666667</ele><time>2026-05-03T11:10:03.762Z</time></trkpt><trkpt lat="44.3434895" lon="7.7852588"><ele>486.33333333333337</ele><time>2026-05-03T11:10:04.768Z</time></trkpt><trkpt lat="44.3436179" lon="7.785501"><ele>486.0</ele><time>2026-05-03T11:10:05.767Z</time></trkpt><trkpt lat="44.343747" lon="7.7857454"><ele>486.0</ele><time>2026-05-03T11:10:06.766Z</time></trkpt><trkpt lat="44.3438756" lon="7.785991"><ele>486.0</ele><time>2026-05-03T11:10:07.768Z</time></trkpt><trkpt lat="44.3440042" lon="7.7862364"><ele>486.0</ele><time>2026-05-03T11:10:08.77Z</time></trkpt><trkpt lat="44.3441288" lon="7.7864723"><ele>485.33333333333337</ele><time>2026-05-03T11:10:09.763Z</time></trkpt><trkpt lat="44.3442476" lon="7.7866936"><ele>484.6666666666667</ele><time>2026-05-03T11:10:10.773Z</time></trkpt><trkpt lat="44.3443619" lon="7.7869067"><ele>484.0</ele><time>2026-05-03T11:10:11.771Z</time></trkpt><trkpt lat="44.3444766" lon="7.7871214"><ele>483.6666666666667</ele><time>2026-05-03T11:10:12.771Z</time></trkpt><trkpt lat="44.3445911" lon="7.7873389"><ele>483.33333333333337</ele><time>2026-05-03T11:10:13.775Z</time></trkpt><trkpt lat="44.3447058" lon="7.7875585"><ele>483.0</ele><time>2026-05-03T11:10:14.766Z</time></trkpt><trkpt lat="44.3448211" lon="7.7877797"><ele>482.66666666666663</ele><time>2026-05-03T11:10:15.769Z</time></trkpt><trkpt lat="44.344937" lon="7.7880003"><ele>482.3333333333333</ele><time>2026-05-03T11:10:16.775Z</time></trkpt><trkpt lat="44.3450505" lon="7.7882117"><ele>482.0</ele><time>2026-05-03T11:10:17.771Z</time></trkpt><trkpt lat="44.3451642" lon="7.7884204"><ele>481.66666666666663</ele><time>2026-05-03T11:10:18.77Z</time></trkpt><trkpt lat="44.3452773" lon="7.7886296"><ele>481.33333333333337</ele><time>2026-05-03T11:10:19.766Z</time></trkpt><trkpt lat="44.3453896" lon="7.7888401"><ele>481.0</ele><time>2026-05-03T11:10:20.774Z</time></trkpt><trkpt lat="44.345501" lon="7.7890502"><ele>480.6666666666667</ele><time>2026-05-03T11:10:21.776Z</time></trkpt><trkpt lat="44.3456065" lon="7.7892519"><ele>480.33333333333337</ele><time>2026-05-03T11:10:22.77Z</time></trkpt><trkpt lat="44.345704" lon="7.7894404"><ele>480.0</ele><time>2026-05-03T11:10:23.765Z</time></trkpt><trkpt lat="44.3457934" lon="7.7896144"><ele>480.0</ele><time>2026-05-03T11:10:24.763Z</time></trkpt><trkpt lat="44.3458771" lon="7.7897727"><ele>480.0</ele><time>2026-05-03T11:10:25.765Z</time></trkpt><trkpt lat="44.3459574" lon="7.7899174"><ele>480.0</ele><time>2026-05-03T11:10:26.772Z</time></trkpt><trkpt lat="44.3460368" lon="7.7900561"><ele>480.0</ele><time>2026-05-03T11:10:27.769Z</time></trkpt><trkpt lat="44.3461138" lon="7.7901867"><ele>480.0</ele><time>2026-05-03T11:10:28.797Z</time></trkpt><trkpt lat="44.3461891" lon="7.7903097"><ele>480.0</ele><time>2026-05-03T11:10:29.772Z</time></trkpt><trkpt lat="44.3462614" lon="7.7904231"><ele>480.0</ele><time>2026-05-03T11:10:30.771Z</time></trkpt><trkpt lat="44.3463278" lon="7.7905248"><ele>480.0</ele><time>2026-05-03T11:10:31.768Z</time></trkpt><trkpt lat="44.3463858" lon="7.7906111"><ele>480.0</ele><time>2026-05-03T11:10:32.767Z</time></trkpt><trkpt lat="44.3464354" lon="7.7906807"><ele>480.0</ele><time>2026-05-03T11:10:33.765Z</time></trkpt><trkpt lat="44.3464965" lon="7.7907832"><ele>480.0</ele><time>2026-05-03T11:10:35.774Z</time></trkpt><trkpt lat="44.3464859" lon="7.7908782"><ele>480.0</ele><time>2026-05-03T11:10:37.766Z</time></trkpt><trkpt lat="44.3464259" lon="7.7909863"><ele>480.0</ele><time>2026-05-03T11:10:39.769Z</time></trkpt><trkpt lat="44.346376" lon="7.7910511"><ele>480.0</ele><time>2026-05-03T11:10:40.769Z</time></trkpt><trkpt lat="44.3463194" lon="7.7911214"><ele>480.0</ele><time>2026-05-03T11:10:41.765Z</time></trkpt><trkpt lat="44.3462618" lon="7.7911914"><ele>480.2</ele><time>2026-05-03T11:10:42.763Z</time></trkpt><trkpt lat="44.3461944" lon="7.7912573"><ele>480.4</ele><time>2026-05-03T11:10:43.768Z</time></trkpt><trkpt lat="44.3461199" lon="7.7913392"><ele>480.6</ele><time>2026-05-03T11:10:44.771Z</time></trkpt><trkpt lat="44.3460435" lon="7.7914278"><ele>480.8</ele><time>2026-05-03T11:10:45.762Z</time></trkpt><trkpt lat="44.3459608" lon="7.7915212"><ele>481.0</ele><time>2026-05-03T11:10:46.772Z</time></trkpt><trkpt lat="44.3458717" lon="7.791631"><ele>481.0</ele><time>2026-05-03T11:10:47.767Z</time></trkpt><trkpt lat="44.3457818" lon="7.7917509"><ele>481.0</ele><time>2026-05-03T11:10:48.768Z</time></trkpt><trkpt lat="44.3456877" lon="7.7918695"><ele>481.0</ele><time>2026-05-03T11:10:49.769Z</time></trkpt><trkpt lat="44.3456017" lon="7.7919731"><ele>481.0</ele><time>2026-05-03T11:10:50.768Z</time></trkpt><trkpt lat="44.3455245" lon="7.7920669"><ele>482.33333333333337</ele><time>2026-05-03T11:10:51.764Z</time></trkpt><trkpt lat="44.3454576" lon="7.7921533"><ele>483.6666666666667</ele><time>2026-05-03T11:10:52.786Z</time></trkpt><trkpt lat="44.3453999" lon="7.7922353"><ele>485.0</ele><time>2026-05-03T11:10:53.768Z</time></trkpt><trkpt lat="44.3453427" lon="7.7923076"><ele>486.33333333333337</ele><time>2026-05-03T11:10:54.767Z</time></trkpt><trkpt lat="44.3452884" lon="7.7923736"><ele>487.6666666666667</ele><time>2026-05-03T11:10:55.762Z</time></trkpt><trkpt lat="44.3452329" lon="7.7924338"><ele>489.0</ele><time>2026-05-03T11:10:56.769Z</time></trkpt><trkpt lat="44.3451788" lon="7.7924936"><ele>489.0</ele><time>2026-05-03T11:10:57.77Z</time></trkpt><trkpt lat="44.3451177" lon="7.7926062"><ele>489.0</ele><time>2026-05-03T11:10:59.773Z</time></trkpt><trkpt lat="44.3451262" lon="7.7927522"><ele>489.0</ele><time>2026-05-03T11:11:01.777Z</time></trkpt><trkpt lat="44.3451727" lon="7.7928452"><ele>489.0</ele><time>2026-05-03T11:11:02.773Z</time></trkpt><trkpt lat="44.3452286" lon="7.7929583"><ele>489.0</ele><time>2026-05-03T11:11:03.771Z</time></trkpt><trkpt lat="44.3452841" lon="7.7930729"><ele>490.0</ele><time>2026-05-03T11:11:04.769Z</time></trkpt><trkpt lat="44.3453431" lon="7.7931988"><ele>491.0</ele><time>2026-05-03T11:11:05.772Z</time></trkpt><trkpt lat="44.3453943" lon="7.7933182"><ele>492.0</ele><time>2026-05-03T11:11:06.772Z</time></trkpt><trkpt lat="44.3454251" lon="7.7934354"><ele>493.0</ele><time>2026-05-03T11:11:07.772Z</time></trkpt><trkpt lat="44.3454347" lon="7.7935497"><ele>494.0</ele><time>2026-05-03T11:11:08.773Z</time></trkpt><trkpt lat="44.3454344" lon="7.7936805"><ele>494.6</ele><time>2026-05-03T11:11:09.77Z</time></trkpt><trkpt lat="44.3454302" lon="7.7938212"><ele>495.2</ele><time>2026-05-03T11:11:10.768Z</time></trkpt><trkpt lat="44.3454397" lon="7.79397"><ele>495.80000000000007</ele><time>2026-05-03T11:11:11.768Z</time></trkpt><trkpt lat="44.3454584" lon="7.794122"><ele>496.40000000000003</ele><time>2026-05-03T11:11:12.769Z</time></trkpt><trkpt lat="44.3454744" lon="7.7942567"><ele>497.0</ele><time>2026-05-03T11:11:13.773Z</time></trkpt><trkpt lat="44.345498" lon="7.7943923"><ele>498.20000000000005</ele><time>2026-05-03T11:11:14.767Z</time></trkpt><trkpt lat="44.3454994" lon="7.7945462"><ele>499.40000000000003</ele><time>2026-05-03T11:11:15.778Z</time></trkpt><trkpt lat="44.3454992" lon="7.7947169"><ele>500.59999999999997</ele><time>2026-05-03T11:11:16.772Z</time></trkpt><trkpt lat="44.3455011" lon="7.794864"><ele>501.79999999999995</ele><time>2026-05-03T11:11:17.768Z</time></trkpt><trkpt lat="44.3455017" lon="7.7949972"><ele>503.0</ele><time>2026-05-03T11:11:18.773Z</time></trkpt><trkpt lat="44.3455125" lon="7.7951181"><ele>504.5714285714286</ele><time>2026-05-03T11:11:19.775Z</time></trkpt><trkpt lat="44.3455123" lon="7.7952293"><ele>506.1428571428572</ele><time>2026-05-03T11:11:20.773Z</time></trkpt><trkpt lat="44.3455122" lon="7.7953345"><ele>507.7142857142857</ele><time>2026-05-03T11:11:21.77Z</time></trkpt><trkpt lat="44.3454948" lon="7.7954286"><ele>509.28571428571433</ele><time>2026-05-03T11:11:22.767Z</time></trkpt><trkpt lat="44.3454726" lon="7.7955335"><ele>510.8571428571429</ele><time>2026-05-03T11:11:23.763Z</time></trkpt><trkpt lat="44.3454445" lon="7.7956216"><ele>512.4285714285714</ele><time>2026-05-03T11:11:24.763Z</time></trkpt><trkpt lat="44.3454344" lon="7.7957181"><ele>514.0</ele><time>2026-05-03T11:11:25.769Z</time></trkpt><trkpt lat="44.3454536" lon="7.7958345"><ele>514.0</ele><time>2026-05-03T11:11:26.766Z</time></trkpt><trkpt lat="44.3454865" lon="7.7959374"><ele>514.0</ele><time>2026-05-03T11:11:27.766Z</time></trkpt><trkpt lat="44.3455265" lon="7.7960752"><ele>514.0</ele><time>2026-05-03T11:11:28.764Z</time></trkpt><trkpt lat="44.3455663" lon="7.7961926"><ele>514.0</ele><time>2026-05-03T11:11:29.766Z</time></trkpt><trkpt lat="44.3455904" lon="7.7963214"><ele>514.0</ele><time>2026-05-03T11:11:31.775Z</time></trkpt><trkpt lat="44.3455508" lon="7.7964609"><ele>512.8</ele><time>2026-05-03T11:11:33.765Z</time></trkpt><trkpt lat="44.3454781" lon="7.7966369"><ele>511.59999999999997</ele><time>2026-05-03T11:11:35.764Z</time></trkpt><trkpt lat="44.3454222" lon="7.7967292"><ele>510.4</ele><time>2026-05-03T11:11:36.767Z</time></trkpt><trkpt lat="44.3453464" lon="7.7968083"><ele>509.2</ele><time>2026-05-03T11:11:37.768Z</time></trkpt><trkpt lat="44.345277" lon="7.7968896"><ele>508.0</ele><time>2026-05-03T11:11:38.763Z</time></trkpt><trkpt lat="44.345185" lon="7.7969848"><ele>507.00000000000006</ele><time>2026-05-03T11:11:39.765Z</time></trkpt><trkpt lat="44.3451259" lon="7.7970373"><ele>506.0</ele><time>2026-05-03T11:11:40.77Z</time></trkpt><trkpt lat="44.3450645" lon="7.7970874"><ele>505.0</ele><time>2026-05-03T11:11:41.769Z</time></trkpt><trkpt lat="44.344987" lon="7.7970992"><ele>504.0</ele><time>2026-05-03T11:11:42.762Z</time></trkpt><trkpt lat="44.3449203" lon="7.7971108"><ele>503.00000000000006</ele><time>2026-05-03T11:11:43.763Z</time></trkpt><trkpt lat="44.3448555" lon="7.7971222"><ele>502.0</ele><time>2026-05-03T11:11:44.769Z</time></trkpt><trkpt lat="44.3447752" lon="7.7972214"><ele>502.0</ele><time>2026-05-03T11:11:46.766Z</time></trkpt><trkpt lat="44.3447259" lon="7.7973939"><ele>502.00000000000006</ele><time>2026-05-03T11:11:48.762Z</time></trkpt><trkpt lat="44.3446952" lon="7.7974926"><ele>502.00000000000006</ele><time>2026-05-03T11:11:49.777Z</time></trkpt><trkpt lat="44.3446656" lon="7.7976086"><ele>502.0</ele><time>2026-05-03T11:11:50.759Z</time></trkpt><trkpt lat="44.3446553" lon="7.7977561"><ele>502.0</ele><time>2026-05-03T11:11:51.773Z</time></trkpt><trkpt lat="44.3446673" lon="7.7978938"><ele>503.20000000000005</ele><time>2026-05-03T11:11:52.768Z</time></trkpt><trkpt lat="44.3446748" lon="7.7980083"><ele>504.40000000000003</ele><time>2026-05-03T11:11:53.766Z</time></trkpt><trkpt lat="44.3446549" lon="7.7981667"><ele>505.59999999999997</ele><time>2026-05-03T11:11:55.769Z</time></trkpt><trkpt lat="44.3445924" lon="7.7983223"><ele>506.79999999999995</ele><time>2026-05-03T11:11:57.768Z</time></trkpt><trkpt lat="44.3445483" lon="7.7984144"><ele>508.0</ele><time>2026-05-03T11:11:58.768Z</time></trkpt><trkpt lat="44.3444978" lon="7.7985106"><ele>508.00000000000006</ele><time>2026-05-03T11:11:59.773Z</time></trkpt><trkpt lat="44.3444457" lon="7.7986109"><ele>508.0</ele><time>2026-05-03T11:12:00.765Z</time></trkpt><trkpt lat="44.3443961" lon="7.7986929"><ele>508.0</ele><time>2026-05-03T11:12:01.772Z</time></trkpt><trkpt lat="44.3443502" lon="7.798762"><ele>508.0</ele><time>2026-05-03T11:12:02.77Z</time></trkpt><trkpt lat="44.3442545" lon="7.7988296"><ele>508.00000000000006</ele><time>2026-05-03T11:12:04.767Z</time></trkpt><trkpt lat="44.344178" lon="7.7988405"><ele>508.0</ele><time>2026-05-03T11:12:05.768Z</time></trkpt><trkpt lat="44.3441004" lon="7.7988382"><ele>508.0</ele><time>2026-05-03T11:12:06.777Z</time></trkpt><trkpt lat="44.3440106" lon="7.798853"><ele>507.99999999999994</ele><time>2026-05-03T11:12:07.767Z</time></trkpt><trkpt lat="44.3439218" lon="7.798882"><ele>507.99999999999994</ele><time>2026-05-03T11:12:08.768Z</time></trkpt><trkpt lat="44.3438376" lon="7.7989316"><ele>508.0</ele><time>2026-05-03T11:12:09.773Z</time></trkpt><trkpt lat="44.3437527" lon="7.7989734"><ele>508.0</ele><time>2026-05-03T11:12:10.766Z</time></trkpt><trkpt lat="44.3436653" lon="7.7990303"><ele>511.2</ele><time>2026-05-03T11:12:11.767Z</time></trkpt><trkpt lat="44.3435846" lon="7.7991145"><ele>514.4</ele><time>2026-05-03T11:12:12.772Z</time></trkpt><trkpt lat="44.3435183" lon="7.7992024"><ele>517.5999999999999</ele><time>2026-05-03T11:12:13.764Z</time></trkpt><trkpt lat="44.3434477" lon="7.7993007"><ele>520.8</ele><time>2026-05-03T11:12:14.769Z</time></trkpt><trkpt lat="44.3433777" lon="7.7993859"><ele>524.0</ele><time>2026-05-03T11:12:15.76Z</time></trkpt><trkpt lat="44.3433142" lon="7.799478"><ele>524.0</ele><time>2026-05-03T11:12:16.766Z</time></trkpt><trkpt lat="44.3432477" lon="7.7995486"><ele>524.0</ele><time>2026-05-03T11:12:17.763Z</time></trkpt><trkpt lat="44.3431815" lon="7.7996207"><ele>524.0</ele><time>2026-05-03T11:12:18.77Z</time></trkpt><trkpt lat="44.3431156" lon="7.7996967"><ele>524.0</ele><time>2026-05-03T11:12:19.772Z</time></trkpt><trkpt lat="44.3430388" lon="7.7997713"><ele>524.0</ele><time>2026-05-03T11:12:20.764Z</time></trkpt><trkpt lat="44.3429633" lon="7.7998636"><ele>524.0</ele><time>2026-05-03T11:12:21.776Z</time></trkpt><trkpt lat="44.3428904" lon="7.7999565"><ele>525.1666666666666</ele><time>2026-05-03T11:12:22.766Z</time></trkpt><trkpt lat="44.3428279" lon="7.800033"><ele>526.3333333333333</ele><time>2026-05-03T11:12:23.769Z</time></trkpt><trkpt lat="44.3427597" lon="7.8000907"><ele>527.5</ele><time>2026-05-03T11:12:24.763Z</time></trkpt><trkpt lat="44.3426954" lon="7.8001379"><ele>528.6666666666666</ele><time>2026-05-03T11:12:25.762Z</time></trkpt><trkpt lat="44.3426343" lon="7.8001788"><ele>529.8333333333334</ele><time>2026-05-03T11:12:26.774Z</time></trkpt><trkpt lat="44.3425592" lon="7.8002189"><ele>531.0</ele><time>2026-05-03T11:12:27.758Z</time></trkpt><trkpt lat="44.3424856" lon="7.8002578"><ele>531.0</ele><time>2026-05-03T11:12:28.762Z</time></trkpt><trkpt lat="44.3424163" lon="7.8003175"><ele>531.0</ele><time>2026-05-03T11:12:29.767Z</time></trkpt><trkpt lat="44.3423729" lon="7.8003955"><ele>531.0</ele><time>2026-05-03T11:12:30.765Z</time></trkpt><trkpt lat="44.3423424" lon="7.8004947"><ele>531.0</ele><time>2026-05-03T11:12:31.774Z</time></trkpt><trkpt lat="44.3423102" lon="7.8005927"><ele>531.0</ele><time>2026-05-03T11:12:32.767Z</time></trkpt><trkpt lat="44.3422542" lon="7.8006893"><ele>531.0</ele><time>2026-05-03T11:12:33.767Z</time></trkpt><trkpt lat="44.3421725" lon="7.8007771"><ele>531.1666666666666</ele><time>2026-05-03T11:12:34.769Z</time></trkpt><trkpt lat="44.3420999" lon="7.8008709"><ele>531.3333333333334</ele><time>2026-05-03T11:12:35.771Z</time></trkpt><trkpt lat="44.3420372" lon="7.8009545"><ele>531.5</ele><time>2026-05-03T11:12:36.772Z</time></trkpt><trkpt lat="44.3419788" lon="7.801032"><ele>531.6666666666667</ele><time>2026-05-03T11:12:37.776Z</time></trkpt><trkpt lat="44.3419135" lon="7.8010861"><ele>531.8333333333334</ele><time>2026-05-03T11:12:38.766Z</time></trkpt><trkpt lat="44.3418403" lon="7.8011424"><ele>532.0</ele><time>2026-05-03T11:12:39.764Z</time></trkpt><trkpt lat="44.3417446" lon="7.8012147"><ele>532.0</ele><time>2026-05-03T11:12:40.76Z</time></trkpt><trkpt lat="44.3416601" lon="7.8012729"><ele>532.0</ele><time>2026-05-03T11:12:41.766Z</time></trkpt><trkpt lat="44.3415756" lon="7.8013243"><ele>532.0</ele><time>2026-05-03T11:12:42.768Z</time></trkpt><trkpt lat="44.3414971" lon="7.8013587"><ele>532.0</ele><time>2026-05-03T11:12:43.763Z</time></trkpt><trkpt lat="44.3414103" lon="7.8013899"><ele>532.0</ele><time>2026-05-03T11:12:44.762Z</time></trkpt><trkpt lat="44.3413458" lon="7.8014287"><ele>532.0</ele><time>2026-05-03T11:12:45.765Z</time></trkpt><trkpt lat="44.3412449" lon="7.8015176"><ele>532.8333333333334</ele><time>2026-05-03T11:12:47.763Z</time></trkpt><trkpt lat="44.3411874" lon="7.8015869"><ele>533.6666666666667</ele><time>2026-05-03T11:12:48.763Z</time></trkpt><trkpt lat="44.3411302" lon="7.8016501"><ele>534.5</ele><time>2026-05-03T11:12:49.763Z</time></trkpt><trkpt lat="44.3410642" lon="7.8017156"><ele>535.3333333333334</ele><time>2026-05-03T11:12:50.763Z</time></trkpt><trkpt lat="44.340966" lon="7.8017778"><ele>536.1666666666666</ele><time>2026-05-03T11:12:51.765Z</time></trkpt><trkpt lat="44.3408997" lon="7.8018047"><ele>537.0</ele><time>2026-05-03T11:12:52.763Z</time></trkpt><trkpt lat="44.3408367" lon="7.8018525"><ele>537.0</ele><time>2026-05-03T11:12:53.766Z</time></trkpt><trkpt lat="44.3407705" lon="7.8019216"><ele>537.0</ele><time>2026-05-03T11:12:54.771Z</time></trkpt><trkpt lat="44.340707" lon="7.8019927"><ele>537.0</ele><time>2026-05-03T11:12:55.766Z</time></trkpt><trkpt lat="44.3406423" lon="7.8020791"><ele>537.0</ele><time>2026-05-03T11:12:56.762Z</time></trkpt><trkpt lat="44.340586" lon="7.8021718"><ele>537.0</ele><time>2026-05-03T11:12:57.762Z</time></trkpt><trkpt lat="44.34053" lon="7.8022449"><ele>537.0</ele><time>2026-05-03T11:12:58.764Z</time></trkpt><trkpt lat="44.340482" lon="7.8023114"><ele>537.2</ele><time>2026-05-03T11:12:59.762Z</time></trkpt><trkpt lat="44.3404352" lon="7.8024047"><ele>537.4000000000001</ele><time>2026-05-03T11:13:00.766Z</time></trkpt><trkpt lat="44.3404086" lon="7.8025166"><ele>537.5999999999999</ele><time>2026-05-03T11:13:02.763Z</time></trkpt><trkpt lat="44.3403905" lon="7.8026275"><ele>537.8</ele><time>2026-05-03T11:13:35.775Z</time></trkpt><trkpt lat="44.3404798" lon="7.8026991"><ele>538.0</ele><time>2026-05-03T11:13:38.848Z</time></trkpt><trkpt lat="44.3406168" lon="7.8027233"><ele>539.8</ele><time>2026-05-03T11:13:40.763Z</time></trkpt><trkpt lat="44.3407103" lon="7.8027235"><ele>541.5999999999999</ele><time>2026-05-03T11:13:41.77Z</time></trkpt><trkpt lat="44.3408109" lon="7.802721"><ele>543.4000000000001</ele><time>2026-05-03T11:13:42.766Z</time></trkpt><trkpt lat="44.3409035" lon="7.8027137"><ele>545.2</ele><time>2026-05-03T11:13:43.768Z</time></trkpt><trkpt lat="44.3409786" lon="7.8027131"><ele>547.0</ele><time>2026-05-03T11:13:44.766Z</time></trkpt><trkpt lat="44.3410895" lon="7.8027491"><ele>547.0</ele><time>2026-05-03T11:13:46.766Z</time></trkpt><trkpt lat="44.3411541" lon="7.8027684"><ele>547.0</ele><time>2026-05-03T11:13:47.765Z</time></trkpt><trkpt lat="44.341235" lon="7.8027769"><ele>547.0</ele><time>2026-05-03T11:13:48.761Z</time></trkpt><trkpt lat="44.3413235" lon="7.8027615"><ele>547.0</ele><time>2026-05-03T11:13:49.764Z</time></trkpt><trkpt lat="44.3414223" lon="7.8027083"><ele>547.0</ele><time>2026-05-03T11:13:50.766Z</time></trkpt><trkpt lat="44.3415269" lon="7.8026269"><ele>545.25</ele><time>2026-05-03T11:13:51.762Z</time></trkpt><trkpt lat="44.3416382" lon="7.8025398"><ele>543.5</ele><time>2026-05-03T11:13:52.773Z</time></trkpt><trkpt lat="44.3417566" lon="7.8024541"><ele>541.75</ele><time>2026-05-03T11:13:53.765Z</time></trkpt><trkpt lat="44.3418799" lon="7.8023738"><ele>540.0</ele><time>2026-05-03T11:13:54.79Z</time></trkpt><trkpt lat="44.3420045" lon="7.8023086"><ele>540.0</ele><time>2026-05-03T11:13:55.764Z</time></trkpt><trkpt lat="44.3421299" lon="7.8022606"><ele>540.0</ele><time>2026-05-03T11:13:56.76Z</time></trkpt><trkpt lat="44.3422487" lon="7.8022176"><ele>540.0</ele><time>2026-05-03T11:13:57.76Z</time></trkpt><trkpt lat="44.3423635" lon="7.8022"><ele>540.0</ele><time>2026-05-03T11:13:58.768Z</time></trkpt><trkpt lat="44.3424777" lon="7.8021834"><ele>543.0</ele><time>2026-05-03T11:13:59.766Z</time></trkpt><trkpt lat="44.3425877" lon="7.8021502"><ele>546.0</ele><time>2026-05-03T11:14:00.775Z</time></trkpt><trkpt lat="44.3426991" lon="7.8020981"><ele>549.0</ele><time>2026-05-03T11:14:01.76Z</time></trkpt><trkpt lat="44.3428096" lon="7.8020495"><ele>552.0</ele><time>2026-05-03T11:14:02.768Z</time></trkpt><trkpt lat="44.3429222" lon="7.802006"><ele>552.0</ele><time>2026-05-03T11:14:03.764Z</time></trkpt><trkpt lat="44.3430315" lon="7.8019674"><ele>552.0</ele><time>2026-05-03T11:14:04.767Z</time></trkpt><trkpt lat="44.3431407" lon="7.8019294"><ele>552.0</ele><time>2026-05-03T11:14:05.772Z</time></trkpt><trkpt lat="44.343254" lon="7.8019013"><ele>552.0</ele><time>2026-05-03T11:14:06.77Z</time></trkpt><trkpt lat="44.3433723" lon="7.8019012"><ele>553.4</ele><time>2026-05-03T11:14:07.763Z</time></trkpt><trkpt lat="44.3434756" lon="7.8019116"><ele>554.8000000000001</ele><time>2026-05-03T11:14:08.764Z</time></trkpt><trkpt lat="44.3435639" lon="7.8019308"><ele>556.2</ele><time>2026-05-03T11:14:09.763Z</time></trkpt><trkpt lat="44.3436546" lon="7.8019693"><ele>557.6</ele><time>2026-05-03T11:14:10.763Z</time></trkpt><trkpt lat="44.3437416" lon="7.8020216"><ele>559.0</ele><time>2026-05-03T11:14:11.769Z</time></trkpt><trkpt lat="44.3438175" lon="7.8020794"><ele>558.0</ele><time>2026-05-03T11:14:12.77Z</time></trkpt><trkpt lat="44.3439025" lon="7.8021342"><ele>557.0</ele><time>2026-05-03T11:14:13.773Z</time></trkpt><trkpt lat="44.3439902" lon="7.8021931"><ele>556.0</ele><time>2026-05-03T11:14:14.772Z</time></trkpt><trkpt lat="44.3440924" lon="7.8022057"><ele>555.0</ele><time>2026-05-03T11:14:15.773Z</time></trkpt><trkpt lat="44.3441887" lon="7.8022083"><ele>554.0</ele><time>2026-05-03T11:14:16.763Z</time></trkpt><trkpt lat="44.344272" lon="7.8021993"><ele>554.0</ele><time>2026-05-03T11:14:17.772Z</time></trkpt><trkpt lat="44.3443418" lon="7.8021755"><ele>554.0</ele><time>2026-05-03T11:14:18.774Z</time></trkpt><trkpt lat="44.3444068" lon="7.802132"><ele>554.0</ele><time>2026-05-03T11:14:19.77Z</time></trkpt><trkpt lat="44.3444786" lon="7.8020584"><ele>554.0</ele><time>2026-05-03T11:14:20.767Z</time></trkpt><trkpt lat="44.3445585" lon="7.8019705"><ele>554.0</ele><time>2026-05-03T11:14:21.772Z</time></trkpt><trkpt lat="44.3446607" lon="7.8019023"><ele>554.0</ele><time>2026-05-03T11:14:22.764Z</time></trkpt><trkpt lat="44.3447747" lon="7.8018497"><ele>552.5</ele><time>2026-05-03T11:14:23.769Z</time></trkpt><trkpt lat="44.3448861" lon="7.8017942"><ele>551.0</ele><time>2026-05-03T11:14:24.768Z</time></trkpt><trkpt lat="44.344993" lon="7.8017475"><ele>549.5</ele><time>2026-05-03T11:14:25.763Z</time></trkpt><trkpt lat="44.3451025" lon="7.8017117"><ele>548.0</ele><time>2026-05-03T11:14:26.771Z</time></trkpt><trkpt lat="44.3452227" lon="7.8017007"><ele>548.0</ele><time>2026-05-03T11:14:27.774Z</time></trkpt><trkpt lat="44.3453563" lon="7.8017146"><ele>548.0</ele><time>2026-05-03T11:14:28.769Z</time></trkpt><trkpt lat="44.3454968" lon="7.8017502"><ele>548.0</ele><time>2026-05-03T11:14:29.764Z</time></trkpt><trkpt lat="44.3456368" lon="7.8018004"><ele>548.0</ele><time>2026-05-03T11:14:30.768Z</time></trkpt><trkpt lat="44.3457661" lon="7.8018492"><ele>547.6</ele><time>2026-05-03T11:14:31.77Z</time></trkpt><trkpt lat="44.3458872" lon="7.8018917"><ele>547.1999999999999</ele><time>2026-05-03T11:14:32.77Z</time></trkpt><trkpt lat="44.3459993" lon="7.8019341"><ele>546.8</ele><time>2026-05-03T11:14:33.766Z</time></trkpt><trkpt lat="44.3460955" lon="7.8019868"><ele>546.4</ele><time>2026-05-03T11:14:34.77Z</time></trkpt><trkpt lat="44.3461853" lon="7.8020478"><ele>546.0</ele><time>2026-05-03T11:14:35.767Z</time></trkpt><trkpt lat="44.3462748" lon="7.8020974"><ele>546.0</ele><time>2026-05-03T11:14:36.77Z</time></trkpt><trkpt lat="44.3463663" lon="7.8021315"><ele>546.0</ele><time>2026-05-03T11:14:37.763Z</time></trkpt><trkpt lat="44.3464546" lon="7.8021486"><ele>546.0</ele><time>2026-05-03T11:14:38.765Z</time></trkpt><trkpt lat="44.3465402" lon="7.802157"><ele>546.0</ele><time>2026-05-03T11:14:39.765Z</time></trkpt><trkpt lat="44.3466214" lon="7.8021606"><ele>546.0</ele><time>2026-05-03T11:14:40.767Z</time></trkpt><trkpt lat="44.3466988" lon="7.8021652"><ele>546.0</ele><time>2026-05-03T11:14:41.768Z</time></trkpt><trkpt lat="44.3467723" lon="7.8021828"><ele>544.6</ele><time>2026-05-03T11:14:42.763Z</time></trkpt><trkpt lat="44.3468362" lon="7.8022327"><ele>543.2</ele><time>2026-05-03T11:14:43.761Z</time></trkpt><trkpt lat="44.3469013" lon="7.8022865"><ele>541.8</ele><time>2026-05-03T11:14:44.765Z</time></trkpt><trkpt lat="44.3469608" lon="7.8024059"><ele>540.4</ele><time>2026-05-03T11:14:45.769Z</time></trkpt><trkpt lat="44.3470178" lon="7.8025226"><ele>539.0</ele><time>2026-05-03T11:14:46.763Z</time></trkpt><trkpt lat="44.3470923" lon="7.8026436"><ele>537.5</ele><time>2026-05-03T11:14:47.761Z</time></trkpt><trkpt lat="44.347165" lon="7.8027616"><ele>536.0</ele><time>2026-05-03T11:14:48.766Z</time></trkpt><trkpt lat="44.3472612" lon="7.8028869"><ele>534.5</ele><time>2026-05-03T11:14:49.768Z</time></trkpt><trkpt lat="44.3473599" lon="7.8030192"><ele>533.0</ele><time>2026-05-03T11:14:50.764Z</time></trkpt><trkpt lat="44.3474745" lon="7.803129"><ele>533.0</ele><time>2026-05-03T11:14:51.764Z</time></trkpt><trkpt lat="44.3475992" lon="7.8032412"><ele>533.0</ele><time>2026-05-03T11:14:52.77Z</time></trkpt><trkpt lat="44.3477157" lon="7.8033374"><ele>533.0</ele><time>2026-05-03T11:14:53.766Z</time></trkpt><trkpt lat="44.3478177" lon="7.8034264"><ele>533.0</ele><time>2026-05-03T11:14:54.765Z</time></trkpt><trkpt lat="44.3479152" lon="7.8035035"><ele>533.6666666666666</ele><time>2026-05-03T11:14:55.763Z</time></trkpt><trkpt lat="44.3479935" lon="7.8035684"><ele>534.3333333333333</ele><time>2026-05-03T11:14:56.765Z</time></trkpt><trkpt lat="44.3480593" lon="7.8036255"><ele>535.0</ele><time>2026-05-03T11:14:57.772Z</time></trkpt><trkpt lat="44.3481153" lon="7.8036748"><ele>535.6666666666666</ele><time>2026-05-03T11:14:58.768Z</time></trkpt><trkpt lat="44.3481702" lon="7.8037205"><ele>536.3333333333334</ele><time>2026-05-03T11:14:59.766Z</time></trkpt><trkpt lat="44.3482245" lon="7.8037659"><ele>537.0</ele><time>2026-05-03T11:15:00.763Z</time></trkpt><trkpt lat="44.3483264" lon="7.8038434"><ele>535.6666666666666</ele><time>2026-05-03T11:15:02.767Z</time></trkpt><trkpt lat="44.3484048" lon="7.8038861"><ele>534.3333333333334</ele><time>2026-05-03T11:15:04.766Z</time></trkpt><trkpt lat="44.3484191" lon="7.8040115"><ele>533.0</ele><time>2026-05-03T11:15:18.764Z</time></trkpt><trkpt lat="44.3483696" lon="7.8041019"><ele>531.6666666666667</ele><time>2026-05-03T11:15:20.815Z</time></trkpt><trkpt lat="44.3482751" lon="7.8041932"><ele>530.3333333333334</ele><time>2026-05-03T11:15:22.767Z</time></trkpt><trkpt lat="44.3482111" lon="7.8042277"><ele>529.0</ele><time>2026-05-03T11:15:23.763Z</time></trkpt><trkpt lat="44.3481272" lon="7.8042907"><ele>530.0</ele><time>2026-05-03T11:15:25.763Z</time></trkpt><trkpt lat="44.3480983" lon="7.8043871"><ele>531.0</ele><time>2026-05-03T11:15:27.782Z</time></trkpt><trkpt lat="44.3481501" lon="7.8044839"><ele>532.0</ele><time>2026-05-03T11:15:29.763Z</time></trkpt><trkpt lat="44.3482595" lon="7.8045544"><ele>533.0</ele><time>2026-05-03T11:15:31.763Z</time></trkpt><trkpt lat="44.3483327" lon="7.8045698"><ele>534.0</ele><time>2026-05-03T11:15:32.761Z</time></trkpt><trkpt lat="44.3484098" lon="7.8045858"><ele>535.0</ele><time>2026-05-03T11:15:33.765Z</time></trkpt><trkpt lat="44.3484875" lon="7.8045932"><ele>535.0</ele><time>2026-05-03T11:15:34.764Z</time></trkpt><trkpt lat="44.3485508" lon="7.8045982"><ele>535.0</ele><time>2026-05-03T11:15:35.762Z</time></trkpt><trkpt lat="44.3486593" lon="7.8046632"><ele>535.0</ele><time>2026-05-03T11:15:37.767Z</time></trkpt><trkpt lat="44.3487122" lon="7.8047167"><ele>535.0</ele><time>2026-05-03T11:15:38.772Z</time></trkpt><trkpt lat="44.3487565" lon="7.8047843"><ele>535.0</ele><time>2026-05-03T11:15:39.769Z</time></trkpt><trkpt lat="44.3487976" lon="7.8049012"><ele>535.0</ele><time>2026-05-03T11:15:40.768Z</time></trkpt><trkpt lat="44.3488291" lon="7.8049946"><ele>535.0</ele><time>2026-05-03T11:15:41.789Z</time></trkpt><trkpt lat="44.348862" lon="7.8050948"><ele>535.0</ele><time>2026-05-03T11:15:42.767Z</time></trkpt><trkpt lat="44.3488966" lon="7.8051828"><ele>535.0</ele><time>2026-05-03T11:15:43.77Z</time></trkpt><trkpt lat="44.3489838" lon="7.8052836"><ele>535.0</ele><time>2026-05-03T11:15:45.763Z</time></trkpt><trkpt lat="44.3491029" lon="7.8053397"><ele>535.0</ele><time>2026-05-03T11:15:47.765Z</time></trkpt><trkpt lat="44.3491649" lon="7.80536"><ele>537.6</ele><time>2026-05-03T11:15:48.769Z</time></trkpt><trkpt lat="44.3492302" lon="7.8053824"><ele>540.2</ele><time>2026-05-03T11:15:49.765Z</time></trkpt><trkpt lat="44.3493427" lon="7.8054272"><ele>542.8</ele><time>2026-05-03T11:15:51.765Z</time></trkpt><trkpt lat="44.3494454" lon="7.8054856"><ele>545.4</ele><time>2026-05-03T11:15:53.766Z</time></trkpt><trkpt lat="44.3495178" lon="7.8055098"><ele>548.0</ele><time>2026-05-03T11:15:55.767Z</time></trkpt><trkpt lat="44.349598" lon="7.8055868"><ele>548.0</ele><time>2026-05-03T11:15:58.772Z</time></trkpt><trkpt lat="44.3496336" lon="7.8056641"><ele>548.0</ele><time>2026-05-03T11:16:00.767Z</time></trkpt><trkpt lat="44.3495976" lon="7.8055744"><ele>548.0</ele><time>2026-05-03T11:16:48.776Z</time></trkpt><trkpt lat="44.349689" lon="7.805592"><ele>548.0</ele><time>2026-05-03T11:17:00.822Z</time></trkpt><trkpt lat="44.3497908" lon="7.805651"><ele>548.0</ele><time>2026-05-03T11:17:02.769Z</time></trkpt><trkpt lat="44.3499216" lon="7.8056556"><ele>546.5</ele><time>2026-05-03T11:17:04.767Z</time></trkpt><trkpt lat="44.3500002" lon="7.8056367"><ele>545.0</ele><time>2026-05-03T11:17:05.762Z</time></trkpt><trkpt lat="44.3500849" lon="7.8056187"><ele>543.5</ele><time>2026-05-03T11:17:06.768Z</time></trkpt><trkpt lat="44.3501642" lon="7.805606"><ele>542.0</ele><time>2026-05-03T11:17:07.772Z</time></trkpt><trkpt lat="44.3502381" lon="7.8055962"><ele>540.5</ele><time>2026-05-03T11:17:08.767Z</time></trkpt><trkpt lat="44.3503029" lon="7.8055912"><ele>539.0</ele><time>2026-05-03T11:17:09.768Z</time></trkpt><trkpt lat="44.3503706" lon="7.8055938"><ele>539.0</ele><time>2026-05-03T11:17:10.763Z</time></trkpt><trkpt lat="44.3504854" lon="7.8056463"><ele>539.0</ele><time>2026-05-03T11:17:12.767Z</time></trkpt><trkpt lat="44.3505592" lon="7.805701"><ele>539.0</ele><time>2026-05-03T11:17:13.764Z</time></trkpt><trkpt lat="44.3506438" lon="7.8057639"><ele>539.0</ele><time>2026-05-03T11:17:14.769Z</time></trkpt><trkpt lat="44.3507277" lon="7.8058267"><ele>539.0</ele><time>2026-05-03T11:17:15.761Z</time></trkpt><trkpt lat="44.3508108" lon="7.805872"><ele>540.0</ele><time>2026-05-03T11:17:16.763Z</time></trkpt><trkpt lat="44.3508963" lon="7.8059093"><ele>541.0</ele><time>2026-05-03T11:17:17.769Z</time></trkpt><trkpt lat="44.3509741" lon="7.8059466"><ele>542.0</ele><time>2026-05-03T11:17:18.766Z</time></trkpt><trkpt lat="44.3510519" lon="7.8059848"><ele>543.0</ele><time>2026-05-03T11:17:19.769Z</time></trkpt><trkpt lat="44.3511313" lon="7.8060396"><ele>544.0</ele><time>2026-05-03T11:17:20.768Z</time></trkpt><trkpt lat="44.3512141" lon="7.8060957"><ele>545.0</ele><time>2026-05-03T11:17:21.763Z</time></trkpt><trkpt lat="44.3512941" lon="7.8061527"><ele>545.0</ele><time>2026-05-03T11:17:22.765Z</time></trkpt><trkpt lat="44.3513671" lon="7.806204"><ele>545.0</ele><time>2026-05-03T11:17:23.767Z</time></trkpt><trkpt lat="44.3514794" lon="7.8062987"><ele>545.0</ele><time>2026-05-03T11:17:25.769Z</time></trkpt><trkpt lat="44.3516117" lon="7.8064043"><ele>545.0</ele><time>2026-05-03T11:17:39.772Z</time></trkpt><trkpt lat="44.3516842" lon="7.806425"><ele>545.0</ele><time>2026-05-03T11:17:42.77Z</time></trkpt><trkpt lat="44.3517448" lon="7.8065016"><ele>542.3333333333333</ele><time>2026-05-03T11:17:45.762Z</time></trkpt><trkpt lat="44.3517827" lon="7.8065795"><ele>539.6666666666666</ele><time>2026-05-03T11:17:47.82Z</time></trkpt><trkpt lat="44.3517866" lon="7.8066721"><ele>537.0</ele><time>2026-05-03T11:17:49.764Z</time></trkpt><trkpt lat="44.351805" lon="7.806805"><ele>534.3333333333334</ele><time>2026-05-03T11:17:52.766Z</time></trkpt><trkpt lat="44.3518275" lon="7.8068894"><ele>531.6666666666667</ele><time>2026-05-03T11:17:54.767Z</time></trkpt><trkpt lat="44.3518654" lon="7.8070263"><ele>529.0</ele><time>2026-05-03T11:17:57.776Z</time></trkpt><trkpt lat="44.3518979" lon="7.8071262"><ele>528.6</ele><time>2026-05-03T11:17:59.765Z</time></trkpt><trkpt lat="44.3519469" lon="7.8072495"><ele>528.2</ele><time>2026-05-03T11:18:01.765Z</time></trkpt><trkpt lat="44.3519926" lon="7.8073507"><ele>527.8000000000001</ele><time>2026-05-03T11:18:03.774Z</time></trkpt><trkpt lat="44.3520529" lon="7.8074456"><ele>527.4</ele><time>2026-05-03T11:18:06.768Z</time></trkpt><trkpt lat="44.352107" lon="7.8076019"><ele>527.0</ele><time>2026-05-03T11:18:11.768Z</time></trkpt><trkpt lat="44.3520717" lon="7.8076922"><ele>526.5</ele><time>2026-05-03T11:18:14.773Z</time></trkpt><trkpt lat="44.352026" lon="7.8078026"><ele>526.0</ele><time>2026-05-03T11:18:16.776Z</time></trkpt><trkpt lat="44.3520102" lon="7.8079392"><ele>525.5</ele><time>2026-05-03T11:18:18.765Z</time></trkpt><trkpt lat="44.3519866" lon="7.808053"><ele>525.0</ele><time>2026-05-03T11:18:20.765Z</time></trkpt><trkpt lat="44.3519535" lon="7.808159"><ele>524.5</ele><time>2026-05-03T11:18:22.762Z</time></trkpt><trkpt lat="44.3519287" lon="7.8082545"><ele>524.0</ele><time>2026-05-03T11:18:24.765Z</time></trkpt><trkpt lat="44.3518826" lon="7.8083591"><ele>524.0</ele><time>2026-05-03T11:18:27.764Z</time></trkpt><trkpt lat="44.3517908" lon="7.8084119"><ele>524.0</ele><time>2026-05-03T11:18:30.765Z</time></trkpt><trkpt lat="44.3517122" lon="7.8084605"><ele>524.0</ele><time>2026-05-03T11:18:32.767Z</time></trkpt><trkpt lat="44.351636" lon="7.8084993"><ele>524.0</ele><time>2026-05-03T11:18:34.765Z</time></trkpt><trkpt lat="44.3515215" lon="7.8085184"><ele>524.0</ele><time>2026-05-03T11:18:36.765Z</time></trkpt><trkpt lat="44.351411" lon="7.8085437"><ele>528.4</ele><time>2026-05-03T11:18:38.766Z</time></trkpt><trkpt lat="44.3513024" lon="7.808537"><ele>532.8</ele><time>2026-05-03T11:18:40.767Z</time></trkpt><trkpt lat="44.3512341" lon="7.8085324"><ele>537.2</ele><time>2026-05-03T11:18:42.771Z</time></trkpt><trkpt lat="44.3511078" lon="7.8085998"><ele>541.6</ele><time>2026-05-03T11:18:52.781Z</time></trkpt><trkpt lat="44.3510709" lon="7.8086876"><ele>546.0</ele><time>2026-05-03T11:18:59.767Z</time></trkpt><trkpt lat="44.3510724" lon="7.808796"><ele>546.0</ele><time>2026-05-03T11:19:01.764Z</time></trkpt><trkpt lat="44.3510839" lon="7.8088988"><ele>546.0</ele><time>2026-05-03T11:19:03.798Z</time></trkpt><trkpt lat="44.3511245" lon="7.8090266"><ele>546.0</ele><time>2026-05-03T11:19:05.766Z</time></trkpt><trkpt lat="44.3511669" lon="7.8091296"><ele>546.0</ele><time>2026-05-03T11:19:07.761Z</time></trkpt><trkpt lat="44.3512064" lon="7.8092024"><ele>546.0</ele><time>2026-05-03T11:19:08.773Z</time></trkpt><trkpt lat="44.3512813" lon="7.8093413"><ele>546.0</ele><time>2026-05-03T11:19:10.764Z</time></trkpt><trkpt lat="44.3513156" lon="7.8094158"><ele>541.8</ele><time>2026-05-03T11:19:11.763Z</time></trkpt><trkpt lat="44.3513859" lon="7.8095615"><ele>537.6</ele><time>2026-05-03T11:19:13.765Z</time></trkpt><trkpt lat="44.3514298" lon="7.8096505"><ele>533.4</ele><time>2026-05-03T11:19:14.776Z</time></trkpt><trkpt lat="44.3514678" lon="7.8097356"><ele>529.2</ele><time>2026-05-03T11:19:15.766Z</time></trkpt><trkpt lat="44.3515192" lon="7.8098486"><ele>525.0</ele><time>2026-05-03T11:19:16.762Z</time></trkpt><trkpt lat="44.3515786" lon="7.8099878"><ele>525.0</ele><time>2026-05-03T11:19:18.758Z</time></trkpt><trkpt lat="44.3516078" lon="7.8100783"><ele>525.0</ele><time>2026-05-03T11:19:19.761Z</time></trkpt><trkpt lat="44.3516446" lon="7.8101515"><ele>525.0</ele><time>2026-05-03T11:19:20.76Z</time></trkpt><trkpt lat="44.3516652" lon="7.8102348"><ele>525.0</ele><time>2026-05-03T11:19:21.761Z</time></trkpt><trkpt lat="44.3517" lon="7.8103737"><ele>525.0</ele><time>2026-05-03T11:19:23.76Z</time></trkpt><trkpt lat="44.3517184" lon="7.8104992"><ele>525.0</ele><time>2026-05-03T11:19:24.766Z</time></trkpt><trkpt lat="44.3517308" lon="7.8105961"><ele>525.2</ele><time>2026-05-03T11:19:25.76Z</time></trkpt><trkpt lat="44.3517536" lon="7.8107224"><ele>525.4</ele><time>2026-05-03T11:19:27.767Z</time></trkpt><trkpt lat="44.3517502" lon="7.8108693"><ele>525.6</ele><time>2026-05-03T11:19:29.779Z</time></trkpt><trkpt lat="44.3517489" lon="7.8110172"><ele>525.8</ele><time>2026-05-03T11:19:31.763Z</time></trkpt><trkpt lat="44.3517543" lon="7.8111118"><ele>526.0</ele><time>2026-05-03T11:19:32.761Z</time></trkpt><trkpt lat="44.351748" lon="7.8112234"><ele>525.2</ele><time>2026-05-03T11:19:33.761Z</time></trkpt><trkpt lat="44.3517344" lon="7.8113491"><ele>524.4000000000001</ele><time>2026-05-03T11:19:34.762Z</time></trkpt><trkpt lat="44.3517376" lon="7.811471"><ele>523.6</ele><time>2026-05-03T11:19:35.757Z</time></trkpt><trkpt lat="44.3517447" lon="7.8115865"><ele>522.8000000000001</ele><time>2026-05-03T11:19:36.759Z</time></trkpt><trkpt lat="44.3517536" lon="7.8117606"><ele>522.0</ele><time>2026-05-03T11:19:38.759Z</time></trkpt><trkpt lat="44.3517568" lon="7.8118657"><ele>521.0</ele><time>2026-05-03T11:19:39.769Z</time></trkpt><trkpt lat="44.351777" lon="7.8119831"><ele>520.0</ele><time>2026-05-03T11:19:40.763Z</time></trkpt><trkpt lat="44.351788" lon="7.8120868"><ele>519.0</ele><time>2026-05-03T11:19:41.764Z</time></trkpt><trkpt lat="44.3517957" lon="7.8122273"><ele>518.0</ele><time>2026-05-03T11:19:43.761Z</time></trkpt><trkpt lat="44.3517939" lon="7.8123321"><ele>517.0</ele><time>2026-05-03T11:19:44.761Z</time></trkpt><trkpt lat="44.3518041" lon="7.8124858"><ele>516.0</ele><time>2026-05-03T11:19:46.763Z</time></trkpt><trkpt lat="44.3518191" lon="7.8126227"><ele>514.5</ele><time>2026-05-03T11:19:47.759Z</time></trkpt><trkpt lat="44.3518244" lon="7.8127486"><ele>513.0</ele><time>2026-05-03T11:19:48.758Z</time></trkpt><trkpt lat="44.3518192" lon="7.8128379"><ele>511.5</ele><time>2026-05-03T11:19:49.759Z</time></trkpt><trkpt lat="44.3517916" lon="7.813006"><ele>510.0</ele><time>2026-05-03T11:19:51.76Z</time></trkpt><trkpt lat="44.3517802" lon="7.8131204"><ele>508.5</ele><time>2026-05-03T11:19:52.758Z</time></trkpt><trkpt lat="44.3517658" lon="7.8132255"><ele>507.0</ele><time>2026-05-03T11:19:53.758Z</time></trkpt><trkpt lat="44.3517384" lon="7.8133179"><ele>507.0</ele><time>2026-05-03T11:19:54.759Z</time></trkpt><trkpt lat="44.3517146" lon="7.8134105"><ele>507.0</ele><time>2026-05-03T11:19:55.76Z</time></trkpt><trkpt lat="44.3516912" lon="7.8135147"><ele>507.0</ele><time>2026-05-03T11:19:56.757Z</time></trkpt><trkpt lat="44.3516939" lon="7.81362"><ele>507.0</ele><time>2026-05-03T11:19:57.762Z</time></trkpt><trkpt lat="44.3517077" lon="7.8137267"><ele>507.0</ele><time>2026-05-03T11:19:58.759Z</time></trkpt><trkpt lat="44.3517074" lon="7.8138349"><ele>507.0</ele><time>2026-05-03T11:19:59.759Z</time></trkpt><trkpt lat="44.351707" lon="7.8139469"><ele>505.5</ele><time>2026-05-03T11:20:00.761Z</time></trkpt><trkpt lat="44.351702" lon="7.8140648"><ele>504.0</ele><time>2026-05-03T11:20:01.76Z</time></trkpt><trkpt lat="44.3516871" lon="7.814193"><ele>502.5</ele><time>2026-05-03T11:20:02.764Z</time></trkpt><trkpt lat="44.3516804" lon="7.8142972"><ele>501.0</ele><time>2026-05-03T11:20:03.756Z</time></trkpt><trkpt lat="44.3516783" lon="7.814434"><ele>499.5</ele><time>2026-05-03T11:20:05.76Z</time></trkpt><trkpt lat="44.3516822" lon="7.8145452"><ele>498.0</ele><time>2026-05-03T11:20:06.762Z</time></trkpt><trkpt lat="44.3516775" lon="7.8146519"><ele>497.4</ele><time>2026-05-03T11:20:07.764Z</time></trkpt><trkpt lat="44.3516655" lon="7.8147653"><ele>496.79999999999995</ele><time>2026-05-03T11:20:08.769Z</time></trkpt><trkpt lat="44.3516422" lon="7.8148962"><ele>496.2</ele><time>2026-05-03T11:20:09.765Z</time></trkpt><trkpt lat="44.3516168" lon="7.8150237"><ele>495.6</ele><time>2026-05-03T11:20:10.773Z</time></trkpt><trkpt lat="44.3516034" lon="7.8151614"><ele>495.0</ele><time>2026-05-03T11:20:11.765Z</time></trkpt><trkpt lat="44.3515827" lon="7.8153035"><ele>494.6</ele><time>2026-05-03T11:20:12.762Z</time></trkpt><trkpt lat="44.3515747" lon="7.815447"><ele>494.2</ele><time>2026-05-03T11:20:13.764Z</time></trkpt><trkpt lat="44.3515643" lon="7.8155699"><ele>493.79999999999995</ele><time>2026-05-03T11:20:14.762Z</time></trkpt><trkpt lat="44.3515579" lon="7.8156619"><ele>493.4</ele><time>2026-05-03T11:20:15.766Z</time></trkpt><trkpt lat="44.3514891" lon="7.8158301"><ele>493.0</ele><time>2026-05-03T11:20:17.765Z</time></trkpt><trkpt lat="44.3514362" lon="7.8159049"><ele>493.33333333333337</ele><time>2026-05-03T11:20:18.756Z</time></trkpt><trkpt lat="44.3513771" lon="7.8159873"><ele>493.6666666666667</ele><time>2026-05-03T11:20:19.759Z</time></trkpt><trkpt lat="44.3513158" lon="7.8160763"><ele>494.0</ele><time>2026-05-03T11:20:20.759Z</time></trkpt><trkpt lat="44.3512595" lon="7.8161615"><ele>494.33333333333337</ele><time>2026-05-03T11:20:21.763Z</time></trkpt><trkpt lat="44.3512094" lon="7.81624"><ele>494.6666666666667</ele><time>2026-05-03T11:20:22.755Z</time></trkpt><trkpt lat="44.3511607" lon="7.8162992"><ele>495.0</ele><time>2026-05-03T11:20:23.76Z</time></trkpt><trkpt lat="44.3511054" lon="7.8163489"><ele>495.0</ele><time>2026-05-03T11:20:24.757Z</time></trkpt><trkpt lat="44.3510374" lon="7.8164017"><ele>495.0</ele><time>2026-05-03T11:20:25.756Z</time></trkpt><trkpt lat="44.3509663" lon="7.8164526"><ele>495.0</ele><time>2026-05-03T11:20:26.762Z</time></trkpt><trkpt lat="44.3508949" lon="7.8165161"><ele>495.0</ele><time>2026-05-03T11:20:27.761Z</time></trkpt><trkpt lat="44.3508401" lon="7.8165937"><ele>495.0</ele><time>2026-05-03T11:20:28.762Z</time></trkpt><trkpt lat="44.3507979" lon="7.8166695"><ele>495.0</ele><time>2026-05-03T11:20:29.759Z</time></trkpt><trkpt lat="44.3507209" lon="7.8167891"><ele>494.0</ele><time>2026-05-03T11:20:31.756Z</time></trkpt><trkpt lat="44.3506825" lon="7.8168734"><ele>493.0</ele><time>2026-05-03T11:20:32.767Z</time></trkpt><trkpt lat="44.3506363" lon="7.8169757"><ele>492.0</ele><time>2026-05-03T11:20:33.759Z</time></trkpt><trkpt lat="44.3505667" lon="7.8170864"><ele>491.0</ele><time>2026-05-03T11:20:34.766Z</time></trkpt><trkpt lat="44.3504849" lon="7.8171898"><ele>490.0</ele><time>2026-05-03T11:20:35.757Z</time></trkpt><trkpt lat="44.3504036" lon="7.8172777"><ele>490.00000000000006</ele><time>2026-05-03T11:20:36.762Z</time></trkpt><trkpt lat="44.3503293" lon="7.8173476"><ele>490.0</ele><time>2026-05-03T11:20:37.76Z</time></trkpt><trkpt lat="44.3502691" lon="7.8174066"><ele>490.0</ele><time>2026-05-03T11:20:38.759Z</time></trkpt><trkpt lat="44.3502239" lon="7.817472"><ele>490.0</ele><time>2026-05-03T11:20:39.758Z</time></trkpt><trkpt lat="44.3501986" lon="7.8176399"><ele>490.00000000000006</ele><time>2026-05-03T11:20:41.759Z</time></trkpt><trkpt lat="44.3502133" lon="7.8177537"><ele>490.0</ele><time>2026-05-03T11:20:42.777Z</time></trkpt><trkpt lat="44.3502326" lon="7.8178834"><ele>489.6666666666667</ele><time>2026-05-03T11:20:43.762Z</time></trkpt><trkpt lat="44.3502517" lon="7.8180124"><ele>489.33333333333337</ele><time>2026-05-03T11:20:44.759Z</time></trkpt><trkpt lat="44.3502649" lon="7.818133"><ele>489.0</ele><time>2026-05-03T11:20:45.767Z</time></trkpt><trkpt lat="44.3502763" lon="7.8182329"><ele>488.66666666666663</ele><time>2026-05-03T11:20:46.762Z</time></trkpt><trkpt lat="44.3503116" lon="7.8183575"><ele>488.3333333333333</ele><time>2026-05-03T11:20:48.765Z</time></trkpt><trkpt lat="44.3503942" lon="7.8184017"><ele>488.0</ele><time>2026-05-03T11:20:50.763Z</time></trkpt><trkpt lat="44.3504591" lon="7.8184106"><ele>487.99999999999994</ele><time>2026-05-03T11:20:51.756Z</time></trkpt><trkpt lat="44.3505262" lon="7.8184049"><ele>488.0</ele><time>2026-05-03T11:20:52.773Z</time></trkpt><trkpt lat="44.3506141" lon="7.818419"><ele>488.0</ele><time>2026-05-03T11:20:54.762Z</time></trkpt><trkpt lat="44.3506671" lon="7.8185253"><ele>488.0</ele><time>2026-05-03T11:20:56.76Z</time></trkpt><trkpt lat="44.3506992" lon="7.818624"><ele>487.99999999999994</ele><time>2026-05-03T11:20:57.758Z</time></trkpt><trkpt lat="44.3507274" lon="7.8187231"><ele>488.0</ele><time>2026-05-03T11:20:58.754Z</time></trkpt><trkpt lat="44.3507547" lon="7.8188202"><ele>488.66666666666663</ele><time>2026-05-03T11:20:59.764Z</time></trkpt><trkpt lat="44.3508" lon="7.8188869"><ele>489.3333333333333</ele><time>2026-05-03T11:21:00.761Z</time></trkpt><trkpt lat="44.3508708" lon="7.8188938"><ele>490.0</ele><time>2026-05-03T11:21:01.762Z</time></trkpt><trkpt lat="44.3509492" lon="7.8188723"><ele>490.66666666666663</ele><time>2026-05-03T11:21:02.762Z</time></trkpt><trkpt lat="44.3510258" lon="7.8188439"><ele>491.3333333333333</ele><time>2026-05-03T11:21:03.783Z</time></trkpt><trkpt lat="44.3510878" lon="7.8187931"><ele>492.0</ele><time>2026-05-03T11:21:04.763Z</time></trkpt><trkpt lat="44.3511633" lon="7.8187252"><ele>492.0</ele><time>2026-05-03T11:21:06.76Z</time></trkpt><trkpt lat="44.3511742" lon="7.8188174"><ele>492.00000000000006</ele><time>2026-05-03T11:21:09.759Z</time></trkpt><trkpt lat="44.351094" lon="7.8189249"><ele>492.00000000000006</ele><time>2026-05-03T11:21:11.764Z</time></trkpt><trkpt lat="44.3510121" lon="7.8189863"><ele>492.0</ele><time>2026-05-03T11:21:12.772Z</time></trkpt><trkpt lat="44.3509211" lon="7.8190493"><ele>492.0</ele><time>2026-05-03T11:21:13.761Z</time></trkpt><trkpt lat="44.3508169" lon="7.8191033"><ele>492.0</ele><time>2026-05-03T11:21:14.755Z</time></trkpt><trkpt lat="44.3507055" lon="7.8191693"><ele>492.0</ele><time>2026-05-03T11:21:15.758Z</time></trkpt><trkpt lat="44.3505833" lon="7.81922"><ele>492.0</ele><time>2026-05-03T11:21:16.755Z</time></trkpt><trkpt lat="44.350453" lon="7.8192692"><ele>492.0</ele><time>2026-05-03T11:21:17.763Z</time></trkpt><trkpt lat="44.350317" lon="7.8193198"><ele>497.33333333333337</ele><time>2026-05-03T11:21:18.76Z</time></trkpt><trkpt lat="44.3501701" lon="7.8193784"><ele>502.6666666666667</ele><time>2026-05-03T11:21:19.755Z</time></trkpt><trkpt lat="44.3500122" lon="7.8194423"><ele>508.0</ele><time>2026-05-03T11:21:20.762Z</time></trkpt><trkpt lat="44.3498475" lon="7.8195071"><ele>508.0</ele><time>2026-05-03T11:21:21.76Z</time></trkpt><trkpt lat="44.3496741" lon="7.8195643"><ele>508.0</ele><time>2026-05-03T11:21:22.757Z</time></trkpt><trkpt lat="44.349493" lon="7.8196247"><ele>508.0</ele><time>2026-05-03T11:21:23.759Z</time></trkpt><trkpt lat="44.3493043" lon="7.8196902"><ele>508.0</ele><time>2026-05-03T11:21:24.763Z</time></trkpt><trkpt lat="44.349114" lon="7.8197631"><ele>508.0</ele><time>2026-05-03T11:21:25.759Z</time></trkpt><trkpt lat="44.348925" lon="7.8198354"><ele>508.0</ele><time>2026-05-03T11:21:26.773Z</time></trkpt><trkpt lat="44.3487409" lon="7.8199105"><ele>507.33333333333337</ele><time>2026-05-03T11:21:27.783Z</time></trkpt><trkpt lat="44.3485598" lon="7.8199918"><ele>506.66666666666663</ele><time>2026-05-03T11:21:28.769Z</time></trkpt><trkpt lat="44.3483819" lon="7.8200872"><ele>506.0</ele><time>2026-05-03T11:21:29.765Z</time></trkpt><trkpt lat="44.348211" lon="7.8202005"><ele>506.66666666666663</ele><time>2026-05-03T11:21:30.76Z</time></trkpt><trkpt lat="44.3480458" lon="7.8203335"><ele>507.33333333333337</ele><time>2026-05-03T11:21:31.771Z</time></trkpt><trkpt lat="44.3478875" lon="7.820483"><ele>508.0</ele><time>2026-05-03T11:21:32.757Z</time></trkpt><trkpt lat="44.3477328" lon="7.8206414"><ele>508.0</ele><time>2026-05-03T11:21:33.758Z</time></trkpt><trkpt lat="44.3475834" lon="7.8207996"><ele>508.0</ele><time>2026-05-03T11:21:34.759Z</time></trkpt><trkpt lat="44.3474437" lon="7.8209482"><ele>508.0</ele><time>2026-05-03T11:21:35.759Z</time></trkpt><trkpt lat="44.3473138" lon="7.8210863"><ele>507.5</ele><time>2026-05-03T11:21:36.763Z</time></trkpt><trkpt lat="44.3471967" lon="7.8212096"><ele>507.0</ele><time>2026-05-03T11:21:37.762Z</time></trkpt><trkpt lat="44.3470902" lon="7.8213232"><ele>506.5</ele><time>2026-05-03T11:21:38.759Z</time></trkpt><trkpt lat="44.3469936" lon="7.8214252"><ele>506.0</ele><time>2026-05-03T11:21:39.764Z</time></trkpt><trkpt lat="44.3469022" lon="7.8215214"><ele>506.0</ele><time>2026-05-03T11:21:40.761Z</time></trkpt><trkpt lat="44.3468162" lon="7.8216082"><ele>506.0</ele><time>2026-05-03T11:21:41.767Z</time></trkpt><trkpt lat="44.3467344" lon="7.8216878"><ele>506.0</ele><time>2026-05-03T11:21:42.768Z</time></trkpt><trkpt lat="44.3466577" lon="7.8217619"><ele>506.0</ele><time>2026-05-03T11:21:43.762Z</time></trkpt><trkpt lat="44.3465836" lon="7.8218284"><ele>506.0</ele><time>2026-05-03T11:21:44.765Z</time></trkpt><trkpt lat="44.3465093" lon="7.8218832"><ele>506.66666666666663</ele><time>2026-05-03T11:21:45.763Z</time></trkpt><trkpt lat="44.3464381" lon="7.8219214"><ele>507.3333333333333</ele><time>2026-05-03T11:21:46.767Z</time></trkpt><trkpt lat="44.3463691" lon="7.8219467"><ele>508.0</ele><time>2026-05-03T11:21:47.764Z</time></trkpt><trkpt lat="44.3463007" lon="7.8219635"><ele>508.66666666666663</ele><time>2026-05-03T11:21:48.767Z</time></trkpt><trkpt lat="44.3462279" lon="7.8219743"><ele>509.3333333333333</ele><time>2026-05-03T11:21:49.757Z</time></trkpt><trkpt lat="44.3461449" lon="7.8219756"><ele>510.0</ele><time>2026-05-03T11:21:50.756Z</time></trkpt><trkpt lat="44.3460531" lon="7.8219485"><ele>509.25</ele><time>2026-05-03T11:21:51.756Z</time></trkpt><trkpt lat="44.345955" lon="7.8218898"><ele>508.5</ele><time>2026-05-03T11:21:52.763Z</time></trkpt><trkpt lat="44.3458491" lon="7.8218148"><ele>507.75</ele><time>2026-05-03T11:21:53.772Z</time></trkpt><trkpt lat="44.345734" lon="7.821734"><ele>507.0</ele><time>2026-05-03T11:21:54.763Z</time></trkpt><trkpt lat="44.345615" lon="7.8216515"><ele>508.0</ele><time>2026-05-03T11:21:55.763Z</time></trkpt><trkpt lat="44.3455052" lon="7.8215738"><ele>509.0</ele><time>2026-05-03T11:21:56.763Z</time></trkpt><trkpt lat="44.3454056" lon="7.8215056"><ele>510.0</ele><time>2026-05-03T11:21:57.76Z</time></trkpt><trkpt lat="44.345309" lon="7.8214481"><ele>511.0</ele><time>2026-05-03T11:21:58.758Z</time></trkpt><trkpt lat="44.3452016" lon="7.8214086"><ele>511.0</ele><time>2026-05-03T11:21:59.758Z</time></trkpt><trkpt lat="44.3450821" lon="7.8213981"><ele>511.0</ele><time>2026-05-03T11:22:00.758Z</time></trkpt><trkpt lat="44.3449557" lon="7.8214186"><ele>511.0</ele><time>2026-05-03T11:22:01.759Z</time></trkpt><trkpt lat="44.3448298" lon="7.8214624"><ele>511.0</ele><time>2026-05-03T11:22:02.759Z</time></trkpt><trkpt lat="44.344714" lon="7.8215136"><ele>510.0</ele><time>2026-05-03T11:22:03.758Z</time></trkpt><trkpt lat="44.3446048" lon="7.82157"><ele>509.0</ele><time>2026-05-03T11:22:04.758Z</time></trkpt><trkpt lat="44.3444991" lon="7.8216277"><ele>508.0</ele><time>2026-05-03T11:22:05.758Z</time></trkpt><trkpt lat="44.3443927" lon="7.8216822"><ele>507.0</ele><time>2026-05-03T11:22:06.757Z</time></trkpt><trkpt lat="44.3442843" lon="7.8217299"><ele>507.0</ele><time>2026-05-03T11:22:07.758Z</time></trkpt><trkpt lat="44.3441702" lon="7.8217667"><ele>507.0</ele><time>2026-05-03T11:22:08.759Z</time></trkpt><trkpt lat="44.3440623" lon="7.8217891"><ele>507.0</ele><time>2026-05-03T11:22:09.756Z</time></trkpt><trkpt lat="44.3439772" lon="7.8218016"><ele>507.0</ele><time>2026-05-03T11:22:10.765Z</time></trkpt><trkpt lat="44.3439051" lon="7.8218093"><ele>507.0</ele><time>2026-05-03T11:22:11.765Z</time></trkpt><trkpt lat="44.3438404" lon="7.8218138"><ele>507.0</ele><time>2026-05-03T11:22:12.761Z</time></trkpt><trkpt lat="44.3437401" lon="7.8218226"><ele>507.0</ele><time>2026-05-03T11:22:14.762Z</time></trkpt><trkpt lat="44.3436474" lon="7.8218157"><ele>507.0</ele><time>2026-05-03T11:22:31.765Z</time></trkpt><trkpt lat="44.3436989" lon="7.8218798"><ele>507.0</ele><time>2026-05-03T11:22:41.758Z</time></trkpt><trkpt lat="44.3437648" lon="7.8218614"><ele>507.0</ele><time>2026-05-03T11:22:42.759Z</time></trkpt><trkpt lat="44.3438503" lon="7.8218429"><ele>507.0</ele><time>2026-05-03T11:22:43.786Z</time></trkpt><trkpt lat="44.3439673" lon="7.8218292"><ele>507.0</ele><time>2026-05-03T11:22:44.759Z</time></trkpt><trkpt lat="44.3441049" lon="7.821808"><ele>507.0</ele><time>2026-05-03T11:22:45.758Z</time></trkpt><trkpt lat="44.3442477" lon="7.8217641"><ele>507.0</ele><time>2026-05-03T11:22:46.759Z</time></trkpt><trkpt lat="44.3443923" lon="7.8217014"><ele>507.0</ele><time>2026-05-03T11:22:47.756Z</time></trkpt><trkpt lat="44.3445287" lon="7.8216306"><ele>507.0</ele><time>2026-05-03T11:22:48.758Z</time></trkpt><trkpt lat="44.3446493" lon="7.821576"><ele>507.8</ele><time>2026-05-03T11:22:49.76Z</time></trkpt><trkpt lat="44.3447558" lon="7.8215354"><ele>508.6</ele><time>2026-05-03T11:22:50.76Z</time></trkpt><trkpt lat="44.3448419" lon="7.821502"><ele>509.40000000000003</ele><time>2026-05-03T11:22:51.76Z</time></trkpt><trkpt lat="44.3449075" lon="7.8214712"><ele>510.20000000000005</ele><time>2026-05-03T11:22:52.757Z</time></trkpt><trkpt lat="44.3449668" lon="7.8214038"><ele>511.0</ele><time>2026-05-03T11:22:54.755Z</time></trkpt><trkpt lat="44.3449152" lon="7.8212715"><ele>511.0</ele><time>2026-05-03T11:22:57.763Z</time></trkpt><trkpt lat="44.3448367" lon="7.8212512"><ele>511.0</ele><time>2026-05-03T11:22:58.761Z</time></trkpt><trkpt lat="44.3447333" lon="7.8212302"><ele>511.0</ele><time>2026-05-03T11:22:59.762Z</time></trkpt><trkpt lat="44.3446141" lon="7.8212083"><ele>511.0</ele><time>2026-05-03T11:23:00.758Z</time></trkpt><trkpt lat="44.3444792" lon="7.8211761"><ele>511.0</ele><time>2026-05-03T11:23:01.758Z</time></trkpt><trkpt lat="44.3443282" lon="7.8211353"><ele>509.6666666666667</ele><time>2026-05-03T11:23:02.759Z</time></trkpt><trkpt lat="44.3441602" lon="7.8210931"><ele>508.33333333333337</ele><time>2026-05-03T11:23:03.761Z</time></trkpt><trkpt lat="44.3439842" lon="7.8210541"><ele>507.0</ele><time>2026-05-03T11:23:04.768Z</time></trkpt><trkpt lat="44.3438036" lon="7.821009"><ele>505.66666666666663</ele><time>2026-05-03T11:23:05.768Z</time></trkpt><trkpt lat="44.3436161" lon="7.8209628"><ele>504.3333333333333</ele><time>2026-05-03T11:23:06.762Z</time></trkpt><trkpt lat="44.3434335" lon="7.8209219"><ele>503.0</ele><time>2026-05-03T11:23:07.765Z</time></trkpt><trkpt lat="44.343257" lon="7.8208793"><ele>503.0</ele><time>2026-05-03T11:23:08.767Z</time></trkpt><trkpt lat="44.343083" lon="7.820835"><ele>503.0</ele><time>2026-05-03T11:23:09.763Z</time></trkpt><trkpt lat="44.3429116" lon="7.8207855"><ele>503.0</ele><time>2026-05-03T11:23:10.77Z</time></trkpt><trkpt lat="44.342743" lon="7.8207306"><ele>504.66666666666663</ele><time>2026-05-03T11:23:11.769Z</time></trkpt><trkpt lat="44.3425771" lon="7.8206761"><ele>506.33333333333337</ele><time>2026-05-03T11:23:12.787Z</time></trkpt><trkpt lat="44.3424142" lon="7.8206197"><ele>508.0</ele><time>2026-05-03T11:23:13.759Z</time></trkpt><trkpt lat="44.3422496" lon="7.8205709"><ele>508.0</ele><time>2026-05-03T11:23:14.765Z</time></trkpt><trkpt lat="44.3420801" lon="7.8205287"><ele>508.0</ele><time>2026-05-03T11:23:15.763Z</time></trkpt><trkpt lat="44.3419078" lon="7.8205025"><ele>508.0</ele><time>2026-05-03T11:23:16.76Z</time></trkpt><trkpt lat="44.341733" lon="7.820492"><ele>508.0</ele><time>2026-05-03T11:23:17.764Z</time></trkpt><trkpt lat="44.3415582" lon="7.8204941"><ele>508.0</ele><time>2026-05-03T11:23:18.768Z</time></trkpt><trkpt lat="44.3413859" lon="7.8205004"><ele>508.0</ele><time>2026-05-03T11:23:19.768Z</time></trkpt><trkpt lat="44.3412179" lon="7.820508"><ele>508.33333333333337</ele><time>2026-05-03T11:23:20.768Z</time></trkpt><trkpt lat="44.3410581" lon="7.8205184"><ele>508.66666666666663</ele><time>2026-05-03T11:23:21.77Z</time></trkpt><trkpt lat="44.3409041" lon="7.8205329"><ele>509.0</ele><time>2026-05-03T11:23:22.768Z</time></trkpt><trkpt lat="44.3407593" lon="7.8205448"><ele>509.0</ele><time>2026-05-03T11:23:23.766Z</time></trkpt><trkpt lat="44.3406236" lon="7.8205541"><ele>509.0</ele><time>2026-05-03T11:23:24.774Z</time></trkpt><trkpt lat="44.3404992" lon="7.8205612"><ele>509.0</ele><time>2026-05-03T11:23:25.771Z</time></trkpt><trkpt lat="44.340384" lon="7.8205674"><ele>509.0</ele><time>2026-05-03T11:23:26.765Z</time></trkpt><trkpt lat="44.3402787" lon="7.8205714"><ele>509.4</ele><time>2026-05-03T11:23:27.775Z</time></trkpt><trkpt lat="44.3401836" lon="7.8205791"><ele>509.79999999999995</ele><time>2026-05-03T11:23:28.765Z</time></trkpt><trkpt lat="44.3400979" lon="7.820605"><ele>510.20000000000005</ele><time>2026-05-03T11:23:29.772Z</time></trkpt><trkpt lat="44.3400242" lon="7.8206584"><ele>510.6</ele><time>2026-05-03T11:23:30.763Z</time></trkpt><trkpt lat="44.3399622" lon="7.8207493"><ele>511.0</ele><time>2026-05-03T11:23:31.77Z</time></trkpt><trkpt lat="44.3399154" lon="7.8208727"><ele>511.5</ele><time>2026-05-03T11:23:32.764Z</time></trkpt><trkpt lat="44.3398794" lon="7.8210212"><ele>512.0</ele><time>2026-05-03T11:23:33.772Z</time></trkpt><trkpt lat="44.3398439" lon="7.8211849"><ele>512.5</ele><time>2026-05-03T11:23:34.757Z</time></trkpt><trkpt lat="44.339807" lon="7.8213617"><ele>513.0</ele><time>2026-05-03T11:23:35.768Z</time></trkpt><trkpt lat="44.3397727" lon="7.8215409"><ele>513.0</ele><time>2026-05-03T11:23:36.764Z</time></trkpt><trkpt lat="44.3397466" lon="7.8217157"><ele>513.0</ele><time>2026-05-03T11:23:37.762Z</time></trkpt><trkpt lat="44.339728" lon="7.8218771"><ele>513.0</ele><time>2026-05-03T11:23:38.767Z</time></trkpt><trkpt lat="44.3397107" lon="7.8220312"><ele>513.0</ele><time>2026-05-03T11:23:39.767Z</time></trkpt><trkpt lat="44.3396891" lon="7.8221844"><ele>513.4</ele><time>2026-05-03T11:23:40.764Z</time></trkpt><trkpt lat="44.3396617" lon="7.8223257"><ele>513.8</ele><time>2026-05-03T11:23:41.762Z</time></trkpt><trkpt lat="44.3396316" lon="7.8224591"><ele>514.2</ele><time>2026-05-03T11:23:42.767Z</time></trkpt><trkpt lat="44.3396028" lon="7.8225841"><ele>514.6</ele><time>2026-05-03T11:23:43.766Z</time></trkpt><trkpt lat="44.3395751" lon="7.822699"><ele>515.0</ele><time>2026-05-03T11:23:44.765Z</time></trkpt><trkpt lat="44.3395483" lon="7.8228072"><ele>515.8333333333333</ele><time>2026-05-03T11:23:45.763Z</time></trkpt><trkpt lat="44.339521" lon="7.8229086"><ele>516.6666666666666</ele><time>2026-05-03T11:23:46.764Z</time></trkpt><trkpt lat="44.3394813" lon="7.8230062"><ele>517.5</ele><time>2026-05-03T11:23:47.757Z</time></trkpt><trkpt lat="44.3394228" lon="7.8230937"><ele>518.3333333333334</ele><time>2026-05-03T11:23:48.762Z</time></trkpt><trkpt lat="44.3393501" lon="7.8231632"><ele>519.1666666666667</ele><time>2026-05-03T11:23:49.764Z</time></trkpt><trkpt lat="44.3392649" lon="7.823213"><ele>520.0</ele><time>2026-05-03T11:23:50.771Z</time></trkpt><trkpt lat="44.339177" lon="7.823243"><ele>520.0</ele><time>2026-05-03T11:23:51.766Z</time></trkpt><trkpt lat="44.3390944" lon="7.8232632"><ele>520.0</ele><time>2026-05-03T11:23:52.773Z</time></trkpt><trkpt lat="44.3390134" lon="7.8232988"><ele>520.0</ele><time>2026-05-03T11:23:53.761Z</time></trkpt><trkpt lat="44.3389303" lon="7.8233554"><ele>520.0</ele><time>2026-05-03T11:23:54.772Z</time></trkpt><trkpt lat="44.3388424" lon="7.8234228"><ele>520.0</ele><time>2026-05-03T11:23:55.767Z</time></trkpt><trkpt lat="44.3387486" lon="7.823494"><ele>525.5</ele><time>2026-05-03T11:23:56.763Z</time></trkpt><trkpt lat="44.3386499" lon="7.8235635"><ele>531.0</ele><time>2026-05-03T11:23:57.764Z</time></trkpt><trkpt lat="44.3385444" lon="7.8236208"><ele>536.5</ele><time>2026-05-03T11:23:58.766Z</time></trkpt><trkpt lat="44.3384325" lon="7.8236522"><ele>542.0</ele><time>2026-05-03T11:23:59.765Z</time></trkpt><trkpt lat="44.3383166" lon="7.8236655"><ele>542.0</ele><time>2026-05-03T11:24:00.758Z</time></trkpt><trkpt lat="44.3381974" lon="7.823678"><ele>542.0</ele><time>2026-05-03T11:24:01.762Z</time></trkpt><trkpt lat="44.3380733" lon="7.8236968"><ele>542.0</ele><time>2026-05-03T11:24:02.759Z</time></trkpt><trkpt lat="44.3379456" lon="7.8237102"><ele>542.0</ele><time>2026-05-03T11:24:03.767Z</time></trkpt><trkpt lat="44.3378104" lon="7.823731"><ele>541.4</ele><time>2026-05-03T11:24:04.77Z</time></trkpt><trkpt lat="44.3376782" lon="7.8237529"><ele>540.8000000000001</ele><time>2026-05-03T11:24:05.765Z</time></trkpt><trkpt lat="44.3375623" lon="7.8237709"><ele>540.2</ele><time>2026-05-03T11:24:06.767Z</time></trkpt><trkpt lat="44.3374659" lon="7.8237874"><ele>539.6</ele><time>2026-05-03T11:24:07.767Z</time></trkpt><trkpt lat="44.3373855" lon="7.8238121"><ele>539.0</ele><time>2026-05-03T11:24:08.764Z</time></trkpt><trkpt lat="44.3373232" lon="7.8238585"><ele>539.0</ele><time>2026-05-03T11:24:09.764Z</time></trkpt><trkpt lat="44.337278" lon="7.8239265"><ele>539.0</ele><time>2026-05-03T11:24:10.763Z</time></trkpt><trkpt lat="44.337255" lon="7.8240149"><ele>539.0</ele><time>2026-05-03T11:24:11.765Z</time></trkpt><trkpt lat="44.3372361" lon="7.8241104"><ele>539.0</ele><time>2026-05-03T11:24:12.766Z</time></trkpt><trkpt lat="44.3372197" lon="7.8242027"><ele>539.0</ele><time>2026-05-03T11:24:13.763Z</time></trkpt><trkpt lat="44.3371698" lon="7.824308"><ele>539.0</ele><time>2026-05-03T11:24:15.759Z</time></trkpt><trkpt lat="44.3370779" lon="7.8243304"><ele>541.4285714285714</ele><time>2026-05-03T11:24:17.766Z</time></trkpt><trkpt lat="44.3370046" lon="7.8243385"><ele>543.8571428571429</ele><time>2026-05-03T11:24:18.772Z</time></trkpt><trkpt lat="44.3369288" lon="7.8243509"><ele>546.2857142857142</ele><time>2026-05-03T11:24:19.771Z</time></trkpt><trkpt lat="44.3368579" lon="7.8243578"><ele>548.7142857142858</ele><time>2026-05-03T11:24:20.77Z</time></trkpt><trkpt lat="44.336788" lon="7.8243721"><ele>551.1428571428571</ele><time>2026-05-03T11:24:21.769Z</time></trkpt><trkpt lat="44.3367177" lon="7.8244064"><ele>553.5714285714286</ele><time>2026-05-03T11:24:22.766Z</time></trkpt><trkpt lat="44.3366523" lon="7.8244258"><ele>556.0</ele><time>2026-05-03T11:24:23.771Z</time></trkpt><trkpt lat="44.3365865" lon="7.8244518"><ele>556.0</ele><time>2026-05-03T11:24:24.765Z</time></trkpt><trkpt lat="44.3365164" lon="7.8244827"><ele>556.0</ele><time>2026-05-03T11:24:25.77Z</time></trkpt><trkpt lat="44.3364508" lon="7.8245132"><ele>556.0</ele><time>2026-05-03T11:24:26.767Z</time></trkpt><trkpt lat="44.3363881" lon="7.8245541"><ele>556.0</ele><time>2026-05-03T11:24:27.765Z</time></trkpt><trkpt lat="44.3363411" lon="7.8246192"><ele>556.0</ele><time>2026-05-03T11:24:28.764Z</time></trkpt><trkpt lat="44.3362438" lon="7.8246918"><ele>556.0</ele><time>2026-05-03T11:24:30.755Z</time></trkpt><trkpt lat="44.336164" lon="7.8248125"><ele>554.8333333333334</ele><time>2026-05-03T11:24:32.762Z</time></trkpt><trkpt lat="44.336124" lon="7.8248832"><ele>553.6666666666667</ele><time>2026-05-03T11:24:33.755Z</time></trkpt><trkpt lat="44.3360837" lon="7.8249663"><ele>552.5</ele><time>2026-05-03T11:24:34.763Z</time></trkpt><trkpt lat="44.3360448" lon="7.8250673"><ele>551.3333333333334</ele><time>2026-05-03T11:24:35.761Z</time></trkpt><trkpt lat="44.3360138" lon="7.8251764"><ele>550.1666666666666</ele><time>2026-05-03T11:24:36.766Z</time></trkpt><trkpt lat="44.3359913" lon="7.8252891"><ele>549.0</ele><time>2026-05-03T11:24:37.765Z</time></trkpt><trkpt lat="44.3359731" lon="7.8253906"><ele>549.0</ele><time>2026-05-03T11:24:38.767Z</time></trkpt><trkpt lat="44.335951" lon="7.8255499"><ele>549.0</ele><time>2026-05-03T11:24:40.776Z</time></trkpt><trkpt lat="44.3359298" lon="7.8257096"><ele>549.0</ele><time>2026-05-03T11:24:42.768Z</time></trkpt><trkpt lat="44.3359115" lon="7.8257953"><ele>549.0</ele><time>2026-05-03T11:24:43.765Z</time></trkpt><trkpt lat="44.3358679" lon="7.8259586"><ele>549.0</ele><time>2026-05-03T11:24:45.764Z</time></trkpt><trkpt lat="44.3358345" lon="7.8260478"><ele>549.8</ele><time>2026-05-03T11:24:46.767Z</time></trkpt><trkpt lat="44.3358211" lon="7.8261893"><ele>550.5999999999999</ele><time>2026-05-03T11:24:48.758Z</time></trkpt><trkpt lat="44.3358165" lon="7.8262772"><ele>551.4</ele><time>2026-05-03T11:24:49.763Z</time></trkpt><trkpt lat="44.3357744" lon="7.8263995"><ele>552.1999999999999</ele><time>2026-05-03T11:24:51.762Z</time></trkpt><trkpt lat="44.3357229" lon="7.8265302"><ele>553.0</ele><time>2026-05-03T11:24:53.761Z</time></trkpt><trkpt lat="44.335696" lon="7.8266374"><ele>553.0</ele><time>2026-05-03T11:24:54.754Z</time></trkpt><trkpt lat="44.3356792" lon="7.8267402"><ele>553.0</ele><time>2026-05-03T11:24:55.761Z</time></trkpt><trkpt lat="44.3356646" lon="7.826852"><ele>553.0</ele><time>2026-05-03T11:24:56.756Z</time></trkpt><trkpt lat="44.3356456" lon="7.826937"><ele>553.0</ele><time>2026-05-03T11:24:57.763Z</time></trkpt><trkpt lat="44.3356287" lon="7.8270677"><ele>553.0</ele><time>2026-05-03T11:24:59.764Z</time></trkpt><trkpt lat="44.3356045" lon="7.8272078"><ele>553.0</ele><time>2026-05-03T11:25:01.758Z</time></trkpt><trkpt lat="44.3355956" lon="7.827324"><ele>554.6666666666667</ele><time>2026-05-03T11:25:02.762Z</time></trkpt><trkpt lat="44.335591" lon="7.827414"><ele>556.3333333333334</ele><time>2026-05-03T11:25:03.772Z</time></trkpt><trkpt lat="44.3355644" lon="7.8275094"><ele>558.0</ele><time>2026-05-03T11:25:04.761Z</time></trkpt><trkpt lat="44.3355435" lon="7.8276339"><ele>559.6666666666666</ele><time>2026-05-03T11:25:06.762Z</time></trkpt><trkpt lat="44.3355962" lon="7.8278019"><ele>561.3333333333333</ele><time>2026-05-03T11:25:08.762Z</time></trkpt><trkpt lat="44.3356301" lon="7.8279169"><ele>563.0</ele><time>2026-05-03T11:25:10.76Z</time></trkpt><trkpt lat="44.3356055" lon="7.8280022"><ele>563.6666666666666</ele><time>2026-05-03T11:25:12.76Z</time></trkpt><trkpt lat="44.3355287" lon="7.8281186"><ele>564.3333333333333</ele><time>2026-05-03T11:25:14.76Z</time></trkpt><trkpt lat="44.3354987" lon="7.8281977"><ele>565.0</ele><time>2026-05-03T11:25:15.767Z</time></trkpt><trkpt lat="44.3354642" lon="7.8283301"><ele>565.6666666666666</ele><time>2026-05-03T11:25:17.765Z</time></trkpt><trkpt lat="44.3354402" lon="7.8284273"><ele>566.3333333333334</ele><time>2026-05-03T11:25:18.76Z</time></trkpt><trkpt lat="44.3353889" lon="7.8285169"><ele>567.0</ele><time>2026-05-03T11:25:19.769Z</time></trkpt><trkpt lat="44.3353336" lon="7.8286067"><ele>567.0</ele><time>2026-05-03T11:25:20.763Z</time></trkpt><trkpt lat="44.3352599" lon="7.8286929"><ele>567.0</ele><time>2026-05-03T11:25:21.76Z</time></trkpt><trkpt lat="44.3352096" lon="7.8287903"><ele>567.0</ele><time>2026-05-03T11:25:22.766Z</time></trkpt><trkpt lat="44.3351753" lon="7.8288907"><ele>567.0</ele><time>2026-05-03T11:25:23.762Z</time></trkpt><trkpt lat="44.3351412" lon="7.828993"><ele>567.0</ele><time>2026-05-03T11:25:24.765Z</time></trkpt><trkpt lat="44.3351004" lon="7.829077"><ele>567.0</ele><time>2026-05-03T11:25:25.766Z</time></trkpt><trkpt lat="44.3350472" lon="7.8291732"><ele>567.0</ele><time>2026-05-03T11:25:26.763Z</time></trkpt><trkpt lat="44.3350091" lon="7.8292472"><ele>567.0</ele><time>2026-05-03T11:25:27.763Z</time></trkpt><trkpt lat="44.3349645" lon="7.8293828"><ele>567.0</ele><time>2026-05-03T11:25:29.762Z</time></trkpt><trkpt lat="44.3349076" lon="7.8295079"><ele>567.0</ele><time>2026-05-03T11:25:31.76Z</time></trkpt><trkpt lat="44.3348705" lon="7.8296526"><ele>567.0</ele><time>2026-05-03T11:25:33.767Z</time></trkpt><trkpt lat="44.334866" lon="7.8298089"><ele>568.6</ele><time>2026-05-03T11:25:35.764Z</time></trkpt><trkpt lat="44.3348579" lon="7.8299278"><ele>570.2</ele><time>2026-05-03T11:25:37.764Z</time></trkpt><trkpt lat="44.3348603" lon="7.8301115"><ele>571.8</ele><time>2026-05-03T11:25:39.768Z</time></trkpt><trkpt lat="44.3348656" lon="7.8302895"><ele>573.4</ele><time>2026-05-03T11:25:41.764Z</time></trkpt><trkpt lat="44.3348704" lon="7.8304001"><ele>575.0</ele><time>2026-05-03T11:25:42.768Z</time></trkpt><trkpt lat="44.3348767" lon="7.8305093"><ele>576.0</ele><time>2026-05-03T11:25:43.762Z</time></trkpt><trkpt lat="44.3348986" lon="7.8306119"><ele>577.0</ele><time>2026-05-03T11:25:44.761Z</time></trkpt><trkpt lat="44.3349155" lon="7.8307077"><ele>578.0</ele><time>2026-05-03T11:25:45.77Z</time></trkpt><trkpt lat="44.3349329" lon="7.8307973"><ele>579.0</ele><time>2026-05-03T11:25:46.777Z</time></trkpt><trkpt lat="44.3349906" lon="7.8309411"><ele>580.0</ele><time>2026-05-03T11:25:48.769Z</time></trkpt><trkpt lat="44.3350185" lon="7.8310227"><ele>581.0</ele><time>2026-05-03T11:25:49.766Z</time></trkpt><trkpt lat="44.3350857" lon="7.8311706"><ele>581.4</ele><time>2026-05-03T11:25:51.767Z</time></trkpt><trkpt lat="44.3351427" lon="7.8313219"><ele>581.8</ele><time>2026-05-03T11:25:53.764Z</time></trkpt><trkpt lat="44.3351874" lon="7.831422"><ele>582.1999999999999</ele><time>2026-05-03T11:25:55.758Z</time></trkpt><trkpt lat="44.3352485" lon="7.8315013"><ele>582.6</ele><time>2026-05-03T11:25:57.761Z</time></trkpt><trkpt lat="44.3353134" lon="7.8315971"><ele>583.0</ele><time>2026-05-03T11:25:59.762Z</time></trkpt><trkpt lat="44.3353246" lon="7.8317483"><ele>584.4</ele><time>2026-05-03T11:26:01.762Z</time></trkpt><trkpt lat="44.335368" lon="7.8318806"><ele>585.8</ele><time>2026-05-03T11:26:03.765Z</time></trkpt><trkpt lat="44.3354094" lon="7.8319886"><ele>587.2</ele><time>2026-05-03T11:26:05.762Z</time></trkpt><trkpt lat="44.335443" lon="7.8320898"><ele>588.6</ele><time>2026-05-03T11:26:06.761Z</time></trkpt><trkpt lat="44.3354531" lon="7.8322084"><ele>590.0</ele><time>2026-05-03T11:26:08.765Z</time></trkpt><trkpt lat="44.3355145" lon="7.8323376"><ele>591.8571428571429</ele><time>2026-05-03T11:26:10.763Z</time></trkpt><trkpt lat="44.335559" lon="7.8324052"><ele>593.7142857142858</ele><time>2026-05-03T11:26:11.765Z</time></trkpt><trkpt lat="44.3356043" lon="7.8325153"><ele>595.5714285714287</ele><time>2026-05-03T11:26:13.763Z</time></trkpt><trkpt lat="44.3356022" lon="7.8326248"><ele>597.4285714285714</ele><time>2026-05-03T11:26:14.771Z</time></trkpt><trkpt lat="44.335607" lon="7.8327312"><ele>599.2857142857142</ele><time>2026-05-03T11:26:15.766Z</time></trkpt><trkpt lat="44.3355928" lon="7.8328222"><ele>601.1428571428572</ele><time>2026-05-03T11:26:16.77Z</time></trkpt><trkpt lat="44.3355914" lon="7.8329118"><ele>603.0</ele><time>2026-05-03T11:26:17.763Z</time></trkpt><trkpt lat="44.335592" lon="7.8330623"><ele>603.0</ele><time>2026-05-03T11:26:19.762Z</time></trkpt><trkpt lat="44.3356064" lon="7.8332009"><ele>603.0</ele><time>2026-05-03T11:26:21.764Z</time></trkpt><trkpt lat="44.3356315" lon="7.8332928"><ele>603.0</ele><time>2026-05-03T11:26:22.766Z</time></trkpt><trkpt lat="44.3356503" lon="7.8333885"><ele>603.0</ele><time>2026-05-03T11:26:23.764Z</time></trkpt><trkpt lat="44.3356547" lon="7.8335286"><ele>603.0</ele><time>2026-05-03T11:26:25.764Z</time></trkpt><trkpt lat="44.3356275" lon="7.8336127"><ele>603.0</ele><time>2026-05-03T11:26:26.759Z</time></trkpt><trkpt lat="44.335614" lon="7.8337125"><ele>603.3333333333334</ele><time>2026-05-03T11:26:27.759Z</time></trkpt><trkpt lat="44.3355951" lon="7.8338117"><ele>603.6666666666666</ele><time>2026-05-03T11:26:28.758Z</time></trkpt><trkpt lat="44.3355664" lon="7.8339178"><ele>604.0</ele><time>2026-05-03T11:26:29.762Z</time></trkpt><trkpt lat="44.3355201" lon="7.834036"><ele>604.3333333333333</ele><time>2026-05-03T11:26:30.758Z</time></trkpt><trkpt lat="44.3354925" lon="7.8341277"><ele>604.6666666666666</ele><time>2026-05-03T11:26:31.76Z</time></trkpt><trkpt lat="44.335461" lon="7.8342269"><ele>605.0</ele><time>2026-05-03T11:26:32.756Z</time></trkpt><trkpt lat="44.3354282" lon="7.834375"><ele>605.0</ele><time>2026-05-03T11:26:34.762Z</time></trkpt><trkpt lat="44.335412" lon="7.8344689"><ele>605.0</ele><time>2026-05-03T11:26:36.757Z</time></trkpt><trkpt lat="44.3353573" lon="7.8345555"><ele>605.0</ele><time>2026-05-03T11:26:38.763Z</time></trkpt><trkpt lat="44.3352845" lon="7.8346351"><ele>605.0</ele><time>2026-05-03T11:26:40.759Z</time></trkpt><trkpt lat="44.3352261" lon="7.8348"><ele>605.0</ele><time>2026-05-03T11:26:42.759Z</time></trkpt><trkpt lat="44.3351858" lon="7.834893"><ele>605.0</ele><time>2026-05-03T11:26:43.764Z</time></trkpt><trkpt lat="44.3351451" lon="7.8349834"><ele>605.0</ele><time>2026-05-03T11:26:44.763Z</time></trkpt><trkpt lat="44.3351087" lon="7.8350751"><ele>605.0</ele><time>2026-05-03T11:26:45.76Z</time></trkpt><trkpt lat="44.3350568" lon="7.8352226"><ele>605.0</ele><time>2026-05-03T11:26:47.766Z</time></trkpt><trkpt lat="44.3349843" lon="7.8353585"><ele>605.0</ele><time>2026-05-03T11:26:49.763Z</time></trkpt><trkpt lat="44.3349473" lon="7.835441"><ele>606.6666666666666</ele><time>2026-05-03T11:26:50.764Z</time></trkpt><trkpt lat="44.3349216" lon="7.8355318"><ele>608.3333333333333</ele><time>2026-05-03T11:26:51.763Z</time></trkpt><trkpt lat="44.334891" lon="7.8356234"><ele>610.0</ele><time>2026-05-03T11:26:52.766Z</time></trkpt><trkpt lat="44.3348576" lon="7.8357209"><ele>611.6666666666666</ele><time>2026-05-03T11:26:53.762Z</time></trkpt><trkpt lat="44.3348172" lon="7.8358027"><ele>613.3333333333334</ele><time>2026-05-03T11:26:54.759Z</time></trkpt><trkpt lat="44.3347511" lon="7.8359228"><ele>615.0</ele><time>2026-05-03T11:26:56.764Z</time></trkpt><trkpt lat="44.3346936" lon="7.8360279"><ele>615.0</ele><time>2026-05-03T11:26:58.765Z</time></trkpt><trkpt lat="44.3348106" lon="7.8360501"><ele>615.0</ele><time>2026-05-03T11:27:04.764Z</time></trkpt><trkpt lat="44.3349042" lon="7.8359976"><ele>615.0</ele><time>2026-05-03T11:27:06.763Z</time></trkpt><trkpt lat="44.3349706" lon="7.8359092"><ele>615.0</ele><time>2026-05-03T11:27:08.771Z</time></trkpt><trkpt lat="44.3350358" lon="7.8358114"><ele>615.0</ele><time>2026-05-03T11:27:10.769Z</time></trkpt><trkpt lat="44.335122" lon="7.8357083"><ele>615.0</ele><time>2026-05-03T11:27:12.759Z</time></trkpt><trkpt lat="44.3351835" lon="7.835618"><ele>615.0</ele><time>2026-05-03T11:27:14.762Z</time></trkpt><trkpt lat="44.3352441" lon="7.8355671"><ele>615.0</ele><time>2026-05-03T11:27:16.77Z</time></trkpt><trkpt lat="44.3352385" lon="7.8356775"><ele>615.0</ele><time>2026-05-03T11:27:21.766Z</time></trkpt><trkpt lat="44.3352003" lon="7.8357661"><ele>615.0</ele><time>2026-05-03T11:27:23.817Z</time></trkpt><trkpt lat="44.3351988" lon="7.8358979"><ele>615.0</ele><time>2026-05-03T11:27:25.776Z</time></trkpt><trkpt lat="44.3352101" lon="7.8359882"><ele>617.0</ele><time>2026-05-03T11:27:26.768Z</time></trkpt><trkpt lat="44.3352471" lon="7.8361455"><ele>619.0</ele><time>2026-05-03T11:27:28.77Z</time></trkpt><trkpt lat="44.3352599" lon="7.8362548"><ele>621.0</ele><time>2026-05-03T11:27:30.771Z</time></trkpt><trkpt lat="44.3352444" lon="7.8364497"><ele>623.0</ele><time>2026-05-03T11:27:58.783Z</time></trkpt><trkpt lat="44.3352079" lon="7.836534"><ele>625.0</ele><time>2026-05-03T11:28:01.786Z</time></trkpt><trkpt lat="44.3351476" lon="7.8365912"><ele>625.0</ele><time>2026-05-03T11:28:06.778Z</time></trkpt><trkpt lat="44.3350916" lon="7.8366524"><ele>625.0</ele><time>2026-05-03T11:28:08.783Z</time></trkpt><trkpt lat="44.3350607" lon="7.8367348"><ele>625.0</ele><time>2026-05-03T11:28:10.766Z</time></trkpt><trkpt lat="44.3349939" lon="7.8368572"><ele>625.0</ele><time>2026-05-03T11:28:12.765Z</time></trkpt><trkpt lat="44.3349521" lon="7.8369652"><ele>625.0</ele><time>2026-05-03T11:28:14.765Z</time></trkpt><trkpt lat="44.3349167" lon="7.8370983"><ele>625.0</ele><time>2026-05-03T11:28:16.769Z</time></trkpt><trkpt lat="44.3348771" lon="7.8372168"><ele>627.0</ele><time>2026-05-03T11:28:18.769Z</time></trkpt><trkpt lat="44.3348299" lon="7.8373162"><ele>629.0</ele><time>2026-05-03T11:28:20.77Z</time></trkpt><trkpt lat="44.3347803" lon="7.8373962"><ele>631.0</ele><time>2026-05-03T11:28:22.775Z</time></trkpt><trkpt lat="44.334717" lon="7.8374765"><ele>633.0</ele><time>2026-05-03T11:28:25.773Z</time></trkpt><trkpt lat="44.3346637" lon="7.8375623"><ele>635.0</ele><time>2026-05-03T11:28:27.77Z</time></trkpt><trkpt lat="44.3346156" lon="7.8376234"><ele>637.0</ele><time>2026-05-03T11:28:28.76Z</time></trkpt><trkpt lat="44.334536" lon="7.837711"><ele>638.0</ele><time>2026-05-03T11:28:30.768Z</time></trkpt><trkpt lat="44.3344635" lon="7.8377906"><ele>639.0</ele><time>2026-05-03T11:28:32.771Z</time></trkpt><trkpt lat="44.3343936" lon="7.8378647"><ele>640.0</ele><time>2026-05-03T11:28:34.768Z</time></trkpt><trkpt lat="44.3343154" lon="7.8379212"><ele>641.0</ele><time>2026-05-03T11:28:36.766Z</time></trkpt><trkpt lat="44.3342005" lon="7.8379854"><ele>642.0</ele><time>2026-05-03T11:28:38.77Z</time></trkpt><trkpt lat="44.3341331" lon="7.8380203"><ele>642.0</ele><time>2026-05-03T11:28:39.761Z</time></trkpt><trkpt lat="44.3340669" lon="7.8380862"><ele>642.0</ele><time>2026-05-03T11:28:40.765Z</time></trkpt><trkpt lat="44.3339799" lon="7.8381809"><ele>642.0</ele><time>2026-05-03T11:28:42.764Z</time></trkpt><trkpt lat="44.3339151" lon="7.8382698"><ele>642.0</ele><time>2026-05-03T11:28:44.774Z</time></trkpt><trkpt lat="44.3338654" lon="7.8383397"><ele>642.0</ele><time>2026-05-03T11:28:46.77Z</time></trkpt><trkpt lat="44.3337833" lon="7.8384482"><ele>644.8333333333334</ele><time>2026-05-03T11:28:48.778Z</time></trkpt><trkpt lat="44.3337261" lon="7.8386182"><ele>647.6666666666666</ele><time>2026-05-03T11:28:50.769Z</time></trkpt><trkpt lat="44.3336982" lon="7.8387222"><ele>650.5</ele><time>2026-05-03T11:28:51.772Z</time></trkpt><trkpt lat="44.3336935" lon="7.8388181"><ele>653.3333333333333</ele><time>2026-05-03T11:28:52.767Z</time></trkpt><trkpt lat="44.3336975" lon="7.8389267"><ele>656.1666666666666</ele><time>2026-05-03T11:28:53.766Z</time></trkpt><trkpt lat="44.3337063" lon="7.8390184"><ele>659.0</ele><time>2026-05-03T11:28:54.781Z</time></trkpt><trkpt lat="44.333745" lon="7.8391607"><ele>659.0</ele><time>2026-05-03T11:28:56.766Z</time></trkpt><trkpt lat="44.3337816" lon="7.8392372"><ele>659.0</ele><time>2026-05-03T11:28:57.763Z</time></trkpt><trkpt lat="44.3338226" lon="7.8393197"><ele>659.0</ele><time>2026-05-03T11:28:58.77Z</time></trkpt><trkpt lat="44.3338659" lon="7.8394068"><ele>659.0</ele><time>2026-05-03T11:28:59.769Z</time></trkpt><trkpt lat="44.3339065" lon="7.8395072"><ele>659.0</ele><time>2026-05-03T11:29:00.762Z</time></trkpt><trkpt lat="44.3339439" lon="7.8396289"><ele>659.0</ele><time>2026-05-03T11:29:02.763Z</time></trkpt><trkpt lat="44.3340189" lon="7.8397295"><ele>657.0</ele><time>2026-05-03T11:29:04.764Z</time></trkpt><trkpt lat="44.3340879" lon="7.8397671"><ele>655.0</ele><time>2026-05-03T11:29:05.762Z</time></trkpt><trkpt lat="44.3341664" lon="7.8397917"><ele>653.0</ele><time>2026-05-03T11:29:06.767Z</time></trkpt><trkpt lat="44.3342454" lon="7.8398312"><ele>651.0</ele><time>2026-05-03T11:29:07.767Z</time></trkpt><trkpt lat="44.3343377" lon="7.8398641"><ele>649.0</ele><time>2026-05-03T11:29:08.769Z</time></trkpt><trkpt lat="44.3344299" lon="7.8398967"><ele>647.0</ele><time>2026-05-03T11:29:09.764Z</time></trkpt><trkpt lat="44.3345149" lon="7.8399047"><ele>647.0</ele><time>2026-05-03T11:29:10.763Z</time></trkpt><trkpt lat="44.3345909" lon="7.8399162"><ele>647.0</ele><time>2026-05-03T11:29:11.773Z</time></trkpt><trkpt lat="44.3346535" lon="7.8399372"><ele>647.0</ele><time>2026-05-03T11:29:12.767Z</time></trkpt><trkpt lat="44.3347146" lon="7.8399624"><ele>647.0</ele><time>2026-05-03T11:29:13.771Z</time></trkpt><trkpt lat="44.3347835" lon="7.8399956"><ele>647.0</ele><time>2026-05-03T11:29:15.771Z</time></trkpt><trkpt lat="44.3347602" lon="7.8400959"><ele>647.0</ele><time>2026-05-03T11:29:22.767Z</time></trkpt><trkpt lat="44.3346076" lon="7.8401169"><ele>647.0</ele><time>2026-05-03T11:29:24.782Z</time></trkpt><trkpt lat="44.3344996" lon="7.8401081"><ele>647.0</ele><time>2026-05-03T11:29:25.771Z</time></trkpt><trkpt lat="44.3343692" lon="7.840096"><ele>647.0</ele><time>2026-05-03T11:29:26.787Z</time></trkpt><trkpt lat="44.3342409" lon="7.8400711"><ele>647.0</ele><time>2026-05-03T11:29:27.765Z</time></trkpt><trkpt lat="44.3341101" lon="7.8400466"><ele>647.0</ele><time>2026-05-03T11:29:28.776Z</time></trkpt><trkpt lat="44.3339801" lon="7.8400115"><ele>647.0</ele><time>2026-05-03T11:29:29.765Z</time></trkpt><trkpt lat="44.3338527" lon="7.8399559"><ele>647.0</ele><time>2026-05-03T11:29:30.772Z</time></trkpt><trkpt lat="44.3337262" lon="7.8398804"><ele>647.0</ele><time>2026-05-03T11:29:31.762Z</time></trkpt><trkpt lat="44.3336108" lon="7.8397834"><ele>649.0</ele><time>2026-05-03T11:29:32.766Z</time></trkpt><trkpt lat="44.3334946" lon="7.8396862"><ele>651.0</ele><time>2026-05-03T11:29:33.764Z</time></trkpt><trkpt lat="44.3333827" lon="7.8395769"><ele>653.0</ele><time>2026-05-03T11:29:34.77Z</time></trkpt><trkpt lat="44.3332711" lon="7.8394759"><ele>655.0</ele><time>2026-05-03T11:29:35.767Z</time></trkpt><trkpt lat="44.3331507" lon="7.8393776"><ele>658.5</ele><time>2026-05-03T11:29:36.774Z</time></trkpt><trkpt lat="44.333023" lon="7.8392954"><ele>662.0</ele><time>2026-05-03T11:29:37.761Z</time></trkpt><trkpt lat="44.332891" lon="7.8392227"><ele>665.5</ele><time>2026-05-03T11:29:38.765Z</time></trkpt><trkpt lat="44.3327574" lon="7.8391537"><ele>669.0</ele><time>2026-05-03T11:29:39.757Z</time></trkpt><trkpt lat="44.332629" lon="7.839094"><ele>669.0</ele><time>2026-05-03T11:29:40.758Z</time></trkpt><trkpt lat="44.3324894" lon="7.8390568"><ele>669.0</ele><time>2026-05-03T11:29:41.768Z</time></trkpt><trkpt lat="44.3323424" lon="7.8390742"><ele>669.0</ele><time>2026-05-03T11:29:42.778Z</time></trkpt><trkpt lat="44.3321954" lon="7.839092"><ele>669.0</ele><time>2026-05-03T11:29:43.802Z</time></trkpt><trkpt lat="44.332063" lon="7.8391384"><ele>670.0</ele><time>2026-05-03T11:29:44.764Z</time></trkpt><trkpt lat="44.3319412" lon="7.8391761"><ele>671.0</ele><time>2026-05-03T11:29:45.768Z</time></trkpt><trkpt lat="44.3318391" lon="7.8392002"><ele>672.0</ele><time>2026-05-03T11:29:46.762Z</time></trkpt><trkpt lat="44.3317579" lon="7.8392248"><ele>673.0</ele><time>2026-05-03T11:29:47.769Z</time></trkpt><trkpt lat="44.331685" lon="7.8392409"><ele>674.0</ele><time>2026-05-03T11:29:48.764Z</time></trkpt><trkpt lat="44.3316187" lon="7.8392606"><ele>673.2</ele><time>2026-05-03T11:29:49.769Z</time></trkpt><trkpt lat="44.3315132" lon="7.8393201"><ele>672.4000000000001</ele><time>2026-05-03T11:29:51.763Z</time></trkpt><trkpt lat="44.3314209" lon="7.8394533"><ele>671.6</ele><time>2026-05-03T11:29:53.762Z</time></trkpt><trkpt lat="44.3313782" lon="7.8396015"><ele>670.8</ele><time>2026-05-03T11:29:55.762Z</time></trkpt><trkpt lat="44.3313778" lon="7.8397022"><ele>670.0</ele><time>2026-05-03T11:29:56.765Z</time></trkpt><trkpt lat="44.3313757" lon="7.8398192"><ele>670.0</ele><time>2026-05-03T11:29:57.769Z</time></trkpt><trkpt lat="44.3314015" lon="7.8399261"><ele>670.0</ele><time>2026-05-03T11:29:58.763Z</time></trkpt><trkpt lat="44.3314247" lon="7.8400267"><ele>670.0</ele><time>2026-05-03T11:29:59.762Z</time></trkpt><trkpt lat="44.3314335" lon="7.8401937"><ele>670.0</ele><time>2026-05-03T11:30:01.754Z</time></trkpt><trkpt lat="44.3313995" lon="7.840365"><ele>670.0</ele><time>2026-05-03T11:30:03.765Z</time></trkpt><trkpt lat="44.3313899" lon="7.8404821"><ele>673.5</ele><time>2026-05-03T11:30:04.762Z</time></trkpt><trkpt lat="44.3313781" lon="7.8405745"><ele>677.0</ele><time>2026-05-03T11:30:05.76Z</time></trkpt><trkpt lat="44.3313467" lon="7.8406963"><ele>680.5</ele><time>2026-05-03T11:30:07.764Z</time></trkpt><trkpt lat="44.3313259" lon="7.8407795"><ele>684.0</ele><time>2026-05-03T11:30:08.771Z</time></trkpt><trkpt lat="44.3312957" lon="7.8408961"><ele>687.5</ele><time>2026-05-03T11:30:10.763Z</time></trkpt><trkpt lat="44.3312415" lon="7.8409864"><ele>691.0</ele><time>2026-05-03T11:30:12.768Z</time></trkpt><trkpt lat="44.3311567" lon="7.8410378"><ele>691.0</ele><time>2026-05-03T11:30:14.767Z</time></trkpt><trkpt lat="44.3310688" lon="7.8410631"><ele>691.0</ele><time>2026-05-03T11:30:16.755Z</time></trkpt><trkpt lat="44.3310122" lon="7.8411084"><ele>691.0</ele><time>2026-05-03T11:30:17.766Z</time></trkpt><trkpt lat="44.3309286" lon="7.8411181"><ele>691.0</ele><time>2026-05-03T11:30:19.759Z</time></trkpt><trkpt lat="44.330856" lon="7.8411463"><ele>691.0</ele><time>2026-05-03T11:30:21.763Z</time></trkpt><trkpt lat="44.3307999" lon="7.841234"><ele>691.0</ele><time>2026-05-03T11:30:23.76Z</time></trkpt><trkpt lat="44.3307542" lon="7.8413376"><ele>691.0</ele><time>2026-05-03T11:30:25.764Z</time></trkpt><trkpt lat="44.3307053" lon="7.8414803"><ele>691.0</ele><time>2026-05-03T11:30:27.767Z</time></trkpt><trkpt lat="44.3306594" lon="7.8416369"><ele>691.0</ele><time>2026-05-03T11:30:29.762Z</time></trkpt><trkpt lat="44.3305959" lon="7.8417704"><ele>691.0</ele><time>2026-05-03T11:30:31.764Z</time></trkpt><trkpt lat="44.3305408" lon="7.8418412"><ele>691.0</ele><time>2026-05-03T11:30:32.762Z</time></trkpt><trkpt lat="44.3304846" lon="7.8419074"><ele>695.3333333333334</ele><time>2026-05-03T11:30:33.761Z</time></trkpt><trkpt lat="44.3304325" lon="7.841981"><ele>699.6666666666667</ele><time>2026-05-03T11:30:34.753Z</time></trkpt><trkpt lat="44.3303915" lon="7.842069"><ele>704.0</ele><time>2026-05-03T11:30:35.755Z</time></trkpt><trkpt lat="44.3303594" lon="7.8421459"><ele>708.3333333333334</ele><time>2026-05-03T11:30:36.762Z</time></trkpt><trkpt lat="44.3303278" lon="7.8422294"><ele>712.6666666666666</ele><time>2026-05-03T11:30:37.76Z</time></trkpt><trkpt lat="44.3303084" lon="7.8423932"><ele>717.0</ele><time>2026-05-03T11:30:39.757Z</time></trkpt><trkpt lat="44.3303053" lon="7.8424874"><ele>717.0</ele><time>2026-05-03T11:30:40.766Z</time></trkpt><trkpt lat="44.3303014" lon="7.8426034"><ele>717.0</ele><time>2026-05-03T11:30:41.771Z</time></trkpt><trkpt lat="44.3303037" lon="7.8427018"><ele>717.0</ele><time>2026-05-03T11:30:42.759Z</time></trkpt><trkpt lat="44.3303009" lon="7.8428201"><ele>717.0</ele><time>2026-05-03T11:30:44.761Z</time></trkpt><trkpt lat="44.3302561" lon="7.8429534"><ele>717.0</ele><time>2026-05-03T11:30:46.772Z</time></trkpt><trkpt lat="44.3301943" lon="7.8430961"><ele>717.3333333333334</ele><time>2026-05-03T11:30:48.758Z</time></trkpt><trkpt lat="44.3301463" lon="7.8432176"><ele>717.6666666666666</ele><time>2026-05-03T11:30:50.765Z</time></trkpt><trkpt lat="44.3301065" lon="7.843321"><ele>718.0</ele><time>2026-05-03T11:30:52.764Z</time></trkpt><trkpt lat="44.330077" lon="7.8434004"><ele>718.3333333333333</ele><time>2026-05-03T11:30:53.768Z</time></trkpt><trkpt lat="44.330022" lon="7.8435052"><ele>718.6666666666666</ele><time>2026-05-03T11:30:55.76Z</time></trkpt><trkpt lat="44.3299756" lon="7.8436122"><ele>719.0</ele><time>2026-05-03T11:30:57.765Z</time></trkpt><trkpt lat="44.3298959" lon="7.8437489"><ele>719.0</ele><time>2026-05-03T11:30:58.766Z</time></trkpt><trkpt lat="44.329856" lon="7.8438931"><ele>719.0</ele><time>2026-05-03T11:30:59.768Z</time></trkpt><trkpt lat="44.3298174" lon="7.8440068"><ele>719.0</ele><time>2026-05-03T11:31:00.76Z</time></trkpt><trkpt lat="44.3298152" lon="7.8441024"><ele>719.0</ele><time>2026-05-03T11:31:01.763Z</time></trkpt><trkpt lat="44.3298133" lon="7.8442357"><ele>719.0</ele><time>2026-05-03T11:31:02.764Z</time></trkpt><trkpt lat="44.3298223" lon="7.8443298"><ele>719.0</ele><time>2026-05-03T11:31:03.759Z</time></trkpt><trkpt lat="44.329817" lon="7.844482"><ele>719.1666666666666</ele><time>2026-05-03T11:31:05.758Z</time></trkpt><trkpt lat="44.3297637" lon="7.8446082"><ele>719.3333333333333</ele><time>2026-05-03T11:31:07.764Z</time></trkpt><trkpt lat="44.3297007" lon="7.8447397"><ele>719.5</ele><time>2026-05-03T11:31:09.763Z</time></trkpt><trkpt lat="44.3296543" lon="7.8448383"><ele>719.6666666666666</ele><time>2026-05-03T11:31:10.765Z</time></trkpt><trkpt lat="44.3296566" lon="7.8449413"><ele>719.8333333333334</ele><time>2026-05-03T11:31:11.764Z</time></trkpt><trkpt lat="44.3296683" lon="7.8450359"><ele>720.0</ele><time>2026-05-03T11:31:12.764Z</time></trkpt><trkpt lat="44.3296709" lon="7.8451478"><ele>721.8</ele><time>2026-05-03T11:31:13.761Z</time></trkpt><trkpt lat="44.3296647" lon="7.8452894"><ele>723.6</ele><time>2026-05-03T11:31:15.765Z</time></trkpt><trkpt lat="44.3297012" lon="7.8455094"><ele>725.4000000000001</ele><time>2026-05-03T11:31:36.77Z</time></trkpt><trkpt lat="44.3297801" lon="7.8455322"><ele>727.2</ele><time>2026-05-03T11:31:37.77Z</time></trkpt><trkpt lat="44.3298702" lon="7.8455744"><ele>729.0</ele><time>2026-05-03T11:31:38.785Z</time></trkpt><trkpt lat="44.3299639" lon="7.8456146"><ele>729.0</ele><time>2026-05-03T11:31:39.764Z</time></trkpt><trkpt lat="44.3300373" lon="7.8456578"><ele>729.0</ele><time>2026-05-03T11:31:40.776Z</time></trkpt><trkpt lat="44.3301052" lon="7.8457018"><ele>729.0</ele><time>2026-05-03T11:31:41.761Z</time></trkpt><trkpt lat="44.3301667" lon="7.8457613"><ele>729.0</ele><time>2026-05-03T11:31:42.764Z</time></trkpt><trkpt lat="44.3302253" lon="7.8458193"><ele>729.0</ele><time>2026-05-03T11:31:43.76Z</time></trkpt><trkpt lat="44.3303215" lon="7.8459181"><ele>729.0</ele><time>2026-05-03T11:31:45.763Z</time></trkpt><trkpt lat="44.3303878" lon="7.8460374"><ele>727.2</ele><time>2026-05-03T11:31:47.765Z</time></trkpt><trkpt lat="44.3304369" lon="7.8461192"><ele>725.4000000000001</ele><time>2026-05-03T11:31:49.761Z</time></trkpt><trkpt lat="44.3305149" lon="7.8461991"><ele>723.6</ele><time>2026-05-03T11:31:51.765Z</time></trkpt><trkpt lat="44.3306159" lon="7.8462843"><ele>721.8</ele><time>2026-05-03T11:31:53.766Z</time></trkpt><trkpt lat="44.3307103" lon="7.8463003"><ele>720.0</ele><time>2026-05-03T11:31:55.762Z</time></trkpt><trkpt lat="44.3307906" lon="7.8462757"><ele>720.0</ele><time>2026-05-03T11:31:57.763Z</time></trkpt><trkpt lat="44.3308897" lon="7.8463334"><ele>720.0</ele><time>2026-05-03T11:31:59.763Z</time></trkpt><trkpt lat="44.3309881" lon="7.8464049"><ele>720.0</ele><time>2026-05-03T11:32:01.763Z</time></trkpt><trkpt lat="44.3310592" lon="7.8464391"><ele>720.0</ele><time>2026-05-03T11:32:02.768Z</time></trkpt><trkpt lat="44.3311264" lon="7.8464696"><ele>720.0</ele><time>2026-05-03T11:32:03.763Z</time></trkpt><trkpt lat="44.3311861" lon="7.8465024"><ele>720.0</ele><time>2026-05-03T11:32:04.766Z</time></trkpt><trkpt lat="44.3313071" lon="7.8465579"><ele>716.0</ele><time>2026-05-03T11:32:06.769Z</time></trkpt><trkpt lat="44.3314219" lon="7.8465727"><ele>712.0</ele><time>2026-05-03T11:32:08.76Z</time></trkpt><trkpt lat="44.3315469" lon="7.8465994"><ele>708.0</ele><time>2026-05-03T11:32:10.765Z</time></trkpt><trkpt lat="44.3316543" lon="7.8467087"><ele>704.0</ele><time>2026-05-03T11:32:12.764Z</time></trkpt><trkpt lat="44.3317061" lon="7.8468"><ele>704.0</ele><time>2026-05-03T11:32:14.765Z</time></trkpt><trkpt lat="44.3317418" lon="7.8468741"><ele>704.0</ele><time>2026-05-03T11:32:16.767Z</time></trkpt><trkpt lat="44.3317883" lon="7.8469756"><ele>704.0</ele><time>2026-05-03T11:32:19.766Z</time></trkpt><trkpt lat="44.3318365" lon="7.8470638"><ele>704.0</ele><time>2026-05-03T11:32:23.761Z</time></trkpt><trkpt lat="44.3319186" lon="7.8471889"><ele>704.0</ele><time>2026-05-03T11:32:25.764Z</time></trkpt><trkpt lat="44.3319717" lon="7.8472549"><ele>704.0</ele><time>2026-05-03T11:32:26.761Z</time></trkpt><trkpt lat="44.3320264" lon="7.8473201"><ele>704.0</ele><time>2026-05-03T11:32:27.764Z</time></trkpt><trkpt lat="44.3321021" lon="7.8474037"><ele>704.0</ele><time>2026-05-03T11:32:29.765Z</time></trkpt><trkpt lat="44.3321522" lon="7.8475115"><ele>704.0</ele><time>2026-05-03T11:32:31.766Z</time></trkpt><trkpt lat="44.3321686" lon="7.8476276"><ele>704.0</ele><time>2026-05-03T11:32:33.766Z</time></trkpt><trkpt lat="44.3321898" lon="7.8477901"><ele>704.0</ele><time>2026-05-03T11:32:35.763Z</time></trkpt><trkpt lat="44.3322074" lon="7.847882"><ele>700.0</ele><time>2026-05-03T11:32:36.768Z</time></trkpt><trkpt lat="44.3322394" lon="7.8480299"><ele>696.0</ele><time>2026-05-03T11:32:38.762Z</time></trkpt><trkpt lat="44.3323041" lon="7.84815"><ele>692.0</ele><time>2026-05-03T11:32:40.765Z</time></trkpt><trkpt lat="44.3323639" lon="7.8482002"><ele>688.0</ele><time>2026-05-03T11:32:41.767Z</time></trkpt><trkpt lat="44.3324406" lon="7.8482709"><ele>684.0</ele><time>2026-05-03T11:32:42.761Z</time></trkpt><trkpt lat="44.3325149" lon="7.8483619"><ele>682.4000000000001</ele><time>2026-05-03T11:32:43.763Z</time></trkpt><trkpt lat="44.3325758" lon="7.8484862"><ele>680.8</ele><time>2026-05-03T11:32:44.77Z</time></trkpt><trkpt lat="44.3326471" lon="7.8486204"><ele>679.2</ele><time>2026-05-03T11:32:45.763Z</time></trkpt><trkpt lat="44.3327099" lon="7.8487501"><ele>677.5999999999999</ele><time>2026-05-03T11:32:46.768Z</time></trkpt><trkpt lat="44.3327544" lon="7.8488439"><ele>676.0</ele><time>2026-05-03T11:32:47.76Z</time></trkpt><trkpt lat="44.3327928" lon="7.8489322"><ele>676.0</ele><time>2026-05-03T11:32:48.766Z</time></trkpt><trkpt lat="44.3328526" lon="7.8490163"><ele>676.0</ele><time>2026-05-03T11:32:50.762Z</time></trkpt><trkpt lat="44.3329221" lon="7.8490771"><ele>676.0</ele><time>2026-05-03T11:32:52.766Z</time></trkpt><trkpt lat="44.3330035" lon="7.8491793"><ele>676.0</ele><time>2026-05-03T11:32:54.763Z</time></trkpt><trkpt lat="44.3330819" lon="7.8492967"><ele>676.0</ele><time>2026-05-03T11:32:56.763Z</time></trkpt><trkpt lat="44.3331737" lon="7.849413"><ele>676.4</ele><time>2026-05-03T11:32:58.761Z</time></trkpt><trkpt lat="44.3332415" lon="7.8494936"><ele>676.8</ele><time>2026-05-03T11:33:00.767Z</time></trkpt><trkpt lat="44.3333299" lon="7.8496329"><ele>677.1999999999999</ele><time>2026-05-03T11:33:02.775Z</time></trkpt><trkpt lat="44.3333873" lon="7.849738"><ele>677.5999999999999</ele><time>2026-05-03T11:33:03.763Z</time></trkpt><trkpt lat="44.3334458" lon="7.8498474"><ele>678.0</ele><time>2026-05-03T11:33:04.766Z</time></trkpt><trkpt lat="44.3335826" lon="7.8500419"><ele>675.0</ele><time>2026-05-03T11:33:05.763Z</time></trkpt><trkpt lat="44.3336538" lon="7.8501951"><ele>672.0</ele><time>2026-05-03T11:33:07.763Z</time></trkpt><trkpt lat="44.3337034" lon="7.8502824"><ele>669.0</ele><time>2026-05-03T11:33:08.758Z</time></trkpt><trkpt lat="44.3337553" lon="7.8503571"><ele>666.0</ele><time>2026-05-03T11:33:09.763Z</time></trkpt><trkpt lat="44.33381" lon="7.8504218"><ele>663.0</ele><time>2026-05-03T11:33:10.764Z</time></trkpt><trkpt lat="44.3338833" lon="7.8505045"><ele>664.5</ele><time>2026-05-03T11:33:12.757Z</time></trkpt><trkpt lat="44.333938" lon="7.850583"><ele>666.0</ele><time>2026-05-03T11:33:14.762Z</time></trkpt><trkpt lat="44.3340008" lon="7.850686"><ele>667.5</ele><time>2026-05-03T11:33:16.763Z</time></trkpt><trkpt lat="44.3340585" lon="7.8508143"><ele>669.0</ele><time>2026-05-03T11:33:18.757Z</time></trkpt><trkpt lat="44.3340685" lon="7.8509105"><ele>670.5</ele><time>2026-05-03T11:33:19.761Z</time></trkpt><trkpt lat="44.3340746" lon="7.8510244"><ele>672.0</ele><time>2026-05-03T11:33:20.76Z</time></trkpt><trkpt lat="44.334116" lon="7.8512084"><ele>672.0</ele><time>2026-05-03T11:33:22.766Z</time></trkpt><trkpt lat="44.3341746" lon="7.8513005"><ele>672.0</ele><time>2026-05-03T11:33:23.762Z</time></trkpt><trkpt lat="44.3342372" lon="7.8514021"><ele>672.0</ele><time>2026-05-03T11:33:24.768Z</time></trkpt><trkpt lat="44.3342987" lon="7.851496"><ele>672.0</ele><time>2026-05-03T11:33:25.763Z</time></trkpt><trkpt lat="44.3343597" lon="7.8515845"><ele>672.0</ele><time>2026-05-03T11:33:26.761Z</time></trkpt><trkpt lat="44.3344232" lon="7.851676"><ele>672.0</ele><time>2026-05-03T11:33:27.76Z</time></trkpt><trkpt lat="44.3344824" lon="7.8517832"><ele>672.0</ele><time>2026-05-03T11:33:28.762Z</time></trkpt><trkpt lat="44.3345477" lon="7.8518972"><ele>672.0</ele><time>2026-05-03T11:33:29.766Z</time></trkpt><trkpt lat="44.334611" lon="7.8520231"><ele>672.0</ele><time>2026-05-03T11:33:30.765Z</time></trkpt><trkpt lat="44.3346641" lon="7.8521283"><ele>672.0</ele><time>2026-05-03T11:33:31.765Z</time></trkpt><trkpt lat="44.3347223" lon="7.8522144"><ele>671.8333333333334</ele><time>2026-05-03T11:33:32.758Z</time></trkpt><trkpt lat="44.3347534" lon="7.8523131"><ele>671.6666666666666</ele><time>2026-05-03T11:33:34.764Z</time></trkpt><trkpt lat="44.3347851" lon="7.8524371"><ele>671.5</ele><time>2026-05-03T11:33:36.765Z</time></trkpt><trkpt lat="44.3348135" lon="7.8525949"><ele>671.3333333333333</ele><time>2026-05-03T11:33:38.759Z</time></trkpt><trkpt lat="44.3348492" lon="7.8526884"><ele>671.1666666666666</ele><time>2026-05-03T11:33:39.762Z</time></trkpt><trkpt lat="44.3348617" lon="7.8528029"><ele>671.0</ele><time>2026-05-03T11:33:40.763Z</time></trkpt><trkpt lat="44.3348887" lon="7.8529546"><ele>672.1666666666666</ele><time>2026-05-03T11:33:41.76Z</time></trkpt><trkpt lat="44.3349025" lon="7.8531014"><ele>673.3333333333333</ele><time>2026-05-03T11:33:42.766Z</time></trkpt><trkpt lat="44.334902" lon="7.8532295"><ele>674.5</ele><time>2026-05-03T11:33:43.76Z</time></trkpt><trkpt lat="44.3348972" lon="7.8533466"><ele>675.6666666666666</ele><time>2026-05-03T11:33:44.758Z</time></trkpt><trkpt lat="44.3348827" lon="7.8534544"><ele>676.8333333333334</ele><time>2026-05-03T11:33:45.763Z</time></trkpt><trkpt lat="44.3348741" lon="7.8535582"><ele>678.0</ele><time>2026-05-03T11:33:46.758Z</time></trkpt><trkpt lat="44.3348649" lon="7.8536483"><ele>678.5</ele><time>2026-05-03T11:33:47.761Z</time></trkpt><trkpt lat="44.334869" lon="7.8537439"><ele>679.0</ele><time>2026-05-03T11:33:48.763Z</time></trkpt><trkpt lat="44.3349216" lon="7.8538913"><ele>679.5</ele><time>2026-05-03T11:33:50.758Z</time></trkpt><trkpt lat="44.3350276" lon="7.8539599"><ele>680.0</ele><time>2026-05-03T11:33:52.755Z</time></trkpt><trkpt lat="44.335094" lon="7.8540104"><ele>680.5</ele><time>2026-05-03T11:33:53.763Z</time></trkpt><trkpt lat="44.3351512" lon="7.8540587"><ele>681.0</ele><time>2026-05-03T11:33:54.761Z</time></trkpt><trkpt lat="44.3352162" lon="7.8541324"><ele>681.0</ele><time>2026-05-03T11:33:55.771Z</time></trkpt><trkpt lat="44.3352741" lon="7.8542091"><ele>681.0</ele><time>2026-05-03T11:33:56.757Z</time></trkpt><trkpt lat="44.3353714" lon="7.8543103"><ele>681.0</ele><time>2026-05-03T11:33:57.761Z</time></trkpt><trkpt lat="44.3354398" lon="7.8543959"><ele>681.0</ele><time>2026-05-03T11:33:58.754Z</time></trkpt><trkpt lat="44.3355094" lon="7.8546168"><ele>682.4</ele><time>2026-05-03T11:33:59.762Z</time></trkpt><trkpt lat="44.3355885" lon="7.8546971"><ele>683.8</ele><time>2026-05-03T11:34:00.765Z</time></trkpt><trkpt lat="44.3356583" lon="7.8547714"><ele>685.1999999999999</ele><time>2026-05-03T11:34:01.76Z</time></trkpt><trkpt lat="44.3357602" lon="7.8548381"><ele>686.5999999999999</ele><time>2026-05-03T11:34:03.763Z</time></trkpt><trkpt lat="44.335837" lon="7.8549157"><ele>688.0</ele><time>2026-05-03T11:34:05.771Z</time></trkpt><trkpt lat="44.3358895" lon="7.8549783"><ele>688.0</ele><time>2026-05-03T11:34:06.768Z</time></trkpt><trkpt lat="44.3359384" lon="7.8550569"><ele>688.0</ele><time>2026-05-03T11:34:08.767Z</time></trkpt><trkpt lat="44.3359871" lon="7.855136"><ele>688.0</ele><time>2026-05-03T11:34:10.766Z</time></trkpt><trkpt lat="44.3360674" lon="7.8552698"><ele>688.0</ele><time>2026-05-03T11:34:12.763Z</time></trkpt><trkpt lat="44.3361304" lon="7.8553311"><ele>688.0</ele><time>2026-05-03T11:34:13.761Z</time></trkpt><trkpt lat="44.3361808" lon="7.8553949"><ele>688.0</ele><time>2026-05-03T11:34:14.757Z</time></trkpt><trkpt lat="44.3362693" lon="7.8554839"><ele>689.0</ele><time>2026-05-03T11:34:16.77Z</time></trkpt><trkpt lat="44.3363418" lon="7.8555302"><ele>690.0</ele><time>2026-05-03T11:34:17.78Z</time></trkpt><trkpt lat="44.3364423" lon="7.8555821"><ele>691.0</ele><time>2026-05-03T11:34:18.761Z</time></trkpt><trkpt lat="44.336529" lon="7.8556229"><ele>692.0</ele><time>2026-05-03T11:34:19.761Z</time></trkpt><trkpt lat="44.3365943" lon="7.8556577"><ele>693.0</ele><time>2026-05-03T11:34:20.763Z</time></trkpt><trkpt lat="44.3367039" lon="7.8557268"><ele>692.8</ele><time>2026-05-03T11:34:22.754Z</time></trkpt><trkpt lat="44.3368028" lon="7.8557633"><ele>692.5999999999999</ele><time>2026-05-03T11:34:24.764Z</time></trkpt><trkpt lat="44.3368952" lon="7.8557981"><ele>692.4000000000001</ele><time>2026-05-03T11:34:26.759Z</time></trkpt><trkpt lat="44.3370135" lon="7.8558515"><ele>692.2</ele><time>2026-05-03T11:34:28.764Z</time></trkpt><trkpt lat="44.3370972" lon="7.8559376"><ele>692.0</ele><time>2026-05-03T11:34:29.766Z</time></trkpt><trkpt lat="44.3371777" lon="7.8560074"><ele>690.5</ele><time>2026-05-03T11:34:30.759Z</time></trkpt><trkpt lat="44.337251" lon="7.8560917"><ele>689.0</ele><time>2026-05-03T11:34:32.761Z</time></trkpt><trkpt lat="44.337293" lon="7.8561651"><ele>687.5</ele><time>2026-05-03T11:34:33.769Z</time></trkpt><trkpt lat="44.3373293" lon="7.8562474"><ele>686.0</ele><time>2026-05-03T11:34:34.759Z</time></trkpt><trkpt lat="44.3373776" lon="7.8563239"><ele>684.5</ele><time>2026-05-03T11:34:35.761Z</time></trkpt><trkpt lat="44.3374434" lon="7.8564125"><ele>683.0</ele><time>2026-05-03T11:34:36.76Z</time></trkpt><trkpt lat="44.3375201" lon="7.8565523"><ele>683.0</ele><time>2026-05-03T11:34:37.763Z</time></trkpt><trkpt lat="44.3375875" lon="7.8566666"><ele>683.0</ele><time>2026-05-03T11:34:38.764Z</time></trkpt><trkpt lat="44.3376392" lon="7.8567354"><ele>683.0</ele><time>2026-05-03T11:34:39.762Z</time></trkpt><trkpt lat="44.3377179" lon="7.8568361"><ele>683.0</ele><time>2026-05-03T11:34:41.761Z</time></trkpt><trkpt lat="44.3377808" lon="7.8568863"><ele>683.0</ele><time>2026-05-03T11:34:43.765Z</time></trkpt><trkpt lat="44.3378903" lon="7.8568588"><ele>684.0</ele><time>2026-05-03T11:35:25.77Z</time></trkpt><trkpt lat="44.3379661" lon="7.8568262"><ele>685.0</ele><time>2026-05-03T11:35:29.815Z</time></trkpt><trkpt lat="44.3380715" lon="7.8568472"><ele>686.0</ele><time>2026-05-03T11:35:32.767Z</time></trkpt><trkpt lat="44.3381654" lon="7.8568603"><ele>687.0</ele><time>2026-05-03T11:35:34.767Z</time></trkpt><trkpt lat="44.3382593" lon="7.8569324"><ele>688.0</ele><time>2026-05-03T11:35:36.77Z</time></trkpt><trkpt lat="44.3383325" lon="7.8570593"><ele>688.0</ele><time>2026-05-03T11:35:38.766Z</time></trkpt><trkpt lat="44.3383985" lon="7.857136"><ele>688.0</ele><time>2026-05-03T11:35:39.767Z</time></trkpt><trkpt lat="44.3384768" lon="7.8572021"><ele>688.0</ele><time>2026-05-03T11:35:40.765Z</time></trkpt><trkpt lat="44.338562" lon="7.8573131"><ele>688.0</ele><time>2026-05-03T11:35:41.767Z</time></trkpt><trkpt lat="44.338633" lon="7.8573982"><ele>688.0</ele><time>2026-05-03T11:35:42.757Z</time></trkpt><trkpt lat="44.338691" lon="7.8574728"><ele>688.0</ele><time>2026-05-03T11:35:43.761Z</time></trkpt><trkpt lat="44.3387751" lon="7.8575374"><ele>688.0</ele><time>2026-05-03T11:35:44.755Z</time></trkpt><trkpt lat="44.3388453" lon="7.857579"><ele>688.0</ele><time>2026-05-03T11:35:45.763Z</time></trkpt><trkpt lat="44.3389124" lon="7.8576034"><ele>688.0</ele><time>2026-05-03T11:35:46.757Z</time></trkpt><trkpt lat="44.3390365" lon="7.8576146"><ele>688.0</ele><time>2026-05-03T11:35:48.762Z</time></trkpt><trkpt lat="44.3391678" lon="7.8575831"><ele>688.8</ele><time>2026-05-03T11:35:50.773Z</time></trkpt><trkpt lat="44.339236" lon="7.8575748"><ele>689.5999999999999</ele><time>2026-05-03T11:35:51.759Z</time></trkpt><trkpt lat="44.3393509" lon="7.8576"><ele>690.4000000000001</ele><time>2026-05-03T11:35:53.762Z</time></trkpt><trkpt lat="44.3394365" lon="7.8576784"><ele>691.2</ele><time>2026-05-03T11:35:55.762Z</time></trkpt><trkpt lat="44.3395036" lon="7.8577519"><ele>692.0</ele><time>2026-05-03T11:35:57.767Z</time></trkpt><trkpt lat="44.3396848" lon="7.8577495"><ele>696.8</ele><time>2026-05-03T11:36:01.769Z</time></trkpt><trkpt lat="44.339792" lon="7.8576914"><ele>701.6</ele><time>2026-05-03T11:36:03.765Z</time></trkpt><trkpt lat="44.3398839" lon="7.8576579"><ele>706.4</ele><time>2026-05-03T11:36:05.764Z</time></trkpt><trkpt lat="44.3399929" lon="7.8577245"><ele>711.1999999999999</ele><time>2026-05-03T11:36:07.758Z</time></trkpt><trkpt lat="44.3400686" lon="7.8577622"><ele>716.0</ele><time>2026-05-03T11:36:08.765Z</time></trkpt><trkpt lat="44.3401257" lon="7.8578411"><ele>716.0</ele><time>2026-05-03T11:36:09.764Z</time></trkpt><trkpt lat="44.3401817" lon="7.8579343"><ele>716.0</ele><time>2026-05-03T11:36:10.77Z</time></trkpt><trkpt lat="44.3402706" lon="7.8579942"><ele>716.0</ele><time>2026-05-03T11:36:11.764Z</time></trkpt><trkpt lat="44.3403578" lon="7.8580674"><ele>716.0</ele><time>2026-05-03T11:36:12.763Z</time></trkpt><trkpt lat="44.3404766" lon="7.8581815"><ele>716.0</ele><time>2026-05-03T11:36:13.76Z</time></trkpt><trkpt lat="44.3405804" lon="7.8582784"><ele>713.25</ele><time>2026-05-03T11:36:14.764Z</time></trkpt><trkpt lat="44.3406792" lon="7.8583654"><ele>710.5</ele><time>2026-05-03T11:36:15.764Z</time></trkpt><trkpt lat="44.3408107" lon="7.8584695"><ele>707.75</ele><time>2026-05-03T11:36:16.764Z</time></trkpt><trkpt lat="44.3409117" lon="7.8585189"><ele>705.0</ele><time>2026-05-03T11:36:17.764Z</time></trkpt><trkpt lat="44.3409966" lon="7.8585541"><ele>705.0</ele><time>2026-05-03T11:36:18.775Z</time></trkpt><trkpt lat="44.3410905" lon="7.8586166"><ele>705.0</ele><time>2026-05-03T11:36:19.765Z</time></trkpt><trkpt lat="44.3411597" lon="7.8586494"><ele>705.0</ele><time>2026-05-03T11:36:20.767Z</time></trkpt><trkpt lat="44.341232" lon="7.8586619"><ele>705.0</ele><time>2026-05-03T11:36:21.775Z</time></trkpt><trkpt lat="44.3413399" lon="7.8586907"><ele>705.0</ele><time>2026-05-03T11:36:23.762Z</time></trkpt><trkpt lat="44.341425" lon="7.8587477"><ele>705.0</ele><time>2026-05-03T11:36:25.771Z</time></trkpt><trkpt lat="44.3414936" lon="7.8587905"><ele>705.0</ele><time>2026-05-03T11:36:27.763Z</time></trkpt><trkpt lat="44.3415779" lon="7.8588508"><ele>705.0</ele><time>2026-05-03T11:36:29.767Z</time></trkpt><trkpt lat="44.341641" lon="7.8588845"><ele>705.0</ele><time>2026-05-03T11:36:30.766Z</time></trkpt><trkpt lat="44.3417288" lon="7.8589046"><ele>705.0</ele><time>2026-05-03T11:36:31.759Z</time></trkpt><trkpt lat="44.3418588" lon="7.8589107"><ele>705.0</ele><time>2026-05-03T11:36:33.764Z</time></trkpt><trkpt lat="44.3419311" lon="7.8589328"><ele>705.0</ele><time>2026-05-03T11:36:34.764Z</time></trkpt><trkpt lat="44.3420476" lon="7.8589578"><ele>705.0</ele><time>2026-05-03T11:36:36.759Z</time></trkpt><trkpt lat="44.3421107" lon="7.858964"><ele>705.0</ele><time>2026-05-03T11:36:37.763Z</time></trkpt><trkpt lat="44.3422147" lon="7.8589844"><ele>705.0</ele><time>2026-05-03T11:36:39.767Z</time></trkpt><trkpt lat="44.3423386" lon="7.85905"><ele>704.2</ele><time>2026-05-03T11:36:41.767Z</time></trkpt><trkpt lat="44.3424365" lon="7.8590829"><ele>703.4</ele><time>2026-05-03T11:36:43.763Z</time></trkpt><trkpt lat="44.3425253" lon="7.8591223"><ele>702.5999999999999</ele><time>2026-05-03T11:36:45.768Z</time></trkpt><trkpt lat="44.3426192" lon="7.8591483"><ele>701.8</ele><time>2026-05-03T11:36:47.78Z</time></trkpt><trkpt lat="44.3427022" lon="7.859175"><ele>701.0</ele><time>2026-05-03T11:36:49.762Z</time></trkpt><trkpt lat="44.3427895" lon="7.8591985"><ele>701.0</ele><time>2026-05-03T11:36:51.766Z</time></trkpt><trkpt lat="44.3428733" lon="7.8592035"><ele>701.0</ele><time>2026-05-03T11:36:53.76Z</time></trkpt><trkpt lat="44.3429711" lon="7.8591528"><ele>701.0</ele><time>2026-05-03T11:36:56.769Z</time></trkpt><trkpt lat="44.3430583" lon="7.8591493"><ele>701.0</ele><time>2026-05-03T11:36:59.767Z</time></trkpt><trkpt lat="44.3431401" lon="7.859224"><ele>701.0</ele><time>2026-05-03T11:37:01.767Z</time></trkpt><trkpt lat="44.3432561" lon="7.8592253"><ele>697.5999999999999</ele><time>2026-05-03T11:37:02.761Z</time></trkpt><trkpt lat="44.3434026" lon="7.8592988"><ele>694.2</ele><time>2026-05-03T11:37:04.768Z</time></trkpt><trkpt lat="44.3435011" lon="7.859332"><ele>690.8</ele><time>2026-05-03T11:37:05.772Z</time></trkpt><trkpt lat="44.3435797" lon="7.8593587"><ele>687.4000000000001</ele><time>2026-05-03T11:37:06.765Z</time></trkpt><trkpt lat="44.343672" lon="7.8593962"><ele>684.0</ele><time>2026-05-03T11:37:07.764Z</time></trkpt><trkpt lat="44.3437581" lon="7.8594227"><ele>684.0</ele><time>2026-05-03T11:37:08.759Z</time></trkpt><trkpt lat="44.3438309" lon="7.859453"><ele>684.0</ele><time>2026-05-03T11:37:09.761Z</time></trkpt><trkpt lat="44.3439062" lon="7.8594956"><ele>684.0</ele><time>2026-05-03T11:37:10.767Z</time></trkpt><trkpt lat="44.3439739" lon="7.8595626"><ele>684.0</ele><time>2026-05-03T11:37:11.76Z</time></trkpt><trkpt lat="44.344041" lon="7.8596497"><ele>684.0</ele><time>2026-05-03T11:37:12.757Z</time></trkpt><trkpt lat="44.3441249" lon="7.8597205"><ele>684.0</ele><time>2026-05-03T11:37:13.763Z</time></trkpt><trkpt lat="44.3441941" lon="7.8598109"><ele>682.4000000000001</ele><time>2026-05-03T11:37:14.768Z</time></trkpt><trkpt lat="44.3442439" lon="7.8598832"><ele>680.8</ele><time>2026-05-03T11:37:15.765Z</time></trkpt><trkpt lat="44.3443467" lon="7.8600002"><ele>679.2</ele><time>2026-05-03T11:37:17.76Z</time></trkpt><trkpt lat="44.3443935" lon="7.8600641"><ele>677.5999999999999</ele><time>2026-05-03T11:37:18.763Z</time></trkpt><trkpt lat="44.3445056" lon="7.8601105"><ele>676.0</ele><time>2026-05-03T11:37:19.759Z</time></trkpt><trkpt lat="44.344606" lon="7.8602034"><ele>673.8333333333334</ele><time>2026-05-03T11:37:20.767Z</time></trkpt><trkpt lat="44.3446965" lon="7.8602139"><ele>671.6666666666667</ele><time>2026-05-03T11:37:21.767Z</time></trkpt><trkpt lat="44.3447821" lon="7.8602208"><ele>669.5</ele><time>2026-05-03T11:37:22.766Z</time></trkpt><trkpt lat="44.3448599" lon="7.8602335"><ele>667.3333333333334</ele><time>2026-05-03T11:37:23.759Z</time></trkpt><trkpt lat="44.3449332" lon="7.8602316"><ele>665.1666666666666</ele><time>2026-05-03T11:37:24.763Z</time></trkpt><trkpt lat="44.3450198" lon="7.8602244"><ele>663.0</ele><time>2026-05-03T11:37:25.763Z</time></trkpt><trkpt lat="44.3450919" lon="7.8602221"><ele>663.0</ele><time>2026-05-03T11:37:26.762Z</time></trkpt><trkpt lat="44.3451678" lon="7.8602279"><ele>663.0</ele><time>2026-05-03T11:37:27.764Z</time></trkpt><trkpt lat="44.3452491" lon="7.8602767"><ele>663.0</ele><time>2026-05-03T11:37:28.759Z</time></trkpt><trkpt lat="44.3453311" lon="7.8603483"><ele>663.0</ele><time>2026-05-03T11:37:29.757Z</time></trkpt><trkpt lat="44.3453889" lon="7.8604081"><ele>663.0</ele><time>2026-05-03T11:37:30.761Z</time></trkpt><trkpt lat="44.3454612" lon="7.8604697"><ele>663.0</ele><time>2026-05-03T11:37:31.764Z</time></trkpt><trkpt lat="44.3455248" lon="7.8605026"><ele>662.5</ele><time>2026-05-03T11:37:32.763Z</time></trkpt><trkpt lat="44.3456101" lon="7.8605266"><ele>662.0</ele><time>2026-05-03T11:37:33.766Z</time></trkpt><trkpt lat="44.345686" lon="7.8605439"><ele>661.5</ele><time>2026-05-03T11:37:34.762Z</time></trkpt><trkpt lat="44.345757" lon="7.8605559"><ele>661.0</ele><time>2026-05-03T11:37:35.767Z</time></trkpt><trkpt lat="44.3458202" lon="7.8605491"><ele>660.5</ele><time>2026-05-03T11:37:36.763Z</time></trkpt><trkpt lat="44.3459539" lon="7.8605656"><ele>660.0</ele><time>2026-05-03T11:37:38.765Z</time></trkpt><trkpt lat="44.3460366" lon="7.8605914"><ele>660.0</ele><time>2026-05-03T11:37:39.763Z</time></trkpt><trkpt lat="44.3461227" lon="7.8606161"><ele>660.0</ele><time>2026-05-03T11:37:40.776Z</time></trkpt><trkpt lat="44.3462206" lon="7.8606414"><ele>660.0</ele><time>2026-05-03T11:37:41.767Z</time></trkpt><trkpt lat="44.3463203" lon="7.8606776"><ele>660.0</ele><time>2026-05-03T11:37:42.767Z</time></trkpt><trkpt lat="44.3463916" lon="7.8607058"><ele>660.0</ele><time>2026-05-03T11:37:43.765Z</time></trkpt><trkpt lat="44.346492" lon="7.860757"><ele>659.0</ele><time>2026-05-03T11:37:45.765Z</time></trkpt><trkpt lat="44.3465984" lon="7.8608649"><ele>658.0</ele><time>2026-05-03T11:37:47.767Z</time></trkpt><trkpt lat="44.3466396" lon="7.8609551"><ele>657.0</ele><time>2026-05-03T11:37:48.771Z</time></trkpt><trkpt lat="44.3466801" lon="7.861044"><ele>656.0</ele><time>2026-05-03T11:37:49.766Z</time></trkpt><trkpt lat="44.3467155" lon="7.8611423"><ele>655.0</ele><time>2026-05-03T11:37:50.762Z</time></trkpt><trkpt lat="44.3467336" lon="7.8613057"><ele>655.0</ele><time>2026-05-03T11:37:52.76Z</time></trkpt><trkpt lat="44.3467735" lon="7.8614917"><ele>655.0</ele><time>2026-05-03T11:37:54.764Z</time></trkpt><trkpt lat="44.3468399" lon="7.8615624"><ele>655.0</ele><time>2026-05-03T11:37:55.762Z</time></trkpt><trkpt lat="44.3468962" lon="7.861613"><ele>655.0</ele><time>2026-05-03T11:37:56.758Z</time></trkpt><trkpt lat="44.3469616" lon="7.8616583"><ele>655.0</ele><time>2026-05-03T11:37:57.766Z</time></trkpt><trkpt lat="44.3470386" lon="7.8616906"><ele>655.0</ele><time>2026-05-03T11:37:58.767Z</time></trkpt><trkpt lat="44.3471182" lon="7.8617271"><ele>655.0</ele><time>2026-05-03T11:37:59.765Z</time></trkpt><trkpt lat="44.3471908" lon="7.8617707"><ele>655.0</ele><time>2026-05-03T11:38:00.763Z</time></trkpt><trkpt lat="44.3472692" lon="7.8618173"><ele>655.0</ele><time>2026-05-03T11:38:01.759Z</time></trkpt><trkpt lat="44.3473237" lon="7.8618677"><ele>655.0</ele><time>2026-05-03T11:38:02.766Z</time></trkpt><trkpt lat="44.3474076" lon="7.8619674"><ele>655.0</ele><time>2026-05-03T11:38:04.759Z</time></trkpt><trkpt lat="44.3474813" lon="7.8620422"><ele>655.0</ele><time>2026-05-03T11:38:05.76Z</time></trkpt><trkpt lat="44.3475334" lon="7.8621061"><ele>652.4</ele><time>2026-05-03T11:38:06.767Z</time></trkpt><trkpt lat="44.3476073" lon="7.8622685"><ele>649.8</ele><time>2026-05-03T11:38:08.764Z</time></trkpt><trkpt lat="44.3476403" lon="7.8623749"><ele>647.2</ele><time>2026-05-03T11:38:09.76Z</time></trkpt><trkpt lat="44.3476872" lon="7.8624971"><ele>644.6</ele><time>2026-05-03T11:38:11.766Z</time></trkpt><trkpt lat="44.3476976" lon="7.8625844"><ele>642.0</ele><time>2026-05-03T11:38:13.766Z</time></trkpt><trkpt lat="44.3477348" lon="7.8627058"><ele>641.3333333333334</ele><time>2026-05-03T11:38:22.762Z</time></trkpt><trkpt lat="44.3476675" lon="7.8627525"><ele>640.6666666666666</ele><time>2026-05-03T11:38:24.829Z</time></trkpt><trkpt lat="44.347558" lon="7.8628469"><ele>640.0</ele><time>2026-05-03T11:38:26.765Z</time></trkpt><trkpt lat="44.3474889" lon="7.8628744"><ele>639.3333333333333</ele><time>2026-05-03T11:38:27.763Z</time></trkpt><trkpt lat="44.3474277" lon="7.8629011"><ele>638.6666666666666</ele><time>2026-05-03T11:38:28.76Z</time></trkpt><trkpt lat="44.3473485" lon="7.8628939"><ele>638.0</ele><time>2026-05-03T11:38:29.763Z</time></trkpt><trkpt lat="44.3472654" lon="7.8628712"><ele>639.4</ele><time>2026-05-03T11:38:30.762Z</time></trkpt><trkpt lat="44.3471677" lon="7.8628491"><ele>640.8</ele><time>2026-05-03T11:38:31.768Z</time></trkpt><trkpt lat="44.3470623" lon="7.8628543"><ele>642.2</ele><time>2026-05-03T11:38:32.758Z</time></trkpt><trkpt lat="44.3469761" lon="7.8628962"><ele>643.6</ele><time>2026-05-03T11:38:33.762Z</time></trkpt><trkpt lat="44.3468825" lon="7.8629509"><ele>645.0</ele><time>2026-05-03T11:38:34.763Z</time></trkpt><trkpt lat="44.3468013" lon="7.8630515"><ele>645.0</ele><time>2026-05-03T11:38:35.764Z</time></trkpt><trkpt lat="44.3467367" lon="7.863134"><ele>645.0</ele><time>2026-05-03T11:38:36.757Z</time></trkpt><trkpt lat="44.3466787" lon="7.8632123"><ele>645.0</ele><time>2026-05-03T11:38:37.764Z</time></trkpt><trkpt lat="44.3465701" lon="7.8632553"><ele>645.0</ele><time>2026-05-03T11:38:39.764Z</time></trkpt><trkpt lat="44.3465028" lon="7.8632895"><ele>645.0</ele><time>2026-05-03T11:38:43.758Z</time></trkpt><trkpt lat="44.3464268" lon="7.8632797"><ele>645.0</ele><time>2026-05-03T11:38:45.763Z</time></trkpt><trkpt lat="44.3463568" lon="7.8632271"><ele>645.8333333333334</ele><time>2026-05-03T11:38:47.762Z</time></trkpt><trkpt lat="44.3462706" lon="7.8631737"><ele>646.6666666666666</ele><time>2026-05-03T11:38:49.798Z</time></trkpt><trkpt lat="44.3461782" lon="7.8631232"><ele>647.5</ele><time>2026-05-03T11:38:51.764Z</time></trkpt><trkpt lat="44.3460863" lon="7.8631158"><ele>648.3333333333333</ele><time>2026-05-03T11:38:53.765Z</time></trkpt><trkpt lat="44.3460179" lon="7.8630992"><ele>649.1666666666666</ele><time>2026-05-03T11:38:54.769Z</time></trkpt><trkpt lat="44.3459576" lon="7.8630594"><ele>650.0</ele><time>2026-05-03T11:38:55.762Z</time></trkpt><trkpt lat="44.3458886" lon="7.8630125"><ele>650.0</ele><time>2026-05-03T11:38:56.765Z</time></trkpt><trkpt lat="44.3457952" lon="7.8628861"><ele>650.0</ele><time>2026-05-03T11:38:58.762Z</time></trkpt><trkpt lat="44.3457639" lon="7.8628033"><ele>650.0</ele><time>2026-05-03T11:38:59.77Z</time></trkpt><trkpt lat="44.3457088" lon="7.8626768"><ele>650.0</ele><time>2026-05-03T11:39:00.763Z</time></trkpt><trkpt lat="44.3456831" lon="7.8625435"><ele>650.0</ele><time>2026-05-03T11:39:01.759Z</time></trkpt><trkpt lat="44.3456462" lon="7.8624262"><ele>650.4</ele><time>2026-05-03T11:39:02.758Z</time></trkpt><trkpt lat="44.3456037" lon="7.8623045"><ele>650.8</ele><time>2026-05-03T11:39:03.753Z</time></trkpt><trkpt lat="44.3455761" lon="7.8622152"><ele>651.2</ele><time>2026-05-03T11:39:04.778Z</time></trkpt><trkpt lat="44.3454883" lon="7.8621219"><ele>651.6</ele><time>2026-05-03T11:39:06.757Z</time></trkpt><trkpt lat="44.3453902" lon="7.8621734"><ele>652.0</ele><time>2026-05-03T11:39:08.781Z</time></trkpt><trkpt lat="44.3453121" lon="7.8622782"><ele>650.1666666666667</ele><time>2026-05-03T11:39:10.759Z</time></trkpt><trkpt lat="44.3452328" lon="7.8623848"><ele>648.3333333333334</ele><time>2026-05-03T11:39:12.763Z</time></trkpt><trkpt lat="44.3451734" lon="7.8624382"><ele>646.5</ele><time>2026-05-03T11:39:14.763Z</time></trkpt><trkpt lat="44.3450897" lon="7.8624033"><ele>644.6666666666666</ele><time>2026-05-03T11:39:17.76Z</time></trkpt><trkpt lat="44.345017" lon="7.8623126"><ele>642.8333333333333</ele><time>2026-05-03T11:39:19.759Z</time></trkpt><trkpt lat="44.3449733" lon="7.8622358"><ele>641.0</ele><time>2026-05-03T11:39:20.758Z</time></trkpt><trkpt lat="44.3449283" lon="7.8621561"><ele>641.0</ele><time>2026-05-03T11:39:21.758Z</time></trkpt><trkpt lat="44.3448829" lon="7.8620695"><ele>641.0</ele><time>2026-05-03T11:39:22.758Z</time></trkpt><trkpt lat="44.3448571" lon="7.8619105"><ele>641.0</ele><time>2026-05-03T11:39:24.762Z</time></trkpt><trkpt lat="44.3448272" lon="7.8618129"><ele>641.0</ele><time>2026-05-03T11:39:25.759Z</time></trkpt><trkpt lat="44.3447347" lon="7.8616967"><ele>641.0</ele><time>2026-05-03T11:39:27.76Z</time></trkpt><trkpt lat="44.3446751" lon="7.8616493"><ele>642.0</ele><time>2026-05-03T11:39:28.76Z</time></trkpt><trkpt lat="44.3446162" lon="7.861577"><ele>643.0</ele><time>2026-05-03T11:39:29.756Z</time></trkpt><trkpt lat="44.3445567" lon="7.861511"><ele>644.0</ele><time>2026-05-03T11:39:30.754Z</time></trkpt><trkpt lat="44.3444504" lon="7.8614904"><ele>645.0</ele><time>2026-05-03T11:39:32.754Z</time></trkpt><trkpt lat="44.3443856" lon="7.8615385"><ele>646.0</ele><time>2026-05-03T11:39:34.759Z</time></trkpt><trkpt lat="44.3443442" lon="7.8616852"><ele>647.0</ele><time>2026-05-03T11:39:36.765Z</time></trkpt><trkpt lat="44.3442987" lon="7.8617541"><ele>645.1666666666666</ele><time>2026-05-03T11:39:37.76Z</time></trkpt><trkpt lat="44.3441974" lon="7.8618043"><ele>643.3333333333333</ele><time>2026-05-03T11:39:38.763Z</time></trkpt><trkpt lat="44.3441184" lon="7.8618687"><ele>641.5</ele><time>2026-05-03T11:39:39.771Z</time></trkpt><trkpt lat="44.3440502" lon="7.8619234"><ele>639.6666666666666</ele><time>2026-05-03T11:39:40.761Z</time></trkpt><trkpt lat="44.3439821" lon="7.8619639"><ele>637.8333333333334</ele><time>2026-05-03T11:39:41.759Z</time></trkpt><trkpt lat="44.343916" lon="7.8619996"><ele>636.0</ele><time>2026-05-03T11:39:42.759Z</time></trkpt><trkpt lat="44.3437894" lon="7.861949"><ele>636.0</ele><time>2026-05-03T11:39:44.758Z</time></trkpt><trkpt lat="44.3437143" lon="7.861881"><ele>636.0</ele><time>2026-05-03T11:39:45.762Z</time></trkpt><trkpt lat="44.3436454" lon="7.8618088"><ele>636.0</ele><time>2026-05-03T11:39:46.757Z</time></trkpt><trkpt lat="44.3435478" lon="7.861682"><ele>636.0</ele><time>2026-05-03T11:39:48.765Z</time></trkpt><trkpt lat="44.3434207" lon="7.8616269"><ele>636.0</ele><time>2026-05-03T11:39:50.757Z</time></trkpt><trkpt lat="44.3433548" lon="7.861647"><ele>638.6666666666666</ele><time>2026-05-03T11:39:51.763Z</time></trkpt><trkpt lat="44.3432613" lon="7.861687"><ele>641.3333333333333</ele><time>2026-05-03T11:39:52.766Z</time></trkpt><trkpt lat="44.3429945" lon="7.861854"><ele>644.0</ele><time>2026-05-03T11:39:55.761Z</time></trkpt><trkpt lat="44.3429283" lon="7.8619766"><ele>644.0</ele><time>2026-05-03T11:39:56.758Z</time></trkpt><trkpt lat="44.3428674" lon="7.8621161"><ele>644.0</ele><time>2026-05-03T11:39:57.762Z</time></trkpt><trkpt lat="44.3428412" lon="7.8622606"><ele>644.0</ele><time>2026-05-03T11:39:58.759Z</time></trkpt><trkpt lat="44.342824" lon="7.8623923"><ele>644.0</ele><time>2026-05-03T11:39:59.757Z</time></trkpt><trkpt lat="44.3428033" lon="7.8624795"><ele>644.0</ele><time>2026-05-03T11:40:00.758Z</time></trkpt><trkpt lat="44.3427463" lon="7.862586"><ele>644.0</ele><time>2026-05-03T11:40:02.769Z</time></trkpt><trkpt lat="44.3426781" lon="7.8626705"><ele>644.0</ele><time>2026-05-03T11:40:04.77Z</time></trkpt><trkpt lat="44.3425966" lon="7.8626075"><ele>644.0</ele><time>2026-05-03T11:40:06.762Z</time></trkpt><trkpt lat="44.342546" lon="7.8625398"><ele>644.0</ele><time>2026-05-03T11:40:07.764Z</time></trkpt><trkpt lat="44.3424932" lon="7.8624695"><ele>644.0</ele><time>2026-05-03T11:40:08.761Z</time></trkpt><trkpt lat="44.3424353" lon="7.8623888"><ele>644.0</ele><time>2026-05-03T11:40:09.761Z</time></trkpt><trkpt lat="44.3423729" lon="7.8623152"><ele>644.0</ele><time>2026-05-03T11:40:10.757Z</time></trkpt><trkpt lat="44.3423101" lon="7.8622619"><ele>644.0</ele><time>2026-05-03T11:40:11.764Z</time></trkpt><trkpt lat="44.3422312" lon="7.8621805"><ele>644.0</ele><time>2026-05-03T11:40:12.757Z</time></trkpt><trkpt lat="44.3421729" lon="7.8621428"><ele>644.0</ele><time>2026-05-03T11:40:13.763Z</time></trkpt><trkpt lat="44.3420988" lon="7.8621306"><ele>644.0</ele><time>2026-05-03T11:40:15.761Z</time></trkpt><trkpt lat="44.3420204" lon="7.8620788"><ele>644.0</ele><time>2026-05-03T11:40:17.76Z</time></trkpt><trkpt lat="44.341946" lon="7.861969"><ele>646.0</ele><time>2026-05-03T11:40:19.766Z</time></trkpt><trkpt lat="44.341911" lon="7.8618667"><ele>648.0</ele><time>2026-05-03T11:40:21.764Z</time></trkpt><trkpt lat="44.3418535" lon="7.8618296"><ele>650.0</ele><time>2026-05-03T11:40:25.76Z</time></trkpt><trkpt lat="44.341834" lon="7.8619342"><ele>652.0</ele><time>2026-05-03T11:40:28.757Z</time></trkpt><trkpt lat="44.3417804" lon="7.8620691"><ele>654.0</ele><time>2026-05-03T11:40:30.76Z</time></trkpt><trkpt lat="44.3417791" lon="7.8621864"><ele>656.0</ele><time>2026-05-03T11:40:31.759Z</time></trkpt><trkpt lat="44.3418" lon="7.8623106"><ele>656.0</ele><time>2026-05-03T11:40:32.757Z</time></trkpt><trkpt lat="44.3418291" lon="7.8624356"><ele>656.0</ele><time>2026-05-03T11:40:33.759Z</time></trkpt><trkpt lat="44.3418583" lon="7.8625973"><ele>656.0</ele><time>2026-05-03T11:40:34.761Z</time></trkpt><trkpt lat="44.3418853" lon="7.8627398"><ele>656.0</ele><time>2026-05-03T11:40:35.756Z</time></trkpt><trkpt lat="44.341905" lon="7.862913"><ele>656.0</ele><time>2026-05-03T11:40:36.757Z</time></trkpt><trkpt lat="44.3419158" lon="7.8630563"><ele>655.1999999999999</ele><time>2026-05-03T11:40:37.76Z</time></trkpt><trkpt lat="44.3419254" lon="7.8631687"><ele>654.4</ele><time>2026-05-03T11:40:38.758Z</time></trkpt><trkpt lat="44.3419262" lon="7.8632793"><ele>653.6</ele><time>2026-05-03T11:40:39.759Z</time></trkpt><trkpt lat="44.3419171" lon="7.8633804"><ele>652.8</ele><time>2026-05-03T11:40:40.754Z</time></trkpt><trkpt lat="44.3418724" lon="7.8635178"><ele>652.0</ele><time>2026-05-03T11:40:42.76Z</time></trkpt><trkpt lat="44.3417608" lon="7.8637076"><ele>649.4</ele><time>2026-05-03T11:40:44.762Z</time></trkpt><trkpt lat="44.3417072" lon="7.8637891"><ele>646.8000000000001</ele><time>2026-05-03T11:40:45.76Z</time></trkpt><trkpt lat="44.3416392" lon="7.8638713"><ele>644.2</ele><time>2026-05-03T11:40:46.762Z</time></trkpt><trkpt lat="44.3415949" lon="7.8639506"><ele>641.6</ele><time>2026-05-03T11:40:47.763Z</time></trkpt><trkpt lat="44.3415335" lon="7.8640832"><ele>639.0</ele><time>2026-05-03T11:40:49.76Z</time></trkpt><trkpt lat="44.3414502" lon="7.8641535"><ele>638.5</ele><time>2026-05-03T11:40:51.764Z</time></trkpt><trkpt lat="44.3413035" lon="7.8642382"><ele>638.0</ele><time>2026-05-03T11:40:53.762Z</time></trkpt><trkpt lat="44.3411998" lon="7.8641427"><ele>637.5</ele><time>2026-05-03T11:40:55.769Z</time></trkpt><trkpt lat="44.3411484" lon="7.8640844"><ele>637.0</ele><time>2026-05-03T11:40:56.758Z</time></trkpt><trkpt lat="44.3410488" lon="7.8640442"><ele>637.0</ele><time>2026-05-03T11:40:57.761Z</time></trkpt><trkpt lat="44.3409462" lon="7.8640422"><ele>637.0</ele><time>2026-05-03T11:40:59.764Z</time></trkpt><trkpt lat="44.3408693" lon="7.8640407"><ele>637.0</ele><time>2026-05-03T11:41:01.766Z</time></trkpt><trkpt lat="44.340795" lon="7.8639366"><ele>637.0</ele><time>2026-05-03T11:41:03.761Z</time></trkpt><trkpt lat="44.3407775" lon="7.8638434"><ele>637.0</ele><time>2026-05-03T11:41:04.761Z</time></trkpt><trkpt lat="44.3407713" lon="7.8637337"><ele>637.0</ele><time>2026-05-03T11:41:05.761Z</time></trkpt><trkpt lat="44.340755" lon="7.8636265"><ele>637.0</ele><time>2026-05-03T11:41:06.761Z</time></trkpt><trkpt lat="44.340719" lon="7.863457"><ele>637.0</ele><time>2026-05-03T11:41:07.755Z</time></trkpt><trkpt lat="44.340679" lon="7.86334"><ele>637.0</ele><time>2026-05-03T11:41:08.758Z</time></trkpt><trkpt lat="44.3406125" lon="7.8631974"><ele>637.0</ele><time>2026-05-03T11:41:09.764Z</time></trkpt><trkpt lat="44.3405449" lon="7.8630909"><ele>637.0</ele><time>2026-05-03T11:41:10.752Z</time></trkpt><trkpt lat="44.3404821" lon="7.8630018"><ele>639.0</ele><time>2026-05-03T11:41:11.758Z</time></trkpt><trkpt lat="44.3404049" lon="7.8629224"><ele>641.0</ele><time>2026-05-03T11:41:13.758Z</time></trkpt><trkpt lat="44.3403582" lon="7.8627691"><ele>643.0</ele><time>2026-05-03T11:41:15.76Z</time></trkpt><trkpt lat="44.3403295" lon="7.8626799"><ele>645.0</ele><time>2026-05-03T11:41:16.769Z</time></trkpt><trkpt lat="44.3402592" lon="7.8625723"><ele>647.0</ele><time>2026-05-03T11:41:18.76Z</time></trkpt><trkpt lat="44.3401479" lon="7.8625322"><ele>647.0</ele><time>2026-05-03T11:41:20.759Z</time></trkpt><trkpt lat="44.3400735" lon="7.8625203"><ele>647.0</ele><time>2026-05-03T11:41:21.76Z</time></trkpt><trkpt lat="44.339996" lon="7.8624941"><ele>647.0</ele><time>2026-05-03T11:41:22.762Z</time></trkpt><trkpt lat="44.3399259" lon="7.8624522"><ele>647.0</ele><time>2026-05-03T11:41:23.759Z</time></trkpt><trkpt lat="44.339865" lon="7.8623837"><ele>647.0</ele><time>2026-05-03T11:41:24.762Z</time></trkpt><trkpt lat="44.3398067" lon="7.8623473"><ele>647.0</ele><time>2026-05-03T11:41:25.759Z</time></trkpt><trkpt lat="44.3397314" lon="7.8623537"><ele>647.0</ele><time>2026-05-03T11:41:26.757Z</time></trkpt><trkpt lat="44.3396604" lon="7.8623763"><ele>646.5</ele><time>2026-05-03T11:41:27.755Z</time></trkpt><trkpt lat="44.3396036" lon="7.8624668"><ele>646.0</ele><time>2026-05-03T11:41:28.766Z</time></trkpt><trkpt lat="44.339546" lon="7.8625725"><ele>645.5</ele><time>2026-05-03T11:41:29.762Z</time></trkpt><trkpt lat="44.3395097" lon="7.8626697"><ele>645.0</ele><time>2026-05-03T11:41:30.766Z</time></trkpt><trkpt lat="44.3394679" lon="7.8627785"><ele>644.5</ele><time>2026-05-03T11:41:31.765Z</time></trkpt><trkpt lat="44.3394182" lon="7.8628508"><ele>644.0</ele><time>2026-05-03T11:41:32.772Z</time></trkpt><trkpt lat="44.3393404" lon="7.8628627"><ele>644.0</ele><time>2026-05-03T11:41:35.765Z</time></trkpt><trkpt lat="44.3392521" lon="7.8628014"><ele>644.0</ele><time>2026-05-03T11:41:37.764Z</time></trkpt><trkpt lat="44.3391857" lon="7.8627436"><ele>644.0</ele><time>2026-05-03T11:41:38.762Z</time></trkpt><trkpt lat="44.3391169" lon="7.8626887"><ele>644.0</ele><time>2026-05-03T11:41:39.755Z</time></trkpt><trkpt lat="44.3390193" lon="7.8625932"><ele>644.0</ele><time>2026-05-03T11:41:41.763Z</time></trkpt><trkpt lat="44.3389823" lon="7.8625019"><ele>644.0</ele><time>2026-05-03T11:41:43.768Z</time></trkpt><trkpt lat="44.3389685" lon="7.8623545"><ele>644.0</ele><time>2026-05-03T11:41:45.765Z</time></trkpt><trkpt lat="44.3390202" lon="7.8622765"><ele>644.0</ele><time>2026-05-03T11:41:46.763Z</time></trkpt><trkpt lat="44.3390678" lon="7.8621882"><ele>644.0</ele><time>2026-05-03T11:41:47.763Z</time></trkpt><trkpt lat="44.3391093" lon="7.8620814"><ele>644.0</ele><time>2026-05-03T11:41:48.764Z</time></trkpt><trkpt lat="44.3391602" lon="7.861958"><ele>644.0</ele><time>2026-05-03T11:41:49.764Z</time></trkpt><trkpt lat="44.3392174" lon="7.8618347"><ele>644.0</ele><time>2026-05-03T11:41:50.763Z</time></trkpt><trkpt lat="44.3392693" lon="7.8617119"><ele>644.0</ele><time>2026-05-03T11:41:51.766Z</time></trkpt><trkpt lat="44.3392911" lon="7.8616048"><ele>644.0</ele><time>2026-05-03T11:41:52.757Z</time></trkpt><trkpt lat="44.3393129" lon="7.861466"><ele>644.0</ele><time>2026-05-03T11:41:54.766Z</time></trkpt><trkpt lat="44.3393292" lon="7.8613622"><ele>644.8333333333333</ele><time>2026-05-03T11:41:56.756Z</time></trkpt><trkpt lat="44.33929" lon="7.8612688"><ele>645.6666666666666</ele><time>2026-05-03T11:41:58.756Z</time></trkpt><trkpt lat="44.3392267" lon="7.861196"><ele>646.5</ele><time>2026-05-03T11:42:00.756Z</time></trkpt><trkpt lat="44.3391321" lon="7.8611411"><ele>647.3333333333334</ele><time>2026-05-03T11:42:02.762Z</time></trkpt><trkpt lat="44.3390685" lon="7.8611717"><ele>648.1666666666667</ele><time>2026-05-03T11:42:04.766Z</time></trkpt><trkpt lat="44.3389769" lon="7.8612525"><ele>649.0</ele><time>2026-05-03T11:42:06.759Z</time></trkpt><trkpt lat="44.3388779" lon="7.8612819"><ele>646.1666666666667</ele><time>2026-05-03T11:42:08.76Z</time></trkpt><trkpt lat="44.3387965" lon="7.8613087"><ele>643.3333333333334</ele><time>2026-05-03T11:42:10.764Z</time></trkpt><trkpt lat="44.3387125" lon="7.8613375"><ele>640.5</ele><time>2026-05-03T11:42:12.758Z</time></trkpt><trkpt lat="44.3386043" lon="7.8613427"><ele>637.6666666666666</ele><time>2026-05-03T11:42:14.752Z</time></trkpt><trkpt lat="44.3385168" lon="7.8613096"><ele>634.8333333333333</ele><time>2026-05-03T11:42:16.761Z</time></trkpt><trkpt lat="44.3384872" lon="7.8612244"><ele>632.0</ele><time>2026-05-03T11:42:18.776Z</time></trkpt><trkpt lat="44.3384243" lon="7.8610692"><ele>632.0</ele><time>2026-05-03T11:42:20.753Z</time></trkpt><trkpt lat="44.3383805" lon="7.8609685"><ele>632.0</ele><time>2026-05-03T11:42:21.754Z</time></trkpt><trkpt lat="44.3383373" lon="7.8608675"><ele>632.0</ele><time>2026-05-03T11:42:22.754Z</time></trkpt><trkpt lat="44.3383001" lon="7.86076"><ele>632.0</ele><time>2026-05-03T11:42:23.756Z</time></trkpt><trkpt lat="44.3382384" lon="7.8606486"><ele>632.0</ele><time>2026-05-03T11:42:24.763Z</time></trkpt><trkpt lat="44.3381607" lon="7.8605238"><ele>635.4000000000001</ele><time>2026-05-03T11:42:25.756Z</time></trkpt><trkpt lat="44.3380919" lon="7.8604135"><ele>638.8000000000001</ele><time>2026-05-03T11:42:26.761Z</time></trkpt><trkpt lat="44.3380345" lon="7.8603122"><ele>642.2</ele><time>2026-05-03T11:42:27.761Z</time></trkpt><trkpt lat="44.3380008" lon="7.8602029"><ele>645.6</ele><time>2026-05-03T11:42:28.756Z</time></trkpt><trkpt lat="44.3379578" lon="7.8601094"><ele>649.0</ele><time>2026-05-03T11:42:29.757Z</time></trkpt><trkpt lat="44.3379327" lon="7.8599836"><ele>652.2</ele><time>2026-05-03T11:42:31.757Z</time></trkpt><trkpt lat="44.3378723" lon="7.8598262"><ele>655.4000000000001</ele><time>2026-05-03T11:42:33.759Z</time></trkpt><trkpt lat="44.337767" lon="7.8596985"><ele>658.6</ele><time>2026-05-03T11:42:35.761Z</time></trkpt><trkpt lat="44.3376851" lon="7.8597173"><ele>661.8</ele><time>2026-05-03T11:42:37.757Z</time></trkpt><trkpt lat="44.3376531" lon="7.8598464"><ele>665.0</ele><time>2026-05-03T11:42:40.76Z</time></trkpt><trkpt lat="44.3376448" lon="7.8599749"><ele>665.0</ele><time>2026-05-03T11:42:42.762Z</time></trkpt><trkpt lat="44.3376309" lon="7.860106"><ele>665.0</ele><time>2026-05-03T11:42:44.761Z</time></trkpt><trkpt lat="44.3376413" lon="7.8602519"><ele>665.0</ele><time>2026-05-03T11:42:46.759Z</time></trkpt><trkpt lat="44.3376587" lon="7.8603721"><ele>665.0</ele><time>2026-05-03T11:42:48.761Z</time></trkpt><trkpt lat="44.33767" lon="7.8605047"><ele>665.0</ele><time>2026-05-03T11:42:50.759Z</time></trkpt><trkpt lat="44.3376829" lon="7.8606449"><ele>664.6666666666666</ele><time>2026-05-03T11:42:52.761Z</time></trkpt><trkpt lat="44.3376743" lon="7.860739"><ele>664.3333333333333</ele><time>2026-05-03T11:42:53.762Z</time></trkpt><trkpt lat="44.3376686" lon="7.8608559"><ele>664.0</ele><time>2026-05-03T11:42:54.76Z</time></trkpt><trkpt lat="44.3376722" lon="7.8609759"><ele>663.6666666666666</ele><time>2026-05-03T11:42:55.754Z</time></trkpt><trkpt lat="44.3376912" lon="7.8611046"><ele>663.3333333333334</ele><time>2026-05-03T11:42:56.76Z</time></trkpt><trkpt lat="44.3376922" lon="7.8612044"><ele>663.0</ele><time>2026-05-03T11:42:57.761Z</time></trkpt><trkpt lat="44.3376514" lon="7.8613391"><ele>662.0</ele><time>2026-05-03T11:42:59.759Z</time></trkpt><trkpt lat="44.3375923" lon="7.8614593"><ele>661.0</ele><time>2026-05-03T11:43:01.762Z</time></trkpt><trkpt lat="44.3375597" lon="7.8615688"><ele>660.0</ele><time>2026-05-03T11:43:02.76Z</time></trkpt><trkpt lat="44.3375296" lon="7.8616592"><ele>659.0</ele><time>2026-05-03T11:43:03.757Z</time></trkpt><trkpt lat="44.3375033" lon="7.8617408"><ele>658.0</ele><time>2026-05-03T11:43:04.766Z</time></trkpt><trkpt lat="44.3374401" lon="7.8619255"><ele>656.5999999999999</ele><time>2026-05-03T11:43:06.759Z</time></trkpt><trkpt lat="44.3373966" lon="7.8620003"><ele>655.1999999999999</ele><time>2026-05-03T11:43:07.758Z</time></trkpt><trkpt lat="44.3373512" lon="7.8622031"><ele>653.8</ele><time>2026-05-03T11:43:09.757Z</time></trkpt><trkpt lat="44.3373686" lon="7.8623251"><ele>652.4</ele><time>2026-05-03T11:43:10.771Z</time></trkpt><trkpt lat="44.3374039" lon="7.8624251"><ele>651.0</ele><time>2026-05-03T11:43:11.769Z</time></trkpt><trkpt lat="44.3374292" lon="7.8625264"><ele>651.1666666666666</ele><time>2026-05-03T11:43:12.764Z</time></trkpt><trkpt lat="44.3374674" lon="7.8626346"><ele>651.3333333333334</ele><time>2026-05-03T11:43:14.757Z</time></trkpt><trkpt lat="44.3374657" lon="7.8628222"><ele>651.5</ele><time>2026-05-03T11:43:16.762Z</time></trkpt><trkpt lat="44.3374944" lon="7.8629173"><ele>651.6666666666667</ele><time>2026-05-03T11:43:17.763Z</time></trkpt><trkpt lat="44.3375378" lon="7.8630005"><ele>651.8333333333334</ele><time>2026-05-03T11:43:18.76Z</time></trkpt><trkpt lat="44.3375827" lon="7.8630681"><ele>652.0</ele><time>2026-05-03T11:43:19.76Z</time></trkpt><trkpt lat="44.3376253" lon="7.8631498"><ele>652.0</ele><time>2026-05-03T11:43:20.759Z</time></trkpt><trkpt lat="44.3376731" lon="7.8632628"><ele>652.0</ele><time>2026-05-03T11:43:21.76Z</time></trkpt><trkpt lat="44.337736" lon="7.8633688"><ele>652.0</ele><time>2026-05-03T11:43:22.758Z</time></trkpt><trkpt lat="44.3377686" lon="7.8635143"><ele>652.0</ele><time>2026-05-03T11:43:23.767Z</time></trkpt><trkpt lat="44.3378079" lon="7.8636458"><ele>652.0</ele><time>2026-05-03T11:43:24.77Z</time></trkpt><trkpt lat="44.3378217" lon="7.8637511"><ele>650.1666666666667</ele><time>2026-05-03T11:43:25.776Z</time></trkpt><trkpt lat="44.3378332" lon="7.8638418"><ele>648.3333333333334</ele><time>2026-05-03T11:43:26.769Z</time></trkpt><trkpt lat="44.3378447" lon="7.8639558"><ele>646.5</ele><time>2026-05-03T11:43:27.756Z</time></trkpt><trkpt lat="44.3378691" lon="7.8640608"><ele>644.6666666666666</ele><time>2026-05-03T11:43:28.766Z</time></trkpt><trkpt lat="44.3378339" lon="7.8641848"><ele>642.8333333333333</ele><time>2026-05-03T11:43:31.76Z</time></trkpt><trkpt lat="44.3377651" lon="7.8642544"><ele>641.0</ele><time>2026-05-03T11:43:33.764Z</time></trkpt><trkpt lat="44.3376909" lon="7.8642883"><ele>641.0</ele><time>2026-05-03T11:43:35.761Z</time></trkpt><trkpt lat="44.3376179" lon="7.8642857"><ele>641.0</ele><time>2026-05-03T11:43:38.764Z</time></trkpt><trkpt lat="44.3375322" lon="7.8641901"><ele>641.0</ele><time>2026-05-03T11:43:40.764Z</time></trkpt><trkpt lat="44.3374477" lon="7.8641382"><ele>641.0</ele><time>2026-05-03T11:43:42.762Z</time></trkpt><trkpt lat="44.337372" lon="7.8640341"><ele>641.0</ele><time>2026-05-03T11:43:45.764Z</time></trkpt><trkpt lat="44.337269" lon="7.8639921"><ele>637.5999999999999</ele><time>2026-05-03T11:43:47.765Z</time></trkpt><trkpt lat="44.3372001" lon="7.8640098"><ele>634.1999999999999</ele><time>2026-05-03T11:43:48.765Z</time></trkpt><trkpt lat="44.3371151" lon="7.8639881"><ele>630.8</ele><time>2026-05-03T11:43:50.762Z</time></trkpt><trkpt lat="44.3370625" lon="7.8638494"><ele>627.4</ele><time>2026-05-03T11:43:52.767Z</time></trkpt><trkpt lat="44.3370192" lon="7.8637233"><ele>624.0</ele><time>2026-05-03T11:43:53.769Z</time></trkpt><trkpt lat="44.3369546" lon="7.8636452"><ele>624.0</ele><time>2026-05-03T11:43:54.76Z</time></trkpt><trkpt lat="44.3368841" lon="7.8635675"><ele>624.0</ele><time>2026-05-03T11:43:55.763Z</time></trkpt><trkpt lat="44.3368368" lon="7.8634927"><ele>624.0</ele><time>2026-05-03T11:43:56.761Z</time></trkpt><trkpt lat="44.336814" lon="7.8633988"><ele>624.0</ele><time>2026-05-03T11:43:57.757Z</time></trkpt><trkpt lat="44.3367498" lon="7.8632576"><ele>624.0</ele><time>2026-05-03T11:43:59.757Z</time></trkpt><trkpt lat="44.3366504" lon="7.8631334"><ele>621.5</ele><time>2026-05-03T11:44:01.763Z</time></trkpt><trkpt lat="44.3365827" lon="7.8630692"><ele>619.0</ele><time>2026-05-03T11:44:02.755Z</time></trkpt><trkpt lat="44.3365316" lon="7.8630026"><ele>616.5</ele><time>2026-05-03T11:44:03.757Z</time></trkpt><trkpt lat="44.3364695" lon="7.8628983"><ele>614.0</ele><time>2026-05-03T11:44:04.758Z</time></trkpt><trkpt lat="44.336416" lon="7.8627925"><ele>611.5</ele><time>2026-05-03T11:44:05.762Z</time></trkpt><trkpt lat="44.3363857" lon="7.8627003"><ele>609.0</ele><time>2026-05-03T11:44:06.755Z</time></trkpt><trkpt lat="44.3363504" lon="7.8626158"><ele>613.3333333333334</ele><time>2026-05-03T11:44:07.756Z</time></trkpt><trkpt lat="44.3362664" lon="7.8624912"><ele>617.6666666666666</ele><time>2026-05-03T11:44:09.755Z</time></trkpt><trkpt lat="44.3362031" lon="7.8624465"><ele>622.0</ele><time>2026-05-03T11:44:10.757Z</time></trkpt><trkpt lat="44.3361394" lon="7.8624256"><ele>626.3333333333333</ele><time>2026-05-03T11:44:11.756Z</time></trkpt><trkpt lat="44.3360711" lon="7.8623809"><ele>630.6666666666666</ele><time>2026-05-03T11:44:12.757Z</time></trkpt><trkpt lat="44.3360051" lon="7.8623182"><ele>635.0</ele><time>2026-05-03T11:44:13.758Z</time></trkpt><trkpt lat="44.3359418" lon="7.8622718"><ele>635.0</ele><time>2026-05-03T11:44:14.762Z</time></trkpt><trkpt lat="44.3358336" lon="7.8622258"><ele>635.0</ele><time>2026-05-03T11:44:16.754Z</time></trkpt><trkpt lat="44.3357779" lon="7.8620641"><ele>635.0</ele><time>2026-05-03T11:44:18.757Z</time></trkpt><trkpt lat="44.335736" lon="7.8619523"><ele>635.0</ele><time>2026-05-03T11:44:19.755Z</time></trkpt><trkpt lat="44.3356856" lon="7.8618309"><ele>635.0</ele><time>2026-05-03T11:44:20.772Z</time></trkpt><trkpt lat="44.3356396" lon="7.8617536"><ele>632.4</ele><time>2026-05-03T11:44:21.761Z</time></trkpt><trkpt lat="44.3355924" lon="7.8616089"><ele>629.8</ele><time>2026-05-03T11:44:23.761Z</time></trkpt><trkpt lat="44.335573" lon="7.8614818"><ele>627.2</ele><time>2026-05-03T11:44:24.767Z</time></trkpt><trkpt lat="44.3355579" lon="7.8613353"><ele>624.6</ele><time>2026-05-03T11:44:25.765Z</time></trkpt><trkpt lat="44.3355418" lon="7.8612367"><ele>622.0</ele><time>2026-05-03T11:44:26.759Z</time></trkpt><trkpt lat="44.3355264" lon="7.8610663"><ele>622.0</ele><time>2026-05-03T11:44:28.766Z</time></trkpt><trkpt lat="44.3355115" lon="7.8609702"><ele>622.0</ele><time>2026-05-03T11:44:29.759Z</time></trkpt><trkpt lat="44.3354569" lon="7.8607563"><ele>622.0</ele><time>2026-05-03T11:44:31.767Z</time></trkpt><trkpt lat="44.3354373" lon="7.8606388"><ele>622.0</ele><time>2026-05-03T11:44:32.757Z</time></trkpt><trkpt lat="44.3354239" lon="7.8605427"><ele>622.0</ele><time>2026-05-03T11:44:33.761Z</time></trkpt><trkpt lat="44.3354192" lon="7.8604469"><ele>623.1666666666667</ele><time>2026-05-03T11:44:34.763Z</time></trkpt><trkpt lat="44.335419" lon="7.860357"><ele>624.3333333333334</ele><time>2026-05-03T11:44:35.757Z</time></trkpt><trkpt lat="44.3354454" lon="7.8602636"><ele>625.5</ele><time>2026-05-03T11:44:36.762Z</time></trkpt><trkpt lat="44.3354988" lon="7.86012"><ele>626.6666666666666</ele><time>2026-05-03T11:44:37.758Z</time></trkpt><trkpt lat="44.3355513" lon="7.859993"><ele>627.8333333333333</ele><time>2026-05-03T11:44:38.762Z</time></trkpt><trkpt lat="44.3355924" lon="7.8599055"><ele>629.0</ele><time>2026-05-03T11:44:39.756Z</time></trkpt><trkpt lat="44.3356231" lon="7.8597855"><ele>631.4</ele><time>2026-05-03T11:44:41.756Z</time></trkpt><trkpt lat="44.3355823" lon="7.8596756"><ele>633.8</ele><time>2026-05-03T11:44:43.766Z</time></trkpt><trkpt lat="44.3354721" lon="7.8596888"><ele>636.1999999999999</ele><time>2026-05-03T11:44:45.773Z</time></trkpt><trkpt lat="44.3354093" lon="7.8597026"><ele>638.5999999999999</ele><time>2026-05-03T11:44:46.751Z</time></trkpt><trkpt lat="44.3352807" lon="7.8597025"><ele>641.0</ele><time>2026-05-03T11:44:48.764Z</time></trkpt><trkpt lat="44.3352082" lon="7.8597046"><ele>641.0</ele><time>2026-05-03T11:44:49.76Z</time></trkpt><trkpt lat="44.3351221" lon="7.8596949"><ele>641.0</ele><time>2026-05-03T11:44:50.758Z</time></trkpt><trkpt lat="44.3350454" lon="7.8596981"><ele>641.0</ele><time>2026-05-03T11:44:51.757Z</time></trkpt><trkpt lat="44.3349735" lon="7.8597032"><ele>641.0</ele><time>2026-05-03T11:44:52.763Z</time></trkpt><trkpt lat="44.3348763" lon="7.8596925"><ele>641.0</ele><time>2026-05-03T11:44:53.755Z</time></trkpt><trkpt lat="44.3347655" lon="7.8596682"><ele>641.0</ele><time>2026-05-03T11:44:54.758Z</time></trkpt><trkpt lat="44.3346777" lon="7.8596381"><ele>638.8333333333333</ele><time>2026-05-03T11:44:55.757Z</time></trkpt><trkpt lat="44.334601" lon="7.8596123"><ele>636.6666666666666</ele><time>2026-05-03T11:44:56.761Z</time></trkpt><trkpt lat="44.3345264" lon="7.8595904"><ele>634.5</ele><time>2026-05-03T11:44:57.759Z</time></trkpt><trkpt lat="44.334458" lon="7.8595745"><ele>632.3333333333334</ele><time>2026-05-03T11:44:58.769Z</time></trkpt><trkpt lat="44.334369" lon="7.8595089"><ele>630.1666666666667</ele><time>2026-05-03T11:45:00.764Z</time></trkpt><trkpt lat="44.3343174" lon="7.8594268"><ele>628.0</ele><time>2026-05-03T11:45:01.764Z</time></trkpt><trkpt lat="44.3342604" lon="7.8593014"><ele>630.6666666666667</ele><time>2026-05-03T11:45:02.766Z</time></trkpt><trkpt lat="44.3342124" lon="7.8591827"><ele>633.3333333333334</ele><time>2026-05-03T11:45:03.757Z</time></trkpt><trkpt lat="44.3341692" lon="7.8590918"><ele>636.0</ele><time>2026-05-03T11:45:04.762Z</time></trkpt><trkpt lat="44.3341333" lon="7.8589862"><ele>638.6666666666666</ele><time>2026-05-03T11:45:05.758Z</time></trkpt><trkpt lat="44.3341232" lon="7.8588725"><ele>641.3333333333333</ele><time>2026-05-03T11:45:06.759Z</time></trkpt><trkpt lat="44.3341481" lon="7.8587778"><ele>644.0</ele><time>2026-05-03T11:45:07.767Z</time></trkpt><trkpt lat="44.3342068" lon="7.8586236"><ele>644.0</ele><time>2026-05-03T11:45:09.758Z</time></trkpt><trkpt lat="44.3342592" lon="7.8585469"><ele>644.0</ele><time>2026-05-03T11:45:10.76Z</time></trkpt><trkpt lat="44.3343147" lon="7.8584537"><ele>644.0</ele><time>2026-05-03T11:45:11.756Z</time></trkpt><trkpt lat="44.3343593" lon="7.85838"><ele>644.0</ele><time>2026-05-03T11:45:12.763Z</time></trkpt><trkpt lat="44.3344074" lon="7.8583216"><ele>644.0</ele><time>2026-05-03T11:45:13.756Z</time></trkpt><trkpt lat="44.3344874" lon="7.8582359"><ele>644.0</ele><time>2026-05-03T11:45:14.765Z</time></trkpt><trkpt lat="44.3345664" lon="7.858178"><ele>643.6</ele><time>2026-05-03T11:45:15.762Z</time></trkpt><trkpt lat="44.3346519" lon="7.8580802"><ele>643.2</ele><time>2026-05-03T11:45:16.758Z</time></trkpt><trkpt lat="44.3347353" lon="7.857986"><ele>642.8000000000001</ele><time>2026-05-03T11:45:17.757Z</time></trkpt><trkpt lat="44.334818" lon="7.8578934"><ele>642.4000000000001</ele><time>2026-05-03T11:45:18.758Z</time></trkpt><trkpt lat="44.3348672" lon="7.8578323"><ele>642.0</ele><time>2026-05-03T11:45:19.753Z</time></trkpt><trkpt lat="44.3349274" lon="7.8577552"><ele>641.1428571428571</ele><time>2026-05-03T11:45:21.754Z</time></trkpt><trkpt lat="44.3349664" lon="7.8576529"><ele>640.2857142857142</ele><time>2026-05-03T11:45:23.763Z</time></trkpt><trkpt lat="44.3348942" lon="7.8575919"><ele>639.4285714285713</ele><time>2026-05-03T11:45:26.762Z</time></trkpt><trkpt lat="44.334824" lon="7.8575735"><ele>638.5714285714286</ele><time>2026-05-03T11:45:27.763Z</time></trkpt><trkpt lat="44.3347584" lon="7.8575594"><ele>637.7142857142858</ele><time>2026-05-03T11:45:28.755Z</time></trkpt><trkpt lat="44.3346976" lon="7.8575191"><ele>636.8571428571428</ele><time>2026-05-03T11:45:29.761Z</time></trkpt><trkpt lat="44.3346288" lon="7.8574718"><ele>636.0</ele><time>2026-05-03T11:45:31.76Z</time></trkpt><trkpt lat="44.3345791" lon="7.8574036"><ele>636.0</ele><time>2026-05-03T11:45:33.764Z</time></trkpt><trkpt lat="44.334485" lon="7.8572651"><ele>636.0</ele><time>2026-05-03T11:46:04.767Z</time></trkpt><trkpt lat="44.334427" lon="7.8572069"><ele>636.0</ele><time>2026-05-03T11:47:21.765Z</time></trkpt><trkpt lat="44.3344681" lon="7.8573097"><ele>636.0</ele><time>2026-05-03T11:47:30.775Z</time></trkpt><trkpt lat="44.334577" lon="7.8574325"><ele>636.0</ele><time>2026-05-03T11:47:32.756Z</time></trkpt><trkpt lat="44.3346328" lon="7.8574933"><ele>637.2</ele><time>2026-05-03T11:47:33.756Z</time></trkpt><trkpt lat="44.3346677" lon="7.8576324"><ele>638.4000000000001</ele><time>2026-05-03T11:47:35.76Z</time></trkpt><trkpt lat="44.3346333" lon="7.8577751"><ele>639.6</ele><time>2026-05-03T11:47:37.756Z</time></trkpt><trkpt lat="44.3345476" lon="7.8578301"><ele>640.8000000000001</ele><time>2026-05-03T11:47:38.751Z</time></trkpt><trkpt lat="44.3344299" lon="7.8578834"><ele>642.0</ele><time>2026-05-03T11:47:39.766Z</time></trkpt><trkpt lat="44.3342946" lon="7.8579581"><ele>642.0</ele><time>2026-05-03T11:47:40.765Z</time></trkpt><trkpt lat="44.3341681" lon="7.8580468"><ele>642.0</ele><time>2026-05-03T11:47:41.758Z</time></trkpt><trkpt lat="44.3340598" lon="7.8581304"><ele>642.0</ele><time>2026-05-03T11:47:42.757Z</time></trkpt><trkpt lat="44.3339714" lon="7.8582228"><ele>642.0</ele><time>2026-05-03T11:47:43.757Z</time></trkpt><trkpt lat="44.3339103" lon="7.8583123"><ele>638.0</ele><time>2026-05-03T11:47:44.758Z</time></trkpt><trkpt lat="44.3338589" lon="7.8583901"><ele>634.0</ele><time>2026-05-03T11:47:45.762Z</time></trkpt><trkpt lat="44.3338078" lon="7.8584625"><ele>630.0</ele><time>2026-05-03T11:47:46.761Z</time></trkpt><trkpt lat="44.3337603" lon="7.8585693"><ele>626.0</ele><time>2026-05-03T11:47:47.76Z</time></trkpt><trkpt lat="44.3337231" lon="7.8587021"><ele>622.0</ele><time>2026-05-03T11:47:48.764Z</time></trkpt><trkpt lat="44.3336841" lon="7.8588337"><ele>618.0</ele><time>2026-05-03T11:47:49.761Z</time></trkpt><trkpt lat="44.3336623" lon="7.858967"><ele>618.0</ele><time>2026-05-03T11:47:50.763Z</time></trkpt><trkpt lat="44.3336389" lon="7.8590903"><ele>618.0</ele><time>2026-05-03T11:47:51.764Z</time></trkpt><trkpt lat="44.333643" lon="7.859241"><ele>618.0</ele><time>2026-05-03T11:47:52.76Z</time></trkpt><trkpt lat="44.3336519" lon="7.8593633"><ele>618.0</ele><time>2026-05-03T11:47:53.759Z</time></trkpt><trkpt lat="44.3336712" lon="7.8594548"><ele>618.0</ele><time>2026-05-03T11:47:54.762Z</time></trkpt><trkpt lat="44.3337054" lon="7.85954"><ele>618.0</ele><time>2026-05-03T11:47:55.766Z</time></trkpt><trkpt lat="44.3337661" lon="7.8596426"><ele>616.0</ele><time>2026-05-03T11:47:56.756Z</time></trkpt><trkpt lat="44.333872" lon="7.859757"><ele>614.0</ele><time>2026-05-03T11:47:57.765Z</time></trkpt><trkpt lat="44.3339834" lon="7.8598963"><ele>612.0</ele><time>2026-05-03T11:47:58.757Z</time></trkpt><trkpt lat="44.3340928" lon="7.8600235"><ele>610.0</ele><time>2026-05-03T11:47:59.755Z</time></trkpt><trkpt lat="44.3342213" lon="7.8601182"><ele>609.4</ele><time>2026-05-03T11:48:00.766Z</time></trkpt><trkpt lat="44.334345" lon="7.8601599"><ele>608.8</ele><time>2026-05-03T11:48:01.798Z</time></trkpt><trkpt lat="44.3344553" lon="7.8601978"><ele>608.2</ele><time>2026-05-03T11:48:02.766Z</time></trkpt><trkpt lat="44.334548" lon="7.8601987"><ele>607.6</ele><time>2026-05-03T11:48:03.761Z</time></trkpt><trkpt lat="44.3346187" lon="7.8601982"><ele>607.0</ele><time>2026-05-03T11:48:04.759Z</time></trkpt><trkpt lat="44.3346758" lon="7.8602711"><ele>607.0</ele><time>2026-05-03T11:48:05.763Z</time></trkpt><trkpt lat="44.3347259" lon="7.8603345"><ele>607.0</ele><time>2026-05-03T11:48:06.755Z</time></trkpt><trkpt lat="44.3347275" lon="7.86045"><ele>607.0</ele><time>2026-05-03T11:48:07.762Z</time></trkpt><trkpt lat="44.3347175" lon="7.8605922"><ele>607.0</ele><time>2026-05-03T11:48:08.759Z</time></trkpt><trkpt lat="44.3347047" lon="7.8607613"><ele>607.0</ele><time>2026-05-03T11:48:09.76Z</time></trkpt><trkpt lat="44.3346994" lon="7.8609391"><ele>605.6</ele><time>2026-05-03T11:48:10.757Z</time></trkpt><trkpt lat="44.3346972" lon="7.8611028"><ele>604.2</ele><time>2026-05-03T11:48:11.767Z</time></trkpt><trkpt lat="44.3346976" lon="7.8612336"><ele>602.8</ele><time>2026-05-03T11:48:12.758Z</time></trkpt><trkpt lat="44.3346615" lon="7.8613686"><ele>601.4</ele><time>2026-05-03T11:48:14.758Z</time></trkpt><trkpt lat="44.3345891" lon="7.8613174"><ele>600.0</ele><time>2026-05-03T11:48:16.757Z</time></trkpt><trkpt lat="44.3345551" lon="7.8612175"><ele>600.0</ele><time>2026-05-03T11:48:17.753Z</time></trkpt><trkpt lat="44.3345233" lon="7.8610848"><ele>600.0</ele><time>2026-05-03T11:48:18.778Z</time></trkpt><trkpt lat="44.3344937" lon="7.8609733"><ele>600.0</ele><time>2026-05-03T11:48:19.766Z</time></trkpt><trkpt lat="44.3344576" lon="7.860897"><ele>600.0</ele><time>2026-05-03T11:48:20.762Z</time></trkpt><trkpt lat="44.3343656" lon="7.8608856"><ele>600.0</ele><time>2026-05-03T11:48:22.767Z</time></trkpt><trkpt lat="44.3343195" lon="7.8609519"><ele>600.0</ele><time>2026-05-03T11:48:23.754Z</time></trkpt><trkpt lat="44.334281" lon="7.8610701"><ele>600.0</ele><time>2026-05-03T11:48:24.753Z</time></trkpt><trkpt lat="44.3342518" lon="7.8612251"><ele>600.0</ele><time>2026-05-03T11:48:25.758Z</time></trkpt><trkpt lat="44.3342488" lon="7.8613849"><ele>600.0</ele><time>2026-05-03T11:48:26.753Z</time></trkpt><trkpt lat="44.3342553" lon="7.861522"><ele>600.0</ele><time>2026-05-03T11:48:27.753Z</time></trkpt><trkpt lat="44.3342602" lon="7.8616393"><ele>600.0</ele><time>2026-05-03T11:48:28.755Z</time></trkpt><trkpt lat="44.3342516" lon="7.8617314"><ele>598.4</ele><time>2026-05-03T11:48:29.758Z</time></trkpt><trkpt lat="44.3341953" lon="7.8618725"><ele>596.8</ele><time>2026-05-03T11:48:31.767Z</time></trkpt><trkpt lat="44.3341342" lon="7.8619367"><ele>595.2</ele><time>2026-05-03T11:48:32.764Z</time></trkpt><trkpt lat="44.3340651" lon="7.8620122"><ele>593.6</ele><time>2026-05-03T11:48:33.763Z</time></trkpt><trkpt lat="44.3340013" lon="7.8621238"><ele>592.0</ele><time>2026-05-03T11:48:34.762Z</time></trkpt><trkpt lat="44.3339459" lon="7.8622541"><ele>592.0</ele><time>2026-05-03T11:48:35.759Z</time></trkpt><trkpt lat="44.3338962" lon="7.8624034"><ele>592.0</ele><time>2026-05-03T11:48:36.76Z</time></trkpt><trkpt lat="44.3338562" lon="7.8625531"><ele>592.0</ele><time>2026-05-03T11:48:37.761Z</time></trkpt><trkpt lat="44.3338221" lon="7.8626899"><ele>592.0</ele><time>2026-05-03T11:48:38.761Z</time></trkpt><trkpt lat="44.3337919" lon="7.8628175"><ele>592.0</ele><time>2026-05-03T11:48:39.763Z</time></trkpt><trkpt lat="44.3337619" lon="7.8629268"><ele>590.5</ele><time>2026-05-03T11:48:40.76Z</time></trkpt><trkpt lat="44.3337361" lon="7.863021"><ele>589.0</ele><time>2026-05-03T11:48:41.764Z</time></trkpt><trkpt lat="44.3336913" lon="7.8631423"><ele>587.5</ele><time>2026-05-03T11:48:43.759Z</time></trkpt><trkpt lat="44.3336094" lon="7.8632452"><ele>586.0</ele><time>2026-05-03T11:48:45.76Z</time></trkpt><trkpt lat="44.3335429" lon="7.8633197"><ele>584.5</ele><time>2026-05-03T11:48:47.765Z</time></trkpt><trkpt lat="44.3335482" lon="7.8634231"><ele>583.0</ele><time>2026-05-03T11:48:49.763Z</time></trkpt><trkpt lat="44.3336811" lon="7.8634161"><ele>583.0</ele><time>2026-05-03T11:48:53.764Z</time></trkpt><trkpt lat="44.3337689" lon="7.8634198"><ele>583.0</ele><time>2026-05-03T11:48:54.762Z</time></trkpt><trkpt lat="44.333851" lon="7.8634269"><ele>583.0</ele><time>2026-05-03T11:48:55.763Z</time></trkpt><trkpt lat="44.3339426" lon="7.8634081"><ele>583.0</ele><time>2026-05-03T11:48:56.767Z</time></trkpt><trkpt lat="44.3340284" lon="7.8633732"><ele>583.0</ele><time>2026-05-03T11:48:57.768Z</time></trkpt><trkpt lat="44.3341025" lon="7.8633274"><ele>583.0</ele><time>2026-05-03T11:48:58.764Z</time></trkpt><trkpt lat="44.3341668" lon="7.8632936"><ele>582.0</ele><time>2026-05-03T11:48:59.759Z</time></trkpt><trkpt lat="44.3342448" lon="7.8632799"><ele>581.0</ele><time>2026-05-03T11:49:01.758Z</time></trkpt><trkpt lat="44.3342472" lon="7.8633811"><ele>580.0</ele><time>2026-05-03T11:49:04.769Z</time></trkpt><trkpt lat="44.334142" lon="7.8635273"><ele>579.0</ele><time>2026-05-03T11:49:06.764Z</time></trkpt><trkpt lat="44.3340756" lon="7.8636081"><ele>578.0</ele><time>2026-05-03T11:49:07.765Z</time></trkpt><trkpt lat="44.3340146" lon="7.8636754"><ele>575.5</ele><time>2026-05-03T11:49:08.764Z</time></trkpt><trkpt lat="44.3339047" lon="7.8637571"><ele>573.0</ele><time>2026-05-03T11:49:10.765Z</time></trkpt><trkpt lat="44.3338322" lon="7.8637797"><ele>570.5</ele><time>2026-05-03T11:49:11.78Z</time></trkpt><trkpt lat="44.3337487" lon="7.8638197"><ele>568.0</ele><time>2026-05-03T11:49:13.765Z</time></trkpt><trkpt lat="44.3337045" lon="7.8638889"><ele>565.5</ele><time>2026-05-03T11:49:15.759Z</time></trkpt><trkpt lat="44.3337878" lon="7.8639265"><ele>563.0</ele><time>2026-05-03T11:49:18.77Z</time></trkpt><trkpt lat="44.333934" lon="7.863913"><ele>561.4</ele><time>2026-05-03T11:49:20.763Z</time></trkpt><trkpt lat="44.3340186" lon="7.8639102"><ele>559.8</ele><time>2026-05-03T11:49:21.76Z</time></trkpt><trkpt lat="44.3341925" lon="7.8639605"><ele>558.2</ele><time>2026-05-03T11:49:23.759Z</time></trkpt><trkpt lat="44.3342653" lon="7.8639939"><ele>556.6</ele><time>2026-05-03T11:49:24.754Z</time></trkpt><trkpt lat="44.334342" lon="7.8640431"><ele>555.0</ele><time>2026-05-03T11:49:25.755Z</time></trkpt><trkpt lat="44.3344149" lon="7.8640978"><ele>555.0</ele><time>2026-05-03T11:49:26.758Z</time></trkpt><trkpt lat="44.3344837" lon="7.8641355"><ele>555.0</ele><time>2026-05-03T11:49:27.755Z</time></trkpt><trkpt lat="44.3345445" lon="7.8642269"><ele>555.0</ele><time>2026-05-03T11:49:29.755Z</time></trkpt><trkpt lat="44.3345221" lon="7.8643208"><ele>555.0</ele><time>2026-05-03T11:49:31.759Z</time></trkpt><trkpt lat="44.3344487" lon="7.8643535"><ele>555.0</ele><time>2026-05-03T11:49:33.756Z</time></trkpt><trkpt lat="44.3343597" lon="7.8643727"><ele>555.0</ele><time>2026-05-03T11:49:34.765Z</time></trkpt><trkpt lat="44.3342613" lon="7.8643467"><ele>551.1666666666666</ele><time>2026-05-03T11:49:35.754Z</time></trkpt><trkpt lat="44.3341669" lon="7.8643411"><ele>547.3333333333334</ele><time>2026-05-03T11:49:36.751Z</time></trkpt><trkpt lat="44.3340685" lon="7.8643349"><ele>543.5</ele><time>2026-05-03T11:49:37.763Z</time></trkpt><trkpt lat="44.3339874" lon="7.8643557"><ele>539.6666666666667</ele><time>2026-05-03T11:49:38.768Z</time></trkpt><trkpt lat="44.3339264" lon="7.8643808"><ele>535.8333333333334</ele><time>2026-05-03T11:49:39.756Z</time></trkpt><trkpt lat="44.333859" lon="7.864426"><ele>532.0</ele><time>2026-05-03T11:49:41.757Z</time></trkpt><trkpt lat="44.3338807" lon="7.8645169"><ele>531.7142857142857</ele><time>2026-05-03T11:49:44.757Z</time></trkpt><trkpt lat="44.3339457" lon="7.8645406"><ele>531.4285714285714</ele><time>2026-05-03T11:49:46.761Z</time></trkpt><trkpt lat="44.3340092" lon="7.8645508"><ele>531.1428571428571</ele><time>2026-05-03T11:49:47.756Z</time></trkpt><trkpt lat="44.3340793" lon="7.8645786"><ele>530.8571428571429</ele><time>2026-05-03T11:49:48.763Z</time></trkpt><trkpt lat="44.3341434" lon="7.864627"><ele>530.5714285714286</ele><time>2026-05-03T11:49:49.757Z</time></trkpt><trkpt lat="44.3342063" lon="7.8646903"><ele>530.2857142857142</ele><time>2026-05-03T11:49:50.76Z</time></trkpt><trkpt lat="44.33428" lon="7.864761"><ele>530.0</ele><time>2026-05-03T11:49:51.758Z</time></trkpt><trkpt lat="44.3343614" lon="7.8648142"><ele>530.0</ele><time>2026-05-03T11:49:52.761Z</time></trkpt><trkpt lat="44.3344461" lon="7.8648716"><ele>530.0</ele><time>2026-05-03T11:49:53.755Z</time></trkpt><trkpt lat="44.334525" lon="7.8649109"><ele>530.0</ele><time>2026-05-03T11:49:54.766Z</time></trkpt><trkpt lat="44.3346089" lon="7.8649407"><ele>530.0</ele><time>2026-05-03T11:49:55.757Z</time></trkpt><trkpt lat="44.3346801" lon="7.8649561"><ele>530.0</ele><time>2026-05-03T11:49:56.759Z</time></trkpt><trkpt lat="44.3347834" lon="7.8649731"><ele>530.0</ele><time>2026-05-03T11:49:58.758Z</time></trkpt><trkpt lat="44.3348183" lon="7.8650485"><ele>528.8</ele><time>2026-05-03T11:50:00.758Z</time></trkpt><trkpt lat="44.3347721" lon="7.8651152"><ele>527.6</ele><time>2026-05-03T11:50:02.756Z</time></trkpt><trkpt lat="44.3346484" lon="7.8651169"><ele>526.4</ele><time>2026-05-03T11:50:04.76Z</time></trkpt><trkpt lat="44.3345726" lon="7.8651137"><ele>525.2</ele><time>2026-05-03T11:50:05.762Z</time></trkpt><trkpt lat="44.3344713" lon="7.8651135"><ele>524.0</ele><time>2026-05-03T11:50:06.755Z</time></trkpt><trkpt lat="44.334364" lon="7.865115"><ele>522.75</ele><time>2026-05-03T11:50:07.755Z</time></trkpt><trkpt lat="44.3342399" lon="7.8651129"><ele>521.5</ele><time>2026-05-03T11:50:08.76Z</time></trkpt><trkpt lat="44.3341023" lon="7.865108"><ele>520.25</ele><time>2026-05-03T11:50:09.761Z</time></trkpt><trkpt lat="44.3339626" lon="7.8651017"><ele>519.0</ele><time>2026-05-03T11:50:10.758Z</time></trkpt><trkpt lat="44.3338245" lon="7.8650941"><ele>522.25</ele><time>2026-05-03T11:50:11.753Z</time></trkpt><trkpt lat="44.3336842" lon="7.8650656"><ele>525.5</ele><time>2026-05-03T11:50:12.756Z</time></trkpt><trkpt lat="44.3335544" lon="7.8650454"><ele>528.75</ele><time>2026-05-03T11:50:13.763Z</time></trkpt><trkpt lat="44.3334341" lon="7.8650356"><ele>532.0</ele><time>2026-05-03T11:50:14.755Z</time></trkpt><trkpt lat="44.3333116" lon="7.8650233"><ele>532.0</ele><time>2026-05-03T11:50:15.755Z</time></trkpt><trkpt lat="44.3330977" lon="7.8650197"><ele>532.0</ele><time>2026-05-03T11:50:17.753Z</time></trkpt><trkpt lat="44.3330004" lon="7.8650331"><ele>532.0</ele><time>2026-05-03T11:50:18.758Z</time></trkpt><trkpt lat="44.3329131" lon="7.8650574"><ele>532.0</ele><time>2026-05-03T11:50:19.765Z</time></trkpt><trkpt lat="44.3328349" lon="7.8650826"><ele>531.8333333333334</ele><time>2026-05-03T11:50:20.758Z</time></trkpt><trkpt lat="44.3327701" lon="7.8651084"><ele>531.6666666666667</ele><time>2026-05-03T11:50:21.758Z</time></trkpt><trkpt lat="44.3326739" lon="7.8651392"><ele>531.5</ele><time>2026-05-03T11:50:23.759Z</time></trkpt><trkpt lat="44.3326056" lon="7.8651704"><ele>531.3333333333334</ele><time>2026-05-03T11:50:25.761Z</time></trkpt><trkpt lat="44.3325451" lon="7.8652157"><ele>531.1666666666666</ele><time>2026-05-03T11:50:28.761Z</time></trkpt><trkpt lat="44.3325547" lon="7.8653844"><ele>531.0</ele><time>2026-05-03T11:51:10.754Z</time></trkpt><trkpt lat="44.3325987" lon="7.8654481"><ele>530.4</ele><time>2026-05-03T11:51:11.759Z</time></trkpt><trkpt lat="44.3326587" lon="7.8655306"><ele>529.8</ele><time>2026-05-03T11:51:12.795Z</time></trkpt><trkpt lat="44.3327288" lon="7.8656305"><ele>529.1999999999999</ele><time>2026-05-03T11:51:13.755Z</time></trkpt><trkpt lat="44.3328082" lon="7.8657393"><ele>528.6</ele><time>2026-05-03T11:51:14.755Z</time></trkpt><trkpt lat="44.3328978" lon="7.8658618"><ele>528.0</ele><time>2026-05-03T11:51:15.758Z</time></trkpt><trkpt lat="44.3329945" lon="7.8659809"><ele>525.25</ele><time>2026-05-03T11:51:16.758Z</time></trkpt><trkpt lat="44.3331004" lon="7.8660865"><ele>522.5</ele><time>2026-05-03T11:51:17.768Z</time></trkpt><trkpt lat="44.3332234" lon="7.8661808"><ele>519.75</ele><time>2026-05-03T11:51:18.755Z</time></trkpt><trkpt lat="44.3333663" lon="7.8662568"><ele>517.0</ele><time>2026-05-03T11:51:19.758Z</time></trkpt><trkpt lat="44.3335267" lon="7.8663135"><ele>517.0</ele><time>2026-05-03T11:51:20.755Z</time></trkpt><trkpt lat="44.333696" lon="7.8663605"><ele>517.0</ele><time>2026-05-03T11:51:21.763Z</time></trkpt><trkpt lat="44.3338723" lon="7.8664"><ele>517.0</ele><time>2026-05-03T11:51:22.765Z</time></trkpt><trkpt lat="44.3340528" lon="7.8664387"><ele>516.3333333333334</ele><time>2026-05-03T11:51:23.767Z</time></trkpt><trkpt lat="44.3342336" lon="7.8664794"><ele>515.6666666666666</ele><time>2026-05-03T11:51:24.763Z</time></trkpt><trkpt lat="44.3344185" lon="7.8665218"><ele>515.0</ele><time>2026-05-03T11:51:25.765Z</time></trkpt><trkpt lat="44.3346068" lon="7.8665657"><ele>514.6666666666666</ele><time>2026-05-03T11:51:26.757Z</time></trkpt><trkpt lat="44.3348028" lon="7.8666081"><ele>514.3333333333334</ele><time>2026-05-03T11:51:27.796Z</time></trkpt><trkpt lat="44.3350072" lon="7.8666564"><ele>514.0</ele><time>2026-05-03T11:51:28.772Z</time></trkpt><trkpt lat="44.3352176" lon="7.8667048"><ele>514.0</ele><time>2026-05-03T11:51:29.754Z</time></trkpt><trkpt lat="44.3354319" lon="7.8667563"><ele>514.0</ele><time>2026-05-03T11:51:30.769Z</time></trkpt><trkpt lat="44.3356492" lon="7.8668089"><ele>514.0</ele><time>2026-05-03T11:51:31.759Z</time></trkpt><trkpt lat="44.3358671" lon="7.8668605"><ele>513.3333333333334</ele><time>2026-05-03T11:51:32.756Z</time></trkpt><trkpt lat="44.3360859" lon="7.8669096"><ele>512.6666666666666</ele><time>2026-05-03T11:51:33.757Z</time></trkpt><trkpt lat="44.3363039" lon="7.8669574"><ele>512.0</ele><time>2026-05-03T11:51:34.755Z</time></trkpt><trkpt lat="44.3365242" lon="7.8669997"><ele>512.0</ele><time>2026-05-03T11:51:35.76Z</time></trkpt><trkpt lat="44.336746" lon="7.8670374"><ele>512.0</ele><time>2026-05-03T11:51:36.76Z</time></trkpt><trkpt lat="44.3369684" lon="7.8670674"><ele>512.0</ele><time>2026-05-03T11:51:37.758Z</time></trkpt><trkpt lat="44.3371917" lon="7.8670865"><ele>511.0</ele><time>2026-05-03T11:51:38.757Z</time></trkpt><trkpt lat="44.3374103" lon="7.8671"><ele>510.0</ele><time>2026-05-03T11:51:39.756Z</time></trkpt><trkpt lat="44.3376232" lon="7.867112"><ele>509.0</ele><time>2026-05-03T11:51:40.754Z</time></trkpt><trkpt lat="44.3378242" lon="7.8671244"><ele>509.0</ele><time>2026-05-03T11:51:41.76Z</time></trkpt><trkpt lat="44.3380145" lon="7.8671397"><ele>509.0</ele><time>2026-05-03T11:51:42.751Z</time></trkpt><trkpt lat="44.3381932" lon="7.8671655"><ele>509.0</ele><time>2026-05-03T11:51:43.761Z</time></trkpt><trkpt lat="44.3383602" lon="7.8672122"><ele>509.0</ele><time>2026-05-03T11:51:44.751Z</time></trkpt><trkpt lat="44.338516" lon="7.8672896"><ele>509.0</ele><time>2026-05-03T11:51:45.758Z</time></trkpt><trkpt lat="44.3386638" lon="7.8674018"><ele>509.0</ele><time>2026-05-03T11:51:46.755Z</time></trkpt><trkpt lat="44.3388022" lon="7.8675458"><ele>509.0</ele><time>2026-05-03T11:51:47.765Z</time></trkpt><trkpt lat="44.338939" lon="7.8677106"><ele>509.0</ele><time>2026-05-03T11:51:48.759Z</time></trkpt><trkpt lat="44.3390771" lon="7.8678866"><ele>509.0</ele><time>2026-05-03T11:51:49.778Z</time></trkpt><trkpt lat="44.3392166" lon="7.8680718"><ele>509.0</ele><time>2026-05-03T11:51:50.763Z</time></trkpt><trkpt lat="44.3393598" lon="7.8682568"><ele>509.0</ele><time>2026-05-03T11:51:51.759Z</time></trkpt><trkpt lat="44.3395032" lon="7.8684385"><ele>509.0</ele><time>2026-05-03T11:51:52.767Z</time></trkpt><trkpt lat="44.3396375" lon="7.8686128"><ele>510.3333333333333</ele><time>2026-05-03T11:51:53.759Z</time></trkpt><trkpt lat="44.3397665" lon="7.8687876"><ele>511.66666666666663</ele><time>2026-05-03T11:51:54.756Z</time></trkpt><trkpt lat="44.3398881" lon="7.8689762"><ele>513.0</ele><time>2026-05-03T11:51:55.759Z</time></trkpt><trkpt lat="44.3399958" lon="7.8691836"><ele>512.0</ele><time>2026-05-03T11:51:56.755Z</time></trkpt><trkpt lat="44.3400871" lon="7.8694106"><ele>511.0</ele><time>2026-05-03T11:51:57.76Z</time></trkpt><trkpt lat="44.3401631" lon="7.8696534"><ele>510.0</ele><time>2026-05-03T11:51:58.762Z</time></trkpt><trkpt lat="44.3402246" lon="7.8699089"><ele>509.0</ele><time>2026-05-03T11:51:59.755Z</time></trkpt><trkpt lat="44.3402735" lon="7.8701752"><ele>508.0</ele><time>2026-05-03T11:52:00.758Z</time></trkpt><trkpt lat="44.3403226" lon="7.8704451"><ele>507.0</ele><time>2026-05-03T11:52:01.762Z</time></trkpt><trkpt lat="44.3403853" lon="7.8707116"><ele>505.66666666666663</ele><time>2026-05-03T11:52:02.755Z</time></trkpt><trkpt lat="44.3404648" lon="7.8709747"><ele>504.3333333333333</ele><time>2026-05-03T11:52:03.76Z</time></trkpt><trkpt lat="44.3405517" lon="7.8712361"><ele>503.0</ele><time>2026-05-03T11:52:04.758Z</time></trkpt><trkpt lat="44.3406406" lon="7.8715017"><ele>502.66666666666663</ele><time>2026-05-03T11:52:05.767Z</time></trkpt><trkpt lat="44.3407299" lon="7.8717711"><ele>502.33333333333337</ele><time>2026-05-03T11:52:06.757Z</time></trkpt><trkpt lat="44.3408184" lon="7.8720436"><ele>502.0</ele><time>2026-05-03T11:52:07.763Z</time></trkpt><trkpt lat="44.3409099" lon="7.8723193"><ele>502.0</ele><time>2026-05-03T11:52:08.754Z</time></trkpt><trkpt lat="44.3410035" lon="7.8725976"><ele>502.0</ele><time>2026-05-03T11:52:09.759Z</time></trkpt><trkpt lat="44.341094" lon="7.8728663"><ele>502.0</ele><time>2026-05-03T11:52:10.76Z</time></trkpt><trkpt lat="44.3411788" lon="7.8731294"><ele>502.0</ele><time>2026-05-03T11:52:11.755Z</time></trkpt><trkpt lat="44.3412511" lon="7.8733955"><ele>502.0</ele><time>2026-05-03T11:52:12.761Z</time></trkpt><trkpt lat="44.341303" lon="7.8736707"><ele>502.0</ele><time>2026-05-03T11:52:13.763Z</time></trkpt><trkpt lat="44.3413353" lon="7.8739533"><ele>507.0</ele><time>2026-05-03T11:52:14.758Z</time></trkpt><trkpt lat="44.3413504" lon="7.8742371"><ele>512.0</ele><time>2026-05-03T11:52:15.763Z</time></trkpt><trkpt lat="44.3413524" lon="7.8745122"><ele>517.0</ele><time>2026-05-03T11:52:16.764Z</time></trkpt><trkpt lat="44.3413492" lon="7.874774"><ele>526.3333333333334</ele><time>2026-05-03T11:52:17.761Z</time></trkpt><trkpt lat="44.3413487" lon="7.8750262"><ele>535.6666666666666</ele><time>2026-05-03T11:52:18.755Z</time></trkpt><trkpt lat="44.3413538" lon="7.8752795"><ele>545.0</ele><time>2026-05-03T11:52:19.757Z</time></trkpt><trkpt lat="44.3413721" lon="7.8755353"><ele>531.6666666666666</ele><time>2026-05-03T11:52:20.759Z</time></trkpt><trkpt lat="44.3414126" lon="7.8757877"><ele>518.3333333333334</ele><time>2026-05-03T11:52:21.767Z</time></trkpt><trkpt lat="44.3414808" lon="7.8760311"><ele>505.0</ele><time>2026-05-03T11:52:22.76Z</time></trkpt><trkpt lat="44.3415753" lon="7.87626"><ele>505.0</ele><time>2026-05-03T11:52:23.758Z</time></trkpt><trkpt lat="44.3416945" lon="7.8764711"><ele>505.0</ele><time>2026-05-03T11:52:24.756Z</time></trkpt><trkpt lat="44.3418314" lon="7.8766665"><ele>505.0</ele><time>2026-05-03T11:52:25.761Z</time></trkpt><trkpt lat="44.3419788" lon="7.8768529"><ele>507.33333333333337</ele><time>2026-05-03T11:52:26.753Z</time></trkpt><trkpt lat="44.3421313" lon="7.8770381"><ele>509.66666666666663</ele><time>2026-05-03T11:52:27.76Z</time></trkpt><trkpt lat="44.3422847" lon="7.8772254"><ele>512.0</ele><time>2026-05-03T11:52:28.75Z</time></trkpt><trkpt lat="44.3424398" lon="7.8774165"><ele>507.66666666666663</ele><time>2026-05-03T11:52:29.755Z</time></trkpt><trkpt lat="44.3425972" lon="7.8776088"><ele>503.33333333333337</ele><time>2026-05-03T11:52:30.755Z</time></trkpt><trkpt lat="44.3427557" lon="7.877804"><ele>499.0</ele><time>2026-05-03T11:52:31.757Z</time></trkpt><trkpt lat="44.3429164" lon="7.8780018"><ele>497.6666666666667</ele><time>2026-05-03T11:52:32.753Z</time></trkpt><trkpt lat="44.3430799" lon="7.8782004"><ele>496.33333333333337</ele><time>2026-05-03T11:52:33.757Z</time></trkpt><trkpt lat="44.3432455" lon="7.8784008"><ele>495.0</ele><time>2026-05-03T11:52:34.758Z</time></trkpt><trkpt lat="44.343414" lon="7.8786014"><ele>495.0</ele><time>2026-05-03T11:52:35.752Z</time></trkpt><trkpt lat="44.3435808" lon="7.8787981"><ele>495.0</ele><time>2026-05-03T11:52:36.756Z</time></trkpt><trkpt lat="44.3437394" lon="7.878993"><ele>495.0</ele><time>2026-05-03T11:52:37.754Z</time></trkpt><trkpt lat="44.3438809" lon="7.8791991"><ele>494.33333333333337</ele><time>2026-05-03T11:52:38.755Z</time></trkpt><trkpt lat="44.3439919" lon="7.8794262"><ele>493.6666666666667</ele><time>2026-05-03T11:52:39.763Z</time></trkpt><trkpt lat="44.3440744" lon="7.8796759"><ele>493.0</ele><time>2026-05-03T11:52:40.758Z</time></trkpt><trkpt lat="44.3441469" lon="7.8799368"><ele>494.33333333333337</ele><time>2026-05-03T11:52:41.76Z</time></trkpt><trkpt lat="44.3442199" lon="7.8802016"><ele>495.66666666666663</ele><time>2026-05-03T11:52:42.758Z</time></trkpt><trkpt lat="44.3442954" lon="7.8804682"><ele>497.0</ele><time>2026-05-03T11:52:43.757Z</time></trkpt><trkpt lat="44.3443717" lon="7.8807379"><ele>504.0</ele><time>2026-05-03T11:52:44.757Z</time></trkpt><trkpt lat="44.344449" lon="7.8810097"><ele>511.0</ele><time>2026-05-03T11:52:45.761Z</time></trkpt><trkpt lat="44.3445251" lon="7.8812849"><ele>518.0</ele><time>2026-05-03T11:52:46.759Z</time></trkpt><trkpt lat="44.3446012" lon="7.8815628"><ele>510.3333333333333</ele><time>2026-05-03T11:52:47.755Z</time></trkpt><trkpt lat="44.3446764" lon="7.881839"><ele>502.66666666666663</ele><time>2026-05-03T11:52:48.751Z</time></trkpt><trkpt lat="44.3447403" lon="7.8821062"><ele>495.0</ele><time>2026-05-03T11:52:49.761Z</time></trkpt><trkpt lat="44.3447841" lon="7.8823713"><ele>495.0</ele><time>2026-05-03T11:52:50.755Z</time></trkpt><trkpt lat="44.3448042" lon="7.8826439"><ele>495.0</ele><time>2026-05-03T11:52:51.762Z</time></trkpt><trkpt lat="44.3448037" lon="7.8829209"><ele>495.0</ele><time>2026-05-03T11:52:52.756Z</time></trkpt><trkpt lat="44.3447876" lon="7.8832004"><ele>494.66666666666663</ele><time>2026-05-03T11:52:53.753Z</time></trkpt><trkpt lat="44.3447678" lon="7.8834811"><ele>494.3333333333333</ele><time>2026-05-03T11:52:54.754Z</time></trkpt><trkpt lat="44.3447495" lon="7.8837647"><ele>494.0</ele><time>2026-05-03T11:52:55.76Z</time></trkpt><trkpt lat="44.3447344" lon="7.8840489"><ele>493.0</ele><time>2026-05-03T11:52:56.756Z</time></trkpt><trkpt lat="44.3447251" lon="7.8843336"><ele>492.0</ele><time>2026-05-03T11:52:57.758Z</time></trkpt><trkpt lat="44.3447281" lon="7.884615"><ele>491.0</ele><time>2026-05-03T11:52:58.76Z</time></trkpt><trkpt lat="44.3447501" lon="7.8848855"><ele>493.66666666666663</ele><time>2026-05-03T11:52:59.759Z</time></trkpt><trkpt lat="44.3447947" lon="7.8851357"><ele>496.33333333333337</ele><time>2026-05-03T11:53:00.762Z</time></trkpt><trkpt lat="44.3448602" lon="7.8853676"><ele>499.0</ele><time>2026-05-03T11:53:01.76Z</time></trkpt><trkpt lat="44.3449416" lon="7.8855958"><ele>499.0</ele><time>2026-05-03T11:53:02.755Z</time></trkpt><trkpt lat="44.3450275" lon="7.8858219"><ele>499.0</ele><time>2026-05-03T11:53:03.759Z</time></trkpt><trkpt lat="44.3451118" lon="7.8860335"><ele>499.0</ele><time>2026-05-03T11:53:04.757Z</time></trkpt><trkpt lat="44.3451976" lon="7.8862257"><ele>498.6666666666667</ele><time>2026-05-03T11:53:05.755Z</time></trkpt><trkpt lat="44.3452927" lon="7.8863905"><ele>498.33333333333337</ele><time>2026-05-03T11:53:06.753Z</time></trkpt><trkpt lat="44.3455272" lon="7.8866385"><ele>498.0</ele><time>2026-05-03T11:53:08.767Z</time></trkpt><trkpt lat="44.3456641" lon="7.8867169"><ele>506.5</ele><time>2026-05-03T11:53:09.76Z</time></trkpt><trkpt lat="44.3458051" lon="7.8867745"><ele>515.0</ele><time>2026-05-03T11:53:10.752Z</time></trkpt><trkpt lat="44.3459438" lon="7.8868221"><ele>523.5</ele><time>2026-05-03T11:53:11.758Z</time></trkpt><trkpt lat="44.3460869" lon="7.886869"><ele>532.0</ele><time>2026-05-03T11:53:12.757Z</time></trkpt><trkpt lat="44.3462376" lon="7.886914"><ele>521.0</ele><time>2026-05-03T11:53:13.749Z</time></trkpt><trkpt lat="44.3463954" lon="7.8869586"><ele>510.0</ele><time>2026-05-03T11:53:14.756Z</time></trkpt><trkpt lat="44.3465581" lon="7.8870066"><ele>499.0</ele><time>2026-05-03T11:53:15.756Z</time></trkpt><trkpt lat="44.3467266" lon="7.8870566"><ele>499.0</ele><time>2026-05-03T11:53:16.764Z</time></trkpt><trkpt lat="44.3469007" lon="7.8871094"><ele>499.0</ele><time>2026-05-03T11:53:17.754Z</time></trkpt><trkpt lat="44.3470816" lon="7.8871609"><ele>499.0</ele><time>2026-05-03T11:53:18.763Z</time></trkpt><trkpt lat="44.3472661" lon="7.8872105"><ele>492.33333333333337</ele><time>2026-05-03T11:53:19.759Z</time></trkpt><trkpt lat="44.3474437" lon="7.8872599"><ele>485.66666666666663</ele><time>2026-05-03T11:53:20.752Z</time></trkpt><trkpt lat="44.3476112" lon="7.8873107"><ele>479.0</ele><time>2026-05-03T11:53:21.758Z</time></trkpt><trkpt lat="44.3477677" lon="7.8873641"><ele>479.0</ele><time>2026-05-03T11:53:22.755Z</time></trkpt><trkpt lat="44.3479077" lon="7.8874274"><ele>479.0</ele><time>2026-05-03T11:53:23.758Z</time></trkpt><trkpt lat="44.3480261" lon="7.8875127"><ele>479.0</ele><time>2026-05-03T11:53:24.754Z</time></trkpt><trkpt lat="44.3481256" lon="7.8876282"><ele>479.0</ele><time>2026-05-03T11:53:25.751Z</time></trkpt><trkpt lat="44.3482081" lon="7.8877731"><ele>478.5</ele><time>2026-05-03T11:53:26.756Z</time></trkpt><trkpt lat="44.3482704" lon="7.8879469"><ele>478.0</ele><time>2026-05-03T11:53:27.76Z</time></trkpt><trkpt lat="44.3483054" lon="7.8881428"><ele>477.5</ele><time>2026-05-03T11:53:28.76Z</time></trkpt><trkpt lat="44.3483233" lon="7.8883614"><ele>477.0</ele><time>2026-05-03T11:53:29.754Z</time></trkpt><trkpt lat="44.3483357" lon="7.8886043"><ele>477.0</ele><time>2026-05-03T11:53:30.767Z</time></trkpt><trkpt lat="44.34835" lon="7.8888652"><ele>477.0</ele><time>2026-05-03T11:53:31.753Z</time></trkpt><trkpt lat="44.3483671" lon="7.8891304"><ele>477.0</ele><time>2026-05-03T11:53:32.755Z</time></trkpt><trkpt lat="44.3483879" lon="7.8893984"><ele>476.66666666666663</ele><time>2026-05-03T11:53:33.759Z</time></trkpt><trkpt lat="44.3484075" lon="7.8896656"><ele>476.3333333333333</ele><time>2026-05-03T11:53:34.753Z</time></trkpt><trkpt lat="44.348425" lon="7.8899369"><ele>476.0</ele><time>2026-05-03T11:53:35.762Z</time></trkpt><trkpt lat="44.3484349" lon="7.8902141"><ele>475.0</ele><time>2026-05-03T11:53:36.763Z</time></trkpt><trkpt lat="44.3484364" lon="7.8904983"><ele>474.0</ele><time>2026-05-03T11:53:37.757Z</time></trkpt><trkpt lat="44.3484328" lon="7.8907802"><ele>473.0</ele><time>2026-05-03T11:53:38.759Z</time></trkpt><trkpt lat="44.3484253" lon="7.89105"><ele>472.3333333333333</ele><time>2026-05-03T11:53:39.76Z</time></trkpt><trkpt lat="44.3484145" lon="7.8913068"><ele>471.66666666666663</ele><time>2026-05-03T11:53:40.757Z</time></trkpt><trkpt lat="44.3483988" lon="7.8915411"><ele>471.0</ele><time>2026-05-03T11:53:41.757Z</time></trkpt><trkpt lat="44.348374" lon="7.8917505"><ele>470.75</ele><time>2026-05-03T11:53:42.76Z</time></trkpt><trkpt lat="44.3483349" lon="7.8919243"><ele>470.5</ele><time>2026-05-03T11:53:43.76Z</time></trkpt><trkpt lat="44.3482777" lon="7.8920749"><ele>470.25</ele><time>2026-05-03T11:53:44.757Z</time></trkpt><trkpt lat="44.3482004" lon="7.8922001"><ele>470.0</ele><time>2026-05-03T11:53:45.765Z</time></trkpt><trkpt lat="44.3481079" lon="7.8922969"><ele>472.25</ele><time>2026-05-03T11:53:46.764Z</time></trkpt><trkpt lat="44.348004" lon="7.8923693"><ele>474.5</ele><time>2026-05-03T11:53:47.76Z</time></trkpt><trkpt lat="44.3478953" lon="7.8924215"><ele>476.75</ele><time>2026-05-03T11:53:48.762Z</time></trkpt><trkpt lat="44.3477855" lon="7.892459"><ele>479.0</ele><time>2026-05-03T11:53:49.758Z</time></trkpt><trkpt lat="44.3476699" lon="7.892481"><ele>479.0</ele><time>2026-05-03T11:53:50.765Z</time></trkpt><trkpt lat="44.3475467" lon="7.8924807"><ele>479.0</ele><time>2026-05-03T11:53:51.767Z</time></trkpt><trkpt lat="44.3474212" lon="7.8924603"><ele>479.0</ele><time>2026-05-03T11:53:52.76Z</time></trkpt><trkpt lat="44.3473031" lon="7.8924334"><ele>479.0</ele><time>2026-05-03T11:53:53.757Z</time></trkpt><trkpt lat="44.3471975" lon="7.8924186"><ele>479.16666666666663</ele><time>2026-05-03T11:53:54.756Z</time></trkpt><trkpt lat="44.3471098" lon="7.8924281"><ele>479.3333333333333</ele><time>2026-05-03T11:53:55.756Z</time></trkpt><trkpt lat="44.3470356" lon="7.8924648"><ele>479.5</ele><time>2026-05-03T11:53:56.76Z</time></trkpt><trkpt lat="44.3469737" lon="7.8925259"><ele>479.66666666666663</ele><time>2026-05-03T11:53:57.758Z</time></trkpt><trkpt lat="44.3469217" lon="7.8926012"><ele>479.8333333333333</ele><time>2026-05-03T11:53:58.774Z</time></trkpt><trkpt lat="44.3468735" lon="7.8926811"><ele>480.0</ele><time>2026-05-03T11:53:59.757Z</time></trkpt><trkpt lat="44.3468294" lon="7.8927577"><ele>480.0</ele><time>2026-05-03T11:54:00.76Z</time></trkpt><trkpt lat="44.3467631" lon="7.892875"><ele>480.0</ele><time>2026-05-03T11:54:02.759Z</time></trkpt><trkpt lat="44.3467138" lon="7.8930125"><ele>480.0</ele><time>2026-05-03T11:54:36.758Z</time></trkpt><trkpt lat="44.3467243" lon="7.8931569"><ele>480.0</ele><time>2026-05-03T11:54:38.778Z</time></trkpt><trkpt lat="44.3467633" lon="7.8932675"><ele>480.0</ele><time>2026-05-03T11:54:39.762Z</time></trkpt><trkpt lat="44.3468161" lon="7.8933975"><ele>481.5</ele><time>2026-05-03T11:54:40.76Z</time></trkpt><trkpt lat="44.3468711" lon="7.8935455"><ele>483.0</ele><time>2026-05-03T11:54:41.762Z</time></trkpt><trkpt lat="44.3469299" lon="7.8937097"><ele>484.5</ele><time>2026-05-03T11:54:42.757Z</time></trkpt><trkpt lat="44.3469936" lon="7.8938776"><ele>486.0</ele><time>2026-05-03T11:54:43.756Z</time></trkpt><trkpt lat="44.3470648" lon="7.8940461"><ele>486.0</ele><time>2026-05-03T11:54:44.766Z</time></trkpt><trkpt lat="44.347134" lon="7.8942127"><ele>486.0</ele><time>2026-05-03T11:54:45.761Z</time></trkpt><trkpt lat="44.3472004" lon="7.8943816"><ele>486.0</ele><time>2026-05-03T11:54:46.759Z</time></trkpt><trkpt lat="44.3472634" lon="7.894556"><ele>486.0</ele><time>2026-05-03T11:54:47.755Z</time></trkpt><trkpt lat="44.3473246" lon="7.8947318"><ele>483.25</ele><time>2026-05-03T11:54:48.754Z</time></trkpt><trkpt lat="44.3473818" lon="7.8949009"><ele>480.5</ele><time>2026-05-03T11:54:49.759Z</time></trkpt><trkpt lat="44.3474286" lon="7.895064"><ele>477.75</ele><time>2026-05-03T11:54:50.77Z</time></trkpt><trkpt lat="44.3474712" lon="7.8952175"><ele>475.0</ele><time>2026-05-03T11:54:51.761Z</time></trkpt><trkpt lat="44.3475108" lon="7.8953651"><ele>475.0</ele><time>2026-05-03T11:54:52.755Z</time></trkpt><trkpt lat="44.3475507" lon="7.895517"><ele>475.0</ele><time>2026-05-03T11:54:53.759Z</time></trkpt><trkpt lat="44.3475897" lon="7.8956701"><ele>475.0</ele><time>2026-05-03T11:54:54.762Z</time></trkpt><trkpt lat="44.3476278" lon="7.8958203"><ele>475.0</ele><time>2026-05-03T11:54:55.756Z</time></trkpt><trkpt lat="44.3476668" lon="7.8959687"><ele>476.0</ele><time>2026-05-03T11:54:56.759Z</time></trkpt><trkpt lat="44.3477071" lon="7.8961171"><ele>477.0</ele><time>2026-05-03T11:54:57.758Z</time></trkpt><trkpt lat="44.3477463" lon="7.8962682"><ele>478.0</ele><time>2026-05-03T11:54:58.758Z</time></trkpt><trkpt lat="44.3477854" lon="7.8964202"><ele>479.0</ele><time>2026-05-03T11:54:59.759Z</time></trkpt><trkpt lat="44.3478235" lon="7.896572"><ele>479.0</ele><time>2026-05-03T11:55:00.76Z</time></trkpt><trkpt lat="44.3478651" lon="7.8967246"><ele>479.0</ele><time>2026-05-03T11:55:01.759Z</time></trkpt><trkpt lat="44.3479121" lon="7.8968908"><ele>479.0</ele><time>2026-05-03T11:55:02.758Z</time></trkpt><trkpt lat="44.3479649" lon="7.8970727"><ele>479.0</ele><time>2026-05-03T11:55:03.758Z</time></trkpt><trkpt lat="44.3480213" lon="7.8972746"><ele>476.66666666666663</ele><time>2026-05-03T11:55:04.762Z</time></trkpt><trkpt lat="44.3480775" lon="7.8974893"><ele>474.33333333333337</ele><time>2026-05-03T11:55:05.757Z</time></trkpt><trkpt lat="44.3481304" lon="7.8977029"><ele>472.0</ele><time>2026-05-03T11:55:06.757Z</time></trkpt><trkpt lat="44.3481802" lon="7.8979024"><ele>472.0</ele><time>2026-05-03T11:55:07.761Z</time></trkpt><trkpt lat="44.3482241" lon="7.8980928"><ele>472.0</ele><time>2026-05-03T11:55:08.764Z</time></trkpt><trkpt lat="44.3482637" lon="7.8982707"><ele>472.0</ele><time>2026-05-03T11:55:09.754Z</time></trkpt><trkpt lat="44.3483049" lon="7.8984391"><ele>472.0</ele><time>2026-05-03T11:55:10.76Z</time></trkpt><trkpt lat="44.3483479" lon="7.8985991"><ele>472.25</ele><time>2026-05-03T11:55:11.76Z</time></trkpt><trkpt lat="44.3483897" lon="7.8987523"><ele>472.5</ele><time>2026-05-03T11:55:12.759Z</time></trkpt><trkpt lat="44.3484318" lon="7.8989033"><ele>472.75</ele><time>2026-05-03T11:55:13.758Z</time></trkpt><trkpt lat="44.3484721" lon="7.8990496"><ele>473.0</ele><time>2026-05-03T11:55:14.763Z</time></trkpt><trkpt lat="44.348508" lon="7.8991895"><ele>474.16666666666663</ele><time>2026-05-03T11:55:15.754Z</time></trkpt><trkpt lat="44.3485412" lon="7.8993229"><ele>475.3333333333333</ele><time>2026-05-03T11:55:16.76Z</time></trkpt><trkpt lat="44.3485679" lon="7.8994472"><ele>476.5</ele><time>2026-05-03T11:55:17.759Z</time></trkpt><trkpt lat="44.3485869" lon="7.899557"><ele>477.66666666666663</ele><time>2026-05-03T11:55:18.757Z</time></trkpt><trkpt lat="44.3486097" lon="7.8996486"><ele>478.8333333333333</ele><time>2026-05-03T11:55:19.761Z</time></trkpt><trkpt lat="44.3486518" lon="7.8997169"><ele>480.0</ele><time>2026-05-03T11:55:20.761Z</time></trkpt><trkpt lat="44.3487188" lon="7.8997579"><ele>480.0</ele><time>2026-05-03T11:55:21.762Z</time></trkpt><trkpt lat="44.3488075" lon="7.8997761"><ele>480.0</ele><time>2026-05-03T11:55:22.755Z</time></trkpt><trkpt lat="44.3489144" lon="7.8997972"><ele>480.0</ele><time>2026-05-03T11:55:23.756Z</time></trkpt><trkpt lat="44.3490315" lon="7.8998338"><ele>480.0</ele><time>2026-05-03T11:55:24.751Z</time></trkpt><trkpt lat="44.3491521" lon="7.8998828"><ele>480.0</ele><time>2026-05-03T11:55:25.754Z</time></trkpt><trkpt lat="44.3492717" lon="7.8999401"><ele>478.0</ele><time>2026-05-03T11:55:26.756Z</time></trkpt><trkpt lat="44.3493817" lon="7.8999996"><ele>476.0</ele><time>2026-05-03T11:55:27.763Z</time></trkpt><trkpt lat="44.3494839" lon="7.9000656"><ele>474.0</ele><time>2026-05-03T11:55:28.758Z</time></trkpt><trkpt lat="44.3495826" lon="7.9001286"><ele>472.0</ele><time>2026-05-03T11:55:29.755Z</time></trkpt><trkpt lat="44.3496836" lon="7.900182"><ele>470.0</ele><time>2026-05-03T11:55:30.761Z</time></trkpt><trkpt lat="44.3497798" lon="7.9002308"><ele>469.0</ele><time>2026-05-03T11:55:31.755Z</time></trkpt><trkpt lat="44.3498713" lon="7.9002497"><ele>468.0</ele><time>2026-05-03T11:55:32.756Z</time></trkpt><trkpt lat="44.3499398" lon="7.9002107"><ele>467.0</ele><time>2026-05-03T11:55:33.748Z</time></trkpt><trkpt lat="44.3500191" lon="7.900146"><ele>466.0</ele><time>2026-05-03T11:55:34.752Z</time></trkpt><trkpt lat="44.3501028" lon="7.9000841"><ele>465.0</ele><time>2026-05-03T11:55:35.752Z</time></trkpt><trkpt lat="44.3501892" lon="7.9000231"><ele>465.0</ele><time>2026-05-03T11:55:36.758Z</time></trkpt><trkpt lat="44.350309" lon="7.9000131"><ele>465.0</ele><time>2026-05-03T11:55:37.755Z</time></trkpt><trkpt lat="44.3504629" lon="7.8999985"><ele>465.0</ele><time>2026-05-03T11:55:38.76Z</time></trkpt><trkpt lat="44.3506029" lon="7.8999869"><ele>465.0</ele><time>2026-05-03T11:55:39.76Z</time></trkpt><trkpt lat="44.350754" lon="7.8999731"><ele>465.75</ele><time>2026-05-03T11:55:40.759Z</time></trkpt><trkpt lat="44.3509003" lon="7.8999611"><ele>466.5</ele><time>2026-05-03T11:55:41.761Z</time></trkpt><trkpt lat="44.3510476" lon="7.8999479"><ele>467.25</ele><time>2026-05-03T11:55:42.758Z</time></trkpt><trkpt lat="44.3511904" lon="7.8999359"><ele>468.0</ele><time>2026-05-03T11:55:43.759Z</time></trkpt><trkpt lat="44.3513295" lon="7.8999171"><ele>468.5</ele><time>2026-05-03T11:55:44.76Z</time></trkpt><trkpt lat="44.3514596" lon="7.8999051"><ele>469.0</ele><time>2026-05-03T11:55:45.76Z</time></trkpt><trkpt lat="44.3515822" lon="7.8998916"><ele>469.5</ele><time>2026-05-03T11:55:46.755Z</time></trkpt><trkpt lat="44.3517038" lon="7.8998853"><ele>470.0</ele><time>2026-05-03T11:55:47.759Z</time></trkpt><trkpt lat="44.35183" lon="7.8998719"><ele>470.0</ele><time>2026-05-03T11:55:48.757Z</time></trkpt><trkpt lat="44.3519553" lon="7.8998515"><ele>470.0</ele><time>2026-05-03T11:55:49.756Z</time></trkpt><trkpt lat="44.3520743" lon="7.8998173"><ele>470.0</ele><time>2026-05-03T11:55:50.757Z</time></trkpt><trkpt lat="44.3521856" lon="7.8997774"><ele>470.0</ele><time>2026-05-03T11:55:51.751Z</time></trkpt><trkpt lat="44.3522895" lon="7.899764"><ele>468.75</ele><time>2026-05-03T11:55:52.76Z</time></trkpt><trkpt lat="44.3523977" lon="7.8997601"><ele>467.5</ele><time>2026-05-03T11:55:53.758Z</time></trkpt><trkpt lat="44.3525178" lon="7.8997787"><ele>466.25</ele><time>2026-05-03T11:55:54.759Z</time></trkpt><trkpt lat="44.3526559" lon="7.8997872"><ele>465.0</ele><time>2026-05-03T11:55:55.757Z</time></trkpt><trkpt lat="44.3528038" lon="7.8998097"><ele>465.0</ele><time>2026-05-03T11:55:56.752Z</time></trkpt><trkpt lat="44.3529587" lon="7.8998326"><ele>465.0</ele><time>2026-05-03T11:55:57.76Z</time></trkpt><trkpt lat="44.3531157" lon="7.8998464"><ele>465.0</ele><time>2026-05-03T11:55:58.759Z</time></trkpt><trkpt lat="44.3532688" lon="7.8998577"><ele>464.0</ele><time>2026-05-03T11:55:59.754Z</time></trkpt><trkpt lat="44.3534245" lon="7.8998805"><ele>463.0</ele><time>2026-05-03T11:56:00.754Z</time></trkpt><trkpt lat="44.3535823" lon="7.8998967"><ele>462.0</ele><time>2026-05-03T11:56:01.757Z</time></trkpt><trkpt lat="44.3537335" lon="7.8999107"><ele>461.33333333333337</ele><time>2026-05-03T11:56:02.754Z</time></trkpt><trkpt lat="44.3538879" lon="7.8999312"><ele>460.6666666666667</ele><time>2026-05-03T11:56:03.758Z</time></trkpt><trkpt lat="44.354037" lon="7.8999464"><ele>460.0</ele><time>2026-05-03T11:56:04.777Z</time></trkpt><trkpt lat="44.3541893" lon="7.8999653"><ele>460.0</ele><time>2026-05-03T11:56:05.76Z</time></trkpt><trkpt lat="44.3543351" lon="7.8999993"><ele>460.0</ele><time>2026-05-03T11:56:06.75Z</time></trkpt><trkpt lat="44.3544703" lon="7.9000175"><ele>460.0</ele><time>2026-05-03T11:56:07.755Z</time></trkpt><trkpt lat="44.354588" lon="7.9000239"><ele>460.0</ele><time>2026-05-03T11:56:08.755Z</time></trkpt><trkpt lat="44.3546932" lon="7.8999903"><ele>459.4</ele><time>2026-05-03T11:56:09.754Z</time></trkpt><trkpt lat="44.3547916" lon="7.8999155"><ele>458.8</ele><time>2026-05-03T11:56:10.754Z</time></trkpt><trkpt lat="44.3548807" lon="7.8998075"><ele>458.20000000000005</ele><time>2026-05-03T11:56:11.76Z</time></trkpt><trkpt lat="44.3549486" lon="7.8996814"><ele>457.6</ele><time>2026-05-03T11:56:12.758Z</time></trkpt><trkpt lat="44.3550068" lon="7.8995684"><ele>457.0</ele><time>2026-05-03T11:56:13.761Z</time></trkpt><trkpt lat="44.3550743" lon="7.8994845"><ele>457.0</ele><time>2026-05-03T11:56:14.752Z</time></trkpt><trkpt lat="44.3551472" lon="7.8994249"><ele>457.00000000000006</ele><time>2026-05-03T11:56:15.759Z</time></trkpt><trkpt lat="44.35524" lon="7.8994085"><ele>457.00000000000006</ele><time>2026-05-03T11:56:16.758Z</time></trkpt><trkpt lat="44.3553512" lon="7.8994286"><ele>457.0</ele><time>2026-05-03T11:56:17.764Z</time></trkpt><trkpt lat="44.3554777" lon="7.8994714"><ele>457.0</ele><time>2026-05-03T11:56:18.764Z</time></trkpt><trkpt lat="44.3556187" lon="7.8995272"><ele>456.0</ele><time>2026-05-03T11:56:19.758Z</time></trkpt><trkpt lat="44.3557644" lon="7.8995829"><ele>455.0</ele><time>2026-05-03T11:56:20.756Z</time></trkpt><trkpt lat="44.355911" lon="7.8996369"><ele>454.0</ele><time>2026-05-03T11:56:21.758Z</time></trkpt><trkpt lat="44.3560618" lon="7.8996888"><ele>454.0</ele><time>2026-05-03T11:56:22.756Z</time></trkpt><trkpt lat="44.3562161" lon="7.899741"><ele>454.0</ele><time>2026-05-03T11:56:23.764Z</time></trkpt><trkpt lat="44.3563736" lon="7.8998046"><ele>454.0</ele><time>2026-05-03T11:56:24.758Z</time></trkpt><trkpt lat="44.3565384" lon="7.8998716"><ele>454.0</ele><time>2026-05-03T11:56:25.757Z</time></trkpt><trkpt lat="44.3567058" lon="7.8999401"><ele>454.0</ele><time>2026-05-03T11:56:26.757Z</time></trkpt><trkpt lat="44.3568714" lon="7.9000113"><ele>454.0</ele><time>2026-05-03T11:56:27.773Z</time></trkpt><trkpt lat="44.3570329" lon="7.9000968"><ele>453.33333333333337</ele><time>2026-05-03T11:56:28.756Z</time></trkpt><trkpt lat="44.3571863" lon="7.9001986"><ele>452.66666666666663</ele><time>2026-05-03T11:56:29.759Z</time></trkpt><trkpt lat="44.3573338" lon="7.9003191"><ele>452.0</ele><time>2026-05-03T11:56:30.757Z</time></trkpt><trkpt lat="44.3574806" lon="7.900443"><ele>452.0</ele><time>2026-05-03T11:56:31.757Z</time></trkpt><trkpt lat="44.3576243" lon="7.9005694"><ele>452.0</ele><time>2026-05-03T11:56:32.755Z</time></trkpt><trkpt lat="44.3577694" lon="7.9006847"><ele>452.0</ele><time>2026-05-03T11:56:33.756Z</time></trkpt><trkpt lat="44.3579135" lon="7.9008012"><ele>450.3333333333333</ele><time>2026-05-03T11:56:34.755Z</time></trkpt><trkpt lat="44.3580502" lon="7.9009229"><ele>448.66666666666663</ele><time>2026-05-03T11:56:35.758Z</time></trkpt><trkpt lat="44.3581774" lon="7.901037"><ele>447.0</ele><time>2026-05-03T11:56:36.756Z</time></trkpt><trkpt lat="44.3582982" lon="7.901147"><ele>447.0</ele><time>2026-05-03T11:56:37.758Z</time></trkpt><trkpt lat="44.3584139" lon="7.9012463"><ele>447.0</ele><time>2026-05-03T11:56:38.752Z</time></trkpt><trkpt lat="44.3585289" lon="7.9013398"><ele>447.0</ele><time>2026-05-03T11:56:39.76Z</time></trkpt><trkpt lat="44.3586538" lon="7.9014277"><ele>447.0</ele><time>2026-05-03T11:56:40.76Z</time></trkpt><trkpt lat="44.3587856" lon="7.9015069"><ele>447.66666666666663</ele><time>2026-05-03T11:56:41.762Z</time></trkpt><trkpt lat="44.3589295" lon="7.9015675"><ele>448.3333333333333</ele><time>2026-05-03T11:56:42.756Z</time></trkpt><trkpt lat="44.3590808" lon="7.9016091"><ele>449.0</ele><time>2026-05-03T11:56:43.758Z</time></trkpt><trkpt lat="44.359234" lon="7.9016299"><ele>449.0</ele><time>2026-05-03T11:56:44.761Z</time></trkpt><trkpt lat="44.3593799" lon="7.9016381"><ele>449.0</ele><time>2026-05-03T11:56:45.762Z</time></trkpt><trkpt lat="44.3595247" lon="7.9016417"><ele>449.0</ele><time>2026-05-03T11:56:46.761Z</time></trkpt><trkpt lat="44.3596737" lon="7.901646"><ele>449.0</ele><time>2026-05-03T11:56:47.76Z</time></trkpt><trkpt lat="44.3598273" lon="7.9016526"><ele>449.3333333333333</ele><time>2026-05-03T11:56:48.78Z</time></trkpt><trkpt lat="44.3599814" lon="7.9016584"><ele>449.66666666666663</ele><time>2026-05-03T11:56:49.762Z</time></trkpt><trkpt lat="44.3601367" lon="7.9016621"><ele>450.0</ele><time>2026-05-03T11:56:50.761Z</time></trkpt><trkpt lat="44.3602897" lon="7.9016658"><ele>450.0</ele><time>2026-05-03T11:56:51.755Z</time></trkpt><trkpt lat="44.3604389" lon="7.9016696"><ele>450.0</ele><time>2026-05-03T11:56:52.758Z</time></trkpt><trkpt lat="44.3605927" lon="7.9016741"><ele>450.0</ele><time>2026-05-03T11:56:53.756Z</time></trkpt><trkpt lat="44.3607466" lon="7.9016793"><ele>450.0</ele><time>2026-05-03T11:56:54.754Z</time></trkpt><trkpt lat="44.3608994" lon="7.9016837"><ele>450.0</ele><time>2026-05-03T11:56:55.757Z</time></trkpt><trkpt lat="44.361053" lon="7.901685"><ele>450.0</ele><time>2026-05-03T11:56:56.764Z</time></trkpt><trkpt lat="44.3612082" lon="7.9016927"><ele>449.66666666666663</ele><time>2026-05-03T11:56:57.757Z</time></trkpt><trkpt lat="44.3613663" lon="7.9016978"><ele>449.3333333333333</ele><time>2026-05-03T11:56:58.758Z</time></trkpt><trkpt lat="44.3615286" lon="7.9017001"><ele>449.0</ele><time>2026-05-03T11:56:59.758Z</time></trkpt><trkpt lat="44.3616931" lon="7.9017046"><ele>449.0</ele><time>2026-05-03T11:57:00.757Z</time></trkpt><trkpt lat="44.361858" lon="7.9017087"><ele>449.0</ele><time>2026-05-03T11:57:01.763Z</time></trkpt><trkpt lat="44.3620214" lon="7.9017127"><ele>449.0</ele><time>2026-05-03T11:57:02.761Z</time></trkpt><trkpt lat="44.3621825" lon="7.9017189"><ele>450.66666666666663</ele><time>2026-05-03T11:57:03.761Z</time></trkpt><trkpt lat="44.3623468" lon="7.9017272"><ele>452.33333333333337</ele><time>2026-05-03T11:57:04.76Z</time></trkpt><trkpt lat="44.3625158" lon="7.9017335"><ele>454.0</ele><time>2026-05-03T11:57:05.758Z</time></trkpt><trkpt lat="44.3626883" lon="7.901736"><ele>454.0</ele><time>2026-05-03T11:57:06.759Z</time></trkpt><trkpt lat="44.3628614" lon="7.9017391"><ele>454.0</ele><time>2026-05-03T11:57:07.756Z</time></trkpt><trkpt lat="44.36303" lon="7.9017441"><ele>454.0</ele><time>2026-05-03T11:57:08.754Z</time></trkpt><trkpt lat="44.3631943" lon="7.9017498"><ele>453.6666666666667</ele><time>2026-05-03T11:57:09.756Z</time></trkpt><trkpt lat="44.3633581" lon="7.9017562"><ele>453.33333333333337</ele><time>2026-05-03T11:57:10.767Z</time></trkpt><trkpt lat="44.3635224" lon="7.9017627"><ele>453.0</ele><time>2026-05-03T11:57:11.757Z</time></trkpt><trkpt lat="44.3636868" lon="7.9017688"><ele>453.0</ele><time>2026-05-03T11:57:12.758Z</time></trkpt><trkpt lat="44.3638522" lon="7.9017739"><ele>453.0</ele><time>2026-05-03T11:57:13.759Z</time></trkpt><trkpt lat="44.3640192" lon="7.9017797"><ele>453.0</ele><time>2026-05-03T11:57:14.762Z</time></trkpt><trkpt lat="44.3641829" lon="7.901786"><ele>452.66666666666663</ele><time>2026-05-03T11:57:15.76Z</time></trkpt><trkpt lat="44.3643431" lon="7.9017913"><ele>452.3333333333333</ele><time>2026-05-03T11:57:16.759Z</time></trkpt><trkpt lat="44.3645014" lon="7.901795"><ele>452.0</ele><time>2026-05-03T11:57:17.758Z</time></trkpt><trkpt lat="44.3646584" lon="7.9018004"><ele>451.66666666666663</ele><time>2026-05-03T11:57:18.752Z</time></trkpt><trkpt lat="44.3648132" lon="7.9018066"><ele>451.33333333333337</ele><time>2026-05-03T11:57:19.755Z</time></trkpt><trkpt lat="44.3649668" lon="7.9018096"><ele>451.0</ele><time>2026-05-03T11:57:20.758Z</time></trkpt><trkpt lat="44.3651212" lon="7.9018052"><ele>451.0</ele><time>2026-05-03T11:57:21.76Z</time></trkpt><trkpt lat="44.3652767" lon="7.9017884"><ele>451.0</ele><time>2026-05-03T11:57:22.766Z</time></trkpt><trkpt lat="44.3654323" lon="7.9017522"><ele>451.0</ele><time>2026-05-03T11:57:23.752Z</time></trkpt><trkpt lat="44.3655895" lon="7.9016999"><ele>453.6666666666667</ele><time>2026-05-03T11:57:24.76Z</time></trkpt><trkpt lat="44.3657464" lon="7.9016392"><ele>456.33333333333337</ele><time>2026-05-03T11:57:25.78Z</time></trkpt><trkpt lat="44.3659014" lon="7.9015764"><ele>459.0</ele><time>2026-05-03T11:57:26.758Z</time></trkpt><trkpt lat="44.3660554" lon="7.9015125"><ele>459.0</ele><time>2026-05-03T11:57:27.761Z</time></trkpt><trkpt lat="44.3662088" lon="7.9014458"><ele>459.0</ele><time>2026-05-03T11:57:28.759Z</time></trkpt><trkpt lat="44.366357" lon="7.9013813"><ele>459.0</ele><time>2026-05-03T11:57:29.765Z</time></trkpt><trkpt lat="44.3664972" lon="7.9013236"><ele>458.5</ele><time>2026-05-03T11:57:30.758Z</time></trkpt><trkpt lat="44.3666291" lon="7.901271"><ele>458.0</ele><time>2026-05-03T11:57:31.754Z</time></trkpt><trkpt lat="44.3667539" lon="7.9012208"><ele>457.5</ele><time>2026-05-03T11:57:32.764Z</time></trkpt><trkpt lat="44.3668727" lon="7.9011772"><ele>457.0</ele><time>2026-05-03T11:57:33.755Z</time></trkpt><trkpt lat="44.3669887" lon="7.901143"><ele>457.0</ele><time>2026-05-03T11:57:34.759Z</time></trkpt><trkpt lat="44.3671051" lon="7.9011166"><ele>457.0</ele><time>2026-05-03T11:57:35.755Z</time></trkpt><trkpt lat="44.3672208" lon="7.9010986"><ele>457.0</ele><time>2026-05-03T11:57:36.762Z</time></trkpt><trkpt lat="44.3673375" lon="7.9010892"><ele>457.0</ele><time>2026-05-03T11:57:37.761Z</time></trkpt><trkpt lat="44.3674509" lon="7.9010904"><ele>457.40000000000003</ele><time>2026-05-03T11:57:38.762Z</time></trkpt><trkpt lat="44.3675578" lon="7.9010954"><ele>457.80000000000007</ele><time>2026-05-03T11:57:39.759Z</time></trkpt><trkpt lat="44.3676617" lon="7.9010911"><ele>458.2</ele><time>2026-05-03T11:57:40.759Z</time></trkpt><trkpt lat="44.3677667" lon="7.9010597"><ele>458.6</ele><time>2026-05-03T11:57:41.755Z</time></trkpt><trkpt lat="44.3678679" lon="7.900998"><ele>459.0</ele><time>2026-05-03T11:57:42.755Z</time></trkpt><trkpt lat="44.3679656" lon="7.9009217"><ele>458.5</ele><time>2026-05-03T11:57:43.76Z</time></trkpt><trkpt lat="44.3680764" lon="7.9008462"><ele>458.0</ele><time>2026-05-03T11:57:44.757Z</time></trkpt><trkpt lat="44.3682056" lon="7.9007894"><ele>457.5</ele><time>2026-05-03T11:57:45.752Z</time></trkpt><trkpt lat="44.3683484" lon="7.9007577"><ele>457.0</ele><time>2026-05-03T11:57:46.751Z</time></trkpt><trkpt lat="44.368497" lon="7.9007381"><ele>457.0</ele><time>2026-05-03T11:57:47.754Z</time></trkpt><trkpt lat="44.3686514" lon="7.9007182"><ele>457.0</ele><time>2026-05-03T11:57:48.759Z</time></trkpt><trkpt lat="44.3688111" lon="7.9006948"><ele>457.0</ele><time>2026-05-03T11:57:49.754Z</time></trkpt><trkpt lat="44.3689765" lon="7.9006679"><ele>456.33333333333337</ele><time>2026-05-03T11:57:50.753Z</time></trkpt><trkpt lat="44.3691483" lon="7.90064"><ele>455.66666666666663</ele><time>2026-05-03T11:57:51.758Z</time></trkpt><trkpt lat="44.3693233" lon="7.9006119"><ele>455.0</ele><time>2026-05-03T11:57:52.754Z</time></trkpt><trkpt lat="44.3694985" lon="7.900584"><ele>455.0</ele><time>2026-05-03T11:57:53.77Z</time></trkpt><trkpt lat="44.3696698" lon="7.9005586"><ele>455.0</ele><time>2026-05-03T11:57:54.756Z</time></trkpt><trkpt lat="44.3698402" lon="7.9005338"><ele>455.0</ele><time>2026-05-03T11:57:55.752Z</time></trkpt><trkpt lat="44.3700151" lon="7.900507"><ele>455.3333333333333</ele><time>2026-05-03T11:57:56.76Z</time></trkpt><trkpt lat="44.3701927" lon="7.9004725"><ele>455.66666666666663</ele><time>2026-05-03T11:57:57.759Z</time></trkpt><trkpt lat="44.370372" lon="7.9004242"><ele>456.0</ele><time>2026-05-03T11:57:58.758Z</time></trkpt><trkpt lat="44.3705498" lon="7.9003522"><ele>456.0</ele><time>2026-05-03T11:57:59.756Z</time></trkpt><trkpt lat="44.3707212" lon="7.9002496"><ele>456.0</ele><time>2026-05-03T11:58:00.757Z</time></trkpt><trkpt lat="44.3708854" lon="7.9001211"><ele>456.0</ele><time>2026-05-03T11:58:01.766Z</time></trkpt><trkpt lat="44.3710407" lon="7.8999711"><ele>455.33333333333337</ele><time>2026-05-03T11:58:02.753Z</time></trkpt><trkpt lat="44.3711872" lon="7.8998035"><ele>454.6666666666667</ele><time>2026-05-03T11:58:03.76Z</time></trkpt><trkpt lat="44.3713234" lon="7.899618"><ele>454.0</ele><time>2026-05-03T11:58:04.755Z</time></trkpt><trkpt lat="44.3714473" lon="7.8994137"><ele>457.0</ele><time>2026-05-03T11:58:05.755Z</time></trkpt><trkpt lat="44.3715602" lon="7.8991969"><ele>460.0</ele><time>2026-05-03T11:58:06.747Z</time></trkpt><trkpt lat="44.3716641" lon="7.8989838"><ele>463.0</ele><time>2026-05-03T11:58:07.754Z</time></trkpt><trkpt lat="44.3717545" lon="7.8987926"><ele>463.0</ele><time>2026-05-03T11:58:08.752Z</time></trkpt><trkpt lat="44.3718348" lon="7.8986211"><ele>463.0</ele><time>2026-05-03T11:58:09.755Z</time></trkpt><trkpt lat="44.3719095" lon="7.8984608"><ele>463.0</ele><time>2026-05-03T11:58:10.755Z</time></trkpt><trkpt lat="44.3719805" lon="7.8983038"><ele>463.0</ele><time>2026-05-03T11:58:11.756Z</time></trkpt><trkpt lat="44.3720453" lon="7.8981505"><ele>463.5</ele><time>2026-05-03T11:58:12.755Z</time></trkpt><trkpt lat="44.3721023" lon="7.8980014"><ele>464.0</ele><time>2026-05-03T11:58:13.759Z</time></trkpt><trkpt lat="44.3721501" lon="7.8978534"><ele>464.5</ele><time>2026-05-03T11:58:14.758Z</time></trkpt><trkpt lat="44.3721899" lon="7.8977038"><ele>465.0</ele><time>2026-05-03T11:58:15.762Z</time></trkpt><trkpt lat="44.3722218" lon="7.8975481"><ele>465.0</ele><time>2026-05-03T11:58:16.756Z</time></trkpt><trkpt lat="44.372249" lon="7.8973877"><ele>465.0</ele><time>2026-05-03T11:58:17.758Z</time></trkpt><trkpt lat="44.3722731" lon="7.8972313"><ele>465.0</ele><time>2026-05-03T11:58:18.754Z</time></trkpt><trkpt lat="44.3722937" lon="7.8970899"><ele>465.0</ele><time>2026-05-03T11:58:19.755Z</time></trkpt><trkpt lat="44.3723101" lon="7.8969671"><ele>465.0</ele><time>2026-05-03T11:58:20.755Z</time></trkpt><trkpt lat="44.3723229" lon="7.8968574"><ele>465.0</ele><time>2026-05-03T11:58:21.757Z</time></trkpt><trkpt lat="44.3723337" lon="7.8967547"><ele>465.0</ele><time>2026-05-03T11:58:22.756Z</time></trkpt><trkpt lat="44.3723395" lon="7.8966608"><ele>465.0</ele><time>2026-05-03T11:58:23.762Z</time></trkpt><trkpt lat="44.3723345" lon="7.8965263"><ele>465.0</ele><time>2026-05-03T11:58:25.754Z</time></trkpt><trkpt lat="44.3722775" lon="7.8964497"><ele>465.0</ele><time>2026-05-03T11:58:28.755Z</time></trkpt><trkpt lat="44.3722247" lon="7.8965208"><ele>465.0</ele><time>2026-05-03T11:58:30.763Z</time></trkpt><trkpt lat="44.3721816" lon="7.8966751"><ele>469.5</ele><time>2026-05-03T11:58:32.756Z</time></trkpt><trkpt lat="44.3721598" lon="7.8967754"><ele>474.0</ele><time>2026-05-03T11:58:33.759Z</time></trkpt><trkpt lat="44.3721387" lon="7.8968703"><ele>478.5</ele><time>2026-05-03T11:58:34.754Z</time></trkpt><trkpt lat="44.3721142" lon="7.896959"><ele>483.0</ele><time>2026-05-03T11:58:35.761Z</time></trkpt><trkpt lat="44.3720925" lon="7.8970427"><ele>487.5</ele><time>2026-05-03T11:58:36.752Z</time></trkpt><trkpt lat="44.372033" lon="7.8971643"><ele>492.0</ele><time>2026-05-03T11:58:38.757Z</time></trkpt><trkpt lat="44.3719709" lon="7.89723"><ele>492.0</ele><time>2026-05-03T11:58:39.753Z</time></trkpt><trkpt lat="44.3718877" lon="7.8972975"><ele>492.0</ele><time>2026-05-03T11:58:40.754Z</time></trkpt><trkpt lat="44.3718246" lon="7.8973654"><ele>492.0</ele><time>2026-05-03T11:58:41.758Z</time></trkpt><trkpt lat="44.3717601" lon="7.8974181"><ele>492.0</ele><time>2026-05-03T11:58:43.754Z</time></trkpt><trkpt lat="44.37172" lon="7.8973391"><ele>492.0</ele><time>2026-05-03T11:58:48.756Z</time></trkpt><trkpt lat="44.3717442" lon="7.8972526"><ele>492.0</ele><time>2026-05-03T11:58:49.76Z</time></trkpt><trkpt lat="44.371785" lon="7.8971342"><ele>492.0</ele><time>2026-05-03T11:58:51.763Z</time></trkpt><trkpt lat="44.3717788" lon="7.897004"><ele>492.00000000000006</ele><time>2026-05-03T11:58:53.759Z</time></trkpt><trkpt lat="44.3716902" lon="7.8969055"><ele>492.00000000000006</ele><time>2026-05-03T11:58:55.757Z</time></trkpt><trkpt lat="44.3715724" lon="7.8968902"><ele>492.0</ele><time>2026-05-03T11:58:57.759Z</time></trkpt><trkpt lat="44.3714955" lon="7.896912"><ele>492.0</ele><time>2026-05-03T11:58:58.759Z</time></trkpt><trkpt lat="44.3714263" lon="7.8970291"><ele>496.40000000000003</ele><time>2026-05-03T11:59:00.766Z</time></trkpt><trkpt lat="44.3713463" lon="7.8970728"><ele>500.80000000000007</ele><time>2026-05-03T11:59:01.761Z</time></trkpt><trkpt lat="44.3712628" lon="7.8971477"><ele>505.2</ele><time>2026-05-03T11:59:02.768Z</time></trkpt><trkpt lat="44.371196" lon="7.8972135"><ele>509.6</ele><time>2026-05-03T11:59:03.761Z</time></trkpt><trkpt lat="44.3711025" lon="7.8972769"><ele>514.0</ele><time>2026-05-03T11:59:04.759Z</time></trkpt><trkpt lat="44.3709858" lon="7.8973604"><ele>514.0</ele><time>2026-05-03T11:59:05.762Z</time></trkpt><trkpt lat="44.3709111" lon="7.8974242"><ele>514.0</ele><time>2026-05-03T11:59:06.763Z</time></trkpt><trkpt lat="44.3708235" lon="7.8974975"><ele>514.0</ele><time>2026-05-03T11:59:07.765Z</time></trkpt><trkpt lat="44.3707477" lon="7.8976049"><ele>514.0</ele><time>2026-05-03T11:59:08.759Z</time></trkpt><trkpt lat="44.3706799" lon="7.8976574"><ele>514.0</ele><time>2026-05-03T11:59:09.763Z</time></trkpt><trkpt lat="44.3705799" lon="7.8977224"><ele>512.0</ele><time>2026-05-03T11:59:11.765Z</time></trkpt><trkpt lat="44.3705075" lon="7.8977501"><ele>510.0</ele><time>2026-05-03T11:59:12.759Z</time></trkpt><trkpt lat="44.3704144" lon="7.8977659"><ele>508.0</ele><time>2026-05-03T11:59:14.759Z</time></trkpt><trkpt lat="44.3703393" lon="7.8977493"><ele>506.0</ele><time>2026-05-03T11:59:15.76Z</time></trkpt><trkpt lat="44.3702136" lon="7.8976617"><ele>504.0</ele><time>2026-05-03T11:59:17.757Z</time></trkpt><trkpt lat="44.3701096" lon="7.8976178"><ele>507.2</ele><time>2026-05-03T11:59:18.755Z</time></trkpt><trkpt lat="44.3700193" lon="7.8975832"><ele>510.4</ele><time>2026-05-03T11:59:19.753Z</time></trkpt><trkpt lat="44.3699202" lon="7.897557"><ele>513.6</ele><time>2026-05-03T11:59:20.755Z</time></trkpt><trkpt lat="44.3698274" lon="7.8975336"><ele>516.8</ele><time>2026-05-03T11:59:21.761Z</time></trkpt><trkpt lat="44.3697058" lon="7.8974415"><ele>520.0</ele><time>2026-05-03T11:59:22.753Z</time></trkpt><trkpt lat="44.369608" lon="7.8974052"><ele>521.2</ele><time>2026-05-03T11:59:23.762Z</time></trkpt><trkpt lat="44.3695156" lon="7.8973729"><ele>522.4</ele><time>2026-05-03T11:59:24.754Z</time></trkpt><trkpt lat="44.3694202" lon="7.8973386"><ele>523.6</ele><time>2026-05-03T11:59:25.759Z</time></trkpt><trkpt lat="44.3693304" lon="7.8973161"><ele>524.8</ele><time>2026-05-03T11:59:26.758Z</time></trkpt><trkpt lat="44.3692166" lon="7.8972903"><ele>526.0</ele><time>2026-05-03T11:59:27.754Z</time></trkpt><trkpt lat="44.3691352" lon="7.8972491"><ele>526.0</ele><time>2026-05-03T11:59:28.758Z</time></trkpt><trkpt lat="44.3690541" lon="7.8971839"><ele>526.0</ele><time>2026-05-03T11:59:29.761Z</time></trkpt><trkpt lat="44.3689916" lon="7.8971413"><ele>526.0</ele><time>2026-05-03T11:59:30.755Z</time></trkpt><trkpt lat="44.3689318" lon="7.8970912"><ele>526.0</ele><time>2026-05-03T11:59:31.76Z</time></trkpt><trkpt lat="44.368836" lon="7.8970804"><ele>526.0</ele><time>2026-05-03T11:59:32.761Z</time></trkpt><trkpt lat="44.3687653" lon="7.8970513"><ele>526.0</ele><time>2026-05-03T11:59:33.765Z</time></trkpt><trkpt lat="44.3686949" lon="7.8970558"><ele>526.0</ele><time>2026-05-03T11:59:34.763Z</time></trkpt><trkpt lat="44.3686019" lon="7.8970252"><ele>526.0</ele><time>2026-05-03T11:59:36.762Z</time></trkpt><trkpt lat="44.3685293" lon="7.8969671"><ele>526.0</ele><time>2026-05-03T11:59:37.762Z</time></trkpt><trkpt lat="44.3684657" lon="7.8968967"><ele>526.0</ele><time>2026-05-03T11:59:38.791Z</time></trkpt><trkpt lat="44.3684023" lon="7.8968382"><ele>526.0</ele><time>2026-05-03T11:59:39.76Z</time></trkpt><trkpt lat="44.3683219" lon="7.8967632"><ele>526.0</ele><time>2026-05-03T11:59:40.761Z</time></trkpt><trkpt lat="44.3682403" lon="7.8966983"><ele>530.2</ele><time>2026-05-03T11:59:41.76Z</time></trkpt><trkpt lat="44.3681377" lon="7.896603"><ele>534.4000000000001</ele><time>2026-05-03T11:59:42.763Z</time></trkpt><trkpt lat="44.3680645" lon="7.8965475"><ele>538.6</ele><time>2026-05-03T11:59:43.757Z</time></trkpt><trkpt lat="44.3679806" lon="7.8965022"><ele>542.8000000000001</ele><time>2026-05-03T11:59:44.785Z</time></trkpt><trkpt lat="44.3679039" lon="7.896476"><ele>547.0</ele><time>2026-05-03T11:59:45.756Z</time></trkpt><trkpt lat="44.3678109" lon="7.8964253"><ele>549.2</ele><time>2026-05-03T11:59:46.757Z</time></trkpt><trkpt lat="44.3677375" lon="7.8963861"><ele>551.4000000000001</ele><time>2026-05-03T11:59:47.759Z</time></trkpt><trkpt lat="44.3676533" lon="7.896289"><ele>553.5999999999999</ele><time>2026-05-03T11:59:49.758Z</time></trkpt><trkpt lat="44.3675359" lon="7.896288"><ele>555.8</ele><time>2026-05-03T11:59:51.76Z</time></trkpt><trkpt lat="44.3674592" lon="7.8963291"><ele>558.0</ele><time>2026-05-03T11:59:52.761Z</time></trkpt><trkpt lat="44.3673939" lon="7.8963341"><ele>558.0</ele><time>2026-05-03T11:59:53.766Z</time></trkpt><trkpt lat="44.367324" lon="7.8963528"><ele>558.0</ele><time>2026-05-03T11:59:54.762Z</time></trkpt><trkpt lat="44.3671879" lon="7.8963201"><ele>558.0</ele><time>2026-05-03T11:59:56.759Z</time></trkpt><trkpt lat="44.3670811" lon="7.8963096"><ele>558.0</ele><time>2026-05-03T11:59:58.758Z</time></trkpt><trkpt lat="44.367021" lon="7.8962586"><ele>558.0</ele><time>2026-05-03T11:59:59.762Z</time></trkpt><trkpt lat="44.366967" lon="7.8961951"><ele>558.8333333333334</ele><time>2026-05-03T12:00:00.762Z</time></trkpt><trkpt lat="44.3669149" lon="7.8961351"><ele>559.6666666666666</ele><time>2026-05-03T12:00:01.759Z</time></trkpt><trkpt lat="44.3668391" lon="7.8960777"><ele>560.5</ele><time>2026-05-03T12:00:02.762Z</time></trkpt><trkpt lat="44.3667756" lon="7.8960376"><ele>561.3333333333333</ele><time>2026-05-03T12:00:03.763Z</time></trkpt><trkpt lat="44.3667033" lon="7.8959979"><ele>562.1666666666666</ele><time>2026-05-03T12:00:04.76Z</time></trkpt><trkpt lat="44.3666385" lon="7.8958887"><ele>563.0</ele><time>2026-05-03T12:00:06.761Z</time></trkpt><trkpt lat="44.3666164" lon="7.8958031"><ele>565.1999999999999</ele><time>2026-05-03T12:00:07.757Z</time></trkpt><trkpt lat="44.3666011" lon="7.8956829"><ele>567.4</ele><time>2026-05-03T12:00:08.757Z</time></trkpt><trkpt lat="44.3665808" lon="7.8955438"><ele>569.5999999999999</ele><time>2026-05-03T12:00:09.755Z</time></trkpt><trkpt lat="44.3665651" lon="7.8954158"><ele>571.8</ele><time>2026-05-03T12:00:10.761Z</time></trkpt><trkpt lat="44.3665434" lon="7.8952749"><ele>574.0</ele><time>2026-05-03T12:00:11.758Z</time></trkpt><trkpt lat="44.3665187" lon="7.8951323"><ele>574.0</ele><time>2026-05-03T12:00:12.755Z</time></trkpt><trkpt lat="44.3664864" lon="7.8949858"><ele>574.0</ele><time>2026-05-03T12:00:13.761Z</time></trkpt><trkpt lat="44.3664499" lon="7.8948345"><ele>574.0</ele><time>2026-05-03T12:00:14.753Z</time></trkpt><trkpt lat="44.3664124" lon="7.8947216"><ele>574.0</ele><time>2026-05-03T12:00:15.763Z</time></trkpt><trkpt lat="44.3663785" lon="7.8946275"><ele>574.0</ele><time>2026-05-03T12:00:16.75Z</time></trkpt><trkpt lat="44.3663484" lon="7.8945378"><ele>573.25</ele><time>2026-05-03T12:00:17.76Z</time></trkpt><trkpt lat="44.3662969" lon="7.894332"><ele>572.5</ele><time>2026-05-03T12:00:19.752Z</time></trkpt><trkpt lat="44.3662692" lon="7.8941733"><ele>571.75</ele><time>2026-05-03T12:00:20.758Z</time></trkpt><trkpt lat="44.3662413" lon="7.8940226"><ele>571.0</ele><time>2026-05-03T12:00:21.76Z</time></trkpt><trkpt lat="44.3662122" lon="7.8938597"><ele>571.0</ele><time>2026-05-03T12:00:22.755Z</time></trkpt><trkpt lat="44.3661606" lon="7.8937027"><ele>571.0</ele><time>2026-05-03T12:00:23.755Z</time></trkpt><trkpt lat="44.3661173" lon="7.8935465"><ele>571.0</ele><time>2026-05-03T12:00:24.756Z</time></trkpt><trkpt lat="44.3660844" lon="7.8934088"><ele>571.0</ele><time>2026-05-03T12:00:25.755Z</time></trkpt><trkpt lat="44.3660549" lon="7.8932762"><ele>571.0</ele><time>2026-05-03T12:00:26.758Z</time></trkpt><trkpt lat="44.366027" lon="7.8931337"><ele>572.0</ele><time>2026-05-03T12:00:27.758Z</time></trkpt><trkpt lat="44.3659988" lon="7.8930175"><ele>573.0</ele><time>2026-05-03T12:00:28.756Z</time></trkpt><trkpt lat="44.3659714" lon="7.8929102"><ele>574.0</ele><time>2026-05-03T12:00:29.76Z</time></trkpt><trkpt lat="44.3659478" lon="7.8928066"><ele>575.0</ele><time>2026-05-03T12:00:30.752Z</time></trkpt><trkpt lat="44.3659231" lon="7.8927026"><ele>576.0</ele><time>2026-05-03T12:00:31.761Z</time></trkpt><trkpt lat="44.3658965" lon="7.8925853"><ele>577.0</ele><time>2026-05-03T12:00:32.762Z</time></trkpt><trkpt lat="44.3658798" lon="7.8924772"><ele>578.0</ele><time>2026-05-03T12:00:33.771Z</time></trkpt><trkpt lat="44.3658651" lon="7.8923471"><ele>579.0</ele><time>2026-05-03T12:00:35.805Z</time></trkpt><trkpt lat="44.3658136" lon="7.8922701"><ele>580.0</ele><time>2026-05-03T12:00:38.765Z</time></trkpt><trkpt lat="44.3657391" lon="7.8922937"><ele>581.0</ele><time>2026-05-03T12:00:40.759Z</time></trkpt><trkpt lat="44.3656539" lon="7.8922014"><ele>582.0</ele><time>2026-05-03T12:00:43.761Z</time></trkpt><trkpt lat="44.3656084" lon="7.892089"><ele>583.0</ele><time>2026-05-03T12:00:45.758Z</time></trkpt><trkpt lat="44.365577" lon="7.891949"><ele>583.0</ele><time>2026-05-03T12:00:47.757Z</time></trkpt><trkpt lat="44.3655099" lon="7.8918234"><ele>583.0</ele><time>2026-05-03T12:00:49.762Z</time></trkpt><trkpt lat="44.3654431" lon="7.8916898"><ele>583.0</ele><time>2026-05-03T12:00:51.762Z</time></trkpt><trkpt lat="44.3653805" lon="7.8915647"><ele>583.0</ele><time>2026-05-03T12:00:53.757Z</time></trkpt><trkpt lat="44.3653161" lon="7.8914401"><ele>583.0</ele><time>2026-05-03T12:00:55.76Z</time></trkpt><trkpt lat="44.3652425" lon="7.8913506"><ele>583.0</ele><time>2026-05-03T12:00:57.759Z</time></trkpt><trkpt lat="44.3651817" lon="7.8912454"><ele>583.0</ele><time>2026-05-03T12:00:59.76Z</time></trkpt><trkpt lat="44.365104" lon="7.8911918"><ele>583.0</ele><time>2026-05-03T12:01:01.757Z</time></trkpt><trkpt lat="44.365037" lon="7.8911712"><ele>583.0</ele><time>2026-05-03T12:01:03.762Z</time></trkpt><trkpt lat="44.3649468" lon="7.8910658"><ele>583.0</ele><time>2026-05-03T12:01:05.761Z</time></trkpt><trkpt lat="44.3648709" lon="7.890978"><ele>585.8</ele><time>2026-05-03T12:01:07.767Z</time></trkpt><trkpt lat="44.3647812" lon="7.8909034"><ele>588.5999999999999</ele><time>2026-05-03T12:01:09.766Z</time></trkpt><trkpt lat="44.3646875" lon="7.890823"><ele>591.4000000000001</ele><time>2026-05-03T12:01:11.762Z</time></trkpt><trkpt lat="44.3646028" lon="7.8907526"><ele>594.2</ele><time>2026-05-03T12:01:13.761Z</time></trkpt><trkpt lat="44.364566" lon="7.8906491"><ele>597.0</ele><time>2026-05-03T12:01:15.761Z</time></trkpt><trkpt lat="44.3645336" lon="7.8905037"><ele>597.0</ele><time>2026-05-03T12:01:17.763Z</time></trkpt><trkpt lat="44.3644861" lon="7.8904288"><ele>597.0</ele><time>2026-05-03T12:01:19.768Z</time></trkpt><trkpt lat="44.3643783" lon="7.890414"><ele>597.0</ele><time>2026-05-03T12:01:22.764Z</time></trkpt><trkpt lat="44.3642519" lon="7.8903325"><ele>597.0</ele><time>2026-05-03T12:01:24.781Z</time></trkpt><trkpt lat="44.3641863" lon="7.8903009"><ele>597.0</ele><time>2026-05-03T12:01:25.761Z</time></trkpt><trkpt lat="44.3640678" lon="7.8902154"><ele>597.0</ele><time>2026-05-03T12:01:27.757Z</time></trkpt><trkpt lat="44.3639998" lon="7.8901794"><ele>597.0</ele><time>2026-05-03T12:01:28.765Z</time></trkpt><trkpt lat="44.3639057" lon="7.8901384"><ele>597.0</ele><time>2026-05-03T12:01:29.759Z</time></trkpt><trkpt lat="44.363834" lon="7.8901065"><ele>597.0</ele><time>2026-05-03T12:01:30.757Z</time></trkpt><trkpt lat="44.3637712" lon="7.890081"><ele>597.0</ele><time>2026-05-03T12:01:31.759Z</time></trkpt><trkpt lat="44.3636519" lon="7.8900393"><ele>597.0</ele><time>2026-05-03T12:01:32.757Z</time></trkpt><trkpt lat="44.3635669" lon="7.8899892"><ele>601.0</ele><time>2026-05-03T12:01:33.754Z</time></trkpt><trkpt lat="44.3634876" lon="7.8899441"><ele>605.0</ele><time>2026-05-03T12:01:34.755Z</time></trkpt><trkpt lat="44.3634157" lon="7.8899091"><ele>609.0</ele><time>2026-05-03T12:01:35.751Z</time></trkpt><trkpt lat="44.3633441" lon="7.8898656"><ele>613.0</ele><time>2026-05-03T12:01:36.765Z</time></trkpt><trkpt lat="44.3632734" lon="7.8898171"><ele>617.0</ele><time>2026-05-03T12:01:37.761Z</time></trkpt><trkpt lat="44.3632082" lon="7.8897738"><ele>621.0</ele><time>2026-05-03T12:01:38.752Z</time></trkpt><trkpt lat="44.3631134" lon="7.889694"><ele>621.0</ele><time>2026-05-03T12:01:40.762Z</time></trkpt><trkpt lat="44.3630324" lon="7.8896016"><ele>621.0</ele><time>2026-05-03T12:01:42.764Z</time></trkpt><trkpt lat="44.3629525" lon="7.8895805"><ele>621.0</ele><time>2026-05-03T12:01:44.762Z</time></trkpt><trkpt lat="44.3628411" lon="7.8895861"><ele>621.0</ele><time>2026-05-03T12:01:46.753Z</time></trkpt><trkpt lat="44.3626111" lon="7.8892801"><ele>623.6</ele><time>2026-05-03T12:01:48.754Z</time></trkpt><trkpt lat="44.3624682" lon="7.889211"><ele>626.2</ele><time>2026-05-03T12:01:50.752Z</time></trkpt><trkpt lat="44.3623696" lon="7.889171"><ele>628.8</ele><time>2026-05-03T12:01:51.758Z</time></trkpt><trkpt lat="44.3622836" lon="7.8891377"><ele>631.4</ele><time>2026-05-03T12:01:52.751Z</time></trkpt><trkpt lat="44.3621954" lon="7.8890938"><ele>634.0</ele><time>2026-05-03T12:01:53.754Z</time></trkpt><trkpt lat="44.3621169" lon="7.8890539"><ele>634.0</ele><time>2026-05-03T12:01:54.758Z</time></trkpt><trkpt lat="44.3620338" lon="7.8890233"><ele>634.0</ele><time>2026-05-03T12:01:55.758Z</time></trkpt><trkpt lat="44.3619541" lon="7.8890289"><ele>634.0</ele><time>2026-05-03T12:01:56.766Z</time></trkpt><trkpt lat="44.3618689" lon="7.8890201"><ele>634.0</ele><time>2026-05-03T12:01:57.776Z</time></trkpt><trkpt lat="44.3618026" lon="7.888985"><ele>634.0</ele><time>2026-05-03T12:01:58.761Z</time></trkpt><trkpt lat="44.361724" lon="7.8889409"><ele>634.0</ele><time>2026-05-03T12:01:59.765Z</time></trkpt><trkpt lat="44.3616385" lon="7.8888922"><ele>634.0</ele><time>2026-05-03T12:02:00.754Z</time></trkpt><trkpt lat="44.3615328" lon="7.8887802"><ele>634.0</ele><time>2026-05-03T12:02:02.751Z</time></trkpt><trkpt lat="44.3614546" lon="7.8886965"><ele>634.0</ele><time>2026-05-03T12:02:03.76Z</time></trkpt><trkpt lat="44.3613912" lon="7.8886183"><ele>634.0</ele><time>2026-05-03T12:02:04.759Z</time></trkpt><trkpt lat="44.3613329" lon="7.8885484"><ele>634.0</ele><time>2026-05-03T12:02:05.761Z</time></trkpt><trkpt lat="44.3612562" lon="7.8884745"><ele>635.1666666666667</ele><time>2026-05-03T12:02:06.755Z</time></trkpt><trkpt lat="44.3611847" lon="7.888418"><ele>636.3333333333334</ele><time>2026-05-03T12:02:07.767Z</time></trkpt><trkpt lat="44.3611024" lon="7.8883778"><ele>637.5</ele><time>2026-05-03T12:02:08.764Z</time></trkpt><trkpt lat="44.3610289" lon="7.8883244"><ele>638.6666666666666</ele><time>2026-05-03T12:02:09.757Z</time></trkpt><trkpt lat="44.3609533" lon="7.8882779"><ele>639.8333333333333</ele><time>2026-05-03T12:02:10.758Z</time></trkpt><trkpt lat="44.3608812" lon="7.888217"><ele>641.0</ele><time>2026-05-03T12:02:11.756Z</time></trkpt><trkpt lat="44.3608091" lon="7.8881735"><ele>641.0</ele><time>2026-05-03T12:02:12.752Z</time></trkpt><trkpt lat="44.3607186" lon="7.8881465"><ele>641.0</ele><time>2026-05-03T12:02:13.76Z</time></trkpt><trkpt lat="44.360635" lon="7.8881307"><ele>641.0</ele><time>2026-05-03T12:02:14.76Z</time></trkpt><trkpt lat="44.3605428" lon="7.88811"><ele>641.0</ele><time>2026-05-03T12:02:15.758Z</time></trkpt><trkpt lat="44.3604551" lon="7.8880789"><ele>641.0</ele><time>2026-05-03T12:02:16.763Z</time></trkpt><trkpt lat="44.3603832" lon="7.8880374"><ele>641.0</ele><time>2026-05-03T12:02:17.759Z</time></trkpt><trkpt lat="44.3602876" lon="7.8880029"><ele>642.0</ele><time>2026-05-03T12:02:18.75Z</time></trkpt><trkpt lat="44.3601995" lon="7.8879659"><ele>643.0</ele><time>2026-05-03T12:02:19.755Z</time></trkpt><trkpt lat="44.3600562" lon="7.887876"><ele>644.0</ele><time>2026-05-03T12:02:20.758Z</time></trkpt><trkpt lat="44.3599683" lon="7.8878392"><ele>645.0</ele><time>2026-05-03T12:02:21.756Z</time></trkpt><trkpt lat="44.3598424" lon="7.8878382"><ele>645.0</ele><time>2026-05-03T12:02:23.759Z</time></trkpt><trkpt lat="44.359782" lon="7.8878657"><ele>645.0</ele><time>2026-05-03T12:02:24.762Z</time></trkpt><trkpt lat="44.359702" lon="7.8880174"><ele>645.0</ele><time>2026-05-03T12:02:26.757Z</time></trkpt><trkpt lat="44.3596623" lon="7.8881033"><ele>645.0</ele><time>2026-05-03T12:02:27.766Z</time></trkpt><trkpt lat="44.3595827" lon="7.8881724"><ele>645.0</ele><time>2026-05-03T12:02:29.773Z</time></trkpt><trkpt lat="44.3594609" lon="7.8882171"><ele>647.5</ele><time>2026-05-03T12:02:31.755Z</time></trkpt><trkpt lat="44.3593717" lon="7.8882217"><ele>650.0</ele><time>2026-05-03T12:02:32.759Z</time></trkpt><trkpt lat="44.3593058" lon="7.8882205"><ele>652.5</ele><time>2026-05-03T12:02:33.761Z</time></trkpt><trkpt lat="44.3592305" lon="7.8882079"><ele>655.0</ele><time>2026-05-03T12:02:35.764Z</time></trkpt><trkpt lat="44.3591866" lon="7.8878781"><ele>655.0</ele><time>2026-05-03T12:02:55.754Z</time></trkpt><trkpt lat="44.3591151" lon="7.8877353"><ele>655.0</ele><time>2026-05-03T12:02:57.799Z</time></trkpt><trkpt lat="44.3590652" lon="7.8876605"><ele>655.0</ele><time>2026-05-03T12:02:58.758Z</time></trkpt><trkpt lat="44.3590167" lon="7.8875836"><ele>655.0</ele><time>2026-05-03T12:02:59.762Z</time></trkpt><trkpt lat="44.35895" lon="7.887531"><ele>655.0</ele><time>2026-05-03T12:03:00.757Z</time></trkpt><trkpt lat="44.3588842" lon="7.8875027"><ele>655.0</ele><time>2026-05-03T12:03:01.757Z</time></trkpt><trkpt lat="44.3588155" lon="7.8874441"><ele>658.0</ele><time>2026-05-03T12:03:02.754Z</time></trkpt><trkpt lat="44.3587282" lon="7.8874269"><ele>661.0</ele><time>2026-05-03T12:03:03.758Z</time></trkpt><trkpt lat="44.3586244" lon="7.8873701"><ele>664.0</ele><time>2026-05-03T12:03:04.759Z</time></trkpt><trkpt lat="44.3585529" lon="7.8873524"><ele>667.0</ele><time>2026-05-03T12:03:05.751Z</time></trkpt><trkpt lat="44.3584583" lon="7.88732"><ele>670.0</ele><time>2026-05-03T12:03:06.756Z</time></trkpt><trkpt lat="44.3583001" lon="7.8873209"><ele>670.0</ele><time>2026-05-03T12:03:08.753Z</time></trkpt><trkpt lat="44.3582128" lon="7.8873224"><ele>670.0</ele><time>2026-05-03T12:03:09.76Z</time></trkpt><trkpt lat="44.358072" lon="7.8872954"><ele>670.0</ele><time>2026-05-03T12:03:11.759Z</time></trkpt><trkpt lat="44.3579928" lon="7.8872666"><ele>670.0</ele><time>2026-05-03T12:03:12.759Z</time></trkpt><trkpt lat="44.357908" lon="7.8872287"><ele>670.0</ele><time>2026-05-03T12:03:13.76Z</time></trkpt><trkpt lat="44.3578284" lon="7.8871693"><ele>670.6</ele><time>2026-05-03T12:03:14.758Z</time></trkpt><trkpt lat="44.3577737" lon="7.8870969"><ele>671.2</ele><time>2026-05-03T12:03:15.761Z</time></trkpt><trkpt lat="44.3576766" lon="7.8869525"><ele>671.8</ele><time>2026-05-03T12:03:17.755Z</time></trkpt><trkpt lat="44.3576394" lon="7.8868571"><ele>672.4</ele><time>2026-05-03T12:03:18.76Z</time></trkpt><trkpt lat="44.3576131" lon="7.8867536"><ele>673.0</ele><time>2026-05-03T12:03:19.759Z</time></trkpt><trkpt lat="44.3575823" lon="7.88665"><ele>673.0</ele><time>2026-05-03T12:03:20.755Z</time></trkpt><trkpt lat="44.3575511" lon="7.8865564"><ele>673.0</ele><time>2026-05-03T12:03:21.758Z</time></trkpt><trkpt lat="44.3574955" lon="7.8863382"><ele>673.0</ele><time>2026-05-03T12:03:23.757Z</time></trkpt><trkpt lat="44.3574432" lon="7.8861546"><ele>673.0</ele><time>2026-05-03T12:03:24.753Z</time></trkpt><trkpt lat="44.357447" lon="7.8860378"><ele>671.8</ele><time>2026-05-03T12:03:25.763Z</time></trkpt><trkpt lat="44.357433" lon="7.8858414"><ele>670.5999999999999</ele><time>2026-05-03T12:03:27.757Z</time></trkpt><trkpt lat="44.3574086" lon="7.8857367"><ele>669.4000000000001</ele><time>2026-05-03T12:03:28.762Z</time></trkpt><trkpt lat="44.3573734" lon="7.8856438"><ele>668.2</ele><time>2026-05-03T12:03:29.757Z</time></trkpt><trkpt lat="44.3573379" lon="7.8855273"><ele>667.0</ele><time>2026-05-03T12:03:30.758Z</time></trkpt><trkpt lat="44.3573192" lon="7.8854213"><ele>667.0</ele><time>2026-05-03T12:03:31.758Z</time></trkpt><trkpt lat="44.3573055" lon="7.8853201"><ele>667.0</ele><time>2026-05-03T12:03:32.763Z</time></trkpt><trkpt lat="44.3572855" lon="7.8851867"><ele>667.0</ele><time>2026-05-03T12:03:33.762Z</time></trkpt><trkpt lat="44.3572585" lon="7.8850686"><ele>667.0</ele><time>2026-05-03T12:03:34.756Z</time></trkpt><trkpt lat="44.357231" lon="7.8849466"><ele>667.0</ele><time>2026-05-03T12:03:35.757Z</time></trkpt><trkpt lat="44.3572027" lon="7.8847975"><ele>671.3333333333334</ele><time>2026-05-03T12:03:36.751Z</time></trkpt><trkpt lat="44.3571779" lon="7.884568"><ele>675.6666666666666</ele><time>2026-05-03T12:03:37.752Z</time></trkpt><trkpt lat="44.35715" lon="7.8844205"><ele>680.0</ele><time>2026-05-03T12:03:38.749Z</time></trkpt><trkpt lat="44.3570802" lon="7.8841749"><ele>680.0</ele><time>2026-05-03T12:03:39.752Z</time></trkpt><trkpt lat="44.3570668" lon="7.8840719"><ele>680.0</ele><time>2026-05-03T12:03:40.755Z</time></trkpt><trkpt lat="44.3570403" lon="7.8839456"><ele>680.0</ele><time>2026-05-03T12:03:41.756Z</time></trkpt><trkpt lat="44.3570356" lon="7.8838255"><ele>680.0</ele><time>2026-05-03T12:03:42.76Z</time></trkpt><trkpt lat="44.3570641" lon="7.8837424"><ele>680.0</ele><time>2026-05-03T12:03:43.758Z</time></trkpt><trkpt lat="44.3570955" lon="7.883639"><ele>680.0</ele><time>2026-05-03T12:03:44.787Z</time></trkpt><trkpt lat="44.3571253" lon="7.8835389"><ele>680.2</ele><time>2026-05-03T12:03:45.762Z</time></trkpt><trkpt lat="44.3571569" lon="7.8834297"><ele>680.4</ele><time>2026-05-03T12:03:46.759Z</time></trkpt><trkpt lat="44.3571732" lon="7.8833356"><ele>680.5999999999999</ele><time>2026-05-03T12:03:47.759Z</time></trkpt><trkpt lat="44.3571697" lon="7.8831778"><ele>680.8</ele><time>2026-05-03T12:03:48.781Z</time></trkpt><trkpt lat="44.3571635" lon="7.8830088"><ele>681.0</ele><time>2026-05-03T12:03:49.763Z</time></trkpt><trkpt lat="44.3571557" lon="7.8828748"><ele>681.0</ele><time>2026-05-03T12:03:50.766Z</time></trkpt><trkpt lat="44.3571561" lon="7.8827677"><ele>681.0</ele><time>2026-05-03T12:03:51.759Z</time></trkpt><trkpt lat="44.357144" lon="7.8826602"><ele>681.0</ele><time>2026-05-03T12:03:52.758Z</time></trkpt><trkpt lat="44.3571298" lon="7.8825643"><ele>681.0</ele><time>2026-05-03T12:03:53.754Z</time></trkpt><trkpt lat="44.3570978" lon="7.8824598"><ele>681.0</ele><time>2026-05-03T12:03:54.76Z</time></trkpt><trkpt lat="44.357075" lon="7.8823467"><ele>681.0</ele><time>2026-05-03T12:03:55.759Z</time></trkpt><trkpt lat="44.3570717" lon="7.882235"><ele>680.1999999999999</ele><time>2026-05-03T12:03:56.758Z</time></trkpt><trkpt lat="44.3570682" lon="7.8821212"><ele>679.4</ele><time>2026-05-03T12:03:57.75Z</time></trkpt><trkpt lat="44.3570802" lon="7.881999"><ele>678.6</ele><time>2026-05-03T12:03:58.754Z</time></trkpt><trkpt lat="44.3571278" lon="7.8818689"><ele>677.8</ele><time>2026-05-03T12:03:59.761Z</time></trkpt><trkpt lat="44.3571633" lon="7.8817028"><ele>677.0</ele><time>2026-05-03T12:04:01.761Z</time></trkpt><trkpt lat="44.3572002" lon="7.8815876"><ele>674.3333333333333</ele><time>2026-05-03T12:04:02.757Z</time></trkpt><trkpt lat="44.35721" lon="7.8814934"><ele>671.6666666666666</ele><time>2026-05-03T12:04:03.758Z</time></trkpt><trkpt lat="44.3572256" lon="7.8813583"><ele>669.0</ele><time>2026-05-03T12:04:05.765Z</time></trkpt><trkpt lat="44.3572072" lon="7.8812216"><ele>666.3333333333334</ele><time>2026-05-03T12:04:07.755Z</time></trkpt><trkpt lat="44.3571872" lon="7.8811085"><ele>663.6666666666667</ele><time>2026-05-03T12:04:09.76Z</time></trkpt><trkpt lat="44.3571727" lon="7.8809698"><ele>661.0</ele><time>2026-05-03T12:04:11.768Z</time></trkpt><trkpt lat="44.3571939" lon="7.8808084"><ele>659.8</ele><time>2026-05-03T12:04:13.761Z</time></trkpt><trkpt lat="44.3572145" lon="7.8806623"><ele>658.5999999999999</ele><time>2026-05-03T12:04:15.761Z</time></trkpt><trkpt lat="44.3572654" lon="7.8805457"><ele>657.4</ele><time>2026-05-03T12:04:17.756Z</time></trkpt><trkpt lat="44.3573203" lon="7.8804163"><ele>656.2</ele><time>2026-05-03T12:04:19.759Z</time></trkpt><trkpt lat="44.3573556" lon="7.8802848"><ele>655.0</ele><time>2026-05-03T12:04:21.755Z</time></trkpt><trkpt lat="44.3574088" lon="7.8801374"><ele>653.4</ele><time>2026-05-03T12:04:23.764Z</time></trkpt><trkpt lat="44.357447" lon="7.8800557"><ele>651.8</ele><time>2026-05-03T12:04:24.762Z</time></trkpt><trkpt lat="44.3575013" lon="7.8799337"><ele>650.2</ele><time>2026-05-03T12:04:26.755Z</time></trkpt><trkpt lat="44.3575752" lon="7.879832"><ele>648.6</ele><time>2026-05-03T12:04:28.758Z</time></trkpt><trkpt lat="44.3576844" lon="7.879779"><ele>647.0</ele><time>2026-05-03T12:04:30.761Z</time></trkpt><trkpt lat="44.3577573" lon="7.8797635"><ele>647.0</ele><time>2026-05-03T12:04:31.761Z</time></trkpt><trkpt lat="44.3578564" lon="7.8797197"><ele>647.0</ele><time>2026-05-03T12:04:33.76Z</time></trkpt><trkpt lat="44.3579045" lon="7.879662"><ele>647.0</ele><time>2026-05-03T12:04:34.769Z</time></trkpt><trkpt lat="44.3579633" lon="7.8795668"><ele>647.0</ele><time>2026-05-03T12:04:35.762Z</time></trkpt><trkpt lat="44.3579938" lon="7.8794692"><ele>647.0</ele><time>2026-05-03T12:04:36.76Z</time></trkpt><trkpt lat="44.3580372" lon="7.8793905"><ele>647.0</ele><time>2026-05-03T12:04:37.761Z</time></trkpt><trkpt lat="44.3580552" lon="7.8792591"><ele>645.2</ele><time>2026-05-03T12:04:38.753Z</time></trkpt><trkpt lat="44.3581405" lon="7.879126"><ele>643.4000000000001</ele><time>2026-05-03T12:04:40.755Z</time></trkpt><trkpt lat="44.3582043" lon="7.8790762"><ele>641.5999999999999</ele><time>2026-05-03T12:04:41.766Z</time></trkpt><trkpt lat="44.3582803" lon="7.878985"><ele>639.8</ele><time>2026-05-03T12:04:42.756Z</time></trkpt><trkpt lat="44.3583565" lon="7.878939"><ele>638.0</ele><time>2026-05-03T12:04:43.763Z</time></trkpt><trkpt lat="44.3584191" lon="7.8788729"><ele>638.0</ele><time>2026-05-03T12:04:44.759Z</time></trkpt><trkpt lat="44.3585058" lon="7.878794"><ele>638.0</ele><time>2026-05-03T12:04:45.76Z</time></trkpt><trkpt lat="44.3585888" lon="7.8787149"><ele>638.0</ele><time>2026-05-03T12:04:46.753Z</time></trkpt><trkpt lat="44.3586705" lon="7.878632"><ele>638.0</ele><time>2026-05-03T12:04:47.753Z</time></trkpt><trkpt lat="44.3587935" lon="7.8785221"><ele>635.8</ele><time>2026-05-03T12:04:48.752Z</time></trkpt><trkpt lat="44.3588662" lon="7.8784213"><ele>633.5999999999999</ele><time>2026-05-03T12:04:49.76Z</time></trkpt><trkpt lat="44.3589281" lon="7.8783115"><ele>631.4000000000001</ele><time>2026-05-03T12:04:50.757Z</time></trkpt><trkpt lat="44.3589701" lon="7.8782225"><ele>629.2</ele><time>2026-05-03T12:04:51.75Z</time></trkpt><trkpt lat="44.3590004" lon="7.8781446"><ele>627.0</ele><time>2026-05-03T12:04:52.755Z</time></trkpt><trkpt lat="44.3590462" lon="7.8779786"><ele>626.0</ele><time>2026-05-03T12:04:54.756Z</time></trkpt><trkpt lat="44.3590826" lon="7.8778609"><ele>625.0</ele><time>2026-05-03T12:04:56.766Z</time></trkpt><trkpt lat="44.3591272" lon="7.8777505"><ele>624.0</ele><time>2026-05-03T12:04:58.763Z</time></trkpt><trkpt lat="44.3591548" lon="7.8776447"><ele>623.0</ele><time>2026-05-03T12:04:59.759Z</time></trkpt><trkpt lat="44.3591886" lon="7.8775437"><ele>622.0</ele><time>2026-05-03T12:05:00.762Z</time></trkpt><trkpt lat="44.3592298" lon="7.877435"><ele>621.0</ele><time>2026-05-03T12:05:01.765Z</time></trkpt><trkpt lat="44.3592674" lon="7.8773208"><ele>619.6666666666666</ele><time>2026-05-03T12:05:02.767Z</time></trkpt><trkpt lat="44.3592955" lon="7.8772041"><ele>618.3333333333334</ele><time>2026-05-03T12:05:03.763Z</time></trkpt><trkpt lat="44.3593241" lon="7.8770899"><ele>617.0</ele><time>2026-05-03T12:05:04.757Z</time></trkpt><trkpt lat="44.3593444" lon="7.8769847"><ele>615.6666666666667</ele><time>2026-05-03T12:05:05.758Z</time></trkpt><trkpt lat="44.3593657" lon="7.8768803"><ele>614.3333333333334</ele><time>2026-05-03T12:05:06.761Z</time></trkpt><trkpt lat="44.3593829" lon="7.8767656"><ele>613.0</ele><time>2026-05-03T12:05:07.761Z</time></trkpt><trkpt lat="44.3593968" lon="7.8765993"><ele>611.3333333333334</ele><time>2026-05-03T12:05:08.759Z</time></trkpt><trkpt lat="44.3594133" lon="7.876493"><ele>609.6666666666667</ele><time>2026-05-03T12:05:09.767Z</time></trkpt><trkpt lat="44.3594373" lon="7.8764092"><ele>608.0</ele><time>2026-05-03T12:05:10.758Z</time></trkpt><trkpt lat="44.3595012" lon="7.8762847"><ele>606.3333333333334</ele><time>2026-05-03T12:05:12.762Z</time></trkpt><trkpt lat="44.359559" lon="7.8762323"><ele>604.6666666666666</ele><time>2026-05-03T12:05:13.764Z</time></trkpt><trkpt lat="44.3596318" lon="7.8761881"><ele>603.0</ele><time>2026-05-03T12:05:14.767Z</time></trkpt><trkpt lat="44.3596972" lon="7.8761535"><ele>601.8</ele><time>2026-05-03T12:05:15.763Z</time></trkpt><trkpt lat="44.3597651" lon="7.8760938"><ele>600.5999999999999</ele><time>2026-05-03T12:05:16.764Z</time></trkpt><trkpt lat="44.3598477" lon="7.8760187"><ele>599.4000000000001</ele><time>2026-05-03T12:05:17.764Z</time></trkpt><trkpt lat="44.3599206" lon="7.8759628"><ele>598.2</ele><time>2026-05-03T12:05:18.756Z</time></trkpt><trkpt lat="44.3599867" lon="7.8759334"><ele>597.0</ele><time>2026-05-03T12:05:19.758Z</time></trkpt><trkpt lat="44.3601039" lon="7.8758846"><ele>595.6</ele><time>2026-05-03T12:05:21.757Z</time></trkpt><trkpt lat="44.3601661" lon="7.875841"><ele>594.2</ele><time>2026-05-03T12:05:22.758Z</time></trkpt><trkpt lat="44.360198" lon="7.875732"><ele>592.8</ele><time>2026-05-03T12:05:23.771Z</time></trkpt><trkpt lat="44.3602401" lon="7.875606"><ele>591.4</ele><time>2026-05-03T12:05:24.763Z</time></trkpt><trkpt lat="44.3602808" lon="7.8754826"><ele>590.0</ele><time>2026-05-03T12:05:25.767Z</time></trkpt><trkpt lat="44.3603413" lon="7.8753689"><ele>590.0</ele><time>2026-05-03T12:05:26.76Z</time></trkpt><trkpt lat="44.3604142" lon="7.875262"><ele>590.0</ele><time>2026-05-03T12:05:27.764Z</time></trkpt><trkpt lat="44.3604951" lon="7.8751523"><ele>590.0</ele><time>2026-05-03T12:05:28.765Z</time></trkpt><trkpt lat="44.3605749" lon="7.8750535"><ele>590.0</ele><time>2026-05-03T12:05:29.759Z</time></trkpt><trkpt lat="44.360645" lon="7.8749577"><ele>590.0</ele><time>2026-05-03T12:05:30.766Z</time></trkpt><trkpt lat="44.3607172" lon="7.8748626"><ele>587.1666666666666</ele><time>2026-05-03T12:05:31.766Z</time></trkpt><trkpt lat="44.3607792" lon="7.8747576"><ele>584.3333333333333</ele><time>2026-05-03T12:05:32.756Z</time></trkpt><trkpt lat="44.360839" lon="7.8746697"><ele>581.5</ele><time>2026-05-03T12:05:33.757Z</time></trkpt><trkpt lat="44.3608842" lon="7.8745764"><ele>578.6666666666666</ele><time>2026-05-03T12:05:34.759Z</time></trkpt><trkpt lat="44.3609291" lon="7.8744855"><ele>575.8333333333334</ele><time>2026-05-03T12:05:35.763Z</time></trkpt><trkpt lat="44.3609362" lon="7.8743659"><ele>573.0</ele><time>2026-05-03T12:05:36.76Z</time></trkpt><trkpt lat="44.3609443" lon="7.8742438"><ele>572.8333333333334</ele><time>2026-05-03T12:05:37.767Z</time></trkpt><trkpt lat="44.360939" lon="7.8741366"><ele>572.6666666666666</ele><time>2026-05-03T12:05:38.766Z</time></trkpt><trkpt lat="44.3609272" lon="7.874043"><ele>572.5</ele><time>2026-05-03T12:05:39.765Z</time></trkpt><trkpt lat="44.3609008" lon="7.8738911"><ele>572.3333333333333</ele><time>2026-05-03T12:05:41.767Z</time></trkpt><trkpt lat="44.3608879" lon="7.8737925"><ele>572.1666666666666</ele><time>2026-05-03T12:05:43.764Z</time></trkpt><trkpt lat="44.3609158" lon="7.8736852"><ele>572.0</ele><time>2026-05-03T12:05:46.758Z</time></trkpt><trkpt lat="44.3609374" lon="7.8735801"><ele>572.0</ele><time>2026-05-03T12:05:49.767Z</time></trkpt><trkpt lat="44.3609603" lon="7.8734859"><ele>572.0</ele><time>2026-05-03T12:10:42.755Z</time></trkpt><trkpt lat="44.361001" lon="7.8734047"><ele>572.0</ele><time>2026-05-03T12:22:05.729Z</time></trkpt><trkpt lat="44.3609799" lon="7.8735164"><ele>572.0</ele><time>2026-05-03T12:22:09.759Z</time></trkpt><trkpt lat="44.3609241" lon="7.8735807"><ele>572.0</ele><time>2026-05-03T12:22:11.755Z</time></trkpt><trkpt lat="44.3608493" lon="7.8735331"><ele>572.0</ele><time>2026-05-03T12:22:14.759Z</time></trkpt><trkpt lat="44.3607722" lon="7.8734301"><ele>571.2</ele><time>2026-05-03T12:22:16.761Z</time></trkpt><trkpt lat="44.3606923" lon="7.8733296"><ele>570.4000000000001</ele><time>2026-05-03T12:22:18.756Z</time></trkpt><trkpt lat="44.3606211" lon="7.8732351"><ele>569.5999999999999</ele><time>2026-05-03T12:22:20.773Z</time></trkpt><trkpt lat="44.3605378" lon="7.8731227"><ele>568.8</ele><time>2026-05-03T12:22:22.759Z</time></trkpt><trkpt lat="44.3604494" lon="7.873001"><ele>568.0</ele><time>2026-05-03T12:22:24.757Z</time></trkpt><trkpt lat="44.3604052" lon="7.8729381"><ele>567.0</ele><time>2026-05-03T12:22:25.75Z</time></trkpt><trkpt lat="44.3603605" lon="7.872876"><ele>566.0</ele><time>2026-05-03T12:22:26.759Z</time></trkpt><trkpt lat="44.3603152" lon="7.8728106"><ele>565.0</ele><time>2026-05-03T12:22:27.754Z</time></trkpt><trkpt lat="44.3602694" lon="7.8727452"><ele>564.0</ele><time>2026-05-03T12:22:28.762Z</time></trkpt><trkpt lat="44.3602218" lon="7.8726787"><ele>563.0</ele><time>2026-05-03T12:22:29.759Z</time></trkpt><trkpt lat="44.3601731" lon="7.8726099"><ele>562.0</ele><time>2026-05-03T12:22:30.751Z</time></trkpt><trkpt lat="44.3601289" lon="7.8725458"><ele>561.0</ele><time>2026-05-03T12:22:31.754Z</time></trkpt><trkpt lat="44.3600593" lon="7.8724276"><ele>559.4</ele><time>2026-05-03T12:22:33.755Z</time></trkpt><trkpt lat="44.3600051" lon="7.8722994"><ele>557.8</ele><time>2026-05-03T12:22:35.752Z</time></trkpt><trkpt lat="44.3599603" lon="7.872166"><ele>556.1999999999999</ele><time>2026-05-03T12:22:37.756Z</time></trkpt><trkpt lat="44.3599247" lon="7.8720262"><ele>554.6</ele><time>2026-05-03T12:22:39.757Z</time></trkpt><trkpt lat="44.3599023" lon="7.8718702"><ele>553.0</ele><time>2026-05-03T12:22:41.756Z</time></trkpt><trkpt lat="44.3598894" lon="7.8717088"><ele>551.6666666666667</ele><time>2026-05-03T12:22:43.757Z</time></trkpt><trkpt lat="44.3598801" lon="7.8716071"><ele>550.3333333333334</ele><time>2026-05-03T12:22:44.757Z</time></trkpt><trkpt lat="44.3598694" lon="7.8714941"><ele>549.0</ele><time>2026-05-03T12:22:45.764Z</time></trkpt><trkpt lat="44.3598513" lon="7.8713818"><ele>547.6666666666666</ele><time>2026-05-03T12:22:46.755Z</time></trkpt><trkpt lat="44.3598238" lon="7.8712803"><ele>546.3333333333333</ele><time>2026-05-03T12:22:47.757Z</time></trkpt><trkpt lat="44.3597885" lon="7.8711983"><ele>545.0</ele><time>2026-05-03T12:22:48.762Z</time></trkpt><trkpt lat="44.3597138" lon="7.8710755"><ele>545.8</ele><time>2026-05-03T12:22:50.752Z</time></trkpt><trkpt lat="44.3596335" lon="7.8709738"><ele>546.6</ele><time>2026-05-03T12:22:52.753Z</time></trkpt><trkpt lat="44.3595489" lon="7.8708847"><ele>547.4</ele><time>2026-05-03T12:22:54.758Z</time></trkpt><trkpt lat="44.3594911" lon="7.8708232"><ele>548.2</ele><time>2026-05-03T12:22:56.763Z</time></trkpt><trkpt lat="44.3594936" lon="7.8707152"><ele>549.0</ele><time>2026-05-03T12:22:59.761Z</time></trkpt><trkpt lat="44.3595544" lon="7.8706269"><ele>549.0</ele><time>2026-05-03T12:23:01.768Z</time></trkpt><trkpt lat="44.3596734" lon="7.8705913"><ele>549.0</ele><time>2026-05-03T12:23:03.762Z</time></trkpt><trkpt lat="44.3597458" lon="7.8705837"><ele>549.0</ele><time>2026-05-03T12:23:04.769Z</time></trkpt><trkpt lat="44.35982" lon="7.8705714"><ele>549.0</ele><time>2026-05-03T12:23:05.758Z</time></trkpt><trkpt lat="44.3598955" lon="7.8705595"><ele>549.0</ele><time>2026-05-03T12:23:06.765Z</time></trkpt><trkpt lat="44.3599606" lon="7.8705108"><ele>549.0</ele><time>2026-05-03T12:23:07.765Z</time></trkpt><trkpt lat="44.3600318" lon="7.8704571"><ele>547.2</ele><time>2026-05-03T12:23:08.751Z</time></trkpt><trkpt lat="44.360103" lon="7.8703896"><ele>545.4</ele><time>2026-05-03T12:23:09.751Z</time></trkpt><trkpt lat="44.3601651" lon="7.8703062"><ele>543.6</ele><time>2026-05-03T12:23:10.754Z</time></trkpt><trkpt lat="44.3602509" lon="7.8702413"><ele>541.8</ele><time>2026-05-03T12:23:11.751Z</time></trkpt><trkpt lat="44.3603448" lon="7.8701733"><ele>540.0</ele><time>2026-05-03T12:23:12.752Z</time></trkpt><trkpt lat="44.3604383" lon="7.8701098"><ele>540.2</ele><time>2026-05-03T12:23:13.752Z</time></trkpt><trkpt lat="44.3605268" lon="7.8700387"><ele>540.4</ele><time>2026-05-03T12:23:14.762Z</time></trkpt><trkpt lat="44.3606056" lon="7.8699654"><ele>540.6</ele><time>2026-05-03T12:23:15.759Z</time></trkpt><trkpt lat="44.3606849" lon="7.8698892"><ele>540.8</ele><time>2026-05-03T12:23:16.756Z</time></trkpt><trkpt lat="44.3607694" lon="7.8698126"><ele>541.0</ele><time>2026-05-03T12:23:17.758Z</time></trkpt><trkpt lat="44.3608531" lon="7.8697313"><ele>541.0</ele><time>2026-05-03T12:23:18.764Z</time></trkpt><trkpt lat="44.3609385" lon="7.8696507"><ele>541.0</ele><time>2026-05-03T12:23:19.751Z</time></trkpt><trkpt lat="44.3610276" lon="7.8695708"><ele>541.0</ele><time>2026-05-03T12:23:20.76Z</time></trkpt><trkpt lat="44.3611244" lon="7.869499"><ele>541.0</ele><time>2026-05-03T12:23:21.755Z</time></trkpt><trkpt lat="44.3612227" lon="7.8694281"><ele>541.0</ele><time>2026-05-03T12:23:22.754Z</time></trkpt><trkpt lat="44.3613201" lon="7.8693561"><ele>541.0</ele><time>2026-05-03T12:23:23.756Z</time></trkpt><trkpt lat="44.361414" lon="7.8692899"><ele>541.0</ele><time>2026-05-03T12:23:24.753Z</time></trkpt><trkpt lat="44.3615052" lon="7.8692338"><ele>541.0</ele><time>2026-05-03T12:23:25.757Z</time></trkpt><trkpt lat="44.3615897" lon="7.8691829"><ele>541.0</ele><time>2026-05-03T12:23:26.758Z</time></trkpt><trkpt lat="44.3616712" lon="7.8691382"><ele>541.0</ele><time>2026-05-03T12:23:27.757Z</time></trkpt><trkpt lat="44.3617475" lon="7.8690992"><ele>539.8333333333334</ele><time>2026-05-03T12:23:28.758Z</time></trkpt><trkpt lat="44.3618245" lon="7.8690611"><ele>538.6666666666667</ele><time>2026-05-03T12:23:29.758Z</time></trkpt><trkpt lat="44.3618974" lon="7.8690249"><ele>537.5</ele><time>2026-05-03T12:23:30.754Z</time></trkpt><trkpt lat="44.3619589" lon="7.8689948"><ele>536.3333333333334</ele><time>2026-05-03T12:23:31.757Z</time></trkpt><trkpt lat="44.3620775" lon="7.8689225"><ele>535.1666666666666</ele><time>2026-05-03T12:23:33.759Z</time></trkpt><trkpt lat="44.3621318" lon="7.8688693"><ele>534.0</ele><time>2026-05-03T12:23:34.753Z</time></trkpt><trkpt lat="44.36222" lon="7.8687422"><ele>534.0</ele><time>2026-05-03T12:23:36.75Z</time></trkpt><trkpt lat="44.3622628" lon="7.8686498"><ele>534.0</ele><time>2026-05-03T12:23:37.758Z</time></trkpt><trkpt lat="44.3623167" lon="7.8685463"><ele>534.0</ele><time>2026-05-03T12:23:38.752Z</time></trkpt><trkpt lat="44.3623761" lon="7.8684441"><ele>534.0</ele><time>2026-05-03T12:23:39.751Z</time></trkpt><trkpt lat="44.3624368" lon="7.8683433"><ele>534.0</ele><time>2026-05-03T12:23:40.754Z</time></trkpt><trkpt lat="44.3624926" lon="7.8682483"><ele>534.0</ele><time>2026-05-03T12:23:41.756Z</time></trkpt><trkpt lat="44.3625455" lon="7.8681586"><ele>532.5</ele><time>2026-05-03T12:23:42.75Z</time></trkpt><trkpt lat="44.3625972" lon="7.8680744"><ele>531.0</ele><time>2026-05-03T12:23:43.757Z</time></trkpt><trkpt lat="44.3626448" lon="7.8679882"><ele>529.5</ele><time>2026-05-03T12:23:44.755Z</time></trkpt><trkpt lat="44.3626817" lon="7.8679079"><ele>528.0</ele><time>2026-05-03T12:23:45.759Z</time></trkpt><trkpt lat="44.3627149" lon="7.8678128"><ele>526.5</ele><time>2026-05-03T12:23:46.759Z</time></trkpt><trkpt lat="44.3627458" lon="7.8677228"><ele>525.0</ele><time>2026-05-03T12:23:47.757Z</time></trkpt><trkpt lat="44.3627736" lon="7.8675976"><ele>524.3333333333334</ele><time>2026-05-03T12:23:48.754Z</time></trkpt><trkpt lat="44.3627959" lon="7.8674853"><ele>523.6666666666666</ele><time>2026-05-03T12:23:49.759Z</time></trkpt><trkpt lat="44.3628198" lon="7.8673799"><ele>523.0</ele><time>2026-05-03T12:23:50.768Z</time></trkpt><trkpt lat="44.3628525" lon="7.8672773"><ele>522.3333333333333</ele><time>2026-05-03T12:23:51.756Z</time></trkpt><trkpt lat="44.362896" lon="7.8671867"><ele>521.6666666666666</ele><time>2026-05-03T12:23:52.759Z</time></trkpt><trkpt lat="44.3629401" lon="7.8671037"><ele>521.0</ele><time>2026-05-03T12:23:53.753Z</time></trkpt><trkpt lat="44.3629868" lon="7.8670108"><ele>520.4</ele><time>2026-05-03T12:23:54.756Z</time></trkpt><trkpt lat="44.3630625" lon="7.8669131"><ele>519.8</ele><time>2026-05-03T12:23:55.758Z</time></trkpt><trkpt lat="44.3631344" lon="7.8668055"><ele>519.1999999999999</ele><time>2026-05-03T12:23:56.759Z</time></trkpt><trkpt lat="44.3631978" lon="7.8666975"><ele>518.6</ele><time>2026-05-03T12:23:57.753Z</time></trkpt><trkpt lat="44.3632579" lon="7.8666018"><ele>518.0</ele><time>2026-05-03T12:23:58.753Z</time></trkpt><trkpt lat="44.3633135" lon="7.8665135"><ele>517.6666666666666</ele><time>2026-05-03T12:23:59.757Z</time></trkpt><trkpt lat="44.3633669" lon="7.8664194"><ele>517.3333333333333</ele><time>2026-05-03T12:24:00.759Z</time></trkpt><trkpt lat="44.363425" lon="7.8663327"><ele>517.0</ele><time>2026-05-03T12:24:01.756Z</time></trkpt><trkpt lat="44.3634915" lon="7.8662569"><ele>516.6666666666666</ele><time>2026-05-03T12:24:02.75Z</time></trkpt><trkpt lat="44.3635604" lon="7.8661894"><ele>516.3333333333334</ele><time>2026-05-03T12:24:03.758Z</time></trkpt><trkpt lat="44.3636425" lon="7.8661228"><ele>516.0</ele><time>2026-05-03T12:24:04.754Z</time></trkpt><trkpt lat="44.3637258" lon="7.8660575"><ele>516.0</ele><time>2026-05-03T12:24:05.757Z</time></trkpt><trkpt lat="44.3638227" lon="7.8659943"><ele>516.0</ele><time>2026-05-03T12:24:06.754Z</time></trkpt><trkpt lat="44.3639173" lon="7.8659302"><ele>516.0</ele><time>2026-05-03T12:24:07.754Z</time></trkpt><trkpt lat="44.3640131" lon="7.8658609"><ele>516.0</ele><time>2026-05-03T12:24:08.755Z</time></trkpt><trkpt lat="44.3641039" lon="7.8658015"><ele>516.0</ele><time>2026-05-03T12:24:09.755Z</time></trkpt><trkpt lat="44.3641817" lon="7.8657446"><ele>516.2</ele><time>2026-05-03T12:24:10.758Z</time></trkpt><trkpt lat="44.364242" lon="7.8656904"><ele>516.4000000000001</ele><time>2026-05-03T12:24:11.775Z</time></trkpt><trkpt lat="44.364315" lon="7.8656093"><ele>516.6</ele><time>2026-05-03T12:24:13.756Z</time></trkpt><trkpt lat="44.3644079" lon="7.8656112"><ele>516.8000000000001</ele><time>2026-05-03T12:24:17.757Z</time></trkpt><trkpt lat="44.3644822" lon="7.8657489"><ele>517.0</ele><time>2026-05-03T12:24:19.754Z</time></trkpt><trkpt lat="44.3645181" lon="7.8658458"><ele>516.8000000000001</ele><time>2026-05-03T12:24:20.755Z</time></trkpt><trkpt lat="44.3645517" lon="7.8659576"><ele>516.6</ele><time>2026-05-03T12:24:21.754Z</time></trkpt><trkpt lat="44.3645906" lon="7.8660782"><ele>516.4000000000001</ele><time>2026-05-03T12:24:22.75Z</time></trkpt><trkpt lat="44.3646375" lon="7.866204"><ele>516.2</ele><time>2026-05-03T12:24:23.756Z</time></trkpt><trkpt lat="44.3646857" lon="7.8663362"><ele>516.0</ele><time>2026-05-03T12:24:24.757Z</time></trkpt><trkpt lat="44.3647319" lon="7.8664732"><ele>516.0</ele><time>2026-05-03T12:24:25.753Z</time></trkpt><trkpt lat="44.3647823" lon="7.8666197"><ele>516.0</ele><time>2026-05-03T12:24:26.751Z</time></trkpt><trkpt lat="44.3648344" lon="7.8667737"><ele>516.0</ele><time>2026-05-03T12:24:27.756Z</time></trkpt><trkpt lat="44.3648901" lon="7.8669351"><ele>516.0</ele><time>2026-05-03T12:24:28.759Z</time></trkpt><trkpt lat="44.3649479" lon="7.8671025"><ele>516.0</ele><time>2026-05-03T12:24:29.759Z</time></trkpt><trkpt lat="44.3650109" lon="7.8672766"><ele>516.0</ele><time>2026-05-03T12:24:30.757Z</time></trkpt><trkpt lat="44.3650751" lon="7.8674597"><ele>516.0</ele><time>2026-05-03T12:24:31.754Z</time></trkpt><trkpt lat="44.3651429" lon="7.8676488"><ele>516.0</ele><time>2026-05-03T12:24:32.759Z</time></trkpt><trkpt lat="44.3652098" lon="7.8678416"><ele>516.0</ele><time>2026-05-03T12:24:33.756Z</time></trkpt><trkpt lat="44.3652749" lon="7.868028"><ele>516.0</ele><time>2026-05-03T12:24:34.752Z</time></trkpt><trkpt lat="44.3653377" lon="7.868206"><ele>516.0</ele><time>2026-05-03T12:24:35.755Z</time></trkpt><trkpt lat="44.3653915" lon="7.8683635"><ele>516.0</ele><time>2026-05-03T12:24:36.751Z</time></trkpt><trkpt lat="44.365441" lon="7.868513"><ele>516.6</ele><time>2026-05-03T12:24:37.752Z</time></trkpt><trkpt lat="44.365484" lon="7.8686538"><ele>517.2</ele><time>2026-05-03T12:24:38.752Z</time></trkpt><trkpt lat="44.3655221" lon="7.8687878"><ele>517.8</ele><time>2026-05-03T12:24:39.756Z</time></trkpt><trkpt lat="44.3655542" lon="7.8689132"><ele>518.4</ele><time>2026-05-03T12:24:40.758Z</time></trkpt><trkpt lat="44.3655764" lon="7.8690275"><ele>519.0</ele><time>2026-05-03T12:24:41.751Z</time></trkpt><trkpt lat="44.3655845" lon="7.8691282"><ele>519.0</ele><time>2026-05-03T12:24:42.76Z</time></trkpt><trkpt lat="44.3655838" lon="7.869231"><ele>519.0</ele><time>2026-05-03T12:24:44.75Z</time></trkpt><trkpt lat="44.3655476" lon="7.8693162"><ele>519.0</ele><time>2026-05-03T12:24:47.755Z</time></trkpt><trkpt lat="44.3654757" lon="7.8694633"><ele>519.0</ele><time>2026-05-03T12:24:49.75Z</time></trkpt><trkpt lat="44.3654594" lon="7.8695589"><ele>519.0</ele><time>2026-05-03T12:24:50.762Z</time></trkpt><trkpt lat="44.3654446" lon="7.8696561"><ele>519.0</ele><time>2026-05-03T12:24:51.757Z</time></trkpt><trkpt lat="44.3654925" lon="7.8697321"><ele>519.0</ele><time>2026-05-03T12:24:52.757Z</time></trkpt><trkpt lat="44.3655653" lon="7.8697817"><ele>519.0</ele><time>2026-05-03T12:24:53.763Z</time></trkpt><trkpt lat="44.3656514" lon="7.8698029"><ele>519.0</ele><time>2026-05-03T12:24:54.759Z</time></trkpt><trkpt lat="44.3657412" lon="7.8698312"><ele>519.0</ele><time>2026-05-03T12:24:55.758Z</time></trkpt><trkpt lat="44.365831" lon="7.8698979"><ele>519.0</ele><time>2026-05-03T12:24:56.757Z</time></trkpt><trkpt lat="44.3659122" lon="7.8700101"><ele>519.5</ele><time>2026-05-03T12:24:57.748Z</time></trkpt><trkpt lat="44.3659847" lon="7.8701578"><ele>520.0</ele><time>2026-05-03T12:24:58.757Z</time></trkpt><trkpt lat="44.3660571" lon="7.8703371"><ele>520.5</ele><time>2026-05-03T12:24:59.755Z</time></trkpt><trkpt lat="44.3661311" lon="7.8705433"><ele>521.0</ele><time>2026-05-03T12:25:00.755Z</time></trkpt><trkpt lat="44.3662098" lon="7.8707617"><ele>522.6666666666666</ele><time>2026-05-03T12:25:01.758Z</time></trkpt><trkpt lat="44.3662943" lon="7.8709935"><ele>524.3333333333334</ele><time>2026-05-03T12:25:02.753Z</time></trkpt><trkpt lat="44.3663799" lon="7.8712328"><ele>526.0</ele><time>2026-05-03T12:25:03.759Z</time></trkpt><trkpt lat="44.3664721" lon="7.8714836"><ele>527.0</ele><time>2026-05-03T12:25:04.757Z</time></trkpt><trkpt lat="44.3665674" lon="7.8717427"><ele>528.0</ele><time>2026-05-03T12:25:05.763Z</time></trkpt><trkpt lat="44.3666666" lon="7.8720133"><ele>529.0</ele><time>2026-05-03T12:25:06.754Z</time></trkpt><trkpt lat="44.3667667" lon="7.872292"><ele>530.0</ele><time>2026-05-03T12:25:07.753Z</time></trkpt><trkpt lat="44.3668683" lon="7.8725749"><ele>531.0</ele><time>2026-05-03T12:25:08.785Z</time></trkpt><trkpt lat="44.3669701" lon="7.872853"><ele>531.3333333333334</ele><time>2026-05-03T12:25:09.788Z</time></trkpt><trkpt lat="44.3670684" lon="7.8731244"><ele>531.6666666666667</ele><time>2026-05-03T12:25:10.751Z</time></trkpt><trkpt lat="44.3671604" lon="7.8733879"><ele>532.0</ele><time>2026-05-03T12:25:11.765Z</time></trkpt><trkpt lat="44.3672491" lon="7.8736445"><ele>536.3333333333334</ele><time>2026-05-03T12:25:12.753Z</time></trkpt><trkpt lat="44.3673324" lon="7.8738848"><ele>540.6666666666666</ele><time>2026-05-03T12:25:13.752Z</time></trkpt><trkpt lat="44.3674146" lon="7.8741191"><ele>545.0</ele><time>2026-05-03T12:25:14.754Z</time></trkpt><trkpt lat="44.3674924" lon="7.8743511"><ele>542.5</ele><time>2026-05-03T12:25:15.752Z</time></trkpt><trkpt lat="44.3675701" lon="7.8745707"><ele>540.0</ele><time>2026-05-03T12:25:16.748Z</time></trkpt><trkpt lat="44.3682386" lon="7.8763528"><ele>540.0</ele><time>2026-05-03T12:25:24.789Z</time></trkpt><trkpt lat="44.3683078" lon="7.8765869"><ele>540.0</ele><time>2026-05-03T12:25:25.752Z</time></trkpt><trkpt lat="44.3684031" lon="7.876827"><ele>540.0</ele><time>2026-05-03T12:25:26.757Z</time></trkpt><trkpt lat="44.3684832" lon="7.8770899"><ele>535.6666666666666</ele><time>2026-05-03T12:25:27.782Z</time></trkpt><trkpt lat="44.3685639" lon="7.877325"><ele>531.3333333333333</ele><time>2026-05-03T12:25:28.755Z</time></trkpt><trkpt lat="44.3686473" lon="7.8775573"><ele>527.0</ele><time>2026-05-03T12:25:29.754Z</time></trkpt><trkpt lat="44.368723" lon="7.8777774"><ele>525.3333333333333</ele><time>2026-05-03T12:25:30.759Z</time></trkpt><trkpt lat="44.3687887" lon="7.8779852"><ele>523.6666666666666</ele><time>2026-05-03T12:25:31.757Z</time></trkpt><trkpt lat="44.3688593" lon="7.8781868"><ele>522.0</ele><time>2026-05-03T12:25:32.752Z</time></trkpt><trkpt lat="44.3689264" lon="7.8783774"><ele>521.75</ele><time>2026-05-03T12:25:33.752Z</time></trkpt><trkpt lat="44.3689914" lon="7.878567"><ele>521.5</ele><time>2026-05-03T12:25:34.758Z</time></trkpt><trkpt lat="44.3690499" lon="7.8787415"><ele>521.25</ele><time>2026-05-03T12:25:35.8Z</time></trkpt><trkpt lat="44.3690927" lon="7.8789044"><ele>521.0</ele><time>2026-05-03T12:25:36.76Z</time></trkpt><trkpt lat="44.3691176" lon="7.8790734"><ele>521.0</ele><time>2026-05-03T12:25:37.757Z</time></trkpt><trkpt lat="44.3691193" lon="7.8792511"><ele>521.0</ele><time>2026-05-03T12:25:38.756Z</time></trkpt><trkpt lat="44.3690928" lon="7.8794317"><ele>521.0</ele><time>2026-05-03T12:25:39.762Z</time></trkpt><trkpt lat="44.3690368" lon="7.8796054"><ele>521.0</ele><time>2026-05-03T12:25:40.755Z</time></trkpt><trkpt lat="44.3689512" lon="7.8797607"><ele>519.6666666666666</ele><time>2026-05-03T12:25:41.758Z</time></trkpt><trkpt lat="44.3688513" lon="7.8799148"><ele>518.3333333333334</ele><time>2026-05-03T12:25:42.754Z</time></trkpt><trkpt lat="44.3687461" lon="7.8800732"><ele>517.0</ele><time>2026-05-03T12:25:43.786Z</time></trkpt><trkpt lat="44.3686375" lon="7.8802367"><ele>517.0</ele><time>2026-05-03T12:25:44.753Z</time></trkpt><trkpt lat="44.3685297" lon="7.8803999"><ele>517.0</ele><time>2026-05-03T12:25:45.758Z</time></trkpt><trkpt lat="44.3684268" lon="7.8805553"><ele>517.0</ele><time>2026-05-03T12:25:46.76Z</time></trkpt><trkpt lat="44.3683272" lon="7.8807041"><ele>517.0</ele><time>2026-05-03T12:25:47.752Z</time></trkpt><trkpt lat="44.3682317" lon="7.8808446"><ele>517.0</ele><time>2026-05-03T12:25:48.756Z</time></trkpt><trkpt lat="44.3681446" lon="7.8809822"><ele>517.0</ele><time>2026-05-03T12:25:49.757Z</time></trkpt><trkpt lat="44.3680711" lon="7.8811289"><ele>517.0</ele><time>2026-05-03T12:25:50.752Z</time></trkpt><trkpt lat="44.3680203" lon="7.8813026"><ele>514.6666666666667</ele><time>2026-05-03T12:25:51.754Z</time></trkpt><trkpt lat="44.3679974" lon="7.8815004"><ele>512.3333333333334</ele><time>2026-05-03T12:25:52.753Z</time></trkpt><trkpt lat="44.3679995" lon="7.8817116"><ele>510.0</ele><time>2026-05-03T12:25:53.762Z</time></trkpt><trkpt lat="44.36803" lon="7.8819291"><ele>510.0</ele><time>2026-05-03T12:25:54.758Z</time></trkpt><trkpt lat="44.3680861" lon="7.8821473"><ele>510.0</ele><time>2026-05-03T12:25:55.752Z</time></trkpt><trkpt lat="44.3681543" lon="7.8823681"><ele>510.0</ele><time>2026-05-03T12:25:56.755Z</time></trkpt><trkpt lat="44.3682257" lon="7.8825927"><ele>507.0</ele><time>2026-05-03T12:25:57.758Z</time></trkpt><trkpt lat="44.3682971" lon="7.8828102"><ele>504.0</ele><time>2026-05-03T12:25:58.755Z</time></trkpt><trkpt lat="44.3683706" lon="7.8830211"><ele>501.0</ele><time>2026-05-03T12:25:59.755Z</time></trkpt><trkpt lat="44.3684523" lon="7.883227"><ele>501.0</ele><time>2026-05-03T12:26:00.801Z</time></trkpt><trkpt lat="44.3685461" lon="7.8834229"><ele>501.0</ele><time>2026-05-03T12:26:01.753Z</time></trkpt><trkpt lat="44.3686527" lon="7.883606"><ele>501.0</ele><time>2026-05-03T12:26:02.755Z</time></trkpt><trkpt lat="44.3687661" lon="7.8837805"><ele>502.33333333333337</ele><time>2026-05-03T12:26:03.764Z</time></trkpt><trkpt lat="44.3688823" lon="7.8839508"><ele>503.6666666666667</ele><time>2026-05-03T12:26:04.758Z</time></trkpt><trkpt lat="44.3690017" lon="7.884122"><ele>505.0</ele><time>2026-05-03T12:26:05.755Z</time></trkpt><trkpt lat="44.369122" lon="7.8842904"><ele>500.6666666666667</ele><time>2026-05-03T12:26:06.758Z</time></trkpt><trkpt lat="44.3692419" lon="7.884452"><ele>496.33333333333337</ele><time>2026-05-03T12:26:07.757Z</time></trkpt><trkpt lat="44.3693655" lon="7.884611"><ele>492.0</ele><time>2026-05-03T12:26:08.755Z</time></trkpt><trkpt lat="44.3694951" lon="7.8847651"><ele>492.0</ele><time>2026-05-03T12:26:09.771Z</time></trkpt><trkpt lat="44.3696287" lon="7.884915"><ele>492.0</ele><time>2026-05-03T12:26:10.757Z</time></trkpt><trkpt lat="44.3697589" lon="7.8850541"><ele>492.0</ele><time>2026-05-03T12:26:11.759Z</time></trkpt><trkpt lat="44.3698855" lon="7.885182"><ele>490.0</ele><time>2026-05-03T12:26:12.749Z</time></trkpt><trkpt lat="44.3700099" lon="7.8853031"><ele>488.0</ele><time>2026-05-03T12:26:13.759Z</time></trkpt><trkpt lat="44.3701378" lon="7.885424"><ele>486.0</ele><time>2026-05-03T12:26:14.755Z</time></trkpt><trkpt lat="44.3702654" lon="7.885544"><ele>486.0</ele><time>2026-05-03T12:26:15.755Z</time></trkpt><trkpt lat="44.3703868" lon="7.8856587"><ele>486.0</ele><time>2026-05-03T12:26:16.755Z</time></trkpt><trkpt lat="44.370504" lon="7.8857685"><ele>486.0</ele><time>2026-05-03T12:26:17.761Z</time></trkpt><trkpt lat="44.3706172" lon="7.8858719"><ele>486.0</ele><time>2026-05-03T12:26:18.76Z</time></trkpt><trkpt lat="44.3707227" lon="7.8859681"><ele>484.20000000000005</ele><time>2026-05-03T12:26:19.76Z</time></trkpt><trkpt lat="44.370822" lon="7.8860628"><ele>482.40000000000003</ele><time>2026-05-03T12:26:20.751Z</time></trkpt><trkpt lat="44.3709152" lon="7.8861533"><ele>480.6</ele><time>2026-05-03T12:26:21.757Z</time></trkpt><trkpt lat="44.371003" lon="7.8862399"><ele>478.8</ele><time>2026-05-03T12:26:22.764Z</time></trkpt><trkpt lat="44.3710887" lon="7.8863232"><ele>477.0</ele><time>2026-05-03T12:26:23.754Z</time></trkpt><trkpt lat="44.3711692" lon="7.8863989"><ele>477.0</ele><time>2026-05-03T12:26:24.759Z</time></trkpt><trkpt lat="44.3712384" lon="7.886465"><ele>477.00000000000006</ele><time>2026-05-03T12:26:25.753Z</time></trkpt><trkpt lat="44.3712927" lon="7.8865189"><ele>477.00000000000006</ele><time>2026-05-03T12:26:26.759Z</time></trkpt><trkpt lat="44.3713576" lon="7.8865895"><ele>477.0</ele><time>2026-05-03T12:26:28.758Z</time></trkpt><trkpt lat="44.3714622" lon="7.8865363"><ele>477.0</ele><time>2026-05-03T12:26:35.766Z</time></trkpt><trkpt lat="44.3714586" lon="7.8863581"><ele>479.0</ele><time>2026-05-03T12:26:37.763Z</time></trkpt><trkpt lat="44.3714613" lon="7.8862288"><ele>481.00000000000006</ele><time>2026-05-03T12:26:38.764Z</time></trkpt><trkpt lat="44.371474" lon="7.8860839"><ele>483.00000000000006</ele><time>2026-05-03T12:26:39.761Z</time></trkpt><trkpt lat="44.3714969" lon="7.8859241"><ele>485.0</ele><time>2026-05-03T12:26:40.759Z</time></trkpt><trkpt lat="44.3715231" lon="7.8857537"><ele>487.0</ele><time>2026-05-03T12:26:41.757Z</time></trkpt><trkpt lat="44.3715632" lon="7.8855753"><ele>487.25</ele><time>2026-05-03T12:26:42.755Z</time></trkpt><trkpt lat="44.3716031" lon="7.8854073"><ele>487.5</ele><time>2026-05-03T12:26:43.761Z</time></trkpt><trkpt lat="44.3716436" lon="7.8852408"><ele>487.75</ele><time>2026-05-03T12:26:44.755Z</time></trkpt><trkpt lat="44.3716828" lon="7.8850906"><ele>488.0</ele><time>2026-05-03T12:26:45.76Z</time></trkpt><trkpt lat="44.3717168" lon="7.8849379"><ele>487.25</ele><time>2026-05-03T12:26:46.757Z</time></trkpt><trkpt lat="44.3717647" lon="7.8847952"><ele>486.5</ele><time>2026-05-03T12:26:47.752Z</time></trkpt><trkpt lat="44.3718199" lon="7.884649"><ele>485.75</ele><time>2026-05-03T12:26:48.759Z</time></trkpt><trkpt lat="44.371867" lon="7.8844939"><ele>485.0</ele><time>2026-05-03T12:26:49.75Z</time></trkpt><trkpt lat="44.3719128" lon="7.8843456"><ele>485.2</ele><time>2026-05-03T12:26:50.759Z</time></trkpt><trkpt lat="44.3719619" lon="7.8842152"><ele>485.4</ele><time>2026-05-03T12:26:51.754Z</time></trkpt><trkpt lat="44.3720073" lon="7.8840922"><ele>485.6</ele><time>2026-05-03T12:26:52.75Z</time></trkpt><trkpt lat="44.3720584" lon="7.8839939"><ele>485.8</ele><time>2026-05-03T12:26:53.754Z</time></trkpt><trkpt lat="44.372119" lon="7.883907"><ele>486.0</ele><time>2026-05-03T12:26:54.753Z</time></trkpt><trkpt lat="44.3721931" lon="7.8838227"><ele>486.20000000000005</ele><time>2026-05-03T12:26:55.755Z</time></trkpt><trkpt lat="44.3722759" lon="7.8837353"><ele>486.40000000000003</ele><time>2026-05-03T12:26:56.755Z</time></trkpt><trkpt lat="44.3723548" lon="7.883651"><ele>486.6</ele><time>2026-05-03T12:26:57.755Z</time></trkpt><trkpt lat="44.3724289" lon="7.8835605"><ele>486.8</ele><time>2026-05-03T12:26:58.762Z</time></trkpt><trkpt lat="44.3724924" lon="7.8834543"><ele>487.0</ele><time>2026-05-03T12:26:59.76Z</time></trkpt><trkpt lat="44.3725483" lon="7.8833363"><ele>487.0</ele><time>2026-05-03T12:27:00.76Z</time></trkpt><trkpt lat="44.3726013" lon="7.883209"><ele>487.00000000000006</ele><time>2026-05-03T12:27:01.773Z</time></trkpt><trkpt lat="44.3726538" lon="7.883074"><ele>487.00000000000006</ele><time>2026-05-03T12:27:02.763Z</time></trkpt><trkpt lat="44.3727091" lon="7.8829502"><ele>487.0</ele><time>2026-05-03T12:27:03.767Z</time></trkpt><trkpt lat="44.3727618" lon="7.8828444"><ele>487.0</ele><time>2026-05-03T12:27:04.755Z</time></trkpt><trkpt lat="44.3728155" lon="7.8827464"><ele>487.0</ele><time>2026-05-03T12:27:05.766Z</time></trkpt><trkpt lat="44.3728794" lon="7.8826551"><ele>487.00000000000006</ele><time>2026-05-03T12:27:06.77Z</time></trkpt><trkpt lat="44.3729517" lon="7.8825643"><ele>487.00000000000006</ele><time>2026-05-03T12:27:07.768Z</time></trkpt><trkpt lat="44.3730297" lon="7.8824677"><ele>487.0</ele><time>2026-05-03T12:27:08.752Z</time></trkpt><trkpt lat="44.3731132" lon="7.8823653"><ele>487.0</ele><time>2026-05-03T12:27:09.768Z</time></trkpt><trkpt lat="44.3732005" lon="7.8822611"><ele>488.0</ele><time>2026-05-03T12:27:10.763Z</time></trkpt><trkpt lat="44.3732898" lon="7.8821574"><ele>489.0</ele><time>2026-05-03T12:27:11.759Z</time></trkpt><trkpt lat="44.3733784" lon="7.8820491"><ele>490.0</ele><time>2026-05-03T12:27:12.756Z</time></trkpt><trkpt lat="44.3734646" lon="7.8819347"><ele>491.0</ele><time>2026-05-03T12:27:13.761Z</time></trkpt><trkpt lat="44.3735546" lon="7.8818146"><ele>491.25</ele><time>2026-05-03T12:27:14.76Z</time></trkpt><trkpt lat="44.3736492" lon="7.881698"><ele>491.5</ele><time>2026-05-03T12:27:15.769Z</time></trkpt><trkpt lat="44.3737413" lon="7.881587"><ele>491.75</ele><time>2026-05-03T12:27:16.758Z</time></trkpt><trkpt lat="44.3738277" lon="7.8814857"><ele>492.0</ele><time>2026-05-03T12:27:17.76Z</time></trkpt><trkpt lat="44.3739072" lon="7.8813956"><ele>492.20000000000005</ele><time>2026-05-03T12:27:18.763Z</time></trkpt><trkpt lat="44.3739883" lon="7.8813182"><ele>492.40000000000003</ele><time>2026-05-03T12:27:19.759Z</time></trkpt><trkpt lat="44.3740784" lon="7.8812557"><ele>492.59999999999997</ele><time>2026-05-03T12:27:20.762Z</time></trkpt><trkpt lat="44.3741731" lon="7.8812119"><ele>492.79999999999995</ele><time>2026-05-03T12:27:21.754Z</time></trkpt><trkpt lat="44.3742696" lon="7.8811869"><ele>493.0</ele><time>2026-05-03T12:27:22.774Z</time></trkpt><trkpt lat="44.3743603" lon="7.8811542"><ele>493.0</ele><time>2026-05-03T12:27:23.763Z</time></trkpt><trkpt lat="44.3744527" lon="7.8811186"><ele>492.99999999999994</ele><time>2026-05-03T12:27:24.762Z</time></trkpt><trkpt lat="44.3745379" lon="7.8810527"><ele>492.99999999999994</ele><time>2026-05-03T12:27:25.753Z</time></trkpt><trkpt lat="44.3746367" lon="7.8809908"><ele>493.0</ele><time>2026-05-03T12:27:26.766Z</time></trkpt><trkpt lat="44.3747332" lon="7.8809135"><ele>493.0</ele><time>2026-05-03T12:27:27.765Z</time></trkpt><trkpt lat="44.3748276" lon="7.8808376"><ele>493.00000000000006</ele><time>2026-05-03T12:27:28.763Z</time></trkpt><trkpt lat="44.3749164" lon="7.8807658"><ele>493.0</ele><time>2026-05-03T12:27:29.764Z</time></trkpt><trkpt lat="44.3749985" lon="7.8806995"><ele>493.0</ele><time>2026-05-03T12:27:30.759Z</time></trkpt><trkpt lat="44.3750675" lon="7.8806349"><ele>493.0</ele><time>2026-05-03T12:27:31.756Z</time></trkpt><trkpt lat="44.3751374" lon="7.8805675"><ele>493.00000000000006</ele><time>2026-05-03T12:27:32.766Z</time></trkpt><trkpt lat="44.3752084" lon="7.8805189"><ele>493.0</ele><time>2026-05-03T12:27:33.752Z</time></trkpt><trkpt lat="44.3752685" lon="7.8804712"><ele>493.0</ele><time>2026-05-03T12:27:34.759Z</time></trkpt><trkpt lat="44.3753239" lon="7.8804285"><ele>492.99999999999994</ele><time>2026-05-03T12:27:35.758Z</time></trkpt><trkpt lat="44.3753852" lon="7.8803524"><ele>492.99999999999994</ele><time>2026-05-03T12:27:37.757Z</time></trkpt><trkpt lat="44.3753757" lon="7.8802121"><ele>493.0</ele><time>2026-05-03T12:27:56.764Z</time></trkpt><trkpt lat="44.3753296" lon="7.8800711"><ele>493.0</ele><time>2026-05-03T12:27:58.796Z</time></trkpt><trkpt lat="44.3752632" lon="7.8799107"><ele>492.6666666666667</ele><time>2026-05-03T12:28:00.759Z</time></trkpt><trkpt lat="44.3752318" lon="7.8798269"><ele>492.33333333333337</ele><time>2026-05-03T12:28:01.756Z</time></trkpt><trkpt lat="44.3752037" lon="7.8797431"><ele>492.0</ele><time>2026-05-03T12:28:02.755Z</time></trkpt><trkpt lat="44.3751756" lon="7.8796597"><ele>491.66666666666663</ele><time>2026-05-03T12:28:03.758Z</time></trkpt><trkpt lat="44.3751681" lon="7.879493"><ele>491.3333333333333</ele><time>2026-05-03T12:28:05.762Z</time></trkpt><trkpt lat="44.3751982" lon="7.8794057"><ele>491.0</ele><time>2026-05-03T12:28:06.76Z</time></trkpt><trkpt lat="44.3752412" lon="7.8793267"><ele>491.66666666666663</ele><time>2026-05-03T12:28:07.758Z</time></trkpt><trkpt lat="44.3752901" lon="7.8792398"><ele>492.3333333333333</ele><time>2026-05-03T12:28:08.792Z</time></trkpt><trkpt lat="44.3753746" lon="7.8791089"><ele>493.0</ele><time>2026-05-03T12:28:10.757Z</time></trkpt><trkpt lat="44.3754188" lon="7.8790397"><ele>493.66666666666663</ele><time>2026-05-03T12:28:11.768Z</time></trkpt><trkpt lat="44.3754678" lon="7.8789663"><ele>494.3333333333333</ele><time>2026-05-03T12:28:12.757Z</time></trkpt><trkpt lat="44.3755278" lon="7.8788871"><ele>495.0</ele><time>2026-05-03T12:28:13.757Z</time></trkpt><trkpt lat="44.3755933" lon="7.878802"><ele>495.0</ele><time>2026-05-03T12:28:14.757Z</time></trkpt><trkpt lat="44.3756605" lon="7.8787178"><ele>495.0</ele><time>2026-05-03T12:28:15.76Z</time></trkpt><trkpt lat="44.3757136" lon="7.8786354"><ele>495.0</ele><time>2026-05-03T12:28:16.753Z</time></trkpt><trkpt lat="44.375759" lon="7.8785639"><ele>495.0</ele><time>2026-05-03T12:28:17.759Z</time></trkpt><trkpt lat="44.3757974" lon="7.8784255"><ele>495.0</ele><time>2026-05-03T12:28:19.752Z</time></trkpt><trkpt lat="44.3758143" lon="7.8782571"><ele>496.1666666666667</ele><time>2026-05-03T12:28:21.762Z</time></trkpt><trkpt lat="44.3758146" lon="7.8781649"><ele>497.33333333333337</ele><time>2026-05-03T12:28:22.758Z</time></trkpt><trkpt lat="44.3758122" lon="7.8780691"><ele>498.5</ele><time>2026-05-03T12:28:23.756Z</time></trkpt><trkpt lat="44.375803" lon="7.8779716"><ele>499.6666666666667</ele><time>2026-05-03T12:28:24.764Z</time></trkpt><trkpt lat="44.3757941" lon="7.87787"><ele>500.83333333333337</ele><time>2026-05-03T12:28:25.756Z</time></trkpt><trkpt lat="44.3757833" lon="7.8777722"><ele>502.0</ele><time>2026-05-03T12:28:26.76Z</time></trkpt><trkpt lat="44.3757475" lon="7.8776134"><ele>502.50000000000006</ele><time>2026-05-03T12:28:28.764Z</time></trkpt><trkpt lat="44.3757118" lon="7.8774504"><ele>503.0</ele><time>2026-05-03T12:28:30.754Z</time></trkpt><trkpt lat="44.3756924" lon="7.877365"><ele>503.5</ele><time>2026-05-03T12:28:31.758Z</time></trkpt><trkpt lat="44.3756703" lon="7.8772745"><ele>504.0</ele><time>2026-05-03T12:28:32.75Z</time></trkpt><trkpt lat="44.3756503" lon="7.8771064"><ele>504.50000000000006</ele><time>2026-05-03T12:28:34.757Z</time></trkpt><trkpt lat="44.3756549" lon="7.8770085"><ele>505.0</ele><time>2026-05-03T12:28:35.762Z</time></trkpt><trkpt lat="44.3756575" lon="7.8769201"><ele>505.00000000000006</ele><time>2026-05-03T12:28:36.76Z</time></trkpt><trkpt lat="44.3756729" lon="7.8767599"><ele>505.0</ele><time>2026-05-03T12:28:38.756Z</time></trkpt><trkpt lat="44.3756769" lon="7.8766491"><ele>505.0</ele><time>2026-05-03T12:28:40.754Z</time></trkpt><trkpt lat="44.3756746" lon="7.8765587"><ele>505.0</ele><time>2026-05-03T12:29:13.797Z</time></trkpt><trkpt lat="44.3757376" lon="7.876547"><ele>505.00000000000006</ele><time>2026-05-03T12:29:29.762Z</time></trkpt><trkpt lat="44.3757798" lon="7.876453"><ele>505.0</ele><time>2026-05-03T12:29:35.77Z</time></trkpt><trkpt lat="44.3757304" lon="7.8763533"><ele>505.0</ele><time>2026-05-03T12:29:37.762Z</time></trkpt><trkpt lat="44.3756982" lon="7.8762161"><ele>505.0</ele><time>2026-05-03T12:29:39.753Z</time></trkpt><trkpt lat="44.3756883" lon="7.8760782"><ele>505.0</ele><time>2026-05-03T12:29:41.757Z</time></trkpt><trkpt lat="44.3756406" lon="7.8759887"><ele>505.0</ele><time>2026-05-03T12:29:44.766Z</time></trkpt><trkpt lat="44.37559" lon="7.8759277"><ele>505.0</ele><time>2026-05-03T12:29:49.761Z</time></trkpt><trkpt lat="44.3755477" lon="7.8757889"><ele>507.6</ele><time>2026-05-03T12:29:52.758Z</time></trkpt><trkpt lat="44.3755153" lon="7.8756509"><ele>510.2</ele><time>2026-05-03T12:29:54.765Z</time></trkpt><trkpt lat="44.3754818" lon="7.8754949"><ele>512.8</ele><time>2026-05-03T12:29:56.755Z</time></trkpt><trkpt lat="44.3754587" lon="7.8753514"><ele>515.4</ele><time>2026-05-03T12:29:58.76Z</time></trkpt><trkpt lat="44.3754256" lon="7.8752572"><ele>518.0</ele><time>2026-05-03T12:30:00.761Z</time></trkpt><trkpt lat="44.3753624" lon="7.8751642"><ele>518.8</ele><time>2026-05-03T12:30:02.765Z</time></trkpt><trkpt lat="44.3753108" lon="7.8750865"><ele>519.5999999999999</ele><time>2026-05-03T12:30:04.759Z</time></trkpt><trkpt lat="44.3752597" lon="7.8749959"><ele>520.4000000000001</ele><time>2026-05-03T12:30:06.756Z</time></trkpt><trkpt lat="44.3752406" lon="7.8748641"><ele>521.2</ele><time>2026-05-03T12:30:08.761Z</time></trkpt><trkpt lat="44.3752725" lon="7.8747345"><ele>522.0</ele><time>2026-05-03T12:30:10.773Z</time></trkpt><trkpt lat="44.3752871" lon="7.8745972"><ele>522.0</ele><time>2026-05-03T12:30:12.762Z</time></trkpt><trkpt lat="44.3752895" lon="7.8744502"><ele>522.0</ele><time>2026-05-03T12:30:14.768Z</time></trkpt><trkpt lat="44.3753059" lon="7.8743153"><ele>522.0</ele><time>2026-05-03T12:30:16.756Z</time></trkpt><trkpt lat="44.3753153" lon="7.8741602"><ele>522.0</ele><time>2026-05-03T12:30:18.755Z</time></trkpt><trkpt lat="44.3753282" lon="7.874013"><ele>522.0</ele><time>2026-05-03T12:30:20.757Z</time></trkpt><trkpt lat="44.3753442" lon="7.8739076"><ele>523.6</ele><time>2026-05-03T12:30:22.763Z</time></trkpt><trkpt lat="44.3753539" lon="7.8737687"><ele>525.2</ele><time>2026-05-03T12:30:24.757Z</time></trkpt><trkpt lat="44.3753534" lon="7.8735988"><ele>526.8</ele><time>2026-05-03T12:30:26.765Z</time></trkpt><trkpt lat="44.3753418" lon="7.8734415"><ele>528.4</ele><time>2026-05-03T12:30:28.755Z</time></trkpt><trkpt lat="44.3752844" lon="7.8733519"><ele>530.0</ele><time>2026-05-03T12:30:30.757Z</time></trkpt><trkpt lat="44.3752022" lon="7.8733499"><ele>530.4</ele><time>2026-05-03T12:30:33.751Z</time></trkpt><trkpt lat="44.3752483" lon="7.8732445"><ele>530.8</ele><time>2026-05-03T12:30:37.76Z</time></trkpt><trkpt lat="44.3753743" lon="7.8732549"><ele>531.2</ele><time>2026-05-03T12:30:39.758Z</time></trkpt><trkpt lat="44.3754432" lon="7.87327"><ele>531.6</ele><time>2026-05-03T12:30:40.771Z</time></trkpt><trkpt lat="44.3755484" lon="7.8732686"><ele>532.0</ele><time>2026-05-03T12:30:42.753Z</time></trkpt><trkpt lat="44.3755816" lon="7.8731926"><ele>532.0</ele><time>2026-05-03T12:30:44.769Z</time></trkpt><trkpt lat="44.375539" lon="7.8730629"><ele>532.0</ele><time>2026-05-03T12:30:46.76Z</time></trkpt><trkpt lat="44.3754945" lon="7.8729754"><ele>532.0</ele><time>2026-05-03T12:30:47.761Z</time></trkpt><trkpt lat="44.375444" lon="7.872888"><ele>532.0</ele><time>2026-05-03T12:30:48.759Z</time></trkpt><trkpt lat="44.3753996" lon="7.8728007"><ele>532.0</ele><time>2026-05-03T12:30:49.767Z</time></trkpt><trkpt lat="44.3753578" lon="7.87272"><ele>532.0</ele><time>2026-05-03T12:30:50.759Z</time></trkpt><trkpt lat="44.375333" lon="7.8726324"><ele>534.5</ele><time>2026-05-03T12:30:51.768Z</time></trkpt><trkpt lat="44.3753069" lon="7.8725396"><ele>537.0</ele><time>2026-05-03T12:30:52.758Z</time></trkpt><trkpt lat="44.3752963" lon="7.8724162"><ele>539.5</ele><time>2026-05-03T12:30:53.756Z</time></trkpt><trkpt lat="44.3752791" lon="7.8722931"><ele>542.0</ele><time>2026-05-03T12:30:54.756Z</time></trkpt><trkpt lat="44.3752525" lon="7.8721775"><ele>544.5</ele><time>2026-05-03T12:30:55.761Z</time></trkpt><trkpt lat="44.3752211" lon="7.8720595"><ele>547.0</ele><time>2026-05-03T12:30:56.756Z</time></trkpt><trkpt lat="44.3751942" lon="7.8719559"><ele>547.0</ele><time>2026-05-03T12:30:57.763Z</time></trkpt><trkpt lat="44.3751462" lon="7.8717783"><ele>547.0</ele><time>2026-05-03T12:30:59.762Z</time></trkpt><trkpt lat="44.3751618" lon="7.8716536"><ele>547.0</ele><time>2026-05-03T12:31:00.755Z</time></trkpt><trkpt lat="44.3751819" lon="7.8715149"><ele>547.0</ele><time>2026-05-03T12:31:01.751Z</time></trkpt><trkpt lat="44.3752031" lon="7.8713649"><ele>547.0</ele><time>2026-05-03T12:31:02.759Z</time></trkpt><trkpt lat="44.3752246" lon="7.8712243"><ele>547.0</ele><time>2026-05-03T12:31:03.756Z</time></trkpt><trkpt lat="44.3752409" lon="7.8710858"><ele>547.0</ele><time>2026-05-03T12:31:04.761Z</time></trkpt><trkpt lat="44.3752541" lon="7.8709706"><ele>547.0</ele><time>2026-05-03T12:31:05.764Z</time></trkpt><trkpt lat="44.3752663" lon="7.8708595"><ele>547.0</ele><time>2026-05-03T12:31:06.771Z</time></trkpt><trkpt lat="44.3752689" lon="7.8707485"><ele>547.0</ele><time>2026-05-03T12:31:07.762Z</time></trkpt><trkpt lat="44.3752581" lon="7.8706467"><ele>547.0</ele><time>2026-05-03T12:31:08.768Z</time></trkpt><trkpt lat="44.3752368" lon="7.8705553"><ele>547.0</ele><time>2026-05-03T12:31:09.761Z</time></trkpt><trkpt lat="44.3751841" lon="7.8704047"><ele>547.0</ele><time>2026-05-03T12:31:11.759Z</time></trkpt><trkpt lat="44.3751476" lon="7.8703192"><ele>547.0</ele><time>2026-05-03T12:31:12.759Z</time></trkpt><trkpt lat="44.3751116" lon="7.870229"><ele>547.0</ele><time>2026-05-03T12:31:13.757Z</time></trkpt><trkpt lat="44.3750761" lon="7.87014"><ele>547.0</ele><time>2026-05-03T12:31:14.754Z</time></trkpt><trkpt lat="44.3750634" lon="7.8700371"><ele>547.0</ele><time>2026-05-03T12:31:15.772Z</time></trkpt><trkpt lat="44.3750493" lon="7.8699288"><ele>546.8333333333334</ele><time>2026-05-03T12:31:16.759Z</time></trkpt><trkpt lat="44.3750397" lon="7.8698127"><ele>546.6666666666667</ele><time>2026-05-03T12:31:17.772Z</time></trkpt><trkpt lat="44.3750355" lon="7.8696926"><ele>546.5</ele><time>2026-05-03T12:31:18.766Z</time></trkpt><trkpt lat="44.3750322" lon="7.8695726"><ele>546.3333333333334</ele><time>2026-05-03T12:31:19.763Z</time></trkpt><trkpt lat="44.3750195" lon="7.8694397"><ele>546.1666666666666</ele><time>2026-05-03T12:31:20.757Z</time></trkpt><trkpt lat="44.3750058" lon="7.8693319"><ele>546.0</ele><time>2026-05-03T12:31:21.761Z</time></trkpt><trkpt lat="44.3749935" lon="7.8692386"><ele>546.8</ele><time>2026-05-03T12:31:22.754Z</time></trkpt><trkpt lat="44.3749821" lon="7.8691261"><ele>547.6</ele><time>2026-05-03T12:31:24.763Z</time></trkpt><trkpt lat="44.3750635" lon="7.8690742"><ele>548.4</ele><time>2026-05-03T12:31:40.783Z</time></trkpt><trkpt lat="44.3751196" lon="7.8690258"><ele>549.2</ele><time>2026-05-03T12:31:42.794Z</time></trkpt><trkpt lat="44.375232" lon="7.8690047"><ele>550.0</ele><time>2026-05-03T12:31:44.759Z</time></trkpt><trkpt lat="44.3753405" lon="7.8690347"><ele>550.0</ele><time>2026-05-03T12:31:46.765Z</time></trkpt><trkpt lat="44.3754368" lon="7.8690399"><ele>550.0</ele><time>2026-05-03T12:31:48.757Z</time></trkpt><trkpt lat="44.3755417" lon="7.8690181"><ele>550.0</ele><time>2026-05-03T12:31:50.759Z</time></trkpt><trkpt lat="44.3756059" lon="7.868997"><ele>550.0</ele><time>2026-05-03T12:31:51.764Z</time></trkpt><trkpt lat="44.3756809" lon="7.8689646"><ele>550.0</ele><time>2026-05-03T12:31:52.756Z</time></trkpt><trkpt lat="44.3757574" lon="7.8689316"><ele>550.0</ele><time>2026-05-03T12:31:53.761Z</time></trkpt><trkpt lat="44.3758627" lon="7.8688931"><ele>548.4</ele><time>2026-05-03T12:31:55.765Z</time></trkpt><trkpt lat="44.3759656" lon="7.8688679"><ele>546.8</ele><time>2026-05-03T12:31:57.766Z</time></trkpt><trkpt lat="44.3760648" lon="7.8688491"><ele>545.2</ele><time>2026-05-03T12:31:59.762Z</time></trkpt><trkpt lat="44.3761687" lon="7.8688292"><ele>543.6</ele><time>2026-05-03T12:32:01.752Z</time></trkpt><trkpt lat="44.3762823" lon="7.8687924"><ele>542.0</ele><time>2026-05-03T12:32:03.761Z</time></trkpt><trkpt lat="44.3763899" lon="7.868748"><ele>542.0</ele><time>2026-05-03T12:32:05.759Z</time></trkpt><trkpt lat="44.3764629" lon="7.868716"><ele>542.0</ele><time>2026-05-03T12:32:07.753Z</time></trkpt><trkpt lat="44.3765353" lon="7.8687169"><ele>542.0</ele><time>2026-05-03T12:32:09.761Z</time></trkpt><trkpt lat="44.3766123" lon="7.8687181"><ele>542.0</ele><time>2026-05-03T12:32:11.759Z</time></trkpt><trkpt lat="44.3766959" lon="7.8686754"><ele>542.0</ele><time>2026-05-03T12:32:14.761Z</time></trkpt><trkpt lat="44.3767477" lon="7.8685891"><ele>542.0</ele><time>2026-05-03T12:32:18.758Z</time></trkpt><trkpt lat="44.3767875" lon="7.8685198"><ele>542.0</ele><time>2026-05-03T12:32:21.76Z</time></trkpt><trkpt lat="44.3768342" lon="7.8684476"><ele>542.0</ele><time>2026-05-03T12:32:25.761Z</time></trkpt><trkpt lat="44.3768917" lon="7.8683793"><ele>542.0</ele><time>2026-05-03T12:32:29.758Z</time></trkpt><trkpt lat="44.3769528" lon="7.8683287"><ele>542.0</ele><time>2026-05-03T12:32:32.753Z</time></trkpt><trkpt lat="44.3770244" lon="7.8682864"><ele>542.0</ele><time>2026-05-03T12:32:35.757Z</time></trkpt><trkpt lat="44.3771106" lon="7.8682726"><ele>542.0</ele><time>2026-05-03T12:33:17.762Z</time></trkpt><trkpt lat="44.3771867" lon="7.868233"><ele>541.3333333333333</ele><time>2026-05-03T12:33:20.758Z</time></trkpt><trkpt lat="44.3772528" lon="7.8682115"><ele>540.6666666666666</ele><time>2026-05-03T12:33:24.759Z</time></trkpt><trkpt lat="44.3773316" lon="7.8682617"><ele>540.0</ele><time>2026-05-03T12:34:26.763Z</time></trkpt><trkpt lat="44.3773825" lon="7.8683301"><ele>539.3333333333334</ele><time>2026-05-03T12:34:30.76Z</time></trkpt><trkpt lat="44.3774296" lon="7.8684237"><ele>538.6666666666667</ele><time>2026-05-03T12:34:33.754Z</time></trkpt><trkpt lat="44.3774936" lon="7.8685096"><ele>538.0</ele><time>2026-05-03T12:34:37.753Z</time></trkpt><trkpt lat="44.3775647" lon="7.8685775"><ele>536.8333333333334</ele><time>2026-05-03T12:34:40.764Z</time></trkpt><trkpt lat="44.3776278" lon="7.86864"><ele>535.6666666666667</ele><time>2026-05-03T12:34:56.774Z</time></trkpt><trkpt lat="44.3776992" lon="7.8686977"><ele>534.5</ele><time>2026-05-03T12:34:59.809Z</time></trkpt><trkpt lat="44.3777323" lon="7.8687799"><ele>533.3333333333334</ele><time>2026-05-03T12:35:01.76Z</time></trkpt><trkpt lat="44.3777778" lon="7.8688797"><ele>532.1666666666666</ele><time>2026-05-03T12:35:03.757Z</time></trkpt><trkpt lat="44.377828" lon="7.8689777"><ele>531.0</ele><time>2026-05-03T12:35:05.757Z</time></trkpt><trkpt lat="44.3778974" lon="7.869072"><ele>531.0</ele><time>2026-05-03T12:35:07.756Z</time></trkpt><trkpt lat="44.3779884" lon="7.8691783"><ele>531.0</ele><time>2026-05-03T12:35:09.763Z</time></trkpt><trkpt lat="44.3780725" lon="7.8692705"><ele>531.0</ele><time>2026-05-03T12:35:11.761Z</time></trkpt><trkpt lat="44.3781297" lon="7.8693459"><ele>531.0</ele><time>2026-05-03T12:35:13.759Z</time></trkpt><trkpt lat="44.378179" lon="7.8694316"><ele>531.0</ele><time>2026-05-03T12:35:15.759Z</time></trkpt><trkpt lat="44.3782227" lon="7.8695342"><ele>528.0</ele><time>2026-05-03T12:35:17.753Z</time></trkpt><trkpt lat="44.3782642" lon="7.8696345"><ele>525.0</ele><time>2026-05-03T12:35:19.759Z</time></trkpt><trkpt lat="44.3782957" lon="7.8697272"><ele>522.0</ele><time>2026-05-03T12:35:22.758Z</time></trkpt><trkpt lat="44.3783109" lon="7.8698295"><ele>519.0</ele><time>2026-05-03T12:35:26.764Z</time></trkpt><trkpt lat="44.3783425" lon="7.8699123"><ele>516.0</ele><time>2026-05-03T12:35:29.754Z</time></trkpt><trkpt lat="44.3783787" lon="7.8700052"><ele>513.0</ele><time>2026-05-03T12:35:32.76Z</time></trkpt><trkpt lat="44.3784285" lon="7.8700644"><ele>510.0</ele><time>2026-05-03T12:35:55.76Z</time></trkpt><trkpt lat="44.3784814" lon="7.8699955"><ele>510.0</ele><time>2026-05-03T12:35:59.771Z</time></trkpt><trkpt lat="44.3784885" lon="7.8698777"><ele>510.0</ele><time>2026-05-03T12:36:02.764Z</time></trkpt><trkpt lat="44.3785027" lon="7.8697656"><ele>510.0</ele><time>2026-05-03T12:36:04.762Z</time></trkpt><trkpt lat="44.3785353" lon="7.8696656"><ele>510.0</ele><time>2026-05-03T12:36:06.761Z</time></trkpt><trkpt lat="44.3785913" lon="7.8695793"><ele>510.0</ele><time>2026-05-03T12:36:08.758Z</time></trkpt><trkpt lat="44.3786861" lon="7.869487"><ele>510.0</ele><time>2026-05-03T12:36:10.758Z</time></trkpt><trkpt lat="44.378743" lon="7.8694424"><ele>510.0</ele><time>2026-05-03T12:36:11.775Z</time></trkpt><trkpt lat="44.3788032" lon="7.8693949"><ele>510.0</ele><time>2026-05-03T12:36:12.759Z</time></trkpt><trkpt lat="44.3788703" lon="7.8693419"><ele>510.0</ele><time>2026-05-03T12:36:13.764Z</time></trkpt><trkpt lat="44.3789428" lon="7.8692903"><ele>510.0</ele><time>2026-05-03T12:36:14.76Z</time></trkpt><trkpt lat="44.37902" lon="7.8692371"><ele>510.0</ele><time>2026-05-03T12:36:15.754Z</time></trkpt><trkpt lat="44.3790955" lon="7.8691834"><ele>510.0</ele><time>2026-05-03T12:36:16.772Z</time></trkpt><trkpt lat="44.3791649" lon="7.869132"><ele>509.3333333333333</ele><time>2026-05-03T12:36:17.761Z</time></trkpt><trkpt lat="44.3792256" lon="7.8690881"><ele>508.66666666666663</ele><time>2026-05-03T12:36:18.764Z</time></trkpt><trkpt lat="44.3793416" lon="7.8690158"><ele>508.0</ele><time>2026-05-03T12:36:20.758Z</time></trkpt><trkpt lat="44.3794035" lon="7.8689794"><ele>507.3333333333333</ele><time>2026-05-03T12:36:21.763Z</time></trkpt><trkpt lat="44.3794705" lon="7.8689366"><ele>506.66666666666663</ele><time>2026-05-03T12:36:22.765Z</time></trkpt><trkpt lat="44.3795354" lon="7.8688914"><ele>506.0</ele><time>2026-05-03T12:36:23.762Z</time></trkpt><trkpt lat="44.3795923" lon="7.8688516"><ele>505.99999999999994</ele><time>2026-05-03T12:36:24.757Z</time></trkpt><trkpt lat="44.379678" lon="7.8687941"><ele>506.0</ele><time>2026-05-03T12:36:26.766Z</time></trkpt><trkpt lat="44.3797351" lon="7.8687371"><ele>506.0</ele><time>2026-05-03T12:36:28.762Z</time></trkpt><trkpt lat="44.3797778" lon="7.8686295"><ele>506.0</ele><time>2026-05-03T12:36:30.764Z</time></trkpt><trkpt lat="44.3797549" lon="7.8685137"><ele>505.99999999999994</ele><time>2026-05-03T12:36:32.759Z</time></trkpt><trkpt lat="44.3797314" lon="7.8684316"><ele>506.0</ele><time>2026-05-03T12:36:34.761Z</time></trkpt><trkpt lat="44.3797988" lon="7.8683839"><ele>505.8</ele><time>2026-05-03T12:36:37.764Z</time></trkpt><trkpt lat="44.3798774" lon="7.8683924"><ele>505.6</ele><time>2026-05-03T12:36:39.761Z</time></trkpt><trkpt lat="44.3799731" lon="7.868352"><ele>505.4</ele><time>2026-05-03T12:36:41.76Z</time></trkpt><trkpt lat="44.3800796" lon="7.8682809"><ele>505.2</ele><time>2026-05-03T12:36:43.763Z</time></trkpt><trkpt lat="44.3801896" lon="7.8682082"><ele>505.0</ele><time>2026-05-03T12:36:45.763Z</time></trkpt><trkpt lat="44.3802824" lon="7.8681226"><ele>505.0</ele><time>2026-05-03T12:36:47.765Z</time></trkpt><trkpt lat="44.3803756" lon="7.8680292"><ele>505.0</ele><time>2026-05-03T12:36:49.758Z</time></trkpt><trkpt lat="44.3804512" lon="7.8679391"><ele>505.0</ele><time>2026-05-03T12:36:51.762Z</time></trkpt><trkpt lat="44.3805011" lon="7.8678466"><ele>505.0</ele><time>2026-05-03T12:36:53.765Z</time></trkpt><trkpt lat="44.3805262" lon="7.867712"><ele>505.0</ele><time>2026-05-03T12:36:55.759Z</time></trkpt><trkpt lat="44.3805444" lon="7.8675685"><ele>504.0</ele><time>2026-05-03T12:36:57.763Z</time></trkpt><trkpt lat="44.380554" lon="7.867434"><ele>503.0</ele><time>2026-05-03T12:36:59.758Z</time></trkpt><trkpt lat="44.3805803" lon="7.8672934"><ele>502.0</ele><time>2026-05-03T12:37:01.766Z</time></trkpt><trkpt lat="44.3805867" lon="7.8671487"><ele>501.0</ele><time>2026-05-03T12:37:03.762Z</time></trkpt><trkpt lat="44.3805782" lon="7.8670174"><ele>500.0</ele><time>2026-05-03T12:37:05.758Z</time></trkpt><trkpt lat="44.3805903" lon="7.8668682"><ele>501.16666666666663</ele><time>2026-05-03T12:37:07.75Z</time></trkpt><trkpt lat="44.3806363" lon="7.8667173"><ele>502.3333333333333</ele><time>2026-05-03T12:37:09.746Z</time></trkpt><trkpt lat="44.3806622" lon="7.8666244"><ele>503.5</ele><time>2026-05-03T12:37:10.754Z</time></trkpt><trkpt lat="44.3806819" lon="7.8665207"><ele>504.66666666666663</ele><time>2026-05-03T12:37:11.762Z</time></trkpt><trkpt lat="44.3807021" lon="7.8664092"><ele>505.8333333333333</ele><time>2026-05-03T12:37:12.778Z</time></trkpt><trkpt lat="44.3807228" lon="7.8662841"><ele>507.0</ele><time>2026-05-03T12:37:13.763Z</time></trkpt><trkpt lat="44.3807499" lon="7.8661661"><ele>507.0</ele><time>2026-05-03T12:37:14.753Z</time></trkpt><trkpt lat="44.3807791" lon="7.8660663"><ele>507.0</ele><time>2026-05-03T12:37:15.755Z</time></trkpt><trkpt lat="44.3808052" lon="7.8659729"><ele>507.0</ele><time>2026-05-03T12:37:16.755Z</time></trkpt><trkpt lat="44.3808244" lon="7.8658805"><ele>507.0</ele><time>2026-05-03T12:37:17.766Z</time></trkpt><trkpt lat="44.3808376" lon="7.8657753"><ele>507.0</ele><time>2026-05-03T12:37:18.762Z</time></trkpt><trkpt lat="44.3808398" lon="7.8656503"><ele>507.0</ele><time>2026-05-03T12:37:19.759Z</time></trkpt><trkpt lat="44.3808435" lon="7.8655154"><ele>509.0</ele><time>2026-05-03T12:37:20.756Z</time></trkpt><trkpt lat="44.3808551" lon="7.8653722"><ele>511.0</ele><time>2026-05-03T12:37:21.771Z</time></trkpt><trkpt lat="44.3808615" lon="7.8652382"><ele>513.0</ele><time>2026-05-03T12:37:22.759Z</time></trkpt><trkpt lat="44.3808679" lon="7.8651186"><ele>515.0</ele><time>2026-05-03T12:37:23.764Z</time></trkpt><trkpt lat="44.3808793" lon="7.8650076"><ele>517.0</ele><time>2026-05-03T12:37:24.762Z</time></trkpt><trkpt lat="44.3808894" lon="7.8649044"><ele>519.0</ele><time>2026-05-03T12:37:25.76Z</time></trkpt><trkpt lat="44.3809133" lon="7.8648068"><ele>520.6</ele><time>2026-05-03T12:37:26.767Z</time></trkpt><trkpt lat="44.38092" lon="7.8646715"><ele>522.2</ele><time>2026-05-03T12:37:28.755Z</time></trkpt><trkpt lat="44.380898" lon="7.8645848"><ele>523.8000000000001</ele><time>2026-05-03T12:37:30.762Z</time></trkpt><trkpt lat="44.3808133" lon="7.8645183"><ele>525.4</ele><time>2026-05-03T12:37:58.794Z</time></trkpt><trkpt lat="44.3806888" lon="7.8645159"><ele>527.0</ele><time>2026-05-03T12:38:00.756Z</time></trkpt><trkpt lat="44.3806162" lon="7.8645143"><ele>527.0</ele><time>2026-05-03T12:38:01.758Z</time></trkpt><trkpt lat="44.3805382" lon="7.8645075"><ele>527.0</ele><time>2026-05-03T12:38:02.758Z</time></trkpt><trkpt lat="44.3804671" lon="7.8644935"><ele>527.0</ele><time>2026-05-03T12:38:03.771Z</time></trkpt><trkpt lat="44.3804" lon="7.8644749"><ele>527.0</ele><time>2026-05-03T12:38:04.764Z</time></trkpt><trkpt lat="44.3802906" lon="7.8644655"><ele>527.0</ele><time>2026-05-03T12:38:06.767Z</time></trkpt><trkpt lat="44.3801656" lon="7.8644976"><ele>529.3333333333333</ele><time>2026-05-03T12:38:08.759Z</time></trkpt><trkpt lat="44.3800907" lon="7.8645134"><ele>531.6666666666666</ele><time>2026-05-03T12:38:09.771Z</time></trkpt><trkpt lat="44.3800119" lon="7.8645202"><ele>534.0</ele><time>2026-05-03T12:38:10.76Z</time></trkpt><trkpt lat="44.3799403" lon="7.8645324"><ele>536.3333333333334</ele><time>2026-05-03T12:38:11.766Z</time></trkpt><trkpt lat="44.3798723" lon="7.8645513"><ele>538.6666666666667</ele><time>2026-05-03T12:38:12.757Z</time></trkpt><trkpt lat="44.3798003" lon="7.8645872"><ele>541.0</ele><time>2026-05-03T12:38:13.762Z</time></trkpt><trkpt lat="44.3797237" lon="7.8646356"><ele>540.6666666666667</ele><time>2026-05-03T12:38:14.76Z</time></trkpt><trkpt lat="44.3796467" lon="7.8646875"><ele>540.3333333333334</ele><time>2026-05-03T12:38:15.762Z</time></trkpt><trkpt lat="44.3795664" lon="7.8647572"><ele>540.0</ele><time>2026-05-03T12:38:16.758Z</time></trkpt><trkpt lat="44.3794855" lon="7.8648326"><ele>539.6666666666666</ele><time>2026-05-03T12:38:17.76Z</time></trkpt><trkpt lat="44.3794166" lon="7.8648956"><ele>539.3333333333333</ele><time>2026-05-03T12:38:18.759Z</time></trkpt><trkpt lat="44.3793626" lon="7.8649507"><ele>539.0</ele><time>2026-05-03T12:38:19.763Z</time></trkpt><trkpt lat="44.3792848" lon="7.8650133"><ele>539.0</ele><time>2026-05-03T12:38:21.757Z</time></trkpt><trkpt lat="44.3792175" lon="7.8649325"><ele>539.0</ele><time>2026-05-03T12:38:25.79Z</time></trkpt><trkpt lat="44.3791789" lon="7.8648266"><ele>539.0</ele><time>2026-05-03T12:38:26.76Z</time></trkpt><trkpt lat="44.3791402" lon="7.8647262"><ele>539.0</ele><time>2026-05-03T12:38:27.764Z</time></trkpt><trkpt lat="44.3790929" lon="7.8646253"><ele>539.0</ele><time>2026-05-03T12:38:28.761Z</time></trkpt><trkpt lat="44.3790491" lon="7.8645382"><ele>539.0</ele><time>2026-05-03T12:38:29.751Z</time></trkpt><trkpt lat="44.3789985" lon="7.8644579"><ele>539.0</ele><time>2026-05-03T12:38:30.76Z</time></trkpt><trkpt lat="44.3789393" lon="7.8643908"><ele>539.0</ele><time>2026-05-03T12:38:31.756Z</time></trkpt><trkpt lat="44.37887" lon="7.8643226"><ele>539.0</ele><time>2026-05-03T12:38:32.759Z</time></trkpt><trkpt lat="44.3788038" lon="7.8642562"><ele>539.0</ele><time>2026-05-03T12:38:33.759Z</time></trkpt><trkpt lat="44.3787463" lon="7.8641925"><ele>539.0</ele><time>2026-05-03T12:38:34.759Z</time></trkpt><trkpt lat="44.3787015" lon="7.8641268"><ele>539.0</ele><time>2026-05-03T12:38:35.749Z</time></trkpt><trkpt lat="44.3786359" lon="7.8640008"><ele>538.8333333333333</ele><time>2026-05-03T12:38:37.756Z</time></trkpt><trkpt lat="44.3786134" lon="7.8639097"><ele>538.6666666666666</ele><time>2026-05-03T12:38:38.763Z</time></trkpt><trkpt lat="44.378598" lon="7.8638046"><ele>538.5</ele><time>2026-05-03T12:38:39.755Z</time></trkpt><trkpt lat="44.3785906" lon="7.8637038"><ele>538.3333333333334</ele><time>2026-05-03T12:38:40.767Z</time></trkpt><trkpt lat="44.3785895" lon="7.8636114"><ele>538.1666666666667</ele><time>2026-05-03T12:38:41.761Z</time></trkpt><trkpt lat="44.3785853" lon="7.8634357"><ele>538.0</ele><time>2026-05-03T12:38:43.754Z</time></trkpt><trkpt lat="44.3785848" lon="7.8633401"><ele>537.0</ele><time>2026-05-03T12:38:44.768Z</time></trkpt><trkpt lat="44.378583" lon="7.8632332"><ele>536.0</ele><time>2026-05-03T12:38:45.757Z</time></trkpt><trkpt lat="44.3785819" lon="7.8631274"><ele>535.0</ele><time>2026-05-03T12:38:46.757Z</time></trkpt><trkpt lat="44.3785781" lon="7.8630209"><ele>534.0</ele><time>2026-05-03T12:38:47.754Z</time></trkpt><trkpt lat="44.3785704" lon="7.8629093"><ele>533.0</ele><time>2026-05-03T12:38:48.758Z</time></trkpt><trkpt lat="44.3785607" lon="7.8628064"><ele>532.0</ele><time>2026-05-03T12:38:49.766Z</time></trkpt><trkpt lat="44.378539" lon="7.8626486"><ele>530.6666666666667</ele><time>2026-05-03T12:38:51.764Z</time></trkpt><trkpt lat="44.3785031" lon="7.8624877"><ele>529.3333333333334</ele><time>2026-05-03T12:38:53.771Z</time></trkpt><trkpt lat="44.378486" lon="7.86239"><ele>528.0</ele><time>2026-05-03T12:38:54.77Z</time></trkpt><trkpt lat="44.3784622" lon="7.8622823"><ele>526.6666666666666</ele><time>2026-05-03T12:38:55.754Z</time></trkpt><trkpt lat="44.3784352" lon="7.8621716"><ele>525.3333333333333</ele><time>2026-05-03T12:38:56.758Z</time></trkpt><trkpt lat="44.3784121" lon="7.8620756"><ele>524.0</ele><time>2026-05-03T12:38:57.748Z</time></trkpt><trkpt lat="44.3783787" lon="7.8619138"><ele>523.8</ele><time>2026-05-03T12:38:59.755Z</time></trkpt><trkpt lat="44.3783429" lon="7.8617538"><ele>523.5999999999999</ele><time>2026-05-03T12:39:01.752Z</time></trkpt><trkpt lat="44.3783382" lon="7.8616307"><ele>523.4</ele><time>2026-05-03T12:39:03.757Z</time></trkpt><trkpt lat="44.3783578" lon="7.8614986"><ele>523.1999999999999</ele><time>2026-05-03T12:39:05.752Z</time></trkpt><trkpt lat="44.3783892" lon="7.8613687"><ele>523.0</ele><time>2026-05-03T12:39:07.766Z</time></trkpt><trkpt lat="44.3784255" lon="7.861255"><ele>523.0</ele><time>2026-05-03T12:39:10.757Z</time></trkpt><trkpt lat="44.3784906" lon="7.8611934"><ele>523.0</ele><time>2026-05-03T12:39:12.754Z</time></trkpt><trkpt lat="44.3785095" lon="7.8610956"><ele>523.0</ele><time>2026-05-03T12:39:14.763Z</time></trkpt><trkpt lat="44.378494" lon="7.8609952"><ele>523.0</ele><time>2026-05-03T12:39:16.763Z</time></trkpt><trkpt lat="44.3784694" lon="7.8608889"><ele>523.0</ele><time>2026-05-03T12:39:18.757Z</time></trkpt><trkpt lat="44.3784889" lon="7.8607711"><ele>523.0</ele><time>2026-05-03T12:39:20.753Z</time></trkpt><trkpt lat="44.3785319" lon="7.8606919"><ele>524.0</ele><time>2026-05-03T12:39:21.762Z</time></trkpt><trkpt lat="44.3785898" lon="7.8606109"><ele>525.0</ele><time>2026-05-03T12:39:22.768Z</time></trkpt><trkpt lat="44.3786657" lon="7.8605256"><ele>526.0</ele><time>2026-05-03T12:39:23.762Z</time></trkpt><trkpt lat="44.3787464" lon="7.8604338"><ele>527.0</ele><time>2026-05-03T12:39:24.755Z</time></trkpt><trkpt lat="44.3788254" lon="7.8603415"><ele>528.0</ele><time>2026-05-03T12:39:25.757Z</time></trkpt><trkpt lat="44.3789037" lon="7.8602488"><ele>526.8333333333334</ele><time>2026-05-03T12:39:26.752Z</time></trkpt><trkpt lat="44.3789669" lon="7.8601649"><ele>525.6666666666666</ele><time>2026-05-03T12:39:27.755Z</time></trkpt><trkpt lat="44.3790321" lon="7.8600964"><ele>524.5</ele><time>2026-05-03T12:39:28.753Z</time></trkpt><trkpt lat="44.3790933" lon="7.8600195"><ele>523.3333333333333</ele><time>2026-05-03T12:39:29.76Z</time></trkpt><trkpt lat="44.3791668" lon="7.859903"><ele>522.1666666666666</ele><time>2026-05-03T12:39:31.755Z</time></trkpt><trkpt lat="44.3792218" lon="7.8598135"><ele>521.0</ele><time>2026-05-03T12:39:33.759Z</time></trkpt><trkpt lat="44.3792932" lon="7.8596917"><ele>521.0</ele><time>2026-05-03T12:39:35.756Z</time></trkpt><trkpt lat="44.3793471" lon="7.8596269"><ele>521.0</ele><time>2026-05-03T12:39:36.759Z</time></trkpt><trkpt lat="44.3794092" lon="7.8595616"><ele>521.0</ele><time>2026-05-03T12:39:37.757Z</time></trkpt><trkpt lat="44.3794814" lon="7.8595205"><ele>521.0</ele><time>2026-05-03T12:39:38.75Z</time></trkpt><trkpt lat="44.3795566" lon="7.8594841"><ele>521.0</ele><time>2026-05-03T12:39:39.751Z</time></trkpt><trkpt lat="44.3796298" lon="7.8594436"><ele>521.0</ele><time>2026-05-03T12:39:40.755Z</time></trkpt><trkpt lat="44.3797018" lon="7.8593954"><ele>521.3333333333333</ele><time>2026-05-03T12:39:41.757Z</time></trkpt><trkpt lat="44.3797716" lon="7.8593151"><ele>521.6666666666666</ele><time>2026-05-03T12:39:42.752Z</time></trkpt><trkpt lat="44.3798447" lon="7.8592533"><ele>522.0</ele><time>2026-05-03T12:39:43.753Z</time></trkpt><trkpt lat="44.379911" lon="7.8592173"><ele>522.3333333333334</ele><time>2026-05-03T12:39:44.752Z</time></trkpt><trkpt lat="44.3799946" lon="7.8591546"><ele>522.6666666666667</ele><time>2026-05-03T12:39:45.748Z</time></trkpt><trkpt lat="44.3800714" lon="7.8590956"><ele>523.0</ele><time>2026-05-03T12:39:46.757Z</time></trkpt><trkpt lat="44.3801408" lon="7.8590607"><ele>523.0</ele><time>2026-05-03T12:39:47.754Z</time></trkpt><trkpt lat="44.3802345" lon="7.8590166"><ele>523.0</ele><time>2026-05-03T12:39:49.749Z</time></trkpt><trkpt lat="44.3803253" lon="7.8589354"><ele>523.0</ele><time>2026-05-03T12:39:51.753Z</time></trkpt><trkpt lat="44.3803829" lon="7.858891"><ele>523.0</ele><time>2026-05-03T12:39:52.753Z</time></trkpt><trkpt lat="44.3804463" lon="7.8588534"><ele>523.0</ele><time>2026-05-03T12:39:53.759Z</time></trkpt><trkpt lat="44.3805208" lon="7.8588336"><ele>523.0</ele><time>2026-05-03T12:39:54.753Z</time></trkpt><trkpt lat="44.38059" lon="7.8588265"><ele>523.1666666666667</ele><time>2026-05-03T12:39:55.749Z</time></trkpt><trkpt lat="44.3806892" lon="7.8588211"><ele>523.3333333333334</ele><time>2026-05-03T12:39:57.752Z</time></trkpt><trkpt lat="44.3807709" lon="7.8587685"><ele>523.5</ele><time>2026-05-03T12:39:59.753Z</time></trkpt><trkpt lat="44.3808393" lon="7.8586526"><ele>523.6666666666666</ele><time>2026-05-03T12:40:01.763Z</time></trkpt><trkpt lat="44.3808847" lon="7.8585775"><ele>523.8333333333333</ele><time>2026-05-03T12:40:02.753Z</time></trkpt><trkpt lat="44.3809344" lon="7.8585077"><ele>524.0</ele><time>2026-05-03T12:40:03.758Z</time></trkpt><trkpt lat="44.3810585" lon="7.8584316"><ele>524.0</ele><time>2026-05-03T12:40:05.758Z</time></trkpt><trkpt lat="44.381142" lon="7.8583831"><ele>524.0</ele><time>2026-05-03T12:40:06.751Z</time></trkpt><trkpt lat="44.3812074" lon="7.8583297"><ele>524.0</ele><time>2026-05-03T12:40:07.76Z</time></trkpt><trkpt lat="44.3812755" lon="7.8582785"><ele>524.0</ele><time>2026-05-03T12:40:08.759Z</time></trkpt><trkpt lat="44.3813238" lon="7.8582165"><ele>524.0</ele><time>2026-05-03T12:40:09.755Z</time></trkpt><trkpt lat="44.3813706" lon="7.8581462"><ele>524.0</ele><time>2026-05-03T12:40:10.752Z</time></trkpt><trkpt lat="44.3814184" lon="7.8580827"><ele>524.0</ele><time>2026-05-03T12:40:11.75Z</time></trkpt><trkpt lat="44.381471" lon="7.8580301"><ele>521.8333333333333</ele><time>2026-05-03T12:40:12.75Z</time></trkpt><trkpt lat="44.3815285" lon="7.8579815"><ele>519.6666666666666</ele><time>2026-05-03T12:40:13.752Z</time></trkpt><trkpt lat="44.3815935" lon="7.8579362"><ele>517.5</ele><time>2026-05-03T12:40:14.754Z</time></trkpt><trkpt lat="44.3816639" lon="7.8578918"><ele>515.3333333333334</ele><time>2026-05-03T12:40:15.756Z</time></trkpt><trkpt lat="44.3817383" lon="7.8578488"><ele>513.1666666666667</ele><time>2026-05-03T12:40:16.757Z</time></trkpt><trkpt lat="44.3818187" lon="7.8578018"><ele>511.0</ele><time>2026-05-03T12:40:17.758Z</time></trkpt><trkpt lat="44.3819066" lon="7.8577395"><ele>511.00000000000006</ele><time>2026-05-03T12:40:18.76Z</time></trkpt><trkpt lat="44.3819875" lon="7.857658"><ele>511.0</ele><time>2026-05-03T12:40:19.766Z</time></trkpt><trkpt lat="44.3820653" lon="7.8575907"><ele>511.0</ele><time>2026-05-03T12:40:20.75Z</time></trkpt><trkpt lat="44.3821368" lon="7.8575394"><ele>511.0</ele><time>2026-05-03T12:40:21.759Z</time></trkpt><trkpt lat="44.3821964" lon="7.8575016"><ele>511.00000000000006</ele><time>2026-05-03T12:40:22.762Z</time></trkpt><trkpt lat="44.3822949" lon="7.8574312"><ele>511.0</ele><time>2026-05-03T12:40:24.763Z</time></trkpt><trkpt lat="44.3823402" lon="7.8573421"><ele>511.6</ele><time>2026-05-03T12:40:26.767Z</time></trkpt><trkpt lat="44.3823513" lon="7.8572125"><ele>512.2</ele><time>2026-05-03T12:40:28.762Z</time></trkpt><trkpt lat="44.3823508" lon="7.8570406"><ele>512.8</ele><time>2026-05-03T12:40:30.758Z</time></trkpt><trkpt lat="44.38233" lon="7.8568995"><ele>513.4</ele><time>2026-05-03T12:40:32.792Z</time></trkpt><trkpt lat="44.382289" lon="7.8568098"><ele>514.0</ele><time>2026-05-03T12:40:34.758Z</time></trkpt><trkpt lat="44.3822214" lon="7.8567686"><ele>517.6666666666667</ele><time>2026-05-03T12:40:36.759Z</time></trkpt><trkpt lat="44.3821317" lon="7.8567106"><ele>521.3333333333334</ele><time>2026-05-03T12:40:38.75Z</time></trkpt><trkpt lat="44.3820731" lon="7.8566368"><ele>525.0</ele><time>2026-05-03T12:40:39.753Z</time></trkpt><trkpt lat="44.3820165" lon="7.8565708"><ele>528.6666666666666</ele><time>2026-05-03T12:40:40.748Z</time></trkpt><trkpt lat="44.3819544" lon="7.8565016"><ele>532.3333333333333</ele><time>2026-05-03T12:40:41.754Z</time></trkpt><trkpt lat="44.3818774" lon="7.8564511"><ele>536.0</ele><time>2026-05-03T12:40:42.764Z</time></trkpt><trkpt lat="44.3817959" lon="7.8563895"><ele>536.0</ele><time>2026-05-03T12:40:43.752Z</time></trkpt><trkpt lat="44.3817224" lon="7.8563192"><ele>536.0</ele><time>2026-05-03T12:40:44.761Z</time></trkpt><trkpt lat="44.3816444" lon="7.8562426"><ele>536.0</ele><time>2026-05-03T12:40:45.751Z</time></trkpt><trkpt lat="44.3815751" lon="7.8561413"><ele>536.0</ele><time>2026-05-03T12:40:46.754Z</time></trkpt><trkpt lat="44.3815131" lon="7.8560464"><ele>536.0</ele><time>2026-05-03T12:40:47.76Z</time></trkpt><trkpt lat="44.3814475" lon="7.8559466"><ele>534.3333333333333</ele><time>2026-05-03T12:40:48.757Z</time></trkpt><trkpt lat="44.3813916" lon="7.8558556"><ele>532.6666666666666</ele><time>2026-05-03T12:40:49.758Z</time></trkpt><trkpt lat="44.3813499" lon="7.8557651"><ele>531.0</ele><time>2026-05-03T12:40:50.756Z</time></trkpt><trkpt lat="44.3813116" lon="7.8556854"><ele>529.3333333333334</ele><time>2026-05-03T12:40:51.792Z</time></trkpt><trkpt lat="44.3812364" lon="7.8555506"><ele>527.6666666666667</ele><time>2026-05-03T12:40:53.755Z</time></trkpt><trkpt lat="44.3811843" lon="7.8554996"><ele>526.0</ele><time>2026-05-03T12:40:54.75Z</time></trkpt><trkpt lat="44.3810827" lon="7.8554288"><ele>529.4</ele><time>2026-05-03T12:40:56.753Z</time></trkpt><trkpt lat="44.3810281" lon="7.8552887"><ele>532.8</ele><time>2026-05-03T12:40:58.757Z</time></trkpt><trkpt lat="44.3810219" lon="7.8550975"><ele>536.1999999999999</ele><time>2026-05-03T12:41:00.753Z</time></trkpt><trkpt lat="44.3810602" lon="7.8549807"><ele>539.6</ele><time>2026-05-03T12:41:01.772Z</time></trkpt><trkpt lat="44.3810974" lon="7.8548601"><ele>543.0</ele><time>2026-05-03T12:41:02.768Z</time></trkpt><trkpt lat="44.3811268" lon="7.8547445"><ele>543.0</ele><time>2026-05-03T12:41:03.761Z</time></trkpt><trkpt lat="44.3811544" lon="7.8546323"><ele>543.0</ele><time>2026-05-03T12:41:04.763Z</time></trkpt><trkpt lat="44.3811755" lon="7.8545222"><ele>543.0</ele><time>2026-05-03T12:41:05.753Z</time></trkpt><trkpt lat="44.3811877" lon="7.8544346"><ele>543.0</ele><time>2026-05-03T12:41:06.757Z</time></trkpt><trkpt lat="44.3811992" lon="7.8543105"><ele>543.0</ele><time>2026-05-03T12:41:08.759Z</time></trkpt><trkpt lat="44.3812617" lon="7.8542441"><ele>543.0</ele><time>2026-05-03T12:41:10.757Z</time></trkpt><trkpt lat="44.3813247" lon="7.8542129"><ele>540.6</ele><time>2026-05-03T12:41:11.752Z</time></trkpt><trkpt lat="44.3813922" lon="7.8541605"><ele>538.1999999999999</ele><time>2026-05-03T12:41:12.759Z</time></trkpt><trkpt lat="44.3814504" lon="7.854115"><ele>535.8</ele><time>2026-05-03T12:41:13.757Z</time></trkpt><trkpt lat="44.381555" lon="7.854052"><ele>533.4</ele><time>2026-05-03T12:41:15.752Z</time></trkpt><trkpt lat="44.3816462" lon="7.8539875"><ele>531.0</ele><time>2026-05-03T12:41:17.753Z</time></trkpt><trkpt lat="44.381744" lon="7.853923"><ele>531.0</ele><time>2026-05-03T12:41:19.761Z</time></trkpt><trkpt lat="44.3818582" lon="7.853879"><ele>531.0</ele><time>2026-05-03T12:41:21.759Z</time></trkpt><trkpt lat="44.3819688" lon="7.8538208"><ele>531.0</ele><time>2026-05-03T12:41:23.764Z</time></trkpt><trkpt lat="44.3820503" lon="7.8537494"><ele>531.0</ele><time>2026-05-03T12:41:25.761Z</time></trkpt><trkpt lat="44.3821237" lon="7.8537005"><ele>531.0</ele><time>2026-05-03T12:41:27.754Z</time></trkpt><trkpt lat="44.3822381" lon="7.8536551"><ele>530.3333333333334</ele><time>2026-05-03T12:41:29.759Z</time></trkpt><trkpt lat="44.3823099" lon="7.8536171"><ele>529.6666666666666</ele><time>2026-05-03T12:41:30.762Z</time></trkpt><trkpt lat="44.3823872" lon="7.8535719"><ele>529.0</ele><time>2026-05-03T12:41:31.763Z</time></trkpt><trkpt lat="44.3824569" lon="7.8535393"><ele>528.3333333333333</ele><time>2026-05-03T12:41:32.754Z</time></trkpt><trkpt lat="44.3825248" lon="7.8535152"><ele>527.6666666666666</ele><time>2026-05-03T12:41:33.76Z</time></trkpt><trkpt lat="44.3826368" lon="7.8534744"><ele>527.0</ele><time>2026-05-03T12:41:35.757Z</time></trkpt><trkpt lat="44.3827116" lon="7.8534415"><ele>527.0</ele><time>2026-05-03T12:41:37.758Z</time></trkpt><trkpt lat="44.3827782" lon="7.8534517"><ele>527.0</ele><time>2026-05-03T12:42:01.761Z</time></trkpt><trkpt lat="44.3828694" lon="7.8534904"><ele>527.0</ele><time>2026-05-03T12:42:03.808Z</time></trkpt><trkpt lat="44.3829467" lon="7.8535285"><ele>527.0</ele><time>2026-05-03T12:42:04.753Z</time></trkpt><trkpt lat="44.3830412" lon="7.8535687"><ele>527.0</ele><time>2026-05-03T12:42:05.76Z</time></trkpt><trkpt lat="44.3831443" lon="7.8536093"><ele>522.0</ele><time>2026-05-03T12:42:06.756Z</time></trkpt><trkpt lat="44.3832534" lon="7.8536532"><ele>517.0</ele><time>2026-05-03T12:42:07.758Z</time></trkpt><trkpt lat="44.3833663" lon="7.8537031"><ele>512.0</ele><time>2026-05-03T12:42:08.756Z</time></trkpt><trkpt lat="44.3834781" lon="7.8537674"><ele>507.0</ele><time>2026-05-03T12:42:09.754Z</time></trkpt><trkpt lat="44.3835795" lon="7.8538369"><ele>507.0</ele><time>2026-05-03T12:42:10.758Z</time></trkpt><trkpt lat="44.3836762" lon="7.8539075"><ele>507.0</ele><time>2026-05-03T12:42:11.762Z</time></trkpt><trkpt lat="44.383771" lon="7.8539722"><ele>507.0</ele><time>2026-05-03T12:42:12.758Z</time></trkpt><trkpt lat="44.3838777" lon="7.8540256"><ele>507.0</ele><time>2026-05-03T12:42:13.752Z</time></trkpt><trkpt lat="44.3839986" lon="7.8540637"><ele>507.25</ele><time>2026-05-03T12:42:14.759Z</time></trkpt><trkpt lat="44.3841328" lon="7.8540975"><ele>507.5</ele><time>2026-05-03T12:42:15.757Z</time></trkpt><trkpt lat="44.3842608" lon="7.8541274"><ele>507.75</ele><time>2026-05-03T12:42:16.76Z</time></trkpt><trkpt lat="44.3843822" lon="7.8541475"><ele>508.0</ele><time>2026-05-03T12:42:17.754Z</time></trkpt><trkpt lat="44.3845092" lon="7.8541737"><ele>508.0</ele><time>2026-05-03T12:42:18.764Z</time></trkpt><trkpt lat="44.3846341" lon="7.8541981"><ele>508.0</ele><time>2026-05-03T12:42:19.758Z</time></trkpt><trkpt lat="44.3847611" lon="7.8541847"><ele>508.0</ele><time>2026-05-03T12:42:20.755Z</time></trkpt><trkpt lat="44.3848968" lon="7.8541557"><ele>508.0</ele><time>2026-05-03T12:42:21.759Z</time></trkpt><trkpt lat="44.3850309" lon="7.8541366"><ele>506.75</ele><time>2026-05-03T12:42:22.758Z</time></trkpt><trkpt lat="44.385165" lon="7.8541224"><ele>505.5</ele><time>2026-05-03T12:42:23.826Z</time></trkpt><trkpt lat="44.3852987" lon="7.8541058"><ele>504.25</ele><time>2026-05-03T12:42:24.758Z</time></trkpt><trkpt lat="44.3854375" lon="7.8540892"><ele>503.0</ele><time>2026-05-03T12:42:25.76Z</time></trkpt><trkpt lat="44.3855721" lon="7.8540663"><ele>501.75</ele><time>2026-05-03T12:42:26.755Z</time></trkpt><trkpt lat="44.385708" lon="7.8540476"><ele>500.5</ele><time>2026-05-03T12:42:27.759Z</time></trkpt><trkpt lat="44.3858441" lon="7.8540377"><ele>499.25</ele><time>2026-05-03T12:42:28.762Z</time></trkpt><trkpt lat="44.3859812" lon="7.8540315"><ele>498.0</ele><time>2026-05-03T12:42:29.754Z</time></trkpt><trkpt lat="44.3861173" lon="7.8540277"><ele>498.0</ele><time>2026-05-03T12:42:30.757Z</time></trkpt><trkpt lat="44.3862498" lon="7.8540258"><ele>498.0</ele><time>2026-05-03T12:42:31.765Z</time></trkpt><trkpt lat="44.3863814" lon="7.8540135"><ele>498.0</ele><time>2026-05-03T12:42:32.757Z</time></trkpt><trkpt lat="44.3865118" lon="7.8540024"><ele>498.0</ele><time>2026-05-03T12:42:33.76Z</time></trkpt><trkpt lat="44.3866509" lon="7.8539805"><ele>497.5</ele><time>2026-05-03T12:42:34.76Z</time></trkpt><trkpt lat="44.3867915" lon="7.8539595"><ele>497.0</ele><time>2026-05-03T12:42:35.752Z</time></trkpt><trkpt lat="44.3869278" lon="7.853949"><ele>496.5</ele><time>2026-05-03T12:42:36.752Z</time></trkpt><trkpt lat="44.3870581" lon="7.853953"><ele>496.0</ele><time>2026-05-03T12:42:37.761Z</time></trkpt><trkpt lat="44.3871769" lon="7.8539556"><ele>493.0</ele><time>2026-05-03T12:42:38.769Z</time></trkpt><trkpt lat="44.3872894" lon="7.853939"><ele>490.0</ele><time>2026-05-03T12:42:39.758Z</time></trkpt><trkpt lat="44.3874031" lon="7.8538852"><ele>487.0</ele><time>2026-05-03T12:42:40.759Z</time></trkpt><trkpt lat="44.3875108" lon="7.8537956"><ele>484.0</ele><time>2026-05-03T12:42:41.757Z</time></trkpt><trkpt lat="44.3876199" lon="7.8536876"><ele>484.0</ele><time>2026-05-03T12:42:42.788Z</time></trkpt><trkpt lat="44.3877296" lon="7.853563"><ele>484.0</ele><time>2026-05-03T12:42:43.762Z</time></trkpt><trkpt lat="44.3878419" lon="7.8534283"><ele>484.0</ele><time>2026-05-03T12:42:44.761Z</time></trkpt><trkpt lat="44.3879546" lon="7.8532889"><ele>484.0</ele><time>2026-05-03T12:42:45.755Z</time></trkpt><trkpt lat="44.3880673" lon="7.8531525"><ele>483.75</ele><time>2026-05-03T12:42:46.762Z</time></trkpt><trkpt lat="44.388175" lon="7.8530255"><ele>483.5</ele><time>2026-05-03T12:42:47.759Z</time></trkpt><trkpt lat="44.3882791" lon="7.8529114"><ele>483.25</ele><time>2026-05-03T12:42:48.76Z</time></trkpt><trkpt lat="44.3883795" lon="7.8528095"><ele>483.0</ele><time>2026-05-03T12:42:49.758Z</time></trkpt><trkpt lat="44.3884826" lon="7.8527078"><ele>482.75</ele><time>2026-05-03T12:42:50.756Z</time></trkpt><trkpt lat="44.3885886" lon="7.8526007"><ele>482.5</ele><time>2026-05-03T12:42:51.759Z</time></trkpt><trkpt lat="44.3886956" lon="7.8524866"><ele>482.25</ele><time>2026-05-03T12:42:52.762Z</time></trkpt><trkpt lat="44.3887967" lon="7.852364"><ele>482.0</ele><time>2026-05-03T12:42:53.76Z</time></trkpt><trkpt lat="44.3888887" lon="7.8522265"><ele>482.0</ele><time>2026-05-03T12:42:54.757Z</time></trkpt><trkpt lat="44.3889778" lon="7.8520825"><ele>482.0</ele><time>2026-05-03T12:42:55.765Z</time></trkpt><trkpt lat="44.3890733" lon="7.8519549"><ele>482.0</ele><time>2026-05-03T12:42:56.751Z</time></trkpt><trkpt lat="44.3891815" lon="7.851845"><ele>482.0</ele><time>2026-05-03T12:42:57.754Z</time></trkpt><trkpt lat="44.3892993" lon="7.8517513"><ele>482.0</ele><time>2026-05-03T12:42:58.764Z</time></trkpt><trkpt lat="44.3894204" lon="7.8516601"><ele>482.0</ele><time>2026-05-03T12:42:59.751Z</time></trkpt><trkpt lat="44.3895397" lon="7.8515586"><ele>482.0</ele><time>2026-05-03T12:43:00.756Z</time></trkpt><trkpt lat="44.3896553" lon="7.8514427"><ele>482.0</ele><time>2026-05-03T12:43:01.758Z</time></trkpt><trkpt lat="44.3897644" lon="7.8513094"><ele>483.5</ele><time>2026-05-03T12:43:02.755Z</time></trkpt><trkpt lat="44.3898631" lon="7.8511642"><ele>485.0</ele><time>2026-05-03T12:43:03.756Z</time></trkpt><trkpt lat="44.3899487" lon="7.8510176"><ele>486.5</ele><time>2026-05-03T12:43:04.756Z</time></trkpt><trkpt lat="44.3900277" lon="7.8508727"><ele>488.0</ele><time>2026-05-03T12:43:05.758Z</time></trkpt><trkpt lat="44.390107" lon="7.8507393"><ele>488.5</ele><time>2026-05-03T12:43:06.759Z</time></trkpt><trkpt lat="44.3901904" lon="7.8506213"><ele>489.0</ele><time>2026-05-03T12:43:07.758Z</time></trkpt><trkpt lat="44.3902799" lon="7.850514"><ele>489.5</ele><time>2026-05-03T12:43:08.753Z</time></trkpt><trkpt lat="44.3903792" lon="7.8504191"><ele>490.0</ele><time>2026-05-03T12:43:09.768Z</time></trkpt><trkpt lat="44.3904915" lon="7.8503389"><ele>491.0</ele><time>2026-05-03T12:43:10.757Z</time></trkpt><trkpt lat="44.3906156" lon="7.8502625"><ele>492.0</ele><time>2026-05-03T12:43:11.762Z</time></trkpt><trkpt lat="44.3907467" lon="7.850181"><ele>493.0</ele><time>2026-05-03T12:43:12.773Z</time></trkpt><trkpt lat="44.3908814" lon="7.8500897"><ele>494.0</ele><time>2026-05-03T12:43:13.761Z</time></trkpt><trkpt lat="44.3910193" lon="7.8499853"><ele>494.0</ele><time>2026-05-03T12:43:14.754Z</time></trkpt><trkpt lat="44.3911587" lon="7.8498793"><ele>494.0</ele><time>2026-05-03T12:43:15.755Z</time></trkpt><trkpt lat="44.3912836" lon="7.8497431"><ele>494.0</ele><time>2026-05-03T12:43:16.757Z</time></trkpt><trkpt lat="44.3913986" lon="7.8496"><ele>492.75</ele><time>2026-05-03T12:43:17.76Z</time></trkpt><trkpt lat="44.3915062" lon="7.8494697"><ele>491.5</ele><time>2026-05-03T12:43:18.76Z</time></trkpt><trkpt lat="44.3916142" lon="7.8493429"><ele>490.25</ele><time>2026-05-03T12:43:19.799Z</time></trkpt><trkpt lat="44.3917295" lon="7.8492156"><ele>489.0</ele><time>2026-05-03T12:43:20.784Z</time></trkpt><trkpt lat="44.3918535" lon="7.8490911"><ele>489.0</ele><time>2026-05-03T12:43:21.764Z</time></trkpt><trkpt lat="44.3919798" lon="7.8489747"><ele>489.0</ele><time>2026-05-03T12:43:22.76Z</time></trkpt><trkpt lat="44.3921055" lon="7.8488686"><ele>489.0</ele><time>2026-05-03T12:43:23.757Z</time></trkpt><trkpt lat="44.3922281" lon="7.8487843"><ele>489.0</ele><time>2026-05-03T12:43:24.786Z</time></trkpt><trkpt lat="44.392349" lon="7.8487295"><ele>487.0</ele><time>2026-05-03T12:43:25.78Z</time></trkpt><trkpt lat="44.3924705" lon="7.8487028"><ele>485.0</ele><time>2026-05-03T12:43:26.767Z</time></trkpt><trkpt lat="44.3925913" lon="7.8486934"><ele>483.0</ele><time>2026-05-03T12:43:27.767Z</time></trkpt><trkpt lat="44.3927055" lon="7.848682"><ele>481.0</ele><time>2026-05-03T12:43:28.76Z</time></trkpt><trkpt lat="44.3928133" lon="7.8486607"><ele>481.0</ele><time>2026-05-03T12:43:29.751Z</time></trkpt><trkpt lat="44.3929161" lon="7.8486261"><ele>481.0</ele><time>2026-05-03T12:43:30.782Z</time></trkpt><trkpt lat="44.3930192" lon="7.8485703"><ele>481.0</ele><time>2026-05-03T12:43:31.772Z</time></trkpt><trkpt lat="44.3931233" lon="7.8484842"><ele>481.0</ele><time>2026-05-03T12:43:32.757Z</time></trkpt><trkpt lat="44.3932286" lon="7.8483752"><ele>481.25</ele><time>2026-05-03T12:43:33.756Z</time></trkpt><trkpt lat="44.3933363" lon="7.8482519"><ele>481.5</ele><time>2026-05-03T12:43:34.763Z</time></trkpt><trkpt lat="44.3934463" lon="7.8481166"><ele>481.75</ele><time>2026-05-03T12:43:35.761Z</time></trkpt><trkpt lat="44.3935558" lon="7.8479697"><ele>482.0</ele><time>2026-05-03T12:43:36.757Z</time></trkpt><trkpt lat="44.3936631" lon="7.8478257"><ele>482.0</ele><time>2026-05-03T12:43:37.758Z</time></trkpt><trkpt lat="44.3937637" lon="7.8476913"><ele>482.0</ele><time>2026-05-03T12:43:38.766Z</time></trkpt><trkpt lat="44.3938524" lon="7.8475642"><ele>482.0</ele><time>2026-05-03T12:43:39.761Z</time></trkpt><trkpt lat="44.3939295" lon="7.8474418"><ele>482.0</ele><time>2026-05-03T12:43:40.758Z</time></trkpt><trkpt lat="44.3939958" lon="7.8473247"><ele>482.0</ele><time>2026-05-03T12:43:41.754Z</time></trkpt><trkpt lat="44.3940454" lon="7.8472049"><ele>482.00000000000006</ele><time>2026-05-03T12:43:42.762Z</time></trkpt><trkpt lat="44.3940754" lon="7.8470773"><ele>482.00000000000006</ele><time>2026-05-03T12:43:43.759Z</time></trkpt><trkpt lat="44.3940806" lon="7.8469355"><ele>482.0</ele><time>2026-05-03T12:43:44.769Z</time></trkpt><trkpt lat="44.3940586" lon="7.8467802"><ele>482.0</ele><time>2026-05-03T12:43:45.759Z</time></trkpt><trkpt lat="44.3940162" lon="7.8466142"><ele>482.0</ele><time>2026-05-03T12:43:46.756Z</time></trkpt><trkpt lat="44.3939691" lon="7.8464425"><ele>482.0</ele><time>2026-05-03T12:43:47.758Z</time></trkpt><trkpt lat="44.3939246" lon="7.8462688"><ele>482.0</ele><time>2026-05-03T12:43:48.757Z</time></trkpt><trkpt lat="44.3938861" lon="7.8460968"><ele>482.0</ele><time>2026-05-03T12:43:49.771Z</time></trkpt><trkpt lat="44.3938528" lon="7.8459308"><ele>478.20000000000005</ele><time>2026-05-03T12:43:50.752Z</time></trkpt><trkpt lat="44.3938225" lon="7.8457744"><ele>474.40000000000003</ele><time>2026-05-03T12:43:51.754Z</time></trkpt><trkpt lat="44.3937986" lon="7.8456278"><ele>470.59999999999997</ele><time>2026-05-03T12:43:52.753Z</time></trkpt><trkpt lat="44.3937811" lon="7.8454936"><ele>466.79999999999995</ele><time>2026-05-03T12:43:53.751Z</time></trkpt><trkpt lat="44.3937745" lon="7.845353"><ele>463.0</ele><time>2026-05-03T12:43:54.754Z</time></trkpt><trkpt lat="44.3937812" lon="7.8452091"><ele>463.25</ele><time>2026-05-03T12:43:55.754Z</time></trkpt><trkpt lat="44.3938031" lon="7.8450532"><ele>463.5</ele><time>2026-05-03T12:43:56.752Z</time></trkpt><trkpt lat="44.3938447" lon="7.8449079"><ele>463.75</ele><time>2026-05-03T12:43:57.763Z</time></trkpt><trkpt lat="44.3939078" lon="7.8447631"><ele>464.0</ele><time>2026-05-03T12:43:58.753Z</time></trkpt><trkpt lat="44.3939868" lon="7.8446129"><ele>463.75</ele><time>2026-05-03T12:43:59.755Z</time></trkpt><trkpt lat="44.3940705" lon="7.8444524"><ele>463.5</ele><time>2026-05-03T12:44:00.764Z</time></trkpt><trkpt lat="44.3941565" lon="7.8442858"><ele>463.25</ele><time>2026-05-03T12:44:01.757Z</time></trkpt><trkpt lat="44.3942374" lon="7.8441272"><ele>463.0</ele><time>2026-05-03T12:44:02.757Z</time></trkpt><trkpt lat="44.39431" lon="7.8439836"><ele>463.0</ele><time>2026-05-03T12:44:03.758Z</time></trkpt><trkpt lat="44.3943789" lon="7.8438655"><ele>462.99999999999994</ele><time>2026-05-03T12:44:04.764Z</time></trkpt><trkpt lat="44.394444" lon="7.843774"><ele>462.99999999999994</ele><time>2026-05-03T12:44:05.755Z</time></trkpt><trkpt lat="44.3944946" lon="7.8436872"><ele>463.0</ele><time>2026-05-03T12:44:06.757Z</time></trkpt><trkpt lat="44.3945274" lon="7.8435829"><ele>463.0</ele><time>2026-05-03T12:44:07.76Z</time></trkpt><trkpt lat="44.3945322" lon="7.8434579"><ele>462.00000000000006</ele><time>2026-05-03T12:44:08.759Z</time></trkpt><trkpt lat="44.3945219" lon="7.8433309"><ele>461.0</ele><time>2026-05-03T12:44:09.756Z</time></trkpt><trkpt lat="44.394507" lon="7.8432148"><ele>460.0</ele><time>2026-05-03T12:44:10.754Z</time></trkpt><trkpt lat="44.3944931" lon="7.8430969"><ele>459.0</ele><time>2026-05-03T12:44:11.763Z</time></trkpt><trkpt lat="44.3944772" lon="7.8429748"><ele>458.00000000000006</ele><time>2026-05-03T12:44:12.757Z</time></trkpt><trkpt lat="44.3944734" lon="7.8428364"><ele>457.0</ele><time>2026-05-03T12:44:13.754Z</time></trkpt><trkpt lat="44.3944748" lon="7.842669"><ele>458.20000000000005</ele><time>2026-05-03T12:44:14.758Z</time></trkpt><trkpt lat="44.3944663" lon="7.8425061"><ele>459.40000000000003</ele><time>2026-05-03T12:44:15.76Z</time></trkpt><trkpt lat="44.3944563" lon="7.842351"><ele>460.59999999999997</ele><time>2026-05-03T12:44:16.76Z</time></trkpt><trkpt lat="44.394441" lon="7.8422002"><ele>461.79999999999995</ele><time>2026-05-03T12:44:17.754Z</time></trkpt><trkpt lat="44.3944412" lon="7.8420717"><ele>463.0</ele><time>2026-05-03T12:44:18.767Z</time></trkpt><trkpt lat="44.3944476" lon="7.8419726"><ele>463.00000000000006</ele><time>2026-05-03T12:44:19.757Z</time></trkpt><trkpt lat="44.3944591" lon="7.8418666"><ele>463.0</ele><time>2026-05-03T12:44:20.757Z</time></trkpt><trkpt lat="44.3944508" lon="7.8417729"><ele>463.0</ele><time>2026-05-03T12:44:21.757Z</time></trkpt><trkpt lat="44.3944349" lon="7.8416754"><ele>463.0</ele><time>2026-05-03T12:44:22.759Z</time></trkpt><trkpt lat="44.3944156" lon="7.8415861"><ele>463.00000000000006</ele><time>2026-05-03T12:44:23.757Z</time></trkpt><trkpt lat="44.3943893" lon="7.8414544"><ele>463.0</ele><time>2026-05-03T12:44:25.759Z</time></trkpt><trkpt lat="44.3943567" lon="7.8413432"><ele>464.1666666666667</ele><time>2026-05-03T12:44:53.76Z</time></trkpt><trkpt lat="44.3943391" lon="7.8412092"><ele>465.33333333333337</ele><time>2026-05-03T12:44:55.76Z</time></trkpt><trkpt lat="44.3942819" lon="7.8410594"><ele>466.5</ele><time>2026-05-03T12:44:57.765Z</time></trkpt><trkpt lat="44.3942397" lon="7.8409838"><ele>467.66666666666663</ele><time>2026-05-03T12:44:58.76Z</time></trkpt><trkpt lat="44.3941922" lon="7.8409084"><ele>468.8333333333333</ele><time>2026-05-03T12:44:59.805Z</time></trkpt><trkpt lat="44.3941456" lon="7.8408433"><ele>470.0</ele><time>2026-05-03T12:45:00.758Z</time></trkpt><trkpt lat="44.3940987" lon="7.8407842"><ele>470.0</ele><time>2026-05-03T12:45:01.772Z</time></trkpt><trkpt lat="44.3940046" lon="7.8406733"><ele>470.0</ele><time>2026-05-03T12:45:03.757Z</time></trkpt><trkpt lat="44.3939186" lon="7.8405452"><ele>470.0</ele><time>2026-05-03T12:45:05.752Z</time></trkpt><trkpt lat="44.3938404" lon="7.8404396"><ele>470.0</ele><time>2026-05-03T12:45:07.755Z</time></trkpt><trkpt lat="44.3937459" lon="7.8403507"><ele>467.66666666666663</ele><time>2026-05-03T12:45:09.757Z</time></trkpt><trkpt lat="44.3936548" lon="7.8402538"><ele>465.3333333333333</ele><time>2026-05-03T12:45:11.759Z</time></trkpt><trkpt lat="44.3935898" lon="7.8402143"><ele>463.0</ele><time>2026-05-03T12:45:12.751Z</time></trkpt><trkpt lat="44.3935336" lon="7.8401516"><ele>460.66666666666663</ele><time>2026-05-03T12:45:13.762Z</time></trkpt><trkpt lat="44.3934716" lon="7.8400778"><ele>458.3333333333333</ele><time>2026-05-03T12:45:14.755Z</time></trkpt><trkpt lat="44.3934102" lon="7.8399909"><ele>456.0</ele><time>2026-05-03T12:45:15.758Z</time></trkpt><trkpt lat="44.3933431" lon="7.8399337"><ele>455.1428571428571</ele><time>2026-05-03T12:45:16.756Z</time></trkpt><trkpt lat="44.3932836" lon="7.8398687"><ele>454.2857142857142</ele><time>2026-05-03T12:45:17.757Z</time></trkpt><trkpt lat="44.3932267" lon="7.8398119"><ele>453.42857142857144</ele><time>2026-05-03T12:45:18.753Z</time></trkpt><trkpt lat="44.3931714" lon="7.8397673"><ele>452.57142857142856</ele><time>2026-05-03T12:45:19.759Z</time></trkpt><trkpt lat="44.3931069" lon="7.8397089"><ele>451.7142857142857</ele><time>2026-05-03T12:45:20.756Z</time></trkpt><trkpt lat="44.3930401" lon="7.8396517"><ele>450.8571428571429</ele><time>2026-05-03T12:45:21.759Z</time></trkpt><trkpt lat="44.3929726" lon="7.839598"><ele>450.00000000000006</ele><time>2026-05-03T12:45:22.753Z</time></trkpt><trkpt lat="44.3929078" lon="7.839533"><ele>447.0</ele><time>2026-05-03T12:45:23.756Z</time></trkpt><trkpt lat="44.3928356" lon="7.8394479"><ele>444.0</ele><time>2026-05-03T12:45:24.755Z</time></trkpt><trkpt lat="44.3927718" lon="7.8393574"><ele>441.0</ele><time>2026-05-03T12:45:25.755Z</time></trkpt><trkpt lat="44.3927168" lon="7.8392686"><ele>438.0</ele><time>2026-05-03T12:45:26.762Z</time></trkpt><trkpt lat="44.3926555" lon="7.8391401"><ele>435.0</ele><time>2026-05-03T12:45:27.758Z</time></trkpt><trkpt lat="44.3925885" lon="7.8390248"><ele>434.3333333333333</ele><time>2026-05-03T12:45:28.765Z</time></trkpt><trkpt lat="44.3925338" lon="7.8389129"><ele>433.66666666666663</ele><time>2026-05-03T12:45:29.755Z</time></trkpt><trkpt lat="44.3924832" lon="7.8388147"><ele>433.0</ele><time>2026-05-03T12:45:30.765Z</time></trkpt><trkpt lat="44.392434" lon="7.8387338"><ele>432.3333333333333</ele><time>2026-05-03T12:45:31.764Z</time></trkpt><trkpt lat="44.3923679" lon="7.8386222"><ele>431.66666666666663</ele><time>2026-05-03T12:45:33.756Z</time></trkpt><trkpt lat="44.3923285" lon="7.8385505"><ele>431.0</ele><time>2026-05-03T12:45:35.751Z</time></trkpt><trkpt lat="44.3923128" lon="7.8384584"><ele>429.25</ele><time>2026-05-03T12:45:37.754Z</time></trkpt><trkpt lat="44.3923628" lon="7.8382916"><ele>427.5</ele><time>2026-05-03T12:45:39.762Z</time></trkpt><trkpt lat="44.392427" lon="7.8381936"><ele>425.75</ele><time>2026-05-03T12:45:40.766Z</time></trkpt><trkpt lat="44.392517" lon="7.8380942"><ele>424.0</ele><time>2026-05-03T12:45:41.758Z</time></trkpt><trkpt lat="44.3926244" lon="7.837997"><ele>424.0</ele><time>2026-05-03T12:45:42.755Z</time></trkpt><trkpt lat="44.3927448" lon="7.8378936"><ele>424.0</ele><time>2026-05-03T12:45:43.758Z</time></trkpt><trkpt lat="44.3928675" lon="7.837783"><ele>424.0</ele><time>2026-05-03T12:45:44.76Z</time></trkpt><trkpt lat="44.3929837" lon="7.8376737"><ele>424.0</ele><time>2026-05-03T12:45:45.762Z</time></trkpt><trkpt lat="44.3930973" lon="7.8375783"><ele>422.0</ele><time>2026-05-03T12:45:46.759Z</time></trkpt><trkpt lat="44.393212" lon="7.8374983"><ele>420.0</ele><time>2026-05-03T12:45:47.758Z</time></trkpt><trkpt lat="44.3933288" lon="7.8374283"><ele>418.0</ele><time>2026-05-03T12:45:48.761Z</time></trkpt><trkpt lat="44.3934532" lon="7.8373641"><ele>416.0</ele><time>2026-05-03T12:45:49.763Z</time></trkpt><trkpt lat="44.3935831" lon="7.8373034"><ele>416.0</ele><time>2026-05-03T12:45:50.763Z</time></trkpt><trkpt lat="44.3937121" lon="7.8372463"><ele>416.0</ele><time>2026-05-03T12:45:51.765Z</time></trkpt><trkpt lat="44.393833" lon="7.8371964"><ele>416.0</ele><time>2026-05-03T12:45:52.761Z</time></trkpt><trkpt lat="44.3939457" lon="7.8371575"><ele>416.0</ele><time>2026-05-03T12:45:53.759Z</time></trkpt><trkpt lat="44.3940477" lon="7.8371276"><ele>416.3333333333333</ele><time>2026-05-03T12:45:54.76Z</time></trkpt><trkpt lat="44.3941322" lon="7.837101"><ele>416.66666666666663</ele><time>2026-05-03T12:45:55.758Z</time></trkpt><trkpt lat="44.3942035" lon="7.8370654"><ele>417.0</ele><time>2026-05-03T12:45:56.758Z</time></trkpt><trkpt lat="44.3942629" lon="7.8370057"><ele>417.33333333333337</ele><time>2026-05-03T12:45:57.763Z</time></trkpt><trkpt lat="44.3943097" lon="7.8369175"><ele>417.6666666666667</ele><time>2026-05-03T12:45:58.756Z</time></trkpt><trkpt lat="44.3943491" lon="7.8368132"><ele>418.0</ele><time>2026-05-03T12:45:59.763Z</time></trkpt><trkpt lat="44.3943861" lon="7.8367025"><ele>416.79999999999995</ele><time>2026-05-03T12:46:00.764Z</time></trkpt><trkpt lat="44.3944282" lon="7.8365922"><ele>415.6</ele><time>2026-05-03T12:46:01.762Z</time></trkpt><trkpt lat="44.3944776" lon="7.8364796"><ele>414.4</ele><time>2026-05-03T12:46:02.763Z</time></trkpt><trkpt lat="44.3945399" lon="7.836377"><ele>413.20000000000005</ele><time>2026-05-03T12:46:03.761Z</time></trkpt><trkpt lat="44.3946112" lon="7.8362847"><ele>412.0</ele><time>2026-05-03T12:46:04.754Z</time></trkpt><trkpt lat="44.3946907" lon="7.8362046"><ele>412.00000000000006</ele><time>2026-05-03T12:46:05.759Z</time></trkpt><trkpt lat="44.394772" lon="7.8361317"><ele>412.0</ele><time>2026-05-03T12:46:06.745Z</time></trkpt><trkpt lat="44.3948485" lon="7.8360639"><ele>412.0</ele><time>2026-05-03T12:46:07.76Z</time></trkpt><trkpt lat="44.3949069" lon="7.8359937"><ele>412.0</ele><time>2026-05-03T12:46:08.758Z</time></trkpt><trkpt lat="44.3949503" lon="7.8359181"><ele>412.00000000000006</ele><time>2026-05-03T12:46:09.759Z</time></trkpt><trkpt lat="44.3949704" lon="7.8358305"><ele>412.0</ele><time>2026-05-03T12:46:10.758Z</time></trkpt><trkpt lat="44.3949684" lon="7.8357261"><ele>410.0</ele><time>2026-05-03T12:46:11.763Z</time></trkpt><trkpt lat="44.3949441" lon="7.8355973"><ele>408.0</ele><time>2026-05-03T12:46:12.756Z</time></trkpt><trkpt lat="44.3949127" lon="7.8354599"><ele>406.0</ele><time>2026-05-03T12:46:13.762Z</time></trkpt><trkpt lat="44.3948852" lon="7.8353323"><ele>404.0</ele><time>2026-05-03T12:46:14.767Z</time></trkpt><trkpt lat="44.3948662" lon="7.8352052"><ele>402.0</ele><time>2026-05-03T12:46:15.758Z</time></trkpt><trkpt lat="44.3948621" lon="7.8350646"><ele>399.6</ele><time>2026-05-03T12:46:16.761Z</time></trkpt><trkpt lat="44.3948684" lon="7.8349087"><ele>397.20000000000005</ele><time>2026-05-03T12:46:17.754Z</time></trkpt><trkpt lat="44.3948736" lon="7.8347616"><ele>394.8</ele><time>2026-05-03T12:46:18.754Z</time></trkpt><trkpt lat="44.3948782" lon="7.8346294"><ele>392.4</ele><time>2026-05-03T12:46:19.755Z</time></trkpt><trkpt lat="44.3948804" lon="7.8345194"><ele>390.0</ele><time>2026-05-03T12:46:20.769Z</time></trkpt><trkpt lat="44.3948847" lon="7.8344257"><ele>390.0</ele><time>2026-05-03T12:46:21.759Z</time></trkpt><trkpt lat="44.3948883" lon="7.8343369"><ele>390.0</ele><time>2026-05-03T12:46:22.754Z</time></trkpt><trkpt lat="44.3948896" lon="7.8342377"><ele>390.0</ele><time>2026-05-03T12:46:23.76Z</time></trkpt><trkpt lat="44.3948937" lon="7.8341244"><ele>390.0</ele><time>2026-05-03T12:46:24.763Z</time></trkpt><trkpt lat="44.394899" lon="7.8340226"><ele>390.0</ele><time>2026-05-03T12:46:25.757Z</time></trkpt><trkpt lat="44.3949508" lon="7.8339346"><ele>390.0</ele><time>2026-05-03T12:46:26.766Z</time></trkpt><trkpt lat="44.3950251" lon="7.8338788"><ele>390.4</ele><time>2026-05-03T12:46:27.76Z</time></trkpt><trkpt lat="44.3951191" lon="7.8338446"><ele>390.8</ele><time>2026-05-03T12:46:28.759Z</time></trkpt><trkpt lat="44.3952268" lon="7.8338202"><ele>391.20000000000005</ele><time>2026-05-03T12:46:29.757Z</time></trkpt><trkpt lat="44.3953407" lon="7.8337975"><ele>391.6</ele><time>2026-05-03T12:46:30.769Z</time></trkpt><trkpt lat="44.395455" lon="7.8337822"><ele>392.0</ele><time>2026-05-03T12:46:31.765Z</time></trkpt><trkpt lat="44.3955637" lon="7.8337654"><ele>391.99999999999994</ele><time>2026-05-03T12:46:32.755Z</time></trkpt><trkpt lat="44.3956593" lon="7.8337549"><ele>392.0</ele><time>2026-05-03T12:46:33.756Z</time></trkpt><trkpt lat="44.3957452" lon="7.8337477"><ele>392.0</ele><time>2026-05-03T12:46:34.753Z</time></trkpt><trkpt lat="44.3958272" lon="7.8337417"><ele>392.0</ele><time>2026-05-03T12:46:35.752Z</time></trkpt><trkpt lat="44.3959084" lon="7.8337365"><ele>391.99999999999994</ele><time>2026-05-03T12:46:36.752Z</time></trkpt><trkpt lat="44.3959947" lon="7.8337218"><ele>392.0</ele><time>2026-05-03T12:46:37.757Z</time></trkpt><trkpt lat="44.3960852" lon="7.8337044"><ele>391.99999999999994</ele><time>2026-05-03T12:46:38.754Z</time></trkpt><trkpt lat="44.3961811" lon="7.8336957"><ele>392.0</ele><time>2026-05-03T12:46:39.751Z</time></trkpt><trkpt lat="44.3962835" lon="7.8336987"><ele>392.0</ele><time>2026-05-03T12:46:40.755Z</time></trkpt><trkpt lat="44.3963826" lon="7.8337085"><ele>392.0</ele><time>2026-05-03T12:46:41.753Z</time></trkpt><trkpt lat="44.3964647" lon="7.8337209"><ele>391.99999999999994</ele><time>2026-05-03T12:46:42.758Z</time></trkpt><trkpt lat="44.3965307" lon="7.8337278"><ele>392.0</ele><time>2026-05-03T12:46:43.757Z</time></trkpt><trkpt lat="44.3966191" lon="7.8337321"><ele>393.40000000000003</ele><time>2026-05-03T12:46:45.757Z</time></trkpt><trkpt lat="44.3966995" lon="7.8337254"><ele>394.8</ele><time>2026-05-03T12:46:48.761Z</time></trkpt><trkpt lat="44.3967855" lon="7.8337727"><ele>396.2</ele><time>2026-05-03T12:46:50.761Z</time></trkpt><trkpt lat="44.3969053" lon="7.8338952"><ele>397.6</ele><time>2026-05-03T12:46:52.762Z</time></trkpt><trkpt lat="44.3969779" lon="7.8339847"><ele>399.0</ele><time>2026-05-03T12:46:53.757Z</time></trkpt><trkpt lat="44.3970579" lon="7.8340789"><ele>399.0</ele><time>2026-05-03T12:46:54.756Z</time></trkpt><trkpt lat="44.3971396" lon="7.834175"><ele>399.0</ele><time>2026-05-03T12:46:55.76Z</time></trkpt><trkpt lat="44.3972199" lon="7.8342735"><ele>399.0</ele><time>2026-05-03T12:46:56.761Z</time></trkpt><trkpt lat="44.3973094" lon="7.8343769"><ele>399.0</ele><time>2026-05-03T12:46:57.77Z</time></trkpt><trkpt lat="44.3973996" lon="7.8344849"><ele>399.0</ele><time>2026-05-03T12:46:58.763Z</time></trkpt><trkpt lat="44.3974918" lon="7.8345989"><ele>398.0</ele><time>2026-05-03T12:46:59.759Z</time></trkpt><trkpt lat="44.3975865" lon="7.8347148"><ele>397.0</ele><time>2026-05-03T12:47:00.755Z</time></trkpt><trkpt lat="44.3976818" lon="7.8348344"><ele>396.0</ele><time>2026-05-03T12:47:01.759Z</time></trkpt><trkpt lat="44.3977739" lon="7.8349606"><ele>395.0</ele><time>2026-05-03T12:47:02.755Z</time></trkpt><trkpt lat="44.3978585" lon="7.8350874"><ele>396.0</ele><time>2026-05-03T12:47:03.759Z</time></trkpt><trkpt lat="44.3979279" lon="7.8352141"><ele>397.0</ele><time>2026-05-03T12:47:04.758Z</time></trkpt><trkpt lat="44.3979823" lon="7.8353488"><ele>398.0</ele><time>2026-05-03T12:47:05.761Z</time></trkpt><trkpt lat="44.3980227" lon="7.8354949"><ele>399.0</ele><time>2026-05-03T12:47:06.761Z</time></trkpt><trkpt lat="44.3980526" lon="7.8356512"><ele>399.0</ele><time>2026-05-03T12:47:07.758Z</time></trkpt><trkpt lat="44.3980781" lon="7.8358168"><ele>399.0</ele><time>2026-05-03T12:47:08.755Z</time></trkpt><trkpt lat="44.3981047" lon="7.8359889"><ele>399.0</ele><time>2026-05-03T12:47:09.759Z</time></trkpt><trkpt lat="44.3981292" lon="7.8361616"><ele>399.0</ele><time>2026-05-03T12:47:10.758Z</time></trkpt><trkpt lat="44.3981504" lon="7.8363331"><ele>398.25</ele><time>2026-05-03T12:47:11.761Z</time></trkpt><trkpt lat="44.3981762" lon="7.8364951"><ele>397.5</ele><time>2026-05-03T12:47:12.758Z</time></trkpt><trkpt lat="44.3982226" lon="7.8366503"><ele>396.75</ele><time>2026-05-03T12:47:13.76Z</time></trkpt><trkpt lat="44.3982887" lon="7.8367908"><ele>396.0</ele><time>2026-05-03T12:47:14.751Z</time></trkpt><trkpt lat="44.3983704" lon="7.8369193"><ele>394.25</ele><time>2026-05-03T12:47:15.762Z</time></trkpt><trkpt lat="44.3984635" lon="7.8370416"><ele>392.5</ele><time>2026-05-03T12:47:16.758Z</time></trkpt><trkpt lat="44.3985641" lon="7.8371669"><ele>390.75</ele><time>2026-05-03T12:47:17.758Z</time></trkpt><trkpt lat="44.3986665" lon="7.8372959"><ele>389.0</ele><time>2026-05-03T12:47:18.757Z</time></trkpt><trkpt lat="44.3987659" lon="7.8374295"><ele>389.25</ele><time>2026-05-03T12:47:19.763Z</time></trkpt><trkpt lat="44.3988631" lon="7.8375696"><ele>389.5</ele><time>2026-05-03T12:47:20.763Z</time></trkpt><trkpt lat="44.3989605" lon="7.8377175"><ele>389.75</ele><time>2026-05-03T12:47:21.761Z</time></trkpt><trkpt lat="44.3990597" lon="7.8378705"><ele>390.0</ele><time>2026-05-03T12:47:22.765Z</time></trkpt><trkpt lat="44.3991604" lon="7.8380266"><ele>390.0</ele><time>2026-05-03T12:47:23.764Z</time></trkpt><trkpt lat="44.3992619" lon="7.8381849"><ele>390.0</ele><time>2026-05-03T12:47:24.759Z</time></trkpt><trkpt lat="44.399357" lon="7.8383501"><ele>390.0</ele><time>2026-05-03T12:47:25.758Z</time></trkpt><trkpt lat="44.3994404" lon="7.8385263"><ele>391.66666666666663</ele><time>2026-05-03T12:47:26.766Z</time></trkpt><trkpt lat="44.3995134" lon="7.8387092"><ele>393.3333333333333</ele><time>2026-05-03T12:47:27.798Z</time></trkpt><trkpt lat="44.3995828" lon="7.8388917"><ele>395.0</ele><time>2026-05-03T12:47:28.88Z</time></trkpt><trkpt lat="44.3997246" lon="7.8392554"><ele>393.25</ele><time>2026-05-03T12:47:30.762Z</time></trkpt><trkpt lat="44.3997965" lon="7.8394359"><ele>391.5</ele><time>2026-05-03T12:47:31.757Z</time></trkpt><trkpt lat="44.3998695" lon="7.8396127"><ele>389.75</ele><time>2026-05-03T12:47:32.759Z</time></trkpt><trkpt lat="44.3999484" lon="7.8397854"><ele>388.0</ele><time>2026-05-03T12:47:33.759Z</time></trkpt><trkpt lat="44.4000426" lon="7.8399501"><ele>388.0</ele><time>2026-05-03T12:47:34.759Z</time></trkpt><trkpt lat="44.4001565" lon="7.8401008"><ele>388.0</ele><time>2026-05-03T12:47:35.754Z</time></trkpt><trkpt lat="44.4002838" lon="7.8402315"><ele>388.0</ele><time>2026-05-03T12:47:36.762Z</time></trkpt><trkpt lat="44.4004166" lon="7.8403337"><ele>387.25</ele><time>2026-05-03T12:47:37.76Z</time></trkpt><trkpt lat="44.4005516" lon="7.8404167"><ele>386.5</ele><time>2026-05-03T12:47:38.762Z</time></trkpt><trkpt lat="44.4006817" lon="7.8404921"><ele>385.75</ele><time>2026-05-03T12:47:39.762Z</time></trkpt><trkpt lat="44.4008115" lon="7.8405624"><ele>385.0</ele><time>2026-05-03T12:47:40.77Z</time></trkpt><trkpt lat="44.400939" lon="7.8406268"><ele>385.0</ele><time>2026-05-03T12:47:41.75Z</time></trkpt><trkpt lat="44.4010611" lon="7.8406738"><ele>385.0</ele><time>2026-05-03T12:47:42.754Z</time></trkpt><trkpt lat="44.4011798" lon="7.8406984"><ele>385.0</ele><time>2026-05-03T12:47:43.753Z</time></trkpt><trkpt lat="44.4012967" lon="7.8407104"><ele>385.0</ele><time>2026-05-03T12:47:44.785Z</time></trkpt><trkpt lat="44.4014167" lon="7.8407167"><ele>387.25</ele><time>2026-05-03T12:47:45.762Z</time></trkpt><trkpt lat="44.4015394" lon="7.8407244"><ele>389.5</ele><time>2026-05-03T12:47:46.758Z</time></trkpt><trkpt lat="44.4016604" lon="7.8407405"><ele>391.75</ele><time>2026-05-03T12:47:47.763Z</time></trkpt><trkpt lat="44.4017752" lon="7.8407734"><ele>394.0</ele><time>2026-05-03T12:47:48.755Z</time></trkpt><trkpt lat="44.4018788" lon="7.8408335"><ele>394.0</ele><time>2026-05-03T12:47:49.756Z</time></trkpt><trkpt lat="44.4019758" lon="7.8409331"><ele>394.0</ele><time>2026-05-03T12:47:50.76Z</time></trkpt><trkpt lat="44.4020623" lon="7.841073"><ele>394.0</ele><time>2026-05-03T12:47:51.752Z</time></trkpt><trkpt lat="44.4021413" lon="7.8412387"><ele>394.0</ele><time>2026-05-03T12:47:52.761Z</time></trkpt><trkpt lat="44.4022197" lon="7.8413981"><ele>393.0</ele><time>2026-05-03T12:47:53.755Z</time></trkpt><trkpt lat="44.4023005" lon="7.8415623"><ele>392.0</ele><time>2026-05-03T12:47:54.761Z</time></trkpt><trkpt lat="44.4024173" lon="7.8416969"><ele>391.0</ele><time>2026-05-03T12:47:55.759Z</time></trkpt><trkpt lat="44.4025358" lon="7.8418082"><ele>390.0</ele><time>2026-05-03T12:47:56.752Z</time></trkpt><trkpt lat="44.402667" lon="7.8418854"><ele>390.0</ele><time>2026-05-03T12:47:57.757Z</time></trkpt><trkpt lat="44.4027972" lon="7.8419618"><ele>390.0</ele><time>2026-05-03T12:47:58.755Z</time></trkpt><trkpt lat="44.402914" lon="7.8420387"><ele>390.0</ele><time>2026-05-03T12:47:59.756Z</time></trkpt><trkpt lat="44.4030288" lon="7.8421024"><ele>390.0</ele><time>2026-05-03T12:48:00.754Z</time></trkpt><trkpt lat="44.4031519" lon="7.8421453"><ele>387.75</ele><time>2026-05-03T12:48:01.759Z</time></trkpt><trkpt lat="44.403274" lon="7.8421758"><ele>385.5</ele><time>2026-05-03T12:48:02.761Z</time></trkpt><trkpt lat="44.4033914" lon="7.8422028"><ele>383.25</ele><time>2026-05-03T12:48:03.761Z</time></trkpt><trkpt lat="44.4035098" lon="7.8422469"><ele>381.0</ele><time>2026-05-03T12:48:04.763Z</time></trkpt><trkpt lat="44.4036213" lon="7.8423085"><ele>381.0</ele><time>2026-05-03T12:48:05.757Z</time></trkpt><trkpt lat="44.4037316" lon="7.8423758"><ele>381.0</ele><time>2026-05-03T12:48:06.759Z</time></trkpt><trkpt lat="44.4038171" lon="7.8424805"><ele>381.0</ele><time>2026-05-03T12:48:07.762Z</time></trkpt><trkpt lat="44.4038876" lon="7.8425934"><ele>381.0</ele><time>2026-05-03T12:48:08.758Z</time></trkpt><trkpt lat="44.4039291" lon="7.8427159"><ele>381.0</ele><time>2026-05-03T12:48:09.755Z</time></trkpt><trkpt lat="44.4039399" lon="7.8428448"><ele>381.5</ele><time>2026-05-03T12:48:10.756Z</time></trkpt><trkpt lat="44.4039167" lon="7.8429778"><ele>382.0</ele><time>2026-05-03T12:48:11.763Z</time></trkpt><trkpt lat="44.4038703" lon="7.8431291"><ele>382.5</ele><time>2026-05-03T12:48:12.755Z</time></trkpt><trkpt lat="44.4038149" lon="7.8432904"><ele>383.0</ele><time>2026-05-03T12:48:13.756Z</time></trkpt><trkpt lat="44.4037544" lon="7.8434679"><ele>377.33333333333337</ele><time>2026-05-03T12:48:14.767Z</time></trkpt><trkpt lat="44.4036911" lon="7.8436536"><ele>371.6666666666667</ele><time>2026-05-03T12:48:15.756Z</time></trkpt><trkpt lat="44.4036133" lon="7.8438481"><ele>366.0</ele><time>2026-05-03T12:48:16.755Z</time></trkpt><trkpt lat="44.4035381" lon="7.8440504"><ele>366.0</ele><time>2026-05-03T12:48:17.754Z</time></trkpt><trkpt lat="44.4034682" lon="7.8442676"><ele>366.0</ele><time>2026-05-03T12:48:18.759Z</time></trkpt><trkpt lat="44.4033915" lon="7.8444928"><ele>366.0</ele><time>2026-05-03T12:48:19.758Z</time></trkpt><trkpt lat="44.4033149" lon="7.8447166"><ele>362.0</ele><time>2026-05-03T12:48:20.763Z</time></trkpt><trkpt lat="44.4032372" lon="7.8449419"><ele>358.0</ele><time>2026-05-03T12:48:21.751Z</time></trkpt><trkpt lat="44.4031568" lon="7.8451612"><ele>354.0</ele><time>2026-05-03T12:48:22.757Z</time></trkpt><trkpt lat="44.4030814" lon="7.8453674"><ele>353.75</ele><time>2026-05-03T12:48:23.754Z</time></trkpt><trkpt lat="44.4030199" lon="7.8455601"><ele>353.5</ele><time>2026-05-03T12:48:24.779Z</time></trkpt><trkpt lat="44.4029628" lon="7.8457446"><ele>353.25</ele><time>2026-05-03T12:48:25.753Z</time></trkpt><trkpt lat="44.4029375" lon="7.8459232"><ele>353.0</ele><time>2026-05-03T12:48:26.757Z</time></trkpt><trkpt lat="44.4029435" lon="7.8461082"><ele>353.0</ele><time>2026-05-03T12:48:27.759Z</time></trkpt><trkpt lat="44.4029675" lon="7.8462961"><ele>353.0</ele><time>2026-05-03T12:48:28.765Z</time></trkpt><trkpt lat="44.4030159" lon="7.8464851"><ele>353.0</ele><time>2026-05-03T12:48:29.758Z</time></trkpt><trkpt lat="44.4030837" lon="7.8466678"><ele>353.0</ele><time>2026-05-03T12:48:30.754Z</time></trkpt><trkpt lat="44.4031683" lon="7.8468501"><ele>351.6666666666667</ele><time>2026-05-03T12:48:31.761Z</time></trkpt><trkpt lat="44.4032632" lon="7.8470266"><ele>350.3333333333333</ele><time>2026-05-03T12:48:32.754Z</time></trkpt><trkpt lat="44.4033599" lon="7.8472016"><ele>349.0</ele><time>2026-05-03T12:48:33.758Z</time></trkpt><trkpt lat="44.4034625" lon="7.8473852"><ele>349.0</ele><time>2026-05-03T12:48:34.754Z</time></trkpt><trkpt lat="44.4035661" lon="7.8475758"><ele>349.0</ele><time>2026-05-03T12:48:35.761Z</time></trkpt><trkpt lat="44.4036697" lon="7.8477743"><ele>349.0</ele><time>2026-05-03T12:48:36.758Z</time></trkpt><trkpt lat="44.4037718" lon="7.8479766"><ele>349.3333333333333</ele><time>2026-05-03T12:48:37.822Z</time></trkpt><trkpt lat="44.4038765" lon="7.8481734"><ele>349.6666666666667</ele><time>2026-05-03T12:48:38.76Z</time></trkpt><trkpt lat="44.4039766" lon="7.8483671"><ele>350.0</ele><time>2026-05-03T12:48:39.763Z</time></trkpt><trkpt lat="44.4040733" lon="7.8485514"><ele>352.0</ele><time>2026-05-03T12:48:40.762Z</time></trkpt><trkpt lat="44.4041621" lon="7.8487185"><ele>354.0</ele><time>2026-05-03T12:48:41.753Z</time></trkpt><trkpt lat="44.404262" lon="7.8488691"><ele>356.0</ele><time>2026-05-03T12:48:42.755Z</time></trkpt><trkpt lat="44.4043828" lon="7.848994"><ele>358.0</ele><time>2026-05-03T12:48:43.765Z</time></trkpt><trkpt lat="44.4045256" lon="7.8490898"><ele>356.66666666666663</ele><time>2026-05-03T12:48:44.763Z</time></trkpt><trkpt lat="44.4046833" lon="7.8491681"><ele>355.3333333333333</ele><time>2026-05-03T12:48:45.767Z</time></trkpt><trkpt lat="44.4048468" lon="7.8492396"><ele>354.0</ele><time>2026-05-03T12:48:46.761Z</time></trkpt><trkpt lat="44.405014" lon="7.8493147"><ele>360.0</ele><time>2026-05-03T12:48:47.755Z</time></trkpt><trkpt lat="44.4051807" lon="7.8493915"><ele>366.0</ele><time>2026-05-03T12:48:48.75Z</time></trkpt><trkpt lat="44.4053376" lon="7.8494652"><ele>372.0</ele><time>2026-05-03T12:48:49.755Z</time></trkpt><trkpt lat="44.4054821" lon="7.8495323"><ele>367.0</ele><time>2026-05-03T12:48:50.754Z</time></trkpt><trkpt lat="44.4056042" lon="7.8495916"><ele>362.0</ele><time>2026-05-03T12:48:51.757Z</time></trkpt><trkpt lat="44.40571" lon="7.849653"><ele>357.0</ele><time>2026-05-03T12:48:52.76Z</time></trkpt><trkpt lat="44.4057957" lon="7.8497374"><ele>352.0</ele><time>2026-05-03T12:48:53.766Z</time></trkpt><trkpt lat="44.4058574" lon="7.8498537"><ele>352.0</ele><time>2026-05-03T12:48:54.76Z</time></trkpt><trkpt lat="44.4058932" lon="7.8499995"><ele>352.0</ele><time>2026-05-03T12:48:55.756Z</time></trkpt><trkpt lat="44.4059071" lon="7.8501646"><ele>352.0</ele><time>2026-05-03T12:48:56.757Z</time></trkpt><trkpt lat="44.405909" lon="7.8503407"><ele>352.0</ele><time>2026-05-03T12:48:57.762Z</time></trkpt><trkpt lat="44.4059108" lon="7.8505249"><ele>351.5</ele><time>2026-05-03T12:48:58.758Z</time></trkpt><trkpt lat="44.4059149" lon="7.8507159"><ele>351.0</ele><time>2026-05-03T12:48:59.757Z</time></trkpt><trkpt lat="44.4059179" lon="7.8509145"><ele>350.5</ele><time>2026-05-03T12:49:00.758Z</time></trkpt><trkpt lat="44.4059193" lon="7.8511098"><ele>350.0</ele><time>2026-05-03T12:49:01.76Z</time></trkpt><trkpt lat="44.4059292" lon="7.8513295"><ele>350.0</ele><time>2026-05-03T12:49:02.76Z</time></trkpt><trkpt lat="44.4059348" lon="7.8515496"><ele>350.0</ele><time>2026-05-03T12:49:03.758Z</time></trkpt><trkpt lat="44.4059385" lon="7.8517838"><ele>350.0</ele><time>2026-05-03T12:49:04.757Z</time></trkpt><trkpt lat="44.4059461" lon="7.8520287"><ele>349.6666666666667</ele><time>2026-05-03T12:49:05.759Z</time></trkpt><trkpt lat="44.4059587" lon="7.8522823"><ele>349.3333333333333</ele><time>2026-05-03T12:49:06.758Z</time></trkpt><trkpt lat="44.4059684" lon="7.8525421"><ele>349.0</ele><time>2026-05-03T12:49:07.754Z</time></trkpt><trkpt lat="44.405973" lon="7.8528012"><ele>348.66666666666663</ele><time>2026-05-03T12:49:08.756Z</time></trkpt><trkpt lat="44.4059733" lon="7.8530484"><ele>348.3333333333333</ele><time>2026-05-03T12:49:09.778Z</time></trkpt><trkpt lat="44.4059758" lon="7.8532805"><ele>348.0</ele><time>2026-05-03T12:49:10.756Z</time></trkpt><trkpt lat="44.4059792" lon="7.8535073"><ele>349.6666666666667</ele><time>2026-05-03T12:49:11.757Z</time></trkpt><trkpt lat="44.4059838" lon="7.8537385"><ele>351.33333333333337</ele><time>2026-05-03T12:49:12.756Z</time></trkpt><trkpt lat="44.4059913" lon="7.8539669"><ele>353.0</ele><time>2026-05-03T12:49:13.759Z</time></trkpt><trkpt lat="44.4060038" lon="7.8541919"><ele>354.0</ele><time>2026-05-03T12:49:14.751Z</time></trkpt><trkpt lat="44.406026" lon="7.8544185"><ele>355.0</ele><time>2026-05-03T12:49:15.753Z</time></trkpt><trkpt lat="44.4060604" lon="7.854646"><ele>356.0</ele><time>2026-05-03T12:49:16.754Z</time></trkpt><trkpt lat="44.4061084" lon="7.8548768"><ele>356.0</ele><time>2026-05-03T12:49:17.761Z</time></trkpt><trkpt lat="44.4061671" lon="7.8551057"><ele>356.0</ele><time>2026-05-03T12:49:18.764Z</time></trkpt><trkpt lat="44.4062362" lon="7.8553374"><ele>356.0</ele><time>2026-05-03T12:49:19.755Z</time></trkpt><trkpt lat="44.406317" lon="7.8555669"><ele>352.33333333333337</ele><time>2026-05-03T12:49:20.764Z</time></trkpt><trkpt lat="44.4064107" lon="7.855795"><ele>348.6666666666667</ele><time>2026-05-03T12:49:21.759Z</time></trkpt><trkpt lat="44.4065161" lon="7.8560164"><ele>345.0</ele><time>2026-05-03T12:49:22.757Z</time></trkpt><trkpt lat="44.4066388" lon="7.8562328"><ele>345.0</ele><time>2026-05-03T12:49:23.754Z</time></trkpt><trkpt lat="44.4067746" lon="7.8564432"><ele>345.0</ele><time>2026-05-03T12:49:24.76Z</time></trkpt><trkpt lat="44.4069185" lon="7.856647"><ele>345.0</ele><time>2026-05-03T12:49:25.764Z</time></trkpt><trkpt lat="44.4070657" lon="7.8568491"><ele>341.6666666666667</ele><time>2026-05-03T12:49:26.759Z</time></trkpt><trkpt lat="44.4072157" lon="7.857048"><ele>338.33333333333337</ele><time>2026-05-03T12:49:27.762Z</time></trkpt><trkpt lat="44.4073717" lon="7.8572401"><ele>335.0</ele><time>2026-05-03T12:49:28.761Z</time></trkpt><trkpt lat="44.4075351" lon="7.8574218"><ele>335.0</ele><time>2026-05-03T12:49:29.765Z</time></trkpt><trkpt lat="44.4077003" lon="7.8575912"><ele>335.0</ele><time>2026-05-03T12:49:30.77Z</time></trkpt><trkpt lat="44.4078607" lon="7.8577537"><ele>335.0</ele><time>2026-05-03T12:49:31.768Z</time></trkpt><trkpt lat="44.4080172" lon="7.8579125"><ele>334.6666666666667</ele><time>2026-05-03T12:49:32.759Z</time></trkpt><trkpt lat="44.40817" lon="7.8580679"><ele>334.3333333333333</ele><time>2026-05-03T12:49:33.759Z</time></trkpt><trkpt lat="44.4083138" lon="7.8582178"><ele>334.0</ele><time>2026-05-03T12:49:34.758Z</time></trkpt><trkpt lat="44.4084506" lon="7.858358"><ele>334.0</ele><time>2026-05-03T12:49:35.757Z</time></trkpt><trkpt lat="44.408579" lon="7.8584886"><ele>334.0</ele><time>2026-05-03T12:49:36.754Z</time></trkpt><trkpt lat="44.4086969" lon="7.8586064"><ele>334.0</ele><time>2026-05-03T12:49:37.758Z</time></trkpt><trkpt lat="44.4088038" lon="7.8587146"><ele>334.0</ele><time>2026-05-03T12:49:38.762Z</time></trkpt><trkpt lat="44.4089001" lon="7.8588125"><ele>334.0</ele><time>2026-05-03T12:49:39.759Z</time></trkpt><trkpt lat="44.4089813" lon="7.8588988"><ele>334.0</ele><time>2026-05-03T12:49:40.752Z</time></trkpt><trkpt lat="44.4090493" lon="7.8589766"><ele>334.0</ele><time>2026-05-03T12:49:41.762Z</time></trkpt><trkpt lat="44.4091045" lon="7.8590499"><ele>334.0</ele><time>2026-05-03T12:49:42.763Z</time></trkpt><trkpt lat="44.4091477" lon="7.8591194"><ele>334.0</ele><time>2026-05-03T12:49:43.753Z</time></trkpt><trkpt lat="44.4091839" lon="7.8591945"><ele>334.0</ele><time>2026-05-03T12:49:44.755Z</time></trkpt><trkpt lat="44.4092207" lon="7.8592928"><ele>334.4</ele><time>2026-05-03T12:49:45.763Z</time></trkpt><trkpt lat="44.4092558" lon="7.8594237"><ele>334.79999999999995</ele><time>2026-05-03T12:49:46.764Z</time></trkpt><trkpt lat="44.4092911" lon="7.8595781"><ele>335.20000000000005</ele><time>2026-05-03T12:49:47.755Z</time></trkpt><trkpt lat="44.4093205" lon="7.8597214"><ele>335.6</ele><time>2026-05-03T12:49:48.761Z</time></trkpt><trkpt lat="44.4093476" lon="7.8598413"><ele>336.0</ele><time>2026-05-03T12:49:49.766Z</time></trkpt><trkpt lat="44.4093696" lon="7.859942"><ele>336.0</ele><time>2026-05-03T12:49:50.76Z</time></trkpt><trkpt lat="44.4093846" lon="7.8600727"><ele>336.0</ele><time>2026-05-03T12:49:52.758Z</time></trkpt><trkpt lat="44.4093044" lon="7.8600451"><ele>336.0</ele><time>2026-05-03T12:49:57.76Z</time></trkpt><trkpt lat="44.4092897" lon="7.8599473"><ele>336.0</ele><time>2026-05-03T12:50:29.754Z</time></trkpt><trkpt lat="44.409251" lon="7.8598431"><ele>336.0</ele><time>2026-05-03T12:50:31.797Z</time></trkpt><trkpt lat="44.4091764" lon="7.8597842"><ele>336.0</ele><time>2026-05-03T12:50:33.796Z</time></trkpt><trkpt lat="44.4090746" lon="7.8597739"><ele>336.0</ele><time>2026-05-03T12:50:35.76Z</time></trkpt><trkpt lat="44.4089583" lon="7.8598111"><ele>336.0</ele><time>2026-05-03T12:50:37.761Z</time></trkpt><trkpt lat="44.4088983" lon="7.8598477"><ele>336.0</ele><time>2026-05-03T12:50:38.754Z</time></trkpt><trkpt lat="44.4088334" lon="7.8598844"><ele>336.0</ele><time>2026-05-03T12:50:39.768Z</time></trkpt><trkpt lat="44.4087649" lon="7.8599261"><ele>336.0</ele><time>2026-05-03T12:50:40.758Z</time></trkpt><trkpt lat="44.4086962" lon="7.8599696"><ele>336.0</ele><time>2026-05-03T12:50:41.759Z</time></trkpt><trkpt lat="44.4086299" lon="7.8600108"><ele>337.1666666666667</ele><time>2026-05-03T12:50:42.76Z</time></trkpt><trkpt lat="44.4085656" lon="7.8600494"><ele>338.3333333333333</ele><time>2026-05-03T12:50:43.759Z</time></trkpt><trkpt lat="44.4084528" lon="7.8601097"><ele>339.5</ele><time>2026-05-03T12:50:45.758Z</time></trkpt><trkpt lat="44.4083942" lon="7.8601514"><ele>340.66666666666663</ele><time>2026-05-03T12:50:46.763Z</time></trkpt><trkpt lat="44.4083368" lon="7.8602031"><ele>341.8333333333333</ele><time>2026-05-03T12:50:47.756Z</time></trkpt><trkpt lat="44.4082466" lon="7.8603023"><ele>343.0</ele><time>2026-05-03T12:50:49.757Z</time></trkpt><trkpt lat="44.4081856" lon="7.8604369"><ele>343.79999999999995</ele><time>2026-05-03T12:50:51.765Z</time></trkpt><trkpt lat="44.4081377" lon="7.8605427"><ele>344.6</ele><time>2026-05-03T12:50:53.756Z</time></trkpt><trkpt lat="44.408102" lon="7.860656"><ele>345.4</ele><time>2026-05-03T12:50:55.756Z</time></trkpt><trkpt lat="44.4080247" lon="7.8607219"><ele>346.20000000000005</ele><time>2026-05-03T12:50:57.759Z</time></trkpt><trkpt lat="44.4079165" lon="7.8607623"><ele>347.0</ele><time>2026-05-03T12:50:59.752Z</time></trkpt><trkpt lat="44.4078072" lon="7.8608266"><ele>349.6</ele><time>2026-05-03T12:51:01.76Z</time></trkpt><trkpt lat="44.4077156" lon="7.8608903"><ele>352.20000000000005</ele><time>2026-05-03T12:51:03.76Z</time></trkpt><trkpt lat="44.4076165" lon="7.860928"><ele>354.8</ele><time>2026-05-03T12:51:05.756Z</time></trkpt><trkpt lat="44.4074986" lon="7.8609347"><ele>357.4</ele><time>2026-05-03T12:51:07.758Z</time></trkpt><trkpt lat="44.4073819" lon="7.8609254"><ele>360.0</ele><time>2026-05-03T12:51:09.761Z</time></trkpt><trkpt lat="44.4072592" lon="7.8609317"><ele>360.0</ele><time>2026-05-03T12:51:11.762Z</time></trkpt><trkpt lat="44.4071912" lon="7.860938"><ele>360.0</ele><time>2026-05-03T12:51:12.75Z</time></trkpt><trkpt lat="44.4071217" lon="7.8609455"><ele>360.0</ele><time>2026-05-03T12:51:13.762Z</time></trkpt><trkpt lat="44.407057" lon="7.8609492"><ele>360.0</ele><time>2026-05-03T12:51:14.755Z</time></trkpt><trkpt lat="44.4069548" lon="7.8609588"><ele>360.0</ele><time>2026-05-03T12:51:16.774Z</time></trkpt><trkpt lat="44.4068324" lon="7.8609636"><ele>360.0</ele><time>2026-05-03T12:51:18.75Z</time></trkpt><trkpt lat="44.4067636" lon="7.8609638"><ele>361.0</ele><time>2026-05-03T12:51:19.758Z</time></trkpt><trkpt lat="44.4066925" lon="7.8609522"><ele>362.0</ele><time>2026-05-03T12:51:20.753Z</time></trkpt><trkpt lat="44.4066164" lon="7.8609538"><ele>363.0</ele><time>2026-05-03T12:51:21.754Z</time></trkpt><trkpt lat="44.4065454" lon="7.8609583"><ele>364.0</ele><time>2026-05-03T12:51:22.754Z</time></trkpt><trkpt lat="44.4064747" lon="7.8609613"><ele>365.0</ele><time>2026-05-03T12:51:23.755Z</time></trkpt><trkpt lat="44.4063575" lon="7.8609334"><ele>366.0</ele><time>2026-05-03T12:51:25.749Z</time></trkpt><trkpt lat="44.4062541" lon="7.8608949"><ele>367.5</ele><time>2026-05-03T12:51:27.755Z</time></trkpt><trkpt lat="44.4061503" lon="7.8608331"><ele>369.0</ele><time>2026-05-03T12:51:29.755Z</time></trkpt><trkpt lat="44.4060755" lon="7.8607678"><ele>370.5</ele><time>2026-05-03T12:51:31.755Z</time></trkpt><trkpt lat="44.4060266" lon="7.8607091"><ele>372.0</ele><time>2026-05-03T12:51:33.76Z</time></trkpt><trkpt lat="44.4059667" lon="7.8606598"><ele>373.5</ele><time>2026-05-03T12:51:35.759Z</time></trkpt><trkpt lat="44.4058885" lon="7.8605997"><ele>375.0</ele><time>2026-05-03T12:51:37.77Z</time></trkpt><trkpt lat="44.405807" lon="7.8605338"><ele>375.0</ele><time>2026-05-03T12:51:39.756Z</time></trkpt><trkpt lat="44.4057272" lon="7.8604806"><ele>375.0</ele><time>2026-05-03T12:51:41.748Z</time></trkpt><trkpt lat="44.405628" lon="7.8604426"><ele>375.0</ele><time>2026-05-03T12:51:43.761Z</time></trkpt><trkpt lat="44.4055315" lon="7.8604336"><ele>375.0</ele><time>2026-05-03T12:51:45.749Z</time></trkpt><trkpt lat="44.4054247" lon="7.8604415"><ele>375.0</ele><time>2026-05-03T12:51:47.749Z</time></trkpt><trkpt lat="44.4053112" lon="7.8604257"><ele>376.2</ele><time>2026-05-03T12:51:49.751Z</time></trkpt><trkpt lat="44.405205" lon="7.8603793"><ele>377.4</ele><time>2026-05-03T12:51:51.75Z</time></trkpt><trkpt lat="44.4050976" lon="7.8603291"><ele>378.6</ele><time>2026-05-03T12:51:53.753Z</time></trkpt><trkpt lat="44.4049845" lon="7.8602698"><ele>379.8</ele><time>2026-05-03T12:51:55.756Z</time></trkpt><trkpt lat="44.4048922" lon="7.8602126"><ele>381.0</ele><time>2026-05-03T12:51:57.762Z</time></trkpt><trkpt lat="44.4048109" lon="7.8601567"><ele>376.0</ele><time>2026-05-03T12:51:59.756Z</time></trkpt><trkpt lat="44.4047152" lon="7.8600974"><ele>371.0</ele><time>2026-05-03T12:52:01.752Z</time></trkpt><trkpt lat="44.4046279" lon="7.8600401"><ele>366.0</ele><time>2026-05-03T12:52:03.752Z</time></trkpt><trkpt lat="44.404548" lon="7.8600071"><ele>361.0</ele><time>2026-05-03T12:52:05.751Z</time></trkpt><trkpt lat="44.404443" lon="7.8599793"><ele>356.0</ele><time>2026-05-03T12:52:07.746Z</time></trkpt><trkpt lat="44.4043804" lon="7.8599633"><ele>355.6</ele><time>2026-05-03T12:52:08.752Z</time></trkpt><trkpt lat="44.4042674" lon="7.8599137"><ele>355.20000000000005</ele><time>2026-05-03T12:52:10.757Z</time></trkpt><trkpt lat="44.4041671" lon="7.8599049"><ele>354.79999999999995</ele><time>2026-05-03T12:52:12.752Z</time></trkpt><trkpt lat="44.4040647" lon="7.8599065"><ele>354.4</ele><time>2026-05-03T12:52:14.753Z</time></trkpt><trkpt lat="44.4039593" lon="7.8599162"><ele>354.0</ele><time>2026-05-03T12:52:16.753Z</time></trkpt><trkpt lat="44.4038465" lon="7.8599627"><ele>355.3333333333333</ele><time>2026-05-03T12:52:18.754Z</time></trkpt><trkpt lat="44.403751" lon="7.8599777"><ele>356.6666666666667</ele><time>2026-05-03T12:52:20.76Z</time></trkpt><trkpt lat="44.4036845" lon="7.8599591"><ele>358.0</ele><time>2026-05-03T12:52:22.751Z</time></trkpt><trkpt lat="44.4036287" lon="7.8599052"><ele>359.33333333333337</ele><time>2026-05-03T12:52:24.756Z</time></trkpt><trkpt lat="44.4035623" lon="7.8598255"><ele>360.6666666666667</ele><time>2026-05-03T12:52:26.751Z</time></trkpt><trkpt lat="44.4035128" lon="7.8597419"><ele>362.0</ele><time>2026-05-03T12:52:28.756Z</time></trkpt><trkpt lat="44.4034212" lon="7.8597173"><ele>362.0</ele><time>2026-05-03T12:52:31.75Z</time></trkpt><trkpt lat="44.4033517" lon="7.8597737"><ele>362.0</ele><time>2026-05-03T12:52:33.755Z</time></trkpt><trkpt lat="44.4032788" lon="7.8599025"><ele>362.0</ele><time>2026-05-03T12:52:35.752Z</time></trkpt><trkpt lat="44.4032208" lon="7.8600309"><ele>362.0</ele><time>2026-05-03T12:52:37.757Z</time></trkpt><trkpt lat="44.4031665" lon="7.860147"><ele>362.0</ele><time>2026-05-03T12:52:39.76Z</time></trkpt><trkpt lat="44.4030949" lon="7.860288"><ele>363.1666666666667</ele><time>2026-05-03T12:52:41.763Z</time></trkpt><trkpt lat="44.4030412" lon="7.8603971"><ele>364.33333333333337</ele><time>2026-05-03T12:52:43.758Z</time></trkpt><trkpt lat="44.4029733" lon="7.8604513"><ele>365.5</ele><time>2026-05-03T12:52:46.752Z</time></trkpt><trkpt lat="44.40291" lon="7.8604443"><ele>366.6666666666667</ele><time>2026-05-03T12:52:49.752Z</time></trkpt><trkpt lat="44.402837" lon="7.8604181"><ele>367.8333333333333</ele><time>2026-05-03T12:53:11.761Z</time></trkpt><trkpt lat="44.4027059" lon="7.8603861"><ele>369.0</ele><time>2026-05-03T12:53:13.764Z</time></trkpt><trkpt lat="44.4026285" lon="7.8603711"><ele>370.79999999999995</ele><time>2026-05-03T12:53:14.764Z</time></trkpt><trkpt lat="44.4025442" lon="7.8603624"><ele>372.59999999999997</ele><time>2026-05-03T12:53:15.754Z</time></trkpt><trkpt lat="44.4024694" lon="7.8603576"><ele>374.4</ele><time>2026-05-03T12:53:16.758Z</time></trkpt><trkpt lat="44.4023623" lon="7.8603519"><ele>376.2</ele><time>2026-05-03T12:53:18.773Z</time></trkpt><trkpt lat="44.402269" lon="7.860313"><ele>378.0</ele><time>2026-05-03T12:53:21.758Z</time></trkpt><trkpt lat="44.4021732" lon="7.8602419"><ele>377.75</ele><time>2026-05-03T12:53:23.762Z</time></trkpt><trkpt lat="44.4020683" lon="7.8601758"><ele>377.5</ele><time>2026-05-03T12:53:25.761Z</time></trkpt><trkpt lat="44.4019541" lon="7.8601446"><ele>377.25</ele><time>2026-05-03T12:53:27.759Z</time></trkpt><trkpt lat="44.401845" lon="7.8601122"><ele>377.0</ele><time>2026-05-03T12:53:29.751Z</time></trkpt><trkpt lat="44.4017356" lon="7.8601007"><ele>377.4285714285714</ele><time>2026-05-03T12:53:31.756Z</time></trkpt><trkpt lat="44.4016319" lon="7.8601578"><ele>377.85714285714283</ele><time>2026-05-03T12:53:33.758Z</time></trkpt><trkpt lat="44.4015669" lon="7.860176"><ele>378.2857142857143</ele><time>2026-05-03T12:53:34.757Z</time></trkpt><trkpt lat="44.4014981" lon="7.8601943"><ele>378.71428571428567</ele><time>2026-05-03T12:53:35.751Z</time></trkpt><trkpt lat="44.4014374" lon="7.860218"><ele>379.14285714285717</ele><time>2026-05-03T12:53:36.758Z</time></trkpt><trkpt lat="44.4013762" lon="7.8602498"><ele>379.57142857142856</ele><time>2026-05-03T12:53:37.757Z</time></trkpt><trkpt lat="44.4013131" lon="7.8602852"><ele>380.0</ele><time>2026-05-03T12:53:38.753Z</time></trkpt><trkpt lat="44.4012428" lon="7.8603157"><ele>381.57142857142856</ele><time>2026-05-03T12:53:39.766Z</time></trkpt><trkpt lat="44.4011678" lon="7.8603425"><ele>383.14285714285717</ele><time>2026-05-03T12:53:40.754Z</time></trkpt><trkpt lat="44.401094" lon="7.8603709"><ele>384.71428571428567</ele><time>2026-05-03T12:53:41.758Z</time></trkpt><trkpt lat="44.4010243" lon="7.8604001"><ele>386.2857142857143</ele><time>2026-05-03T12:53:42.754Z</time></trkpt><trkpt lat="44.4009557" lon="7.8604271"><ele>387.85714285714283</ele><time>2026-05-03T12:53:43.759Z</time></trkpt><trkpt lat="44.400891" lon="7.8604499"><ele>389.4285714285714</ele><time>2026-05-03T12:53:44.759Z</time></trkpt><trkpt lat="44.4008188" lon="7.8604649"><ele>391.0</ele><time>2026-05-03T12:53:45.76Z</time></trkpt><trkpt lat="44.4007466" lon="7.8604719"><ele>391.00000000000006</ele><time>2026-05-03T12:53:46.765Z</time></trkpt><trkpt lat="44.4006278" lon="7.8604559"><ele>391.0</ele><time>2026-05-03T12:53:48.763Z</time></trkpt><trkpt lat="44.4005266" lon="7.8604044"><ele>391.0</ele><time>2026-05-03T12:53:50.757Z</time></trkpt><trkpt lat="44.4004708" lon="7.8603602"><ele>391.0</ele><time>2026-05-03T12:53:51.753Z</time></trkpt><trkpt lat="44.4004063" lon="7.8603198"><ele>391.00000000000006</ele><time>2026-05-03T12:53:52.761Z</time></trkpt><trkpt lat="44.4003442" lon="7.8602856"><ele>391.0</ele><time>2026-05-03T12:53:53.755Z</time></trkpt><trkpt lat="44.4002766" lon="7.8602575"><ele>393.33333333333337</ele><time>2026-05-03T12:53:54.751Z</time></trkpt><trkpt lat="44.4002046" lon="7.8602317"><ele>395.6666666666667</ele><time>2026-05-03T12:53:55.755Z</time></trkpt><trkpt lat="44.4001298" lon="7.8602062"><ele>398.0</ele><time>2026-05-03T12:53:56.755Z</time></trkpt><trkpt lat="44.4000562" lon="7.8601846"><ele>400.33333333333337</ele><time>2026-05-03T12:53:57.763Z</time></trkpt><trkpt lat="44.399982" lon="7.8601662"><ele>402.6666666666667</ele><time>2026-05-03T12:53:58.752Z</time></trkpt><trkpt lat="44.3999082" lon="7.8601542"><ele>405.0</ele><time>2026-05-03T12:53:59.755Z</time></trkpt><trkpt lat="44.3998308" lon="7.860146"><ele>404.99999999999994</ele><time>2026-05-03T12:54:00.765Z</time></trkpt><trkpt lat="44.3997585" lon="7.8601461"><ele>405.0</ele><time>2026-05-03T12:54:01.754Z</time></trkpt><trkpt lat="44.3996909" lon="7.860153"><ele>405.0</ele><time>2026-05-03T12:54:02.755Z</time></trkpt><trkpt lat="44.3996242" lon="7.860157"><ele>405.0</ele><time>2026-05-03T12:54:03.758Z</time></trkpt><trkpt lat="44.39956" lon="7.8601523"><ele>405.0</ele><time>2026-05-03T12:54:04.758Z</time></trkpt><trkpt lat="44.3994928" lon="7.8601354"><ele>404.99999999999994</ele><time>2026-05-03T12:54:05.754Z</time></trkpt><trkpt lat="44.3994203" lon="7.8601073"><ele>405.0</ele><time>2026-05-03T12:54:06.757Z</time></trkpt><trkpt lat="44.3993483" lon="7.8600795"><ele>406.0</ele><time>2026-05-03T12:54:07.762Z</time></trkpt><trkpt lat="44.3992494" lon="7.8600669"><ele>407.0</ele><time>2026-05-03T12:54:09.756Z</time></trkpt><trkpt lat="44.3991833" lon="7.8600759"><ele>408.0</ele><time>2026-05-03T12:54:11.763Z</time></trkpt><trkpt lat="44.3991063" lon="7.8600663"><ele>409.0</ele><time>2026-05-03T12:54:56.765Z</time></trkpt><trkpt lat="44.3990159" lon="7.8600236"><ele>410.0</ele><time>2026-05-03T12:54:58.765Z</time></trkpt><trkpt lat="44.398937" lon="7.8599622"><ele>411.0</ele><time>2026-05-03T12:55:00.754Z</time></trkpt><trkpt lat="44.3988497" lon="7.8598828"><ele>412.5</ele><time>2026-05-03T12:55:02.752Z</time></trkpt><trkpt lat="44.3987535" lon="7.8597877"><ele>414.0</ele><time>2026-05-03T12:55:04.759Z</time></trkpt><trkpt lat="44.3986935" lon="7.8597335"><ele>415.5</ele><time>2026-05-03T12:55:05.754Z</time></trkpt><trkpt lat="44.3986201" lon="7.8596719"><ele>417.0</ele><time>2026-05-03T12:55:06.754Z</time></trkpt><trkpt lat="44.3985549" lon="7.8596345"><ele>418.5</ele><time>2026-05-03T12:55:07.755Z</time></trkpt><trkpt lat="44.3984919" lon="7.8595916"><ele>420.0</ele><time>2026-05-03T12:55:08.768Z</time></trkpt><trkpt lat="44.3984225" lon="7.8595545"><ele>420.0</ele><time>2026-05-03T12:55:09.754Z</time></trkpt><trkpt lat="44.3983633" lon="7.8595243"><ele>420.0</ele><time>2026-05-03T12:55:10.755Z</time></trkpt><trkpt lat="44.3982589" lon="7.8594656"><ele>420.0</ele><time>2026-05-03T12:55:12.773Z</time></trkpt><trkpt lat="44.3982004" lon="7.8594109"><ele>420.0</ele><time>2026-05-03T12:55:13.761Z</time></trkpt><trkpt lat="44.3980958" lon="7.8592873"><ele>420.0</ele><time>2026-05-03T12:55:15.755Z</time></trkpt><trkpt lat="44.398029" lon="7.8592204"><ele>419.4</ele><time>2026-05-03T12:55:16.758Z</time></trkpt><trkpt lat="44.3979561" lon="7.8591502"><ele>418.8</ele><time>2026-05-03T12:55:17.752Z</time></trkpt><trkpt lat="44.3978754" lon="7.8590783"><ele>418.20000000000005</ele><time>2026-05-03T12:55:18.755Z</time></trkpt><trkpt lat="44.3977944" lon="7.8590072"><ele>417.6</ele><time>2026-05-03T12:55:19.768Z</time></trkpt><trkpt lat="44.3977121" lon="7.8589404"><ele>417.0</ele><time>2026-05-03T12:55:20.762Z</time></trkpt><trkpt lat="44.3976279" lon="7.8588742"><ele>417.0</ele><time>2026-05-03T12:55:21.768Z</time></trkpt><trkpt lat="44.3975515" lon="7.8588054"><ele>417.0</ele><time>2026-05-03T12:55:22.756Z</time></trkpt><trkpt lat="44.3974731" lon="7.8587341"><ele>417.0</ele><time>2026-05-03T12:55:23.757Z</time></trkpt><trkpt lat="44.397394" lon="7.8586634"><ele>417.0</ele><time>2026-05-03T12:55:24.753Z</time></trkpt><trkpt lat="44.3973116" lon="7.8585856"><ele>417.0</ele><time>2026-05-03T12:55:25.756Z</time></trkpt><trkpt lat="44.3972419" lon="7.8585046"><ele>416.0</ele><time>2026-05-03T12:55:26.754Z</time></trkpt><trkpt lat="44.3971867" lon="7.8584167"><ele>415.0</ele><time>2026-05-03T12:55:27.763Z</time></trkpt><trkpt lat="44.3971323" lon="7.858325"><ele>414.0</ele><time>2026-05-03T12:55:28.759Z</time></trkpt><trkpt lat="44.3970716" lon="7.858236"><ele>413.0</ele><time>2026-05-03T12:55:29.761Z</time></trkpt><trkpt lat="44.3970148" lon="7.8581526"><ele>412.0</ele><time>2026-05-03T12:55:30.763Z</time></trkpt><trkpt lat="44.396965" lon="7.8580863"><ele>411.0</ele><time>2026-05-03T12:55:31.754Z</time></trkpt><trkpt lat="44.3968665" lon="7.8579796"><ele>411.0</ele><time>2026-05-03T12:55:33.76Z</time></trkpt><trkpt lat="44.3968088" lon="7.8579168"><ele>411.0</ele><time>2026-05-03T12:55:34.753Z</time></trkpt><trkpt lat="44.3967503" lon="7.8578554"><ele>411.0</ele><time>2026-05-03T12:55:35.756Z</time></trkpt><trkpt lat="44.3966943" lon="7.857796"><ele>411.0</ele><time>2026-05-03T12:55:36.747Z</time></trkpt><trkpt lat="44.3966306" lon="7.8577389"><ele>411.0</ele><time>2026-05-03T12:55:37.756Z</time></trkpt><trkpt lat="44.3965553" lon="7.8576853"><ele>411.0</ele><time>2026-05-03T12:55:38.76Z</time></trkpt><trkpt lat="44.3964719" lon="7.8576399"><ele>411.20000000000005</ele><time>2026-05-03T12:55:39.751Z</time></trkpt><trkpt lat="44.3963816" lon="7.8575958"><ele>411.40000000000003</ele><time>2026-05-03T12:55:40.768Z</time></trkpt><trkpt lat="44.3962772" lon="7.8575635"><ele>411.6</ele><time>2026-05-03T12:55:41.759Z</time></trkpt><trkpt lat="44.3961752" lon="7.8575291"><ele>411.8</ele><time>2026-05-03T12:55:42.758Z</time></trkpt><trkpt lat="44.3960874" lon="7.8575068"><ele>412.0</ele><time>2026-05-03T12:55:43.764Z</time></trkpt><trkpt lat="44.3960131" lon="7.857482"><ele>412.00000000000006</ele><time>2026-05-03T12:55:44.756Z</time></trkpt><trkpt lat="44.3959368" lon="7.857462"><ele>412.0</ele><time>2026-05-03T12:55:45.758Z</time></trkpt><trkpt lat="44.3958735" lon="7.8574334"><ele>412.0</ele><time>2026-05-03T12:55:46.762Z</time></trkpt><trkpt lat="44.3958118" lon="7.8574051"><ele>412.0</ele><time>2026-05-03T12:55:47.752Z</time></trkpt><trkpt lat="44.395693" lon="7.8573442"><ele>412.00000000000006</ele><time>2026-05-03T12:55:49.762Z</time></trkpt><trkpt lat="44.3956314" lon="7.8573156"><ele>412.0</ele><time>2026-05-03T12:55:50.75Z</time></trkpt><trkpt lat="44.3955317" lon="7.8572696"><ele>412.00000000000006</ele><time>2026-05-03T12:55:52.756Z</time></trkpt><trkpt lat="44.3954723" lon="7.8572143"><ele>412.0</ele><time>2026-05-03T12:55:55.774Z</time></trkpt><trkpt lat="44.3954548" lon="7.8571176"><ele>412.0</ele><time>2026-05-03T12:55:58.758Z</time></trkpt><trkpt lat="44.3954719" lon="7.8569869"><ele>412.0</ele><time>2026-05-03T12:56:01.763Z</time></trkpt><trkpt lat="44.3955294" lon="7.8568833"><ele>412.00000000000006</ele><time>2026-05-03T12:56:03.753Z</time></trkpt><trkpt lat="44.3956232" lon="7.8567933"><ele>412.0</ele><time>2026-05-03T12:56:05.755Z</time></trkpt><trkpt lat="44.3956815" lon="7.8567419"><ele>409.8</ele><time>2026-05-03T12:56:06.768Z</time></trkpt><trkpt lat="44.3957374" lon="7.8566898"><ele>407.6</ele><time>2026-05-03T12:56:07.753Z</time></trkpt><trkpt lat="44.3958325" lon="7.8566185"><ele>405.40000000000003</ele><time>2026-05-03T12:56:09.754Z</time></trkpt><trkpt lat="44.3958878" lon="7.8565371"><ele>403.20000000000005</ele><time>2026-05-03T12:56:12.755Z</time></trkpt><trkpt lat="44.3958174" lon="7.8564528"><ele>401.0</ele><time>2026-05-03T12:56:15.773Z</time></trkpt><trkpt lat="44.3957139" lon="7.8564319"><ele>401.0</ele><time>2026-05-03T12:56:17.755Z</time></trkpt><trkpt lat="44.3956176" lon="7.8563741"><ele>401.0</ele><time>2026-05-03T12:56:19.752Z</time></trkpt><trkpt lat="44.395525" lon="7.8562524"><ele>401.0</ele><time>2026-05-03T12:56:21.755Z</time></trkpt><trkpt lat="44.3954578" lon="7.856136"><ele>401.0</ele><time>2026-05-03T12:56:23.751Z</time></trkpt><trkpt lat="44.3954043" lon="7.8560627"><ele>401.0</ele><time>2026-05-03T12:56:25.765Z</time></trkpt><trkpt lat="44.3953472" lon="7.8559998"><ele>398.66666666666663</ele><time>2026-05-03T12:56:27.76Z</time></trkpt><trkpt lat="44.3952691" lon="7.855914"><ele>396.3333333333333</ele><time>2026-05-03T12:56:29.757Z</time></trkpt><trkpt lat="44.3952215" lon="7.8558051"><ele>394.0</ele><time>2026-05-03T12:56:32.76Z</time></trkpt><trkpt lat="44.3952201" lon="7.8556958"><ele>391.66666666666663</ele><time>2026-05-03T12:56:34.752Z</time></trkpt><trkpt lat="44.3952285" lon="7.8556021"><ele>389.3333333333333</ele><time>2026-05-03T12:56:36.756Z</time></trkpt><trkpt lat="44.3952004" lon="7.8554911"><ele>387.0</ele><time>2026-05-03T12:56:39.75Z</time></trkpt><trkpt lat="44.3951159" lon="7.8554451"><ele>387.0</ele><time>2026-05-03T12:56:42.75Z</time></trkpt><trkpt lat="44.3950521" lon="7.8554292"><ele>387.0</ele><time>2026-05-03T12:56:44.756Z</time></trkpt><trkpt lat="44.3949793" lon="7.855464"><ele>387.0</ele><time>2026-05-03T12:56:47.754Z</time></trkpt><trkpt lat="44.3949284" lon="7.8554039"><ele>387.0</ele><time>2026-05-03T12:57:20.751Z</time></trkpt><trkpt lat="44.3948087" lon="7.8554094"><ele>387.0</ele><time>2026-05-03T12:57:45.756Z</time></trkpt><trkpt lat="44.3946951" lon="7.8554708"><ele>388.3333333333333</ele><time>2026-05-03T12:58:33.755Z</time></trkpt><trkpt lat="44.3946401" lon="7.8555535"><ele>389.66666666666663</ele><time>2026-05-03T12:58:35.779Z</time></trkpt><trkpt lat="44.3945654" lon="7.8556705"><ele>391.0</ele><time>2026-05-03T12:58:37.755Z</time></trkpt><trkpt lat="44.3945325" lon="7.8557597"><ele>392.3333333333333</ele><time>2026-05-03T12:58:38.752Z</time></trkpt><trkpt lat="44.3945025" lon="7.8558392"><ele>393.66666666666663</ele><time>2026-05-03T12:58:39.76Z</time></trkpt><trkpt lat="44.394459" lon="7.855989"><ele>395.0</ele><time>2026-05-03T12:58:41.759Z</time></trkpt><trkpt lat="44.3944468" lon="7.8560871"><ele>395.16666666666663</ele><time>2026-05-03T12:58:43.755Z</time></trkpt><trkpt lat="44.3944133" lon="7.856221"><ele>395.3333333333333</ele><time>2026-05-03T12:58:52.812Z</time></trkpt><trkpt lat="44.3944054" lon="7.8563319"><ele>395.5</ele><time>2026-05-03T12:58:56.78Z</time></trkpt><trkpt lat="44.3944323" lon="7.8564304"><ele>395.66666666666663</ele><time>2026-05-03T12:58:59.756Z</time></trkpt><trkpt lat="44.3944478" lon="7.8565294"><ele>395.8333333333333</ele><time>2026-05-03T12:59:22.757Z</time></trkpt><trkpt lat="44.3943633" lon="7.8565989"><ele>396.0</ele><time>2026-05-03T12:59:30.808Z</time></trkpt><trkpt lat="44.394228" lon="7.8566387"><ele>396.0</ele><time>2026-05-03T13:00:18.765Z</time></trkpt><trkpt lat="44.3941524" lon="7.8566574"><ele>396.0</ele><time>2026-05-03T13:00:21.829Z</time></trkpt><trkpt lat="44.3940885" lon="7.8566172"><ele>396.0</ele><time>2026-05-03T13:00:23.76Z</time></trkpt><trkpt lat="44.3940069" lon="7.8565823"><ele>396.0</ele><time>2026-05-03T13:00:25.759Z</time></trkpt><trkpt lat="44.3939252" lon="7.8566179"><ele>396.0</ele><time>2026-05-03T13:00:27.761Z</time></trkpt><trkpt lat="44.3938259" lon="7.856627"><ele>396.0</ele><time>2026-05-03T13:00:47.765Z</time></trkpt><trkpt lat="44.3937442" lon="7.8566386"><ele>398.4</ele><time>2026-05-03T13:00:49.812Z</time></trkpt><trkpt lat="44.3936423" lon="7.856601"><ele>400.8</ele><time>2026-05-03T13:00:51.755Z</time></trkpt><trkpt lat="44.3935502" lon="7.8565375"><ele>403.2</ele><time>2026-05-03T13:00:53.811Z</time></trkpt><trkpt lat="44.3934622" lon="7.8564697"><ele>405.59999999999997</ele><time>2026-05-03T13:00:55.764Z</time></trkpt><trkpt lat="44.3934007" lon="7.8563898"><ele>408.0</ele><time>2026-05-03T13:00:57.761Z</time></trkpt><trkpt lat="44.3933571" lon="7.8562527"><ele>408.0</ele><time>2026-05-03T13:00:59.759Z</time></trkpt><trkpt lat="44.3933115" lon="7.8561216"><ele>408.0</ele><time>2026-05-03T13:01:01.759Z</time></trkpt><trkpt lat="44.3932019" lon="7.8560448"><ele>408.0</ele><time>2026-05-03T13:01:03.757Z</time></trkpt><trkpt lat="44.3931393" lon="7.8559998"><ele>408.0</ele><time>2026-05-03T13:01:04.752Z</time></trkpt><trkpt lat="44.3930614" lon="7.8559789"><ele>408.0</ele><time>2026-05-03T13:01:05.759Z</time></trkpt><trkpt lat="44.3929813" lon="7.8559582"><ele>408.0</ele><time>2026-05-03T13:01:06.753Z</time></trkpt><trkpt lat="44.3929074" lon="7.8559495"><ele>408.0</ele><time>2026-05-03T13:01:07.772Z</time></trkpt><trkpt lat="44.3928324" lon="7.8559368"><ele>408.0</ele><time>2026-05-03T13:01:08.751Z</time></trkpt><trkpt lat="44.392763" lon="7.8559292"><ele>408.0</ele><time>2026-05-03T13:01:09.764Z</time></trkpt><trkpt lat="44.3926961" lon="7.8559188"><ele>408.0</ele><time>2026-05-03T13:01:10.757Z</time></trkpt><trkpt lat="44.3925875" lon="7.8559098"><ele>408.0</ele><time>2026-05-03T13:01:12.759Z</time></trkpt><trkpt lat="44.3925072" lon="7.8559198"><ele>409.6666666666667</ele><time>2026-05-03T13:01:14.759Z</time></trkpt><trkpt lat="44.39244" lon="7.8559706"><ele>411.33333333333337</ele><time>2026-05-03T13:01:16.76Z</time></trkpt><trkpt lat="44.392342" lon="7.8560776"><ele>413.0</ele><time>2026-05-03T13:01:18.759Z</time></trkpt><trkpt lat="44.3922873" lon="7.8561509"><ele>414.6666666666667</ele><time>2026-05-03T13:01:19.757Z</time></trkpt><trkpt lat="44.3922358" lon="7.8562177"><ele>416.33333333333337</ele><time>2026-05-03T13:01:20.754Z</time></trkpt><trkpt lat="44.3921915" lon="7.8562903"><ele>418.0</ele><time>2026-05-03T13:01:21.763Z</time></trkpt><trkpt lat="44.3921183" lon="7.8564086"><ele>418.1666666666667</ele><time>2026-05-03T13:01:23.757Z</time></trkpt><trkpt lat="44.392084" lon="7.856513"><ele>418.33333333333337</ele><time>2026-05-03T13:01:25.759Z</time></trkpt><trkpt lat="44.3920746" lon="7.8566249"><ele>418.5</ele><time>2026-05-03T13:01:27.755Z</time></trkpt><trkpt lat="44.3920937" lon="7.8567319"><ele>418.66666666666663</ele><time>2026-05-03T13:01:29.759Z</time></trkpt><trkpt lat="44.3921443" lon="7.8567994"><ele>418.8333333333333</ele><time>2026-05-03T13:01:31.764Z</time></trkpt><trkpt lat="44.3922339" lon="7.8568477"><ele>419.0</ele><time>2026-05-03T13:01:33.765Z</time></trkpt><trkpt lat="44.3923391" lon="7.8569012"><ele>420.16666666666663</ele><time>2026-05-03T13:01:35.758Z</time></trkpt><trkpt lat="44.3924092" lon="7.8569335"><ele>421.3333333333333</ele><time>2026-05-03T13:01:37.76Z</time></trkpt><trkpt lat="44.3925038" lon="7.8569835"><ele>422.5</ele><time>2026-05-03T13:01:39.755Z</time></trkpt><trkpt lat="44.3925688" lon="7.8570165"><ele>423.66666666666663</ele><time>2026-05-03T13:01:41.761Z</time></trkpt><trkpt lat="44.3926498" lon="7.857089"><ele>424.8333333333333</ele><time>2026-05-03T13:01:43.757Z</time></trkpt><trkpt lat="44.3927078" lon="7.8571793"><ele>426.0</ele><time>2026-05-03T13:01:45.754Z</time></trkpt><trkpt lat="44.3927384" lon="7.8573043"><ele>426.0</ele><time>2026-05-03T13:01:47.753Z</time></trkpt><trkpt lat="44.3927676" lon="7.8574773"><ele>426.0</ele><time>2026-05-03T13:01:49.753Z</time></trkpt><trkpt lat="44.3927858" lon="7.8575733"><ele>426.0</ele><time>2026-05-03T13:01:50.759Z</time></trkpt><trkpt lat="44.3928045" lon="7.8576709"><ele>426.0</ele><time>2026-05-03T13:01:51.754Z</time></trkpt><trkpt lat="44.392825" lon="7.8577702"><ele>426.0</ele><time>2026-05-03T13:01:52.754Z</time></trkpt><trkpt lat="44.3928399" lon="7.8578636"><ele>426.0</ele><time>2026-05-03T13:01:53.761Z</time></trkpt><trkpt lat="44.3928664" lon="7.8580109"><ele>428.0</ele><time>2026-05-03T13:01:55.756Z</time></trkpt><trkpt lat="44.3928434" lon="7.8581152"><ele>430.0</ele><time>2026-05-03T13:01:57.753Z</time></trkpt><trkpt lat="44.392747" lon="7.8582574"><ele>432.0</ele><time>2026-05-03T13:01:59.762Z</time></trkpt><trkpt lat="44.3926915" lon="7.8583438"><ele>434.0</ele><time>2026-05-03T13:02:00.781Z</time></trkpt><trkpt lat="44.3926349" lon="7.8584349"><ele>436.0</ele><time>2026-05-03T13:02:01.757Z</time></trkpt><trkpt lat="44.3925784" lon="7.8585293"><ele>437.00000000000006</ele><time>2026-05-03T13:02:02.758Z</time></trkpt><trkpt lat="44.3925244" lon="7.8586281"><ele>438.0</ele><time>2026-05-03T13:02:03.75Z</time></trkpt><trkpt lat="44.392473" lon="7.8587207"><ele>439.0</ele><time>2026-05-03T13:02:04.757Z</time></trkpt><trkpt lat="44.3924249" lon="7.8588029"><ele>440.0</ele><time>2026-05-03T13:02:05.752Z</time></trkpt><trkpt lat="44.3923777" lon="7.8588776"><ele>441.00000000000006</ele><time>2026-05-03T13:02:06.767Z</time></trkpt><trkpt lat="44.3923382" lon="7.8589472"><ele>442.0</ele><time>2026-05-03T13:02:07.752Z</time></trkpt><trkpt lat="44.3923045" lon="7.8590557"><ele>442.00000000000006</ele><time>2026-05-03T13:02:09.751Z</time></trkpt><trkpt lat="44.3923144" lon="7.8591694"><ele>442.0</ele><time>2026-05-03T13:02:11.754Z</time></trkpt><trkpt lat="44.3923651" lon="7.8592954"><ele>442.0</ele><time>2026-05-03T13:02:13.755Z</time></trkpt><trkpt lat="44.3924082" lon="7.8593693"><ele>442.0</ele><time>2026-05-03T13:02:14.768Z</time></trkpt><trkpt lat="44.3924585" lon="7.8594474"><ele>442.00000000000006</ele><time>2026-05-03T13:02:15.76Z</time></trkpt><trkpt lat="44.3925124" lon="7.8595327"><ele>442.0</ele><time>2026-05-03T13:02:16.755Z</time></trkpt><trkpt lat="44.3925625" lon="7.8596218"><ele>443.6</ele><time>2026-05-03T13:02:17.758Z</time></trkpt><trkpt lat="44.3925973" lon="7.8597062"><ele>445.20000000000005</ele><time>2026-05-03T13:02:18.759Z</time></trkpt><trkpt lat="44.3926191" lon="7.8597928"><ele>446.8</ele><time>2026-05-03T13:02:19.764Z</time></trkpt><trkpt lat="44.3926292" lon="7.8599028"><ele>448.4</ele><time>2026-05-03T13:02:20.757Z</time></trkpt><trkpt lat="44.3926391" lon="7.8600635"><ele>450.0</ele><time>2026-05-03T13:02:21.754Z</time></trkpt><trkpt lat="44.392651" lon="7.8602482"><ele>451.5</ele><time>2026-05-03T13:02:22.754Z</time></trkpt><trkpt lat="44.3926632" lon="7.8604242"><ele>453.0</ele><time>2026-05-03T13:02:23.755Z</time></trkpt><trkpt lat="44.392673" lon="7.860591"><ele>454.5</ele><time>2026-05-03T13:02:24.752Z</time></trkpt><trkpt lat="44.3926779" lon="7.8607627"><ele>456.0</ele><time>2026-05-03T13:02:25.76Z</time></trkpt><trkpt lat="44.3926721" lon="7.8609184"><ele>456.20000000000005</ele><time>2026-05-03T13:02:26.753Z</time></trkpt><trkpt lat="44.3926605" lon="7.8610556"><ele>456.40000000000003</ele><time>2026-05-03T13:02:27.758Z</time></trkpt><trkpt lat="44.3926366" lon="7.8611809"><ele>456.6</ele><time>2026-05-03T13:02:28.766Z</time></trkpt><trkpt lat="44.3925973" lon="7.8613045"><ele>456.8</ele><time>2026-05-03T13:02:29.753Z</time></trkpt><trkpt lat="44.3925515" lon="7.8614273"><ele>457.0</ele><time>2026-05-03T13:02:30.762Z</time></trkpt><trkpt lat="44.3925058" lon="7.8615474"><ele>457.0</ele><time>2026-05-03T13:02:31.758Z</time></trkpt><trkpt lat="44.3924628" lon="7.8616664"><ele>457.00000000000006</ele><time>2026-05-03T13:02:32.753Z</time></trkpt><trkpt lat="44.3924184" lon="7.8617835"><ele>457.00000000000006</ele><time>2026-05-03T13:02:33.756Z</time></trkpt><trkpt lat="44.3923696" lon="7.8619064"><ele>457.0</ele><time>2026-05-03T13:02:34.761Z</time></trkpt><trkpt lat="44.392317" lon="7.8620405"><ele>457.0</ele><time>2026-05-03T13:02:35.753Z</time></trkpt><trkpt lat="44.3922621" lon="7.8621846"><ele>455.5</ele><time>2026-05-03T13:02:36.753Z</time></trkpt><trkpt lat="44.3922057" lon="7.8623327"><ele>454.0</ele><time>2026-05-03T13:02:37.755Z</time></trkpt><trkpt lat="44.3921565" lon="7.8624832"><ele>452.5</ele><time>2026-05-03T13:02:38.761Z</time></trkpt><trkpt lat="44.3921101" lon="7.8626307"><ele>451.0</ele><time>2026-05-03T13:02:39.753Z</time></trkpt><trkpt lat="44.3920575" lon="7.8627789"><ele>457.0</ele><time>2026-05-03T13:02:40.757Z</time></trkpt><trkpt lat="44.3919961" lon="7.8629314"><ele>463.0</ele><time>2026-05-03T13:02:41.757Z</time></trkpt><trkpt lat="44.3919276" lon="7.8630881"><ele>469.0</ele><time>2026-05-03T13:02:42.761Z</time></trkpt><trkpt lat="44.3918543" lon="7.8632451"><ele>475.0</ele><time>2026-05-03T13:02:43.759Z</time></trkpt><trkpt lat="44.3917819" lon="7.8634022"><ele>474.25</ele><time>2026-05-03T13:02:44.753Z</time></trkpt><trkpt lat="44.3917137" lon="7.8635632"><ele>473.5</ele><time>2026-05-03T13:02:45.754Z</time></trkpt><trkpt lat="44.3916566" lon="7.863724"><ele>472.75</ele><time>2026-05-03T13:02:46.753Z</time></trkpt><trkpt lat="44.391614" lon="7.863877"><ele>472.0</ele><time>2026-05-03T13:02:47.757Z</time></trkpt><trkpt lat="44.391583" lon="7.8640309"><ele>472.0</ele><time>2026-05-03T13:02:48.759Z</time></trkpt><trkpt lat="44.3915513" lon="7.8641863"><ele>472.0</ele><time>2026-05-03T13:02:49.753Z</time></trkpt><trkpt lat="44.3915095" lon="7.8643339"><ele>472.0</ele><time>2026-05-03T13:02:50.753Z</time></trkpt><trkpt lat="44.3914648" lon="7.8644811"><ele>472.0</ele><time>2026-05-03T13:02:51.752Z</time></trkpt><trkpt lat="44.3914255" lon="7.8646252"><ele>472.0</ele><time>2026-05-03T13:02:52.753Z</time></trkpt><trkpt lat="44.3913975" lon="7.8647683"><ele>472.00000000000006</ele><time>2026-05-03T13:02:53.744Z</time></trkpt><trkpt lat="44.3913721" lon="7.8649052"><ele>472.00000000000006</ele><time>2026-05-03T13:02:54.761Z</time></trkpt><trkpt lat="44.3913705" lon="7.8650496"><ele>472.0</ele><time>2026-05-03T13:02:55.748Z</time></trkpt><trkpt lat="44.3913698" lon="7.8651954"><ele>472.0</ele><time>2026-05-03T13:02:56.748Z</time></trkpt><trkpt lat="44.3913669" lon="7.8653403"><ele>472.33333333333337</ele><time>2026-05-03T13:02:57.754Z</time></trkpt><trkpt lat="44.3913653" lon="7.8654816"><ele>472.6666666666667</ele><time>2026-05-03T13:02:58.756Z</time></trkpt><trkpt lat="44.3913701" lon="7.8656104"><ele>473.0</ele><time>2026-05-03T13:02:59.762Z</time></trkpt><trkpt lat="44.3913831" lon="7.8657205"><ele>473.33333333333337</ele><time>2026-05-03T13:03:00.753Z</time></trkpt><trkpt lat="44.3913993" lon="7.8658099"><ele>473.6666666666667</ele><time>2026-05-03T13:03:01.756Z</time></trkpt><trkpt lat="44.3914189" lon="7.8659006"><ele>474.0</ele><time>2026-05-03T13:03:02.759Z</time></trkpt><trkpt lat="44.3914382" lon="7.8659938"><ele>473.99999999999994</ele><time>2026-05-03T13:03:03.762Z</time></trkpt><trkpt lat="44.391457" lon="7.8660878"><ele>474.0</ele><time>2026-05-03T13:03:04.76Z</time></trkpt><trkpt lat="44.3914673" lon="7.8661835"><ele>473.99999999999994</ele><time>2026-05-03T13:03:05.752Z</time></trkpt><trkpt lat="44.3914681" lon="7.8662858"><ele>473.99999999999994</ele><time>2026-05-03T13:03:06.749Z</time></trkpt><trkpt lat="44.3914538" lon="7.8663818"><ele>474.0</ele><time>2026-05-03T13:03:07.763Z</time></trkpt><trkpt lat="44.3914199" lon="7.8664628"><ele>473.99999999999994</ele><time>2026-05-03T13:03:08.754Z</time></trkpt><trkpt lat="44.3913722" lon="7.8665361"><ele>473.99999999999994</ele><time>2026-05-03T13:03:09.761Z</time></trkpt><trkpt lat="44.3913132" lon="7.8665971"><ele>475.5</ele><time>2026-05-03T13:03:10.755Z</time></trkpt><trkpt lat="44.3912498" lon="7.8666384"><ele>477.0</ele><time>2026-05-03T13:03:11.756Z</time></trkpt><trkpt lat="44.3911829" lon="7.8666808"><ele>478.5</ele><time>2026-05-03T13:03:12.756Z</time></trkpt><trkpt lat="44.3911029" lon="7.8667308"><ele>480.0</ele><time>2026-05-03T13:03:13.77Z</time></trkpt><trkpt lat="44.3910191" lon="7.8667683"><ele>481.5</ele><time>2026-05-03T13:03:14.758Z</time></trkpt><trkpt lat="44.3909342" lon="7.8667878"><ele>483.0</ele><time>2026-05-03T13:03:15.761Z</time></trkpt><trkpt lat="44.3908477" lon="7.8667905"><ele>483.0</ele><time>2026-05-03T13:03:16.757Z</time></trkpt><trkpt lat="44.3907604" lon="7.8667782"><ele>482.99999999999994</ele><time>2026-05-03T13:03:17.751Z</time></trkpt><trkpt lat="44.3906719" lon="7.8667583"><ele>482.99999999999994</ele><time>2026-05-03T13:03:18.765Z</time></trkpt><trkpt lat="44.3905768" lon="7.8667306"><ele>483.0</ele><time>2026-05-03T13:03:19.778Z</time></trkpt><trkpt lat="44.3904823" lon="7.8666943"><ele>483.0</ele><time>2026-05-03T13:03:20.766Z</time></trkpt><trkpt lat="44.3903843" lon="7.8666574"><ele>488.59999999999997</ele><time>2026-05-03T13:03:21.755Z</time></trkpt><trkpt lat="44.3902814" lon="7.8666219"><ele>494.19999999999993</ele><time>2026-05-03T13:03:22.758Z</time></trkpt><trkpt lat="44.3901916" lon="7.866594"><ele>499.8</ele><time>2026-05-03T13:03:23.762Z</time></trkpt><trkpt lat="44.3901211" lon="7.866573"><ele>505.4</ele><time>2026-05-03T13:03:24.755Z</time></trkpt><trkpt lat="44.3900032" lon="7.86658"><ele>511.0</ele><time>2026-05-03T13:03:26.754Z</time></trkpt><trkpt lat="44.3899439" lon="7.8666177"><ele>511.0</ele><time>2026-05-03T13:03:27.754Z</time></trkpt><trkpt lat="44.3898801" lon="7.8666761"><ele>511.0</ele><time>2026-05-03T13:03:28.759Z</time></trkpt><trkpt lat="44.3898217" lon="7.8667578"><ele>511.0</ele><time>2026-05-03T13:03:29.751Z</time></trkpt><trkpt lat="44.3897549" lon="7.866854"><ele>511.0</ele><time>2026-05-03T13:03:30.755Z</time></trkpt><trkpt lat="44.3896974" lon="7.8670002"><ele>511.0</ele><time>2026-05-03T13:03:31.761Z</time></trkpt><trkpt lat="44.3896348" lon="7.8671492"><ele>510.4</ele><time>2026-05-03T13:03:32.751Z</time></trkpt><trkpt lat="44.3895758" lon="7.8672798"><ele>509.8</ele><time>2026-05-03T13:03:33.761Z</time></trkpt><trkpt lat="44.3895315" lon="7.8673921"><ele>509.19999999999993</ele><time>2026-05-03T13:03:34.763Z</time></trkpt><trkpt lat="44.3894856" lon="7.8674967"><ele>508.59999999999997</ele><time>2026-05-03T13:03:35.763Z</time></trkpt><trkpt lat="44.3894264" lon="7.8676022"><ele>508.0</ele><time>2026-05-03T13:03:36.748Z</time></trkpt><trkpt lat="44.3893662" lon="7.8677077"><ele>508.0</ele><time>2026-05-03T13:03:37.756Z</time></trkpt><trkpt lat="44.3892982" lon="7.8678078"><ele>507.99999999999994</ele><time>2026-05-03T13:03:38.753Z</time></trkpt><trkpt lat="44.389219" lon="7.867885"><ele>507.99999999999994</ele><time>2026-05-03T13:03:39.756Z</time></trkpt><trkpt lat="44.3891344" lon="7.8679533"><ele>508.0</ele><time>2026-05-03T13:03:40.751Z</time></trkpt><trkpt lat="44.389045" lon="7.8680125"><ele>508.0</ele><time>2026-05-03T13:03:41.756Z</time></trkpt><trkpt lat="44.3889545" lon="7.8680722"><ele>508.0</ele><time>2026-05-03T13:03:42.754Z</time></trkpt><trkpt lat="44.3888646" lon="7.8681281"><ele>507.99999999999994</ele><time>2026-05-03T13:03:43.752Z</time></trkpt><trkpt lat="44.3887633" lon="7.8681807"><ele>507.99999999999994</ele><time>2026-05-03T13:03:44.749Z</time></trkpt><trkpt lat="44.3886581" lon="7.8682352"><ele>508.0</ele><time>2026-05-03T13:03:45.749Z</time></trkpt><trkpt lat="44.388548" lon="7.8682867"><ele>508.0</ele><time>2026-05-03T13:03:46.754Z</time></trkpt><trkpt lat="44.3884391" lon="7.8683392"><ele>508.4</ele><time>2026-05-03T13:03:47.755Z</time></trkpt><trkpt lat="44.3883448" lon="7.8683786"><ele>508.79999999999995</ele><time>2026-05-03T13:03:48.754Z</time></trkpt><trkpt lat="44.3882795" lon="7.8684056"><ele>509.2</ele><time>2026-05-03T13:03:49.76Z</time></trkpt><trkpt lat="44.3881788" lon="7.8684378"><ele>509.6</ele><time>2026-05-03T13:03:51.763Z</time></trkpt><trkpt lat="44.3880693" lon="7.868467"><ele>510.0</ele><time>2026-05-03T13:03:53.758Z</time></trkpt><trkpt lat="44.3879999" lon="7.8685025"><ele>513.6</ele><time>2026-05-03T13:03:54.755Z</time></trkpt><trkpt lat="44.387927" lon="7.8685502"><ele>517.2</ele><time>2026-05-03T13:03:55.76Z</time></trkpt><trkpt lat="44.3878452" lon="7.8686194"><ele>520.8</ele><time>2026-05-03T13:03:56.752Z</time></trkpt><trkpt lat="44.3877538" lon="7.8687071"><ele>524.4</ele><time>2026-05-03T13:03:57.757Z</time></trkpt><trkpt lat="44.3876559" lon="7.8688082"><ele>528.0</ele><time>2026-05-03T13:03:58.754Z</time></trkpt><trkpt lat="44.3875542" lon="7.8689098"><ele>528.0</ele><time>2026-05-03T13:03:59.758Z</time></trkpt><trkpt lat="44.3874498" lon="7.8690149"><ele>528.0</ele><time>2026-05-03T13:04:00.751Z</time></trkpt><trkpt lat="44.3873491" lon="7.8691198"><ele>528.0</ele><time>2026-05-03T13:04:01.759Z</time></trkpt><trkpt lat="44.3872521" lon="7.8692241"><ele>528.0</ele><time>2026-05-03T13:04:02.753Z</time></trkpt><trkpt lat="44.3871605" lon="7.8693166"><ele>527.25</ele><time>2026-05-03T13:04:03.751Z</time></trkpt><trkpt lat="44.3870673" lon="7.8693994"><ele>526.5</ele><time>2026-05-03T13:04:04.754Z</time></trkpt><trkpt lat="44.3869654" lon="7.869479"><ele>525.75</ele><time>2026-05-03T13:04:05.751Z</time></trkpt><trkpt lat="44.3868653" lon="7.8695558"><ele>525.0</ele><time>2026-05-03T13:04:06.752Z</time></trkpt><trkpt lat="44.3867636" lon="7.8696303"><ele>525.0</ele><time>2026-05-03T13:04:07.762Z</time></trkpt><trkpt lat="44.3866503" lon="7.869704"><ele>525.0</ele><time>2026-05-03T13:04:08.755Z</time></trkpt><trkpt lat="44.386525" lon="7.8697773"><ele>525.0</ele><time>2026-05-03T13:04:09.755Z</time></trkpt><trkpt lat="44.3863897" lon="7.8698538"><ele>525.0</ele><time>2026-05-03T13:04:10.754Z</time></trkpt><trkpt lat="44.386249" lon="7.8699318"><ele>525.25</ele><time>2026-05-03T13:04:11.755Z</time></trkpt><trkpt lat="44.386116" lon="7.8700056"><ele>525.5</ele><time>2026-05-03T13:04:12.752Z</time></trkpt><trkpt lat="44.3859866" lon="7.8700584"><ele>525.75</ele><time>2026-05-03T13:04:13.755Z</time></trkpt><trkpt lat="44.3858675" lon="7.8700994"><ele>526.0</ele><time>2026-05-03T13:04:14.754Z</time></trkpt><trkpt lat="44.3857658" lon="7.8701403"><ele>526.2</ele><time>2026-05-03T13:04:15.76Z</time></trkpt><trkpt lat="44.3856727" lon="7.8701937"><ele>526.4000000000001</ele><time>2026-05-03T13:04:16.764Z</time></trkpt><trkpt lat="44.3855747" lon="7.8702576"><ele>526.6</ele><time>2026-05-03T13:04:17.766Z</time></trkpt><trkpt lat="44.3854746" lon="7.8703286"><ele>526.8000000000001</ele><time>2026-05-03T13:04:18.75Z</time></trkpt><trkpt lat="44.3853685" lon="7.8704091"><ele>527.0</ele><time>2026-05-03T13:04:19.757Z</time></trkpt><trkpt lat="44.3852553" lon="7.8704952"><ele>527.0</ele><time>2026-05-03T13:04:20.753Z</time></trkpt><trkpt lat="44.3851384" lon="7.8705834"><ele>527.0</ele><time>2026-05-03T13:04:21.755Z</time></trkpt><trkpt lat="44.3850145" lon="7.870675"><ele>527.0</ele><time>2026-05-03T13:04:22.758Z</time></trkpt><trkpt lat="44.384887" lon="7.8707715"><ele>527.0</ele><time>2026-05-03T13:04:23.755Z</time></trkpt><trkpt lat="44.3847602" lon="7.870881"><ele>530.0</ele><time>2026-05-03T13:04:24.755Z</time></trkpt><trkpt lat="44.3846446" lon="7.8710074"><ele>533.0</ele><time>2026-05-03T13:04:25.754Z</time></trkpt><trkpt lat="44.3845498" lon="7.87113"><ele>536.0</ele><time>2026-05-03T13:04:26.764Z</time></trkpt><trkpt lat="44.3844729" lon="7.8712332"><ele>539.0</ele><time>2026-05-03T13:04:27.757Z</time></trkpt><trkpt lat="44.3844117" lon="7.8713186"><ele>539.0</ele><time>2026-05-03T13:04:28.761Z</time></trkpt><trkpt lat="44.3843626" lon="7.871389"><ele>539.0</ele><time>2026-05-03T13:04:29.759Z</time></trkpt><trkpt lat="44.3842935" lon="7.8714958"><ele>539.0</ele><time>2026-05-03T13:04:31.751Z</time></trkpt><trkpt lat="44.3842496" lon="7.8715928"><ele>539.0</ele><time>2026-05-03T13:04:34.756Z</time></trkpt><trkpt lat="44.384186" lon="7.8716704"><ele>539.0</ele><time>2026-05-03T13:04:55.755Z</time></trkpt><trkpt lat="44.3840904" lon="7.8717844"><ele>538.0</ele><time>2026-05-03T13:04:57.781Z</time></trkpt><trkpt lat="44.384028" lon="7.8718533"><ele>537.0</ele><time>2026-05-03T13:04:58.758Z</time></trkpt><trkpt lat="44.3839531" lon="7.871918"><ele>536.0</ele><time>2026-05-03T13:04:59.757Z</time></trkpt><trkpt lat="44.3838665" lon="7.8719757"><ele>535.0</ele><time>2026-05-03T13:05:00.755Z</time></trkpt><trkpt lat="44.3837725" lon="7.872031"><ele>534.0</ele><time>2026-05-03T13:05:01.752Z</time></trkpt><trkpt lat="44.3836735" lon="7.8720869"><ele>536.75</ele><time>2026-05-03T13:05:02.756Z</time></trkpt><trkpt lat="44.3835705" lon="7.8721621"><ele>539.5</ele><time>2026-05-03T13:05:03.755Z</time></trkpt><trkpt lat="44.3834667" lon="7.8722563"><ele>542.25</ele><time>2026-05-03T13:05:04.762Z</time></trkpt><trkpt lat="44.3833608" lon="7.8723595"><ele>545.0</ele><time>2026-05-03T13:05:05.753Z</time></trkpt><trkpt lat="44.3832508" lon="7.8724582"><ele>545.0</ele><time>2026-05-03T13:05:06.758Z</time></trkpt><trkpt lat="44.3831374" lon="7.8725434"><ele>545.0</ele><time>2026-05-03T13:05:07.76Z</time></trkpt><trkpt lat="44.3830235" lon="7.8726182"><ele>545.0</ele><time>2026-05-03T13:05:08.756Z</time></trkpt><trkpt lat="44.3829088" lon="7.8726928"><ele>545.0</ele><time>2026-05-03T13:05:09.756Z</time></trkpt><trkpt lat="44.3827965" lon="7.8727757"><ele>546.0</ele><time>2026-05-03T13:05:10.767Z</time></trkpt><trkpt lat="44.3826916" lon="7.8728661"><ele>547.0</ele><time>2026-05-03T13:05:11.76Z</time></trkpt><trkpt lat="44.3825993" lon="7.8729603"><ele>548.0</ele><time>2026-05-03T13:05:12.76Z</time></trkpt><trkpt lat="44.3825196" lon="7.8730507"><ele>549.0</ele><time>2026-05-03T13:05:13.764Z</time></trkpt><trkpt lat="44.3824483" lon="7.8731325"><ele>550.0</ele><time>2026-05-03T13:05:14.759Z</time></trkpt><trkpt lat="44.3823846" lon="7.8732099"><ele>550.0</ele><time>2026-05-03T13:05:15.753Z</time></trkpt><trkpt lat="44.3823239" lon="7.8732912"><ele>550.0</ele><time>2026-05-03T13:05:16.763Z</time></trkpt><trkpt lat="44.3822662" lon="7.8733805"><ele>550.0</ele><time>2026-05-03T13:05:17.753Z</time></trkpt><trkpt lat="44.3822094" lon="7.8734766"><ele>550.0</ele><time>2026-05-03T13:05:18.757Z</time></trkpt><trkpt lat="44.3821539" lon="7.8735719"><ele>550.0</ele><time>2026-05-03T13:05:19.754Z</time></trkpt><trkpt lat="44.3821002" lon="7.873665"><ele>550.0</ele><time>2026-05-03T13:05:20.751Z</time></trkpt><trkpt lat="44.3820586" lon="7.8737638"><ele>547.0</ele><time>2026-05-03T13:05:21.752Z</time></trkpt><trkpt lat="44.3820385" lon="7.8738747"><ele>544.0</ele><time>2026-05-03T13:05:22.759Z</time></trkpt><trkpt lat="44.3820335" lon="7.8740018"><ele>541.0</ele><time>2026-05-03T13:05:23.759Z</time></trkpt><trkpt lat="44.3820473" lon="7.8741528"><ele>538.0</ele><time>2026-05-03T13:05:24.76Z</time></trkpt><trkpt lat="44.3820627" lon="7.8743149"><ele>535.0</ele><time>2026-05-03T13:05:25.752Z</time></trkpt><trkpt lat="44.3820911" lon="7.8744888"><ele>535.0</ele><time>2026-05-03T13:05:26.764Z</time></trkpt><trkpt lat="44.3821027" lon="7.8746695"><ele>535.0</ele><time>2026-05-03T13:05:27.757Z</time></trkpt><trkpt lat="44.382103" lon="7.8748393"><ele>535.0</ele><time>2026-05-03T13:05:28.747Z</time></trkpt><trkpt lat="44.3820911" lon="7.8749995"><ele>535.0</ele><time>2026-05-03T13:05:29.756Z</time></trkpt><trkpt lat="44.3820713" lon="7.8751411"><ele>536.8</ele><time>2026-05-03T13:05:30.756Z</time></trkpt><trkpt lat="44.3820463" lon="7.8752718"><ele>538.6</ele><time>2026-05-03T13:05:31.757Z</time></trkpt><trkpt lat="44.3820049" lon="7.8753816"><ele>540.4</ele><time>2026-05-03T13:05:32.759Z</time></trkpt><trkpt lat="44.3819404" lon="7.8754618"><ele>542.2</ele><time>2026-05-03T13:05:33.763Z</time></trkpt><trkpt lat="44.3818532" lon="7.8755227"><ele>544.0</ele><time>2026-05-03T13:05:34.755Z</time></trkpt><trkpt lat="44.3817471" lon="7.8755601"><ele>544.0</ele><time>2026-05-03T13:05:35.748Z</time></trkpt><trkpt lat="44.3816327" lon="7.8755705"><ele>544.0</ele><time>2026-05-03T13:05:36.758Z</time></trkpt><trkpt lat="44.3815126" lon="7.8755478"><ele>544.0</ele><time>2026-05-03T13:05:37.758Z</time></trkpt><trkpt lat="44.3813843" lon="7.8755116"><ele>544.0</ele><time>2026-05-03T13:05:38.761Z</time></trkpt><trkpt lat="44.3812496" lon="7.8754783"><ele>543.5</ele><time>2026-05-03T13:05:39.755Z</time></trkpt><trkpt lat="44.381119" lon="7.8754439"><ele>543.0</ele><time>2026-05-03T13:05:40.76Z</time></trkpt><trkpt lat="44.3809966" lon="7.8754162"><ele>542.5</ele><time>2026-05-03T13:05:41.755Z</time></trkpt><trkpt lat="44.3808878" lon="7.8753997"><ele>542.0</ele><time>2026-05-03T13:05:42.757Z</time></trkpt><trkpt lat="44.3807905" lon="7.8753973"><ele>542.0</ele><time>2026-05-03T13:05:43.758Z</time></trkpt><trkpt lat="44.3807059" lon="7.8754076"><ele>542.0</ele><time>2026-05-03T13:05:44.762Z</time></trkpt><trkpt lat="44.3806345" lon="7.875417"><ele>542.0</ele><time>2026-05-03T13:05:45.754Z</time></trkpt><trkpt lat="44.3805389" lon="7.8754325"><ele>542.0</ele><time>2026-05-03T13:05:47.755Z</time></trkpt><trkpt lat="44.3804162" lon="7.875409"><ele>542.0</ele><time>2026-05-03T13:05:49.758Z</time></trkpt><trkpt lat="44.3803262" lon="7.8753955"><ele>542.5</ele><time>2026-05-03T13:05:50.755Z</time></trkpt><trkpt lat="44.3802214" lon="7.8753897"><ele>543.0</ele><time>2026-05-03T13:05:51.765Z</time></trkpt><trkpt lat="44.3800964" lon="7.8754013"><ele>543.5</ele><time>2026-05-03T13:05:52.75Z</time></trkpt><trkpt lat="44.3799615" lon="7.8754228"><ele>544.0</ele><time>2026-05-03T13:05:53.751Z</time></trkpt><trkpt lat="44.379815" lon="7.8754482"><ele>542.0</ele><time>2026-05-03T13:05:54.753Z</time></trkpt><trkpt lat="44.3796664" lon="7.8754684"><ele>540.0</ele><time>2026-05-03T13:05:55.757Z</time></trkpt><trkpt lat="44.3795148" lon="7.8754817"><ele>538.0</ele><time>2026-05-03T13:05:56.757Z</time></trkpt><trkpt lat="44.3793612" lon="7.8754811"><ele>538.0</ele><time>2026-05-03T13:05:57.759Z</time></trkpt><trkpt lat="44.3792063" lon="7.8754709"><ele>538.0</ele><time>2026-05-03T13:05:58.756Z</time></trkpt><trkpt lat="44.3790501" lon="7.8754498"><ele>538.0</ele><time>2026-05-03T13:05:59.752Z</time></trkpt><trkpt lat="44.3788918" lon="7.875416"><ele>535.6666666666667</ele><time>2026-05-03T13:06:00.758Z</time></trkpt><trkpt lat="44.3787342" lon="7.8753735"><ele>533.3333333333334</ele><time>2026-05-03T13:06:01.76Z</time></trkpt><trkpt lat="44.3785812" lon="7.8753171"><ele>531.0</ele><time>2026-05-03T13:06:02.791Z</time></trkpt><trkpt lat="44.3784405" lon="7.8752468"><ele>531.0</ele><time>2026-05-03T13:06:03.75Z</time></trkpt><trkpt lat="44.3783064" lon="7.8751733"><ele>531.0</ele><time>2026-05-03T13:06:04.759Z</time></trkpt><trkpt lat="44.3781792" lon="7.8750575"><ele>531.0</ele><time>2026-05-03T13:06:05.751Z</time></trkpt><trkpt lat="44.3780536" lon="7.8749365"><ele>531.0</ele><time>2026-05-03T13:06:06.759Z</time></trkpt><trkpt lat="44.3779191" lon="7.8748168"><ele>532.0</ele><time>2026-05-03T13:06:07.76Z</time></trkpt><trkpt lat="44.3777763" lon="7.8746956"><ele>533.0</ele><time>2026-05-03T13:06:08.759Z</time></trkpt><trkpt lat="44.3776328" lon="7.8745666"><ele>534.0</ele><time>2026-05-03T13:06:09.751Z</time></trkpt><trkpt lat="44.3774884" lon="7.8744373"><ele>534.0</ele><time>2026-05-03T13:06:10.771Z</time></trkpt><trkpt lat="44.3773464" lon="7.8743089"><ele>534.0</ele><time>2026-05-03T13:06:11.758Z</time></trkpt><trkpt lat="44.3772013" lon="7.8741802"><ele>534.0</ele><time>2026-05-03T13:06:12.755Z</time></trkpt><trkpt lat="44.3770499" lon="7.8740583"><ele>535.3333333333334</ele><time>2026-05-03T13:06:13.754Z</time></trkpt><trkpt lat="44.3768892" lon="7.8739448"><ele>536.6666666666667</ele><time>2026-05-03T13:06:14.757Z</time></trkpt><trkpt lat="44.376718" lon="7.8738378"><ele>538.0</ele><time>2026-05-03T13:06:15.752Z</time></trkpt><trkpt lat="44.3765352" lon="7.873735"><ele>534.0</ele><time>2026-05-03T13:06:16.76Z</time></trkpt><trkpt lat="44.3763524" lon="7.8736347"><ele>530.0</ele><time>2026-05-03T13:06:17.76Z</time></trkpt><trkpt lat="44.3761785" lon="7.8735352"><ele>526.0</ele><time>2026-05-03T13:06:18.76Z</time></trkpt><trkpt lat="44.3760162" lon="7.8734415"><ele>528.0</ele><time>2026-05-03T13:06:19.752Z</time></trkpt><trkpt lat="44.3758628" lon="7.8733591"><ele>530.0</ele><time>2026-05-03T13:06:20.752Z</time></trkpt><trkpt lat="44.3757084" lon="7.8732908"><ele>532.0</ele><time>2026-05-03T13:06:21.751Z</time></trkpt><trkpt lat="44.3755504" lon="7.8732518"><ele>534.6666666666667</ele><time>2026-05-03T13:06:22.753Z</time></trkpt><trkpt lat="44.37539" lon="7.8732405"><ele>537.3333333333334</ele><time>2026-05-03T13:06:23.761Z</time></trkpt><trkpt lat="44.3752297" lon="7.8732427"><ele>540.0</ele><time>2026-05-03T13:06:24.754Z</time></trkpt><trkpt lat="44.3750705" lon="7.8732556"><ele>540.0</ele><time>2026-05-03T13:06:25.755Z</time></trkpt><trkpt lat="44.3749132" lon="7.8732731"><ele>540.0</ele><time>2026-05-03T13:06:26.748Z</time></trkpt><trkpt lat="44.3747587" lon="7.8732926"><ele>540.0</ele><time>2026-05-03T13:06:27.751Z</time></trkpt><trkpt lat="44.3746077" lon="7.8733117"><ele>543.25</ele><time>2026-05-03T13:06:28.753Z</time></trkpt><trkpt lat="44.3744589" lon="7.8733267"><ele>546.5</ele><time>2026-05-03T13:06:29.752Z</time></trkpt><trkpt lat="44.3743143" lon="7.873343"><ele>549.75</ele><time>2026-05-03T13:06:30.763Z</time></trkpt><trkpt lat="44.3741785" lon="7.8733538"><ele>553.0</ele><time>2026-05-03T13:06:31.749Z</time></trkpt><trkpt lat="44.3740588" lon="7.8733642"><ele>553.0</ele><time>2026-05-03T13:06:32.778Z</time></trkpt><trkpt lat="44.3739556" lon="7.8733728"><ele>553.0</ele><time>2026-05-03T13:06:33.761Z</time></trkpt><trkpt lat="44.3738682" lon="7.8733765"><ele>553.0</ele><time>2026-05-03T13:06:34.76Z</time></trkpt><trkpt lat="44.3737998" lon="7.8733782"><ele>553.0</ele><time>2026-05-03T13:06:35.753Z</time></trkpt><trkpt lat="44.3737287" lon="7.8733693"><ele>553.0</ele><time>2026-05-03T13:06:37.762Z</time></trkpt><trkpt lat="44.3736443" lon="7.8733347"><ele>553.0</ele><time>2026-05-03T13:06:53.759Z</time></trkpt><trkpt lat="44.373554" lon="7.8732397"><ele>554.6</ele><time>2026-05-03T13:06:55.754Z</time></trkpt><trkpt lat="44.3735064" lon="7.8731789"><ele>556.1999999999999</ele><time>2026-05-03T13:06:56.787Z</time></trkpt><trkpt lat="44.3734371" lon="7.8730944"><ele>557.8</ele><time>2026-05-03T13:06:57.758Z</time></trkpt><trkpt lat="44.3733975" lon="7.8729753"><ele>559.4</ele><time>2026-05-03T13:06:58.759Z</time></trkpt><trkpt lat="44.3733454" lon="7.8728432"><ele>561.0</ele><time>2026-05-03T13:06:59.757Z</time></trkpt><trkpt lat="44.3732928" lon="7.872677"><ele>559.75</ele><time>2026-05-03T13:07:00.779Z</time></trkpt><trkpt lat="44.3732487" lon="7.8725124"><ele>558.5</ele><time>2026-05-03T13:07:01.764Z</time></trkpt><trkpt lat="44.37319" lon="7.8723227"><ele>557.25</ele><time>2026-05-03T13:07:02.754Z</time></trkpt><trkpt lat="44.3731354" lon="7.8721221"><ele>556.0</ele><time>2026-05-03T13:07:03.753Z</time></trkpt><trkpt lat="44.3730771" lon="7.8719093"><ele>552.3333333333334</ele><time>2026-05-03T13:07:04.75Z</time></trkpt><trkpt lat="44.3730137" lon="7.8716942"><ele>548.6666666666666</ele><time>2026-05-03T13:07:05.746Z</time></trkpt><trkpt lat="44.3729434" lon="7.8714879"><ele>545.0</ele><time>2026-05-03T13:07:06.755Z</time></trkpt><trkpt lat="44.3728612" lon="7.8712994"><ele>545.0</ele><time>2026-05-03T13:07:07.752Z</time></trkpt><trkpt lat="44.3727667" lon="7.8711294"><ele>545.0</ele><time>2026-05-03T13:07:08.754Z</time></trkpt><trkpt lat="44.3726599" lon="7.8709681"><ele>545.0</ele><time>2026-05-03T13:07:09.764Z</time></trkpt><trkpt lat="44.3725451" lon="7.8708184"><ele>545.6666666666666</ele><time>2026-05-03T13:07:10.754Z</time></trkpt><trkpt lat="44.3724245" lon="7.8706809"><ele>546.3333333333334</ele><time>2026-05-03T13:07:11.759Z</time></trkpt><trkpt lat="44.3722967" lon="7.8705402"><ele>547.0</ele><time>2026-05-03T13:07:12.777Z</time></trkpt><trkpt lat="44.3721676" lon="7.870393"><ele>544.3333333333334</ele><time>2026-05-03T13:07:13.778Z</time></trkpt><trkpt lat="44.3720464" lon="7.870247"><ele>541.6666666666666</ele><time>2026-05-03T13:07:14.829Z</time></trkpt><trkpt lat="44.3719337" lon="7.8701037"><ele>539.0</ele><time>2026-05-03T13:07:15.757Z</time></trkpt><trkpt lat="44.3718293" lon="7.8699532"><ele>539.0</ele><time>2026-05-03T13:07:16.756Z</time></trkpt><trkpt lat="44.3717327" lon="7.869785"><ele>539.0</ele><time>2026-05-03T13:07:17.755Z</time></trkpt><trkpt lat="44.3716445" lon="7.8696"><ele>539.0</ele><time>2026-05-03T13:07:18.751Z</time></trkpt><trkpt lat="44.3715651" lon="7.8694001"><ele>539.6666666666666</ele><time>2026-05-03T13:07:19.755Z</time></trkpt><trkpt lat="44.3714897" lon="7.8691939"><ele>540.3333333333334</ele><time>2026-05-03T13:07:20.752Z</time></trkpt><trkpt lat="44.3714135" lon="7.8689996"><ele>541.0</ele><time>2026-05-03T13:07:21.754Z</time></trkpt><trkpt lat="44.3713398" lon="7.8688122"><ele>539.0</ele><time>2026-05-03T13:07:22.757Z</time></trkpt><trkpt lat="44.3712671" lon="7.8686262"><ele>537.0</ele><time>2026-05-03T13:07:23.76Z</time></trkpt><trkpt lat="44.3711905" lon="7.8684387"><ele>535.0</ele><time>2026-05-03T13:07:24.756Z</time></trkpt><trkpt lat="44.3711133" lon="7.86826"><ele>535.0</ele><time>2026-05-03T13:07:25.752Z</time></trkpt><trkpt lat="44.371042" lon="7.8681119"><ele>535.0</ele><time>2026-05-03T13:07:26.753Z</time></trkpt><trkpt lat="44.3709734" lon="7.8679928"><ele>535.0</ele><time>2026-05-03T13:07:27.751Z</time></trkpt><trkpt lat="44.3709113" lon="7.8678887"><ele>535.0</ele><time>2026-05-03T13:07:28.758Z</time></trkpt><trkpt lat="44.3708648" lon="7.8677957"><ele>535.0</ele><time>2026-05-03T13:07:29.755Z</time></trkpt><trkpt lat="44.3708316" lon="7.867708"><ele>535.0</ele><time>2026-05-03T13:07:30.758Z</time></trkpt><trkpt lat="44.3707882" lon="7.8676219"><ele>535.0</ele><time>2026-05-03T13:07:31.763Z</time></trkpt><trkpt lat="44.3707186" lon="7.8675519"><ele>535.0</ele><time>2026-05-03T13:07:32.752Z</time></trkpt><trkpt lat="44.3706238" lon="7.8675072"><ele>535.0</ele><time>2026-05-03T13:07:33.754Z</time></trkpt><trkpt lat="44.3705066" lon="7.8674654"><ele>535.0</ele><time>2026-05-03T13:07:34.756Z</time></trkpt><trkpt lat="44.3703747" lon="7.8674211"><ele>534.25</ele><time>2026-05-03T13:07:35.755Z</time></trkpt><trkpt lat="44.3702327" lon="7.8673839"><ele>533.5</ele><time>2026-05-03T13:07:36.752Z</time></trkpt><trkpt lat="44.3700941" lon="7.8673591"><ele>532.75</ele><time>2026-05-03T13:07:37.752Z</time></trkpt><trkpt lat="44.3699563" lon="7.8673456"><ele>532.0</ele><time>2026-05-03T13:07:38.752Z</time></trkpt><trkpt lat="44.3698122" lon="7.8673392"><ele>531.6666666666667</ele><time>2026-05-03T13:07:39.762Z</time></trkpt><trkpt lat="44.3696639" lon="7.8673366"><ele>531.3333333333334</ele><time>2026-05-03T13:07:40.757Z</time></trkpt><trkpt lat="44.3695065" lon="7.8673326"><ele>531.0</ele><time>2026-05-03T13:07:41.752Z</time></trkpt><trkpt lat="44.3693432" lon="7.8673296"><ele>531.0</ele><time>2026-05-03T13:07:42.761Z</time></trkpt><trkpt lat="44.3691835" lon="7.8673294"><ele>531.0</ele><time>2026-05-03T13:07:43.794Z</time></trkpt><trkpt lat="44.3690333" lon="7.8673231"><ele>531.0</ele><time>2026-05-03T13:07:44.749Z</time></trkpt><trkpt lat="44.36888" lon="7.8673185"><ele>530.25</ele><time>2026-05-03T13:07:45.754Z</time></trkpt><trkpt lat="44.3687288" lon="7.8673189"><ele>529.5</ele><time>2026-05-03T13:07:46.754Z</time></trkpt><trkpt lat="44.3685813" lon="7.86732"><ele>528.75</ele><time>2026-05-03T13:07:47.756Z</time></trkpt><trkpt lat="44.3684421" lon="7.8673218"><ele>528.0</ele><time>2026-05-03T13:07:48.754Z</time></trkpt><trkpt lat="44.368303" lon="7.8673273"><ele>528.0</ele><time>2026-05-03T13:07:49.756Z</time></trkpt><trkpt lat="44.3681578" lon="7.8673317"><ele>528.0</ele><time>2026-05-03T13:07:50.754Z</time></trkpt><trkpt lat="44.3680079" lon="7.8673381"><ele>528.0</ele><time>2026-05-03T13:07:51.753Z</time></trkpt><trkpt lat="44.3678551" lon="7.8673438"><ele>528.0</ele><time>2026-05-03T13:07:52.753Z</time></trkpt><trkpt lat="44.3677106" lon="7.8673463"><ele>526.6666666666666</ele><time>2026-05-03T13:07:53.755Z</time></trkpt><trkpt lat="44.3675601" lon="7.8673511"><ele>525.3333333333333</ele><time>2026-05-03T13:07:54.758Z</time></trkpt><trkpt lat="44.3673979" lon="7.867351"><ele>524.0</ele><time>2026-05-03T13:07:55.758Z</time></trkpt><trkpt lat="44.3672327" lon="7.8673477"><ele>522.3333333333333</ele><time>2026-05-03T13:07:56.753Z</time></trkpt><trkpt lat="44.3670711" lon="7.8673457"><ele>520.6666666666666</ele><time>2026-05-03T13:07:57.757Z</time></trkpt><trkpt lat="44.3669063" lon="7.8673376"><ele>519.0</ele><time>2026-05-03T13:07:58.752Z</time></trkpt><trkpt lat="44.3667515" lon="7.8673329"><ele>519.0</ele><time>2026-05-03T13:07:59.754Z</time></trkpt><trkpt lat="44.3666051" lon="7.8673313"><ele>519.0</ele><time>2026-05-03T13:08:00.755Z</time></trkpt><trkpt lat="44.3664652" lon="7.867326"><ele>519.0</ele><time>2026-05-03T13:08:01.751Z</time></trkpt><trkpt lat="44.3663253" lon="7.8673045"><ele>519.0</ele><time>2026-05-03T13:08:02.758Z</time></trkpt><trkpt lat="44.3661838" lon="7.8672605"><ele>519.0</ele><time>2026-05-03T13:08:03.748Z</time></trkpt><trkpt lat="44.3660394" lon="7.8671987"><ele>519.0</ele><time>2026-05-03T13:08:04.757Z</time></trkpt><trkpt lat="44.365897" lon="7.8671191"><ele>519.0</ele><time>2026-05-03T13:08:05.752Z</time></trkpt><trkpt lat="44.3657581" lon="7.8670248"><ele>519.0</ele><time>2026-05-03T13:08:06.751Z</time></trkpt><trkpt lat="44.3656351" lon="7.8669219"><ele>519.0</ele><time>2026-05-03T13:08:07.754Z</time></trkpt><trkpt lat="44.3655192" lon="7.8668051"><ele>519.0</ele><time>2026-05-03T13:08:08.759Z</time></trkpt><trkpt lat="44.3654071" lon="7.8666701"><ele>519.0</ele><time>2026-05-03T13:08:09.754Z</time></trkpt><trkpt lat="44.3652991" lon="7.8665227"><ele>519.0</ele><time>2026-05-03T13:08:10.754Z</time></trkpt><trkpt lat="44.3651933" lon="7.8663665"><ele>519.0</ele><time>2026-05-03T13:08:11.758Z</time></trkpt><trkpt lat="44.365089" lon="7.8662091"><ele>519.0</ele><time>2026-05-03T13:08:12.756Z</time></trkpt><trkpt lat="44.364989" lon="7.8660594"><ele>518.5</ele><time>2026-05-03T13:08:13.76Z</time></trkpt><trkpt lat="44.3648959" lon="7.8659153"><ele>518.0</ele><time>2026-05-03T13:08:14.753Z</time></trkpt><trkpt lat="44.3648046" lon="7.8657748"><ele>517.5</ele><time>2026-05-03T13:08:15.756Z</time></trkpt><trkpt lat="44.3647109" lon="7.8656361"><ele>517.0</ele><time>2026-05-03T13:08:16.758Z</time></trkpt><trkpt lat="44.3646183" lon="7.8654967"><ele>517.0</ele><time>2026-05-03T13:08:17.753Z</time></trkpt><trkpt lat="44.36453" lon="7.8653565"><ele>517.0</ele><time>2026-05-03T13:08:18.76Z</time></trkpt><trkpt lat="44.3644391" lon="7.8652178"><ele>517.0</ele><time>2026-05-03T13:08:19.752Z</time></trkpt><trkpt lat="44.364348" lon="7.8650629"><ele>517.0</ele><time>2026-05-03T13:08:20.758Z</time></trkpt><trkpt lat="44.364266" lon="7.8649124"><ele>517.25</ele><time>2026-05-03T13:08:21.753Z</time></trkpt><trkpt lat="44.3641862" lon="7.864763"><ele>517.5</ele><time>2026-05-03T13:08:22.755Z</time></trkpt><trkpt lat="44.3641127" lon="7.8646274"><ele>517.75</ele><time>2026-05-03T13:08:23.75Z</time></trkpt><trkpt lat="44.3640438" lon="7.8645023"><ele>518.0</ele><time>2026-05-03T13:08:24.795Z</time></trkpt><trkpt lat="44.363978" lon="7.8643953"><ele>518.0</ele><time>2026-05-03T13:08:25.753Z</time></trkpt><trkpt lat="44.3639159" lon="7.8642911"><ele>518.0</ele><time>2026-05-03T13:08:26.758Z</time></trkpt><trkpt lat="44.363857" lon="7.8641913"><ele>518.0</ele><time>2026-05-03T13:08:27.754Z</time></trkpt><trkpt lat="44.3638025" lon="7.8640983"><ele>518.0</ele><time>2026-05-03T13:08:28.754Z</time></trkpt><trkpt lat="44.3637525" lon="7.8640213"><ele>518.0</ele><time>2026-05-03T13:08:29.751Z</time></trkpt><trkpt lat="44.3636511" lon="7.8639854"><ele>517.4</ele><time>2026-05-03T13:08:31.755Z</time></trkpt><trkpt lat="44.3635437" lon="7.8640632"><ele>516.8</ele><time>2026-05-03T13:08:33.761Z</time></trkpt><trkpt lat="44.3634203" lon="7.8640951"><ele>516.2</ele><time>2026-05-03T13:08:35.755Z</time></trkpt><trkpt lat="44.3633417" lon="7.8640854"><ele>515.6</ele><time>2026-05-03T13:08:36.748Z</time></trkpt><trkpt lat="44.3632572" lon="7.8640794"><ele>515.0</ele><time>2026-05-03T13:08:37.743Z</time></trkpt><trkpt lat="44.3631789" lon="7.8640657"><ele>515.0</ele><time>2026-05-03T13:08:38.746Z</time></trkpt><trkpt lat="44.3631092" lon="7.8640243"><ele>515.0</ele><time>2026-05-03T13:08:39.758Z</time></trkpt><trkpt lat="44.3630444" lon="7.8639455"><ele>515.0</ele><time>2026-05-03T13:08:40.756Z</time></trkpt><trkpt lat="44.3629856" lon="7.8638439"><ele>515.0</ele><time>2026-05-03T13:08:41.755Z</time></trkpt><trkpt lat="44.3629279" lon="7.8637357"><ele>515.0</ele><time>2026-05-03T13:08:42.752Z</time></trkpt><trkpt lat="44.3628773" lon="7.8636385"><ele>515.0</ele><time>2026-05-03T13:08:43.745Z</time></trkpt><trkpt lat="44.3628322" lon="7.8635553"><ele>515.0</ele><time>2026-05-03T13:08:44.75Z</time></trkpt><trkpt lat="44.3627888" lon="7.8634789"><ele>515.0</ele><time>2026-05-03T13:08:45.747Z</time></trkpt><trkpt lat="44.3627299" lon="7.863376"><ele>515.0</ele><time>2026-05-03T13:08:47.751Z</time></trkpt><trkpt lat="44.3626776" lon="7.8633225"><ele>515.0</ele><time>2026-05-03T13:15:41.743Z</time></trkpt><trkpt lat="44.3626171" lon="7.8633471"><ele>515.0</ele><time>2026-05-03T13:16:30.734Z</time></trkpt><trkpt lat="44.3626861" lon="7.8633171"><ele>515.0</ele><time>2026-05-03T13:29:18.725Z</time></trkpt><trkpt lat="44.36268" lon="7.8631883"><ele>515.0</ele><time>2026-05-03T13:29:31.768Z</time></trkpt><trkpt lat="44.3626789" lon="7.8630179"><ele>515.0</ele><time>2026-05-03T13:29:33.746Z</time></trkpt><trkpt lat="44.3626852" lon="7.8628989"><ele>515.0</ele><time>2026-05-03T13:29:34.75Z</time></trkpt><trkpt lat="44.3626952" lon="7.8627821"><ele>515.0</ele><time>2026-05-03T13:29:35.749Z</time></trkpt><trkpt lat="44.3627118" lon="7.8626897"><ele>515.0</ele><time>2026-05-03T13:29:36.75Z</time></trkpt><trkpt lat="44.3627703" lon="7.8625787"><ele>514.8333333333333</ele><time>2026-05-03T13:29:38.745Z</time></trkpt><trkpt lat="44.3628265" lon="7.8625022"><ele>514.6666666666666</ele><time>2026-05-03T13:29:40.745Z</time></trkpt><trkpt lat="44.3628167" lon="7.8623853"><ele>514.5</ele><time>2026-05-03T13:29:42.749Z</time></trkpt><trkpt lat="44.3627448" lon="7.8622627"><ele>514.3333333333334</ele><time>2026-05-03T13:29:44.799Z</time></trkpt><trkpt lat="44.3626982" lon="7.8621906"><ele>514.1666666666667</ele><time>2026-05-03T13:29:45.744Z</time></trkpt><trkpt lat="44.3626544" lon="7.8621161"><ele>514.0</ele><time>2026-05-03T13:29:46.752Z</time></trkpt><trkpt lat="44.362611" lon="7.8620406"><ele>514.0</ele><time>2026-05-03T13:29:47.744Z</time></trkpt><trkpt lat="44.3625704" lon="7.8619599"><ele>514.0</ele><time>2026-05-03T13:29:48.751Z</time></trkpt><trkpt lat="44.3625312" lon="7.8618755"><ele>514.0</ele><time>2026-05-03T13:29:49.742Z</time></trkpt><trkpt lat="44.3624831" lon="7.8617928"><ele>514.0</ele><time>2026-05-03T13:29:50.747Z</time></trkpt><trkpt lat="44.3624325" lon="7.8617078"><ele>514.0</ele><time>2026-05-03T13:29:51.741Z</time></trkpt><trkpt lat="44.362386" lon="7.861627"><ele>514.0</ele><time>2026-05-03T13:29:52.747Z</time></trkpt><trkpt lat="44.3623432" lon="7.8615534"><ele>514.0</ele><time>2026-05-03T13:29:53.746Z</time></trkpt><trkpt lat="44.3623024" lon="7.8614803"><ele>513.6666666666667</ele><time>2026-05-03T13:29:54.75Z</time></trkpt><trkpt lat="44.3622634" lon="7.8614027"><ele>513.3333333333334</ele><time>2026-05-03T13:29:55.748Z</time></trkpt><trkpt lat="44.3622193" lon="7.8613189"><ele>513.0</ele><time>2026-05-03T13:29:56.749Z</time></trkpt><trkpt lat="44.3621665" lon="7.861232"><ele>512.6666666666666</ele><time>2026-05-03T13:29:57.751Z</time></trkpt><trkpt lat="44.3621085" lon="7.8611372"><ele>512.3333333333333</ele><time>2026-05-03T13:29:58.744Z</time></trkpt><trkpt lat="44.3620463" lon="7.8610349"><ele>512.0</ele><time>2026-05-03T13:29:59.749Z</time></trkpt><trkpt lat="44.3619796" lon="7.860921"><ele>511.5</ele><time>2026-05-03T13:30:00.742Z</time></trkpt><trkpt lat="44.3619071" lon="7.860794"><ele>511.0</ele><time>2026-05-03T13:30:01.775Z</time></trkpt><trkpt lat="44.3618307" lon="7.8606604"><ele>510.5</ele><time>2026-05-03T13:30:02.743Z</time></trkpt><trkpt lat="44.3617567" lon="7.8605335"><ele>510.0</ele><time>2026-05-03T13:30:03.745Z</time></trkpt><trkpt lat="44.3616879" lon="7.8604138"><ele>510.0</ele><time>2026-05-03T13:30:04.746Z</time></trkpt><trkpt lat="44.3616174" lon="7.8602903"><ele>510.0</ele><time>2026-05-03T13:30:05.747Z</time></trkpt><trkpt lat="44.361544" lon="7.8601624"><ele>510.0</ele><time>2026-05-03T13:30:06.745Z</time></trkpt><trkpt lat="44.3614728" lon="7.8600385"><ele>510.0</ele><time>2026-05-03T13:30:07.747Z</time></trkpt><trkpt lat="44.3614079" lon="7.8599253"><ele>510.0</ele><time>2026-05-03T13:30:08.774Z</time></trkpt><trkpt lat="44.3613527" lon="7.8598273"><ele>509.3333333333333</ele><time>2026-05-03T13:30:09.747Z</time></trkpt><trkpt lat="44.3613069" lon="7.8597432"><ele>508.66666666666663</ele><time>2026-05-03T13:30:10.744Z</time></trkpt><trkpt lat="44.3612677" lon="7.8596734"><ele>508.0</ele><time>2026-05-03T13:30:11.746Z</time></trkpt><trkpt lat="44.3611964" lon="7.8595671"><ele>507.3333333333333</ele><time>2026-05-03T13:30:13.742Z</time></trkpt><trkpt lat="44.3611431" lon="7.8594709"><ele>506.66666666666663</ele><time>2026-05-03T13:30:15.742Z</time></trkpt><trkpt lat="44.3611054" lon="7.859382"><ele>506.0</ele><time>2026-05-03T13:30:17.751Z</time></trkpt><trkpt lat="44.3610714" lon="7.8592982"><ele>506.0</ele><time>2026-05-03T13:30:20.745Z</time></trkpt><trkpt lat="44.3610254" lon="7.8591822"><ele>506.0</ele><time>2026-05-03T13:30:26.751Z</time></trkpt><trkpt lat="44.3609679" lon="7.8590147"><ele>506.0</ele><time>2026-05-03T13:30:28.755Z</time></trkpt><trkpt lat="44.3609372" lon="7.8589098"><ele>506.0</ele><time>2026-05-03T13:30:29.75Z</time></trkpt><trkpt lat="44.360905" lon="7.8587994"><ele>506.0</ele><time>2026-05-03T13:30:30.747Z</time></trkpt><trkpt lat="44.3608717" lon="7.8586828"><ele>506.0</ele><time>2026-05-03T13:30:31.743Z</time></trkpt><trkpt lat="44.3608372" lon="7.8585628"><ele>506.0</ele><time>2026-05-03T13:30:32.745Z</time></trkpt><trkpt lat="44.3608017" lon="7.8584382"><ele>506.0</ele><time>2026-05-03T13:30:33.752Z</time></trkpt><trkpt lat="44.3607655" lon="7.858308"><ele>506.0</ele><time>2026-05-03T13:30:34.744Z</time></trkpt><trkpt lat="44.360728" lon="7.8581742"><ele>506.0</ele><time>2026-05-03T13:30:35.75Z</time></trkpt><trkpt lat="44.3606913" lon="7.8580429"><ele>506.0</ele><time>2026-05-03T13:30:36.743Z</time></trkpt><trkpt lat="44.360654" lon="7.8579142"><ele>506.0</ele><time>2026-05-03T13:30:37.746Z</time></trkpt><trkpt lat="44.360616" lon="7.8577823"><ele>506.0</ele><time>2026-05-03T13:30:38.742Z</time></trkpt><trkpt lat="44.360582" lon="7.8576416"><ele>506.0</ele><time>2026-05-03T13:30:39.741Z</time></trkpt><trkpt lat="44.360557" lon="7.8574933"><ele>506.0</ele><time>2026-05-03T13:30:40.741Z</time></trkpt><trkpt lat="44.3605428" lon="7.8573337"><ele>505.5</ele><time>2026-05-03T13:30:41.744Z</time></trkpt><trkpt lat="44.3605298" lon="7.8571607"><ele>505.0</ele><time>2026-05-03T13:30:42.752Z</time></trkpt><trkpt lat="44.3605127" lon="7.8569744"><ele>504.5</ele><time>2026-05-03T13:30:43.744Z</time></trkpt><trkpt lat="44.3604934" lon="7.8567759"><ele>504.0</ele><time>2026-05-03T13:30:44.747Z</time></trkpt><trkpt lat="44.3604716" lon="7.8565675"><ele>503.66666666666663</ele><time>2026-05-03T13:30:45.746Z</time></trkpt><trkpt lat="44.3604456" lon="7.8563499"><ele>503.3333333333333</ele><time>2026-05-03T13:30:46.747Z</time></trkpt><trkpt lat="44.3604169" lon="7.8561244"><ele>503.0</ele><time>2026-05-03T13:30:47.747Z</time></trkpt><trkpt lat="44.3603879" lon="7.8558925"><ele>502.3333333333333</ele><time>2026-05-03T13:30:48.755Z</time></trkpt><trkpt lat="44.3603593" lon="7.8556574"><ele>501.66666666666663</ele><time>2026-05-03T13:30:49.743Z</time></trkpt><trkpt lat="44.3603318" lon="7.8554219"><ele>501.0</ele><time>2026-05-03T13:30:50.747Z</time></trkpt><trkpt lat="44.360306" lon="7.8551977"><ele>501.25</ele><time>2026-05-03T13:30:51.752Z</time></trkpt><trkpt lat="44.360282" lon="7.8549931"><ele>501.5</ele><time>2026-05-03T13:30:52.739Z</time></trkpt><trkpt lat="44.360261" lon="7.8548137"><ele>501.75</ele><time>2026-05-03T13:30:53.753Z</time></trkpt><trkpt lat="44.3602415" lon="7.8546499"><ele>502.0</ele><time>2026-05-03T13:30:54.745Z</time></trkpt><trkpt lat="44.3602249" lon="7.8545059"><ele>502.00000000000006</ele><time>2026-05-03T13:30:55.743Z</time></trkpt><trkpt lat="44.3602108" lon="7.8543778"><ele>502.0</ele><time>2026-05-03T13:30:56.749Z</time></trkpt><trkpt lat="44.360198" lon="7.8542631"><ele>502.0</ele><time>2026-05-03T13:30:57.75Z</time></trkpt><trkpt lat="44.3601854" lon="7.8541651"><ele>502.0</ele><time>2026-05-03T13:30:58.74Z</time></trkpt><trkpt lat="44.3601751" lon="7.8540744"><ele>502.00000000000006</ele><time>2026-05-03T13:30:59.75Z</time></trkpt><trkpt lat="44.3601639" lon="7.8539709"><ele>502.0</ele><time>2026-05-03T13:31:00.75Z</time></trkpt><trkpt lat="44.3601496" lon="7.8538519"><ele>502.20000000000005</ele><time>2026-05-03T13:31:01.747Z</time></trkpt><trkpt lat="44.3601309" lon="7.8537338"><ele>502.40000000000003</ele><time>2026-05-03T13:31:02.747Z</time></trkpt><trkpt lat="44.3601177" lon="7.8535863"><ele>502.59999999999997</ele><time>2026-05-03T13:31:03.758Z</time></trkpt><trkpt lat="44.3601029" lon="7.8534304"><ele>502.79999999999995</ele><time>2026-05-03T13:31:04.746Z</time></trkpt><trkpt lat="44.360081" lon="7.8532628"><ele>503.0</ele><time>2026-05-03T13:31:05.747Z</time></trkpt><trkpt lat="44.3600606" lon="7.8530947"><ele>503.4</ele><time>2026-05-03T13:31:06.744Z</time></trkpt><trkpt lat="44.360043" lon="7.852934"><ele>503.79999999999995</ele><time>2026-05-03T13:31:07.743Z</time></trkpt><trkpt lat="44.3600238" lon="7.8527865"><ele>504.2</ele><time>2026-05-03T13:31:08.742Z</time></trkpt><trkpt lat="44.3600046" lon="7.8526512"><ele>504.6</ele><time>2026-05-03T13:31:09.747Z</time></trkpt><trkpt lat="44.3599857" lon="7.8525273"><ele>505.0</ele><time>2026-05-03T13:31:10.749Z</time></trkpt><trkpt lat="44.3599691" lon="7.8524063"><ele>505.6666666666667</ele><time>2026-05-03T13:31:11.741Z</time></trkpt><trkpt lat="44.3599521" lon="7.8522869"><ele>506.33333333333337</ele><time>2026-05-03T13:31:12.744Z</time></trkpt><trkpt lat="44.3599374" lon="7.852173"><ele>507.0</ele><time>2026-05-03T13:31:13.742Z</time></trkpt><trkpt lat="44.3599226" lon="7.8520721"><ele>507.66666666666663</ele><time>2026-05-03T13:31:14.742Z</time></trkpt><trkpt lat="44.3599114" lon="7.8519845"><ele>508.3333333333333</ele><time>2026-05-03T13:31:15.745Z</time></trkpt><trkpt lat="44.3599067" lon="7.8518497"><ele>509.0</ele><time>2026-05-03T13:31:17.753Z</time></trkpt><trkpt lat="44.3599481" lon="7.851768"><ele>508.99999999999994</ele><time>2026-05-03T13:31:19.758Z</time></trkpt><trkpt lat="44.3600346" lon="7.8517475"><ele>509.0</ele><time>2026-05-03T13:31:21.765Z</time></trkpt><trkpt lat="44.3600963" lon="7.8517658"><ele>509.0</ele><time>2026-05-03T13:31:22.743Z</time></trkpt><trkpt lat="44.360168" lon="7.8518031"><ele>509.0</ele><time>2026-05-03T13:31:23.747Z</time></trkpt><trkpt lat="44.360251" lon="7.8518497"><ele>508.99999999999994</ele><time>2026-05-03T13:31:24.743Z</time></trkpt><trkpt lat="44.3603422" lon="7.8518931"><ele>509.0</ele><time>2026-05-03T13:31:25.749Z</time></trkpt><trkpt lat="44.360442" lon="7.8519423"><ele>510.25</ele><time>2026-05-03T13:31:26.747Z</time></trkpt><trkpt lat="44.3605482" lon="7.8519999"><ele>511.5</ele><time>2026-05-03T13:31:27.749Z</time></trkpt><trkpt lat="44.3606581" lon="7.8520575"><ele>512.75</ele><time>2026-05-03T13:31:28.747Z</time></trkpt><trkpt lat="44.3607688" lon="7.8521214"><ele>514.0</ele><time>2026-05-03T13:31:29.751Z</time></trkpt><trkpt lat="44.360867" lon="7.8521819"><ele>514.0</ele><time>2026-05-03T13:31:30.746Z</time></trkpt><trkpt lat="44.3609471" lon="7.8522325"><ele>514.0</ele><time>2026-05-03T13:31:31.747Z</time></trkpt><trkpt lat="44.3610143" lon="7.8522674"><ele>514.0</ele><time>2026-05-03T13:31:32.774Z</time></trkpt><trkpt lat="44.3611077" lon="7.8522676"><ele>514.0</ele><time>2026-05-03T13:31:34.753Z</time></trkpt><trkpt lat="44.3611832" lon="7.85221"><ele>514.0</ele><time>2026-05-03T13:31:36.749Z</time></trkpt><trkpt lat="44.3612169" lon="7.8520826"><ele>514.0</ele><time>2026-05-03T13:31:38.743Z</time></trkpt><trkpt lat="44.3612249" lon="7.8519839"><ele>514.0</ele><time>2026-05-03T13:31:39.769Z</time></trkpt><trkpt lat="44.3612407" lon="7.8518753"><ele>514.0</ele><time>2026-05-03T13:31:40.743Z</time></trkpt><trkpt lat="44.3612619" lon="7.8517619"><ele>514.0</ele><time>2026-05-03T13:31:41.751Z</time></trkpt><trkpt lat="44.36128" lon="7.8516485"><ele>514.0</ele><time>2026-05-03T13:31:42.75Z</time></trkpt><trkpt lat="44.3612983" lon="7.8515374"><ele>514.0</ele><time>2026-05-03T13:31:43.745Z</time></trkpt><trkpt lat="44.3613155" lon="7.8514323"><ele>514.0</ele><time>2026-05-03T13:31:44.748Z</time></trkpt><trkpt lat="44.3613397" lon="7.8513252"><ele>516.6666666666667</ele><time>2026-05-03T13:31:45.756Z</time></trkpt><trkpt lat="44.3613666" lon="7.8512202"><ele>519.3333333333334</ele><time>2026-05-03T13:31:46.747Z</time></trkpt><trkpt lat="44.3613922" lon="7.8511391"><ele>522.0</ele><time>2026-05-03T13:31:47.744Z</time></trkpt><trkpt lat="44.3614338" lon="7.85104"><ele>524.6666666666666</ele><time>2026-05-03T13:31:49.738Z</time></trkpt><trkpt lat="44.3615136" lon="7.8509989"><ele>527.3333333333333</ele><time>2026-05-03T13:31:51.749Z</time></trkpt><trkpt lat="44.361641" lon="7.8509796"><ele>530.0</ele><time>2026-05-03T13:31:53.747Z</time></trkpt><trkpt lat="44.3617261" lon="7.8509745"><ele>530.0</ele><time>2026-05-03T13:31:54.754Z</time></trkpt><trkpt lat="44.361812" lon="7.8509617"><ele>530.0</ele><time>2026-05-03T13:31:55.747Z</time></trkpt><trkpt lat="44.3619057" lon="7.8509514"><ele>530.0</ele><time>2026-05-03T13:31:56.744Z</time></trkpt><trkpt lat="44.3620067" lon="7.8509425"><ele>530.0</ele><time>2026-05-03T13:31:57.75Z</time></trkpt><trkpt lat="44.3621184" lon="7.8509298"><ele>530.0</ele><time>2026-05-03T13:31:58.747Z</time></trkpt><trkpt lat="44.3622284" lon="7.8509206"><ele>531.8</ele><time>2026-05-03T13:31:59.778Z</time></trkpt><trkpt lat="44.3623197" lon="7.85091"><ele>533.6</ele><time>2026-05-03T13:32:00.747Z</time></trkpt><trkpt lat="44.3624126" lon="7.8508818"><ele>535.4</ele><time>2026-05-03T13:32:01.752Z</time></trkpt><trkpt lat="44.3625137" lon="7.8508651"><ele>537.2</ele><time>2026-05-03T13:32:02.749Z</time></trkpt><trkpt lat="44.3626194" lon="7.8508366"><ele>539.0</ele><time>2026-05-03T13:32:03.749Z</time></trkpt><trkpt lat="44.3627161" lon="7.8508095"><ele>539.0</ele><time>2026-05-03T13:32:04.748Z</time></trkpt><trkpt lat="44.3628051" lon="7.8507759"><ele>539.0</ele><time>2026-05-03T13:32:05.742Z</time></trkpt><trkpt lat="44.3628917" lon="7.8507512"><ele>539.0</ele><time>2026-05-03T13:32:06.748Z</time></trkpt><trkpt lat="44.3629796" lon="7.8507062"><ele>539.0</ele><time>2026-05-03T13:32:07.744Z</time></trkpt><trkpt lat="44.3630664" lon="7.8506443"><ele>539.0</ele><time>2026-05-03T13:32:08.761Z</time></trkpt><trkpt lat="44.3631388" lon="7.8506123"><ele>539.0</ele><time>2026-05-03T13:32:09.745Z</time></trkpt><trkpt lat="44.363264" lon="7.8505199"><ele>539.5</ele><time>2026-05-03T13:32:11.745Z</time></trkpt><trkpt lat="44.3633465" lon="7.8504853"><ele>540.0</ele><time>2026-05-03T13:32:12.753Z</time></trkpt><trkpt lat="44.3634312" lon="7.8504701"><ele>540.5</ele><time>2026-05-03T13:32:13.749Z</time></trkpt><trkpt lat="44.3635153" lon="7.8504637"><ele>541.0</ele><time>2026-05-03T13:32:14.746Z</time></trkpt><trkpt lat="44.3635881" lon="7.8504746"><ele>541.5</ele><time>2026-05-03T13:32:15.744Z</time></trkpt><trkpt lat="44.3636919" lon="7.8504999"><ele>542.0</ele><time>2026-05-03T13:32:17.748Z</time></trkpt><trkpt lat="44.3637995" lon="7.8505156"><ele>543.5</ele><time>2026-05-03T13:32:19.754Z</time></trkpt><trkpt lat="44.3638714" lon="7.8504956"><ele>545.0</ele><time>2026-05-03T13:32:20.742Z</time></trkpt><trkpt lat="44.3639542" lon="7.850474"><ele>546.5</ele><time>2026-05-03T13:32:21.748Z</time></trkpt><trkpt lat="44.3640251" lon="7.8504671"><ele>548.0</ele><time>2026-05-03T13:32:22.748Z</time></trkpt><trkpt lat="44.3641047" lon="7.8504417"><ele>549.5</ele><time>2026-05-03T13:32:23.748Z</time></trkpt><trkpt lat="44.3641774" lon="7.8504087"><ele>551.0</ele><time>2026-05-03T13:32:24.741Z</time></trkpt><trkpt lat="44.3642969" lon="7.8504062"><ele>551.0</ele><time>2026-05-03T13:32:26.741Z</time></trkpt><trkpt lat="44.3643767" lon="7.8504271"><ele>551.0</ele><time>2026-05-03T13:32:27.742Z</time></trkpt><trkpt lat="44.3644674" lon="7.850457"><ele>551.0</ele><time>2026-05-03T13:32:28.746Z</time></trkpt><trkpt lat="44.364568" lon="7.8504922"><ele>551.0</ele><time>2026-05-03T13:32:29.745Z</time></trkpt><trkpt lat="44.3646658" lon="7.8505325"><ele>551.0</ele><time>2026-05-03T13:32:30.74Z</time></trkpt><trkpt lat="44.3647677" lon="7.8505605"><ele>551.4</ele><time>2026-05-03T13:32:31.743Z</time></trkpt><trkpt lat="44.3648697" lon="7.8505983"><ele>551.8</ele><time>2026-05-03T13:32:32.739Z</time></trkpt><trkpt lat="44.3649583" lon="7.85063"><ele>552.1999999999999</ele><time>2026-05-03T13:32:33.748Z</time></trkpt><trkpt lat="44.3650398" lon="7.8506633"><ele>552.6</ele><time>2026-05-03T13:32:34.743Z</time></trkpt><trkpt lat="44.3651176" lon="7.8507056"><ele>553.0</ele><time>2026-05-03T13:32:35.746Z</time></trkpt><trkpt lat="44.3652029" lon="7.8507533"><ele>553.0</ele><time>2026-05-03T13:32:36.744Z</time></trkpt><trkpt lat="44.3652848" lon="7.8508183"><ele>553.0</ele><time>2026-05-03T13:32:37.745Z</time></trkpt><trkpt lat="44.3653697" lon="7.8508944"><ele>553.0</ele><time>2026-05-03T13:32:38.746Z</time></trkpt><trkpt lat="44.3654502" lon="7.850975"><ele>553.0</ele><time>2026-05-03T13:32:39.751Z</time></trkpt><trkpt lat="44.3655362" lon="7.8510545"><ele>553.0</ele><time>2026-05-03T13:32:40.751Z</time></trkpt><trkpt lat="44.3656228" lon="7.8511285"><ele>554.4</ele><time>2026-05-03T13:32:41.742Z</time></trkpt><trkpt lat="44.3656983" lon="7.8512157"><ele>555.8</ele><time>2026-05-03T13:32:42.75Z</time></trkpt><trkpt lat="44.3657621" lon="7.8513042"><ele>557.2</ele><time>2026-05-03T13:32:43.744Z</time></trkpt><trkpt lat="44.3658342" lon="7.8513717"><ele>558.6</ele><time>2026-05-03T13:32:44.743Z</time></trkpt><trkpt lat="44.3659071" lon="7.8514393"><ele>560.0</ele><time>2026-05-03T13:32:45.746Z</time></trkpt><trkpt lat="44.3659824" lon="7.851507"><ele>560.0</ele><time>2026-05-03T13:32:46.747Z</time></trkpt><trkpt lat="44.3660702" lon="7.8515675"><ele>560.0</ele><time>2026-05-03T13:32:47.75Z</time></trkpt><trkpt lat="44.3661589" lon="7.8516324"><ele>560.0</ele><time>2026-05-03T13:32:48.749Z</time></trkpt><trkpt lat="44.3662557" lon="7.8517071"><ele>560.0</ele><time>2026-05-03T13:32:49.747Z</time></trkpt><trkpt lat="44.3663549" lon="7.851782"><ele>560.0</ele><time>2026-05-03T13:32:50.753Z</time></trkpt><trkpt lat="44.3664425" lon="7.8518406"><ele>560.5</ele><time>2026-05-03T13:32:51.751Z</time></trkpt><trkpt lat="44.3665228" lon="7.8518848"><ele>561.0</ele><time>2026-05-03T13:32:52.745Z</time></trkpt><trkpt lat="44.366603" lon="7.8519222"><ele>561.5</ele><time>2026-05-03T13:32:53.75Z</time></trkpt><trkpt lat="44.3666795" lon="7.8519531"><ele>562.0</ele><time>2026-05-03T13:32:54.75Z</time></trkpt><trkpt lat="44.3667492" lon="7.8519862"><ele>562.5</ele><time>2026-05-03T13:32:55.742Z</time></trkpt><trkpt lat="44.3668144" lon="7.8520196"><ele>563.0</ele><time>2026-05-03T13:32:56.75Z</time></trkpt><trkpt lat="44.3668771" lon="7.852052"><ele>563.0</ele><time>2026-05-03T13:32:57.75Z</time></trkpt><trkpt lat="44.3669397" lon="7.8520842"><ele>563.0</ele><time>2026-05-03T13:32:58.749Z</time></trkpt><trkpt lat="44.3670011" lon="7.8521138"><ele>563.0</ele><time>2026-05-03T13:32:59.751Z</time></trkpt><trkpt lat="44.3670646" lon="7.8521424"><ele>563.0</ele><time>2026-05-03T13:33:00.749Z</time></trkpt><trkpt lat="44.3671284" lon="7.85216"><ele>563.0</ele><time>2026-05-03T13:33:01.754Z</time></trkpt><trkpt lat="44.3671982" lon="7.8521788"><ele>563.0</ele><time>2026-05-03T13:33:02.746Z</time></trkpt><trkpt lat="44.3672637" lon="7.8521942"><ele>563.0</ele><time>2026-05-03T13:33:03.746Z</time></trkpt><trkpt lat="44.367333" lon="7.8522237"><ele>564.5</ele><time>2026-05-03T13:33:04.747Z</time></trkpt><trkpt lat="44.3674018" lon="7.8522551"><ele>566.0</ele><time>2026-05-03T13:33:05.749Z</time></trkpt><trkpt lat="44.3674747" lon="7.8522868"><ele>567.5</ele><time>2026-05-03T13:33:06.753Z</time></trkpt><trkpt lat="44.3675485" lon="7.8523182"><ele>569.0</ele><time>2026-05-03T13:33:07.754Z</time></trkpt><trkpt lat="44.3676272" lon="7.8523596"><ele>570.5</ele><time>2026-05-03T13:33:08.747Z</time></trkpt><trkpt lat="44.3677136" lon="7.852407"><ele>572.0</ele><time>2026-05-03T13:33:09.75Z</time></trkpt><trkpt lat="44.3678114" lon="7.852457"><ele>572.0</ele><time>2026-05-03T13:33:10.75Z</time></trkpt><trkpt lat="44.3679193" lon="7.8525084"><ele>572.0</ele><time>2026-05-03T13:33:11.753Z</time></trkpt><trkpt lat="44.3680309" lon="7.8525643"><ele>572.0</ele><time>2026-05-03T13:33:12.751Z</time></trkpt><trkpt lat="44.3681357" lon="7.8526199"><ele>572.0</ele><time>2026-05-03T13:33:13.752Z</time></trkpt><trkpt lat="44.3682327" lon="7.8526739"><ele>572.0</ele><time>2026-05-03T13:33:14.76Z</time></trkpt><trkpt lat="44.3683335" lon="7.8527257"><ele>571.5</ele><time>2026-05-03T13:33:15.747Z</time></trkpt><trkpt lat="44.3684411" lon="7.8527826"><ele>571.0</ele><time>2026-05-03T13:33:16.755Z</time></trkpt><trkpt lat="44.3685533" lon="7.8528439"><ele>570.5</ele><time>2026-05-03T13:33:17.746Z</time></trkpt><trkpt lat="44.3686699" lon="7.8529075"><ele>570.0</ele><time>2026-05-03T13:33:18.755Z</time></trkpt><trkpt lat="44.3687919" lon="7.8529736"><ele>571.3333333333334</ele><time>2026-05-03T13:33:19.751Z</time></trkpt><trkpt lat="44.3689321" lon="7.8530418"><ele>572.6666666666667</ele><time>2026-05-03T13:33:20.754Z</time></trkpt><trkpt lat="44.3690827" lon="7.8531159"><ele>574.0</ele><time>2026-05-03T13:33:21.75Z</time></trkpt><trkpt lat="44.3692406" lon="7.8531909"><ele>574.0</ele><time>2026-05-03T13:33:22.755Z</time></trkpt><trkpt lat="44.3694058" lon="7.8532717"><ele>574.0</ele><time>2026-05-03T13:33:23.748Z</time></trkpt><trkpt lat="44.3695609" lon="7.8533488"><ele>574.0</ele><time>2026-05-03T13:33:24.75Z</time></trkpt><trkpt lat="44.3697004" lon="7.8534224"><ele>575.4</ele><time>2026-05-03T13:33:25.748Z</time></trkpt><trkpt lat="44.3698178" lon="7.8534885"><ele>576.8</ele><time>2026-05-03T13:33:26.749Z</time></trkpt><trkpt lat="44.3699136" lon="7.8535468"><ele>578.2</ele><time>2026-05-03T13:33:27.752Z</time></trkpt><trkpt lat="44.3699886" lon="7.8535905"><ele>579.6</ele><time>2026-05-03T13:33:28.759Z</time></trkpt><trkpt lat="44.3700763" lon="7.8536116"><ele>581.0</ele><time>2026-05-03T13:33:30.763Z</time></trkpt><trkpt lat="44.3701451" lon="7.853501"><ele>580.0</ele><time>2026-05-03T13:33:40.78Z</time></trkpt><trkpt lat="44.3701641" lon="7.8534037"><ele>579.0</ele><time>2026-05-03T13:33:41.789Z</time></trkpt><trkpt lat="44.370191" lon="7.8532787"><ele>578.0</ele><time>2026-05-03T13:33:42.749Z</time></trkpt><trkpt lat="44.3702294" lon="7.8531376"><ele>577.0</ele><time>2026-05-03T13:33:43.749Z</time></trkpt><trkpt lat="44.3702742" lon="7.8529901"><ele>576.0</ele><time>2026-05-03T13:33:44.756Z</time></trkpt><trkpt lat="44.3703231" lon="7.852839"><ele>576.0</ele><time>2026-05-03T13:33:45.752Z</time></trkpt><trkpt lat="44.3703728" lon="7.852679"><ele>576.0</ele><time>2026-05-03T13:33:46.757Z</time></trkpt><trkpt lat="44.3704229" lon="7.8525101"><ele>576.0</ele><time>2026-05-03T13:33:47.749Z</time></trkpt><trkpt lat="44.3704755" lon="7.8523333"><ele>576.0</ele><time>2026-05-03T13:33:48.755Z</time></trkpt><trkpt lat="44.3705297" lon="7.8521529"><ele>574.25</ele><time>2026-05-03T13:33:49.759Z</time></trkpt><trkpt lat="44.3705849" lon="7.8519742"><ele>572.5</ele><time>2026-05-03T13:33:50.751Z</time></trkpt><trkpt lat="44.3706404" lon="7.8517965"><ele>570.75</ele><time>2026-05-03T13:33:51.754Z</time></trkpt><trkpt lat="44.3706954" lon="7.8516189"><ele>569.0</ele><time>2026-05-03T13:33:52.751Z</time></trkpt><trkpt lat="44.3707505" lon="7.8514422"><ele>567.0</ele><time>2026-05-03T13:33:53.752Z</time></trkpt><trkpt lat="44.3708061" lon="7.8512671"><ele>565.0</ele><time>2026-05-03T13:33:54.749Z</time></trkpt><trkpt lat="44.3708625" lon="7.8510943"><ele>563.0</ele><time>2026-05-03T13:33:55.755Z</time></trkpt><trkpt lat="44.3709182" lon="7.8509246"><ele>561.0</ele><time>2026-05-03T13:33:56.754Z</time></trkpt><trkpt lat="44.370974" lon="7.8507614"><ele>560.0</ele><time>2026-05-03T13:33:57.756Z</time></trkpt><trkpt lat="44.3710277" lon="7.850611"><ele>559.0</ele><time>2026-05-03T13:33:58.75Z</time></trkpt><trkpt lat="44.3710771" lon="7.8504706"><ele>558.0</ele><time>2026-05-03T13:33:59.748Z</time></trkpt><trkpt lat="44.3711191" lon="7.8503446"><ele>557.0</ele><time>2026-05-03T13:34:00.758Z</time></trkpt><trkpt lat="44.3711512" lon="7.8502279"><ele>556.0</ele><time>2026-05-03T13:34:01.746Z</time></trkpt><trkpt lat="44.3711666" lon="7.8501186"><ele>556.2</ele><time>2026-05-03T13:34:02.751Z</time></trkpt><trkpt lat="44.3711748" lon="7.8500191"><ele>556.4000000000001</ele><time>2026-05-03T13:34:03.757Z</time></trkpt><trkpt lat="44.3712028" lon="7.8498809"><ele>556.6</ele><time>2026-05-03T13:34:05.757Z</time></trkpt><trkpt lat="44.3713044" lon="7.8497627"><ele>556.8000000000001</ele><time>2026-05-03T13:34:07.757Z</time></trkpt><trkpt lat="44.3713853" lon="7.8497006"><ele>557.0</ele><time>2026-05-03T13:34:08.751Z</time></trkpt><trkpt lat="44.3714753" lon="7.8496422"><ele>557.0</ele><time>2026-05-03T13:34:09.758Z</time></trkpt><trkpt lat="44.3715755" lon="7.8495739"><ele>557.0</ele><time>2026-05-03T13:34:10.746Z</time></trkpt><trkpt lat="44.3716806" lon="7.8494989"><ele>557.0</ele><time>2026-05-03T13:34:11.756Z</time></trkpt><trkpt lat="44.3717928" lon="7.84942"><ele>557.0</ele><time>2026-05-03T13:34:12.751Z</time></trkpt><trkpt lat="44.3719048" lon="7.8493388"><ele>556.5</ele><time>2026-05-03T13:34:13.753Z</time></trkpt><trkpt lat="44.3720181" lon="7.8492544"><ele>556.0</ele><time>2026-05-03T13:34:14.752Z</time></trkpt><trkpt lat="44.3721292" lon="7.8491701"><ele>555.5</ele><time>2026-05-03T13:34:15.753Z</time></trkpt><trkpt lat="44.372245" lon="7.8490829"><ele>555.0</ele><time>2026-05-03T13:34:16.756Z</time></trkpt><trkpt lat="44.3723644" lon="7.8489937"><ele>555.0</ele><time>2026-05-03T13:34:17.751Z</time></trkpt><trkpt lat="44.372484" lon="7.8489018"><ele>555.0</ele><time>2026-05-03T13:34:18.753Z</time></trkpt><trkpt lat="44.3725971" lon="7.848812"><ele>555.0</ele><time>2026-05-03T13:34:19.752Z</time></trkpt><trkpt lat="44.3727043" lon="7.8487294"><ele>555.0</ele><time>2026-05-03T13:34:20.761Z</time></trkpt><trkpt lat="44.3728081" lon="7.8486568"><ele>555.0</ele><time>2026-05-03T13:34:21.751Z</time></trkpt><trkpt lat="44.3729094" lon="7.8485954"><ele>555.0</ele><time>2026-05-03T13:34:22.758Z</time></trkpt><trkpt lat="44.3730074" lon="7.8485504"><ele>555.0</ele><time>2026-05-03T13:34:23.753Z</time></trkpt><trkpt lat="44.3731086" lon="7.8485264"><ele>555.0</ele><time>2026-05-03T13:34:24.753Z</time></trkpt><trkpt lat="44.3732149" lon="7.848537"><ele>555.0</ele><time>2026-05-03T13:34:25.757Z</time></trkpt><trkpt lat="44.3733234" lon="7.8485846"><ele>553.5</ele><time>2026-05-03T13:34:26.756Z</time></trkpt><trkpt lat="44.3734295" lon="7.8486712"><ele>552.0</ele><time>2026-05-03T13:34:27.755Z</time></trkpt><trkpt lat="44.3735314" lon="7.8487914"><ele>550.5</ele><time>2026-05-03T13:34:28.76Z</time></trkpt><trkpt lat="44.3736303" lon="7.8489353"><ele>549.0</ele><time>2026-05-03T13:34:29.758Z</time></trkpt><trkpt lat="44.3737301" lon="7.8490891"><ele>549.0</ele><time>2026-05-03T13:34:30.752Z</time></trkpt><trkpt lat="44.3738261" lon="7.8492366"><ele>549.0</ele><time>2026-05-03T13:34:31.755Z</time></trkpt><trkpt lat="44.3739191" lon="7.8493723"><ele>549.0</ele><time>2026-05-03T13:34:32.758Z</time></trkpt><trkpt lat="44.3740108" lon="7.8494827"><ele>549.0</ele><time>2026-05-03T13:34:33.756Z</time></trkpt><trkpt lat="44.3741057" lon="7.8495633"><ele>548.8</ele><time>2026-05-03T13:34:34.757Z</time></trkpt><trkpt lat="44.3742025" lon="7.8496077"><ele>548.5999999999999</ele><time>2026-05-03T13:34:35.754Z</time></trkpt><trkpt lat="44.3742993" lon="7.8496141"><ele>548.4</ele><time>2026-05-03T13:34:36.75Z</time></trkpt><trkpt lat="44.3744005" lon="7.8495834"><ele>548.1999999999999</ele><time>2026-05-03T13:34:37.755Z</time></trkpt><trkpt lat="44.3745045" lon="7.8495126"><ele>548.0</ele><time>2026-05-03T13:34:38.748Z</time></trkpt><trkpt lat="44.3746071" lon="7.8494052"><ele>544.75</ele><time>2026-05-03T13:34:39.751Z</time></trkpt><trkpt lat="44.3747118" lon="7.8492764"><ele>541.5</ele><time>2026-05-03T13:34:40.753Z</time></trkpt><trkpt lat="44.37482" lon="7.8491363"><ele>538.25</ele><time>2026-05-03T13:34:41.748Z</time></trkpt><trkpt lat="44.3749262" lon="7.8490041"><ele>535.0</ele><time>2026-05-03T13:34:42.76Z</time></trkpt><trkpt lat="44.3750287" lon="7.8488839"><ele>535.0</ele><time>2026-05-03T13:34:43.756Z</time></trkpt><trkpt lat="44.3751203" lon="7.848778"><ele>535.0</ele><time>2026-05-03T13:34:44.75Z</time></trkpt><trkpt lat="44.3752015" lon="7.8486825"><ele>535.0</ele><time>2026-05-03T13:34:45.75Z</time></trkpt><trkpt lat="44.3752724" lon="7.8486002"><ele>535.0</ele><time>2026-05-03T13:34:46.754Z</time></trkpt><trkpt lat="44.375323" lon="7.8485132"><ele>535.0</ele><time>2026-05-03T13:34:47.749Z</time></trkpt><trkpt lat="44.3753268" lon="7.8483594"><ele>535.0</ele><time>2026-05-03T13:34:49.756Z</time></trkpt><trkpt lat="44.3752615" lon="7.8483212"><ele>535.0</ele><time>2026-05-03T13:34:50.749Z</time></trkpt><trkpt lat="44.3751856" lon="7.8483249"><ele>535.0</ele><time>2026-05-03T13:34:51.75Z</time></trkpt><trkpt lat="44.3750913" lon="7.8483704"><ele>535.0</ele><time>2026-05-03T13:34:52.757Z</time></trkpt><trkpt lat="44.3749863" lon="7.8484418"><ele>535.0</ele><time>2026-05-03T13:34:53.759Z</time></trkpt><trkpt lat="44.3748744" lon="7.8485079"><ele>535.0</ele><time>2026-05-03T13:34:54.755Z</time></trkpt><trkpt lat="44.3747652" lon="7.8485629"><ele>535.0</ele><time>2026-05-03T13:34:55.754Z</time></trkpt><trkpt lat="44.3746616" lon="7.8486015"><ele>535.0</ele><time>2026-05-03T13:34:56.755Z</time></trkpt><trkpt lat="44.3745497" lon="7.84861"><ele>535.0</ele><time>2026-05-03T13:34:57.747Z</time></trkpt><trkpt lat="44.3744338" lon="7.8485838"><ele>535.25</ele><time>2026-05-03T13:34:58.757Z</time></trkpt><trkpt lat="44.3743168" lon="7.8485288"><ele>535.5</ele><time>2026-05-03T13:34:59.752Z</time></trkpt><trkpt lat="44.3742212" lon="7.8484358"><ele>535.75</ele><time>2026-05-03T13:35:00.759Z</time></trkpt><trkpt lat="44.3741437" lon="7.8483062"><ele>536.0</ele><time>2026-05-03T13:35:01.769Z</time></trkpt><trkpt lat="44.3740975" lon="7.8481478"><ele>533.75</ele><time>2026-05-03T13:35:02.754Z</time></trkpt><trkpt lat="44.3740775" lon="7.8479718"><ele>531.5</ele><time>2026-05-03T13:35:03.751Z</time></trkpt><trkpt lat="44.3740837" lon="7.8478011"><ele>529.25</ele><time>2026-05-03T13:35:04.754Z</time></trkpt><trkpt lat="44.3741204" lon="7.8476391"><ele>527.0</ele><time>2026-05-03T13:35:05.755Z</time></trkpt><trkpt lat="44.3741936" lon="7.8474941"><ele>525.5</ele><time>2026-05-03T13:35:06.752Z</time></trkpt><trkpt lat="44.374297" lon="7.8473693"><ele>524.0</ele><time>2026-05-03T13:35:07.751Z</time></trkpt><trkpt lat="44.3744239" lon="7.8472704"><ele>522.5</ele><time>2026-05-03T13:35:08.755Z</time></trkpt><trkpt lat="44.3745634" lon="7.8471851"><ele>521.0</ele><time>2026-05-03T13:35:09.748Z</time></trkpt><trkpt lat="44.3747138" lon="7.8470969"><ele>521.0</ele><time>2026-05-03T13:35:10.756Z</time></trkpt><trkpt lat="44.3748699" lon="7.8470024"><ele>521.0</ele><time>2026-05-03T13:35:11.761Z</time></trkpt><trkpt lat="44.3750242" lon="7.8469108"><ele>521.0</ele><time>2026-05-03T13:35:12.758Z</time></trkpt><trkpt lat="44.3751727" lon="7.8468245"><ele>519.3333333333333</ele><time>2026-05-03T13:35:13.75Z</time></trkpt><trkpt lat="44.3753196" lon="7.846742"><ele>517.6666666666666</ele><time>2026-05-03T13:35:14.751Z</time></trkpt><trkpt lat="44.3754605" lon="7.8466633"><ele>516.0</ele><time>2026-05-03T13:35:15.75Z</time></trkpt><trkpt lat="44.3755942" lon="7.8465851"><ele>516.0</ele><time>2026-05-03T13:35:16.791Z</time></trkpt><trkpt lat="44.3757254" lon="7.8465069"><ele>516.0</ele><time>2026-05-03T13:35:17.758Z</time></trkpt><trkpt lat="44.3758583" lon="7.8464265"><ele>516.0</ele><time>2026-05-03T13:35:18.753Z</time></trkpt><trkpt lat="44.3759937" lon="7.8463445"><ele>516.0</ele><time>2026-05-03T13:35:19.755Z</time></trkpt><trkpt lat="44.3761294" lon="7.8462621"><ele>516.0</ele><time>2026-05-03T13:35:20.751Z</time></trkpt><trkpt lat="44.3762624" lon="7.8461835"><ele>516.0</ele><time>2026-05-03T13:35:21.748Z</time></trkpt><trkpt lat="44.3763959" lon="7.8461031"><ele>516.0</ele><time>2026-05-03T13:35:22.752Z</time></trkpt><trkpt lat="44.3765306" lon="7.8460161"><ele>516.0</ele><time>2026-05-03T13:35:23.749Z</time></trkpt><trkpt lat="44.3766676" lon="7.8459217"><ele>513.3333333333334</ele><time>2026-05-03T13:35:24.75Z</time></trkpt><trkpt lat="44.3768057" lon="7.8458157"><ele>510.6666666666667</ele><time>2026-05-03T13:35:25.751Z</time></trkpt><trkpt lat="44.3769461" lon="7.8456961"><ele>508.0</ele><time>2026-05-03T13:35:26.75Z</time></trkpt><trkpt lat="44.3770868" lon="7.8455608"><ele>505.33333333333337</ele><time>2026-05-03T13:35:27.757Z</time></trkpt><trkpt lat="44.377222" lon="7.8454061"><ele>502.66666666666663</ele><time>2026-05-03T13:35:28.754Z</time></trkpt><trkpt lat="44.3773495" lon="7.8452355"><ele>500.0</ele><time>2026-05-03T13:35:29.755Z</time></trkpt><trkpt lat="44.3774595" lon="7.8450619"><ele>498.66666666666663</ele><time>2026-05-03T13:35:30.756Z</time></trkpt><trkpt lat="44.377553" lon="7.8448842"><ele>497.33333333333337</ele><time>2026-05-03T13:35:31.754Z</time></trkpt><trkpt lat="44.3776378" lon="7.844702"><ele>496.0</ele><time>2026-05-03T13:35:32.759Z</time></trkpt><trkpt lat="44.3777102" lon="7.8445232"><ele>496.0</ele><time>2026-05-03T13:35:33.759Z</time></trkpt><trkpt lat="44.3777714" lon="7.8443423"><ele>496.0</ele><time>2026-05-03T13:35:34.755Z</time></trkpt><trkpt lat="44.3778221" lon="7.8441591"><ele>496.0</ele><time>2026-05-03T13:35:35.753Z</time></trkpt><trkpt lat="44.3778688" lon="7.8439729"><ele>496.0</ele><time>2026-05-03T13:35:36.756Z</time></trkpt><trkpt lat="44.3779161" lon="7.8437858"><ele>495.25</ele><time>2026-05-03T13:35:37.75Z</time></trkpt><trkpt lat="44.3779646" lon="7.8435982"><ele>494.5</ele><time>2026-05-03T13:35:38.764Z</time></trkpt><trkpt lat="44.378012" lon="7.843409"><ele>493.75</ele><time>2026-05-03T13:35:39.757Z</time></trkpt><trkpt lat="44.3780583" lon="7.8432222"><ele>493.0</ele><time>2026-05-03T13:35:40.757Z</time></trkpt><trkpt lat="44.3781044" lon="7.843036"><ele>496.0</ele><time>2026-05-03T13:35:41.754Z</time></trkpt><trkpt lat="44.3781502" lon="7.8428486"><ele>499.0</ele><time>2026-05-03T13:35:42.75Z</time></trkpt><trkpt lat="44.3781968" lon="7.8426593"><ele>502.0</ele><time>2026-05-03T13:35:43.759Z</time></trkpt><trkpt lat="44.3782449" lon="7.8424671"><ele>505.0</ele><time>2026-05-03T13:35:44.759Z</time></trkpt><trkpt lat="44.3782938" lon="7.8422718"><ele>506.0</ele><time>2026-05-03T13:35:45.754Z</time></trkpt><trkpt lat="44.3783417" lon="7.8420825"><ele>507.0</ele><time>2026-05-03T13:35:46.757Z</time></trkpt><trkpt lat="44.3783861" lon="7.8419048"><ele>508.0</ele><time>2026-05-03T13:35:47.756Z</time></trkpt><trkpt lat="44.3784271" lon="7.8417401"><ele>509.0</ele><time>2026-05-03T13:35:48.758Z</time></trkpt><trkpt lat="44.3784657" lon="7.8415873"><ele>509.3333333333333</ele><time>2026-05-03T13:35:49.795Z</time></trkpt><trkpt lat="44.3785016" lon="7.8414461"><ele>509.66666666666663</ele><time>2026-05-03T13:35:50.75Z</time></trkpt><trkpt lat="44.3785313" lon="7.8413256"><ele>510.0</ele><time>2026-05-03T13:35:51.758Z</time></trkpt><trkpt lat="44.3785577" lon="7.8412302"><ele>510.33333333333337</ele><time>2026-05-03T13:35:52.756Z</time></trkpt><trkpt lat="44.3786153" lon="7.8411228"><ele>510.6666666666667</ele><time>2026-05-03T13:35:54.765Z</time></trkpt><trkpt lat="44.3786738" lon="7.8410555"><ele>511.0</ele><time>2026-05-03T13:35:56.757Z</time></trkpt><trkpt lat="44.3787025" lon="7.8409104"><ele>513.2</ele><time>2026-05-03T13:35:58.756Z</time></trkpt><trkpt lat="44.3787063" lon="7.8407993"><ele>515.4000000000001</ele><time>2026-05-03T13:35:59.755Z</time></trkpt><trkpt lat="44.3787189" lon="7.840666"><ele>517.6</ele><time>2026-05-03T13:36:00.754Z</time></trkpt><trkpt lat="44.3787453" lon="7.8405154"><ele>519.8000000000001</ele><time>2026-05-03T13:36:01.752Z</time></trkpt><trkpt lat="44.3787852" lon="7.840354"><ele>522.0</ele><time>2026-05-03T13:36:02.754Z</time></trkpt><trkpt lat="44.37884" lon="7.8401909"><ele>518.25</ele><time>2026-05-03T13:36:03.754Z</time></trkpt><trkpt lat="44.3789115" lon="7.8400298"><ele>514.5</ele><time>2026-05-03T13:36:04.753Z</time></trkpt><trkpt lat="44.3789969" lon="7.8398763"><ele>510.75</ele><time>2026-05-03T13:36:05.771Z</time></trkpt><trkpt lat="44.3790855" lon="7.8397393"><ele>507.0</ele><time>2026-05-03T13:36:06.758Z</time></trkpt><trkpt lat="44.3791785" lon="7.8396243"><ele>507.0</ele><time>2026-05-03T13:36:07.758Z</time></trkpt><trkpt lat="44.3792653" lon="7.8395181"><ele>507.0</ele><time>2026-05-03T13:36:08.756Z</time></trkpt><trkpt lat="44.3793527" lon="7.839406"><ele>507.0</ele><time>2026-05-03T13:36:09.757Z</time></trkpt><trkpt lat="44.37944" lon="7.8392905"><ele>507.0</ele><time>2026-05-03T13:36:10.755Z</time></trkpt><trkpt lat="44.3795323" lon="7.8391717"><ele>505.75</ele><time>2026-05-03T13:36:11.748Z</time></trkpt><trkpt lat="44.3796194" lon="7.839062"><ele>504.5</ele><time>2026-05-03T13:36:12.755Z</time></trkpt><trkpt lat="44.3797063" lon="7.83895"><ele>503.25</ele><time>2026-05-03T13:36:13.753Z</time></trkpt><trkpt lat="44.3797911" lon="7.8388333"><ele>502.0</ele><time>2026-05-03T13:36:14.751Z</time></trkpt><trkpt lat="44.3798807" lon="7.838709"><ele>502.25</ele><time>2026-05-03T13:36:15.76Z</time></trkpt><trkpt lat="44.379977" lon="7.8385854"><ele>502.5</ele><time>2026-05-03T13:36:16.751Z</time></trkpt><trkpt lat="44.3800779" lon="7.8384548"><ele>502.75</ele><time>2026-05-03T13:36:17.752Z</time></trkpt><trkpt lat="44.3801841" lon="7.8383225"><ele>503.0</ele><time>2026-05-03T13:36:18.755Z</time></trkpt><trkpt lat="44.3802876" lon="7.8381881"><ele>503.0</ele><time>2026-05-03T13:36:19.749Z</time></trkpt><trkpt lat="44.3803887" lon="7.8380565"><ele>503.0</ele><time>2026-05-03T13:36:20.754Z</time></trkpt><trkpt lat="44.3804871" lon="7.8379351"><ele>503.0</ele><time>2026-05-03T13:36:21.75Z</time></trkpt><trkpt lat="44.3805809" lon="7.8378271"><ele>503.0</ele><time>2026-05-03T13:36:22.749Z</time></trkpt><trkpt lat="44.3806743" lon="7.8377223"><ele>505.25</ele><time>2026-05-03T13:36:23.751Z</time></trkpt><trkpt lat="44.3807695" lon="7.8376188"><ele>507.5</ele><time>2026-05-03T13:36:24.753Z</time></trkpt><trkpt lat="44.3808669" lon="7.8375137"><ele>509.75</ele><time>2026-05-03T13:36:25.748Z</time></trkpt><trkpt lat="44.3809699" lon="7.8374065"><ele>512.0</ele><time>2026-05-03T13:36:26.763Z</time></trkpt><trkpt lat="44.3810752" lon="7.8372918"><ele>512.0</ele><time>2026-05-03T13:36:27.753Z</time></trkpt><trkpt lat="44.3811823" lon="7.8371699"><ele>512.0</ele><time>2026-05-03T13:36:28.746Z</time></trkpt><trkpt lat="44.3812879" lon="7.8370382"><ele>512.0</ele><time>2026-05-03T13:36:29.76Z</time></trkpt><trkpt lat="44.3813822" lon="7.8369049"><ele>512.0</ele><time>2026-05-03T13:36:30.761Z</time></trkpt><trkpt lat="44.3814687" lon="7.8367769"><ele>511.0</ele><time>2026-05-03T13:36:31.757Z</time></trkpt><trkpt lat="44.3815503" lon="7.8366559"><ele>510.0</ele><time>2026-05-03T13:36:32.762Z</time></trkpt><trkpt lat="44.3816304" lon="7.8365381"><ele>509.0</ele><time>2026-05-03T13:36:33.754Z</time></trkpt><trkpt lat="44.3817123" lon="7.8364157"><ele>508.0</ele><time>2026-05-03T13:36:34.751Z</time></trkpt><trkpt lat="44.3817964" lon="7.8362928"><ele>508.0</ele><time>2026-05-03T13:36:35.764Z</time></trkpt><trkpt lat="44.3818793" lon="7.8361742"><ele>508.0</ele><time>2026-05-03T13:36:36.751Z</time></trkpt><trkpt lat="44.3819632" lon="7.8360588"><ele>508.0</ele><time>2026-05-03T13:36:37.753Z</time></trkpt><trkpt lat="44.3820527" lon="7.8359433"><ele>508.0</ele><time>2026-05-03T13:36:38.759Z</time></trkpt><trkpt lat="44.3821534" lon="7.8358342"><ele>507.5</ele><time>2026-05-03T13:36:39.749Z</time></trkpt><trkpt lat="44.3822674" lon="7.8357378"><ele>507.0</ele><time>2026-05-03T13:36:40.755Z</time></trkpt><trkpt lat="44.3823944" lon="7.8356558"><ele>506.5</ele><time>2026-05-03T13:36:41.761Z</time></trkpt><trkpt lat="44.3825309" lon="7.8355815"><ele>506.0</ele><time>2026-05-03T13:36:42.75Z</time></trkpt><trkpt lat="44.3826669" lon="7.8355145"><ele>506.0</ele><time>2026-05-03T13:36:43.755Z</time></trkpt><trkpt lat="44.3827893" lon="7.8354576"><ele>506.0</ele><time>2026-05-03T13:36:44.754Z</time></trkpt><trkpt lat="44.3828948" lon="7.83541"><ele>506.0</ele><time>2026-05-03T13:36:45.755Z</time></trkpt><trkpt lat="44.3829899" lon="7.8353669"><ele>506.0</ele><time>2026-05-03T13:36:46.757Z</time></trkpt><trkpt lat="44.3830838" lon="7.8353237"><ele>506.0</ele><time>2026-05-03T13:36:47.751Z</time></trkpt><trkpt lat="44.3831731" lon="7.8352829"><ele>506.0</ele><time>2026-05-03T13:36:48.757Z</time></trkpt><trkpt lat="44.3832622" lon="7.8352421"><ele>506.0</ele><time>2026-05-03T13:36:49.758Z</time></trkpt><trkpt lat="44.3833579" lon="7.8351965"><ele>506.0</ele><time>2026-05-03T13:36:50.757Z</time></trkpt><trkpt lat="44.3834573" lon="7.8351473"><ele>506.0</ele><time>2026-05-03T13:36:51.756Z</time></trkpt><trkpt lat="44.3835582" lon="7.8350964"><ele>506.0</ele><time>2026-05-03T13:36:52.755Z</time></trkpt><trkpt lat="44.3836581" lon="7.8350433"><ele>506.4</ele><time>2026-05-03T13:36:53.757Z</time></trkpt><trkpt lat="44.383757" lon="7.8349871"><ele>506.8</ele><time>2026-05-03T13:36:54.758Z</time></trkpt><trkpt lat="44.3838539" lon="7.8349294"><ele>507.19999999999993</ele><time>2026-05-03T13:36:55.761Z</time></trkpt><trkpt lat="44.3839441" lon="7.8348694"><ele>507.59999999999997</ele><time>2026-05-03T13:36:56.756Z</time></trkpt><trkpt lat="44.3840286" lon="7.8348049"><ele>508.0</ele><time>2026-05-03T13:36:57.756Z</time></trkpt><trkpt lat="44.3841086" lon="7.8347339"><ele>508.4</ele><time>2026-05-03T13:36:58.766Z</time></trkpt><trkpt lat="44.384184" lon="7.8346556"><ele>508.79999999999995</ele><time>2026-05-03T13:36:59.761Z</time></trkpt><trkpt lat="44.3842576" lon="7.83457"><ele>509.2</ele><time>2026-05-03T13:37:00.751Z</time></trkpt><trkpt lat="44.3843331" lon="7.8344787"><ele>509.6</ele><time>2026-05-03T13:37:01.759Z</time></trkpt><trkpt lat="44.3844061" lon="7.8343799"><ele>510.0</ele><time>2026-05-03T13:37:02.751Z</time></trkpt><trkpt lat="44.3844764" lon="7.8342774"><ele>510.5</ele><time>2026-05-03T13:37:03.761Z</time></trkpt><trkpt lat="44.3845448" lon="7.8341775"><ele>511.0</ele><time>2026-05-03T13:37:04.754Z</time></trkpt><trkpt lat="44.3846104" lon="7.8340829"><ele>511.5</ele><time>2026-05-03T13:37:05.76Z</time></trkpt><trkpt lat="44.3846748" lon="7.8339941"><ele>512.0</ele><time>2026-05-03T13:37:06.755Z</time></trkpt><trkpt lat="44.3847352" lon="7.8339174"><ele>512.5</ele><time>2026-05-03T13:37:07.759Z</time></trkpt><trkpt lat="44.3847892" lon="7.8338502"><ele>513.0</ele><time>2026-05-03T13:37:08.762Z</time></trkpt><trkpt lat="44.384836" lon="7.8337823"><ele>513.8</ele><time>2026-05-03T13:37:09.751Z</time></trkpt><trkpt lat="44.384872" lon="7.8337058"><ele>514.5999999999999</ele><time>2026-05-03T13:37:10.756Z</time></trkpt><trkpt lat="44.3848729" lon="7.8335586"><ele>515.4000000000001</ele><time>2026-05-03T13:37:12.759Z</time></trkpt><trkpt lat="44.3847945" lon="7.8334062"><ele>516.2</ele><time>2026-05-03T13:37:14.756Z</time></trkpt><trkpt lat="44.3847425" lon="7.8333023"><ele>517.0</ele><time>2026-05-03T13:37:15.749Z</time></trkpt><trkpt lat="44.3847074" lon="7.8331547"><ele>515.25</ele><time>2026-05-03T13:37:16.755Z</time></trkpt><trkpt lat="44.38466" lon="7.8329962"><ele>513.5</ele><time>2026-05-03T13:37:17.757Z</time></trkpt><trkpt lat="44.3846193" lon="7.8328149"><ele>511.75</ele><time>2026-05-03T13:37:18.745Z</time></trkpt><trkpt lat="44.3845824" lon="7.8326262"><ele>510.0</ele><time>2026-05-03T13:37:19.754Z</time></trkpt><trkpt lat="44.3845443" lon="7.8324391"><ele>510.0</ele><time>2026-05-03T13:37:20.755Z</time></trkpt><trkpt lat="44.3845056" lon="7.8322718"><ele>510.0</ele><time>2026-05-03T13:37:21.758Z</time></trkpt><trkpt lat="44.3844706" lon="7.8321178"><ele>510.0</ele><time>2026-05-03T13:37:22.751Z</time></trkpt><trkpt lat="44.3844405" lon="7.8319757"><ele>510.0</ele><time>2026-05-03T13:37:23.749Z</time></trkpt><trkpt lat="44.3844138" lon="7.8318293"><ele>510.2</ele><time>2026-05-03T13:37:24.746Z</time></trkpt><trkpt lat="44.3843856" lon="7.8316934"><ele>510.4</ele><time>2026-05-03T13:37:25.751Z</time></trkpt><trkpt lat="44.3843608" lon="7.8315584"><ele>510.6</ele><time>2026-05-03T13:37:26.752Z</time></trkpt><trkpt lat="44.384335" lon="7.8314232"><ele>510.8</ele><time>2026-05-03T13:37:27.751Z</time></trkpt><trkpt lat="44.3843065" lon="7.8312859"><ele>511.0</ele><time>2026-05-03T13:37:28.747Z</time></trkpt><trkpt lat="44.384273" lon="7.8311516"><ele>511.0</ele><time>2026-05-03T13:37:29.75Z</time></trkpt><trkpt lat="44.3842363" lon="7.8310253"><ele>511.0</ele><time>2026-05-03T13:37:30.746Z</time></trkpt><trkpt lat="44.3842095" lon="7.8308818"><ele>511.0</ele><time>2026-05-03T13:37:31.747Z</time></trkpt><trkpt lat="44.3841821" lon="7.830739"><ele>511.0</ele><time>2026-05-03T13:37:32.746Z</time></trkpt><trkpt lat="44.3841523" lon="7.8306023"><ele>511.0</ele><time>2026-05-03T13:37:33.746Z</time></trkpt><trkpt lat="44.3841241" lon="7.8304636"><ele>510.75</ele><time>2026-05-03T13:37:34.744Z</time></trkpt><trkpt lat="44.3840918" lon="7.8303211"><ele>510.5</ele><time>2026-05-03T13:37:35.748Z</time></trkpt><trkpt lat="44.3840594" lon="7.830169"><ele>510.25</ele><time>2026-05-03T13:37:36.759Z</time></trkpt><trkpt lat="44.3840246" lon="7.8299937"><ele>510.0</ele><time>2026-05-03T13:37:37.745Z</time></trkpt><trkpt lat="44.3839892" lon="7.8298173"><ele>509.25</ele><time>2026-05-03T13:37:38.745Z</time></trkpt><trkpt lat="44.3839515" lon="7.82964"><ele>508.5</ele><time>2026-05-03T13:37:39.75Z</time></trkpt><trkpt lat="44.3839162" lon="7.8294675"><ele>507.75</ele><time>2026-05-03T13:37:40.751Z</time></trkpt><trkpt lat="44.3838798" lon="7.8292838"><ele>507.0</ele><time>2026-05-03T13:37:41.754Z</time></trkpt><trkpt lat="44.3838431" lon="7.8291017"><ele>504.0</ele><time>2026-05-03T13:37:42.752Z</time></trkpt><trkpt lat="44.3838008" lon="7.8289153"><ele>501.0</ele><time>2026-05-03T13:37:43.756Z</time></trkpt><trkpt lat="44.3837573" lon="7.8287236"><ele>498.0</ele><time>2026-05-03T13:37:44.752Z</time></trkpt><trkpt lat="44.383714" lon="7.8285324"><ele>495.0</ele><time>2026-05-03T13:37:45.759Z</time></trkpt><trkpt lat="44.3836721" lon="7.8283401"><ele>494.75</ele><time>2026-05-03T13:37:46.746Z</time></trkpt><trkpt lat="44.3836323" lon="7.8281543"><ele>494.5</ele><time>2026-05-03T13:37:47.745Z</time></trkpt><trkpt lat="44.3835955" lon="7.8279737"><ele>494.25</ele><time>2026-05-03T13:37:48.756Z</time></trkpt><trkpt lat="44.38356" lon="7.8277998"><ele>494.0</ele><time>2026-05-03T13:37:49.754Z</time></trkpt><trkpt lat="44.3835239" lon="7.8276262"><ele>493.0</ele><time>2026-05-03T13:37:50.75Z</time></trkpt><trkpt lat="44.3834841" lon="7.82745"><ele>492.0</ele><time>2026-05-03T13:37:51.76Z</time></trkpt><trkpt lat="44.3834454" lon="7.8272693"><ele>491.0</ele><time>2026-05-03T13:37:52.749Z</time></trkpt><trkpt lat="44.3834065" lon="7.8270862"><ele>490.0</ele><time>2026-05-03T13:37:53.746Z</time></trkpt><trkpt lat="44.3833655" lon="7.826897"><ele>489.75</ele><time>2026-05-03T13:37:54.743Z</time></trkpt><trkpt lat="44.3833227" lon="7.8267055"><ele>489.5</ele><time>2026-05-03T13:37:55.748Z</time></trkpt><trkpt lat="44.3832798" lon="7.8265125"><ele>489.25</ele><time>2026-05-03T13:37:56.746Z</time></trkpt><trkpt lat="44.3832395" lon="7.8263199"><ele>489.0</ele><time>2026-05-03T13:37:57.758Z</time></trkpt><trkpt lat="44.3832018" lon="7.8261343"><ele>488.25</ele><time>2026-05-03T13:37:58.745Z</time></trkpt><trkpt lat="44.3831698" lon="7.8259543"><ele>487.5</ele><time>2026-05-03T13:37:59.753Z</time></trkpt><trkpt lat="44.3831415" lon="7.8257744"><ele>486.75</ele><time>2026-05-03T13:38:00.761Z</time></trkpt><trkpt lat="44.3831216" lon="7.8255924"><ele>486.0</ele><time>2026-05-03T13:38:01.749Z</time></trkpt><trkpt lat="44.3831019" lon="7.8254107"><ele>486.0</ele><time>2026-05-03T13:38:02.756Z</time></trkpt><trkpt lat="44.3830889" lon="7.8252327"><ele>486.0</ele><time>2026-05-03T13:38:03.746Z</time></trkpt><trkpt lat="44.3830765" lon="7.8250612"><ele>486.0</ele><time>2026-05-03T13:38:04.755Z</time></trkpt><trkpt lat="44.3830724" lon="7.8248945"><ele>486.0</ele><time>2026-05-03T13:38:05.757Z</time></trkpt><trkpt lat="44.3830897" lon="7.8247427"><ele>485.4</ele><time>2026-05-03T13:38:06.762Z</time></trkpt><trkpt lat="44.3831293" lon="7.8246063"><ele>484.8</ele><time>2026-05-03T13:38:07.756Z</time></trkpt><trkpt lat="44.3831925" lon="7.8244884"><ele>484.19999999999993</ele><time>2026-05-03T13:38:08.757Z</time></trkpt><trkpt lat="44.3832835" lon="7.8243935"><ele>483.59999999999997</ele><time>2026-05-03T13:38:09.752Z</time></trkpt><trkpt lat="44.3833939" lon="7.8243344"><ele>483.0</ele><time>2026-05-03T13:38:10.754Z</time></trkpt><trkpt lat="44.3835199" lon="7.8243097"><ele>484.75</ele><time>2026-05-03T13:38:11.766Z</time></trkpt><trkpt lat="44.3836541" lon="7.8243062"><ele>486.5</ele><time>2026-05-03T13:38:12.755Z</time></trkpt><trkpt lat="44.383789" lon="7.8243098"><ele>488.25</ele><time>2026-05-03T13:38:13.753Z</time></trkpt><trkpt lat="44.383922" lon="7.824315"><ele>490.0</ele><time>2026-05-03T13:38:14.753Z</time></trkpt><trkpt lat="44.3840514" lon="7.8243201"><ele>490.0</ele><time>2026-05-03T13:38:15.759Z</time></trkpt><trkpt lat="44.3841782" lon="7.8243209"><ele>490.0</ele><time>2026-05-03T13:38:16.759Z</time></trkpt><trkpt lat="44.3843066" lon="7.8243148"><ele>490.0</ele><time>2026-05-03T13:38:17.751Z</time></trkpt><trkpt lat="44.3844379" lon="7.8242941"><ele>490.0</ele><time>2026-05-03T13:38:18.752Z</time></trkpt><trkpt lat="44.3845717" lon="7.8242546"><ele>484.75</ele><time>2026-05-03T13:38:19.751Z</time></trkpt><trkpt lat="44.3847029" lon="7.8242005"><ele>479.5</ele><time>2026-05-03T13:38:20.749Z</time></trkpt><trkpt lat="44.3848281" lon="7.8241381"><ele>474.25</ele><time>2026-05-03T13:38:21.755Z</time></trkpt><trkpt lat="44.3849496" lon="7.8240743"><ele>469.0</ele><time>2026-05-03T13:38:22.758Z</time></trkpt><trkpt lat="44.3850692" lon="7.8240137"><ele>469.0</ele><time>2026-05-03T13:38:23.751Z</time></trkpt><trkpt lat="44.3851888" lon="7.8239607"><ele>469.0</ele><time>2026-05-03T13:38:24.757Z</time></trkpt><trkpt lat="44.3853152" lon="7.8239202"><ele>469.0</ele><time>2026-05-03T13:38:25.749Z</time></trkpt><trkpt lat="44.3854543" lon="7.823894"><ele>469.0</ele><time>2026-05-03T13:38:26.756Z</time></trkpt><trkpt lat="44.3856034" lon="7.8238783"><ele>467.75</ele><time>2026-05-03T13:38:27.745Z</time></trkpt><trkpt lat="44.3857568" lon="7.8238667"><ele>466.5</ele><time>2026-05-03T13:38:28.756Z</time></trkpt><trkpt lat="44.3859059" lon="7.8238571"><ele>465.25</ele><time>2026-05-03T13:38:29.747Z</time></trkpt><trkpt lat="44.3860499" lon="7.8238482"><ele>464.0</ele><time>2026-05-03T13:38:30.754Z</time></trkpt><trkpt lat="44.386189" lon="7.8238391"><ele>464.0</ele><time>2026-05-03T13:38:31.752Z</time></trkpt><trkpt lat="44.3863242" lon="7.8238308"><ele>464.0</ele><time>2026-05-03T13:38:32.75Z</time></trkpt><trkpt lat="44.386455" lon="7.8238231"><ele>464.0</ele><time>2026-05-03T13:38:33.759Z</time></trkpt><trkpt lat="44.3865798" lon="7.823812"><ele>464.0</ele><time>2026-05-03T13:38:34.752Z</time></trkpt><trkpt lat="44.3867018" lon="7.8238029"><ele>463.4</ele><time>2026-05-03T13:38:35.748Z</time></trkpt><trkpt lat="44.3868157" lon="7.8237964"><ele>462.79999999999995</ele><time>2026-05-03T13:38:36.752Z</time></trkpt><trkpt lat="44.3869224" lon="7.8237921"><ele>462.20000000000005</ele><time>2026-05-03T13:38:37.748Z</time></trkpt><trkpt lat="44.3870193" lon="7.823788"><ele>461.6</ele><time>2026-05-03T13:38:38.758Z</time></trkpt><trkpt lat="44.3871046" lon="7.8237819"><ele>461.0</ele><time>2026-05-03T13:38:39.753Z</time></trkpt><trkpt lat="44.3871767" lon="7.8237652"><ele>461.0</ele><time>2026-05-03T13:38:40.748Z</time></trkpt><trkpt lat="44.3872564" lon="7.8236719"><ele>461.0</ele><time>2026-05-03T13:38:42.749Z</time></trkpt><trkpt lat="44.3872174" lon="7.823561"><ele>461.0</ele><time>2026-05-03T13:38:44.761Z</time></trkpt><trkpt lat="44.3871634" lon="7.8234983"><ele>461.0</ele><time>2026-05-03T13:38:45.75Z</time></trkpt><trkpt lat="44.3870879" lon="7.8234322"><ele>461.0</ele><time>2026-05-03T13:38:46.754Z</time></trkpt><trkpt lat="44.386988" lon="7.8233709"><ele>456.5</ele><time>2026-05-03T13:38:47.749Z</time></trkpt><trkpt lat="44.3868648" lon="7.8233283"><ele>452.0</ele><time>2026-05-03T13:38:48.75Z</time></trkpt><trkpt lat="44.386728" lon="7.8233134"><ele>447.5</ele><time>2026-05-03T13:38:49.75Z</time></trkpt><trkpt lat="44.3865877" lon="7.8233118"><ele>443.0</ele><time>2026-05-03T13:38:50.752Z</time></trkpt><trkpt lat="44.3864531" lon="7.8233151"><ele>442.79999999999995</ele><time>2026-05-03T13:38:51.747Z</time></trkpt><trkpt lat="44.38633" lon="7.8233174"><ele>442.59999999999997</ele><time>2026-05-03T13:38:52.753Z</time></trkpt><trkpt lat="44.3862166" lon="7.8233187"><ele>442.40000000000003</ele><time>2026-05-03T13:38:53.75Z</time></trkpt><trkpt lat="44.3861201" lon="7.8233254"><ele>442.20000000000005</ele><time>2026-05-03T13:38:54.745Z</time></trkpt><trkpt lat="44.3860389" lon="7.8233286"><ele>442.0</ele><time>2026-05-03T13:38:55.751Z</time></trkpt><trkpt lat="44.3859748" lon="7.8233247"><ele>442.0</ele><time>2026-05-03T13:38:56.749Z</time></trkpt><trkpt lat="44.3859142" lon="7.8232674"><ele>442.00000000000006</ele><time>2026-05-03T13:38:58.758Z</time></trkpt><trkpt lat="44.3859825" lon="7.8231365"><ele>442.00000000000006</ele><time>2026-05-03T13:39:00.759Z</time></trkpt><trkpt lat="44.386049" lon="7.8230641"><ele>442.0</ele><time>2026-05-03T13:39:01.753Z</time></trkpt><trkpt lat="44.386133" lon="7.8229828"><ele>442.0</ele><time>2026-05-03T13:39:02.747Z</time></trkpt><trkpt lat="44.3862238" lon="7.8229064"><ele>442.0</ele><time>2026-05-03T13:39:03.749Z</time></trkpt><trkpt lat="44.3863193" lon="7.8228244"><ele>442.0</ele><time>2026-05-03T13:39:04.752Z</time></trkpt><trkpt lat="44.3864237" lon="7.82274"><ele>442.0</ele><time>2026-05-03T13:39:05.751Z</time></trkpt><trkpt lat="44.386531" lon="7.8226512"><ele>442.0</ele><time>2026-05-03T13:39:06.762Z</time></trkpt><trkpt lat="44.3866294" lon="7.822569"><ele>438.0</ele><time>2026-05-03T13:39:07.754Z</time></trkpt><trkpt lat="44.3867232" lon="7.8224911"><ele>434.0</ele><time>2026-05-03T13:39:08.751Z</time></trkpt><trkpt lat="44.3868203" lon="7.8224102"><ele>430.0</ele><time>2026-05-03T13:39:09.749Z</time></trkpt><trkpt lat="44.3869245" lon="7.822326"><ele>426.0</ele><time>2026-05-03T13:39:10.746Z</time></trkpt><trkpt lat="44.3870308" lon="7.822243"><ele>426.0</ele><time>2026-05-03T13:39:11.752Z</time></trkpt><trkpt lat="44.387132" lon="7.8221638"><ele>426.0</ele><time>2026-05-03T13:39:12.752Z</time></trkpt><trkpt lat="44.3872203" lon="7.8220951"><ele>426.0</ele><time>2026-05-03T13:39:13.747Z</time></trkpt><trkpt lat="44.3872903" lon="7.8220426"><ele>426.0</ele><time>2026-05-03T13:39:14.76Z</time></trkpt><trkpt lat="44.3873503" lon="7.8220024"><ele>426.0</ele><time>2026-05-03T13:39:15.76Z</time></trkpt><trkpt lat="44.3874478" lon="7.8219396"><ele>426.0</ele><time>2026-05-03T13:39:17.753Z</time></trkpt><trkpt lat="44.3874752" lon="7.8218376"><ele>426.0</ele><time>2026-05-03T13:39:19.752Z</time></trkpt><trkpt lat="44.3873955" lon="7.8217877"><ele>426.0</ele><time>2026-05-03T13:39:21.754Z</time></trkpt><trkpt lat="44.3873245" lon="7.8218114"><ele>426.0</ele><time>2026-05-03T13:39:22.751Z</time></trkpt><trkpt lat="44.387234" lon="7.8218537"><ele>426.0</ele><time>2026-05-03T13:39:23.74Z</time></trkpt><trkpt lat="44.3871262" lon="7.8218986"><ele>426.0</ele><time>2026-05-03T13:39:24.751Z</time></trkpt><trkpt lat="44.387015" lon="7.8219367"><ele>426.0</ele><time>2026-05-03T13:39:25.746Z</time></trkpt><trkpt lat="44.3869102" lon="7.8219645"><ele>426.0</ele><time>2026-05-03T13:39:26.746Z</time></trkpt><trkpt lat="44.386816" lon="7.8219832"><ele>426.0</ele><time>2026-05-03T13:39:27.754Z</time></trkpt><trkpt lat="44.3867314" lon="7.8219894"><ele>426.0</ele><time>2026-05-03T13:39:28.756Z</time></trkpt><trkpt lat="44.3866577" lon="7.8219812"><ele>426.0</ele><time>2026-05-03T13:39:29.748Z</time></trkpt><trkpt lat="44.3865568" lon="7.8219695"><ele>426.0</ele><time>2026-05-03T13:39:31.748Z</time></trkpt><trkpt lat="44.3864959" lon="7.8218879"><ele>426.0</ele><time>2026-05-03T13:39:35.75Z</time></trkpt><trkpt lat="44.3865047" lon="7.8217908"><ele>426.0</ele><time>2026-05-03T13:39:36.741Z</time></trkpt><trkpt lat="44.386503" lon="7.8216427"><ele>426.0</ele><time>2026-05-03T13:39:38.75Z</time></trkpt><trkpt lat="44.3864943" lon="7.8215191"><ele>426.0</ele><time>2026-05-03T13:39:41.759Z</time></trkpt><trkpt lat="44.3863838" lon="7.8214768"><ele>422.0</ele><time>2026-05-03T13:39:43.75Z</time></trkpt><trkpt lat="44.386299" lon="7.8214977"><ele>418.0</ele><time>2026-05-03T13:39:44.76Z</time></trkpt><trkpt lat="44.3862069" lon="7.8215349"><ele>414.0</ele><time>2026-05-03T13:39:45.75Z</time></trkpt><trkpt lat="44.3861129" lon="7.8215727"><ele>410.0</ele><time>2026-05-03T13:39:46.746Z</time></trkpt><trkpt lat="44.386032" lon="7.8215961"><ele>406.0</ele><time>2026-05-03T13:39:47.745Z</time></trkpt><trkpt lat="44.3859414" lon="7.8215786"><ele>406.00000000000006</ele><time>2026-05-03T13:39:49.75Z</time></trkpt><trkpt lat="44.3859202" lon="7.8214888"><ele>406.0</ele><time>2026-05-03T13:39:50.749Z</time></trkpt><trkpt lat="44.3859224" lon="7.8213746"><ele>406.0</ele><time>2026-05-03T13:39:51.747Z</time></trkpt><trkpt lat="44.3859194" lon="7.8212516"><ele>406.0</ele><time>2026-05-03T13:39:52.754Z</time></trkpt><trkpt lat="44.385946" lon="7.8211363"><ele>406.00000000000006</ele><time>2026-05-03T13:39:53.744Z</time></trkpt><trkpt lat="44.3859717" lon="7.8210228"><ele>406.0</ele><time>2026-05-03T13:39:54.744Z</time></trkpt><trkpt lat="44.3859961" lon="7.8209132"><ele>404.6666666666667</ele><time>2026-05-03T13:39:55.744Z</time></trkpt><trkpt lat="44.3860234" lon="7.8208023"><ele>403.33333333333337</ele><time>2026-05-03T13:39:56.744Z</time></trkpt><trkpt lat="44.386055" lon="7.820693"><ele>402.0</ele><time>2026-05-03T13:39:57.747Z</time></trkpt><trkpt lat="44.3860909" lon="7.8205909"><ele>400.66666666666663</ele><time>2026-05-03T13:39:58.748Z</time></trkpt><trkpt lat="44.3861274" lon="7.8205012"><ele>399.3333333333333</ele><time>2026-05-03T13:39:59.742Z</time></trkpt><trkpt lat="44.3861676" lon="7.820426"><ele>398.0</ele><time>2026-05-03T13:40:00.752Z</time></trkpt><trkpt lat="44.3862352" lon="7.8202945"><ele>398.0</ele><time>2026-05-03T13:40:02.75Z</time></trkpt><trkpt lat="44.386237" lon="7.8201751"><ele>398.0</ele><time>2026-05-03T13:40:04.752Z</time></trkpt><trkpt lat="44.3861257" lon="7.8200616"><ele>398.0</ele><time>2026-05-03T13:40:06.762Z</time></trkpt><trkpt lat="44.3860505" lon="7.8199986"><ele>398.0</ele><time>2026-05-03T13:40:07.753Z</time></trkpt><trkpt lat="44.3859736" lon="7.8199278"><ele>398.0</ele><time>2026-05-03T13:40:08.759Z</time></trkpt><trkpt lat="44.3858996" lon="7.8198564"><ele>398.16666666666663</ele><time>2026-05-03T13:40:09.759Z</time></trkpt><trkpt lat="44.3858363" lon="7.8197938"><ele>398.3333333333333</ele><time>2026-05-03T13:40:10.748Z</time></trkpt><trkpt lat="44.3857772" lon="7.8197411"><ele>398.5</ele><time>2026-05-03T13:40:11.755Z</time></trkpt><trkpt lat="44.3857176" lon="7.8197089"><ele>398.66666666666663</ele><time>2026-05-03T13:40:12.754Z</time></trkpt><trkpt lat="44.3856501" lon="7.8197162"><ele>398.8333333333333</ele><time>2026-05-03T13:40:13.753Z</time></trkpt><trkpt lat="44.385579" lon="7.8197631"><ele>399.0</ele><time>2026-05-03T13:40:14.751Z</time></trkpt><trkpt lat="44.3855003" lon="7.8198366"><ele>399.6</ele><time>2026-05-03T13:40:15.765Z</time></trkpt><trkpt lat="44.3854087" lon="7.8199138"><ele>400.2</ele><time>2026-05-03T13:40:16.754Z</time></trkpt><trkpt lat="44.3853031" lon="7.819987"><ele>400.8</ele><time>2026-05-03T13:40:17.759Z</time></trkpt><trkpt lat="44.3851915" lon="7.8200496"><ele>401.40000000000003</ele><time>2026-05-03T13:40:18.747Z</time></trkpt><trkpt lat="44.3850921" lon="7.8200907"><ele>402.0</ele><time>2026-05-03T13:40:19.754Z</time></trkpt><trkpt lat="44.3850024" lon="7.8201132"><ele>402.0</ele><time>2026-05-03T13:40:20.748Z</time></trkpt><trkpt lat="44.3849159" lon="7.8201125"><ele>402.0</ele><time>2026-05-03T13:40:21.753Z</time></trkpt><trkpt lat="44.3848403" lon="7.8200766"><ele>402.0</ele><time>2026-05-03T13:40:22.746Z</time></trkpt><trkpt lat="44.3847832" lon="7.820025"><ele>402.0</ele><time>2026-05-03T13:40:23.758Z</time></trkpt><trkpt lat="44.3847168" lon="7.8199405"><ele>402.0</ele><time>2026-05-03T13:40:25.766Z</time></trkpt><trkpt lat="44.3847183" lon="7.819779"><ele>402.0</ele><time>2026-05-03T13:40:27.756Z</time></trkpt><trkpt lat="44.3847483" lon="7.8196505"><ele>402.0</ele><time>2026-05-03T13:40:28.754Z</time></trkpt><trkpt lat="44.3847822" lon="7.8194926"><ele>402.0</ele><time>2026-05-03T13:40:29.758Z</time></trkpt><trkpt lat="44.3848232" lon="7.8193149"><ele>402.0</ele><time>2026-05-03T13:40:30.754Z</time></trkpt><trkpt lat="44.3848583" lon="7.8191054"><ele>402.0</ele><time>2026-05-03T13:40:31.747Z</time></trkpt><trkpt lat="44.3848914" lon="7.8189075"><ele>403.25</ele><time>2026-05-03T13:40:32.754Z</time></trkpt><trkpt lat="44.3849204" lon="7.8187268"><ele>404.5</ele><time>2026-05-03T13:40:33.752Z</time></trkpt><trkpt lat="44.3849487" lon="7.8185514"><ele>405.75</ele><time>2026-05-03T13:40:34.754Z</time></trkpt><trkpt lat="44.384974" lon="7.8183782"><ele>407.0</ele><time>2026-05-03T13:40:35.755Z</time></trkpt><trkpt lat="44.3849991" lon="7.8182057"><ele>407.5</ele><time>2026-05-03T13:40:36.756Z</time></trkpt><trkpt lat="44.3850264" lon="7.8180376"><ele>408.0</ele><time>2026-05-03T13:40:37.754Z</time></trkpt><trkpt lat="44.3850599" lon="7.8178678"><ele>408.5</ele><time>2026-05-03T13:40:38.751Z</time></trkpt><trkpt lat="44.3851001" lon="7.8176996"><ele>409.0</ele><time>2026-05-03T13:40:39.762Z</time></trkpt><trkpt lat="44.3851513" lon="7.817534"><ele>410.0</ele><time>2026-05-03T13:40:40.755Z</time></trkpt><trkpt lat="44.3852155" lon="7.8173745"><ele>411.0</ele><time>2026-05-03T13:40:41.753Z</time></trkpt><trkpt lat="44.3852814" lon="7.817234"><ele>412.0</ele><time>2026-05-03T13:40:42.752Z</time></trkpt><trkpt lat="44.3853431" lon="7.8171151"><ele>413.0</ele><time>2026-05-03T13:40:43.759Z</time></trkpt><trkpt lat="44.3853938" lon="7.817016"><ele>414.0</ele><time>2026-05-03T13:40:44.754Z</time></trkpt><trkpt lat="44.3854346" lon="7.8169392"><ele>414.0</ele><time>2026-05-03T13:40:45.755Z</time></trkpt><trkpt lat="44.3854953" lon="7.8168247"><ele>414.0</ele><time>2026-05-03T13:40:47.755Z</time></trkpt><trkpt lat="44.385541" lon="7.8167455"><ele>414.0</ele><time>2026-05-03T13:40:50.756Z</time></trkpt><trkpt lat="44.3856076" lon="7.8166801"><ele>414.0</ele><time>2026-05-03T13:41:05.749Z</time></trkpt><trkpt lat="44.3857178" lon="7.8165856"><ele>414.0</ele><time>2026-05-03T13:41:07.775Z</time></trkpt><trkpt lat="44.3857932" lon="7.8165476"><ele>413.79999999999995</ele><time>2026-05-03T13:41:08.76Z</time></trkpt><trkpt lat="44.3858794" lon="7.8165256"><ele>413.59999999999997</ele><time>2026-05-03T13:41:09.755Z</time></trkpt><trkpt lat="44.3859713" lon="7.8165145"><ele>413.4</ele><time>2026-05-03T13:41:10.758Z</time></trkpt><trkpt lat="44.3860786" lon="7.8165087"><ele>413.2</ele><time>2026-05-03T13:41:11.757Z</time></trkpt><trkpt lat="44.3861963" lon="7.8165045"><ele>413.0</ele><time>2026-05-03T13:41:12.758Z</time></trkpt><trkpt lat="44.3863237" lon="7.8165018"><ele>412.25</ele><time>2026-05-03T13:41:13.757Z</time></trkpt><trkpt lat="44.3864565" lon="7.816509"><ele>411.5</ele><time>2026-05-03T13:41:14.766Z</time></trkpt><trkpt lat="44.3865837" lon="7.8165282"><ele>410.75</ele><time>2026-05-03T13:41:15.76Z</time></trkpt><trkpt lat="44.3867073" lon="7.816559"><ele>410.0</ele><time>2026-05-03T13:41:16.763Z</time></trkpt><trkpt lat="44.3868319" lon="7.8166015"><ele>410.0</ele><time>2026-05-03T13:41:17.772Z</time></trkpt><trkpt lat="44.3869583" lon="7.8166615"><ele>410.0</ele><time>2026-05-03T13:41:18.754Z</time></trkpt><trkpt lat="44.3870831" lon="7.8167202"><ele>410.0</ele><time>2026-05-03T13:41:19.757Z</time></trkpt><trkpt lat="44.3872109" lon="7.8168007"><ele>410.0</ele><time>2026-05-03T13:41:20.749Z</time></trkpt><trkpt lat="44.387337" lon="7.8168802"><ele>408.25</ele><time>2026-05-03T13:41:21.761Z</time></trkpt><trkpt lat="44.3874546" lon="7.8169508"><ele>406.5</ele><time>2026-05-03T13:41:22.759Z</time></trkpt><trkpt lat="44.3875695" lon="7.8170174"><ele>404.75</ele><time>2026-05-03T13:41:23.757Z</time></trkpt><trkpt lat="44.3876886" lon="7.8170898"><ele>403.0</ele><time>2026-05-03T13:41:24.763Z</time></trkpt><trkpt lat="44.3878078" lon="7.8171603"><ele>403.0</ele><time>2026-05-03T13:41:25.759Z</time></trkpt><trkpt lat="44.3879323" lon="7.8172374"><ele>403.0</ele><time>2026-05-03T13:41:26.75Z</time></trkpt><trkpt lat="44.3880669" lon="7.8173268"><ele>403.0</ele><time>2026-05-03T13:41:27.756Z</time></trkpt><trkpt lat="44.3882037" lon="7.817414"><ele>403.0</ele><time>2026-05-03T13:41:28.754Z</time></trkpt><trkpt lat="44.3883418" lon="7.8174973"><ele>402.33333333333337</ele><time>2026-05-03T13:41:29.757Z</time></trkpt><trkpt lat="44.3884768" lon="7.817578"><ele>401.66666666666663</ele><time>2026-05-03T13:41:30.75Z</time></trkpt><trkpt lat="44.3886173" lon="7.8176625"><ele>401.0</ele><time>2026-05-03T13:41:31.765Z</time></trkpt><trkpt lat="44.3887598" lon="7.8177512"><ele>399.3333333333333</ele><time>2026-05-03T13:41:32.76Z</time></trkpt><trkpt lat="44.3889008" lon="7.8178376"><ele>397.66666666666663</ele><time>2026-05-03T13:41:33.753Z</time></trkpt><trkpt lat="44.3890494" lon="7.8179242"><ele>396.0</ele><time>2026-05-03T13:41:34.762Z</time></trkpt><trkpt lat="44.3891951" lon="7.818008"><ele>396.0</ele><time>2026-05-03T13:41:35.804Z</time></trkpt><trkpt lat="44.3893511" lon="7.8180899"><ele>396.0</ele><time>2026-05-03T13:41:36.766Z</time></trkpt><trkpt lat="44.3894901" lon="7.8181422"><ele>396.0</ele><time>2026-05-03T13:41:37.807Z</time></trkpt><trkpt lat="44.3896204" lon="7.8181658"><ele>396.0</ele><time>2026-05-03T13:41:38.751Z</time></trkpt><trkpt lat="44.3897596" lon="7.818179"><ele>397.66666666666663</ele><time>2026-05-03T13:41:39.748Z</time></trkpt><trkpt lat="44.3899093" lon="7.818225"><ele>399.3333333333333</ele><time>2026-05-03T13:41:40.753Z</time></trkpt><trkpt lat="44.3900598" lon="7.8182782"><ele>401.0</ele><time>2026-05-03T13:41:41.754Z</time></trkpt><trkpt lat="44.3902038" lon="7.8183297"><ele>401.0</ele><time>2026-05-03T13:41:42.753Z</time></trkpt><trkpt lat="44.3903483" lon="7.8183787"><ele>401.0</ele><time>2026-05-03T13:41:43.759Z</time></trkpt><trkpt lat="44.3904941" lon="7.8184233"><ele>401.0</ele><time>2026-05-03T13:41:44.759Z</time></trkpt><trkpt lat="44.3906365" lon="7.818465"><ele>401.0</ele><time>2026-05-03T13:41:45.755Z</time></trkpt><trkpt lat="44.3907657" lon="7.8184992"><ele>398.75</ele><time>2026-05-03T13:41:46.762Z</time></trkpt><trkpt lat="44.3908958" lon="7.8185437"><ele>396.5</ele><time>2026-05-03T13:41:47.801Z</time></trkpt><trkpt lat="44.3910167" lon="7.8185811"><ele>394.25</ele><time>2026-05-03T13:41:48.756Z</time></trkpt><trkpt lat="44.3911251" lon="7.8186124"><ele>392.0</ele><time>2026-05-03T13:41:49.768Z</time></trkpt><trkpt lat="44.3912154" lon="7.8186481"><ele>392.0</ele><time>2026-05-03T13:41:50.755Z</time></trkpt><trkpt lat="44.3912763" lon="7.8186722"><ele>392.0</ele><time>2026-05-03T13:41:51.745Z</time></trkpt><trkpt lat="44.3913905" lon="7.8187402"><ele>392.0</ele><time>2026-05-03T13:41:53.748Z</time></trkpt><trkpt lat="44.391451" lon="7.8187918"><ele>392.0</ele><time>2026-05-03T13:41:54.755Z</time></trkpt><trkpt lat="44.3915799" lon="7.8187825"><ele>392.0</ele><time>2026-05-03T13:41:56.753Z</time></trkpt><trkpt lat="44.3916496" lon="7.8187228"><ele>391.8</ele><time>2026-05-03T13:41:57.788Z</time></trkpt><trkpt lat="44.3917177" lon="7.8186386"><ele>391.6</ele><time>2026-05-03T13:41:58.752Z</time></trkpt><trkpt lat="44.3917956" lon="7.8185564"><ele>391.40000000000003</ele><time>2026-05-03T13:41:59.76Z</time></trkpt><trkpt lat="44.3918812" lon="7.8184829"><ele>391.20000000000005</ele><time>2026-05-03T13:42:00.749Z</time></trkpt><trkpt lat="44.3919714" lon="7.8184189"><ele>391.0</ele><time>2026-05-03T13:42:01.755Z</time></trkpt><trkpt lat="44.392068" lon="7.818367"><ele>393.8</ele><time>2026-05-03T13:42:02.766Z</time></trkpt><trkpt lat="44.3921675" lon="7.8183194"><ele>396.6</ele><time>2026-05-03T13:42:03.748Z</time></trkpt><trkpt lat="44.3922631" lon="7.818287"><ele>399.4</ele><time>2026-05-03T13:42:04.764Z</time></trkpt><trkpt lat="44.3923759" lon="7.8182865"><ele>402.2</ele><time>2026-05-03T13:42:05.746Z</time></trkpt><trkpt lat="44.3925002" lon="7.8183232"><ele>405.0</ele><time>2026-05-03T13:42:06.757Z</time></trkpt><trkpt lat="44.392628" lon="7.8183702"><ele>404.75</ele><time>2026-05-03T13:42:07.75Z</time></trkpt><trkpt lat="44.3927444" lon="7.8184446"><ele>404.5</ele><time>2026-05-03T13:42:08.752Z</time></trkpt><trkpt lat="44.3928511" lon="7.8185385"><ele>404.25</ele><time>2026-05-03T13:42:09.751Z</time></trkpt><trkpt lat="44.392964" lon="7.8186518"><ele>404.0</ele><time>2026-05-03T13:42:10.771Z</time></trkpt><trkpt lat="44.3930748" lon="7.818785"><ele>404.0</ele><time>2026-05-03T13:42:11.747Z</time></trkpt><trkpt lat="44.3931844" lon="7.8189102"><ele>404.0</ele><time>2026-05-03T13:42:12.767Z</time></trkpt><trkpt lat="44.3932874" lon="7.8190429"><ele>404.0</ele><time>2026-05-03T13:42:13.756Z</time></trkpt><trkpt lat="44.3933791" lon="7.8191871"><ele>404.0</ele><time>2026-05-03T13:42:14.757Z</time></trkpt><trkpt lat="44.3934622" lon="7.8193468"><ele>400.75</ele><time>2026-05-03T13:42:15.75Z</time></trkpt><trkpt lat="44.3935202" lon="7.8195231"><ele>397.5</ele><time>2026-05-03T13:42:16.746Z</time></trkpt><trkpt lat="44.3935699" lon="7.8197102"><ele>394.25</ele><time>2026-05-03T13:42:17.751Z</time></trkpt><trkpt lat="44.3936253" lon="7.8199027"><ele>391.0</ele><time>2026-05-03T13:42:18.756Z</time></trkpt><trkpt lat="44.3936944" lon="7.8200841"><ele>390.25</ele><time>2026-05-03T13:42:19.757Z</time></trkpt><trkpt lat="44.3937833" lon="7.8202503"><ele>389.5</ele><time>2026-05-03T13:42:20.756Z</time></trkpt><trkpt lat="44.3938862" lon="7.8203986"><ele>388.75</ele><time>2026-05-03T13:42:21.752Z</time></trkpt><trkpt lat="44.3939978" lon="7.8205281"><ele>388.0</ele><time>2026-05-03T13:42:22.752Z</time></trkpt><trkpt lat="44.394106" lon="7.8206421"><ele>391.25</ele><time>2026-05-03T13:42:23.756Z</time></trkpt><trkpt lat="44.3942173" lon="7.8207482"><ele>394.5</ele><time>2026-05-03T13:42:24.75Z</time></trkpt><trkpt lat="44.394333" lon="7.8208418"><ele>397.75</ele><time>2026-05-03T13:42:25.752Z</time></trkpt><trkpt lat="44.3944564" lon="7.8209143"><ele>401.0</ele><time>2026-05-03T13:42:26.745Z</time></trkpt><trkpt lat="44.3945851" lon="7.8209533"><ele>402.75</ele><time>2026-05-03T13:42:27.749Z</time></trkpt><trkpt lat="44.3947157" lon="7.8209593"><ele>404.5</ele><time>2026-05-03T13:42:28.761Z</time></trkpt><trkpt lat="44.3948418" lon="7.820931"><ele>406.25</ele><time>2026-05-03T13:42:29.759Z</time></trkpt><trkpt lat="44.3949591" lon="7.8208739"><ele>408.0</ele><time>2026-05-03T13:42:30.758Z</time></trkpt><trkpt lat="44.3950596" lon="7.8207957"><ele>408.0</ele><time>2026-05-03T13:42:31.753Z</time></trkpt><trkpt lat="44.3951466" lon="7.8207043"><ele>408.0</ele><time>2026-05-03T13:42:32.751Z</time></trkpt><trkpt lat="44.395222" lon="7.8206076"><ele>408.0</ele><time>2026-05-03T13:42:33.753Z</time></trkpt><trkpt lat="44.3952899" lon="7.8205187"><ele>408.0</ele><time>2026-05-03T13:42:34.752Z</time></trkpt><trkpt lat="44.3953499" lon="7.8204331"><ele>408.0</ele><time>2026-05-03T13:42:35.759Z</time></trkpt><trkpt lat="44.3954049" lon="7.8203496"><ele>408.0</ele><time>2026-05-03T13:42:36.764Z</time></trkpt><trkpt lat="44.3954549" lon="7.8202697"><ele>408.0</ele><time>2026-05-03T13:42:37.756Z</time></trkpt><trkpt lat="44.3955061" lon="7.8201929"><ele>408.0</ele><time>2026-05-03T13:42:38.754Z</time></trkpt><trkpt lat="44.3955599" lon="7.8201206"><ele>408.0</ele><time>2026-05-03T13:42:39.76Z</time></trkpt><trkpt lat="44.3956628" lon="7.8200394"><ele>408.0</ele><time>2026-05-03T13:42:41.754Z</time></trkpt><trkpt lat="44.3957802" lon="7.8199795"><ele>408.79999999999995</ele><time>2026-05-03T13:42:43.75Z</time></trkpt><trkpt lat="44.3958607" lon="7.8199633"><ele>409.6</ele><time>2026-05-03T13:42:44.752Z</time></trkpt><trkpt lat="44.3959538" lon="7.8199567"><ele>410.4</ele><time>2026-05-03T13:42:45.758Z</time></trkpt><trkpt lat="44.3960554" lon="7.8199573"><ele>411.20000000000005</ele><time>2026-05-03T13:42:46.759Z</time></trkpt><trkpt lat="44.396169" lon="7.8199661"><ele>412.0</ele><time>2026-05-03T13:42:47.76Z</time></trkpt><trkpt lat="44.3962878" lon="7.8199847"><ele>412.20000000000005</ele><time>2026-05-03T13:42:48.759Z</time></trkpt><trkpt lat="44.3964054" lon="7.820003"><ele>412.4</ele><time>2026-05-03T13:42:49.749Z</time></trkpt><trkpt lat="44.3965293" lon="7.8200378"><ele>412.6</ele><time>2026-05-03T13:42:50.757Z</time></trkpt><trkpt lat="44.3966401" lon="7.8200744"><ele>412.79999999999995</ele><time>2026-05-03T13:42:51.754Z</time></trkpt><trkpt lat="44.3967234" lon="7.8200991"><ele>413.0</ele><time>2026-05-03T13:42:52.756Z</time></trkpt><trkpt lat="44.3967963" lon="7.8200997"><ele>413.0</ele><time>2026-05-03T13:42:54.754Z</time></trkpt><trkpt lat="44.3968779" lon="7.8201254"><ele>413.0</ele><time>2026-05-03T13:42:57.765Z</time></trkpt><trkpt lat="44.3969468" lon="7.8201969"><ele>413.0</ele><time>2026-05-03T13:42:59.756Z</time></trkpt><trkpt lat="44.3970431" lon="7.8202668"><ele>413.0</ele><time>2026-05-03T13:43:01.752Z</time></trkpt><trkpt lat="44.3971466" lon="7.8202837"><ele>413.0</ele><time>2026-05-03T13:43:03.751Z</time></trkpt><trkpt lat="44.3972162" lon="7.820255"><ele>412.49999999999994</ele><time>2026-05-03T13:43:52.762Z</time></trkpt><trkpt lat="44.3973084" lon="7.8202715"><ele>412.0</ele><time>2026-05-03T13:43:54.757Z</time></trkpt><trkpt lat="44.3973655" lon="7.8203113"><ele>411.5</ele><time>2026-05-03T13:43:55.76Z</time></trkpt><trkpt lat="44.3974229" lon="7.8203655"><ele>411.0</ele><time>2026-05-03T13:43:56.762Z</time></trkpt><trkpt lat="44.3975371" lon="7.8204218"><ele>410.49999999999994</ele><time>2026-05-03T13:43:58.757Z</time></trkpt><trkpt lat="44.397595" lon="7.8203681"><ele>410.0</ele><time>2026-05-03T13:43:59.766Z</time></trkpt><trkpt lat="44.3976444" lon="7.8202721"><ele>411.0</ele><time>2026-05-03T13:44:00.754Z</time></trkpt><trkpt lat="44.3977029" lon="7.8201486"><ele>412.0</ele><time>2026-05-03T13:44:01.765Z</time></trkpt><trkpt lat="44.3977834" lon="7.8200258"><ele>413.0</ele><time>2026-05-03T13:44:02.793Z</time></trkpt><trkpt lat="44.3978782" lon="7.8198936"><ele>414.0</ele><time>2026-05-03T13:44:03.761Z</time></trkpt><trkpt lat="44.3979746" lon="7.8197506"><ele>413.75</ele><time>2026-05-03T13:44:04.757Z</time></trkpt><trkpt lat="44.3980585" lon="7.8196014"><ele>413.5</ele><time>2026-05-03T13:44:05.758Z</time></trkpt><trkpt lat="44.3981288" lon="7.819448"><ele>413.25</ele><time>2026-05-03T13:44:06.76Z</time></trkpt><trkpt lat="44.3981965" lon="7.819275"><ele>413.0</ele><time>2026-05-03T13:44:07.76Z</time></trkpt><trkpt lat="44.3982752" lon="7.8190819"><ele>413.0</ele><time>2026-05-03T13:44:08.756Z</time></trkpt><trkpt lat="44.3983606" lon="7.8188692"><ele>413.0</ele><time>2026-05-03T13:44:09.758Z</time></trkpt><trkpt lat="44.3984493" lon="7.8186459"><ele>413.0</ele><time>2026-05-03T13:44:10.752Z</time></trkpt><trkpt lat="44.3985342" lon="7.8184335"><ele>413.5</ele><time>2026-05-03T13:44:11.758Z</time></trkpt><trkpt lat="44.3986106" lon="7.8182413"><ele>414.0</ele><time>2026-05-03T13:44:12.755Z</time></trkpt><trkpt lat="44.3986795" lon="7.8180674"><ele>414.5</ele><time>2026-05-03T13:44:13.757Z</time></trkpt><trkpt lat="44.3987434" lon="7.8179135"><ele>415.0</ele><time>2026-05-03T13:44:14.755Z</time></trkpt><trkpt lat="44.3988031" lon="7.817785"><ele>414.8</ele><time>2026-05-03T13:44:15.76Z</time></trkpt><trkpt lat="44.3988658" lon="7.8176842"><ele>414.6</ele><time>2026-05-03T13:44:16.769Z</time></trkpt><trkpt lat="44.3989268" lon="7.8175932"><ele>414.4</ele><time>2026-05-03T13:44:17.755Z</time></trkpt><trkpt lat="44.3989754" lon="7.817482"><ele>414.2</ele><time>2026-05-03T13:44:18.756Z</time></trkpt><trkpt lat="44.399012" lon="7.817349"><ele>414.0</ele><time>2026-05-03T13:44:19.758Z</time></trkpt><trkpt lat="44.3990593" lon="7.8172164"><ele>413.0</ele><time>2026-05-03T13:44:20.762Z</time></trkpt><trkpt lat="44.3991272" lon="7.8170987"><ele>413.0</ele><time>2026-05-03T13:44:21.753Z</time></trkpt><trkpt lat="44.3992188" lon="7.8169952"><ele>413.0</ele><time>2026-05-03T13:44:22.755Z</time></trkpt><trkpt lat="44.3993222" lon="7.8169037"><ele>413.0</ele><time>2026-05-03T13:44:23.768Z</time></trkpt></trkseg></trk></gpx>